<?xml version="1.0" encoding="UTF-8" standalone="no" ?>
<gpx xmlns="http://www.topografix.com/GPX/1/1" xmlns:xsi="http://www.w3.org/2001/XMLSchema-instance" xsi:schemaLocation="http://www.topografix.com/GPX/1/1 http://www.topografix.com/GPX/1/1/gpx.xsd" version="1.1" creator="VisuGPX - https://www.visugpx.com">
  <metadata>
    <name>Longue sortie Gravel dans les montagnes noires de Gourin</name>
  </metadata>
  <trk>
    <name><![CDATA[Longue sortie Gravel dans les montagnes noires de Gourin_1]]></name>
    <desc><![CDATA[]]></desc>
    <extensions>
      <line xmlns="http://www.topografix.com/GPX/gpx_style/0/2">
        <color>0000FF</color>
        <width>4</width>
      </line>
    </extensions>
    <trkseg>
      <trkpt lat="47.89098" lon="-3.88189">
        <ele>74.3</ele>
        <time>2023-04-05T08:22:28Z</time>
      </trkpt>
      <trkpt lat="47.89098" lon="-3.88189">
        <ele>74.3</ele>
        <time>2023-04-05T08:22:29Z</time>
      </trkpt>
      <trkpt lat="47.89098" lon="-3.88189">
        <ele>74.3</ele>
        <time>2023-04-05T08:22:30Z</time>
      </trkpt>
      <trkpt lat="47.89098" lon="-3.88189">
        <ele>74.3</ele>
        <time>2023-04-05T08:22:31Z</time>
      </trkpt>
      <trkpt lat="47.89098" lon="-3.88191">
        <ele>74.3</ele>
        <time>2023-04-05T08:22:32Z</time>
      </trkpt>
      <trkpt lat="47.89098" lon="-3.88192">
        <ele>74.3</ele>
        <time>2023-04-05T08:22:33Z</time>
      </trkpt>
      <trkpt lat="47.89098" lon="-3.88194">
        <ele>74.4</ele>
        <time>2023-04-05T08:22:34Z</time>
      </trkpt>
      <trkpt lat="47.89098" lon="-3.88199">
        <ele>74.4</ele>
        <time>2023-04-05T08:22:35Z</time>
      </trkpt>
      <trkpt lat="47.89098" lon="-3.88201">
        <ele>74.5</ele>
        <time>2023-04-05T08:22:36Z</time>
      </trkpt>
      <trkpt lat="47.89098" lon="-3.88209">
        <ele>74.6</ele>
        <time>2023-04-05T08:22:37Z</time>
      </trkpt>
      <trkpt lat="47.89098" lon="-3.88213">
        <ele>74.6</ele>
        <time>2023-04-05T08:22:38Z</time>
      </trkpt>
      <trkpt lat="47.89097" lon="-3.8822">
        <ele>74.6</ele>
        <time>2023-04-05T08:22:40Z</time>
      </trkpt>
      <trkpt lat="47.89097" lon="-3.88226">
        <ele>74.7</ele>
        <time>2023-04-05T08:22:41Z</time>
      </trkpt>
      <trkpt lat="47.89097" lon="-3.88236">
        <ele>74.7</ele>
        <time>2023-04-05T08:22:42Z</time>
      </trkpt>
      <trkpt lat="47.89096" lon="-3.88248">
        <ele>74.8</ele>
        <time>2023-04-05T08:22:44Z</time>
      </trkpt>
      <trkpt lat="47.89095" lon="-3.88254">
        <ele>74.8</ele>
        <time>2023-04-05T08:22:45Z</time>
      </trkpt>
      <trkpt lat="47.89094" lon="-3.88259">
        <ele>74.8</ele>
        <time>2023-04-05T08:22:46Z</time>
      </trkpt>
      <trkpt lat="47.89093" lon="-3.88265">
        <ele>74.8</ele>
        <time>2023-04-05T08:22:47Z</time>
      </trkpt>
      <trkpt lat="47.89092" lon="-3.88271">
        <ele>74.8</ele>
        <time>2023-04-05T08:22:48Z</time>
      </trkpt>
      <trkpt lat="47.89089" lon="-3.88282">
        <ele>74.7</ele>
        <time>2023-04-05T08:22:50Z</time>
      </trkpt>
      <trkpt lat="47.89088" lon="-3.88288">
        <ele>74.7</ele>
        <time>2023-04-05T08:22:51Z</time>
      </trkpt>
      <trkpt lat="47.89087" lon="-3.88294">
        <ele>74.6</ele>
        <time>2023-04-05T08:22:52Z</time>
      </trkpt>
      <trkpt lat="47.89085" lon="-3.88301">
        <ele>74.5</ele>
        <time>2023-04-05T08:22:54Z</time>
      </trkpt>
      <trkpt lat="47.89082" lon="-3.88313">
        <ele>74.4</ele>
        <time>2023-04-05T08:22:55Z</time>
      </trkpt>
      <trkpt lat="47.89081" lon="-3.88319">
        <ele>74.3</ele>
        <time>2023-04-05T08:22:56Z</time>
      </trkpt>
      <trkpt lat="47.89078" lon="-3.88328">
        <ele>74.1</ele>
        <time>2023-04-05T08:22:58Z</time>
      </trkpt>
      <trkpt lat="47.89076" lon="-3.88334">
        <ele>74</ele>
        <time>2023-04-05T08:22:59Z</time>
      </trkpt>
      <trkpt lat="47.89073" lon="-3.8834">
        <ele>73.9</ele>
        <time>2023-04-05T08:23:00Z</time>
      </trkpt>
      <trkpt lat="47.8907" lon="-3.88348">
        <ele>73.7</ele>
        <time>2023-04-05T08:23:01Z</time>
      </trkpt>
      <trkpt lat="47.89066" lon="-3.88355">
        <ele>73.5</ele>
        <time>2023-04-05T08:23:02Z</time>
      </trkpt>
      <trkpt lat="47.89062" lon="-3.88362">
        <ele>73.2</ele>
        <time>2023-04-05T08:23:03Z</time>
      </trkpt>
      <trkpt lat="47.89059" lon="-3.88371">
        <ele>72.7</ele>
        <time>2023-04-05T08:23:04Z</time>
      </trkpt>
      <trkpt lat="47.89055" lon="-3.8838">
        <ele>72.3</ele>
        <time>2023-04-05T08:23:05Z</time>
      </trkpt>
      <trkpt lat="47.89052" lon="-3.8839">
        <ele>71.8</ele>
        <time>2023-04-05T08:23:06Z</time>
      </trkpt>
      <trkpt lat="47.89049" lon="-3.884">
        <ele>71.3</ele>
        <time>2023-04-05T08:23:07Z</time>
      </trkpt>
      <trkpt lat="47.89045" lon="-3.88411">
        <ele>70.8</ele>
        <time>2023-04-05T08:23:08Z</time>
      </trkpt>
      <trkpt lat="47.89042" lon="-3.8842">
        <ele>70.5</ele>
        <time>2023-04-05T08:23:09Z</time>
      </trkpt>
      <trkpt lat="47.89039" lon="-3.8843">
        <ele>70.1</ele>
        <time>2023-04-05T08:23:10Z</time>
      </trkpt>
      <trkpt lat="47.89034" lon="-3.88439">
        <ele>69.8</ele>
        <time>2023-04-05T08:23:11Z</time>
      </trkpt>
      <trkpt lat="47.89033" lon="-3.88449">
        <ele>69.6</ele>
        <time>2023-04-05T08:23:12Z</time>
      </trkpt>
      <trkpt lat="47.89036" lon="-3.88458">
        <ele>69.4</ele>
        <time>2023-04-05T08:23:13Z</time>
      </trkpt>
      <trkpt lat="47.8904" lon="-3.88465">
        <ele>69.5</ele>
        <time>2023-04-05T08:23:14Z</time>
      </trkpt>
      <trkpt lat="47.89046" lon="-3.88469">
        <ele>69.6</ele>
        <time>2023-04-05T08:23:15Z</time>
      </trkpt>
      <trkpt lat="47.89051" lon="-3.88473">
        <ele>69.6</ele>
        <time>2023-04-05T08:23:16Z</time>
      </trkpt>
      <trkpt lat="47.89056" lon="-3.88477">
        <ele>69.7</ele>
        <time>2023-04-05T08:23:17Z</time>
      </trkpt>
      <trkpt lat="47.8906" lon="-3.88482">
        <ele>69.7</ele>
        <time>2023-04-05T08:23:18Z</time>
      </trkpt>
      <trkpt lat="47.89065" lon="-3.88487">
        <ele>69.8</ele>
        <time>2023-04-05T08:23:19Z</time>
      </trkpt>
      <trkpt lat="47.8907" lon="-3.88491">
        <ele>69.8</ele>
        <time>2023-04-05T08:23:20Z</time>
      </trkpt>
      <trkpt lat="47.89074" lon="-3.88495">
        <ele>69.9</ele>
        <time>2023-04-05T08:23:21Z</time>
      </trkpt>
      <trkpt lat="47.89079" lon="-3.885">
        <ele>69.9</ele>
        <time>2023-04-05T08:23:22Z</time>
      </trkpt>
      <trkpt lat="47.89082" lon="-3.88506">
        <ele>70</ele>
        <time>2023-04-05T08:23:23Z</time>
      </trkpt>
      <trkpt lat="47.89086" lon="-3.88512">
        <ele>70</ele>
        <time>2023-04-05T08:23:24Z</time>
      </trkpt>
      <trkpt lat="47.89089" lon="-3.88518">
        <ele>70</ele>
        <time>2023-04-05T08:23:25Z</time>
      </trkpt>
      <trkpt lat="47.89092" lon="-3.88524">
        <ele>70.1</ele>
        <time>2023-04-05T08:23:26Z</time>
      </trkpt>
      <trkpt lat="47.89095" lon="-3.8853">
        <ele>70.1</ele>
        <time>2023-04-05T08:23:27Z</time>
      </trkpt>
      <trkpt lat="47.89099" lon="-3.88537">
        <ele>70.1</ele>
        <time>2023-04-05T08:23:28Z</time>
      </trkpt>
      <trkpt lat="47.89102" lon="-3.88543">
        <ele>70.2</ele>
        <time>2023-04-05T08:23:29Z</time>
      </trkpt>
      <trkpt lat="47.89106" lon="-3.8855">
        <ele>70.3</ele>
        <time>2023-04-05T08:23:30Z</time>
      </trkpt>
      <trkpt lat="47.89109" lon="-3.88556">
        <ele>70.3</ele>
        <time>2023-04-05T08:23:31Z</time>
      </trkpt>
      <trkpt lat="47.89112" lon="-3.88562">
        <ele>70.4</ele>
        <time>2023-04-05T08:23:32Z</time>
      </trkpt>
      <trkpt lat="47.89115" lon="-3.88568">
        <ele>70.5</ele>
        <time>2023-04-05T08:23:33Z</time>
      </trkpt>
      <trkpt lat="47.89119" lon="-3.88575">
        <ele>70.5</ele>
        <time>2023-04-05T08:23:34Z</time>
      </trkpt>
      <trkpt lat="47.89122" lon="-3.8858">
        <ele>70.6</ele>
        <time>2023-04-05T08:23:35Z</time>
      </trkpt>
      <trkpt lat="47.89125" lon="-3.88586">
        <ele>70.6</ele>
        <time>2023-04-05T08:23:36Z</time>
      </trkpt>
      <trkpt lat="47.89128" lon="-3.88592">
        <ele>70.7</ele>
        <time>2023-04-05T08:23:37Z</time>
      </trkpt>
      <trkpt lat="47.89131" lon="-3.88598">
        <ele>70.7</ele>
        <time>2023-04-05T08:23:38Z</time>
      </trkpt>
      <trkpt lat="47.89134" lon="-3.88604">
        <ele>70.8</ele>
        <time>2023-04-05T08:23:39Z</time>
      </trkpt>
      <trkpt lat="47.89137" lon="-3.88609">
        <ele>70.9</ele>
        <time>2023-04-05T08:23:40Z</time>
      </trkpt>
      <trkpt lat="47.8914" lon="-3.88614">
        <ele>71</ele>
        <time>2023-04-05T08:23:41Z</time>
      </trkpt>
      <trkpt lat="47.89143" lon="-3.88619">
        <ele>71.1</ele>
        <time>2023-04-05T08:23:42Z</time>
      </trkpt>
      <trkpt lat="47.89145" lon="-3.88622">
        <ele>71.2</ele>
        <time>2023-04-05T08:23:43Z</time>
      </trkpt>
      <trkpt lat="47.89147" lon="-3.88626">
        <ele>71.3</ele>
        <time>2023-04-05T08:23:44Z</time>
      </trkpt>
      <trkpt lat="47.8915" lon="-3.88633">
        <ele>71.5</ele>
        <time>2023-04-05T08:23:45Z</time>
      </trkpt>
      <trkpt lat="47.89152" lon="-3.88638">
        <ele>71.6</ele>
        <time>2023-04-05T08:23:46Z</time>
      </trkpt>
      <trkpt lat="47.89155" lon="-3.88643">
        <ele>71.7</ele>
        <time>2023-04-05T08:23:47Z</time>
      </trkpt>
      <trkpt lat="47.89158" lon="-3.88648">
        <ele>71.8</ele>
        <time>2023-04-05T08:23:48Z</time>
      </trkpt>
      <trkpt lat="47.89161" lon="-3.88654">
        <ele>71.9</ele>
        <time>2023-04-05T08:23:49Z</time>
      </trkpt>
      <trkpt lat="47.89164" lon="-3.88657">
        <ele>72</ele>
        <time>2023-04-05T08:23:50Z</time>
      </trkpt>
      <trkpt lat="47.89167" lon="-3.88664">
        <ele>72.2</ele>
        <time>2023-04-05T08:23:51Z</time>
      </trkpt>
      <trkpt lat="47.8917" lon="-3.8867">
        <ele>72.3</ele>
        <time>2023-04-05T08:23:52Z</time>
      </trkpt>
      <trkpt lat="47.89175" lon="-3.88679">
        <ele>72.5</ele>
        <time>2023-04-05T08:23:54Z</time>
      </trkpt>
      <trkpt lat="47.8918" lon="-3.88688">
        <ele>72.6</ele>
        <time>2023-04-05T08:23:56Z</time>
      </trkpt>
      <trkpt lat="47.89184" lon="-3.88694">
        <ele>72.7</ele>
        <time>2023-04-05T08:23:58Z</time>
      </trkpt>
      <trkpt lat="47.89187" lon="-3.88698">
        <ele>72.8</ele>
        <time>2023-04-05T08:23:59Z</time>
      </trkpt>
      <trkpt lat="47.8919" lon="-3.88703">
        <ele>72.8</ele>
        <time>2023-04-05T08:24:00Z</time>
      </trkpt>
      <trkpt lat="47.89193" lon="-3.88707">
        <ele>72.9</ele>
        <time>2023-04-05T08:24:01Z</time>
      </trkpt>
      <trkpt lat="47.89196" lon="-3.88712">
        <ele>72.9</ele>
        <time>2023-04-05T08:24:02Z</time>
      </trkpt>
      <trkpt lat="47.89199" lon="-3.88716">
        <ele>72.9</ele>
        <time>2023-04-05T08:24:03Z</time>
      </trkpt>
      <trkpt lat="47.89202" lon="-3.8872">
        <ele>73</ele>
        <time>2023-04-05T08:24:04Z</time>
      </trkpt>
      <trkpt lat="47.89206" lon="-3.88724">
        <ele>73</ele>
        <time>2023-04-05T08:24:05Z</time>
      </trkpt>
      <trkpt lat="47.89208" lon="-3.88728">
        <ele>73.1</ele>
        <time>2023-04-05T08:24:06Z</time>
      </trkpt>
      <trkpt lat="47.89214" lon="-3.88737">
        <ele>73.3</ele>
        <time>2023-04-05T08:24:07Z</time>
      </trkpt>
      <trkpt lat="47.89217" lon="-3.88742">
        <ele>73.4</ele>
        <time>2023-04-05T08:24:08Z</time>
      </trkpt>
      <trkpt lat="47.89221" lon="-3.88746">
        <ele>73.5</ele>
        <time>2023-04-05T08:24:09Z</time>
      </trkpt>
      <trkpt lat="47.89224" lon="-3.88751">
        <ele>73.7</ele>
        <time>2023-04-05T08:24:10Z</time>
      </trkpt>
      <trkpt lat="47.89227" lon="-3.88756">
        <ele>73.8</ele>
        <time>2023-04-05T08:24:12Z</time>
      </trkpt>
      <trkpt lat="47.89232" lon="-3.88765">
        <ele>74</ele>
        <time>2023-04-05T08:24:13Z</time>
      </trkpt>
      <trkpt lat="47.89235" lon="-3.88769">
        <ele>74.1</ele>
        <time>2023-04-05T08:24:14Z</time>
      </trkpt>
      <trkpt lat="47.89238" lon="-3.88773">
        <ele>74.2</ele>
        <time>2023-04-05T08:24:16Z</time>
      </trkpt>
      <trkpt lat="47.89242" lon="-3.88782">
        <ele>74.4</ele>
        <time>2023-04-05T08:24:17Z</time>
      </trkpt>
      <trkpt lat="47.89244" lon="-3.88787">
        <ele>74.5</ele>
        <time>2023-04-05T08:24:19Z</time>
      </trkpt>
      <trkpt lat="47.89249" lon="-3.88796">
        <ele>74.7</ele>
        <time>2023-04-05T08:24:20Z</time>
      </trkpt>
      <trkpt lat="47.89255" lon="-3.88806">
        <ele>74.8</ele>
        <time>2023-04-05T08:24:22Z</time>
      </trkpt>
      <trkpt lat="47.89258" lon="-3.8881">
        <ele>74.9</ele>
        <time>2023-04-05T08:24:23Z</time>
      </trkpt>
      <trkpt lat="47.89262" lon="-3.88814">
        <ele>75</ele>
        <time>2023-04-05T08:24:25Z</time>
      </trkpt>
      <trkpt lat="47.89268" lon="-3.88822">
        <ele>75.1</ele>
        <time>2023-04-05T08:24:26Z</time>
      </trkpt>
      <trkpt lat="47.89275" lon="-3.88829">
        <ele>75.2</ele>
        <time>2023-04-05T08:24:28Z</time>
      </trkpt>
      <trkpt lat="47.89279" lon="-3.88833">
        <ele>75.3</ele>
        <time>2023-04-05T08:24:30Z</time>
      </trkpt>
      <trkpt lat="47.89286" lon="-3.88838">
        <ele>75.4</ele>
        <time>2023-04-05T08:24:31Z</time>
      </trkpt>
      <trkpt lat="47.89291" lon="-3.88841">
        <ele>75.4</ele>
        <time>2023-04-05T08:24:33Z</time>
      </trkpt>
      <trkpt lat="47.89295" lon="-3.88843">
        <ele>75.5</ele>
        <time>2023-04-05T08:24:34Z</time>
      </trkpt>
      <trkpt lat="47.89302" lon="-3.88849">
        <ele>75.6</ele>
        <time>2023-04-05T08:24:35Z</time>
      </trkpt>
      <trkpt lat="47.89307" lon="-3.88854">
        <ele>75.6</ele>
        <time>2023-04-05T08:24:37Z</time>
      </trkpt>
      <trkpt lat="47.89311" lon="-3.88858">
        <ele>75.6</ele>
        <time>2023-04-05T08:24:38Z</time>
      </trkpt>
      <trkpt lat="47.89314" lon="-3.8886">
        <ele>75.6</ele>
        <time>2023-04-05T08:24:39Z</time>
      </trkpt>
      <trkpt lat="47.89318" lon="-3.88865">
        <ele>75.6</ele>
        <time>2023-04-05T08:24:40Z</time>
      </trkpt>
      <trkpt lat="47.89322" lon="-3.88869">
        <ele>75.6</ele>
        <time>2023-04-05T08:24:41Z</time>
      </trkpt>
      <trkpt lat="47.89326" lon="-3.88873">
        <ele>75.6</ele>
        <time>2023-04-05T08:24:42Z</time>
      </trkpt>
      <trkpt lat="47.8933" lon="-3.88877">
        <ele>75.6</ele>
        <time>2023-04-05T08:24:43Z</time>
      </trkpt>
      <trkpt lat="47.89334" lon="-3.88881">
        <ele>75.6</ele>
        <time>2023-04-05T08:24:44Z</time>
      </trkpt>
      <trkpt lat="47.89338" lon="-3.88885">
        <ele>75.6</ele>
        <time>2023-04-05T08:24:45Z</time>
      </trkpt>
      <trkpt lat="47.89342" lon="-3.88889">
        <ele>75.6</ele>
        <time>2023-04-05T08:24:46Z</time>
      </trkpt>
      <trkpt lat="47.89346" lon="-3.88892">
        <ele>75.5</ele>
        <time>2023-04-05T08:24:47Z</time>
      </trkpt>
      <trkpt lat="47.8935" lon="-3.88896">
        <ele>75.5</ele>
        <time>2023-04-05T08:24:48Z</time>
      </trkpt>
      <trkpt lat="47.89354" lon="-3.88901">
        <ele>75.5</ele>
        <time>2023-04-05T08:24:49Z</time>
      </trkpt>
      <trkpt lat="47.89358" lon="-3.88905">
        <ele>75.5</ele>
        <time>2023-04-05T08:24:50Z</time>
      </trkpt>
      <trkpt lat="47.89362" lon="-3.8891">
        <ele>75.5</ele>
        <time>2023-04-05T08:24:51Z</time>
      </trkpt>
      <trkpt lat="47.89367" lon="-3.88914">
        <ele>75.4</ele>
        <time>2023-04-05T08:24:52Z</time>
      </trkpt>
      <trkpt lat="47.89371" lon="-3.88918">
        <ele>75.4</ele>
        <time>2023-04-05T08:24:53Z</time>
      </trkpt>
      <trkpt lat="47.89375" lon="-3.88923">
        <ele>75.4</ele>
        <time>2023-04-05T08:24:54Z</time>
      </trkpt>
      <trkpt lat="47.89379" lon="-3.88927">
        <ele>75.3</ele>
        <time>2023-04-05T08:24:55Z</time>
      </trkpt>
      <trkpt lat="47.89384" lon="-3.88932">
        <ele>75.3</ele>
        <time>2023-04-05T08:24:56Z</time>
      </trkpt>
      <trkpt lat="47.89388" lon="-3.88937">
        <ele>75.4</ele>
        <time>2023-04-05T08:24:57Z</time>
      </trkpt>
      <trkpt lat="47.89392" lon="-3.88942">
        <ele>75.4</ele>
        <time>2023-04-05T08:24:58Z</time>
      </trkpt>
      <trkpt lat="47.89397" lon="-3.88946">
        <ele>75.5</ele>
        <time>2023-04-05T08:24:59Z</time>
      </trkpt>
      <trkpt lat="47.894" lon="-3.88951">
        <ele>75.6</ele>
        <time>2023-04-05T08:25:00Z</time>
      </trkpt>
      <trkpt lat="47.89404" lon="-3.88955">
        <ele>75.7</ele>
        <time>2023-04-05T08:25:01Z</time>
      </trkpt>
      <trkpt lat="47.89409" lon="-3.88959">
        <ele>75.8</ele>
        <time>2023-04-05T08:25:02Z</time>
      </trkpt>
      <trkpt lat="47.89413" lon="-3.88963">
        <ele>75.9</ele>
        <time>2023-04-05T08:25:03Z</time>
      </trkpt>
      <trkpt lat="47.89417" lon="-3.88967">
        <ele>76</ele>
        <time>2023-04-05T08:25:04Z</time>
      </trkpt>
      <trkpt lat="47.89421" lon="-3.88971">
        <ele>76.1</ele>
        <time>2023-04-05T08:25:05Z</time>
      </trkpt>
      <trkpt lat="47.89424" lon="-3.88975">
        <ele>76.2</ele>
        <time>2023-04-05T08:25:06Z</time>
      </trkpt>
      <trkpt lat="47.89428" lon="-3.88979">
        <ele>76.3</ele>
        <time>2023-04-05T08:25:07Z</time>
      </trkpt>
      <trkpt lat="47.89432" lon="-3.88982">
        <ele>76.4</ele>
        <time>2023-04-05T08:25:08Z</time>
      </trkpt>
      <trkpt lat="47.89435" lon="-3.88984">
        <ele>76.5</ele>
        <time>2023-04-05T08:25:09Z</time>
      </trkpt>
      <trkpt lat="47.89438" lon="-3.88986">
        <ele>76.6</ele>
        <time>2023-04-05T08:25:10Z</time>
      </trkpt>
      <trkpt lat="47.89442" lon="-3.88985">
        <ele>76.7</ele>
        <time>2023-04-05T08:25:11Z</time>
      </trkpt>
      <trkpt lat="47.89447" lon="-3.8898">
        <ele>76.7</ele>
        <time>2023-04-05T08:25:12Z</time>
      </trkpt>
      <trkpt lat="47.89451" lon="-3.88975">
        <ele>76.7</ele>
        <time>2023-04-05T08:25:13Z</time>
      </trkpt>
      <trkpt lat="47.89454" lon="-3.88969">
        <ele>76.7</ele>
        <time>2023-04-05T08:25:14Z</time>
      </trkpt>
      <trkpt lat="47.89458" lon="-3.88964">
        <ele>76.7</ele>
        <time>2023-04-05T08:25:15Z</time>
      </trkpt>
      <trkpt lat="47.89461" lon="-3.88959">
        <ele>76.7</ele>
        <time>2023-04-05T08:25:16Z</time>
      </trkpt>
      <trkpt lat="47.89465" lon="-3.88954">
        <ele>76.7</ele>
        <time>2023-04-05T08:25:17Z</time>
      </trkpt>
      <trkpt lat="47.89468" lon="-3.88949">
        <ele>76.8</ele>
        <time>2023-04-05T08:25:18Z</time>
      </trkpt>
      <trkpt lat="47.89471" lon="-3.88944">
        <ele>76.8</ele>
        <time>2023-04-05T08:25:19Z</time>
      </trkpt>
      <trkpt lat="47.89475" lon="-3.88939">
        <ele>76.8</ele>
        <time>2023-04-05T08:25:20Z</time>
      </trkpt>
      <trkpt lat="47.89478" lon="-3.88934">
        <ele>76.8</ele>
        <time>2023-04-05T08:25:21Z</time>
      </trkpt>
      <trkpt lat="47.89482" lon="-3.88928">
        <ele>76.9</ele>
        <time>2023-04-05T08:25:22Z</time>
      </trkpt>
      <trkpt lat="47.89486" lon="-3.88923">
        <ele>76.9</ele>
        <time>2023-04-05T08:25:23Z</time>
      </trkpt>
      <trkpt lat="47.89489" lon="-3.88918">
        <ele>76.9</ele>
        <time>2023-04-05T08:25:24Z</time>
      </trkpt>
      <trkpt lat="47.89492" lon="-3.88913">
        <ele>76.9</ele>
        <time>2023-04-05T08:25:25Z</time>
      </trkpt>
      <trkpt lat="47.89496" lon="-3.88907">
        <ele>76.9</ele>
        <time>2023-04-05T08:25:26Z</time>
      </trkpt>
      <trkpt lat="47.89499" lon="-3.88902">
        <ele>76.8</ele>
        <time>2023-04-05T08:25:27Z</time>
      </trkpt>
      <trkpt lat="47.89502" lon="-3.88896">
        <ele>76.8</ele>
        <time>2023-04-05T08:25:28Z</time>
      </trkpt>
      <trkpt lat="47.89506" lon="-3.88891">
        <ele>76.8</ele>
        <time>2023-04-05T08:25:29Z</time>
      </trkpt>
      <trkpt lat="47.89509" lon="-3.88885">
        <ele>76.8</ele>
        <time>2023-04-05T08:25:30Z</time>
      </trkpt>
      <trkpt lat="47.89512" lon="-3.8888">
        <ele>76.7</ele>
        <time>2023-04-05T08:25:31Z</time>
      </trkpt>
      <trkpt lat="47.89516" lon="-3.88874">
        <ele>76.6</ele>
        <time>2023-04-05T08:25:32Z</time>
      </trkpt>
      <trkpt lat="47.89519" lon="-3.88868">
        <ele>76.6</ele>
        <time>2023-04-05T08:25:33Z</time>
      </trkpt>
      <trkpt lat="47.89523" lon="-3.88863">
        <ele>76.5</ele>
        <time>2023-04-05T08:25:34Z</time>
      </trkpt>
      <trkpt lat="47.89526" lon="-3.88857">
        <ele>76.5</ele>
        <time>2023-04-05T08:25:35Z</time>
      </trkpt>
      <trkpt lat="47.8953" lon="-3.88851">
        <ele>76.5</ele>
        <time>2023-04-05T08:25:36Z</time>
      </trkpt>
      <trkpt lat="47.89534" lon="-3.88845">
        <ele>76.4</ele>
        <time>2023-04-05T08:25:37Z</time>
      </trkpt>
      <trkpt lat="47.89537" lon="-3.88838">
        <ele>76.4</ele>
        <time>2023-04-05T08:25:38Z</time>
      </trkpt>
      <trkpt lat="47.89539" lon="-3.88832">
        <ele>76.3</ele>
        <time>2023-04-05T08:25:39Z</time>
      </trkpt>
      <trkpt lat="47.89542" lon="-3.88826">
        <ele>76.3</ele>
        <time>2023-04-05T08:25:40Z</time>
      </trkpt>
      <trkpt lat="47.89545" lon="-3.88819">
        <ele>76.2</ele>
        <time>2023-04-05T08:25:41Z</time>
      </trkpt>
      <trkpt lat="47.89549" lon="-3.88811">
        <ele>76</ele>
        <time>2023-04-05T08:25:42Z</time>
      </trkpt>
      <trkpt lat="47.89552" lon="-3.88804">
        <ele>75.9</ele>
        <time>2023-04-05T08:25:43Z</time>
      </trkpt>
      <trkpt lat="47.89556" lon="-3.88796">
        <ele>75.7</ele>
        <time>2023-04-05T08:25:44Z</time>
      </trkpt>
      <trkpt lat="47.89558" lon="-3.88788">
        <ele>75.4</ele>
        <time>2023-04-05T08:25:45Z</time>
      </trkpt>
      <trkpt lat="47.89562" lon="-3.8878">
        <ele>75.2</ele>
        <time>2023-04-05T08:25:46Z</time>
      </trkpt>
      <trkpt lat="47.89565" lon="-3.88774">
        <ele>74.9</ele>
        <time>2023-04-05T08:25:47Z</time>
      </trkpt>
      <trkpt lat="47.89569" lon="-3.88766">
        <ele>74.7</ele>
        <time>2023-04-05T08:25:48Z</time>
      </trkpt>
      <trkpt lat="47.89572" lon="-3.88757">
        <ele>74.3</ele>
        <time>2023-04-05T08:25:49Z</time>
      </trkpt>
      <trkpt lat="47.89575" lon="-3.88748">
        <ele>74</ele>
        <time>2023-04-05T08:25:50Z</time>
      </trkpt>
      <trkpt lat="47.89578" lon="-3.88739">
        <ele>73.6</ele>
        <time>2023-04-05T08:25:51Z</time>
      </trkpt>
      <trkpt lat="47.89581" lon="-3.8873">
        <ele>73.3</ele>
        <time>2023-04-05T08:25:52Z</time>
      </trkpt>
      <trkpt lat="47.89584" lon="-3.88721">
        <ele>72.8</ele>
        <time>2023-04-05T08:25:53Z</time>
      </trkpt>
      <trkpt lat="47.89587" lon="-3.88712">
        <ele>72.3</ele>
        <time>2023-04-05T08:25:54Z</time>
      </trkpt>
      <trkpt lat="47.89591" lon="-3.88704">
        <ele>71.8</ele>
        <time>2023-04-05T08:25:55Z</time>
      </trkpt>
      <trkpt lat="47.89595" lon="-3.88694">
        <ele>71.2</ele>
        <time>2023-04-05T08:25:56Z</time>
      </trkpt>
      <trkpt lat="47.89601" lon="-3.88686">
        <ele>70.5</ele>
        <time>2023-04-05T08:25:57Z</time>
      </trkpt>
      <trkpt lat="47.89606" lon="-3.88677">
        <ele>69.8</ele>
        <time>2023-04-05T08:25:58Z</time>
      </trkpt>
      <trkpt lat="47.89612" lon="-3.88669">
        <ele>69</ele>
        <time>2023-04-05T08:25:59Z</time>
      </trkpt>
      <trkpt lat="47.89619" lon="-3.88662">
        <ele>68.1</ele>
        <time>2023-04-05T08:26:00Z</time>
      </trkpt>
      <trkpt lat="47.89627" lon="-3.88655">
        <ele>67.1</ele>
        <time>2023-04-05T08:26:01Z</time>
      </trkpt>
      <trkpt lat="47.89636" lon="-3.88651">
        <ele>66</ele>
        <time>2023-04-05T08:26:02Z</time>
      </trkpt>
      <trkpt lat="47.89647" lon="-3.88647">
        <ele>64.8</ele>
        <time>2023-04-05T08:26:03Z</time>
      </trkpt>
      <trkpt lat="47.89657" lon="-3.88646">
        <ele>63.5</ele>
        <time>2023-04-05T08:26:04Z</time>
      </trkpt>
      <trkpt lat="47.89667" lon="-3.88645">
        <ele>62.2</ele>
        <time>2023-04-05T08:26:05Z</time>
      </trkpt>
      <trkpt lat="47.89678" lon="-3.88643">
        <ele>60.9</ele>
        <time>2023-04-05T08:26:06Z</time>
      </trkpt>
      <trkpt lat="47.89688" lon="-3.8864">
        <ele>59.5</ele>
        <time>2023-04-05T08:26:07Z</time>
      </trkpt>
      <trkpt lat="47.89699" lon="-3.88636">
        <ele>58.3</ele>
        <time>2023-04-05T08:26:08Z</time>
      </trkpt>
      <trkpt lat="47.8971" lon="-3.88631">
        <ele>57.2</ele>
        <time>2023-04-05T08:26:09Z</time>
      </trkpt>
      <trkpt lat="47.89721" lon="-3.88626">
        <ele>56</ele>
        <time>2023-04-05T08:26:10Z</time>
      </trkpt>
      <trkpt lat="47.89731" lon="-3.8862">
        <ele>54.9</ele>
        <time>2023-04-05T08:26:11Z</time>
      </trkpt>
      <trkpt lat="47.89742" lon="-3.88612">
        <ele>53.9</ele>
        <time>2023-04-05T08:26:12Z</time>
      </trkpt>
      <trkpt lat="47.89752" lon="-3.88604">
        <ele>52.8</ele>
        <time>2023-04-05T08:26:13Z</time>
      </trkpt>
      <trkpt lat="47.89762" lon="-3.88598">
        <ele>51.9</ele>
        <time>2023-04-05T08:26:14Z</time>
      </trkpt>
      <trkpt lat="47.89772" lon="-3.88591">
        <ele>50.9</ele>
        <time>2023-04-05T08:26:15Z</time>
      </trkpt>
      <trkpt lat="47.89782" lon="-3.88585">
        <ele>49.8</ele>
        <time>2023-04-05T08:26:16Z</time>
      </trkpt>
      <trkpt lat="47.89792" lon="-3.88579">
        <ele>48.7</ele>
        <time>2023-04-05T08:26:17Z</time>
      </trkpt>
      <trkpt lat="47.89802" lon="-3.88574">
        <ele>47.5</ele>
        <time>2023-04-05T08:26:18Z</time>
      </trkpt>
      <trkpt lat="47.89811" lon="-3.88568">
        <ele>46.3</ele>
        <time>2023-04-05T08:26:19Z</time>
      </trkpt>
      <trkpt lat="47.8982" lon="-3.88564">
        <ele>45.1</ele>
        <time>2023-04-05T08:26:20Z</time>
      </trkpt>
      <trkpt lat="47.8983" lon="-3.8856">
        <ele>43.8</ele>
        <time>2023-04-05T08:26:21Z</time>
      </trkpt>
      <trkpt lat="47.89841" lon="-3.88555">
        <ele>42.2</ele>
        <time>2023-04-05T08:26:22Z</time>
      </trkpt>
      <trkpt lat="47.89853" lon="-3.88549">
        <ele>40.4</ele>
        <time>2023-04-05T08:26:23Z</time>
      </trkpt>
      <trkpt lat="47.89865" lon="-3.88542">
        <ele>38.5</ele>
        <time>2023-04-05T08:26:24Z</time>
      </trkpt>
      <trkpt lat="47.89875" lon="-3.88537">
        <ele>36.9</ele>
        <time>2023-04-05T08:26:25Z</time>
      </trkpt>
      <trkpt lat="47.89887" lon="-3.8853">
        <ele>35.2</ele>
        <time>2023-04-05T08:26:26Z</time>
      </trkpt>
      <trkpt lat="47.89901" lon="-3.88524">
        <ele>33.5</ele>
        <time>2023-04-05T08:26:27Z</time>
      </trkpt>
      <trkpt lat="47.89915" lon="-3.88519">
        <ele>32.1</ele>
        <time>2023-04-05T08:26:28Z</time>
      </trkpt>
      <trkpt lat="47.89928" lon="-3.88515">
        <ele>30.9</ele>
        <time>2023-04-05T08:26:29Z</time>
      </trkpt>
      <trkpt lat="47.89939" lon="-3.88505">
        <ele>29.9</ele>
        <time>2023-04-05T08:26:30Z</time>
      </trkpt>
      <trkpt lat="47.89949" lon="-3.88492">
        <ele>29.4</ele>
        <time>2023-04-05T08:26:31Z</time>
      </trkpt>
      <trkpt lat="47.89957" lon="-3.88477">
        <ele>29.2</ele>
        <time>2023-04-05T08:26:32Z</time>
      </trkpt>
      <trkpt lat="47.89963" lon="-3.88462">
        <ele>29.2</ele>
        <time>2023-04-05T08:26:33Z</time>
      </trkpt>
      <trkpt lat="47.8997" lon="-3.88448">
        <ele>29.3</ele>
        <time>2023-04-05T08:26:34Z</time>
      </trkpt>
      <trkpt lat="47.89977" lon="-3.88435">
        <ele>29.4</ele>
        <time>2023-04-05T08:26:35Z</time>
      </trkpt>
      <trkpt lat="47.89984" lon="-3.88423">
        <ele>29.2</ele>
        <time>2023-04-05T08:26:36Z</time>
      </trkpt>
      <trkpt lat="47.8999" lon="-3.88411">
        <ele>29.1</ele>
        <time>2023-04-05T08:26:37Z</time>
      </trkpt>
      <trkpt lat="47.89996" lon="-3.884">
        <ele>29.1</ele>
        <time>2023-04-05T08:26:38Z</time>
      </trkpt>
      <trkpt lat="47.90002" lon="-3.88389">
        <ele>29.2</ele>
        <time>2023-04-05T08:26:39Z</time>
      </trkpt>
      <trkpt lat="47.90006" lon="-3.88378">
        <ele>29.3</ele>
        <time>2023-04-05T08:26:40Z</time>
      </trkpt>
      <trkpt lat="47.90011" lon="-3.88368">
        <ele>29.5</ele>
        <time>2023-04-05T08:26:41Z</time>
      </trkpt>
      <trkpt lat="47.90015" lon="-3.88358">
        <ele>29.9</ele>
        <time>2023-04-05T08:26:42Z</time>
      </trkpt>
      <trkpt lat="47.90017" lon="-3.88348">
        <ele>30.4</ele>
        <time>2023-04-05T08:26:43Z</time>
      </trkpt>
      <trkpt lat="47.90019" lon="-3.88339">
        <ele>30.8</ele>
        <time>2023-04-05T08:26:44Z</time>
      </trkpt>
      <trkpt lat="47.9002" lon="-3.8833">
        <ele>31.3</ele>
        <time>2023-04-05T08:26:45Z</time>
      </trkpt>
      <trkpt lat="47.90021" lon="-3.88323">
        <ele>31.7</ele>
        <time>2023-04-05T08:26:46Z</time>
      </trkpt>
      <trkpt lat="47.90021" lon="-3.88315">
        <ele>32.2</ele>
        <time>2023-04-05T08:26:47Z</time>
      </trkpt>
      <trkpt lat="47.90021" lon="-3.88308">
        <ele>32.7</ele>
        <time>2023-04-05T08:26:48Z</time>
      </trkpt>
      <trkpt lat="47.9002" lon="-3.88302">
        <ele>33.2</ele>
        <time>2023-04-05T08:26:49Z</time>
      </trkpt>
      <trkpt lat="47.90019" lon="-3.88296">
        <ele>33.7</ele>
        <time>2023-04-05T08:26:50Z</time>
      </trkpt>
      <trkpt lat="47.90019" lon="-3.88294">
        <ele>33.8</ele>
        <time>2023-04-05T08:26:51Z</time>
      </trkpt>
      <trkpt lat="47.90017" lon="-3.8829">
        <ele>34.2</ele>
        <time>2023-04-05T08:26:52Z</time>
      </trkpt>
      <trkpt lat="47.90016" lon="-3.88285">
        <ele>34.6</ele>
        <time>2023-04-05T08:26:53Z</time>
      </trkpt>
      <trkpt lat="47.90014" lon="-3.8828">
        <ele>35.1</ele>
        <time>2023-04-05T08:26:54Z</time>
      </trkpt>
      <trkpt lat="47.90013" lon="-3.88276">
        <ele>35.5</ele>
        <time>2023-04-05T08:26:55Z</time>
      </trkpt>
      <trkpt lat="47.90011" lon="-3.88269">
        <ele>36.1</ele>
        <time>2023-04-05T08:26:56Z</time>
      </trkpt>
      <trkpt lat="47.90009" lon="-3.88266">
        <ele>36.5</ele>
        <time>2023-04-05T08:26:57Z</time>
      </trkpt>
      <trkpt lat="47.90009" lon="-3.88264">
        <ele>36.7</ele>
        <time>2023-04-05T08:26:58Z</time>
      </trkpt>
      <trkpt lat="47.90006" lon="-3.88257">
        <ele>37.3</ele>
        <time>2023-04-05T08:26:59Z</time>
      </trkpt>
      <trkpt lat="47.90005" lon="-3.88254">
        <ele>37.6</ele>
        <time>2023-04-05T08:27:00Z</time>
      </trkpt>
      <trkpt lat="47.90003" lon="-3.88249">
        <ele>38.1</ele>
        <time>2023-04-05T08:27:01Z</time>
      </trkpt>
      <trkpt lat="47.89999" lon="-3.88242">
        <ele>38.7</ele>
        <time>2023-04-05T08:27:03Z</time>
      </trkpt>
      <trkpt lat="47.89997" lon="-3.88238">
        <ele>39.1</ele>
        <time>2023-04-05T08:27:05Z</time>
      </trkpt>
      <trkpt lat="47.89996" lon="-3.88235">
        <ele>39.4</ele>
        <time>2023-04-05T08:27:06Z</time>
      </trkpt>
      <trkpt lat="47.89994" lon="-3.88231">
        <ele>39.7</ele>
        <time>2023-04-05T08:27:07Z</time>
      </trkpt>
      <trkpt lat="47.89992" lon="-3.88228">
        <ele>40.1</ele>
        <time>2023-04-05T08:27:08Z</time>
      </trkpt>
      <trkpt lat="47.8999" lon="-3.88225">
        <ele>40.4</ele>
        <time>2023-04-05T08:27:09Z</time>
      </trkpt>
      <trkpt lat="47.89989" lon="-3.88221">
        <ele>40.7</ele>
        <time>2023-04-05T08:27:10Z</time>
      </trkpt>
      <trkpt lat="47.89989" lon="-3.88219">
        <ele>40.8</ele>
        <time>2023-04-05T08:27:11Z</time>
      </trkpt>
      <trkpt lat="47.89988" lon="-3.88215">
        <ele>41.1</ele>
        <time>2023-04-05T08:27:12Z</time>
      </trkpt>
      <trkpt lat="47.89986" lon="-3.88212">
        <ele>41.3</ele>
        <time>2023-04-05T08:27:13Z</time>
      </trkpt>
      <trkpt lat="47.89985" lon="-3.88207">
        <ele>41.7</ele>
        <time>2023-04-05T08:27:14Z</time>
      </trkpt>
      <trkpt lat="47.89984" lon="-3.88206">
        <ele>41.8</ele>
        <time>2023-04-05T08:27:15Z</time>
      </trkpt>
      <trkpt lat="47.89982" lon="-3.88203">
        <ele>42.1</ele>
        <time>2023-04-05T08:27:16Z</time>
      </trkpt>
      <trkpt lat="47.8998" lon="-3.88199">
        <ele>42.3</ele>
        <time>2023-04-05T08:27:17Z</time>
      </trkpt>
      <trkpt lat="47.89978" lon="-3.88196">
        <ele>42.6</ele>
        <time>2023-04-05T08:27:18Z</time>
      </trkpt>
      <trkpt lat="47.89977" lon="-3.88194">
        <ele>42.8</ele>
        <time>2023-04-05T08:27:19Z</time>
      </trkpt>
      <trkpt lat="47.89975" lon="-3.88189">
        <ele>43.1</ele>
        <time>2023-04-05T08:27:20Z</time>
      </trkpt>
      <trkpt lat="47.89973" lon="-3.88185">
        <ele>43.4</ele>
        <time>2023-04-05T08:27:21Z</time>
      </trkpt>
      <trkpt lat="47.89973" lon="-3.88183">
        <ele>43.5</ele>
        <time>2023-04-05T08:27:22Z</time>
      </trkpt>
      <trkpt lat="47.8997" lon="-3.88177">
        <ele>43.9</ele>
        <time>2023-04-05T08:27:24Z</time>
      </trkpt>
      <trkpt lat="47.89968" lon="-3.88172">
        <ele>44.2</ele>
        <time>2023-04-05T08:27:25Z</time>
      </trkpt>
      <trkpt lat="47.89968" lon="-3.8817">
        <ele>44.3</ele>
        <time>2023-04-05T08:27:26Z</time>
      </trkpt>
      <trkpt lat="47.89966" lon="-3.88167">
        <ele>44.5</ele>
        <time>2023-04-05T08:27:27Z</time>
      </trkpt>
      <trkpt lat="47.89965" lon="-3.88163">
        <ele>44.8</ele>
        <time>2023-04-05T08:27:28Z</time>
      </trkpt>
      <trkpt lat="47.89964" lon="-3.88157">
        <ele>45.1</ele>
        <time>2023-04-05T08:27:29Z</time>
      </trkpt>
      <trkpt lat="47.89963" lon="-3.88155">
        <ele>45.2</ele>
        <time>2023-04-05T08:27:30Z</time>
      </trkpt>
      <trkpt lat="47.89961" lon="-3.88152">
        <ele>45.5</ele>
        <time>2023-04-05T08:27:31Z</time>
      </trkpt>
      <trkpt lat="47.89959" lon="-3.88147">
        <ele>45.7</ele>
        <time>2023-04-05T08:27:32Z</time>
      </trkpt>
      <trkpt lat="47.89959" lon="-3.88146">
        <ele>45.8</ele>
        <time>2023-04-05T08:27:33Z</time>
      </trkpt>
      <trkpt lat="47.89958" lon="-3.88141">
        <ele>46.1</ele>
        <time>2023-04-05T08:27:34Z</time>
      </trkpt>
      <trkpt lat="47.89957" lon="-3.88137">
        <ele>46.4</ele>
        <time>2023-04-05T08:27:35Z</time>
      </trkpt>
      <trkpt lat="47.89956" lon="-3.88129">
        <ele>46.8</ele>
        <time>2023-04-05T08:27:36Z</time>
      </trkpt>
      <trkpt lat="47.89955" lon="-3.88126">
        <ele>47.1</ele>
        <time>2023-04-05T08:27:37Z</time>
      </trkpt>
      <trkpt lat="47.89954" lon="-3.88122">
        <ele>47.3</ele>
        <time>2023-04-05T08:27:39Z</time>
      </trkpt>
      <trkpt lat="47.89953" lon="-3.88115">
        <ele>47.8</ele>
        <time>2023-04-05T08:27:40Z</time>
      </trkpt>
      <trkpt lat="47.89953" lon="-3.88111">
        <ele>48</ele>
        <time>2023-04-05T08:27:41Z</time>
      </trkpt>
      <trkpt lat="47.89953" lon="-3.88108">
        <ele>48.2</ele>
        <time>2023-04-05T08:27:43Z</time>
      </trkpt>
      <trkpt lat="47.89953" lon="-3.88102">
        <ele>48.6</ele>
        <time>2023-04-05T08:27:44Z</time>
      </trkpt>
      <trkpt lat="47.89953" lon="-3.88101">
        <ele>48.7</ele>
        <time>2023-04-05T08:27:45Z</time>
      </trkpt>
      <trkpt lat="47.89952" lon="-3.88096">
        <ele>49</ele>
        <time>2023-04-05T08:27:46Z</time>
      </trkpt>
      <trkpt lat="47.89951" lon="-3.8809">
        <ele>49.4</ele>
        <time>2023-04-05T08:27:47Z</time>
      </trkpt>
      <trkpt lat="47.8995" lon="-3.88081">
        <ele>50</ele>
        <time>2023-04-05T08:27:49Z</time>
      </trkpt>
      <trkpt lat="47.89949" lon="-3.88075">
        <ele>50.4</ele>
        <time>2023-04-05T08:27:51Z</time>
      </trkpt>
      <trkpt lat="47.89949" lon="-3.88071">
        <ele>50.7</ele>
        <time>2023-04-05T08:27:53Z</time>
      </trkpt>
      <trkpt lat="47.89949" lon="-3.88063">
        <ele>51.2</ele>
        <time>2023-04-05T08:27:54Z</time>
      </trkpt>
      <trkpt lat="47.89949" lon="-3.88058">
        <ele>51.6</ele>
        <time>2023-04-05T08:27:56Z</time>
      </trkpt>
      <trkpt lat="47.89949" lon="-3.88056">
        <ele>51.7</ele>
        <time>2023-04-05T08:27:57Z</time>
      </trkpt>
      <trkpt lat="47.89949" lon="-3.88052">
        <ele>52</ele>
        <time>2023-04-05T08:27:58Z</time>
      </trkpt>
      <trkpt lat="47.89949" lon="-3.88047">
        <ele>52.4</ele>
        <time>2023-04-05T08:27:59Z</time>
      </trkpt>
      <trkpt lat="47.89949" lon="-3.88045">
        <ele>52.5</ele>
        <time>2023-04-05T08:28:00Z</time>
      </trkpt>
      <trkpt lat="47.89949" lon="-3.8804">
        <ele>52.8</ele>
        <time>2023-04-05T08:28:01Z</time>
      </trkpt>
      <trkpt lat="47.89949" lon="-3.88038">
        <ele>53</ele>
        <time>2023-04-05T08:28:02Z</time>
      </trkpt>
      <trkpt lat="47.8995" lon="-3.88034">
        <ele>53.3</ele>
        <time>2023-04-05T08:28:03Z</time>
      </trkpt>
      <trkpt lat="47.8995" lon="-3.88032">
        <ele>53.4</ele>
        <time>2023-04-05T08:28:04Z</time>
      </trkpt>
      <trkpt lat="47.8995" lon="-3.88027">
        <ele>53.8</ele>
        <time>2023-04-05T08:28:05Z</time>
      </trkpt>
      <trkpt lat="47.8995" lon="-3.88025">
        <ele>54</ele>
        <time>2023-04-05T08:28:06Z</time>
      </trkpt>
      <trkpt lat="47.89951" lon="-3.88019">
        <ele>54.4</ele>
        <time>2023-04-05T08:28:07Z</time>
      </trkpt>
      <trkpt lat="47.89951" lon="-3.88017">
        <ele>54.5</ele>
        <time>2023-04-05T08:28:08Z</time>
      </trkpt>
      <trkpt lat="47.89952" lon="-3.88011">
        <ele>55</ele>
        <time>2023-04-05T08:28:10Z</time>
      </trkpt>
      <trkpt lat="47.89952" lon="-3.88007">
        <ele>55.2</ele>
        <time>2023-04-05T08:28:11Z</time>
      </trkpt>
      <trkpt lat="47.89952" lon="-3.88003">
        <ele>55.5</ele>
        <time>2023-04-05T08:28:13Z</time>
      </trkpt>
      <trkpt lat="47.89953" lon="-3.87997">
        <ele>56</ele>
        <time>2023-04-05T08:28:14Z</time>
      </trkpt>
      <trkpt lat="47.89954" lon="-3.87994">
        <ele>56.2</ele>
        <time>2023-04-05T08:28:15Z</time>
      </trkpt>
      <trkpt lat="47.89954" lon="-3.87991">
        <ele>56.4</ele>
        <time>2023-04-05T08:28:16Z</time>
      </trkpt>
      <trkpt lat="47.89955" lon="-3.87985">
        <ele>56.8</ele>
        <time>2023-04-05T08:28:18Z</time>
      </trkpt>
      <trkpt lat="47.89955" lon="-3.87984">
        <ele>56.8</ele>
        <time>2023-04-05T08:28:19Z</time>
      </trkpt>
      <trkpt lat="47.89956" lon="-3.87978">
        <ele>57.3</ele>
        <time>2023-04-05T08:28:20Z</time>
      </trkpt>
      <trkpt lat="47.89957" lon="-3.87973">
        <ele>57.6</ele>
        <time>2023-04-05T08:28:22Z</time>
      </trkpt>
      <trkpt lat="47.89957" lon="-3.87971">
        <ele>57.7</ele>
        <time>2023-04-05T08:28:23Z</time>
      </trkpt>
      <trkpt lat="47.89958" lon="-3.87967">
        <ele>58</ele>
        <time>2023-04-05T08:28:24Z</time>
      </trkpt>
      <trkpt lat="47.89959" lon="-3.87965">
        <ele>58.1</ele>
        <time>2023-04-05T08:28:25Z</time>
      </trkpt>
      <trkpt lat="47.89959" lon="-3.87961">
        <ele>58.4</ele>
        <time>2023-04-05T08:28:26Z</time>
      </trkpt>
      <trkpt lat="47.8996" lon="-3.87956">
        <ele>58.7</ele>
        <time>2023-04-05T08:28:27Z</time>
      </trkpt>
      <trkpt lat="47.8996" lon="-3.87954">
        <ele>58.8</ele>
        <time>2023-04-05T08:28:28Z</time>
      </trkpt>
      <trkpt lat="47.89961" lon="-3.87949">
        <ele>59.1</ele>
        <time>2023-04-05T08:28:29Z</time>
      </trkpt>
      <trkpt lat="47.89961" lon="-3.87948">
        <ele>59.2</ele>
        <time>2023-04-05T08:28:30Z</time>
      </trkpt>
      <trkpt lat="47.89962" lon="-3.8794">
        <ele>59.7</ele>
        <time>2023-04-05T08:28:31Z</time>
      </trkpt>
      <trkpt lat="47.89964" lon="-3.87937">
        <ele>60</ele>
        <time>2023-04-05T08:28:32Z</time>
      </trkpt>
      <trkpt lat="47.89965" lon="-3.87933">
        <ele>60.2</ele>
        <time>2023-04-05T08:28:34Z</time>
      </trkpt>
      <trkpt lat="47.89966" lon="-3.87929">
        <ele>60.5</ele>
        <time>2023-04-05T08:28:35Z</time>
      </trkpt>
      <trkpt lat="47.89968" lon="-3.87924">
        <ele>60.8</ele>
        <time>2023-04-05T08:28:36Z</time>
      </trkpt>
      <trkpt lat="47.89968" lon="-3.87922">
        <ele>60.9</ele>
        <time>2023-04-05T08:28:37Z</time>
      </trkpt>
      <trkpt lat="47.8997" lon="-3.87917">
        <ele>61.2</ele>
        <time>2023-04-05T08:28:38Z</time>
      </trkpt>
      <trkpt lat="47.8997" lon="-3.87915">
        <ele>61.3</ele>
        <time>2023-04-05T08:28:39Z</time>
      </trkpt>
      <trkpt lat="47.89971" lon="-3.8791">
        <ele>61.6</ele>
        <time>2023-04-05T08:28:40Z</time>
      </trkpt>
      <trkpt lat="47.89971" lon="-3.87908">
        <ele>61.7</ele>
        <time>2023-04-05T08:28:41Z</time>
      </trkpt>
      <trkpt lat="47.89972" lon="-3.87903">
        <ele>62</ele>
        <time>2023-04-05T08:28:42Z</time>
      </trkpt>
      <trkpt lat="47.89974" lon="-3.87898">
        <ele>62.3</ele>
        <time>2023-04-05T08:28:43Z</time>
      </trkpt>
      <trkpt lat="47.89974" lon="-3.87896">
        <ele>62.4</ele>
        <time>2023-04-05T08:28:44Z</time>
      </trkpt>
      <trkpt lat="47.89975" lon="-3.87891">
        <ele>62.6</ele>
        <time>2023-04-05T08:28:45Z</time>
      </trkpt>
      <trkpt lat="47.89976" lon="-3.87885">
        <ele>62.9</ele>
        <time>2023-04-05T08:28:46Z</time>
      </trkpt>
      <trkpt lat="47.89977" lon="-3.87877">
        <ele>63.3</ele>
        <time>2023-04-05T08:28:48Z</time>
      </trkpt>
      <trkpt lat="47.89978" lon="-3.87872">
        <ele>63.5</ele>
        <time>2023-04-05T08:28:50Z</time>
      </trkpt>
      <trkpt lat="47.89979" lon="-3.87865">
        <ele>63.9</ele>
        <time>2023-04-05T08:28:51Z</time>
      </trkpt>
      <trkpt lat="47.8998" lon="-3.8786">
        <ele>64.1</ele>
        <time>2023-04-05T08:28:53Z</time>
      </trkpt>
      <trkpt lat="47.89981" lon="-3.87856">
        <ele>64.2</ele>
        <time>2023-04-05T08:28:54Z</time>
      </trkpt>
      <trkpt lat="47.89981" lon="-3.87851">
        <ele>64.4</ele>
        <time>2023-04-05T08:28:55Z</time>
      </trkpt>
      <trkpt lat="47.89981" lon="-3.87847">
        <ele>64.6</ele>
        <time>2023-04-05T08:28:56Z</time>
      </trkpt>
      <trkpt lat="47.89982" lon="-3.87843">
        <ele>64.7</ele>
        <time>2023-04-05T08:28:57Z</time>
      </trkpt>
      <trkpt lat="47.89983" lon="-3.87838">
        <ele>64.9</ele>
        <time>2023-04-05T08:28:58Z</time>
      </trkpt>
      <trkpt lat="47.89983" lon="-3.87833">
        <ele>65.1</ele>
        <time>2023-04-05T08:28:59Z</time>
      </trkpt>
      <trkpt lat="47.89984" lon="-3.87828">
        <ele>65.2</ele>
        <time>2023-04-05T08:29:00Z</time>
      </trkpt>
      <trkpt lat="47.89984" lon="-3.87823">
        <ele>65.4</ele>
        <time>2023-04-05T08:29:01Z</time>
      </trkpt>
      <trkpt lat="47.89985" lon="-3.87818">
        <ele>65.5</ele>
        <time>2023-04-05T08:29:02Z</time>
      </trkpt>
      <trkpt lat="47.89985" lon="-3.87813">
        <ele>65.7</ele>
        <time>2023-04-05T08:29:03Z</time>
      </trkpt>
      <trkpt lat="47.89986" lon="-3.87808">
        <ele>65.8</ele>
        <time>2023-04-05T08:29:04Z</time>
      </trkpt>
      <trkpt lat="47.89987" lon="-3.87802">
        <ele>66</ele>
        <time>2023-04-05T08:29:05Z</time>
      </trkpt>
      <trkpt lat="47.89987" lon="-3.87798">
        <ele>66.1</ele>
        <time>2023-04-05T08:29:06Z</time>
      </trkpt>
      <trkpt lat="47.89988" lon="-3.87786">
        <ele>66.4</ele>
        <time>2023-04-05T08:29:08Z</time>
      </trkpt>
      <trkpt lat="47.89988" lon="-3.8778">
        <ele>66.6</ele>
        <time>2023-04-05T08:29:10Z</time>
      </trkpt>
      <trkpt lat="47.89988" lon="-3.87775">
        <ele>66.7</ele>
        <time>2023-04-05T08:29:11Z</time>
      </trkpt>
      <trkpt lat="47.89989" lon="-3.87771">
        <ele>66.9</ele>
        <time>2023-04-05T08:29:12Z</time>
      </trkpt>
      <trkpt lat="47.89989" lon="-3.87761">
        <ele>67.1</ele>
        <time>2023-04-05T08:29:13Z</time>
      </trkpt>
      <trkpt lat="47.89989" lon="-3.87757">
        <ele>67.2</ele>
        <time>2023-04-05T08:29:15Z</time>
      </trkpt>
      <trkpt lat="47.8999" lon="-3.87751">
        <ele>67.4</ele>
        <time>2023-04-05T08:29:16Z</time>
      </trkpt>
      <trkpt lat="47.8999" lon="-3.87746">
        <ele>67.5</ele>
        <time>2023-04-05T08:29:17Z</time>
      </trkpt>
      <trkpt lat="47.8999" lon="-3.87737">
        <ele>67.7</ele>
        <time>2023-04-05T08:29:18Z</time>
      </trkpt>
      <trkpt lat="47.8999" lon="-3.87731">
        <ele>67.9</ele>
        <time>2023-04-05T08:29:20Z</time>
      </trkpt>
      <trkpt lat="47.8999" lon="-3.87726">
        <ele>68</ele>
        <time>2023-04-05T08:29:21Z</time>
      </trkpt>
      <trkpt lat="47.8999" lon="-3.8772">
        <ele>68.1</ele>
        <time>2023-04-05T08:29:22Z</time>
      </trkpt>
      <trkpt lat="47.8999" lon="-3.87715">
        <ele>68.2</ele>
        <time>2023-04-05T08:29:23Z</time>
      </trkpt>
      <trkpt lat="47.8999" lon="-3.8771">
        <ele>68.3</ele>
        <time>2023-04-05T08:29:24Z</time>
      </trkpt>
      <trkpt lat="47.89991" lon="-3.87704">
        <ele>68.5</ele>
        <time>2023-04-05T08:29:25Z</time>
      </trkpt>
      <trkpt lat="47.89991" lon="-3.87698">
        <ele>68.6</ele>
        <time>2023-04-05T08:29:26Z</time>
      </trkpt>
      <trkpt lat="47.89991" lon="-3.87694">
        <ele>68.7</ele>
        <time>2023-04-05T08:29:27Z</time>
      </trkpt>
      <trkpt lat="47.89991" lon="-3.87689">
        <ele>68.8</ele>
        <time>2023-04-05T08:29:28Z</time>
      </trkpt>
      <trkpt lat="47.89991" lon="-3.87683">
        <ele>68.9</ele>
        <time>2023-04-05T08:29:29Z</time>
      </trkpt>
      <trkpt lat="47.89991" lon="-3.87674">
        <ele>69.1</ele>
        <time>2023-04-05T08:29:30Z</time>
      </trkpt>
      <trkpt lat="47.89991" lon="-3.87668">
        <ele>69.3</ele>
        <time>2023-04-05T08:29:32Z</time>
      </trkpt>
      <trkpt lat="47.89992" lon="-3.87663">
        <ele>69.4</ele>
        <time>2023-04-05T08:29:33Z</time>
      </trkpt>
      <trkpt lat="47.89992" lon="-3.87657">
        <ele>69.5</ele>
        <time>2023-04-05T08:29:34Z</time>
      </trkpt>
      <trkpt lat="47.89992" lon="-3.87652">
        <ele>69.6</ele>
        <time>2023-04-05T08:29:35Z</time>
      </trkpt>
      <trkpt lat="47.89992" lon="-3.87647">
        <ele>69.7</ele>
        <time>2023-04-05T08:29:36Z</time>
      </trkpt>
      <trkpt lat="47.89992" lon="-3.87641">
        <ele>69.8</ele>
        <time>2023-04-05T08:29:37Z</time>
      </trkpt>
      <trkpt lat="47.89992" lon="-3.87636">
        <ele>69.9</ele>
        <time>2023-04-05T08:29:38Z</time>
      </trkpt>
      <trkpt lat="47.89992" lon="-3.8763">
        <ele>70</ele>
        <time>2023-04-05T08:29:39Z</time>
      </trkpt>
      <trkpt lat="47.89992" lon="-3.87625">
        <ele>70.1</ele>
        <time>2023-04-05T08:29:40Z</time>
      </trkpt>
      <trkpt lat="47.89991" lon="-3.87618">
        <ele>70.2</ele>
        <time>2023-04-05T08:29:41Z</time>
      </trkpt>
      <trkpt lat="47.89991" lon="-3.87612">
        <ele>70.3</ele>
        <time>2023-04-05T08:29:42Z</time>
      </trkpt>
      <trkpt lat="47.89991" lon="-3.87609">
        <ele>70.4</ele>
        <time>2023-04-05T08:29:43Z</time>
      </trkpt>
      <trkpt lat="47.89991" lon="-3.87604">
        <ele>70.5</ele>
        <time>2023-04-05T08:29:44Z</time>
      </trkpt>
      <trkpt lat="47.89991" lon="-3.87598">
        <ele>70.6</ele>
        <time>2023-04-05T08:29:45Z</time>
      </trkpt>
      <trkpt lat="47.89992" lon="-3.87592">
        <ele>70.7</ele>
        <time>2023-04-05T08:29:46Z</time>
      </trkpt>
      <trkpt lat="47.89992" lon="-3.87587">
        <ele>70.7</ele>
        <time>2023-04-05T08:29:47Z</time>
      </trkpt>
      <trkpt lat="47.89991" lon="-3.87582">
        <ele>70.8</ele>
        <time>2023-04-05T08:29:48Z</time>
      </trkpt>
      <trkpt lat="47.89991" lon="-3.87575">
        <ele>70.9</ele>
        <time>2023-04-05T08:29:49Z</time>
      </trkpt>
      <trkpt lat="47.89991" lon="-3.87568">
        <ele>71</ele>
        <time>2023-04-05T08:29:50Z</time>
      </trkpt>
      <trkpt lat="47.89992" lon="-3.87557">
        <ele>71.1</ele>
        <time>2023-04-05T08:29:52Z</time>
      </trkpt>
      <trkpt lat="47.89992" lon="-3.8755">
        <ele>71.2</ele>
        <time>2023-04-05T08:29:53Z</time>
      </trkpt>
      <trkpt lat="47.89992" lon="-3.87539">
        <ele>71.2</ele>
        <time>2023-04-05T08:29:55Z</time>
      </trkpt>
      <trkpt lat="47.89992" lon="-3.87526">
        <ele>71.3</ele>
        <time>2023-04-05T08:29:57Z</time>
      </trkpt>
      <trkpt lat="47.89992" lon="-3.87518">
        <ele>71.4</ele>
        <time>2023-04-05T08:29:59Z</time>
      </trkpt>
      <trkpt lat="47.89992" lon="-3.87512">
        <ele>71.4</ele>
        <time>2023-04-05T08:30:00Z</time>
      </trkpt>
      <trkpt lat="47.89992" lon="-3.87505">
        <ele>71.4</ele>
        <time>2023-04-05T08:30:01Z</time>
      </trkpt>
      <trkpt lat="47.89992" lon="-3.87499">
        <ele>71.5</ele>
        <time>2023-04-05T08:30:02Z</time>
      </trkpt>
      <trkpt lat="47.89992" lon="-3.87492">
        <ele>71.6</ele>
        <time>2023-04-05T08:30:03Z</time>
      </trkpt>
      <trkpt lat="47.89992" lon="-3.87486">
        <ele>71.6</ele>
        <time>2023-04-05T08:30:04Z</time>
      </trkpt>
      <trkpt lat="47.89992" lon="-3.8748">
        <ele>71.7</ele>
        <time>2023-04-05T08:30:05Z</time>
      </trkpt>
      <trkpt lat="47.89992" lon="-3.87473">
        <ele>71.7</ele>
        <time>2023-04-05T08:30:06Z</time>
      </trkpt>
      <trkpt lat="47.89991" lon="-3.87466">
        <ele>71.7</ele>
        <time>2023-04-05T08:30:07Z</time>
      </trkpt>
      <trkpt lat="47.89991" lon="-3.87459">
        <ele>71.8</ele>
        <time>2023-04-05T08:30:08Z</time>
      </trkpt>
      <trkpt lat="47.89992" lon="-3.87452">
        <ele>71.8</ele>
        <time>2023-04-05T08:30:09Z</time>
      </trkpt>
      <trkpt lat="47.89992" lon="-3.87444">
        <ele>71.8</ele>
        <time>2023-04-05T08:30:10Z</time>
      </trkpt>
      <trkpt lat="47.89992" lon="-3.87437">
        <ele>71.8</ele>
        <time>2023-04-05T08:30:11Z</time>
      </trkpt>
      <trkpt lat="47.89993" lon="-3.8743">
        <ele>71.7</ele>
        <time>2023-04-05T08:30:12Z</time>
      </trkpt>
      <trkpt lat="47.89993" lon="-3.87423">
        <ele>71.7</ele>
        <time>2023-04-05T08:30:13Z</time>
      </trkpt>
      <trkpt lat="47.89993" lon="-3.87415">
        <ele>71.6</ele>
        <time>2023-04-05T08:30:14Z</time>
      </trkpt>
      <trkpt lat="47.89994" lon="-3.87407">
        <ele>71.6</ele>
        <time>2023-04-05T08:30:15Z</time>
      </trkpt>
      <trkpt lat="47.89994" lon="-3.874">
        <ele>71.5</ele>
        <time>2023-04-05T08:30:16Z</time>
      </trkpt>
      <trkpt lat="47.89996" lon="-3.87392">
        <ele>71.4</ele>
        <time>2023-04-05T08:30:17Z</time>
      </trkpt>
      <trkpt lat="47.89997" lon="-3.87384">
        <ele>71.3</ele>
        <time>2023-04-05T08:30:18Z</time>
      </trkpt>
      <trkpt lat="47.89998" lon="-3.87377">
        <ele>71.3</ele>
        <time>2023-04-05T08:30:19Z</time>
      </trkpt>
      <trkpt lat="47.89999" lon="-3.87369">
        <ele>71.2</ele>
        <time>2023-04-05T08:30:20Z</time>
      </trkpt>
      <trkpt lat="47.90001" lon="-3.87361">
        <ele>71.1</ele>
        <time>2023-04-05T08:30:21Z</time>
      </trkpt>
      <trkpt lat="47.90003" lon="-3.87353">
        <ele>71</ele>
        <time>2023-04-05T08:30:22Z</time>
      </trkpt>
      <trkpt lat="47.90005" lon="-3.87346">
        <ele>71</ele>
        <time>2023-04-05T08:30:23Z</time>
      </trkpt>
      <trkpt lat="47.90008" lon="-3.87338">
        <ele>71</ele>
        <time>2023-04-05T08:30:24Z</time>
      </trkpt>
      <trkpt lat="47.9001" lon="-3.8733">
        <ele>70.9</ele>
        <time>2023-04-05T08:30:25Z</time>
      </trkpt>
      <trkpt lat="47.90013" lon="-3.87323">
        <ele>70.9</ele>
        <time>2023-04-05T08:30:26Z</time>
      </trkpt>
      <trkpt lat="47.90016" lon="-3.87316">
        <ele>70.9</ele>
        <time>2023-04-05T08:30:27Z</time>
      </trkpt>
      <trkpt lat="47.90018" lon="-3.87309">
        <ele>70.8</ele>
        <time>2023-04-05T08:30:28Z</time>
      </trkpt>
      <trkpt lat="47.90021" lon="-3.87302">
        <ele>70.8</ele>
        <time>2023-04-05T08:30:29Z</time>
      </trkpt>
      <trkpt lat="47.90024" lon="-3.87295">
        <ele>70.8</ele>
        <time>2023-04-05T08:30:30Z</time>
      </trkpt>
      <trkpt lat="47.90027" lon="-3.87288">
        <ele>70.8</ele>
        <time>2023-04-05T08:30:31Z</time>
      </trkpt>
      <trkpt lat="47.90031" lon="-3.87282">
        <ele>70.7</ele>
        <time>2023-04-05T08:30:32Z</time>
      </trkpt>
      <trkpt lat="47.90034" lon="-3.87275">
        <ele>70.8</ele>
        <time>2023-04-05T08:30:33Z</time>
      </trkpt>
      <trkpt lat="47.90037" lon="-3.87269">
        <ele>70.8</ele>
        <time>2023-04-05T08:30:34Z</time>
      </trkpt>
      <trkpt lat="47.9004" lon="-3.87263">
        <ele>70.8</ele>
        <time>2023-04-05T08:30:35Z</time>
      </trkpt>
      <trkpt lat="47.90043" lon="-3.87256">
        <ele>70.9</ele>
        <time>2023-04-05T08:30:36Z</time>
      </trkpt>
      <trkpt lat="47.90046" lon="-3.8725">
        <ele>70.9</ele>
        <time>2023-04-05T08:30:37Z</time>
      </trkpt>
      <trkpt lat="47.90049" lon="-3.87244">
        <ele>71</ele>
        <time>2023-04-05T08:30:38Z</time>
      </trkpt>
      <trkpt lat="47.90053" lon="-3.87238">
        <ele>71.1</ele>
        <time>2023-04-05T08:30:39Z</time>
      </trkpt>
      <trkpt lat="47.90055" lon="-3.87232">
        <ele>71.2</ele>
        <time>2023-04-05T08:30:40Z</time>
      </trkpt>
      <trkpt lat="47.90058" lon="-3.87226">
        <ele>71.3</ele>
        <time>2023-04-05T08:30:41Z</time>
      </trkpt>
      <trkpt lat="47.90062" lon="-3.8722">
        <ele>71.4</ele>
        <time>2023-04-05T08:30:42Z</time>
      </trkpt>
      <trkpt lat="47.90065" lon="-3.87215">
        <ele>71.5</ele>
        <time>2023-04-05T08:30:43Z</time>
      </trkpt>
      <trkpt lat="47.90068" lon="-3.87209">
        <ele>71.6</ele>
        <time>2023-04-05T08:30:44Z</time>
      </trkpt>
      <trkpt lat="47.90071" lon="-3.87203">
        <ele>71.7</ele>
        <time>2023-04-05T08:30:45Z</time>
      </trkpt>
      <trkpt lat="47.90074" lon="-3.87197">
        <ele>71.8</ele>
        <time>2023-04-05T08:30:46Z</time>
      </trkpt>
      <trkpt lat="47.90077" lon="-3.87191">
        <ele>71.9</ele>
        <time>2023-04-05T08:30:47Z</time>
      </trkpt>
      <trkpt lat="47.90079" lon="-3.87185">
        <ele>72</ele>
        <time>2023-04-05T08:30:48Z</time>
      </trkpt>
      <trkpt lat="47.90082" lon="-3.87179">
        <ele>72.1</ele>
        <time>2023-04-05T08:30:49Z</time>
      </trkpt>
      <trkpt lat="47.90085" lon="-3.87174">
        <ele>72.1</ele>
        <time>2023-04-05T08:30:50Z</time>
      </trkpt>
      <trkpt lat="47.90087" lon="-3.87168">
        <ele>72.1</ele>
        <time>2023-04-05T08:30:51Z</time>
      </trkpt>
      <trkpt lat="47.9009" lon="-3.87162">
        <ele>72.2</ele>
        <time>2023-04-05T08:30:52Z</time>
      </trkpt>
      <trkpt lat="47.90093" lon="-3.87157">
        <ele>72.2</ele>
        <time>2023-04-05T08:30:53Z</time>
      </trkpt>
      <trkpt lat="47.90096" lon="-3.87151">
        <ele>72.2</ele>
        <time>2023-04-05T08:30:54Z</time>
      </trkpt>
      <trkpt lat="47.90098" lon="-3.87146">
        <ele>72.2</ele>
        <time>2023-04-05T08:30:55Z</time>
      </trkpt>
      <trkpt lat="47.90101" lon="-3.8714">
        <ele>72.2</ele>
        <time>2023-04-05T08:30:56Z</time>
      </trkpt>
      <trkpt lat="47.90104" lon="-3.87134">
        <ele>72.2</ele>
        <time>2023-04-05T08:30:57Z</time>
      </trkpt>
      <trkpt lat="47.90107" lon="-3.87128">
        <ele>72.3</ele>
        <time>2023-04-05T08:30:58Z</time>
      </trkpt>
      <trkpt lat="47.90109" lon="-3.87123">
        <ele>72.3</ele>
        <time>2023-04-05T08:30:59Z</time>
      </trkpt>
      <trkpt lat="47.90112" lon="-3.87118">
        <ele>72.3</ele>
        <time>2023-04-05T08:31:00Z</time>
      </trkpt>
      <trkpt lat="47.90114" lon="-3.87113">
        <ele>72.4</ele>
        <time>2023-04-05T08:31:01Z</time>
      </trkpt>
      <trkpt lat="47.90116" lon="-3.87108">
        <ele>72.4</ele>
        <time>2023-04-05T08:31:02Z</time>
      </trkpt>
      <trkpt lat="47.9012" lon="-3.87102">
        <ele>72.5</ele>
        <time>2023-04-05T08:31:03Z</time>
      </trkpt>
      <trkpt lat="47.90123" lon="-3.87096">
        <ele>72.5</ele>
        <time>2023-04-05T08:31:04Z</time>
      </trkpt>
      <trkpt lat="47.90126" lon="-3.8709">
        <ele>72.6</ele>
        <time>2023-04-05T08:31:05Z</time>
      </trkpt>
      <trkpt lat="47.90129" lon="-3.87084">
        <ele>72.7</ele>
        <time>2023-04-05T08:31:06Z</time>
      </trkpt>
      <trkpt lat="47.90131" lon="-3.87078">
        <ele>72.7</ele>
        <time>2023-04-05T08:31:07Z</time>
      </trkpt>
      <trkpt lat="47.90134" lon="-3.87072">
        <ele>72.6</ele>
        <time>2023-04-05T08:31:08Z</time>
      </trkpt>
      <trkpt lat="47.90137" lon="-3.87066">
        <ele>72.6</ele>
        <time>2023-04-05T08:31:09Z</time>
      </trkpt>
      <trkpt lat="47.9014" lon="-3.8706">
        <ele>72.6</ele>
        <time>2023-04-05T08:31:10Z</time>
      </trkpt>
      <trkpt lat="47.90143" lon="-3.87054">
        <ele>72.5</ele>
        <time>2023-04-05T08:31:11Z</time>
      </trkpt>
      <trkpt lat="47.90146" lon="-3.87048">
        <ele>72.5</ele>
        <time>2023-04-05T08:31:12Z</time>
      </trkpt>
      <trkpt lat="47.90149" lon="-3.87042">
        <ele>72.4</ele>
        <time>2023-04-05T08:31:13Z</time>
      </trkpt>
      <trkpt lat="47.90152" lon="-3.87035">
        <ele>72.4</ele>
        <time>2023-04-05T08:31:14Z</time>
      </trkpt>
      <trkpt lat="47.90155" lon="-3.87029">
        <ele>72.4</ele>
        <time>2023-04-05T08:31:15Z</time>
      </trkpt>
      <trkpt lat="47.90158" lon="-3.87023">
        <ele>72.3</ele>
        <time>2023-04-05T08:31:16Z</time>
      </trkpt>
      <trkpt lat="47.90162" lon="-3.87017">
        <ele>72.3</ele>
        <time>2023-04-05T08:31:17Z</time>
      </trkpt>
      <trkpt lat="47.90165" lon="-3.8701">
        <ele>72.2</ele>
        <time>2023-04-05T08:31:18Z</time>
      </trkpt>
      <trkpt lat="47.90168" lon="-3.87004">
        <ele>72.1</ele>
        <time>2023-04-05T08:31:19Z</time>
      </trkpt>
      <trkpt lat="47.90171" lon="-3.86997">
        <ele>72.1</ele>
        <time>2023-04-05T08:31:20Z</time>
      </trkpt>
      <trkpt lat="47.90175" lon="-3.8699">
        <ele>71.9</ele>
        <time>2023-04-05T08:31:21Z</time>
      </trkpt>
      <trkpt lat="47.90178" lon="-3.86983">
        <ele>71.8</ele>
        <time>2023-04-05T08:31:22Z</time>
      </trkpt>
      <trkpt lat="47.90182" lon="-3.86976">
        <ele>71.7</ele>
        <time>2023-04-05T08:31:23Z</time>
      </trkpt>
      <trkpt lat="47.90185" lon="-3.86969">
        <ele>71.7</ele>
        <time>2023-04-05T08:31:24Z</time>
      </trkpt>
      <trkpt lat="47.90188" lon="-3.86962">
        <ele>71.6</ele>
        <time>2023-04-05T08:31:25Z</time>
      </trkpt>
      <trkpt lat="47.90192" lon="-3.86955">
        <ele>71.6</ele>
        <time>2023-04-05T08:31:26Z</time>
      </trkpt>
      <trkpt lat="47.90195" lon="-3.86948">
        <ele>71.6</ele>
        <time>2023-04-05T08:31:27Z</time>
      </trkpt>
      <trkpt lat="47.90199" lon="-3.86941">
        <ele>71.6</ele>
        <time>2023-04-05T08:31:28Z</time>
      </trkpt>
      <trkpt lat="47.90202" lon="-3.86934">
        <ele>71.6</ele>
        <time>2023-04-05T08:31:29Z</time>
      </trkpt>
      <trkpt lat="47.90206" lon="-3.86927">
        <ele>71.6</ele>
        <time>2023-04-05T08:31:30Z</time>
      </trkpt>
      <trkpt lat="47.9021" lon="-3.8692">
        <ele>71.6</ele>
        <time>2023-04-05T08:31:31Z</time>
      </trkpt>
      <trkpt lat="47.90213" lon="-3.86913">
        <ele>71.6</ele>
        <time>2023-04-05T08:31:32Z</time>
      </trkpt>
      <trkpt lat="47.90217" lon="-3.86906">
        <ele>71.6</ele>
        <time>2023-04-05T08:31:33Z</time>
      </trkpt>
      <trkpt lat="47.9022" lon="-3.86898">
        <ele>71.8</ele>
        <time>2023-04-05T08:31:34Z</time>
      </trkpt>
      <trkpt lat="47.90223" lon="-3.86892">
        <ele>71.9</ele>
        <time>2023-04-05T08:31:35Z</time>
      </trkpt>
      <trkpt lat="47.90227" lon="-3.86885">
        <ele>72.1</ele>
        <time>2023-04-05T08:31:36Z</time>
      </trkpt>
      <trkpt lat="47.9023" lon="-3.86879">
        <ele>72.2</ele>
        <time>2023-04-05T08:31:37Z</time>
      </trkpt>
      <trkpt lat="47.90234" lon="-3.86873">
        <ele>72.4</ele>
        <time>2023-04-05T08:31:38Z</time>
      </trkpt>
      <trkpt lat="47.90237" lon="-3.86867">
        <ele>72.6</ele>
        <time>2023-04-05T08:31:39Z</time>
      </trkpt>
      <trkpt lat="47.90241" lon="-3.86861">
        <ele>72.8</ele>
        <time>2023-04-05T08:31:40Z</time>
      </trkpt>
      <trkpt lat="47.90244" lon="-3.86856">
        <ele>72.9</ele>
        <time>2023-04-05T08:31:41Z</time>
      </trkpt>
      <trkpt lat="47.90248" lon="-3.8685">
        <ele>73.1</ele>
        <time>2023-04-05T08:31:42Z</time>
      </trkpt>
      <trkpt lat="47.90251" lon="-3.86845">
        <ele>73.2</ele>
        <time>2023-04-05T08:31:43Z</time>
      </trkpt>
      <trkpt lat="47.90255" lon="-3.86841">
        <ele>73.4</ele>
        <time>2023-04-05T08:31:44Z</time>
      </trkpt>
      <trkpt lat="47.90259" lon="-3.86836">
        <ele>73.5</ele>
        <time>2023-04-05T08:31:45Z</time>
      </trkpt>
      <trkpt lat="47.90263" lon="-3.86831">
        <ele>73.7</ele>
        <time>2023-04-05T08:31:46Z</time>
      </trkpt>
      <trkpt lat="47.90267" lon="-3.86827">
        <ele>73.9</ele>
        <time>2023-04-05T08:31:47Z</time>
      </trkpt>
      <trkpt lat="47.90271" lon="-3.86823">
        <ele>74.1</ele>
        <time>2023-04-05T08:31:48Z</time>
      </trkpt>
      <trkpt lat="47.90274" lon="-3.86819">
        <ele>74.4</ele>
        <time>2023-04-05T08:31:49Z</time>
      </trkpt>
      <trkpt lat="47.90278" lon="-3.86815">
        <ele>74.6</ele>
        <time>2023-04-05T08:31:50Z</time>
      </trkpt>
      <trkpt lat="47.90282" lon="-3.86811">
        <ele>74.9</ele>
        <time>2023-04-05T08:31:51Z</time>
      </trkpt>
      <trkpt lat="47.90286" lon="-3.86807">
        <ele>75.1</ele>
        <time>2023-04-05T08:31:52Z</time>
      </trkpt>
      <trkpt lat="47.90289" lon="-3.86803">
        <ele>75.4</ele>
        <time>2023-04-05T08:31:53Z</time>
      </trkpt>
      <trkpt lat="47.90293" lon="-3.868">
        <ele>75.6</ele>
        <time>2023-04-05T08:31:54Z</time>
      </trkpt>
      <trkpt lat="47.90297" lon="-3.86797">
        <ele>75.8</ele>
        <time>2023-04-05T08:31:55Z</time>
      </trkpt>
      <trkpt lat="47.903" lon="-3.86794">
        <ele>76</ele>
        <time>2023-04-05T08:31:56Z</time>
      </trkpt>
      <trkpt lat="47.90304" lon="-3.8679">
        <ele>76.3</ele>
        <time>2023-04-05T08:31:57Z</time>
      </trkpt>
      <trkpt lat="47.90308" lon="-3.86787">
        <ele>76.5</ele>
        <time>2023-04-05T08:31:58Z</time>
      </trkpt>
      <trkpt lat="47.90312" lon="-3.86783">
        <ele>76.8</ele>
        <time>2023-04-05T08:31:59Z</time>
      </trkpt>
      <trkpt lat="47.90316" lon="-3.8678">
        <ele>77</ele>
        <time>2023-04-05T08:32:00Z</time>
      </trkpt>
      <trkpt lat="47.90321" lon="-3.86776">
        <ele>77.3</ele>
        <time>2023-04-05T08:32:01Z</time>
      </trkpt>
      <trkpt lat="47.90325" lon="-3.86773">
        <ele>77.6</ele>
        <time>2023-04-05T08:32:02Z</time>
      </trkpt>
      <trkpt lat="47.90327" lon="-3.86771">
        <ele>77.7</ele>
        <time>2023-04-05T08:32:03Z</time>
      </trkpt>
      <trkpt lat="47.90331" lon="-3.86768">
        <ele>77.9</ele>
        <time>2023-04-05T08:32:04Z</time>
      </trkpt>
      <trkpt lat="47.90335" lon="-3.86765">
        <ele>78.2</ele>
        <time>2023-04-05T08:32:05Z</time>
      </trkpt>
      <trkpt lat="47.90341" lon="-3.86761">
        <ele>78.5</ele>
        <time>2023-04-05T08:32:06Z</time>
      </trkpt>
      <trkpt lat="47.90349" lon="-3.86755">
        <ele>79</ele>
        <time>2023-04-05T08:32:08Z</time>
      </trkpt>
      <trkpt lat="47.90353" lon="-3.86752">
        <ele>79.3</ele>
        <time>2023-04-05T08:32:09Z</time>
      </trkpt>
      <trkpt lat="47.90358" lon="-3.86748">
        <ele>79.6</ele>
        <time>2023-04-05T08:32:11Z</time>
      </trkpt>
      <trkpt lat="47.90361" lon="-3.86744">
        <ele>79.9</ele>
        <time>2023-04-05T08:32:12Z</time>
      </trkpt>
      <trkpt lat="47.90365" lon="-3.86741">
        <ele>80.1</ele>
        <time>2023-04-05T08:32:13Z</time>
      </trkpt>
      <trkpt lat="47.90369" lon="-3.86738">
        <ele>80.3</ele>
        <time>2023-04-05T08:32:14Z</time>
      </trkpt>
      <trkpt lat="47.90373" lon="-3.86735">
        <ele>80.6</ele>
        <time>2023-04-05T08:32:15Z</time>
      </trkpt>
      <trkpt lat="47.90377" lon="-3.86732">
        <ele>80.8</ele>
        <time>2023-04-05T08:32:16Z</time>
      </trkpt>
      <trkpt lat="47.90381" lon="-3.86729">
        <ele>81</ele>
        <time>2023-04-05T08:32:17Z</time>
      </trkpt>
      <trkpt lat="47.90385" lon="-3.86726">
        <ele>81.2</ele>
        <time>2023-04-05T08:32:18Z</time>
      </trkpt>
      <trkpt lat="47.90388" lon="-3.86723">
        <ele>81.3</ele>
        <time>2023-04-05T08:32:19Z</time>
      </trkpt>
      <trkpt lat="47.90392" lon="-3.8672">
        <ele>81.5</ele>
        <time>2023-04-05T08:32:20Z</time>
      </trkpt>
      <trkpt lat="47.90396" lon="-3.86717">
        <ele>81.7</ele>
        <time>2023-04-05T08:32:21Z</time>
      </trkpt>
      <trkpt lat="47.904" lon="-3.86714">
        <ele>81.9</ele>
        <time>2023-04-05T08:32:22Z</time>
      </trkpt>
      <trkpt lat="47.90404" lon="-3.86711">
        <ele>82.1</ele>
        <time>2023-04-05T08:32:23Z</time>
      </trkpt>
      <trkpt lat="47.90408" lon="-3.86708">
        <ele>82.3</ele>
        <time>2023-04-05T08:32:24Z</time>
      </trkpt>
      <trkpt lat="47.90415" lon="-3.86703">
        <ele>82.7</ele>
        <time>2023-04-05T08:32:25Z</time>
      </trkpt>
      <trkpt lat="47.90419" lon="-3.86699">
        <ele>82.9</ele>
        <time>2023-04-05T08:32:27Z</time>
      </trkpt>
      <trkpt lat="47.90423" lon="-3.86697">
        <ele>83.2</ele>
        <time>2023-04-05T08:32:28Z</time>
      </trkpt>
      <trkpt lat="47.90427" lon="-3.86695">
        <ele>83.4</ele>
        <time>2023-04-05T08:32:29Z</time>
      </trkpt>
      <trkpt lat="47.90431" lon="-3.86692">
        <ele>83.6</ele>
        <time>2023-04-05T08:32:30Z</time>
      </trkpt>
      <trkpt lat="47.90435" lon="-3.8669">
        <ele>83.8</ele>
        <time>2023-04-05T08:32:31Z</time>
      </trkpt>
      <trkpt lat="47.90439" lon="-3.86688">
        <ele>83.9</ele>
        <time>2023-04-05T08:32:32Z</time>
      </trkpt>
      <trkpt lat="47.90443" lon="-3.86686">
        <ele>84.1</ele>
        <time>2023-04-05T08:32:33Z</time>
      </trkpt>
      <trkpt lat="47.90451" lon="-3.86681">
        <ele>84.5</ele>
        <time>2023-04-05T08:32:34Z</time>
      </trkpt>
      <trkpt lat="47.9046" lon="-3.86677">
        <ele>84.8</ele>
        <time>2023-04-05T08:32:36Z</time>
      </trkpt>
      <trkpt lat="47.90464" lon="-3.86676">
        <ele>85</ele>
        <time>2023-04-05T08:32:38Z</time>
      </trkpt>
      <trkpt lat="47.90468" lon="-3.86673">
        <ele>85.2</ele>
        <time>2023-04-05T08:32:39Z</time>
      </trkpt>
      <trkpt lat="47.90472" lon="-3.86671">
        <ele>85.4</ele>
        <time>2023-04-05T08:32:40Z</time>
      </trkpt>
      <trkpt lat="47.90476" lon="-3.86669">
        <ele>85.6</ele>
        <time>2023-04-05T08:32:41Z</time>
      </trkpt>
      <trkpt lat="47.9048" lon="-3.86668">
        <ele>85.8</ele>
        <time>2023-04-05T08:32:42Z</time>
      </trkpt>
      <trkpt lat="47.90484" lon="-3.86667">
        <ele>86</ele>
        <time>2023-04-05T08:32:43Z</time>
      </trkpt>
      <trkpt lat="47.90488" lon="-3.86664">
        <ele>86.2</ele>
        <time>2023-04-05T08:32:44Z</time>
      </trkpt>
      <trkpt lat="47.90492" lon="-3.86662">
        <ele>86.4</ele>
        <time>2023-04-05T08:32:45Z</time>
      </trkpt>
      <trkpt lat="47.90496" lon="-3.8666">
        <ele>86.5</ele>
        <time>2023-04-05T08:32:46Z</time>
      </trkpt>
      <trkpt lat="47.905" lon="-3.86658">
        <ele>86.7</ele>
        <time>2023-04-05T08:32:47Z</time>
      </trkpt>
      <trkpt lat="47.90505" lon="-3.86657">
        <ele>86.8</ele>
        <time>2023-04-05T08:32:48Z</time>
      </trkpt>
      <trkpt lat="47.90508" lon="-3.86655">
        <ele>87</ele>
        <time>2023-04-05T08:32:49Z</time>
      </trkpt>
      <trkpt lat="47.90512" lon="-3.86653">
        <ele>87.2</ele>
        <time>2023-04-05T08:32:50Z</time>
      </trkpt>
      <trkpt lat="47.90517" lon="-3.86651">
        <ele>87.4</ele>
        <time>2023-04-05T08:32:51Z</time>
      </trkpt>
      <trkpt lat="47.90521" lon="-3.86649">
        <ele>87.6</ele>
        <time>2023-04-05T08:32:52Z</time>
      </trkpt>
      <trkpt lat="47.90525" lon="-3.86647">
        <ele>87.8</ele>
        <time>2023-04-05T08:32:53Z</time>
      </trkpt>
      <trkpt lat="47.90529" lon="-3.86645">
        <ele>88</ele>
        <time>2023-04-05T08:32:54Z</time>
      </trkpt>
      <trkpt lat="47.90533" lon="-3.86643">
        <ele>88.2</ele>
        <time>2023-04-05T08:32:55Z</time>
      </trkpt>
      <trkpt lat="47.90537" lon="-3.86641">
        <ele>88.4</ele>
        <time>2023-04-05T08:32:56Z</time>
      </trkpt>
      <trkpt lat="47.90541" lon="-3.86639">
        <ele>88.6</ele>
        <time>2023-04-05T08:32:57Z</time>
      </trkpt>
      <trkpt lat="47.90545" lon="-3.86638">
        <ele>88.7</ele>
        <time>2023-04-05T08:32:58Z</time>
      </trkpt>
      <trkpt lat="47.90549" lon="-3.86635">
        <ele>88.9</ele>
        <time>2023-04-05T08:32:59Z</time>
      </trkpt>
      <trkpt lat="47.90553" lon="-3.86632">
        <ele>89.1</ele>
        <time>2023-04-05T08:33:00Z</time>
      </trkpt>
      <trkpt lat="47.90556" lon="-3.8663">
        <ele>89.3</ele>
        <time>2023-04-05T08:33:01Z</time>
      </trkpt>
      <trkpt lat="47.9056" lon="-3.86627">
        <ele>89.5</ele>
        <time>2023-04-05T08:33:02Z</time>
      </trkpt>
      <trkpt lat="47.90564" lon="-3.86624">
        <ele>89.7</ele>
        <time>2023-04-05T08:33:03Z</time>
      </trkpt>
      <trkpt lat="47.90567" lon="-3.86621">
        <ele>89.8</ele>
        <time>2023-04-05T08:33:04Z</time>
      </trkpt>
      <trkpt lat="47.90571" lon="-3.86617">
        <ele>90.1</ele>
        <time>2023-04-05T08:33:05Z</time>
      </trkpt>
      <trkpt lat="47.90575" lon="-3.86614">
        <ele>90.3</ele>
        <time>2023-04-05T08:33:06Z</time>
      </trkpt>
      <trkpt lat="47.90578" lon="-3.8661">
        <ele>90.5</ele>
        <time>2023-04-05T08:33:07Z</time>
      </trkpt>
      <trkpt lat="47.90581" lon="-3.86607">
        <ele>90.6</ele>
        <time>2023-04-05T08:33:08Z</time>
      </trkpt>
      <trkpt lat="47.90585" lon="-3.86602">
        <ele>90.7</ele>
        <time>2023-04-05T08:33:09Z</time>
      </trkpt>
      <trkpt lat="47.90589" lon="-3.86596">
        <ele>90.9</ele>
        <time>2023-04-05T08:33:10Z</time>
      </trkpt>
      <trkpt lat="47.90593" lon="-3.86592">
        <ele>91</ele>
        <time>2023-04-05T08:33:12Z</time>
      </trkpt>
      <trkpt lat="47.90596" lon="-3.86587">
        <ele>91.1</ele>
        <time>2023-04-05T08:33:13Z</time>
      </trkpt>
      <trkpt lat="47.90599" lon="-3.86583">
        <ele>91.2</ele>
        <time>2023-04-05T08:33:14Z</time>
      </trkpt>
      <trkpt lat="47.90603" lon="-3.86576">
        <ele>91.3</ele>
        <time>2023-04-05T08:33:15Z</time>
      </trkpt>
      <trkpt lat="47.90606" lon="-3.86571">
        <ele>91.4</ele>
        <time>2023-04-05T08:33:16Z</time>
      </trkpt>
      <trkpt lat="47.90609" lon="-3.86566">
        <ele>91.5</ele>
        <time>2023-04-05T08:33:17Z</time>
      </trkpt>
      <trkpt lat="47.90612" lon="-3.8656">
        <ele>91.5</ele>
        <time>2023-04-05T08:33:18Z</time>
      </trkpt>
      <trkpt lat="47.90615" lon="-3.86554">
        <ele>91.5</ele>
        <time>2023-04-05T08:33:19Z</time>
      </trkpt>
      <trkpt lat="47.90618" lon="-3.86547">
        <ele>91.5</ele>
        <time>2023-04-05T08:33:20Z</time>
      </trkpt>
      <trkpt lat="47.90621" lon="-3.86541">
        <ele>91.5</ele>
        <time>2023-04-05T08:33:21Z</time>
      </trkpt>
      <trkpt lat="47.90623" lon="-3.86534">
        <ele>91.5</ele>
        <time>2023-04-05T08:33:22Z</time>
      </trkpt>
      <trkpt lat="47.90626" lon="-3.86526">
        <ele>91.5</ele>
        <time>2023-04-05T08:33:23Z</time>
      </trkpt>
      <trkpt lat="47.90628" lon="-3.86519">
        <ele>91.3</ele>
        <time>2023-04-05T08:33:24Z</time>
      </trkpt>
      <trkpt lat="47.9063" lon="-3.86511">
        <ele>91.1</ele>
        <time>2023-04-05T08:33:25Z</time>
      </trkpt>
      <trkpt lat="47.90632" lon="-3.86502">
        <ele>91</ele>
        <time>2023-04-05T08:33:26Z</time>
      </trkpt>
      <trkpt lat="47.90633" lon="-3.86494">
        <ele>90.9</ele>
        <time>2023-04-05T08:33:27Z</time>
      </trkpt>
      <trkpt lat="47.90635" lon="-3.86485">
        <ele>90.9</ele>
        <time>2023-04-05T08:33:28Z</time>
      </trkpt>
      <trkpt lat="47.90636" lon="-3.86477">
        <ele>90.8</ele>
        <time>2023-04-05T08:33:29Z</time>
      </trkpt>
      <trkpt lat="47.90637" lon="-3.86468">
        <ele>90.8</ele>
        <time>2023-04-05T08:33:30Z</time>
      </trkpt>
      <trkpt lat="47.90639" lon="-3.8646">
        <ele>90.8</ele>
        <time>2023-04-05T08:33:31Z</time>
      </trkpt>
      <trkpt lat="47.9064" lon="-3.86452">
        <ele>90.9</ele>
        <time>2023-04-05T08:33:32Z</time>
      </trkpt>
      <trkpt lat="47.90641" lon="-3.86444">
        <ele>90.9</ele>
        <time>2023-04-05T08:33:33Z</time>
      </trkpt>
      <trkpt lat="47.90643" lon="-3.86436">
        <ele>90.9</ele>
        <time>2023-04-05T08:33:34Z</time>
      </trkpt>
      <trkpt lat="47.90644" lon="-3.86428">
        <ele>91</ele>
        <time>2023-04-05T08:33:35Z</time>
      </trkpt>
      <trkpt lat="47.90645" lon="-3.8642">
        <ele>91</ele>
        <time>2023-04-05T08:33:36Z</time>
      </trkpt>
      <trkpt lat="47.90647" lon="-3.86412">
        <ele>91.1</ele>
        <time>2023-04-05T08:33:37Z</time>
      </trkpt>
      <trkpt lat="47.90648" lon="-3.86405">
        <ele>91.1</ele>
        <time>2023-04-05T08:33:38Z</time>
      </trkpt>
      <trkpt lat="47.90649" lon="-3.86397">
        <ele>91.1</ele>
        <time>2023-04-05T08:33:39Z</time>
      </trkpt>
      <trkpt lat="47.90651" lon="-3.86389">
        <ele>91.2</ele>
        <time>2023-04-05T08:33:40Z</time>
      </trkpt>
      <trkpt lat="47.90652" lon="-3.86381">
        <ele>91.3</ele>
        <time>2023-04-05T08:33:41Z</time>
      </trkpt>
      <trkpt lat="47.90654" lon="-3.86373">
        <ele>91.3</ele>
        <time>2023-04-05T08:33:42Z</time>
      </trkpt>
      <trkpt lat="47.90655" lon="-3.86365">
        <ele>91.4</ele>
        <time>2023-04-05T08:33:43Z</time>
      </trkpt>
      <trkpt lat="47.90656" lon="-3.86358">
        <ele>91.4</ele>
        <time>2023-04-05T08:33:44Z</time>
      </trkpt>
      <trkpt lat="47.90657" lon="-3.8635">
        <ele>91.5</ele>
        <time>2023-04-05T08:33:45Z</time>
      </trkpt>
      <trkpt lat="47.90658" lon="-3.86342">
        <ele>91.6</ele>
        <time>2023-04-05T08:33:46Z</time>
      </trkpt>
      <trkpt lat="47.90658" lon="-3.86334">
        <ele>91.6</ele>
        <time>2023-04-05T08:33:47Z</time>
      </trkpt>
      <trkpt lat="47.90659" lon="-3.86326">
        <ele>91.7</ele>
        <time>2023-04-05T08:33:48Z</time>
      </trkpt>
      <trkpt lat="47.9066" lon="-3.86318">
        <ele>91.8</ele>
        <time>2023-04-05T08:33:49Z</time>
      </trkpt>
      <trkpt lat="47.90661" lon="-3.8631">
        <ele>91.9</ele>
        <time>2023-04-05T08:33:50Z</time>
      </trkpt>
      <trkpt lat="47.90661" lon="-3.86303">
        <ele>92</ele>
        <time>2023-04-05T08:33:51Z</time>
      </trkpt>
      <trkpt lat="47.90662" lon="-3.86295">
        <ele>92.1</ele>
        <time>2023-04-05T08:33:52Z</time>
      </trkpt>
      <trkpt lat="47.90662" lon="-3.86288">
        <ele>92.3</ele>
        <time>2023-04-05T08:33:53Z</time>
      </trkpt>
      <trkpt lat="47.90663" lon="-3.86281">
        <ele>92.4</ele>
        <time>2023-04-05T08:33:54Z</time>
      </trkpt>
      <trkpt lat="47.90664" lon="-3.86274">
        <ele>92.5</ele>
        <time>2023-04-05T08:33:55Z</time>
      </trkpt>
      <trkpt lat="47.90664" lon="-3.86266">
        <ele>92.6</ele>
        <time>2023-04-05T08:33:56Z</time>
      </trkpt>
      <trkpt lat="47.90664" lon="-3.86259">
        <ele>92.7</ele>
        <time>2023-04-05T08:33:57Z</time>
      </trkpt>
      <trkpt lat="47.90665" lon="-3.86251">
        <ele>92.8</ele>
        <time>2023-04-05T08:33:58Z</time>
      </trkpt>
      <trkpt lat="47.90665" lon="-3.86243">
        <ele>92.9</ele>
        <time>2023-04-05T08:33:59Z</time>
      </trkpt>
      <trkpt lat="47.90665" lon="-3.86236">
        <ele>93.1</ele>
        <time>2023-04-05T08:34:00Z</time>
      </trkpt>
      <trkpt lat="47.90665" lon="-3.86229">
        <ele>93.2</ele>
        <time>2023-04-05T08:34:01Z</time>
      </trkpt>
      <trkpt lat="47.90665" lon="-3.86221">
        <ele>93.3</ele>
        <time>2023-04-05T08:34:02Z</time>
      </trkpt>
      <trkpt lat="47.90665" lon="-3.86214">
        <ele>93.4</ele>
        <time>2023-04-05T08:34:03Z</time>
      </trkpt>
      <trkpt lat="47.90665" lon="-3.86207">
        <ele>93.5</ele>
        <time>2023-04-05T08:34:04Z</time>
      </trkpt>
      <trkpt lat="47.90665" lon="-3.86199">
        <ele>93.6</ele>
        <time>2023-04-05T08:34:05Z</time>
      </trkpt>
      <trkpt lat="47.90666" lon="-3.86191">
        <ele>93.7</ele>
        <time>2023-04-05T08:34:06Z</time>
      </trkpt>
      <trkpt lat="47.90666" lon="-3.86184">
        <ele>93.8</ele>
        <time>2023-04-05T08:34:07Z</time>
      </trkpt>
      <trkpt lat="47.90665" lon="-3.86177">
        <ele>93.9</ele>
        <time>2023-04-05T08:34:08Z</time>
      </trkpt>
      <trkpt lat="47.90665" lon="-3.86169">
        <ele>94</ele>
        <time>2023-04-05T08:34:09Z</time>
      </trkpt>
      <trkpt lat="47.90665" lon="-3.86162">
        <ele>94.2</ele>
        <time>2023-04-05T08:34:10Z</time>
      </trkpt>
      <trkpt lat="47.90664" lon="-3.86155">
        <ele>94.3</ele>
        <time>2023-04-05T08:34:11Z</time>
      </trkpt>
      <trkpt lat="47.90664" lon="-3.86148">
        <ele>94.4</ele>
        <time>2023-04-05T08:34:12Z</time>
      </trkpt>
      <trkpt lat="47.90664" lon="-3.86141">
        <ele>94.5</ele>
        <time>2023-04-05T08:34:13Z</time>
      </trkpt>
      <trkpt lat="47.90664" lon="-3.86134">
        <ele>94.7</ele>
        <time>2023-04-05T08:34:14Z</time>
      </trkpt>
      <trkpt lat="47.90663" lon="-3.86127">
        <ele>94.8</ele>
        <time>2023-04-05T08:34:15Z</time>
      </trkpt>
      <trkpt lat="47.90663" lon="-3.86119">
        <ele>94.9</ele>
        <time>2023-04-05T08:34:16Z</time>
      </trkpt>
      <trkpt lat="47.90663" lon="-3.86112">
        <ele>95</ele>
        <time>2023-04-05T08:34:17Z</time>
      </trkpt>
      <trkpt lat="47.90663" lon="-3.86106">
        <ele>95.1</ele>
        <time>2023-04-05T08:34:18Z</time>
      </trkpt>
      <trkpt lat="47.90663" lon="-3.86099">
        <ele>95.2</ele>
        <time>2023-04-05T08:34:19Z</time>
      </trkpt>
      <trkpt lat="47.90663" lon="-3.86092">
        <ele>95.3</ele>
        <time>2023-04-05T08:34:20Z</time>
      </trkpt>
      <trkpt lat="47.90663" lon="-3.86085">
        <ele>95.4</ele>
        <time>2023-04-05T08:34:21Z</time>
      </trkpt>
      <trkpt lat="47.90663" lon="-3.86077">
        <ele>95.5</ele>
        <time>2023-04-05T08:34:22Z</time>
      </trkpt>
      <trkpt lat="47.90663" lon="-3.8607">
        <ele>95.7</ele>
        <time>2023-04-05T08:34:23Z</time>
      </trkpt>
      <trkpt lat="47.90663" lon="-3.86064">
        <ele>95.8</ele>
        <time>2023-04-05T08:34:24Z</time>
      </trkpt>
      <trkpt lat="47.90663" lon="-3.86057">
        <ele>95.9</ele>
        <time>2023-04-05T08:34:25Z</time>
      </trkpt>
      <trkpt lat="47.90663" lon="-3.8605">
        <ele>96</ele>
        <time>2023-04-05T08:34:26Z</time>
      </trkpt>
      <trkpt lat="47.90664" lon="-3.86044">
        <ele>96.2</ele>
        <time>2023-04-05T08:34:27Z</time>
      </trkpt>
      <trkpt lat="47.90664" lon="-3.86037">
        <ele>96.2</ele>
        <time>2023-04-05T08:34:28Z</time>
      </trkpt>
      <trkpt lat="47.90665" lon="-3.8603">
        <ele>96.3</ele>
        <time>2023-04-05T08:34:29Z</time>
      </trkpt>
      <trkpt lat="47.90665" lon="-3.86023">
        <ele>96.4</ele>
        <time>2023-04-05T08:34:30Z</time>
      </trkpt>
      <trkpt lat="47.90666" lon="-3.86016">
        <ele>96.5</ele>
        <time>2023-04-05T08:34:31Z</time>
      </trkpt>
      <trkpt lat="47.90666" lon="-3.86009">
        <ele>96.6</ele>
        <time>2023-04-05T08:34:32Z</time>
      </trkpt>
      <trkpt lat="47.90666" lon="-3.86002">
        <ele>96.6</ele>
        <time>2023-04-05T08:34:33Z</time>
      </trkpt>
      <trkpt lat="47.90667" lon="-3.85994">
        <ele>96.6</ele>
        <time>2023-04-05T08:34:34Z</time>
      </trkpt>
      <trkpt lat="47.90667" lon="-3.85986">
        <ele>96.7</ele>
        <time>2023-04-05T08:34:35Z</time>
      </trkpt>
      <trkpt lat="47.90668" lon="-3.85978">
        <ele>96.7</ele>
        <time>2023-04-05T08:34:36Z</time>
      </trkpt>
      <trkpt lat="47.90669" lon="-3.85971">
        <ele>96.8</ele>
        <time>2023-04-05T08:34:37Z</time>
      </trkpt>
      <trkpt lat="47.9067" lon="-3.85963">
        <ele>96.8</ele>
        <time>2023-04-05T08:34:38Z</time>
      </trkpt>
      <trkpt lat="47.90671" lon="-3.85956">
        <ele>96.9</ele>
        <time>2023-04-05T08:34:39Z</time>
      </trkpt>
      <trkpt lat="47.90672" lon="-3.85949">
        <ele>96.9</ele>
        <time>2023-04-05T08:34:40Z</time>
      </trkpt>
      <trkpt lat="47.90673" lon="-3.85942">
        <ele>96.9</ele>
        <time>2023-04-05T08:34:41Z</time>
      </trkpt>
      <trkpt lat="47.90675" lon="-3.85934">
        <ele>96.9</ele>
        <time>2023-04-05T08:34:42Z</time>
      </trkpt>
      <trkpt lat="47.90676" lon="-3.85926">
        <ele>96.9</ele>
        <time>2023-04-05T08:34:43Z</time>
      </trkpt>
      <trkpt lat="47.90676" lon="-3.85918">
        <ele>96.9</ele>
        <time>2023-04-05T08:34:44Z</time>
      </trkpt>
      <trkpt lat="47.90678" lon="-3.85911">
        <ele>96.8</ele>
        <time>2023-04-05T08:34:45Z</time>
      </trkpt>
      <trkpt lat="47.90678" lon="-3.85903">
        <ele>96.8</ele>
        <time>2023-04-05T08:34:46Z</time>
      </trkpt>
      <trkpt lat="47.90679" lon="-3.85895">
        <ele>96.8</ele>
        <time>2023-04-05T08:34:47Z</time>
      </trkpt>
      <trkpt lat="47.9068" lon="-3.85887">
        <ele>96.8</ele>
        <time>2023-04-05T08:34:48Z</time>
      </trkpt>
      <trkpt lat="47.90682" lon="-3.8588">
        <ele>96.7</ele>
        <time>2023-04-05T08:34:49Z</time>
      </trkpt>
      <trkpt lat="47.90683" lon="-3.85872">
        <ele>96.7</ele>
        <time>2023-04-05T08:34:50Z</time>
      </trkpt>
      <trkpt lat="47.90684" lon="-3.85864">
        <ele>96.6</ele>
        <time>2023-04-05T08:34:51Z</time>
      </trkpt>
      <trkpt lat="47.90685" lon="-3.85856">
        <ele>96.6</ele>
        <time>2023-04-05T08:34:52Z</time>
      </trkpt>
      <trkpt lat="47.90686" lon="-3.85849">
        <ele>96.5</ele>
        <time>2023-04-05T08:34:53Z</time>
      </trkpt>
      <trkpt lat="47.90688" lon="-3.85841">
        <ele>96.5</ele>
        <time>2023-04-05T08:34:54Z</time>
      </trkpt>
      <trkpt lat="47.90689" lon="-3.85833">
        <ele>96.4</ele>
        <time>2023-04-05T08:34:55Z</time>
      </trkpt>
      <trkpt lat="47.9069" lon="-3.85825">
        <ele>96.4</ele>
        <time>2023-04-05T08:34:56Z</time>
      </trkpt>
      <trkpt lat="47.90691" lon="-3.85817">
        <ele>96.3</ele>
        <time>2023-04-05T08:34:57Z</time>
      </trkpt>
      <trkpt lat="47.90691" lon="-3.8581">
        <ele>96.3</ele>
        <time>2023-04-05T08:34:58Z</time>
      </trkpt>
      <trkpt lat="47.90692" lon="-3.85801">
        <ele>96.2</ele>
        <time>2023-04-05T08:34:59Z</time>
      </trkpt>
      <trkpt lat="47.90693" lon="-3.85793">
        <ele>96.1</ele>
        <time>2023-04-05T08:35:00Z</time>
      </trkpt>
      <trkpt lat="47.90694" lon="-3.85786">
        <ele>96.1</ele>
        <time>2023-04-05T08:35:01Z</time>
      </trkpt>
      <trkpt lat="47.90695" lon="-3.85777">
        <ele>95.9</ele>
        <time>2023-04-05T08:35:02Z</time>
      </trkpt>
      <trkpt lat="47.90696" lon="-3.85769">
        <ele>95.8</ele>
        <time>2023-04-05T08:35:03Z</time>
      </trkpt>
      <trkpt lat="47.90697" lon="-3.85762">
        <ele>95.7</ele>
        <time>2023-04-05T08:35:04Z</time>
      </trkpt>
      <trkpt lat="47.90697" lon="-3.85753">
        <ele>95.6</ele>
        <time>2023-04-05T08:35:05Z</time>
      </trkpt>
      <trkpt lat="47.90698" lon="-3.85745">
        <ele>95.6</ele>
        <time>2023-04-05T08:35:06Z</time>
      </trkpt>
      <trkpt lat="47.90699" lon="-3.85737">
        <ele>95.5</ele>
        <time>2023-04-05T08:35:07Z</time>
      </trkpt>
      <trkpt lat="47.90699" lon="-3.85728">
        <ele>95.4</ele>
        <time>2023-04-05T08:35:08Z</time>
      </trkpt>
      <trkpt lat="47.90699" lon="-3.8572">
        <ele>95.4</ele>
        <time>2023-04-05T08:35:09Z</time>
      </trkpt>
      <trkpt lat="47.90699" lon="-3.85711">
        <ele>95.3</ele>
        <time>2023-04-05T08:35:10Z</time>
      </trkpt>
      <trkpt lat="47.90699" lon="-3.85702">
        <ele>95.3</ele>
        <time>2023-04-05T08:35:11Z</time>
      </trkpt>
      <trkpt lat="47.90698" lon="-3.85694">
        <ele>95.2</ele>
        <time>2023-04-05T08:35:12Z</time>
      </trkpt>
      <trkpt lat="47.90697" lon="-3.85685">
        <ele>95.2</ele>
        <time>2023-04-05T08:35:13Z</time>
      </trkpt>
      <trkpt lat="47.90697" lon="-3.85677">
        <ele>95.2</ele>
        <time>2023-04-05T08:35:14Z</time>
      </trkpt>
      <trkpt lat="47.90696" lon="-3.85669">
        <ele>95.3</ele>
        <time>2023-04-05T08:35:15Z</time>
      </trkpt>
      <trkpt lat="47.90695" lon="-3.85661">
        <ele>95.3</ele>
        <time>2023-04-05T08:35:16Z</time>
      </trkpt>
      <trkpt lat="47.90694" lon="-3.85653">
        <ele>95.3</ele>
        <time>2023-04-05T08:35:17Z</time>
      </trkpt>
      <trkpt lat="47.90693" lon="-3.85645">
        <ele>95.4</ele>
        <time>2023-04-05T08:35:18Z</time>
      </trkpt>
      <trkpt lat="47.90692" lon="-3.85637">
        <ele>95.4</ele>
        <time>2023-04-05T08:35:19Z</time>
      </trkpt>
      <trkpt lat="47.90691" lon="-3.85629">
        <ele>95.4</ele>
        <time>2023-04-05T08:35:20Z</time>
      </trkpt>
      <trkpt lat="47.9069" lon="-3.85622">
        <ele>95.4</ele>
        <time>2023-04-05T08:35:21Z</time>
      </trkpt>
      <trkpt lat="47.90689" lon="-3.85614">
        <ele>95.4</ele>
        <time>2023-04-05T08:35:22Z</time>
      </trkpt>
      <trkpt lat="47.90688" lon="-3.85605">
        <ele>95.4</ele>
        <time>2023-04-05T08:35:23Z</time>
      </trkpt>
      <trkpt lat="47.90687" lon="-3.85597">
        <ele>95.4</ele>
        <time>2023-04-05T08:35:24Z</time>
      </trkpt>
      <trkpt lat="47.90686" lon="-3.85589">
        <ele>95.4</ele>
        <time>2023-04-05T08:35:25Z</time>
      </trkpt>
      <trkpt lat="47.90685" lon="-3.85581">
        <ele>95.3</ele>
        <time>2023-04-05T08:35:26Z</time>
      </trkpt>
      <trkpt lat="47.90685" lon="-3.85572">
        <ele>95.2</ele>
        <time>2023-04-05T08:35:27Z</time>
      </trkpt>
      <trkpt lat="47.90686" lon="-3.85564">
        <ele>95.1</ele>
        <time>2023-04-05T08:35:28Z</time>
      </trkpt>
      <trkpt lat="47.90688" lon="-3.85556">
        <ele>95</ele>
        <time>2023-04-05T08:35:29Z</time>
      </trkpt>
      <trkpt lat="47.9069" lon="-3.85548">
        <ele>94.8</ele>
        <time>2023-04-05T08:35:30Z</time>
      </trkpt>
      <trkpt lat="47.90691" lon="-3.8554">
        <ele>94.9</ele>
        <time>2023-04-05T08:35:31Z</time>
      </trkpt>
      <trkpt lat="47.9069" lon="-3.85531">
        <ele>94.9</ele>
        <time>2023-04-05T08:35:32Z</time>
      </trkpt>
      <trkpt lat="47.90687" lon="-3.85523">
        <ele>94.9</ele>
        <time>2023-04-05T08:35:33Z</time>
      </trkpt>
      <trkpt lat="47.90684" lon="-3.85516">
        <ele>94.9</ele>
        <time>2023-04-05T08:35:34Z</time>
      </trkpt>
      <trkpt lat="47.90681" lon="-3.85508">
        <ele>94.8</ele>
        <time>2023-04-05T08:35:35Z</time>
      </trkpt>
      <trkpt lat="47.90678" lon="-3.855">
        <ele>94.8</ele>
        <time>2023-04-05T08:35:36Z</time>
      </trkpt>
      <trkpt lat="47.90676" lon="-3.85491">
        <ele>94.7</ele>
        <time>2023-04-05T08:35:37Z</time>
      </trkpt>
      <trkpt lat="47.90674" lon="-3.85482">
        <ele>94.6</ele>
        <time>2023-04-05T08:35:38Z</time>
      </trkpt>
      <trkpt lat="47.90672" lon="-3.85473">
        <ele>94.5</ele>
        <time>2023-04-05T08:35:39Z</time>
      </trkpt>
      <trkpt lat="47.9067" lon="-3.85464">
        <ele>94.4</ele>
        <time>2023-04-05T08:35:40Z</time>
      </trkpt>
      <trkpt lat="47.90668" lon="-3.85455">
        <ele>94.4</ele>
        <time>2023-04-05T08:35:41Z</time>
      </trkpt>
      <trkpt lat="47.90666" lon="-3.85446">
        <ele>94.3</ele>
        <time>2023-04-05T08:35:42Z</time>
      </trkpt>
      <trkpt lat="47.90663" lon="-3.85437">
        <ele>94.2</ele>
        <time>2023-04-05T08:35:43Z</time>
      </trkpt>
      <trkpt lat="47.90661" lon="-3.85427">
        <ele>94.2</ele>
        <time>2023-04-05T08:35:44Z</time>
      </trkpt>
      <trkpt lat="47.90659" lon="-3.85418">
        <ele>94.1</ele>
        <time>2023-04-05T08:35:45Z</time>
      </trkpt>
      <trkpt lat="47.90657" lon="-3.85409">
        <ele>93.9</ele>
        <time>2023-04-05T08:35:46Z</time>
      </trkpt>
      <trkpt lat="47.90655" lon="-3.854">
        <ele>93.8</ele>
        <time>2023-04-05T08:35:47Z</time>
      </trkpt>
      <trkpt lat="47.90653" lon="-3.85392">
        <ele>93.7</ele>
        <time>2023-04-05T08:35:48Z</time>
      </trkpt>
      <trkpt lat="47.90651" lon="-3.85384">
        <ele>93.6</ele>
        <time>2023-04-05T08:35:49Z</time>
      </trkpt>
      <trkpt lat="47.90648" lon="-3.85375">
        <ele>93.4</ele>
        <time>2023-04-05T08:35:50Z</time>
      </trkpt>
      <trkpt lat="47.90646" lon="-3.85367">
        <ele>93.4</ele>
        <time>2023-04-05T08:35:51Z</time>
      </trkpt>
      <trkpt lat="47.90643" lon="-3.85359">
        <ele>93.3</ele>
        <time>2023-04-05T08:35:52Z</time>
      </trkpt>
      <trkpt lat="47.9064" lon="-3.85352">
        <ele>93.2</ele>
        <time>2023-04-05T08:35:53Z</time>
      </trkpt>
      <trkpt lat="47.90636" lon="-3.85344">
        <ele>93.2</ele>
        <time>2023-04-05T08:35:54Z</time>
      </trkpt>
      <trkpt lat="47.90633" lon="-3.85337">
        <ele>93.2</ele>
        <time>2023-04-05T08:35:55Z</time>
      </trkpt>
      <trkpt lat="47.9063" lon="-3.85329">
        <ele>93.2</ele>
        <time>2023-04-05T08:35:56Z</time>
      </trkpt>
      <trkpt lat="47.90626" lon="-3.85322">
        <ele>93.2</ele>
        <time>2023-04-05T08:35:57Z</time>
      </trkpt>
      <trkpt lat="47.90623" lon="-3.85315">
        <ele>93.3</ele>
        <time>2023-04-05T08:35:58Z</time>
      </trkpt>
      <trkpt lat="47.9062" lon="-3.85308">
        <ele>93.3</ele>
        <time>2023-04-05T08:35:59Z</time>
      </trkpt>
      <trkpt lat="47.90616" lon="-3.85301">
        <ele>93.4</ele>
        <time>2023-04-05T08:36:00Z</time>
      </trkpt>
      <trkpt lat="47.90613" lon="-3.85295">
        <ele>93.5</ele>
        <time>2023-04-05T08:36:01Z</time>
      </trkpt>
      <trkpt lat="47.9061" lon="-3.85289">
        <ele>93.6</ele>
        <time>2023-04-05T08:36:02Z</time>
      </trkpt>
      <trkpt lat="47.90607" lon="-3.85283">
        <ele>93.7</ele>
        <time>2023-04-05T08:36:03Z</time>
      </trkpt>
      <trkpt lat="47.90603" lon="-3.85276">
        <ele>93.8</ele>
        <time>2023-04-05T08:36:04Z</time>
      </trkpt>
      <trkpt lat="47.906" lon="-3.8527">
        <ele>93.9</ele>
        <time>2023-04-05T08:36:05Z</time>
      </trkpt>
      <trkpt lat="47.90597" lon="-3.85264">
        <ele>94</ele>
        <time>2023-04-05T08:36:06Z</time>
      </trkpt>
      <trkpt lat="47.90594" lon="-3.85257">
        <ele>94.1</ele>
        <time>2023-04-05T08:36:07Z</time>
      </trkpt>
      <trkpt lat="47.90591" lon="-3.85251">
        <ele>94.2</ele>
        <time>2023-04-05T08:36:08Z</time>
      </trkpt>
      <trkpt lat="47.90588" lon="-3.85245">
        <ele>94.3</ele>
        <time>2023-04-05T08:36:09Z</time>
      </trkpt>
      <trkpt lat="47.90585" lon="-3.85239">
        <ele>94.5</ele>
        <time>2023-04-05T08:36:10Z</time>
      </trkpt>
      <trkpt lat="47.90582" lon="-3.85233">
        <ele>94.6</ele>
        <time>2023-04-05T08:36:11Z</time>
      </trkpt>
      <trkpt lat="47.90579" lon="-3.85227">
        <ele>94.7</ele>
        <time>2023-04-05T08:36:12Z</time>
      </trkpt>
      <trkpt lat="47.90576" lon="-3.85221">
        <ele>94.9</ele>
        <time>2023-04-05T08:36:13Z</time>
      </trkpt>
      <trkpt lat="47.90573" lon="-3.85215">
        <ele>95</ele>
        <time>2023-04-05T08:36:14Z</time>
      </trkpt>
      <trkpt lat="47.90571" lon="-3.85208">
        <ele>95.1</ele>
        <time>2023-04-05T08:36:15Z</time>
      </trkpt>
      <trkpt lat="47.90568" lon="-3.85202">
        <ele>95.2</ele>
        <time>2023-04-05T08:36:16Z</time>
      </trkpt>
      <trkpt lat="47.90565" lon="-3.85196">
        <ele>95.3</ele>
        <time>2023-04-05T08:36:17Z</time>
      </trkpt>
      <trkpt lat="47.90563" lon="-3.85189">
        <ele>95.5</ele>
        <time>2023-04-05T08:36:18Z</time>
      </trkpt>
      <trkpt lat="47.90561" lon="-3.85183">
        <ele>95.6</ele>
        <time>2023-04-05T08:36:19Z</time>
      </trkpt>
      <trkpt lat="47.90558" lon="-3.85176">
        <ele>95.7</ele>
        <time>2023-04-05T08:36:20Z</time>
      </trkpt>
      <trkpt lat="47.90556" lon="-3.8517">
        <ele>95.8</ele>
        <time>2023-04-05T08:36:21Z</time>
      </trkpt>
      <trkpt lat="47.90554" lon="-3.85163">
        <ele>95.9</ele>
        <time>2023-04-05T08:36:22Z</time>
      </trkpt>
      <trkpt lat="47.90552" lon="-3.85156">
        <ele>96</ele>
        <time>2023-04-05T08:36:23Z</time>
      </trkpt>
      <trkpt lat="47.9055" lon="-3.85149">
        <ele>96.1</ele>
        <time>2023-04-05T08:36:24Z</time>
      </trkpt>
      <trkpt lat="47.90548" lon="-3.85142">
        <ele>96.2</ele>
        <time>2023-04-05T08:36:25Z</time>
      </trkpt>
      <trkpt lat="47.90546" lon="-3.85135">
        <ele>96.3</ele>
        <time>2023-04-05T08:36:26Z</time>
      </trkpt>
      <trkpt lat="47.90545" lon="-3.85128">
        <ele>96.5</ele>
        <time>2023-04-05T08:36:27Z</time>
      </trkpt>
      <trkpt lat="47.90544" lon="-3.85121">
        <ele>96.6</ele>
        <time>2023-04-05T08:36:28Z</time>
      </trkpt>
      <trkpt lat="47.90543" lon="-3.85113">
        <ele>96.7</ele>
        <time>2023-04-05T08:36:29Z</time>
      </trkpt>
      <trkpt lat="47.90542" lon="-3.85105">
        <ele>96.8</ele>
        <time>2023-04-05T08:36:30Z</time>
      </trkpt>
      <trkpt lat="47.90541" lon="-3.85098">
        <ele>97</ele>
        <time>2023-04-05T08:36:31Z</time>
      </trkpt>
      <trkpt lat="47.90541" lon="-3.8509">
        <ele>97.1</ele>
        <time>2023-04-05T08:36:32Z</time>
      </trkpt>
      <trkpt lat="47.9054" lon="-3.85083">
        <ele>97.2</ele>
        <time>2023-04-05T08:36:33Z</time>
      </trkpt>
      <trkpt lat="47.9054" lon="-3.85075">
        <ele>97.3</ele>
        <time>2023-04-05T08:36:34Z</time>
      </trkpt>
      <trkpt lat="47.9054" lon="-3.85068">
        <ele>97.4</ele>
        <time>2023-04-05T08:36:35Z</time>
      </trkpt>
      <trkpt lat="47.9054" lon="-3.8506">
        <ele>97.5</ele>
        <time>2023-04-05T08:36:36Z</time>
      </trkpt>
      <trkpt lat="47.9054" lon="-3.85053">
        <ele>97.6</ele>
        <time>2023-04-05T08:36:37Z</time>
      </trkpt>
      <trkpt lat="47.9054" lon="-3.85045">
        <ele>97.7</ele>
        <time>2023-04-05T08:36:38Z</time>
      </trkpt>
      <trkpt lat="47.9054" lon="-3.85038">
        <ele>97.8</ele>
        <time>2023-04-05T08:36:39Z</time>
      </trkpt>
      <trkpt lat="47.90541" lon="-3.8503">
        <ele>97.9</ele>
        <time>2023-04-05T08:36:40Z</time>
      </trkpt>
      <trkpt lat="47.90541" lon="-3.85023">
        <ele>98</ele>
        <time>2023-04-05T08:36:41Z</time>
      </trkpt>
      <trkpt lat="47.90542" lon="-3.85015">
        <ele>98.2</ele>
        <time>2023-04-05T08:36:42Z</time>
      </trkpt>
      <trkpt lat="47.90542" lon="-3.85008">
        <ele>98.2</ele>
        <time>2023-04-05T08:36:43Z</time>
      </trkpt>
      <trkpt lat="47.90543" lon="-3.85">
        <ele>98.3</ele>
        <time>2023-04-05T08:36:44Z</time>
      </trkpt>
      <trkpt lat="47.90544" lon="-3.84993">
        <ele>98.3</ele>
        <time>2023-04-05T08:36:45Z</time>
      </trkpt>
      <trkpt lat="47.90546" lon="-3.84986">
        <ele>98.4</ele>
        <time>2023-04-05T08:36:46Z</time>
      </trkpt>
      <trkpt lat="47.90547" lon="-3.84979">
        <ele>98.5</ele>
        <time>2023-04-05T08:36:47Z</time>
      </trkpt>
      <trkpt lat="47.90549" lon="-3.84971">
        <ele>98.5</ele>
        <time>2023-04-05T08:36:48Z</time>
      </trkpt>
      <trkpt lat="47.90551" lon="-3.84964">
        <ele>98.6</ele>
        <time>2023-04-05T08:36:49Z</time>
      </trkpt>
      <trkpt lat="47.90553" lon="-3.84956">
        <ele>98.6</ele>
        <time>2023-04-05T08:36:50Z</time>
      </trkpt>
      <trkpt lat="47.90555" lon="-3.84949">
        <ele>98.6</ele>
        <time>2023-04-05T08:36:51Z</time>
      </trkpt>
      <trkpt lat="47.90557" lon="-3.84942">
        <ele>98.6</ele>
        <time>2023-04-05T08:36:52Z</time>
      </trkpt>
      <trkpt lat="47.90559" lon="-3.84935">
        <ele>98.6</ele>
        <time>2023-04-05T08:36:53Z</time>
      </trkpt>
      <trkpt lat="47.90561" lon="-3.84928">
        <ele>98.6</ele>
        <time>2023-04-05T08:36:54Z</time>
      </trkpt>
      <trkpt lat="47.90563" lon="-3.84921">
        <ele>98.6</ele>
        <time>2023-04-05T08:36:55Z</time>
      </trkpt>
      <trkpt lat="47.90565" lon="-3.84914">
        <ele>98.6</ele>
        <time>2023-04-05T08:36:56Z</time>
      </trkpt>
      <trkpt lat="47.90567" lon="-3.84906">
        <ele>98.6</ele>
        <time>2023-04-05T08:36:57Z</time>
      </trkpt>
      <trkpt lat="47.9057" lon="-3.84899">
        <ele>98.6</ele>
        <time>2023-04-05T08:36:58Z</time>
      </trkpt>
      <trkpt lat="47.90572" lon="-3.84892">
        <ele>98.6</ele>
        <time>2023-04-05T08:36:59Z</time>
      </trkpt>
      <trkpt lat="47.90575" lon="-3.84884">
        <ele>98.6</ele>
        <time>2023-04-05T08:37:00Z</time>
      </trkpt>
      <trkpt lat="47.90577" lon="-3.84877">
        <ele>98.5</ele>
        <time>2023-04-05T08:37:01Z</time>
      </trkpt>
      <trkpt lat="47.9058" lon="-3.84869">
        <ele>98.4</ele>
        <time>2023-04-05T08:37:02Z</time>
      </trkpt>
      <trkpt lat="47.90582" lon="-3.84862">
        <ele>98.4</ele>
        <time>2023-04-05T08:37:03Z</time>
      </trkpt>
      <trkpt lat="47.90585" lon="-3.84854">
        <ele>98.3</ele>
        <time>2023-04-05T08:37:04Z</time>
      </trkpt>
      <trkpt lat="47.90587" lon="-3.84846">
        <ele>98.2</ele>
        <time>2023-04-05T08:37:05Z</time>
      </trkpt>
      <trkpt lat="47.9059" lon="-3.84838">
        <ele>98.1</ele>
        <time>2023-04-05T08:37:06Z</time>
      </trkpt>
      <trkpt lat="47.90592" lon="-3.8483">
        <ele>98</ele>
        <time>2023-04-05T08:37:07Z</time>
      </trkpt>
      <trkpt lat="47.90595" lon="-3.84822">
        <ele>97.9</ele>
        <time>2023-04-05T08:37:08Z</time>
      </trkpt>
      <trkpt lat="47.90597" lon="-3.84814">
        <ele>97.8</ele>
        <time>2023-04-05T08:37:09Z</time>
      </trkpt>
      <trkpt lat="47.906" lon="-3.84806">
        <ele>97.6</ele>
        <time>2023-04-05T08:37:10Z</time>
      </trkpt>
      <trkpt lat="47.90602" lon="-3.84797">
        <ele>97.4</ele>
        <time>2023-04-05T08:37:11Z</time>
      </trkpt>
      <trkpt lat="47.90605" lon="-3.84788">
        <ele>97.3</ele>
        <time>2023-04-05T08:37:12Z</time>
      </trkpt>
      <trkpt lat="47.90607" lon="-3.8478">
        <ele>97.1</ele>
        <time>2023-04-05T08:37:13Z</time>
      </trkpt>
      <trkpt lat="47.9061" lon="-3.8477">
        <ele>96.9</ele>
        <time>2023-04-05T08:37:14Z</time>
      </trkpt>
      <trkpt lat="47.90612" lon="-3.84761">
        <ele>96.7</ele>
        <time>2023-04-05T08:37:15Z</time>
      </trkpt>
      <trkpt lat="47.90615" lon="-3.84751">
        <ele>96.5</ele>
        <time>2023-04-05T08:37:16Z</time>
      </trkpt>
      <trkpt lat="47.90617" lon="-3.84742">
        <ele>96.2</ele>
        <time>2023-04-05T08:37:17Z</time>
      </trkpt>
      <trkpt lat="47.90619" lon="-3.84732">
        <ele>96</ele>
        <time>2023-04-05T08:37:18Z</time>
      </trkpt>
      <trkpt lat="47.90621" lon="-3.84722">
        <ele>95.8</ele>
        <time>2023-04-05T08:37:19Z</time>
      </trkpt>
      <trkpt lat="47.90623" lon="-3.84712">
        <ele>95.6</ele>
        <time>2023-04-05T08:37:20Z</time>
      </trkpt>
      <trkpt lat="47.90624" lon="-3.84701">
        <ele>95.3</ele>
        <time>2023-04-05T08:37:21Z</time>
      </trkpt>
      <trkpt lat="47.90626" lon="-3.8469">
        <ele>95</ele>
        <time>2023-04-05T08:37:22Z</time>
      </trkpt>
      <trkpt lat="47.90627" lon="-3.84679">
        <ele>94.8</ele>
        <time>2023-04-05T08:37:23Z</time>
      </trkpt>
      <trkpt lat="47.90627" lon="-3.84669">
        <ele>94.5</ele>
        <time>2023-04-05T08:37:24Z</time>
      </trkpt>
      <trkpt lat="47.90628" lon="-3.84658">
        <ele>94.2</ele>
        <time>2023-04-05T08:37:25Z</time>
      </trkpt>
      <trkpt lat="47.90628" lon="-3.84646">
        <ele>93.9</ele>
        <time>2023-04-05T08:37:26Z</time>
      </trkpt>
      <trkpt lat="47.90629" lon="-3.84635">
        <ele>93.7</ele>
        <time>2023-04-05T08:37:27Z</time>
      </trkpt>
      <trkpt lat="47.90629" lon="-3.84623">
        <ele>93.4</ele>
        <time>2023-04-05T08:37:28Z</time>
      </trkpt>
      <trkpt lat="47.9063" lon="-3.84612">
        <ele>93.1</ele>
        <time>2023-04-05T08:37:29Z</time>
      </trkpt>
      <trkpt lat="47.90631" lon="-3.846">
        <ele>92.9</ele>
        <time>2023-04-05T08:37:30Z</time>
      </trkpt>
      <trkpt lat="47.90632" lon="-3.84589">
        <ele>92.7</ele>
        <time>2023-04-05T08:37:31Z</time>
      </trkpt>
      <trkpt lat="47.90633" lon="-3.84579">
        <ele>92.5</ele>
        <time>2023-04-05T08:37:32Z</time>
      </trkpt>
      <trkpt lat="47.90634" lon="-3.84568">
        <ele>92.4</ele>
        <time>2023-04-05T08:37:33Z</time>
      </trkpt>
      <trkpt lat="47.90636" lon="-3.84558">
        <ele>92.2</ele>
        <time>2023-04-05T08:37:34Z</time>
      </trkpt>
      <trkpt lat="47.90637" lon="-3.84548">
        <ele>92.1</ele>
        <time>2023-04-05T08:37:35Z</time>
      </trkpt>
      <trkpt lat="47.90639" lon="-3.84538">
        <ele>92</ele>
        <time>2023-04-05T08:37:36Z</time>
      </trkpt>
      <trkpt lat="47.90641" lon="-3.84528">
        <ele>91.9</ele>
        <time>2023-04-05T08:37:37Z</time>
      </trkpt>
      <trkpt lat="47.90643" lon="-3.84519">
        <ele>91.8</ele>
        <time>2023-04-05T08:37:38Z</time>
      </trkpt>
      <trkpt lat="47.90645" lon="-3.84509">
        <ele>91.8</ele>
        <time>2023-04-05T08:37:39Z</time>
      </trkpt>
      <trkpt lat="47.90646" lon="-3.84499">
        <ele>91.7</ele>
        <time>2023-04-05T08:37:40Z</time>
      </trkpt>
      <trkpt lat="47.90648" lon="-3.8449">
        <ele>91.7</ele>
        <time>2023-04-05T08:37:41Z</time>
      </trkpt>
      <trkpt lat="47.90649" lon="-3.8448">
        <ele>91.6</ele>
        <time>2023-04-05T08:37:42Z</time>
      </trkpt>
      <trkpt lat="47.9065" lon="-3.84471">
        <ele>91.6</ele>
        <time>2023-04-05T08:37:43Z</time>
      </trkpt>
      <trkpt lat="47.90652" lon="-3.84461">
        <ele>91.6</ele>
        <time>2023-04-05T08:37:44Z</time>
      </trkpt>
      <trkpt lat="47.90653" lon="-3.84452">
        <ele>91.6</ele>
        <time>2023-04-05T08:37:45Z</time>
      </trkpt>
      <trkpt lat="47.90655" lon="-3.84442">
        <ele>91.6</ele>
        <time>2023-04-05T08:37:46Z</time>
      </trkpt>
      <trkpt lat="47.90656" lon="-3.84433">
        <ele>91.6</ele>
        <time>2023-04-05T08:37:47Z</time>
      </trkpt>
      <trkpt lat="47.90658" lon="-3.84424">
        <ele>91.6</ele>
        <time>2023-04-05T08:37:48Z</time>
      </trkpt>
      <trkpt lat="47.90659" lon="-3.84414">
        <ele>91.6</ele>
        <time>2023-04-05T08:37:49Z</time>
      </trkpt>
      <trkpt lat="47.90661" lon="-3.84405">
        <ele>91.6</ele>
        <time>2023-04-05T08:37:50Z</time>
      </trkpt>
      <trkpt lat="47.90662" lon="-3.84396">
        <ele>91.6</ele>
        <time>2023-04-05T08:37:51Z</time>
      </trkpt>
      <trkpt lat="47.90664" lon="-3.84387">
        <ele>91.6</ele>
        <time>2023-04-05T08:37:52Z</time>
      </trkpt>
      <trkpt lat="47.90665" lon="-3.84377">
        <ele>91.6</ele>
        <time>2023-04-05T08:37:53Z</time>
      </trkpt>
      <trkpt lat="47.90666" lon="-3.84368">
        <ele>91.6</ele>
        <time>2023-04-05T08:37:54Z</time>
      </trkpt>
      <trkpt lat="47.90667" lon="-3.84358">
        <ele>91.6</ele>
        <time>2023-04-05T08:37:55Z</time>
      </trkpt>
      <trkpt lat="47.90667" lon="-3.84349">
        <ele>91.6</ele>
        <time>2023-04-05T08:37:56Z</time>
      </trkpt>
      <trkpt lat="47.90667" lon="-3.8434">
        <ele>91.6</ele>
        <time>2023-04-05T08:37:57Z</time>
      </trkpt>
      <trkpt lat="47.90667" lon="-3.84331">
        <ele>91.7</ele>
        <time>2023-04-05T08:37:58Z</time>
      </trkpt>
      <trkpt lat="47.90667" lon="-3.84322">
        <ele>91.7</ele>
        <time>2023-04-05T08:37:59Z</time>
      </trkpt>
      <trkpt lat="47.90666" lon="-3.84313">
        <ele>91.7</ele>
        <time>2023-04-05T08:38:00Z</time>
      </trkpt>
      <trkpt lat="47.90665" lon="-3.84304">
        <ele>91.7</ele>
        <time>2023-04-05T08:38:01Z</time>
      </trkpt>
      <trkpt lat="47.90665" lon="-3.84295">
        <ele>91.7</ele>
        <time>2023-04-05T08:38:02Z</time>
      </trkpt>
      <trkpt lat="47.90664" lon="-3.84286">
        <ele>91.7</ele>
        <time>2023-04-05T08:38:03Z</time>
      </trkpt>
      <trkpt lat="47.90663" lon="-3.84277">
        <ele>91.7</ele>
        <time>2023-04-05T08:38:04Z</time>
      </trkpt>
      <trkpt lat="47.90663" lon="-3.84268">
        <ele>91.7</ele>
        <time>2023-04-05T08:38:05Z</time>
      </trkpt>
      <trkpt lat="47.90662" lon="-3.8426">
        <ele>91.7</ele>
        <time>2023-04-05T08:38:06Z</time>
      </trkpt>
      <trkpt lat="47.90662" lon="-3.84251">
        <ele>91.7</ele>
        <time>2023-04-05T08:38:07Z</time>
      </trkpt>
      <trkpt lat="47.90661" lon="-3.84243">
        <ele>91.7</ele>
        <time>2023-04-05T08:38:08Z</time>
      </trkpt>
      <trkpt lat="47.90661" lon="-3.84234">
        <ele>91.7</ele>
        <time>2023-04-05T08:38:09Z</time>
      </trkpt>
      <trkpt lat="47.9066" lon="-3.84226">
        <ele>91.7</ele>
        <time>2023-04-05T08:38:10Z</time>
      </trkpt>
      <trkpt lat="47.90659" lon="-3.84218">
        <ele>91.8</ele>
        <time>2023-04-05T08:38:11Z</time>
      </trkpt>
      <trkpt lat="47.90659" lon="-3.84209">
        <ele>91.9</ele>
        <time>2023-04-05T08:38:12Z</time>
      </trkpt>
      <trkpt lat="47.90658" lon="-3.84201">
        <ele>91.9</ele>
        <time>2023-04-05T08:38:13Z</time>
      </trkpt>
      <trkpt lat="47.90657" lon="-3.84193">
        <ele>92</ele>
        <time>2023-04-05T08:38:14Z</time>
      </trkpt>
      <trkpt lat="47.90657" lon="-3.84184">
        <ele>92.1</ele>
        <time>2023-04-05T08:38:15Z</time>
      </trkpt>
      <trkpt lat="47.90656" lon="-3.84176">
        <ele>92.1</ele>
        <time>2023-04-05T08:38:16Z</time>
      </trkpt>
      <trkpt lat="47.90656" lon="-3.84168">
        <ele>92.2</ele>
        <time>2023-04-05T08:38:17Z</time>
      </trkpt>
      <trkpt lat="47.90655" lon="-3.84159">
        <ele>92.3</ele>
        <time>2023-04-05T08:38:18Z</time>
      </trkpt>
      <trkpt lat="47.90654" lon="-3.84151">
        <ele>92.4</ele>
        <time>2023-04-05T08:38:19Z</time>
      </trkpt>
      <trkpt lat="47.90653" lon="-3.84143">
        <ele>92.5</ele>
        <time>2023-04-05T08:38:20Z</time>
      </trkpt>
      <trkpt lat="47.90652" lon="-3.84135">
        <ele>92.7</ele>
        <time>2023-04-05T08:38:21Z</time>
      </trkpt>
      <trkpt lat="47.9065" lon="-3.84127">
        <ele>92.8</ele>
        <time>2023-04-05T08:38:22Z</time>
      </trkpt>
      <trkpt lat="47.90648" lon="-3.84119">
        <ele>92.9</ele>
        <time>2023-04-05T08:38:23Z</time>
      </trkpt>
      <trkpt lat="47.90647" lon="-3.84111">
        <ele>93.1</ele>
        <time>2023-04-05T08:38:24Z</time>
      </trkpt>
      <trkpt lat="47.90645" lon="-3.84103">
        <ele>93.2</ele>
        <time>2023-04-05T08:38:25Z</time>
      </trkpt>
      <trkpt lat="47.90643" lon="-3.84096">
        <ele>93.4</ele>
        <time>2023-04-05T08:38:26Z</time>
      </trkpt>
      <trkpt lat="47.90642" lon="-3.84088">
        <ele>93.6</ele>
        <time>2023-04-05T08:38:27Z</time>
      </trkpt>
      <trkpt lat="47.9064" lon="-3.84081">
        <ele>93.7</ele>
        <time>2023-04-05T08:38:28Z</time>
      </trkpt>
      <trkpt lat="47.90638" lon="-3.84073">
        <ele>93.9</ele>
        <time>2023-04-05T08:38:29Z</time>
      </trkpt>
      <trkpt lat="47.90637" lon="-3.84066">
        <ele>94.1</ele>
        <time>2023-04-05T08:38:30Z</time>
      </trkpt>
      <trkpt lat="47.90636" lon="-3.84059">
        <ele>94.3</ele>
        <time>2023-04-05T08:38:31Z</time>
      </trkpt>
      <trkpt lat="47.90634" lon="-3.84051">
        <ele>94.5</ele>
        <time>2023-04-05T08:38:32Z</time>
      </trkpt>
      <trkpt lat="47.90633" lon="-3.84044">
        <ele>94.7</ele>
        <time>2023-04-05T08:38:33Z</time>
      </trkpt>
      <trkpt lat="47.90631" lon="-3.84036">
        <ele>94.9</ele>
        <time>2023-04-05T08:38:34Z</time>
      </trkpt>
      <trkpt lat="47.9063" lon="-3.84029">
        <ele>95.1</ele>
        <time>2023-04-05T08:38:35Z</time>
      </trkpt>
      <trkpt lat="47.90629" lon="-3.84021">
        <ele>95.4</ele>
        <time>2023-04-05T08:38:36Z</time>
      </trkpt>
      <trkpt lat="47.90628" lon="-3.84014">
        <ele>95.6</ele>
        <time>2023-04-05T08:38:37Z</time>
      </trkpt>
      <trkpt lat="47.90627" lon="-3.84006">
        <ele>95.8</ele>
        <time>2023-04-05T08:38:38Z</time>
      </trkpt>
      <trkpt lat="47.90626" lon="-3.83999">
        <ele>96</ele>
        <time>2023-04-05T08:38:39Z</time>
      </trkpt>
      <trkpt lat="47.90626" lon="-3.83992">
        <ele>96.2</ele>
        <time>2023-04-05T08:38:40Z</time>
      </trkpt>
      <trkpt lat="47.90625" lon="-3.83985">
        <ele>96.4</ele>
        <time>2023-04-05T08:38:41Z</time>
      </trkpt>
      <trkpt lat="47.90625" lon="-3.83978">
        <ele>96.6</ele>
        <time>2023-04-05T08:38:42Z</time>
      </trkpt>
      <trkpt lat="47.90625" lon="-3.83971">
        <ele>96.7</ele>
        <time>2023-04-05T08:38:43Z</time>
      </trkpt>
      <trkpt lat="47.90624" lon="-3.83964">
        <ele>96.9</ele>
        <time>2023-04-05T08:38:44Z</time>
      </trkpt>
      <trkpt lat="47.90623" lon="-3.83957">
        <ele>97</ele>
        <time>2023-04-05T08:38:45Z</time>
      </trkpt>
      <trkpt lat="47.90623" lon="-3.8395">
        <ele>97.2</ele>
        <time>2023-04-05T08:38:46Z</time>
      </trkpt>
      <trkpt lat="47.90624" lon="-3.83943">
        <ele>97.3</ele>
        <time>2023-04-05T08:38:47Z</time>
      </trkpt>
      <trkpt lat="47.90624" lon="-3.83936">
        <ele>97.3</ele>
        <time>2023-04-05T08:38:48Z</time>
      </trkpt>
      <trkpt lat="47.90624" lon="-3.8393">
        <ele>97.4</ele>
        <time>2023-04-05T08:38:49Z</time>
      </trkpt>
      <trkpt lat="47.90625" lon="-3.83923">
        <ele>97.4</ele>
        <time>2023-04-05T08:38:50Z</time>
      </trkpt>
      <trkpt lat="47.90625" lon="-3.83916">
        <ele>97.5</ele>
        <time>2023-04-05T08:38:51Z</time>
      </trkpt>
      <trkpt lat="47.90625" lon="-3.83909">
        <ele>97.5</ele>
        <time>2023-04-05T08:38:52Z</time>
      </trkpt>
      <trkpt lat="47.90626" lon="-3.83901">
        <ele>97.5</ele>
        <time>2023-04-05T08:38:53Z</time>
      </trkpt>
      <trkpt lat="47.90626" lon="-3.83894">
        <ele>97.5</ele>
        <time>2023-04-05T08:38:54Z</time>
      </trkpt>
      <trkpt lat="47.90627" lon="-3.83887">
        <ele>97.5</ele>
        <time>2023-04-05T08:38:55Z</time>
      </trkpt>
      <trkpt lat="47.90628" lon="-3.8388">
        <ele>97.5</ele>
        <time>2023-04-05T08:38:56Z</time>
      </trkpt>
      <trkpt lat="47.9063" lon="-3.83872">
        <ele>97.4</ele>
        <time>2023-04-05T08:38:57Z</time>
      </trkpt>
      <trkpt lat="47.90632" lon="-3.83865">
        <ele>97.4</ele>
        <time>2023-04-05T08:38:58Z</time>
      </trkpt>
      <trkpt lat="47.90634" lon="-3.83858">
        <ele>97.3</ele>
        <time>2023-04-05T08:38:59Z</time>
      </trkpt>
      <trkpt lat="47.90636" lon="-3.83851">
        <ele>97.3</ele>
        <time>2023-04-05T08:39:00Z</time>
      </trkpt>
      <trkpt lat="47.90638" lon="-3.83843">
        <ele>97.2</ele>
        <time>2023-04-05T08:39:01Z</time>
      </trkpt>
      <trkpt lat="47.9064" lon="-3.83835">
        <ele>97.1</ele>
        <time>2023-04-05T08:39:02Z</time>
      </trkpt>
      <trkpt lat="47.90642" lon="-3.83828">
        <ele>97</ele>
        <time>2023-04-05T08:39:03Z</time>
      </trkpt>
      <trkpt lat="47.90644" lon="-3.8382">
        <ele>97</ele>
        <time>2023-04-05T08:39:04Z</time>
      </trkpt>
      <trkpt lat="47.90646" lon="-3.83813">
        <ele>96.9</ele>
        <time>2023-04-05T08:39:05Z</time>
      </trkpt>
      <trkpt lat="47.90648" lon="-3.83805">
        <ele>96.8</ele>
        <time>2023-04-05T08:39:06Z</time>
      </trkpt>
      <trkpt lat="47.9065" lon="-3.83797">
        <ele>96.8</ele>
        <time>2023-04-05T08:39:07Z</time>
      </trkpt>
      <trkpt lat="47.90652" lon="-3.83789">
        <ele>96.7</ele>
        <time>2023-04-05T08:39:08Z</time>
      </trkpt>
      <trkpt lat="47.90653" lon="-3.83781">
        <ele>96.6</ele>
        <time>2023-04-05T08:39:09Z</time>
      </trkpt>
      <trkpt lat="47.90654" lon="-3.83774">
        <ele>96.6</ele>
        <time>2023-04-05T08:39:10Z</time>
      </trkpt>
      <trkpt lat="47.90655" lon="-3.83766">
        <ele>96.5</ele>
        <time>2023-04-05T08:39:11Z</time>
      </trkpt>
      <trkpt lat="47.90656" lon="-3.83757">
        <ele>96.4</ele>
        <time>2023-04-05T08:39:12Z</time>
      </trkpt>
      <trkpt lat="47.90656" lon="-3.83748">
        <ele>96.4</ele>
        <time>2023-04-05T08:39:13Z</time>
      </trkpt>
      <trkpt lat="47.90656" lon="-3.8374">
        <ele>96.3</ele>
        <time>2023-04-05T08:39:14Z</time>
      </trkpt>
      <trkpt lat="47.90657" lon="-3.83732">
        <ele>96.2</ele>
        <time>2023-04-05T08:39:15Z</time>
      </trkpt>
      <trkpt lat="47.90657" lon="-3.83723">
        <ele>96.1</ele>
        <time>2023-04-05T08:39:16Z</time>
      </trkpt>
      <trkpt lat="47.90658" lon="-3.83714">
        <ele>96</ele>
        <time>2023-04-05T08:39:17Z</time>
      </trkpt>
      <trkpt lat="47.90658" lon="-3.83705">
        <ele>96</ele>
        <time>2023-04-05T08:39:18Z</time>
      </trkpt>
      <trkpt lat="47.90659" lon="-3.83697">
        <ele>95.9</ele>
        <time>2023-04-05T08:39:19Z</time>
      </trkpt>
      <trkpt lat="47.90659" lon="-3.83688">
        <ele>95.9</ele>
        <time>2023-04-05T08:39:20Z</time>
      </trkpt>
      <trkpt lat="47.90659" lon="-3.8368">
        <ele>95.9</ele>
        <time>2023-04-05T08:39:21Z</time>
      </trkpt>
      <trkpt lat="47.90659" lon="-3.83671">
        <ele>95.9</ele>
        <time>2023-04-05T08:39:22Z</time>
      </trkpt>
      <trkpt lat="47.90657" lon="-3.83664">
        <ele>95.9</ele>
        <time>2023-04-05T08:39:23Z</time>
      </trkpt>
      <trkpt lat="47.90655" lon="-3.83656">
        <ele>95.9</ele>
        <time>2023-04-05T08:39:24Z</time>
      </trkpt>
      <trkpt lat="47.90656" lon="-3.8365">
        <ele>95.7</ele>
        <time>2023-04-05T08:39:25Z</time>
      </trkpt>
      <trkpt lat="47.9066" lon="-3.83647">
        <ele>95.6</ele>
        <time>2023-04-05T08:39:26Z</time>
      </trkpt>
      <trkpt lat="47.90665" lon="-3.83646">
        <ele>95.5</ele>
        <time>2023-04-05T08:39:27Z</time>
      </trkpt>
      <trkpt lat="47.90672" lon="-3.83646">
        <ele>95.4</ele>
        <time>2023-04-05T08:39:28Z</time>
      </trkpt>
      <trkpt lat="47.90678" lon="-3.83645">
        <ele>95.2</ele>
        <time>2023-04-05T08:39:29Z</time>
      </trkpt>
      <trkpt lat="47.90684" lon="-3.83643">
        <ele>95.1</ele>
        <time>2023-04-05T08:39:30Z</time>
      </trkpt>
      <trkpt lat="47.9069" lon="-3.83642">
        <ele>95</ele>
        <time>2023-04-05T08:39:31Z</time>
      </trkpt>
      <trkpt lat="47.90696" lon="-3.83641">
        <ele>95</ele>
        <time>2023-04-05T08:39:32Z</time>
      </trkpt>
      <trkpt lat="47.90702" lon="-3.83641">
        <ele>94.9</ele>
        <time>2023-04-05T08:39:33Z</time>
      </trkpt>
      <trkpt lat="47.90708" lon="-3.83642">
        <ele>94.9</ele>
        <time>2023-04-05T08:39:34Z</time>
      </trkpt>
      <trkpt lat="47.90714" lon="-3.83644">
        <ele>94.9</ele>
        <time>2023-04-05T08:39:35Z</time>
      </trkpt>
      <trkpt lat="47.9072" lon="-3.83648">
        <ele>94.9</ele>
        <time>2023-04-05T08:39:36Z</time>
      </trkpt>
      <trkpt lat="47.90725" lon="-3.83651">
        <ele>94.9</ele>
        <time>2023-04-05T08:39:37Z</time>
      </trkpt>
      <trkpt lat="47.9073" lon="-3.83655">
        <ele>94.9</ele>
        <time>2023-04-05T08:39:38Z</time>
      </trkpt>
      <trkpt lat="47.90736" lon="-3.83659">
        <ele>94.8</ele>
        <time>2023-04-05T08:39:39Z</time>
      </trkpt>
      <trkpt lat="47.90741" lon="-3.83663">
        <ele>94.8</ele>
        <time>2023-04-05T08:39:40Z</time>
      </trkpt>
      <trkpt lat="47.90747" lon="-3.83667">
        <ele>94.8</ele>
        <time>2023-04-05T08:39:41Z</time>
      </trkpt>
      <trkpt lat="47.90752" lon="-3.83672">
        <ele>94.7</ele>
        <time>2023-04-05T08:39:42Z</time>
      </trkpt>
      <trkpt lat="47.90757" lon="-3.83677">
        <ele>94.7</ele>
        <time>2023-04-05T08:39:43Z</time>
      </trkpt>
      <trkpt lat="47.90762" lon="-3.83682">
        <ele>94.7</ele>
        <time>2023-04-05T08:39:44Z</time>
      </trkpt>
      <trkpt lat="47.90768" lon="-3.83686">
        <ele>94.7</ele>
        <time>2023-04-05T08:39:45Z</time>
      </trkpt>
      <trkpt lat="47.90773" lon="-3.83692">
        <ele>94.7</ele>
        <time>2023-04-05T08:39:46Z</time>
      </trkpt>
      <trkpt lat="47.90778" lon="-3.83697">
        <ele>94.7</ele>
        <time>2023-04-05T08:39:47Z</time>
      </trkpt>
      <trkpt lat="47.90783" lon="-3.83702">
        <ele>94.7</ele>
        <time>2023-04-05T08:39:48Z</time>
      </trkpt>
      <trkpt lat="47.90788" lon="-3.83707">
        <ele>94.7</ele>
        <time>2023-04-05T08:39:49Z</time>
      </trkpt>
      <trkpt lat="47.90793" lon="-3.83713">
        <ele>94.7</ele>
        <time>2023-04-05T08:39:50Z</time>
      </trkpt>
      <trkpt lat="47.90798" lon="-3.83718">
        <ele>94.7</ele>
        <time>2023-04-05T08:39:51Z</time>
      </trkpt>
      <trkpt lat="47.90802" lon="-3.83724">
        <ele>94.7</ele>
        <time>2023-04-05T08:39:52Z</time>
      </trkpt>
      <trkpt lat="47.90807" lon="-3.83729">
        <ele>94.7</ele>
        <time>2023-04-05T08:39:53Z</time>
      </trkpt>
      <trkpt lat="47.90812" lon="-3.83735">
        <ele>94.7</ele>
        <time>2023-04-05T08:39:54Z</time>
      </trkpt>
      <trkpt lat="47.90816" lon="-3.83741">
        <ele>94.8</ele>
        <time>2023-04-05T08:39:55Z</time>
      </trkpt>
      <trkpt lat="47.90821" lon="-3.83747">
        <ele>94.8</ele>
        <time>2023-04-05T08:39:56Z</time>
      </trkpt>
      <trkpt lat="47.90826" lon="-3.83752">
        <ele>94.8</ele>
        <time>2023-04-05T08:39:57Z</time>
      </trkpt>
      <trkpt lat="47.9083" lon="-3.83758">
        <ele>94.9</ele>
        <time>2023-04-05T08:39:58Z</time>
      </trkpt>
      <trkpt lat="47.90835" lon="-3.83763">
        <ele>94.9</ele>
        <time>2023-04-05T08:39:59Z</time>
      </trkpt>
      <trkpt lat="47.9084" lon="-3.83769">
        <ele>95</ele>
        <time>2023-04-05T08:40:00Z</time>
      </trkpt>
      <trkpt lat="47.90845" lon="-3.83775">
        <ele>95</ele>
        <time>2023-04-05T08:40:01Z</time>
      </trkpt>
      <trkpt lat="47.90849" lon="-3.83781">
        <ele>95</ele>
        <time>2023-04-05T08:40:02Z</time>
      </trkpt>
      <trkpt lat="47.90854" lon="-3.83786">
        <ele>95</ele>
        <time>2023-04-05T08:40:03Z</time>
      </trkpt>
      <trkpt lat="47.90858" lon="-3.83792">
        <ele>95.1</ele>
        <time>2023-04-05T08:40:04Z</time>
      </trkpt>
      <trkpt lat="47.90862" lon="-3.83798">
        <ele>95.1</ele>
        <time>2023-04-05T08:40:05Z</time>
      </trkpt>
      <trkpt lat="47.90866" lon="-3.83803">
        <ele>95.1</ele>
        <time>2023-04-05T08:40:06Z</time>
      </trkpt>
      <trkpt lat="47.90871" lon="-3.83809">
        <ele>95.1</ele>
        <time>2023-04-05T08:40:07Z</time>
      </trkpt>
      <trkpt lat="47.90875" lon="-3.83814">
        <ele>95.1</ele>
        <time>2023-04-05T08:40:08Z</time>
      </trkpt>
      <trkpt lat="47.9088" lon="-3.83819">
        <ele>95.2</ele>
        <time>2023-04-05T08:40:09Z</time>
      </trkpt>
      <trkpt lat="47.90885" lon="-3.83825">
        <ele>95.2</ele>
        <time>2023-04-05T08:40:10Z</time>
      </trkpt>
      <trkpt lat="47.90889" lon="-3.8383">
        <ele>95.2</ele>
        <time>2023-04-05T08:40:11Z</time>
      </trkpt>
      <trkpt lat="47.90894" lon="-3.83835">
        <ele>95.2</ele>
        <time>2023-04-05T08:40:12Z</time>
      </trkpt>
      <trkpt lat="47.90899" lon="-3.83841">
        <ele>95.3</ele>
        <time>2023-04-05T08:40:13Z</time>
      </trkpt>
      <trkpt lat="47.90903" lon="-3.83846">
        <ele>95.3</ele>
        <time>2023-04-05T08:40:14Z</time>
      </trkpt>
      <trkpt lat="47.90908" lon="-3.8385">
        <ele>95.3</ele>
        <time>2023-04-05T08:40:15Z</time>
      </trkpt>
      <trkpt lat="47.90913" lon="-3.83855">
        <ele>95.3</ele>
        <time>2023-04-05T08:40:16Z</time>
      </trkpt>
      <trkpt lat="47.90917" lon="-3.83861">
        <ele>95.3</ele>
        <time>2023-04-05T08:40:17Z</time>
      </trkpt>
      <trkpt lat="47.90922" lon="-3.83866">
        <ele>95.3</ele>
        <time>2023-04-05T08:40:18Z</time>
      </trkpt>
      <trkpt lat="47.90927" lon="-3.83871">
        <ele>95.3</ele>
        <time>2023-04-05T08:40:19Z</time>
      </trkpt>
      <trkpt lat="47.90931" lon="-3.83876">
        <ele>95.3</ele>
        <time>2023-04-05T08:40:20Z</time>
      </trkpt>
      <trkpt lat="47.90936" lon="-3.83881">
        <ele>95.3</ele>
        <time>2023-04-05T08:40:21Z</time>
      </trkpt>
      <trkpt lat="47.90941" lon="-3.83886">
        <ele>95.3</ele>
        <time>2023-04-05T08:40:22Z</time>
      </trkpt>
      <trkpt lat="47.90946" lon="-3.83891">
        <ele>95.3</ele>
        <time>2023-04-05T08:40:23Z</time>
      </trkpt>
      <trkpt lat="47.9095" lon="-3.83896">
        <ele>95.4</ele>
        <time>2023-04-05T08:40:24Z</time>
      </trkpt>
      <trkpt lat="47.90955" lon="-3.83901">
        <ele>95.4</ele>
        <time>2023-04-05T08:40:25Z</time>
      </trkpt>
      <trkpt lat="47.9096" lon="-3.83906">
        <ele>95.4</ele>
        <time>2023-04-05T08:40:26Z</time>
      </trkpt>
      <trkpt lat="47.90965" lon="-3.8391">
        <ele>95.4</ele>
        <time>2023-04-05T08:40:27Z</time>
      </trkpt>
      <trkpt lat="47.9097" lon="-3.83915">
        <ele>95.4</ele>
        <time>2023-04-05T08:40:28Z</time>
      </trkpt>
      <trkpt lat="47.90974" lon="-3.8392">
        <ele>95.5</ele>
        <time>2023-04-05T08:40:29Z</time>
      </trkpt>
      <trkpt lat="47.90979" lon="-3.83925">
        <ele>95.5</ele>
        <time>2023-04-05T08:40:30Z</time>
      </trkpt>
      <trkpt lat="47.90984" lon="-3.8393">
        <ele>95.6</ele>
        <time>2023-04-05T08:40:31Z</time>
      </trkpt>
      <trkpt lat="47.90988" lon="-3.83935">
        <ele>95.6</ele>
        <time>2023-04-05T08:40:32Z</time>
      </trkpt>
      <trkpt lat="47.90993" lon="-3.8394">
        <ele>95.6</ele>
        <time>2023-04-05T08:40:33Z</time>
      </trkpt>
      <trkpt lat="47.90998" lon="-3.83945">
        <ele>95.7</ele>
        <time>2023-04-05T08:40:34Z</time>
      </trkpt>
      <trkpt lat="47.91002" lon="-3.83951">
        <ele>95.7</ele>
        <time>2023-04-05T08:40:35Z</time>
      </trkpt>
      <trkpt lat="47.91007" lon="-3.83956">
        <ele>95.7</ele>
        <time>2023-04-05T08:40:36Z</time>
      </trkpt>
      <trkpt lat="47.91012" lon="-3.83961">
        <ele>95.7</ele>
        <time>2023-04-05T08:40:37Z</time>
      </trkpt>
      <trkpt lat="47.91017" lon="-3.83966">
        <ele>95.7</ele>
        <time>2023-04-05T08:40:38Z</time>
      </trkpt>
      <trkpt lat="47.91021" lon="-3.83972">
        <ele>95.7</ele>
        <time>2023-04-05T08:40:39Z</time>
      </trkpt>
      <trkpt lat="47.91026" lon="-3.83977">
        <ele>95.7</ele>
        <time>2023-04-05T08:40:40Z</time>
      </trkpt>
      <trkpt lat="47.91031" lon="-3.83983">
        <ele>95.7</ele>
        <time>2023-04-05T08:40:41Z</time>
      </trkpt>
      <trkpt lat="47.91036" lon="-3.83988">
        <ele>95.7</ele>
        <time>2023-04-05T08:40:42Z</time>
      </trkpt>
      <trkpt lat="47.9104" lon="-3.83992">
        <ele>95.7</ele>
        <time>2023-04-05T08:40:43Z</time>
      </trkpt>
      <trkpt lat="47.91045" lon="-3.83997">
        <ele>95.8</ele>
        <time>2023-04-05T08:40:44Z</time>
      </trkpt>
      <trkpt lat="47.9105" lon="-3.84002">
        <ele>95.8</ele>
        <time>2023-04-05T08:40:45Z</time>
      </trkpt>
      <trkpt lat="47.91055" lon="-3.84007">
        <ele>95.9</ele>
        <time>2023-04-05T08:40:46Z</time>
      </trkpt>
      <trkpt lat="47.9106" lon="-3.84012">
        <ele>95.9</ele>
        <time>2023-04-05T08:40:47Z</time>
      </trkpt>
      <trkpt lat="47.91064" lon="-3.84017">
        <ele>95.9</ele>
        <time>2023-04-05T08:40:48Z</time>
      </trkpt>
      <trkpt lat="47.91069" lon="-3.84022">
        <ele>96</ele>
        <time>2023-04-05T08:40:49Z</time>
      </trkpt>
      <trkpt lat="47.91074" lon="-3.84027">
        <ele>96</ele>
        <time>2023-04-05T08:40:50Z</time>
      </trkpt>
      <trkpt lat="47.91078" lon="-3.84032">
        <ele>96.1</ele>
        <time>2023-04-05T08:40:51Z</time>
      </trkpt>
      <trkpt lat="47.91083" lon="-3.84038">
        <ele>96.1</ele>
        <time>2023-04-05T08:40:52Z</time>
      </trkpt>
      <trkpt lat="47.91088" lon="-3.84042">
        <ele>96.1</ele>
        <time>2023-04-05T08:40:53Z</time>
      </trkpt>
      <trkpt lat="47.91092" lon="-3.84047">
        <ele>96.1</ele>
        <time>2023-04-05T08:40:54Z</time>
      </trkpt>
      <trkpt lat="47.91097" lon="-3.84053">
        <ele>96.1</ele>
        <time>2023-04-05T08:40:55Z</time>
      </trkpt>
      <trkpt lat="47.91102" lon="-3.84058">
        <ele>96.1</ele>
        <time>2023-04-05T08:40:56Z</time>
      </trkpt>
      <trkpt lat="47.91106" lon="-3.84063">
        <ele>96.1</ele>
        <time>2023-04-05T08:40:57Z</time>
      </trkpt>
      <trkpt lat="47.91111" lon="-3.84067">
        <ele>96.1</ele>
        <time>2023-04-05T08:40:58Z</time>
      </trkpt>
      <trkpt lat="47.91116" lon="-3.84071">
        <ele>96</ele>
        <time>2023-04-05T08:40:59Z</time>
      </trkpt>
      <trkpt lat="47.91121" lon="-3.84075">
        <ele>96</ele>
        <time>2023-04-05T08:41:00Z</time>
      </trkpt>
      <trkpt lat="47.91126" lon="-3.84079">
        <ele>96</ele>
        <time>2023-04-05T08:41:01Z</time>
      </trkpt>
      <trkpt lat="47.91132" lon="-3.84083">
        <ele>96</ele>
        <time>2023-04-05T08:41:02Z</time>
      </trkpt>
      <trkpt lat="47.91137" lon="-3.84087">
        <ele>95.9</ele>
        <time>2023-04-05T08:41:03Z</time>
      </trkpt>
      <trkpt lat="47.91142" lon="-3.84091">
        <ele>95.9</ele>
        <time>2023-04-05T08:41:04Z</time>
      </trkpt>
      <trkpt lat="47.91148" lon="-3.84095">
        <ele>95.9</ele>
        <time>2023-04-05T08:41:05Z</time>
      </trkpt>
      <trkpt lat="47.91153" lon="-3.84099">
        <ele>95.8</ele>
        <time>2023-04-05T08:41:06Z</time>
      </trkpt>
      <trkpt lat="47.91159" lon="-3.84102">
        <ele>95.8</ele>
        <time>2023-04-05T08:41:07Z</time>
      </trkpt>
      <trkpt lat="47.91164" lon="-3.84105">
        <ele>95.7</ele>
        <time>2023-04-05T08:41:08Z</time>
      </trkpt>
      <trkpt lat="47.9117" lon="-3.84109">
        <ele>95.7</ele>
        <time>2023-04-05T08:41:09Z</time>
      </trkpt>
      <trkpt lat="47.91176" lon="-3.84112">
        <ele>95.6</ele>
        <time>2023-04-05T08:41:10Z</time>
      </trkpt>
      <trkpt lat="47.91182" lon="-3.84115">
        <ele>95.5</ele>
        <time>2023-04-05T08:41:11Z</time>
      </trkpt>
      <trkpt lat="47.91188" lon="-3.84118">
        <ele>95.5</ele>
        <time>2023-04-05T08:41:12Z</time>
      </trkpt>
      <trkpt lat="47.91195" lon="-3.84121">
        <ele>95.4</ele>
        <time>2023-04-05T08:41:13Z</time>
      </trkpt>
      <trkpt lat="47.91201" lon="-3.84124">
        <ele>95.3</ele>
        <time>2023-04-05T08:41:14Z</time>
      </trkpt>
      <trkpt lat="47.91207" lon="-3.84127">
        <ele>95.3</ele>
        <time>2023-04-05T08:41:15Z</time>
      </trkpt>
      <trkpt lat="47.91214" lon="-3.84129">
        <ele>95.2</ele>
        <time>2023-04-05T08:41:16Z</time>
      </trkpt>
      <trkpt lat="47.91221" lon="-3.84131">
        <ele>95.2</ele>
        <time>2023-04-05T08:41:17Z</time>
      </trkpt>
      <trkpt lat="47.91227" lon="-3.84132">
        <ele>95.1</ele>
        <time>2023-04-05T08:41:18Z</time>
      </trkpt>
      <trkpt lat="47.91234" lon="-3.84133">
        <ele>95.1</ele>
        <time>2023-04-05T08:41:19Z</time>
      </trkpt>
      <trkpt lat="47.91241" lon="-3.84135">
        <ele>95.1</ele>
        <time>2023-04-05T08:41:20Z</time>
      </trkpt>
      <trkpt lat="47.91247" lon="-3.84136">
        <ele>95.1</ele>
        <time>2023-04-05T08:41:21Z</time>
      </trkpt>
      <trkpt lat="47.91254" lon="-3.84137">
        <ele>95.1</ele>
        <time>2023-04-05T08:41:22Z</time>
      </trkpt>
      <trkpt lat="47.9126" lon="-3.84138">
        <ele>95.2</ele>
        <time>2023-04-05T08:41:23Z</time>
      </trkpt>
      <trkpt lat="47.91267" lon="-3.84139">
        <ele>95.2</ele>
        <time>2023-04-05T08:41:24Z</time>
      </trkpt>
      <trkpt lat="47.91273" lon="-3.84139">
        <ele>95.3</ele>
        <time>2023-04-05T08:41:25Z</time>
      </trkpt>
      <trkpt lat="47.91279" lon="-3.8414">
        <ele>95.3</ele>
        <time>2023-04-05T08:41:26Z</time>
      </trkpt>
      <trkpt lat="47.91285" lon="-3.8414">
        <ele>95.4</ele>
        <time>2023-04-05T08:41:27Z</time>
      </trkpt>
      <trkpt lat="47.91291" lon="-3.84141">
        <ele>95.4</ele>
        <time>2023-04-05T08:41:28Z</time>
      </trkpt>
      <trkpt lat="47.91297" lon="-3.84141">
        <ele>95.5</ele>
        <time>2023-04-05T08:41:29Z</time>
      </trkpt>
      <trkpt lat="47.91303" lon="-3.84141">
        <ele>95.6</ele>
        <time>2023-04-05T08:41:30Z</time>
      </trkpt>
      <trkpt lat="47.91308" lon="-3.84142">
        <ele>95.7</ele>
        <time>2023-04-05T08:41:31Z</time>
      </trkpt>
      <trkpt lat="47.91314" lon="-3.84142">
        <ele>95.8</ele>
        <time>2023-04-05T08:41:32Z</time>
      </trkpt>
      <trkpt lat="47.91319" lon="-3.84143">
        <ele>95.8</ele>
        <time>2023-04-05T08:41:33Z</time>
      </trkpt>
      <trkpt lat="47.91325" lon="-3.84144">
        <ele>95.9</ele>
        <time>2023-04-05T08:41:34Z</time>
      </trkpt>
      <trkpt lat="47.9133" lon="-3.84145">
        <ele>96</ele>
        <time>2023-04-05T08:41:35Z</time>
      </trkpt>
      <trkpt lat="47.91335" lon="-3.84146">
        <ele>96.1</ele>
        <time>2023-04-05T08:41:36Z</time>
      </trkpt>
      <trkpt lat="47.9134" lon="-3.84146">
        <ele>96.3</ele>
        <time>2023-04-05T08:41:37Z</time>
      </trkpt>
      <trkpt lat="47.91345" lon="-3.84147">
        <ele>96.4</ele>
        <time>2023-04-05T08:41:38Z</time>
      </trkpt>
      <trkpt lat="47.91351" lon="-3.84148">
        <ele>96.5</ele>
        <time>2023-04-05T08:41:39Z</time>
      </trkpt>
      <trkpt lat="47.91356" lon="-3.84148">
        <ele>96.7</ele>
        <time>2023-04-05T08:41:40Z</time>
      </trkpt>
      <trkpt lat="47.91361" lon="-3.84149">
        <ele>96.8</ele>
        <time>2023-04-05T08:41:41Z</time>
      </trkpt>
      <trkpt lat="47.91366" lon="-3.8415">
        <ele>97</ele>
        <time>2023-04-05T08:41:42Z</time>
      </trkpt>
      <trkpt lat="47.91371" lon="-3.84151">
        <ele>97.1</ele>
        <time>2023-04-05T08:41:43Z</time>
      </trkpt>
      <trkpt lat="47.91375" lon="-3.84151">
        <ele>97.3</ele>
        <time>2023-04-05T08:41:44Z</time>
      </trkpt>
      <trkpt lat="47.9138" lon="-3.84152">
        <ele>97.4</ele>
        <time>2023-04-05T08:41:45Z</time>
      </trkpt>
      <trkpt lat="47.91385" lon="-3.84153">
        <ele>97.6</ele>
        <time>2023-04-05T08:41:46Z</time>
      </trkpt>
      <trkpt lat="47.9139" lon="-3.84154">
        <ele>97.7</ele>
        <time>2023-04-05T08:41:47Z</time>
      </trkpt>
      <trkpt lat="47.91395" lon="-3.84154">
        <ele>97.8</ele>
        <time>2023-04-05T08:41:48Z</time>
      </trkpt>
      <trkpt lat="47.91399" lon="-3.84155">
        <ele>97.9</ele>
        <time>2023-04-05T08:41:49Z</time>
      </trkpt>
      <trkpt lat="47.91404" lon="-3.84156">
        <ele>98.1</ele>
        <time>2023-04-05T08:41:50Z</time>
      </trkpt>
      <trkpt lat="47.91409" lon="-3.84156">
        <ele>98.2</ele>
        <time>2023-04-05T08:41:51Z</time>
      </trkpt>
      <trkpt lat="47.91414" lon="-3.84157">
        <ele>98.4</ele>
        <time>2023-04-05T08:41:52Z</time>
      </trkpt>
      <trkpt lat="47.91419" lon="-3.84157">
        <ele>98.5</ele>
        <time>2023-04-05T08:41:53Z</time>
      </trkpt>
      <trkpt lat="47.91424" lon="-3.84158">
        <ele>98.7</ele>
        <time>2023-04-05T08:41:54Z</time>
      </trkpt>
      <trkpt lat="47.91428" lon="-3.84159">
        <ele>98.8</ele>
        <time>2023-04-05T08:41:55Z</time>
      </trkpt>
      <trkpt lat="47.91433" lon="-3.8416">
        <ele>99</ele>
        <time>2023-04-05T08:41:56Z</time>
      </trkpt>
      <trkpt lat="47.91438" lon="-3.8416">
        <ele>99.1</ele>
        <time>2023-04-05T08:41:57Z</time>
      </trkpt>
      <trkpt lat="47.91444" lon="-3.84161">
        <ele>99.2</ele>
        <time>2023-04-05T08:41:58Z</time>
      </trkpt>
      <trkpt lat="47.91449" lon="-3.84161">
        <ele>99.3</ele>
        <time>2023-04-05T08:41:59Z</time>
      </trkpt>
      <trkpt lat="47.91454" lon="-3.84162">
        <ele>99.5</ele>
        <time>2023-04-05T08:42:00Z</time>
      </trkpt>
      <trkpt lat="47.91459" lon="-3.84162">
        <ele>99.6</ele>
        <time>2023-04-05T08:42:01Z</time>
      </trkpt>
      <trkpt lat="47.91464" lon="-3.84163">
        <ele>99.6</ele>
        <time>2023-04-05T08:42:02Z</time>
      </trkpt>
      <trkpt lat="47.91469" lon="-3.84164">
        <ele>99.7</ele>
        <time>2023-04-05T08:42:03Z</time>
      </trkpt>
      <trkpt lat="47.91474" lon="-3.84165">
        <ele>99.8</ele>
        <time>2023-04-05T08:42:04Z</time>
      </trkpt>
      <trkpt lat="47.91479" lon="-3.84166">
        <ele>99.9</ele>
        <time>2023-04-05T08:42:05Z</time>
      </trkpt>
      <trkpt lat="47.91484" lon="-3.84166">
        <ele>100</ele>
        <time>2023-04-05T08:42:06Z</time>
      </trkpt>
      <trkpt lat="47.9149" lon="-3.84167">
        <ele>100.1</ele>
        <time>2023-04-05T08:42:07Z</time>
      </trkpt>
      <trkpt lat="47.91495" lon="-3.84168">
        <ele>100.1</ele>
        <time>2023-04-05T08:42:08Z</time>
      </trkpt>
      <trkpt lat="47.915" lon="-3.84169">
        <ele>100.2</ele>
        <time>2023-04-05T08:42:09Z</time>
      </trkpt>
      <trkpt lat="47.91505" lon="-3.8417">
        <ele>100.3</ele>
        <time>2023-04-05T08:42:10Z</time>
      </trkpt>
      <trkpt lat="47.9151" lon="-3.8417">
        <ele>100.3</ele>
        <time>2023-04-05T08:42:11Z</time>
      </trkpt>
      <trkpt lat="47.91515" lon="-3.84171">
        <ele>100.4</ele>
        <time>2023-04-05T08:42:12Z</time>
      </trkpt>
      <trkpt lat="47.9152" lon="-3.84172">
        <ele>100.4</ele>
        <time>2023-04-05T08:42:13Z</time>
      </trkpt>
      <trkpt lat="47.91525" lon="-3.84173">
        <ele>100.4</ele>
        <time>2023-04-05T08:42:14Z</time>
      </trkpt>
      <trkpt lat="47.9153" lon="-3.84173">
        <ele>100.4</ele>
        <time>2023-04-05T08:42:15Z</time>
      </trkpt>
      <trkpt lat="47.91535" lon="-3.84174">
        <ele>100.4</ele>
        <time>2023-04-05T08:42:16Z</time>
      </trkpt>
      <trkpt lat="47.9154" lon="-3.84175">
        <ele>100.5</ele>
        <time>2023-04-05T08:42:17Z</time>
      </trkpt>
      <trkpt lat="47.91545" lon="-3.84176">
        <ele>100.5</ele>
        <time>2023-04-05T08:42:18Z</time>
      </trkpt>
      <trkpt lat="47.91551" lon="-3.84177">
        <ele>100.5</ele>
        <time>2023-04-05T08:42:19Z</time>
      </trkpt>
      <trkpt lat="47.91556" lon="-3.84177">
        <ele>100.5</ele>
        <time>2023-04-05T08:42:20Z</time>
      </trkpt>
      <trkpt lat="47.91561" lon="-3.84178">
        <ele>100.5</ele>
        <time>2023-04-05T08:42:21Z</time>
      </trkpt>
      <trkpt lat="47.91566" lon="-3.84179">
        <ele>100.5</ele>
        <time>2023-04-05T08:42:22Z</time>
      </trkpt>
      <trkpt lat="47.91572" lon="-3.8418">
        <ele>100.5</ele>
        <time>2023-04-05T08:42:23Z</time>
      </trkpt>
      <trkpt lat="47.91577" lon="-3.8418">
        <ele>100.5</ele>
        <time>2023-04-05T08:42:24Z</time>
      </trkpt>
      <trkpt lat="47.91583" lon="-3.84181">
        <ele>100.5</ele>
        <time>2023-04-05T08:42:25Z</time>
      </trkpt>
      <trkpt lat="47.91589" lon="-3.84182">
        <ele>100.4</ele>
        <time>2023-04-05T08:42:26Z</time>
      </trkpt>
      <trkpt lat="47.91594" lon="-3.84183">
        <ele>100.4</ele>
        <time>2023-04-05T08:42:27Z</time>
      </trkpt>
      <trkpt lat="47.916" lon="-3.84183">
        <ele>100.4</ele>
        <time>2023-04-05T08:42:28Z</time>
      </trkpt>
      <trkpt lat="47.91605" lon="-3.84184">
        <ele>100.4</ele>
        <time>2023-04-05T08:42:29Z</time>
      </trkpt>
      <trkpt lat="47.91611" lon="-3.84184">
        <ele>100.3</ele>
        <time>2023-04-05T08:42:30Z</time>
      </trkpt>
      <trkpt lat="47.91616" lon="-3.84185">
        <ele>100.3</ele>
        <time>2023-04-05T08:42:31Z</time>
      </trkpt>
      <trkpt lat="47.91622" lon="-3.84186">
        <ele>100.3</ele>
        <time>2023-04-05T08:42:32Z</time>
      </trkpt>
      <trkpt lat="47.91628" lon="-3.84187">
        <ele>100.2</ele>
        <time>2023-04-05T08:42:33Z</time>
      </trkpt>
      <trkpt lat="47.91634" lon="-3.84188">
        <ele>100.2</ele>
        <time>2023-04-05T08:42:34Z</time>
      </trkpt>
      <trkpt lat="47.91639" lon="-3.84188">
        <ele>100.1</ele>
        <time>2023-04-05T08:42:35Z</time>
      </trkpt>
      <trkpt lat="47.91645" lon="-3.84189">
        <ele>100.1</ele>
        <time>2023-04-05T08:42:36Z</time>
      </trkpt>
      <trkpt lat="47.91651" lon="-3.8419">
        <ele>100</ele>
        <time>2023-04-05T08:42:37Z</time>
      </trkpt>
      <trkpt lat="47.91657" lon="-3.84191">
        <ele>100</ele>
        <time>2023-04-05T08:42:38Z</time>
      </trkpt>
      <trkpt lat="47.91663" lon="-3.84192">
        <ele>99.9</ele>
        <time>2023-04-05T08:42:39Z</time>
      </trkpt>
      <trkpt lat="47.91669" lon="-3.84193">
        <ele>99.9</ele>
        <time>2023-04-05T08:42:40Z</time>
      </trkpt>
      <trkpt lat="47.91676" lon="-3.84194">
        <ele>99.8</ele>
        <time>2023-04-05T08:42:41Z</time>
      </trkpt>
      <trkpt lat="47.91682" lon="-3.84195">
        <ele>99.8</ele>
        <time>2023-04-05T08:42:42Z</time>
      </trkpt>
      <trkpt lat="47.91688" lon="-3.84196">
        <ele>99.7</ele>
        <time>2023-04-05T08:42:43Z</time>
      </trkpt>
      <trkpt lat="47.91694" lon="-3.84196">
        <ele>99.7</ele>
        <time>2023-04-05T08:42:44Z</time>
      </trkpt>
      <trkpt lat="47.917" lon="-3.84197">
        <ele>99.7</ele>
        <time>2023-04-05T08:42:45Z</time>
      </trkpt>
      <trkpt lat="47.91707" lon="-3.84198">
        <ele>99.6</ele>
        <time>2023-04-05T08:42:46Z</time>
      </trkpt>
      <trkpt lat="47.91713" lon="-3.84199">
        <ele>99.6</ele>
        <time>2023-04-05T08:42:47Z</time>
      </trkpt>
      <trkpt lat="47.91719" lon="-3.84199">
        <ele>99.5</ele>
        <time>2023-04-05T08:42:48Z</time>
      </trkpt>
      <trkpt lat="47.91726" lon="-3.842">
        <ele>99.4</ele>
        <time>2023-04-05T08:42:49Z</time>
      </trkpt>
      <trkpt lat="47.91732" lon="-3.84201">
        <ele>99.4</ele>
        <time>2023-04-05T08:42:50Z</time>
      </trkpt>
      <trkpt lat="47.91738" lon="-3.84202">
        <ele>99.3</ele>
        <time>2023-04-05T08:42:51Z</time>
      </trkpt>
      <trkpt lat="47.91745" lon="-3.84202">
        <ele>99.3</ele>
        <time>2023-04-05T08:42:52Z</time>
      </trkpt>
      <trkpt lat="47.91751" lon="-3.84203">
        <ele>99.2</ele>
        <time>2023-04-05T08:42:53Z</time>
      </trkpt>
      <trkpt lat="47.91758" lon="-3.84204">
        <ele>99.2</ele>
        <time>2023-04-05T08:42:54Z</time>
      </trkpt>
      <trkpt lat="47.91764" lon="-3.84205">
        <ele>99.1</ele>
        <time>2023-04-05T08:42:55Z</time>
      </trkpt>
      <trkpt lat="47.9177" lon="-3.84206">
        <ele>99.1</ele>
        <time>2023-04-05T08:42:56Z</time>
      </trkpt>
      <trkpt lat="47.91777" lon="-3.84206">
        <ele>99.1</ele>
        <time>2023-04-05T08:42:57Z</time>
      </trkpt>
      <trkpt lat="47.91783" lon="-3.84207">
        <ele>99.1</ele>
        <time>2023-04-05T08:42:58Z</time>
      </trkpt>
      <trkpt lat="47.91789" lon="-3.84208">
        <ele>99.1</ele>
        <time>2023-04-05T08:42:59Z</time>
      </trkpt>
      <trkpt lat="47.91795" lon="-3.8421">
        <ele>99</ele>
        <time>2023-04-05T08:43:00Z</time>
      </trkpt>
      <trkpt lat="47.91801" lon="-3.84211">
        <ele>99</ele>
        <time>2023-04-05T08:43:01Z</time>
      </trkpt>
      <trkpt lat="47.91807" lon="-3.84212">
        <ele>99.1</ele>
        <time>2023-04-05T08:43:02Z</time>
      </trkpt>
      <trkpt lat="47.91813" lon="-3.84212">
        <ele>99.1</ele>
        <time>2023-04-05T08:43:03Z</time>
      </trkpt>
      <trkpt lat="47.91819" lon="-3.84213">
        <ele>99.1</ele>
        <time>2023-04-05T08:43:04Z</time>
      </trkpt>
      <trkpt lat="47.91825" lon="-3.84214">
        <ele>99.2</ele>
        <time>2023-04-05T08:43:05Z</time>
      </trkpt>
      <trkpt lat="47.91831" lon="-3.84215">
        <ele>99.2</ele>
        <time>2023-04-05T08:43:06Z</time>
      </trkpt>
      <trkpt lat="47.91836" lon="-3.84215">
        <ele>99.2</ele>
        <time>2023-04-05T08:43:07Z</time>
      </trkpt>
      <trkpt lat="47.91842" lon="-3.84216">
        <ele>99.3</ele>
        <time>2023-04-05T08:43:08Z</time>
      </trkpt>
      <trkpt lat="47.91848" lon="-3.84216">
        <ele>99.3</ele>
        <time>2023-04-05T08:43:09Z</time>
      </trkpt>
      <trkpt lat="47.91854" lon="-3.84216">
        <ele>99.4</ele>
        <time>2023-04-05T08:43:10Z</time>
      </trkpt>
      <trkpt lat="47.91859" lon="-3.84217">
        <ele>99.5</ele>
        <time>2023-04-05T08:43:11Z</time>
      </trkpt>
      <trkpt lat="47.91865" lon="-3.84218">
        <ele>99.6</ele>
        <time>2023-04-05T08:43:12Z</time>
      </trkpt>
      <trkpt lat="47.91871" lon="-3.84219">
        <ele>99.6</ele>
        <time>2023-04-05T08:43:13Z</time>
      </trkpt>
      <trkpt lat="47.91877" lon="-3.8422">
        <ele>99.7</ele>
        <time>2023-04-05T08:43:14Z</time>
      </trkpt>
      <trkpt lat="47.91882" lon="-3.8422">
        <ele>99.8</ele>
        <time>2023-04-05T08:43:15Z</time>
      </trkpt>
      <trkpt lat="47.91888" lon="-3.84221">
        <ele>99.9</ele>
        <time>2023-04-05T08:43:16Z</time>
      </trkpt>
      <trkpt lat="47.91893" lon="-3.84222">
        <ele>99.9</ele>
        <time>2023-04-05T08:43:17Z</time>
      </trkpt>
      <trkpt lat="47.91899" lon="-3.84223">
        <ele>100</ele>
        <time>2023-04-05T08:43:18Z</time>
      </trkpt>
      <trkpt lat="47.91904" lon="-3.84223">
        <ele>100.1</ele>
        <time>2023-04-05T08:43:19Z</time>
      </trkpt>
      <trkpt lat="47.91909" lon="-3.84224">
        <ele>100.1</ele>
        <time>2023-04-05T08:43:20Z</time>
      </trkpt>
      <trkpt lat="47.91915" lon="-3.84225">
        <ele>100.2</ele>
        <time>2023-04-05T08:43:21Z</time>
      </trkpt>
      <trkpt lat="47.9192" lon="-3.84225">
        <ele>100.2</ele>
        <time>2023-04-05T08:43:22Z</time>
      </trkpt>
      <trkpt lat="47.91926" lon="-3.84226">
        <ele>100.2</ele>
        <time>2023-04-05T08:43:23Z</time>
      </trkpt>
      <trkpt lat="47.91931" lon="-3.84228">
        <ele>100.3</ele>
        <time>2023-04-05T08:43:24Z</time>
      </trkpt>
      <trkpt lat="47.91936" lon="-3.84228">
        <ele>100.3</ele>
        <time>2023-04-05T08:43:25Z</time>
      </trkpt>
      <trkpt lat="47.91942" lon="-3.84229">
        <ele>100.3</ele>
        <time>2023-04-05T08:43:26Z</time>
      </trkpt>
      <trkpt lat="47.91947" lon="-3.84229">
        <ele>100.3</ele>
        <time>2023-04-05T08:43:27Z</time>
      </trkpt>
      <trkpt lat="47.91952" lon="-3.8423">
        <ele>100.3</ele>
        <time>2023-04-05T08:43:28Z</time>
      </trkpt>
      <trkpt lat="47.91958" lon="-3.84231">
        <ele>100.3</ele>
        <time>2023-04-05T08:43:29Z</time>
      </trkpt>
      <trkpt lat="47.91963" lon="-3.84232">
        <ele>100.3</ele>
        <time>2023-04-05T08:43:30Z</time>
      </trkpt>
      <trkpt lat="47.91968" lon="-3.84232">
        <ele>100.2</ele>
        <time>2023-04-05T08:43:31Z</time>
      </trkpt>
      <trkpt lat="47.91974" lon="-3.84233">
        <ele>100.2</ele>
        <time>2023-04-05T08:43:32Z</time>
      </trkpt>
      <trkpt lat="47.91979" lon="-3.84234">
        <ele>100.1</ele>
        <time>2023-04-05T08:43:33Z</time>
      </trkpt>
      <trkpt lat="47.91985" lon="-3.84234">
        <ele>100.1</ele>
        <time>2023-04-05T08:43:34Z</time>
      </trkpt>
      <trkpt lat="47.91991" lon="-3.84235">
        <ele>100</ele>
        <time>2023-04-05T08:43:35Z</time>
      </trkpt>
      <trkpt lat="47.91996" lon="-3.84236">
        <ele>99.9</ele>
        <time>2023-04-05T08:43:36Z</time>
      </trkpt>
      <trkpt lat="47.92002" lon="-3.84236">
        <ele>99.8</ele>
        <time>2023-04-05T08:43:37Z</time>
      </trkpt>
      <trkpt lat="47.92008" lon="-3.84237">
        <ele>99.7</ele>
        <time>2023-04-05T08:43:38Z</time>
      </trkpt>
      <trkpt lat="47.92014" lon="-3.84238">
        <ele>99.5</ele>
        <time>2023-04-05T08:43:39Z</time>
      </trkpt>
      <trkpt lat="47.9202" lon="-3.84238">
        <ele>99.3</ele>
        <time>2023-04-05T08:43:40Z</time>
      </trkpt>
      <trkpt lat="47.92026" lon="-3.84239">
        <ele>99.1</ele>
        <time>2023-04-05T08:43:41Z</time>
      </trkpt>
      <trkpt lat="47.92032" lon="-3.8424">
        <ele>98.9</ele>
        <time>2023-04-05T08:43:42Z</time>
      </trkpt>
      <trkpt lat="47.92038" lon="-3.8424">
        <ele>98.6</ele>
        <time>2023-04-05T08:43:43Z</time>
      </trkpt>
      <trkpt lat="47.92045" lon="-3.84241">
        <ele>98.3</ele>
        <time>2023-04-05T08:43:44Z</time>
      </trkpt>
      <trkpt lat="47.92052" lon="-3.84242">
        <ele>98</ele>
        <time>2023-04-05T08:43:45Z</time>
      </trkpt>
      <trkpt lat="47.92059" lon="-3.84243">
        <ele>97.6</ele>
        <time>2023-04-05T08:43:46Z</time>
      </trkpt>
      <trkpt lat="47.92067" lon="-3.84244">
        <ele>97.3</ele>
        <time>2023-04-05T08:43:47Z</time>
      </trkpt>
      <trkpt lat="47.92074" lon="-3.84245">
        <ele>97.1</ele>
        <time>2023-04-05T08:43:48Z</time>
      </trkpt>
      <trkpt lat="47.92081" lon="-3.84246">
        <ele>96.8</ele>
        <time>2023-04-05T08:43:49Z</time>
      </trkpt>
      <trkpt lat="47.92089" lon="-3.84247">
        <ele>96.6</ele>
        <time>2023-04-05T08:43:50Z</time>
      </trkpt>
      <trkpt lat="47.92096" lon="-3.84248">
        <ele>96.5</ele>
        <time>2023-04-05T08:43:51Z</time>
      </trkpt>
      <trkpt lat="47.92103" lon="-3.84249">
        <ele>96.4</ele>
        <time>2023-04-05T08:43:52Z</time>
      </trkpt>
      <trkpt lat="47.92111" lon="-3.8425">
        <ele>96.3</ele>
        <time>2023-04-05T08:43:53Z</time>
      </trkpt>
      <trkpt lat="47.92118" lon="-3.84251">
        <ele>96.2</ele>
        <time>2023-04-05T08:43:54Z</time>
      </trkpt>
      <trkpt lat="47.92124" lon="-3.84252">
        <ele>96.2</ele>
        <time>2023-04-05T08:43:55Z</time>
      </trkpt>
      <trkpt lat="47.92131" lon="-3.84252">
        <ele>96.2</ele>
        <time>2023-04-05T08:43:56Z</time>
      </trkpt>
      <trkpt lat="47.92138" lon="-3.84253">
        <ele>96.2</ele>
        <time>2023-04-05T08:43:57Z</time>
      </trkpt>
      <trkpt lat="47.92145" lon="-3.84254">
        <ele>96.3</ele>
        <time>2023-04-05T08:43:58Z</time>
      </trkpt>
      <trkpt lat="47.92151" lon="-3.84254">
        <ele>96.4</ele>
        <time>2023-04-05T08:43:59Z</time>
      </trkpt>
      <trkpt lat="47.92157" lon="-3.84255">
        <ele>96.4</ele>
        <time>2023-04-05T08:44:00Z</time>
      </trkpt>
      <trkpt lat="47.92163" lon="-3.84256">
        <ele>96.5</ele>
        <time>2023-04-05T08:44:01Z</time>
      </trkpt>
      <trkpt lat="47.9217" lon="-3.84257">
        <ele>96.6</ele>
        <time>2023-04-05T08:44:02Z</time>
      </trkpt>
      <trkpt lat="47.92176" lon="-3.84258">
        <ele>96.7</ele>
        <time>2023-04-05T08:44:03Z</time>
      </trkpt>
      <trkpt lat="47.92182" lon="-3.84258">
        <ele>96.8</ele>
        <time>2023-04-05T08:44:04Z</time>
      </trkpt>
      <trkpt lat="47.92187" lon="-3.84259">
        <ele>96.9</ele>
        <time>2023-04-05T08:44:05Z</time>
      </trkpt>
      <trkpt lat="47.92193" lon="-3.84259">
        <ele>97.1</ele>
        <time>2023-04-05T08:44:06Z</time>
      </trkpt>
      <trkpt lat="47.92199" lon="-3.8426">
        <ele>97.2</ele>
        <time>2023-04-05T08:44:07Z</time>
      </trkpt>
      <trkpt lat="47.92205" lon="-3.84261">
        <ele>97.3</ele>
        <time>2023-04-05T08:44:08Z</time>
      </trkpt>
      <trkpt lat="47.9221" lon="-3.84261">
        <ele>97.4</ele>
        <time>2023-04-05T08:44:09Z</time>
      </trkpt>
      <trkpt lat="47.92216" lon="-3.84262">
        <ele>97.6</ele>
        <time>2023-04-05T08:44:10Z</time>
      </trkpt>
      <trkpt lat="47.92221" lon="-3.84263">
        <ele>97.7</ele>
        <time>2023-04-05T08:44:11Z</time>
      </trkpt>
      <trkpt lat="47.92226" lon="-3.84264">
        <ele>97.8</ele>
        <time>2023-04-05T08:44:12Z</time>
      </trkpt>
      <trkpt lat="47.92231" lon="-3.84265">
        <ele>98</ele>
        <time>2023-04-05T08:44:13Z</time>
      </trkpt>
      <trkpt lat="47.92237" lon="-3.84267">
        <ele>98.1</ele>
        <time>2023-04-05T08:44:14Z</time>
      </trkpt>
      <trkpt lat="47.92242" lon="-3.84268">
        <ele>98.3</ele>
        <time>2023-04-05T08:44:15Z</time>
      </trkpt>
      <trkpt lat="47.92247" lon="-3.84269">
        <ele>98.4</ele>
        <time>2023-04-05T08:44:16Z</time>
      </trkpt>
      <trkpt lat="47.92252" lon="-3.8427">
        <ele>98.6</ele>
        <time>2023-04-05T08:44:17Z</time>
      </trkpt>
      <trkpt lat="47.92257" lon="-3.84271">
        <ele>98.7</ele>
        <time>2023-04-05T08:44:18Z</time>
      </trkpt>
      <trkpt lat="47.92261" lon="-3.84272">
        <ele>98.8</ele>
        <time>2023-04-05T08:44:19Z</time>
      </trkpt>
      <trkpt lat="47.92266" lon="-3.84273">
        <ele>99</ele>
        <time>2023-04-05T08:44:20Z</time>
      </trkpt>
      <trkpt lat="47.92271" lon="-3.84274">
        <ele>99</ele>
        <time>2023-04-05T08:44:21Z</time>
      </trkpt>
      <trkpt lat="47.92276" lon="-3.84276">
        <ele>99.1</ele>
        <time>2023-04-05T08:44:22Z</time>
      </trkpt>
      <trkpt lat="47.92281" lon="-3.84278">
        <ele>99.1</ele>
        <time>2023-04-05T08:44:23Z</time>
      </trkpt>
      <trkpt lat="47.92286" lon="-3.84279">
        <ele>99.2</ele>
        <time>2023-04-05T08:44:24Z</time>
      </trkpt>
      <trkpt lat="47.92291" lon="-3.84281">
        <ele>99.3</ele>
        <time>2023-04-05T08:44:25Z</time>
      </trkpt>
      <trkpt lat="47.92296" lon="-3.84283">
        <ele>99.4</ele>
        <time>2023-04-05T08:44:26Z</time>
      </trkpt>
      <trkpt lat="47.92301" lon="-3.84284">
        <ele>99.5</ele>
        <time>2023-04-05T08:44:27Z</time>
      </trkpt>
      <trkpt lat="47.92305" lon="-3.84286">
        <ele>99.6</ele>
        <time>2023-04-05T08:44:28Z</time>
      </trkpt>
      <trkpt lat="47.9231" lon="-3.84288">
        <ele>99.7</ele>
        <time>2023-04-05T08:44:29Z</time>
      </trkpt>
      <trkpt lat="47.92315" lon="-3.8429">
        <ele>99.8</ele>
        <time>2023-04-05T08:44:30Z</time>
      </trkpt>
      <trkpt lat="47.92319" lon="-3.84293">
        <ele>99.9</ele>
        <time>2023-04-05T08:44:31Z</time>
      </trkpt>
      <trkpt lat="47.92324" lon="-3.84295">
        <ele>100</ele>
        <time>2023-04-05T08:44:32Z</time>
      </trkpt>
      <trkpt lat="47.92329" lon="-3.84297">
        <ele>100.1</ele>
        <time>2023-04-05T08:44:33Z</time>
      </trkpt>
      <trkpt lat="47.92333" lon="-3.843">
        <ele>100.3</ele>
        <time>2023-04-05T08:44:34Z</time>
      </trkpt>
      <trkpt lat="47.92338" lon="-3.84303">
        <ele>100.4</ele>
        <time>2023-04-05T08:44:35Z</time>
      </trkpt>
      <trkpt lat="47.92342" lon="-3.84306">
        <ele>100.5</ele>
        <time>2023-04-05T08:44:36Z</time>
      </trkpt>
      <trkpt lat="47.92347" lon="-3.84309">
        <ele>100.6</ele>
        <time>2023-04-05T08:44:37Z</time>
      </trkpt>
      <trkpt lat="47.92351" lon="-3.84312">
        <ele>100.7</ele>
        <time>2023-04-05T08:44:38Z</time>
      </trkpt>
      <trkpt lat="47.92356" lon="-3.84314">
        <ele>100.8</ele>
        <time>2023-04-05T08:44:39Z</time>
      </trkpt>
      <trkpt lat="47.92361" lon="-3.84314">
        <ele>101.1</ele>
        <time>2023-04-05T08:44:40Z</time>
      </trkpt>
      <trkpt lat="47.92365" lon="-3.84312">
        <ele>101.2</ele>
        <time>2023-04-05T08:44:41Z</time>
      </trkpt>
      <trkpt lat="47.92369" lon="-3.84309">
        <ele>101.4</ele>
        <time>2023-04-05T08:44:42Z</time>
      </trkpt>
      <trkpt lat="47.92371" lon="-3.84305">
        <ele>101.5</ele>
        <time>2023-04-05T08:44:43Z</time>
      </trkpt>
      <trkpt lat="47.92375" lon="-3.843">
        <ele>101.7</ele>
        <time>2023-04-05T08:44:44Z</time>
      </trkpt>
      <trkpt lat="47.92378" lon="-3.84297">
        <ele>101.8</ele>
        <time>2023-04-05T08:44:45Z</time>
      </trkpt>
      <trkpt lat="47.92382" lon="-3.84296">
        <ele>101.9</ele>
        <time>2023-04-05T08:44:46Z</time>
      </trkpt>
      <trkpt lat="47.92386" lon="-3.84294">
        <ele>102</ele>
        <time>2023-04-05T08:44:47Z</time>
      </trkpt>
      <trkpt lat="47.9239" lon="-3.84292">
        <ele>102.1</ele>
        <time>2023-04-05T08:44:48Z</time>
      </trkpt>
      <trkpt lat="47.92396" lon="-3.84291">
        <ele>102.3</ele>
        <time>2023-04-05T08:44:49Z</time>
      </trkpt>
      <trkpt lat="47.92401" lon="-3.84291">
        <ele>102.4</ele>
        <time>2023-04-05T08:44:50Z</time>
      </trkpt>
      <trkpt lat="47.92404" lon="-3.8429">
        <ele>102.5</ele>
        <time>2023-04-05T08:44:51Z</time>
      </trkpt>
      <trkpt lat="47.9241" lon="-3.8429">
        <ele>102.7</ele>
        <time>2023-04-05T08:44:52Z</time>
      </trkpt>
      <trkpt lat="47.92414" lon="-3.8429">
        <ele>102.8</ele>
        <time>2023-04-05T08:44:53Z</time>
      </trkpt>
      <trkpt lat="47.92418" lon="-3.84291">
        <ele>102.9</ele>
        <time>2023-04-05T08:44:54Z</time>
      </trkpt>
      <trkpt lat="47.92422" lon="-3.8429">
        <ele>103.1</ele>
        <time>2023-04-05T08:44:55Z</time>
      </trkpt>
      <trkpt lat="47.92426" lon="-3.8429">
        <ele>103.2</ele>
        <time>2023-04-05T08:44:56Z</time>
      </trkpt>
      <trkpt lat="47.9243" lon="-3.84288">
        <ele>103.3</ele>
        <time>2023-04-05T08:44:57Z</time>
      </trkpt>
      <trkpt lat="47.92435" lon="-3.84288">
        <ele>103.5</ele>
        <time>2023-04-05T08:44:58Z</time>
      </trkpt>
      <trkpt lat="47.92438" lon="-3.84289">
        <ele>103.6</ele>
        <time>2023-04-05T08:44:59Z</time>
      </trkpt>
      <trkpt lat="47.92442" lon="-3.84288">
        <ele>103.7</ele>
        <time>2023-04-05T08:45:00Z</time>
      </trkpt>
      <trkpt lat="47.92446" lon="-3.84287">
        <ele>103.7</ele>
        <time>2023-04-05T08:45:01Z</time>
      </trkpt>
      <trkpt lat="47.92449" lon="-3.84287">
        <ele>103.8</ele>
        <time>2023-04-05T08:45:02Z</time>
      </trkpt>
      <trkpt lat="47.92452" lon="-3.84287">
        <ele>103.9</ele>
        <time>2023-04-05T08:45:04Z</time>
      </trkpt>
      <trkpt lat="47.92455" lon="-3.84286">
        <ele>104</ele>
        <time>2023-04-05T08:45:05Z</time>
      </trkpt>
      <trkpt lat="47.92459" lon="-3.84286">
        <ele>104.2</ele>
        <time>2023-04-05T08:45:06Z</time>
      </trkpt>
      <trkpt lat="47.92462" lon="-3.84285">
        <ele>104.3</ele>
        <time>2023-04-05T08:45:07Z</time>
      </trkpt>
      <trkpt lat="47.92465" lon="-3.84285">
        <ele>104.4</ele>
        <time>2023-04-05T08:45:08Z</time>
      </trkpt>
      <trkpt lat="47.92468" lon="-3.84284">
        <ele>104.5</ele>
        <time>2023-04-05T08:45:09Z</time>
      </trkpt>
      <trkpt lat="47.92471" lon="-3.84283">
        <ele>104.7</ele>
        <time>2023-04-05T08:45:10Z</time>
      </trkpt>
      <trkpt lat="47.92475" lon="-3.84283">
        <ele>104.9</ele>
        <time>2023-04-05T08:45:11Z</time>
      </trkpt>
      <trkpt lat="47.92478" lon="-3.84283">
        <ele>105</ele>
        <time>2023-04-05T08:45:12Z</time>
      </trkpt>
      <trkpt lat="47.92479" lon="-3.84283">
        <ele>105.1</ele>
        <time>2023-04-05T08:45:13Z</time>
      </trkpt>
      <trkpt lat="47.92481" lon="-3.84283">
        <ele>105.2</ele>
        <time>2023-04-05T08:45:14Z</time>
      </trkpt>
      <trkpt lat="47.92482" lon="-3.84282">
        <ele>105.3</ele>
        <time>2023-04-05T08:45:15Z</time>
      </trkpt>
      <trkpt lat="47.92483" lon="-3.84282">
        <ele>105.4</ele>
        <time>2023-04-05T08:45:16Z</time>
      </trkpt>
      <trkpt lat="47.92483" lon="-3.84282">
        <ele>105.4</ele>
        <time>2023-04-05T08:45:17Z</time>
      </trkpt>
      <trkpt lat="47.92484" lon="-3.84282">
        <ele>105.4</ele>
        <time>2023-04-05T08:45:18Z</time>
      </trkpt>
      <trkpt lat="47.92484" lon="-3.84282">
        <ele>105.5</ele>
        <time>2023-04-05T08:45:19Z</time>
      </trkpt>
      <trkpt lat="47.92485" lon="-3.84282">
        <ele>105.5</ele>
        <time>2023-04-05T08:45:20Z</time>
      </trkpt>
      <trkpt lat="47.92485" lon="-3.84281">
        <ele>105.5</ele>
        <time>2023-04-05T08:45:21Z</time>
      </trkpt>
      <trkpt lat="47.92486" lon="-3.84281">
        <ele>105.6</ele>
        <time>2023-04-05T08:45:22Z</time>
      </trkpt>
      <trkpt lat="47.92486" lon="-3.84281">
        <ele>105.6</ele>
        <time>2023-04-05T08:45:23Z</time>
      </trkpt>
      <trkpt lat="47.92487" lon="-3.84281">
        <ele>105.6</ele>
        <time>2023-04-05T08:45:24Z</time>
      </trkpt>
      <trkpt lat="47.92487" lon="-3.84281">
        <ele>105.7</ele>
        <time>2023-04-05T08:45:25Z</time>
      </trkpt>
      <trkpt lat="47.92488" lon="-3.84281">
        <ele>105.7</ele>
        <time>2023-04-05T08:45:45Z</time>
      </trkpt>
      <trkpt lat="47.92488" lon="-3.8428">
        <ele>105.7</ele>
        <time>2023-04-05T08:45:46Z</time>
      </trkpt>
      <trkpt lat="47.92488" lon="-3.8428">
        <ele>105.8</ele>
        <time>2023-04-05T08:45:47Z</time>
      </trkpt>
      <trkpt lat="47.92492" lon="-3.84278">
        <ele>106</ele>
        <time>2023-04-05T08:45:48Z</time>
      </trkpt>
      <trkpt lat="47.92493" lon="-3.84278">
        <ele>106.1</ele>
        <time>2023-04-05T08:45:49Z</time>
      </trkpt>
      <trkpt lat="47.92497" lon="-3.84276">
        <ele>106.5</ele>
        <time>2023-04-05T08:45:50Z</time>
      </trkpt>
      <trkpt lat="47.92498" lon="-3.84276">
        <ele>106.6</ele>
        <time>2023-04-05T08:45:51Z</time>
      </trkpt>
      <trkpt lat="47.92502" lon="-3.84274">
        <ele>106.9</ele>
        <time>2023-04-05T08:45:52Z</time>
      </trkpt>
      <trkpt lat="47.92504" lon="-3.84273">
        <ele>107</ele>
        <time>2023-04-05T08:45:53Z</time>
      </trkpt>
      <trkpt lat="47.92507" lon="-3.84272">
        <ele>107.3</ele>
        <time>2023-04-05T08:45:54Z</time>
      </trkpt>
      <trkpt lat="47.9251" lon="-3.8427">
        <ele>107.6</ele>
        <time>2023-04-05T08:45:55Z</time>
      </trkpt>
      <trkpt lat="47.92512" lon="-3.84269">
        <ele>107.7</ele>
        <time>2023-04-05T08:45:56Z</time>
      </trkpt>
      <trkpt lat="47.92518" lon="-3.8427">
        <ele>108.3</ele>
        <time>2023-04-05T08:45:58Z</time>
      </trkpt>
      <trkpt lat="47.92524" lon="-3.84269">
        <ele>108.8</ele>
        <time>2023-04-05T08:46:00Z</time>
      </trkpt>
      <trkpt lat="47.92529" lon="-3.84269">
        <ele>109.2</ele>
        <time>2023-04-05T08:46:02Z</time>
      </trkpt>
      <trkpt lat="47.9253" lon="-3.84269">
        <ele>109.3</ele>
        <time>2023-04-05T08:46:03Z</time>
      </trkpt>
      <trkpt lat="47.92531" lon="-3.84269">
        <ele>109.4</ele>
        <time>2023-04-05T08:46:04Z</time>
      </trkpt>
      <trkpt lat="47.92534" lon="-3.84268">
        <ele>109.7</ele>
        <time>2023-04-05T08:46:05Z</time>
      </trkpt>
      <trkpt lat="47.92537" lon="-3.84266">
        <ele>110</ele>
        <time>2023-04-05T08:46:06Z</time>
      </trkpt>
      <trkpt lat="47.92539" lon="-3.84264">
        <ele>110.2</ele>
        <time>2023-04-05T08:46:07Z</time>
      </trkpt>
      <trkpt lat="47.92542" lon="-3.84263">
        <ele>110.5</ele>
        <time>2023-04-05T08:46:08Z</time>
      </trkpt>
      <trkpt lat="47.92545" lon="-3.84262">
        <ele>110.8</ele>
        <time>2023-04-05T08:46:09Z</time>
      </trkpt>
      <trkpt lat="47.92549" lon="-3.84261">
        <ele>111.1</ele>
        <time>2023-04-05T08:46:10Z</time>
      </trkpt>
      <trkpt lat="47.9255" lon="-3.8426">
        <ele>111.2</ele>
        <time>2023-04-05T08:46:11Z</time>
      </trkpt>
      <trkpt lat="47.92554" lon="-3.84259">
        <ele>111.6</ele>
        <time>2023-04-05T08:46:12Z</time>
      </trkpt>
      <trkpt lat="47.92555" lon="-3.84259">
        <ele>111.7</ele>
        <time>2023-04-05T08:46:13Z</time>
      </trkpt>
      <trkpt lat="47.92559" lon="-3.8426">
        <ele>112.2</ele>
        <time>2023-04-05T08:46:14Z</time>
      </trkpt>
      <trkpt lat="47.92561" lon="-3.84261">
        <ele>112.3</ele>
        <time>2023-04-05T08:46:15Z</time>
      </trkpt>
      <trkpt lat="47.92563" lon="-3.8426">
        <ele>112.6</ele>
        <time>2023-04-05T08:46:16Z</time>
      </trkpt>
      <trkpt lat="47.92566" lon="-3.8426">
        <ele>112.9</ele>
        <time>2023-04-05T08:46:17Z</time>
      </trkpt>
      <trkpt lat="47.92567" lon="-3.8426">
        <ele>113</ele>
        <time>2023-04-05T08:46:18Z</time>
      </trkpt>
      <trkpt lat="47.92571" lon="-3.84261">
        <ele>113.3</ele>
        <time>2023-04-05T08:46:19Z</time>
      </trkpt>
      <trkpt lat="47.92572" lon="-3.84261">
        <ele>113.5</ele>
        <time>2023-04-05T08:46:20Z</time>
      </trkpt>
      <trkpt lat="47.92573" lon="-3.84261">
        <ele>113.6</ele>
        <time>2023-04-05T08:46:21Z</time>
      </trkpt>
      <trkpt lat="47.92575" lon="-3.84263">
        <ele>113.8</ele>
        <time>2023-04-05T08:46:22Z</time>
      </trkpt>
      <trkpt lat="47.92578" lon="-3.84265">
        <ele>114.1</ele>
        <time>2023-04-05T08:46:23Z</time>
      </trkpt>
      <trkpt lat="47.92582" lon="-3.84264">
        <ele>114.3</ele>
        <time>2023-04-05T08:46:24Z</time>
      </trkpt>
      <trkpt lat="47.92583" lon="-3.84264">
        <ele>114.4</ele>
        <time>2023-04-05T08:46:25Z</time>
      </trkpt>
      <trkpt lat="47.92587" lon="-3.84265">
        <ele>114.8</ele>
        <time>2023-04-05T08:46:26Z</time>
      </trkpt>
      <trkpt lat="47.92589" lon="-3.84265">
        <ele>114.9</ele>
        <time>2023-04-05T08:46:27Z</time>
      </trkpt>
      <trkpt lat="47.92592" lon="-3.84265">
        <ele>115.1</ele>
        <time>2023-04-05T08:46:28Z</time>
      </trkpt>
      <trkpt lat="47.92596" lon="-3.84265">
        <ele>115.4</ele>
        <time>2023-04-05T08:46:29Z</time>
      </trkpt>
      <trkpt lat="47.92598" lon="-3.84265">
        <ele>115.6</ele>
        <time>2023-04-05T08:46:30Z</time>
      </trkpt>
      <trkpt lat="47.92602" lon="-3.84266">
        <ele>115.9</ele>
        <time>2023-04-05T08:46:31Z</time>
      </trkpt>
      <trkpt lat="47.92607" lon="-3.84266">
        <ele>116.3</ele>
        <time>2023-04-05T08:46:33Z</time>
      </trkpt>
      <trkpt lat="47.92608" lon="-3.84266">
        <ele>116.4</ele>
        <time>2023-04-05T08:46:34Z</time>
      </trkpt>
      <trkpt lat="47.9261" lon="-3.84265">
        <ele>116.6</ele>
        <time>2023-04-05T08:46:35Z</time>
      </trkpt>
      <trkpt lat="47.92614" lon="-3.84266">
        <ele>116.9</ele>
        <time>2023-04-05T08:46:36Z</time>
      </trkpt>
      <trkpt lat="47.92615" lon="-3.84266">
        <ele>117</ele>
        <time>2023-04-05T08:46:37Z</time>
      </trkpt>
      <trkpt lat="47.92618" lon="-3.84265">
        <ele>117.3</ele>
        <time>2023-04-05T08:46:38Z</time>
      </trkpt>
      <trkpt lat="47.9262" lon="-3.84264">
        <ele>117.4</ele>
        <time>2023-04-05T08:46:39Z</time>
      </trkpt>
      <trkpt lat="47.92624" lon="-3.84262">
        <ele>117.8</ele>
        <time>2023-04-05T08:46:40Z</time>
      </trkpt>
      <trkpt lat="47.92627" lon="-3.84262">
        <ele>118</ele>
        <time>2023-04-05T08:46:41Z</time>
      </trkpt>
      <trkpt lat="47.92629" lon="-3.8426">
        <ele>118.2</ele>
        <time>2023-04-05T08:46:43Z</time>
      </trkpt>
      <trkpt lat="47.92633" lon="-3.84259">
        <ele>118.5</ele>
        <time>2023-04-05T08:46:44Z</time>
      </trkpt>
      <trkpt lat="47.92634" lon="-3.84259">
        <ele>118.6</ele>
        <time>2023-04-05T08:46:45Z</time>
      </trkpt>
      <trkpt lat="47.92637" lon="-3.84258">
        <ele>118.9</ele>
        <time>2023-04-05T08:46:46Z</time>
      </trkpt>
      <trkpt lat="47.92638" lon="-3.84257">
        <ele>119</ele>
        <time>2023-04-05T08:46:47Z</time>
      </trkpt>
      <trkpt lat="47.92641" lon="-3.84256">
        <ele>119.2</ele>
        <time>2023-04-05T08:46:48Z</time>
      </trkpt>
      <trkpt lat="47.92642" lon="-3.84256">
        <ele>119.3</ele>
        <time>2023-04-05T08:46:49Z</time>
      </trkpt>
      <trkpt lat="47.92645" lon="-3.84255">
        <ele>119.5</ele>
        <time>2023-04-05T08:46:50Z</time>
      </trkpt>
      <trkpt lat="47.92648" lon="-3.84254">
        <ele>119.8</ele>
        <time>2023-04-05T08:46:51Z</time>
      </trkpt>
      <trkpt lat="47.92649" lon="-3.84253">
        <ele>119.9</ele>
        <time>2023-04-05T08:46:52Z</time>
      </trkpt>
      <trkpt lat="47.92654" lon="-3.84252">
        <ele>120.3</ele>
        <time>2023-04-05T08:46:54Z</time>
      </trkpt>
      <trkpt lat="47.92657" lon="-3.8425">
        <ele>120.5</ele>
        <time>2023-04-05T08:46:56Z</time>
      </trkpt>
      <trkpt lat="47.92661" lon="-3.84248">
        <ele>120.8</ele>
        <time>2023-04-05T08:46:57Z</time>
      </trkpt>
      <trkpt lat="47.92665" lon="-3.84247">
        <ele>121.1</ele>
        <time>2023-04-05T08:46:59Z</time>
      </trkpt>
      <trkpt lat="47.92667" lon="-3.84247">
        <ele>121.2</ele>
        <time>2023-04-05T08:47:00Z</time>
      </trkpt>
      <trkpt lat="47.92668" lon="-3.84246">
        <ele>121.3</ele>
        <time>2023-04-05T08:47:01Z</time>
      </trkpt>
      <trkpt lat="47.92671" lon="-3.84245">
        <ele>121.5</ele>
        <time>2023-04-05T08:47:02Z</time>
      </trkpt>
      <trkpt lat="47.92672" lon="-3.84245">
        <ele>121.6</ele>
        <time>2023-04-05T08:47:03Z</time>
      </trkpt>
      <trkpt lat="47.92676" lon="-3.84244">
        <ele>121.9</ele>
        <time>2023-04-05T08:47:04Z</time>
      </trkpt>
      <trkpt lat="47.92679" lon="-3.84243">
        <ele>122.1</ele>
        <time>2023-04-05T08:47:05Z</time>
      </trkpt>
      <trkpt lat="47.92681" lon="-3.84241">
        <ele>122.3</ele>
        <time>2023-04-05T08:47:06Z</time>
      </trkpt>
      <trkpt lat="47.92683" lon="-3.8424">
        <ele>122.5</ele>
        <time>2023-04-05T08:47:08Z</time>
      </trkpt>
      <trkpt lat="47.92688" lon="-3.84239">
        <ele>122.8</ele>
        <time>2023-04-05T08:47:09Z</time>
      </trkpt>
      <trkpt lat="47.92692" lon="-3.84238">
        <ele>123.1</ele>
        <time>2023-04-05T08:47:11Z</time>
      </trkpt>
      <trkpt lat="47.92692" lon="-3.84237">
        <ele>123.2</ele>
        <time>2023-04-05T08:47:12Z</time>
      </trkpt>
      <trkpt lat="47.92696" lon="-3.84235">
        <ele>123.6</ele>
        <time>2023-04-05T08:47:13Z</time>
      </trkpt>
      <trkpt lat="47.92699" lon="-3.84233">
        <ele>123.9</ele>
        <time>2023-04-05T08:47:15Z</time>
      </trkpt>
      <trkpt lat="47.92701" lon="-3.84233">
        <ele>124</ele>
        <time>2023-04-05T08:47:16Z</time>
      </trkpt>
      <trkpt lat="47.92704" lon="-3.84232">
        <ele>124.3</ele>
        <time>2023-04-05T08:47:17Z</time>
      </trkpt>
      <trkpt lat="47.92705" lon="-3.84232">
        <ele>124.4</ele>
        <time>2023-04-05T08:47:18Z</time>
      </trkpt>
      <trkpt lat="47.92708" lon="-3.8423">
        <ele>124.7</ele>
        <time>2023-04-05T08:47:19Z</time>
      </trkpt>
      <trkpt lat="47.92709" lon="-3.8423">
        <ele>124.8</ele>
        <time>2023-04-05T08:47:20Z</time>
      </trkpt>
      <trkpt lat="47.92712" lon="-3.84228">
        <ele>125.1</ele>
        <time>2023-04-05T08:47:21Z</time>
      </trkpt>
      <trkpt lat="47.92713" lon="-3.84228">
        <ele>125.2</ele>
        <time>2023-04-05T08:47:22Z</time>
      </trkpt>
      <trkpt lat="47.92716" lon="-3.84226">
        <ele>125.5</ele>
        <time>2023-04-05T08:47:23Z</time>
      </trkpt>
      <trkpt lat="47.92717" lon="-3.84226">
        <ele>125.6</ele>
        <time>2023-04-05T08:47:24Z</time>
      </trkpt>
      <trkpt lat="47.9272" lon="-3.84223">
        <ele>125.9</ele>
        <time>2023-04-05T08:47:25Z</time>
      </trkpt>
      <trkpt lat="47.92721" lon="-3.84222">
        <ele>126</ele>
        <time>2023-04-05T08:47:26Z</time>
      </trkpt>
      <trkpt lat="47.92724" lon="-3.8422">
        <ele>126.3</ele>
        <time>2023-04-05T08:47:27Z</time>
      </trkpt>
      <trkpt lat="47.92724" lon="-3.8422">
        <ele>126.3</ele>
        <time>2023-04-05T08:47:28Z</time>
      </trkpt>
      <trkpt lat="47.92727" lon="-3.84219">
        <ele>126.6</ele>
        <time>2023-04-05T08:47:29Z</time>
      </trkpt>
      <trkpt lat="47.92729" lon="-3.84218">
        <ele>126.7</ele>
        <time>2023-04-05T08:47:30Z</time>
      </trkpt>
      <trkpt lat="47.92732" lon="-3.84217">
        <ele>127</ele>
        <time>2023-04-05T08:47:31Z</time>
      </trkpt>
      <trkpt lat="47.92733" lon="-3.84216">
        <ele>127.1</ele>
        <time>2023-04-05T08:47:32Z</time>
      </trkpt>
      <trkpt lat="47.92736" lon="-3.84214">
        <ele>127.4</ele>
        <time>2023-04-05T08:47:33Z</time>
      </trkpt>
      <trkpt lat="47.92737" lon="-3.84213">
        <ele>127.5</ele>
        <time>2023-04-05T08:47:34Z</time>
      </trkpt>
      <trkpt lat="47.9274" lon="-3.84211">
        <ele>127.7</ele>
        <time>2023-04-05T08:47:35Z</time>
      </trkpt>
      <trkpt lat="47.92741" lon="-3.84211">
        <ele>127.8</ele>
        <time>2023-04-05T08:47:36Z</time>
      </trkpt>
      <trkpt lat="47.92743" lon="-3.84209">
        <ele>128</ele>
        <time>2023-04-05T08:47:37Z</time>
      </trkpt>
      <trkpt lat="47.92744" lon="-3.84208">
        <ele>128.1</ele>
        <time>2023-04-05T08:47:38Z</time>
      </trkpt>
      <trkpt lat="47.92748" lon="-3.84205">
        <ele>128.4</ele>
        <time>2023-04-05T08:47:39Z</time>
      </trkpt>
      <trkpt lat="47.92749" lon="-3.84204">
        <ele>128.5</ele>
        <time>2023-04-05T08:47:40Z</time>
      </trkpt>
      <trkpt lat="47.92751" lon="-3.84202">
        <ele>128.8</ele>
        <time>2023-04-05T08:47:41Z</time>
      </trkpt>
      <trkpt lat="47.92755" lon="-3.84198">
        <ele>129.1</ele>
        <time>2023-04-05T08:47:43Z</time>
      </trkpt>
      <trkpt lat="47.92756" lon="-3.84197">
        <ele>129.2</ele>
        <time>2023-04-05T08:47:44Z</time>
      </trkpt>
      <trkpt lat="47.92757" lon="-3.84195">
        <ele>129.3</ele>
        <time>2023-04-05T08:47:45Z</time>
      </trkpt>
      <trkpt lat="47.92759" lon="-3.84193">
        <ele>129.4</ele>
        <time>2023-04-05T08:47:46Z</time>
      </trkpt>
      <trkpt lat="47.92762" lon="-3.84191">
        <ele>129.6</ele>
        <time>2023-04-05T08:47:48Z</time>
      </trkpt>
      <trkpt lat="47.92764" lon="-3.84189">
        <ele>129.8</ele>
        <time>2023-04-05T08:47:49Z</time>
      </trkpt>
      <trkpt lat="47.92769" lon="-3.84186">
        <ele>130.1</ele>
        <time>2023-04-05T08:47:50Z</time>
      </trkpt>
      <trkpt lat="47.92771" lon="-3.84184">
        <ele>130.2</ele>
        <time>2023-04-05T08:47:51Z</time>
      </trkpt>
      <trkpt lat="47.92774" lon="-3.84179">
        <ele>130.5</ele>
        <time>2023-04-05T08:47:53Z</time>
      </trkpt>
      <trkpt lat="47.92775" lon="-3.84178">
        <ele>130.6</ele>
        <time>2023-04-05T08:47:54Z</time>
      </trkpt>
      <trkpt lat="47.92776" lon="-3.84176">
        <ele>130.7</ele>
        <time>2023-04-05T08:47:55Z</time>
      </trkpt>
      <trkpt lat="47.92779" lon="-3.84172">
        <ele>130.9</ele>
        <time>2023-04-05T08:47:56Z</time>
      </trkpt>
      <trkpt lat="47.92779" lon="-3.8417">
        <ele>131</ele>
        <time>2023-04-05T08:47:57Z</time>
      </trkpt>
      <trkpt lat="47.92781" lon="-3.84166">
        <ele>131.2</ele>
        <time>2023-04-05T08:47:58Z</time>
      </trkpt>
      <trkpt lat="47.92781" lon="-3.84164">
        <ele>131.2</ele>
        <time>2023-04-05T08:47:59Z</time>
      </trkpt>
      <trkpt lat="47.92783" lon="-3.8416">
        <ele>131.4</ele>
        <time>2023-04-05T08:48:00Z</time>
      </trkpt>
      <trkpt lat="47.92786" lon="-3.84157">
        <ele>131.6</ele>
        <time>2023-04-05T08:48:01Z</time>
      </trkpt>
      <trkpt lat="47.9279" lon="-3.84153">
        <ele>131.9</ele>
        <time>2023-04-05T08:48:03Z</time>
      </trkpt>
      <trkpt lat="47.92791" lon="-3.84152">
        <ele>132</ele>
        <time>2023-04-05T08:48:04Z</time>
      </trkpt>
      <trkpt lat="47.92792" lon="-3.8415">
        <ele>132.1</ele>
        <time>2023-04-05T08:48:05Z</time>
      </trkpt>
      <trkpt lat="47.92794" lon="-3.84147">
        <ele>132.3</ele>
        <time>2023-04-05T08:48:06Z</time>
      </trkpt>
      <trkpt lat="47.92797" lon="-3.84143">
        <ele>132.6</ele>
        <time>2023-04-05T08:48:07Z</time>
      </trkpt>
      <trkpt lat="47.92798" lon="-3.84142">
        <ele>132.7</ele>
        <time>2023-04-05T08:48:08Z</time>
      </trkpt>
      <trkpt lat="47.92801" lon="-3.84139">
        <ele>132.9</ele>
        <time>2023-04-05T08:48:09Z</time>
      </trkpt>
      <trkpt lat="47.92804" lon="-3.84135">
        <ele>133.2</ele>
        <time>2023-04-05T08:48:10Z</time>
      </trkpt>
      <trkpt lat="47.92807" lon="-3.84132">
        <ele>133.5</ele>
        <time>2023-04-05T08:48:12Z</time>
      </trkpt>
      <trkpt lat="47.92809" lon="-3.84129">
        <ele>133.6</ele>
        <time>2023-04-05T08:48:13Z</time>
      </trkpt>
      <trkpt lat="47.9281" lon="-3.84127">
        <ele>133.7</ele>
        <time>2023-04-05T08:48:14Z</time>
      </trkpt>
      <trkpt lat="47.92812" lon="-3.84125">
        <ele>133.8</ele>
        <time>2023-04-05T08:48:16Z</time>
      </trkpt>
      <trkpt lat="47.92816" lon="-3.84123">
        <ele>134</ele>
        <time>2023-04-05T08:48:17Z</time>
      </trkpt>
      <trkpt lat="47.92818" lon="-3.84122">
        <ele>134</ele>
        <time>2023-04-05T08:48:18Z</time>
      </trkpt>
      <trkpt lat="47.92821" lon="-3.8412">
        <ele>134.1</ele>
        <time>2023-04-05T08:48:19Z</time>
      </trkpt>
      <trkpt lat="47.92822" lon="-3.84119">
        <ele>134.2</ele>
        <time>2023-04-05T08:48:20Z</time>
      </trkpt>
      <trkpt lat="47.92825" lon="-3.84118">
        <ele>134.4</ele>
        <time>2023-04-05T08:48:21Z</time>
      </trkpt>
      <trkpt lat="47.92829" lon="-3.84117">
        <ele>134.5</ele>
        <time>2023-04-05T08:48:22Z</time>
      </trkpt>
      <trkpt lat="47.92832" lon="-3.84117">
        <ele>134.6</ele>
        <time>2023-04-05T08:48:23Z</time>
      </trkpt>
      <trkpt lat="47.92835" lon="-3.84116">
        <ele>134.8</ele>
        <time>2023-04-05T08:48:24Z</time>
      </trkpt>
      <trkpt lat="47.92838" lon="-3.84114">
        <ele>135</ele>
        <time>2023-04-05T08:48:25Z</time>
      </trkpt>
      <trkpt lat="47.92839" lon="-3.84114">
        <ele>135</ele>
        <time>2023-04-05T08:48:26Z</time>
      </trkpt>
      <trkpt lat="47.92842" lon="-3.84113">
        <ele>135.1</ele>
        <time>2023-04-05T08:48:27Z</time>
      </trkpt>
      <trkpt lat="47.92845" lon="-3.84112">
        <ele>135.3</ele>
        <time>2023-04-05T08:48:28Z</time>
      </trkpt>
      <trkpt lat="47.92848" lon="-3.8411">
        <ele>135.5</ele>
        <time>2023-04-05T08:48:29Z</time>
      </trkpt>
      <trkpt lat="47.9285" lon="-3.84109">
        <ele>135.5</ele>
        <time>2023-04-05T08:48:30Z</time>
      </trkpt>
      <trkpt lat="47.92853" lon="-3.84106">
        <ele>135.7</ele>
        <time>2023-04-05T08:48:31Z</time>
      </trkpt>
      <trkpt lat="47.92855" lon="-3.84105">
        <ele>135.8</ele>
        <time>2023-04-05T08:48:32Z</time>
      </trkpt>
      <trkpt lat="47.92857" lon="-3.84104">
        <ele>135.9</ele>
        <time>2023-04-05T08:48:33Z</time>
      </trkpt>
      <trkpt lat="47.9286" lon="-3.84103">
        <ele>136.1</ele>
        <time>2023-04-05T08:48:34Z</time>
      </trkpt>
      <trkpt lat="47.92864" lon="-3.84102">
        <ele>136.2</ele>
        <time>2023-04-05T08:48:35Z</time>
      </trkpt>
      <trkpt lat="47.9287" lon="-3.841">
        <ele>136.4</ele>
        <time>2023-04-05T08:48:37Z</time>
      </trkpt>
      <trkpt lat="47.92873" lon="-3.84099">
        <ele>136.5</ele>
        <time>2023-04-05T08:48:39Z</time>
      </trkpt>
      <trkpt lat="47.92876" lon="-3.84099">
        <ele>136.6</ele>
        <time>2023-04-05T08:48:40Z</time>
      </trkpt>
      <trkpt lat="47.9288" lon="-3.84098">
        <ele>136.7</ele>
        <time>2023-04-05T08:48:41Z</time>
      </trkpt>
      <trkpt lat="47.92883" lon="-3.84098">
        <ele>136.8</ele>
        <time>2023-04-05T08:48:42Z</time>
      </trkpt>
      <trkpt lat="47.92886" lon="-3.84096">
        <ele>136.9</ele>
        <time>2023-04-05T08:48:43Z</time>
      </trkpt>
      <trkpt lat="47.9289" lon="-3.84094">
        <ele>137</ele>
        <time>2023-04-05T08:48:44Z</time>
      </trkpt>
      <trkpt lat="47.92892" lon="-3.84093">
        <ele>137</ele>
        <time>2023-04-05T08:48:45Z</time>
      </trkpt>
      <trkpt lat="47.92898" lon="-3.84091">
        <ele>137.1</ele>
        <time>2023-04-05T08:48:46Z</time>
      </trkpt>
      <trkpt lat="47.92901" lon="-3.8409">
        <ele>137.2</ele>
        <time>2023-04-05T08:48:48Z</time>
      </trkpt>
      <trkpt lat="47.92904" lon="-3.8409">
        <ele>137.2</ele>
        <time>2023-04-05T08:48:49Z</time>
      </trkpt>
      <trkpt lat="47.92908" lon="-3.8409">
        <ele>137.2</ele>
        <time>2023-04-05T08:48:50Z</time>
      </trkpt>
      <trkpt lat="47.92911" lon="-3.8409">
        <ele>137.2</ele>
        <time>2023-04-05T08:48:51Z</time>
      </trkpt>
      <trkpt lat="47.92915" lon="-3.8409">
        <ele>137.3</ele>
        <time>2023-04-05T08:48:52Z</time>
      </trkpt>
      <trkpt lat="47.92919" lon="-3.84089">
        <ele>137.2</ele>
        <time>2023-04-05T08:48:53Z</time>
      </trkpt>
      <trkpt lat="47.92923" lon="-3.84088">
        <ele>137.2</ele>
        <time>2023-04-05T08:48:54Z</time>
      </trkpt>
      <trkpt lat="47.9293" lon="-3.84087">
        <ele>137.2</ele>
        <time>2023-04-05T08:48:55Z</time>
      </trkpt>
      <trkpt lat="47.92935" lon="-3.84086">
        <ele>137.2</ele>
        <time>2023-04-05T08:48:57Z</time>
      </trkpt>
      <trkpt lat="47.92939" lon="-3.84086">
        <ele>137.1</ele>
        <time>2023-04-05T08:48:58Z</time>
      </trkpt>
      <trkpt lat="47.92942" lon="-3.84085">
        <ele>137.1</ele>
        <time>2023-04-05T08:48:59Z</time>
      </trkpt>
      <trkpt lat="47.92947" lon="-3.84087">
        <ele>137.1</ele>
        <time>2023-04-05T08:49:00Z</time>
      </trkpt>
      <trkpt lat="47.92951" lon="-3.84088">
        <ele>137.1</ele>
        <time>2023-04-05T08:49:01Z</time>
      </trkpt>
      <trkpt lat="47.92955" lon="-3.8409">
        <ele>137</ele>
        <time>2023-04-05T08:49:02Z</time>
      </trkpt>
      <trkpt lat="47.9296" lon="-3.84091">
        <ele>137</ele>
        <time>2023-04-05T08:49:03Z</time>
      </trkpt>
      <trkpt lat="47.92964" lon="-3.84092">
        <ele>136.9</ele>
        <time>2023-04-05T08:49:04Z</time>
      </trkpt>
      <trkpt lat="47.92969" lon="-3.84094">
        <ele>136.9</ele>
        <time>2023-04-05T08:49:05Z</time>
      </trkpt>
      <trkpt lat="47.92973" lon="-3.84095">
        <ele>136.7</ele>
        <time>2023-04-05T08:49:06Z</time>
      </trkpt>
      <trkpt lat="47.92978" lon="-3.84096">
        <ele>136.5</ele>
        <time>2023-04-05T08:49:07Z</time>
      </trkpt>
      <trkpt lat="47.92983" lon="-3.84097">
        <ele>136.3</ele>
        <time>2023-04-05T08:49:08Z</time>
      </trkpt>
      <trkpt lat="47.92989" lon="-3.84097">
        <ele>136.1</ele>
        <time>2023-04-05T08:49:09Z</time>
      </trkpt>
      <trkpt lat="47.92994" lon="-3.84099">
        <ele>135.8</ele>
        <time>2023-04-05T08:49:10Z</time>
      </trkpt>
      <trkpt lat="47.93" lon="-3.84101">
        <ele>135.5</ele>
        <time>2023-04-05T08:49:11Z</time>
      </trkpt>
      <trkpt lat="47.93006" lon="-3.84103">
        <ele>135.2</ele>
        <time>2023-04-05T08:49:12Z</time>
      </trkpt>
      <trkpt lat="47.93013" lon="-3.84107">
        <ele>134.9</ele>
        <time>2023-04-05T08:49:13Z</time>
      </trkpt>
      <trkpt lat="47.93019" lon="-3.8411">
        <ele>134.6</ele>
        <time>2023-04-05T08:49:14Z</time>
      </trkpt>
      <trkpt lat="47.93027" lon="-3.84112">
        <ele>134.3</ele>
        <time>2023-04-05T08:49:15Z</time>
      </trkpt>
      <trkpt lat="47.93034" lon="-3.84115">
        <ele>134</ele>
        <time>2023-04-05T08:49:16Z</time>
      </trkpt>
      <trkpt lat="47.93041" lon="-3.84117">
        <ele>133.7</ele>
        <time>2023-04-05T08:49:17Z</time>
      </trkpt>
      <trkpt lat="47.93049" lon="-3.84119">
        <ele>133.4</ele>
        <time>2023-04-05T08:49:18Z</time>
      </trkpt>
      <trkpt lat="47.93056" lon="-3.84122">
        <ele>133.3</ele>
        <time>2023-04-05T08:49:19Z</time>
      </trkpt>
      <trkpt lat="47.93063" lon="-3.84125">
        <ele>133.2</ele>
        <time>2023-04-05T08:49:20Z</time>
      </trkpt>
      <trkpt lat="47.93071" lon="-3.84127">
        <ele>133.1</ele>
        <time>2023-04-05T08:49:21Z</time>
      </trkpt>
      <trkpt lat="47.93078" lon="-3.84129">
        <ele>133.1</ele>
        <time>2023-04-05T08:49:22Z</time>
      </trkpt>
      <trkpt lat="47.93085" lon="-3.84131">
        <ele>133</ele>
        <time>2023-04-05T08:49:23Z</time>
      </trkpt>
      <trkpt lat="47.93092" lon="-3.84132">
        <ele>132.8</ele>
        <time>2023-04-05T08:49:24Z</time>
      </trkpt>
      <trkpt lat="47.93099" lon="-3.84132">
        <ele>132.6</ele>
        <time>2023-04-05T08:49:25Z</time>
      </trkpt>
      <trkpt lat="47.93106" lon="-3.84131">
        <ele>132.4</ele>
        <time>2023-04-05T08:49:26Z</time>
      </trkpt>
      <trkpt lat="47.93113" lon="-3.8413">
        <ele>132.1</ele>
        <time>2023-04-05T08:49:27Z</time>
      </trkpt>
      <trkpt lat="47.9312" lon="-3.84129">
        <ele>131.8</ele>
        <time>2023-04-05T08:49:28Z</time>
      </trkpt>
      <trkpt lat="47.93127" lon="-3.84129">
        <ele>131.4</ele>
        <time>2023-04-05T08:49:29Z</time>
      </trkpt>
      <trkpt lat="47.93135" lon="-3.84129">
        <ele>130.9</ele>
        <time>2023-04-05T08:49:30Z</time>
      </trkpt>
      <trkpt lat="47.93142" lon="-3.84128">
        <ele>130.3</ele>
        <time>2023-04-05T08:49:31Z</time>
      </trkpt>
      <trkpt lat="47.9315" lon="-3.84127">
        <ele>129.8</ele>
        <time>2023-04-05T08:49:32Z</time>
      </trkpt>
      <trkpt lat="47.93158" lon="-3.84126">
        <ele>129.2</ele>
        <time>2023-04-05T08:49:33Z</time>
      </trkpt>
      <trkpt lat="47.93166" lon="-3.84126">
        <ele>128.6</ele>
        <time>2023-04-05T08:49:34Z</time>
      </trkpt>
      <trkpt lat="47.93175" lon="-3.84124">
        <ele>128</ele>
        <time>2023-04-05T08:49:35Z</time>
      </trkpt>
      <trkpt lat="47.93184" lon="-3.84121">
        <ele>127.5</ele>
        <time>2023-04-05T08:49:36Z</time>
      </trkpt>
      <trkpt lat="47.93193" lon="-3.84117">
        <ele>127.1</ele>
        <time>2023-04-05T08:49:37Z</time>
      </trkpt>
      <trkpt lat="47.93202" lon="-3.84115">
        <ele>126.8</ele>
        <time>2023-04-05T08:49:38Z</time>
      </trkpt>
      <trkpt lat="47.9321" lon="-3.84114">
        <ele>126.5</ele>
        <time>2023-04-05T08:49:39Z</time>
      </trkpt>
      <trkpt lat="47.93218" lon="-3.84112">
        <ele>126.2</ele>
        <time>2023-04-05T08:49:40Z</time>
      </trkpt>
      <trkpt lat="47.93227" lon="-3.84112">
        <ele>125.9</ele>
        <time>2023-04-05T08:49:41Z</time>
      </trkpt>
      <trkpt lat="47.93235" lon="-3.84112">
        <ele>125.6</ele>
        <time>2023-04-05T08:49:42Z</time>
      </trkpt>
      <trkpt lat="47.93243" lon="-3.84113">
        <ele>125.4</ele>
        <time>2023-04-05T08:49:43Z</time>
      </trkpt>
      <trkpt lat="47.93251" lon="-3.84113">
        <ele>125.1</ele>
        <time>2023-04-05T08:49:44Z</time>
      </trkpt>
      <trkpt lat="47.93258" lon="-3.84112">
        <ele>124.8</ele>
        <time>2023-04-05T08:49:45Z</time>
      </trkpt>
      <trkpt lat="47.93263" lon="-3.8411">
        <ele>124.6</ele>
        <time>2023-04-05T08:49:46Z</time>
      </trkpt>
      <trkpt lat="47.93268" lon="-3.84111">
        <ele>124.5</ele>
        <time>2023-04-05T08:49:47Z</time>
      </trkpt>
      <trkpt lat="47.93273" lon="-3.84112">
        <ele>124.3</ele>
        <time>2023-04-05T08:49:48Z</time>
      </trkpt>
      <trkpt lat="47.93277" lon="-3.84113">
        <ele>124.2</ele>
        <time>2023-04-05T08:49:49Z</time>
      </trkpt>
      <trkpt lat="47.9328" lon="-3.84113">
        <ele>124.1</ele>
        <time>2023-04-05T08:49:50Z</time>
      </trkpt>
      <trkpt lat="47.93285" lon="-3.84113">
        <ele>124</ele>
        <time>2023-04-05T08:49:51Z</time>
      </trkpt>
      <trkpt lat="47.93291" lon="-3.84114">
        <ele>123.9</ele>
        <time>2023-04-05T08:49:52Z</time>
      </trkpt>
      <trkpt lat="47.93296" lon="-3.84114">
        <ele>123.7</ele>
        <time>2023-04-05T08:49:53Z</time>
      </trkpt>
      <trkpt lat="47.933" lon="-3.84113">
        <ele>123.6</ele>
        <time>2023-04-05T08:49:54Z</time>
      </trkpt>
      <trkpt lat="47.93305" lon="-3.84111">
        <ele>123.5</ele>
        <time>2023-04-05T08:49:55Z</time>
      </trkpt>
      <trkpt lat="47.93311" lon="-3.8411">
        <ele>123.4</ele>
        <time>2023-04-05T08:49:56Z</time>
      </trkpt>
      <trkpt lat="47.93315" lon="-3.84109">
        <ele>123.3</ele>
        <time>2023-04-05T08:49:57Z</time>
      </trkpt>
      <trkpt lat="47.93319" lon="-3.84108">
        <ele>123.2</ele>
        <time>2023-04-05T08:49:58Z</time>
      </trkpt>
      <trkpt lat="47.93324" lon="-3.84106">
        <ele>123</ele>
        <time>2023-04-05T08:49:59Z</time>
      </trkpt>
      <trkpt lat="47.93329" lon="-3.84104">
        <ele>122.9</ele>
        <time>2023-04-05T08:50:00Z</time>
      </trkpt>
      <trkpt lat="47.93334" lon="-3.84102">
        <ele>122.8</ele>
        <time>2023-04-05T08:50:01Z</time>
      </trkpt>
      <trkpt lat="47.93339" lon="-3.84099">
        <ele>122.7</ele>
        <time>2023-04-05T08:50:02Z</time>
      </trkpt>
      <trkpt lat="47.93344" lon="-3.84096">
        <ele>122.6</ele>
        <time>2023-04-05T08:50:03Z</time>
      </trkpt>
      <trkpt lat="47.93349" lon="-3.84093">
        <ele>122.5</ele>
        <time>2023-04-05T08:50:04Z</time>
      </trkpt>
      <trkpt lat="47.93354" lon="-3.8409">
        <ele>122.4</ele>
        <time>2023-04-05T08:50:05Z</time>
      </trkpt>
      <trkpt lat="47.93359" lon="-3.84086">
        <ele>122.3</ele>
        <time>2023-04-05T08:50:06Z</time>
      </trkpt>
      <trkpt lat="47.93364" lon="-3.84083">
        <ele>122.2</ele>
        <time>2023-04-05T08:50:07Z</time>
      </trkpt>
      <trkpt lat="47.93368" lon="-3.84081">
        <ele>122.1</ele>
        <time>2023-04-05T08:50:08Z</time>
      </trkpt>
      <trkpt lat="47.93373" lon="-3.84078">
        <ele>122</ele>
        <time>2023-04-05T08:50:09Z</time>
      </trkpt>
      <trkpt lat="47.93378" lon="-3.84076">
        <ele>121.9</ele>
        <time>2023-04-05T08:50:10Z</time>
      </trkpt>
      <trkpt lat="47.93383" lon="-3.84075">
        <ele>121.8</ele>
        <time>2023-04-05T08:50:11Z</time>
      </trkpt>
      <trkpt lat="47.93388" lon="-3.84073">
        <ele>121.7</ele>
        <time>2023-04-05T08:50:12Z</time>
      </trkpt>
      <trkpt lat="47.93394" lon="-3.84072">
        <ele>121.6</ele>
        <time>2023-04-05T08:50:13Z</time>
      </trkpt>
      <trkpt lat="47.934" lon="-3.84073">
        <ele>121.4</ele>
        <time>2023-04-05T08:50:14Z</time>
      </trkpt>
      <trkpt lat="47.93406" lon="-3.84075">
        <ele>121.3</ele>
        <time>2023-04-05T08:50:15Z</time>
      </trkpt>
      <trkpt lat="47.93412" lon="-3.84077">
        <ele>121.2</ele>
        <time>2023-04-05T08:50:16Z</time>
      </trkpt>
      <trkpt lat="47.93417" lon="-3.84079">
        <ele>121.1</ele>
        <time>2023-04-05T08:50:17Z</time>
      </trkpt>
      <trkpt lat="47.93424" lon="-3.84082">
        <ele>121</ele>
        <time>2023-04-05T08:50:18Z</time>
      </trkpt>
      <trkpt lat="47.93429" lon="-3.84085">
        <ele>120.9</ele>
        <time>2023-04-05T08:50:19Z</time>
      </trkpt>
      <trkpt lat="47.93434" lon="-3.84088">
        <ele>120.9</ele>
        <time>2023-04-05T08:50:20Z</time>
      </trkpt>
      <trkpt lat="47.93439" lon="-3.8409">
        <ele>120.8</ele>
        <time>2023-04-05T08:50:21Z</time>
      </trkpt>
      <trkpt lat="47.93443" lon="-3.8409">
        <ele>120.8</ele>
        <time>2023-04-05T08:50:22Z</time>
      </trkpt>
      <trkpt lat="47.93449" lon="-3.84093">
        <ele>120.7</ele>
        <time>2023-04-05T08:50:23Z</time>
      </trkpt>
      <trkpt lat="47.93455" lon="-3.84096">
        <ele>120.6</ele>
        <time>2023-04-05T08:50:24Z</time>
      </trkpt>
      <trkpt lat="47.9346" lon="-3.84098">
        <ele>120.6</ele>
        <time>2023-04-05T08:50:25Z</time>
      </trkpt>
      <trkpt lat="47.93466" lon="-3.841">
        <ele>120.5</ele>
        <time>2023-04-05T08:50:26Z</time>
      </trkpt>
      <trkpt lat="47.9347" lon="-3.84103">
        <ele>120.4</ele>
        <time>2023-04-05T08:50:27Z</time>
      </trkpt>
      <trkpt lat="47.93474" lon="-3.84107">
        <ele>120.4</ele>
        <time>2023-04-05T08:50:28Z</time>
      </trkpt>
      <trkpt lat="47.93478" lon="-3.84112">
        <ele>120.3</ele>
        <time>2023-04-05T08:50:29Z</time>
      </trkpt>
      <trkpt lat="47.93482" lon="-3.84115">
        <ele>120.2</ele>
        <time>2023-04-05T08:50:30Z</time>
      </trkpt>
      <trkpt lat="47.93487" lon="-3.84118">
        <ele>120.2</ele>
        <time>2023-04-05T08:50:31Z</time>
      </trkpt>
      <trkpt lat="47.9349" lon="-3.84121">
        <ele>120.1</ele>
        <time>2023-04-05T08:50:32Z</time>
      </trkpt>
      <trkpt lat="47.93494" lon="-3.84125">
        <ele>120</ele>
        <time>2023-04-05T08:50:33Z</time>
      </trkpt>
      <trkpt lat="47.93498" lon="-3.84129">
        <ele>119.9</ele>
        <time>2023-04-05T08:50:34Z</time>
      </trkpt>
      <trkpt lat="47.93503" lon="-3.84132">
        <ele>119.8</ele>
        <time>2023-04-05T08:50:35Z</time>
      </trkpt>
      <trkpt lat="47.93506" lon="-3.84135">
        <ele>119.7</ele>
        <time>2023-04-05T08:50:36Z</time>
      </trkpt>
      <trkpt lat="47.9351" lon="-3.84137">
        <ele>119.6</ele>
        <time>2023-04-05T08:50:37Z</time>
      </trkpt>
      <trkpt lat="47.93517" lon="-3.84142">
        <ele>119.3</ele>
        <time>2023-04-05T08:50:38Z</time>
      </trkpt>
      <trkpt lat="47.93521" lon="-3.84143">
        <ele>119.2</ele>
        <time>2023-04-05T08:50:39Z</time>
      </trkpt>
      <trkpt lat="47.93526" lon="-3.84145">
        <ele>119</ele>
        <time>2023-04-05T08:50:41Z</time>
      </trkpt>
      <trkpt lat="47.93534" lon="-3.84148">
        <ele>118.7</ele>
        <time>2023-04-05T08:50:42Z</time>
      </trkpt>
      <trkpt lat="47.9354" lon="-3.8415">
        <ele>118.5</ele>
        <time>2023-04-05T08:50:43Z</time>
      </trkpt>
      <trkpt lat="47.93545" lon="-3.84152">
        <ele>118.2</ele>
        <time>2023-04-05T08:50:44Z</time>
      </trkpt>
      <trkpt lat="47.9355" lon="-3.84156">
        <ele>117.9</ele>
        <time>2023-04-05T08:50:45Z</time>
      </trkpt>
      <trkpt lat="47.93556" lon="-3.84159">
        <ele>117.4</ele>
        <time>2023-04-05T08:50:46Z</time>
      </trkpt>
      <trkpt lat="47.9356" lon="-3.8416">
        <ele>117.1</ele>
        <time>2023-04-05T08:50:47Z</time>
      </trkpt>
      <trkpt lat="47.93565" lon="-3.84162">
        <ele>116.7</ele>
        <time>2023-04-05T08:50:48Z</time>
      </trkpt>
      <trkpt lat="47.9357" lon="-3.84164">
        <ele>116.3</ele>
        <time>2023-04-05T08:50:49Z</time>
      </trkpt>
      <trkpt lat="47.93576" lon="-3.84168">
        <ele>115.9</ele>
        <time>2023-04-05T08:50:50Z</time>
      </trkpt>
      <trkpt lat="47.93581" lon="-3.84172">
        <ele>115.6</ele>
        <time>2023-04-05T08:50:51Z</time>
      </trkpt>
      <trkpt lat="47.93586" lon="-3.84176">
        <ele>115.5</ele>
        <time>2023-04-05T08:50:52Z</time>
      </trkpt>
      <trkpt lat="47.9359" lon="-3.84178">
        <ele>115.4</ele>
        <time>2023-04-05T08:50:53Z</time>
      </trkpt>
      <trkpt lat="47.93596" lon="-3.84183">
        <ele>115.2</ele>
        <time>2023-04-05T08:50:55Z</time>
      </trkpt>
      <trkpt lat="47.93603" lon="-3.84192">
        <ele>115.2</ele>
        <time>2023-04-05T08:50:56Z</time>
      </trkpt>
      <trkpt lat="47.93606" lon="-3.84196">
        <ele>115.2</ele>
        <time>2023-04-05T08:50:57Z</time>
      </trkpt>
      <trkpt lat="47.9361" lon="-3.84199">
        <ele>115.2</ele>
        <time>2023-04-05T08:50:58Z</time>
      </trkpt>
      <trkpt lat="47.93617" lon="-3.84204">
        <ele>115.2</ele>
        <time>2023-04-05T08:51:00Z</time>
      </trkpt>
      <trkpt lat="47.93623" lon="-3.84206">
        <ele>115.3</ele>
        <time>2023-04-05T08:51:01Z</time>
      </trkpt>
      <trkpt lat="47.93629" lon="-3.84206">
        <ele>115.4</ele>
        <time>2023-04-05T08:51:02Z</time>
      </trkpt>
      <trkpt lat="47.93634" lon="-3.84204">
        <ele>115.6</ele>
        <time>2023-04-05T08:51:03Z</time>
      </trkpt>
      <trkpt lat="47.9364" lon="-3.84202">
        <ele>115.8</ele>
        <time>2023-04-05T08:51:04Z</time>
      </trkpt>
      <trkpt lat="47.93645" lon="-3.842">
        <ele>116</ele>
        <time>2023-04-05T08:51:05Z</time>
      </trkpt>
      <trkpt lat="47.9365" lon="-3.84197">
        <ele>116.2</ele>
        <time>2023-04-05T08:51:06Z</time>
      </trkpt>
      <trkpt lat="47.93655" lon="-3.84195">
        <ele>116.4</ele>
        <time>2023-04-05T08:51:07Z</time>
      </trkpt>
      <trkpt lat="47.93659" lon="-3.84192">
        <ele>116.7</ele>
        <time>2023-04-05T08:51:08Z</time>
      </trkpt>
      <trkpt lat="47.93664" lon="-3.84189">
        <ele>117</ele>
        <time>2023-04-05T08:51:09Z</time>
      </trkpt>
      <trkpt lat="47.93668" lon="-3.84186">
        <ele>117.3</ele>
        <time>2023-04-05T08:51:10Z</time>
      </trkpt>
      <trkpt lat="47.93671" lon="-3.84185">
        <ele>117.5</ele>
        <time>2023-04-05T08:51:11Z</time>
      </trkpt>
      <trkpt lat="47.93675" lon="-3.84183">
        <ele>117.7</ele>
        <time>2023-04-05T08:51:12Z</time>
      </trkpt>
      <trkpt lat="47.93679" lon="-3.84181">
        <ele>118</ele>
        <time>2023-04-05T08:51:13Z</time>
      </trkpt>
      <trkpt lat="47.93683" lon="-3.8418">
        <ele>118.3</ele>
        <time>2023-04-05T08:51:14Z</time>
      </trkpt>
      <trkpt lat="47.93687" lon="-3.84177">
        <ele>118.6</ele>
        <time>2023-04-05T08:51:15Z</time>
      </trkpt>
      <trkpt lat="47.93691" lon="-3.84175">
        <ele>118.9</ele>
        <time>2023-04-05T08:51:16Z</time>
      </trkpt>
      <trkpt lat="47.93695" lon="-3.84172">
        <ele>119.2</ele>
        <time>2023-04-05T08:51:18Z</time>
      </trkpt>
      <trkpt lat="47.93699" lon="-3.84171">
        <ele>119.4</ele>
        <time>2023-04-05T08:51:19Z</time>
      </trkpt>
      <trkpt lat="47.93703" lon="-3.84169">
        <ele>119.6</ele>
        <time>2023-04-05T08:51:20Z</time>
      </trkpt>
      <trkpt lat="47.93707" lon="-3.84166">
        <ele>119.8</ele>
        <time>2023-04-05T08:51:21Z</time>
      </trkpt>
      <trkpt lat="47.93711" lon="-3.84163">
        <ele>120</ele>
        <time>2023-04-05T08:51:22Z</time>
      </trkpt>
      <trkpt lat="47.93714" lon="-3.84162">
        <ele>120.1</ele>
        <time>2023-04-05T08:51:23Z</time>
      </trkpt>
      <trkpt lat="47.93718" lon="-3.84159">
        <ele>120.3</ele>
        <time>2023-04-05T08:51:24Z</time>
      </trkpt>
      <trkpt lat="47.93725" lon="-3.84154">
        <ele>120.5</ele>
        <time>2023-04-05T08:51:26Z</time>
      </trkpt>
      <trkpt lat="47.93728" lon="-3.84152">
        <ele>120.7</ele>
        <time>2023-04-05T08:51:28Z</time>
      </trkpt>
      <trkpt lat="47.93732" lon="-3.84149">
        <ele>120.8</ele>
        <time>2023-04-05T08:51:29Z</time>
      </trkpt>
      <trkpt lat="47.93735" lon="-3.84146">
        <ele>120.8</ele>
        <time>2023-04-05T08:51:30Z</time>
      </trkpt>
      <trkpt lat="47.93738" lon="-3.84143">
        <ele>120.9</ele>
        <time>2023-04-05T08:51:31Z</time>
      </trkpt>
      <trkpt lat="47.93741" lon="-3.84141">
        <ele>121</ele>
        <time>2023-04-05T08:51:32Z</time>
      </trkpt>
      <trkpt lat="47.93745" lon="-3.84139">
        <ele>121</ele>
        <time>2023-04-05T08:51:33Z</time>
      </trkpt>
      <trkpt lat="47.93749" lon="-3.84135">
        <ele>121.1</ele>
        <time>2023-04-05T08:51:34Z</time>
      </trkpt>
      <trkpt lat="47.93753" lon="-3.84131">
        <ele>121.1</ele>
        <time>2023-04-05T08:51:35Z</time>
      </trkpt>
      <trkpt lat="47.93756" lon="-3.84127">
        <ele>121</ele>
        <time>2023-04-05T08:51:36Z</time>
      </trkpt>
      <trkpt lat="47.93764" lon="-3.84121">
        <ele>120.9</ele>
        <time>2023-04-05T08:51:38Z</time>
      </trkpt>
      <trkpt lat="47.93769" lon="-3.84118">
        <ele>120.8</ele>
        <time>2023-04-05T08:51:39Z</time>
      </trkpt>
      <trkpt lat="47.93773" lon="-3.84114">
        <ele>120.7</ele>
        <time>2023-04-05T08:51:40Z</time>
      </trkpt>
      <trkpt lat="47.93777" lon="-3.84111">
        <ele>120.5</ele>
        <time>2023-04-05T08:51:41Z</time>
      </trkpt>
      <trkpt lat="47.93782" lon="-3.84107">
        <ele>120.3</ele>
        <time>2023-04-05T08:51:42Z</time>
      </trkpt>
      <trkpt lat="47.93786" lon="-3.84103">
        <ele>120.1</ele>
        <time>2023-04-05T08:51:43Z</time>
      </trkpt>
      <trkpt lat="47.93791" lon="-3.84099">
        <ele>119.7</ele>
        <time>2023-04-05T08:51:44Z</time>
      </trkpt>
      <trkpt lat="47.93797" lon="-3.84094">
        <ele>119.3</ele>
        <time>2023-04-05T08:51:45Z</time>
      </trkpt>
      <trkpt lat="47.93803" lon="-3.84089">
        <ele>118.7</ele>
        <time>2023-04-05T08:51:46Z</time>
      </trkpt>
      <trkpt lat="47.93809" lon="-3.84084">
        <ele>118.1</ele>
        <time>2023-04-05T08:51:47Z</time>
      </trkpt>
      <trkpt lat="47.93815" lon="-3.84079">
        <ele>117.5</ele>
        <time>2023-04-05T08:51:48Z</time>
      </trkpt>
      <trkpt lat="47.93823" lon="-3.84075">
        <ele>116.7</ele>
        <time>2023-04-05T08:51:49Z</time>
      </trkpt>
      <trkpt lat="47.93831" lon="-3.84071">
        <ele>115.9</ele>
        <time>2023-04-05T08:51:50Z</time>
      </trkpt>
      <trkpt lat="47.93839" lon="-3.84068">
        <ele>115.1</ele>
        <time>2023-04-05T08:51:51Z</time>
      </trkpt>
      <trkpt lat="47.93847" lon="-3.84066">
        <ele>114.3</ele>
        <time>2023-04-05T08:51:52Z</time>
      </trkpt>
      <trkpt lat="47.93856" lon="-3.84063">
        <ele>113.6</ele>
        <time>2023-04-05T08:51:53Z</time>
      </trkpt>
      <trkpt lat="47.93864" lon="-3.84061">
        <ele>112.9</ele>
        <time>2023-04-05T08:51:54Z</time>
      </trkpt>
      <trkpt lat="47.93872" lon="-3.84059">
        <ele>112.3</ele>
        <time>2023-04-05T08:51:55Z</time>
      </trkpt>
      <trkpt lat="47.93879" lon="-3.84057">
        <ele>111.7</ele>
        <time>2023-04-05T08:51:56Z</time>
      </trkpt>
      <trkpt lat="47.93885" lon="-3.84055">
        <ele>111.4</ele>
        <time>2023-04-05T08:51:57Z</time>
      </trkpt>
      <trkpt lat="47.9389" lon="-3.84054">
        <ele>111</ele>
        <time>2023-04-05T08:51:58Z</time>
      </trkpt>
      <trkpt lat="47.93895" lon="-3.84052">
        <ele>110.7</ele>
        <time>2023-04-05T08:51:59Z</time>
      </trkpt>
      <trkpt lat="47.93901" lon="-3.8405">
        <ele>110.3</ele>
        <time>2023-04-05T08:52:00Z</time>
      </trkpt>
      <trkpt lat="47.93907" lon="-3.84049">
        <ele>110</ele>
        <time>2023-04-05T08:52:01Z</time>
      </trkpt>
      <trkpt lat="47.93912" lon="-3.84047">
        <ele>109.6</ele>
        <time>2023-04-05T08:52:02Z</time>
      </trkpt>
      <trkpt lat="47.93917" lon="-3.84045">
        <ele>109.4</ele>
        <time>2023-04-05T08:52:03Z</time>
      </trkpt>
      <trkpt lat="47.93922" lon="-3.84042">
        <ele>109.2</ele>
        <time>2023-04-05T08:52:04Z</time>
      </trkpt>
      <trkpt lat="47.93925" lon="-3.84039">
        <ele>109</ele>
        <time>2023-04-05T08:52:05Z</time>
      </trkpt>
      <trkpt lat="47.93929" lon="-3.84037">
        <ele>108.9</ele>
        <time>2023-04-05T08:52:06Z</time>
      </trkpt>
      <trkpt lat="47.93932" lon="-3.84035">
        <ele>108.8</ele>
        <time>2023-04-05T08:52:07Z</time>
      </trkpt>
      <trkpt lat="47.93934" lon="-3.84032">
        <ele>108.8</ele>
        <time>2023-04-05T08:52:08Z</time>
      </trkpt>
      <trkpt lat="47.93936" lon="-3.84029">
        <ele>108.7</ele>
        <time>2023-04-05T08:52:09Z</time>
      </trkpt>
      <trkpt lat="47.93938" lon="-3.84026">
        <ele>108.7</ele>
        <time>2023-04-05T08:52:10Z</time>
      </trkpt>
      <trkpt lat="47.93942" lon="-3.84022">
        <ele>108.6</ele>
        <time>2023-04-05T08:52:11Z</time>
      </trkpt>
      <trkpt lat="47.93943" lon="-3.8402">
        <ele>108.6</ele>
        <time>2023-04-05T08:52:12Z</time>
      </trkpt>
      <trkpt lat="47.93945" lon="-3.84017">
        <ele>108.6</ele>
        <time>2023-04-05T08:52:13Z</time>
      </trkpt>
      <trkpt lat="47.93947" lon="-3.84015">
        <ele>108.6</ele>
        <time>2023-04-05T08:52:14Z</time>
      </trkpt>
      <trkpt lat="47.93952" lon="-3.84012">
        <ele>108.6</ele>
        <time>2023-04-05T08:52:15Z</time>
      </trkpt>
      <trkpt lat="47.93959" lon="-3.84006">
        <ele>108.8</ele>
        <time>2023-04-05T08:52:17Z</time>
      </trkpt>
      <trkpt lat="47.93962" lon="-3.84002">
        <ele>108.9</ele>
        <time>2023-04-05T08:52:18Z</time>
      </trkpt>
      <trkpt lat="47.93965" lon="-3.83999">
        <ele>109</ele>
        <time>2023-04-05T08:52:19Z</time>
      </trkpt>
      <trkpt lat="47.9397" lon="-3.83992">
        <ele>109.3</ele>
        <time>2023-04-05T08:52:21Z</time>
      </trkpt>
      <trkpt lat="47.93973" lon="-3.83989">
        <ele>109.6</ele>
        <time>2023-04-05T08:52:22Z</time>
      </trkpt>
      <trkpt lat="47.93975" lon="-3.83987">
        <ele>109.8</ele>
        <time>2023-04-05T08:52:23Z</time>
      </trkpt>
      <trkpt lat="47.93976" lon="-3.83986">
        <ele>109.9</ele>
        <time>2023-04-05T08:52:24Z</time>
      </trkpt>
      <trkpt lat="47.93979" lon="-3.83985">
        <ele>110.1</ele>
        <time>2023-04-05T08:52:26Z</time>
      </trkpt>
      <trkpt lat="47.93982" lon="-3.83981">
        <ele>110.5</ele>
        <time>2023-04-05T08:52:27Z</time>
      </trkpt>
      <trkpt lat="47.93985" lon="-3.83977">
        <ele>111</ele>
        <time>2023-04-05T08:52:29Z</time>
      </trkpt>
      <trkpt lat="47.93985" lon="-3.83975">
        <ele>111.1</ele>
        <time>2023-04-05T08:52:30Z</time>
      </trkpt>
      <trkpt lat="47.93986" lon="-3.83973">
        <ele>111.3</ele>
        <time>2023-04-05T08:52:31Z</time>
      </trkpt>
      <trkpt lat="47.93987" lon="-3.83972">
        <ele>111.5</ele>
        <time>2023-04-05T08:52:32Z</time>
      </trkpt>
      <trkpt lat="47.93989" lon="-3.8397">
        <ele>111.7</ele>
        <time>2023-04-05T08:52:33Z</time>
      </trkpt>
      <trkpt lat="47.93992" lon="-3.83969">
        <ele>112.2</ele>
        <time>2023-04-05T08:52:34Z</time>
      </trkpt>
      <trkpt lat="47.93993" lon="-3.83969">
        <ele>112.4</ele>
        <time>2023-04-05T08:52:35Z</time>
      </trkpt>
      <trkpt lat="47.93996" lon="-3.83968">
        <ele>112.8</ele>
        <time>2023-04-05T08:52:36Z</time>
      </trkpt>
      <trkpt lat="47.93997" lon="-3.83968">
        <ele>112.9</ele>
        <time>2023-04-05T08:52:37Z</time>
      </trkpt>
      <trkpt lat="47.94" lon="-3.83968">
        <ele>113.4</ele>
        <time>2023-04-05T08:52:38Z</time>
      </trkpt>
      <trkpt lat="47.94001" lon="-3.83968">
        <ele>113.5</ele>
        <time>2023-04-05T08:52:39Z</time>
      </trkpt>
      <trkpt lat="47.94003" lon="-3.83966">
        <ele>113.9</ele>
        <time>2023-04-05T08:52:40Z</time>
      </trkpt>
      <trkpt lat="47.94005" lon="-3.83965">
        <ele>114.2</ele>
        <time>2023-04-05T08:52:41Z</time>
      </trkpt>
      <trkpt lat="47.94008" lon="-3.83964">
        <ele>114.6</ele>
        <time>2023-04-05T08:52:43Z</time>
      </trkpt>
      <trkpt lat="47.94009" lon="-3.83964">
        <ele>114.8</ele>
        <time>2023-04-05T08:52:44Z</time>
      </trkpt>
      <trkpt lat="47.94012" lon="-3.83962">
        <ele>115.3</ele>
        <time>2023-04-05T08:52:45Z</time>
      </trkpt>
      <trkpt lat="47.94016" lon="-3.8396">
        <ele>116</ele>
        <time>2023-04-05T08:52:47Z</time>
      </trkpt>
      <trkpt lat="47.94019" lon="-3.83959">
        <ele>116.4</ele>
        <time>2023-04-05T08:52:48Z</time>
      </trkpt>
      <trkpt lat="47.9402" lon="-3.83959">
        <ele>116.7</ele>
        <time>2023-04-05T08:52:50Z</time>
      </trkpt>
      <trkpt lat="47.94023" lon="-3.83958">
        <ele>117.1</ele>
        <time>2023-04-05T08:52:51Z</time>
      </trkpt>
      <trkpt lat="47.94024" lon="-3.83957">
        <ele>117.3</ele>
        <time>2023-04-05T08:52:52Z</time>
      </trkpt>
      <trkpt lat="47.94027" lon="-3.83955">
        <ele>117.8</ele>
        <time>2023-04-05T08:52:53Z</time>
      </trkpt>
      <trkpt lat="47.94029" lon="-3.83953">
        <ele>118.3</ele>
        <time>2023-04-05T08:52:54Z</time>
      </trkpt>
      <trkpt lat="47.9403" lon="-3.83952">
        <ele>118.4</ele>
        <time>2023-04-05T08:52:56Z</time>
      </trkpt>
      <trkpt lat="47.94031" lon="-3.83951">
        <ele>118.6</ele>
        <time>2023-04-05T08:52:57Z</time>
      </trkpt>
      <trkpt lat="47.94032" lon="-3.8395">
        <ele>118.8</ele>
        <time>2023-04-05T08:52:58Z</time>
      </trkpt>
      <trkpt lat="47.94033" lon="-3.83949">
        <ele>119</ele>
        <time>2023-04-05T08:52:59Z</time>
      </trkpt>
      <trkpt lat="47.94036" lon="-3.83947">
        <ele>119.5</ele>
        <time>2023-04-05T08:53:00Z</time>
      </trkpt>
      <trkpt lat="47.94037" lon="-3.83946">
        <ele>119.6</ele>
        <time>2023-04-05T08:53:01Z</time>
      </trkpt>
      <trkpt lat="47.94038" lon="-3.83945">
        <ele>119.8</ele>
        <time>2023-04-05T08:53:02Z</time>
      </trkpt>
      <trkpt lat="47.94039" lon="-3.83945">
        <ele>120</ele>
        <time>2023-04-05T08:53:03Z</time>
      </trkpt>
      <trkpt lat="47.94043" lon="-3.83943">
        <ele>120.6</ele>
        <time>2023-04-05T08:53:04Z</time>
      </trkpt>
      <trkpt lat="47.94045" lon="-3.83943">
        <ele>120.9</ele>
        <time>2023-04-05T08:53:05Z</time>
      </trkpt>
      <trkpt lat="47.94047" lon="-3.83941">
        <ele>121.2</ele>
        <time>2023-04-05T08:53:07Z</time>
      </trkpt>
      <trkpt lat="47.9405" lon="-3.83939">
        <ele>121.6</ele>
        <time>2023-04-05T08:53:08Z</time>
      </trkpt>
      <trkpt lat="47.94051" lon="-3.83938">
        <ele>121.7</ele>
        <time>2023-04-05T08:53:09Z</time>
      </trkpt>
      <trkpt lat="47.94052" lon="-3.83938">
        <ele>121.9</ele>
        <time>2023-04-05T08:53:10Z</time>
      </trkpt>
      <trkpt lat="47.94054" lon="-3.83936">
        <ele>122.1</ele>
        <time>2023-04-05T08:53:11Z</time>
      </trkpt>
      <trkpt lat="47.94056" lon="-3.83934">
        <ele>122.5</ele>
        <time>2023-04-05T08:53:12Z</time>
      </trkpt>
      <trkpt lat="47.94057" lon="-3.83934">
        <ele>122.6</ele>
        <time>2023-04-05T08:53:13Z</time>
      </trkpt>
      <trkpt lat="47.94061" lon="-3.83933">
        <ele>123.1</ele>
        <time>2023-04-05T08:53:14Z</time>
      </trkpt>
      <trkpt lat="47.94062" lon="-3.83932">
        <ele>123.2</ele>
        <time>2023-04-05T08:53:15Z</time>
      </trkpt>
      <trkpt lat="47.94064" lon="-3.83931">
        <ele>123.5</ele>
        <time>2023-04-05T08:53:16Z</time>
      </trkpt>
      <trkpt lat="47.94067" lon="-3.83931">
        <ele>123.9</ele>
        <time>2023-04-05T08:53:18Z</time>
      </trkpt>
      <trkpt lat="47.9407" lon="-3.8393">
        <ele>124.2</ele>
        <time>2023-04-05T08:53:20Z</time>
      </trkpt>
      <trkpt lat="47.94072" lon="-3.8393">
        <ele>124.4</ele>
        <time>2023-04-05T08:53:21Z</time>
      </trkpt>
      <trkpt lat="47.94073" lon="-3.8393">
        <ele>124.6</ele>
        <time>2023-04-05T08:53:22Z</time>
      </trkpt>
      <trkpt lat="47.94075" lon="-3.8393">
        <ele>124.8</ele>
        <time>2023-04-05T08:53:24Z</time>
      </trkpt>
      <trkpt lat="47.94078" lon="-3.83928">
        <ele>125.1</ele>
        <time>2023-04-05T08:53:25Z</time>
      </trkpt>
      <trkpt lat="47.94083" lon="-3.83925">
        <ele>125.6</ele>
        <time>2023-04-05T08:53:27Z</time>
      </trkpt>
      <trkpt lat="47.94085" lon="-3.83924">
        <ele>125.8</ele>
        <time>2023-04-05T08:53:28Z</time>
      </trkpt>
      <trkpt lat="47.94086" lon="-3.83923">
        <ele>126</ele>
        <time>2023-04-05T08:53:29Z</time>
      </trkpt>
      <trkpt lat="47.94089" lon="-3.8392">
        <ele>126.3</ele>
        <time>2023-04-05T08:53:31Z</time>
      </trkpt>
      <trkpt lat="47.94091" lon="-3.83919">
        <ele>126.5</ele>
        <time>2023-04-05T08:53:32Z</time>
      </trkpt>
      <trkpt lat="47.94093" lon="-3.83918">
        <ele>126.7</ele>
        <time>2023-04-05T08:53:33Z</time>
      </trkpt>
      <trkpt lat="47.94095" lon="-3.83917">
        <ele>127</ele>
        <time>2023-04-05T08:53:34Z</time>
      </trkpt>
      <trkpt lat="47.94098" lon="-3.83914">
        <ele>127.3</ele>
        <time>2023-04-05T08:53:35Z</time>
      </trkpt>
      <trkpt lat="47.94099" lon="-3.83913">
        <ele>127.4</ele>
        <time>2023-04-05T08:53:36Z</time>
      </trkpt>
      <trkpt lat="47.94101" lon="-3.83911">
        <ele>127.6</ele>
        <time>2023-04-05T08:53:37Z</time>
      </trkpt>
      <trkpt lat="47.94102" lon="-3.8391">
        <ele>127.7</ele>
        <time>2023-04-05T08:53:38Z</time>
      </trkpt>
      <trkpt lat="47.94105" lon="-3.83908">
        <ele>128</ele>
        <time>2023-04-05T08:53:39Z</time>
      </trkpt>
      <trkpt lat="47.94106" lon="-3.83907">
        <ele>128.1</ele>
        <time>2023-04-05T08:53:40Z</time>
      </trkpt>
      <trkpt lat="47.94109" lon="-3.83904">
        <ele>128.4</ele>
        <time>2023-04-05T08:53:42Z</time>
      </trkpt>
      <trkpt lat="47.94112" lon="-3.83901">
        <ele>128.8</ele>
        <time>2023-04-05T08:53:43Z</time>
      </trkpt>
      <trkpt lat="47.94114" lon="-3.83899">
        <ele>129</ele>
        <time>2023-04-05T08:53:44Z</time>
      </trkpt>
      <trkpt lat="47.94116" lon="-3.83897">
        <ele>129.3</ele>
        <time>2023-04-05T08:53:46Z</time>
      </trkpt>
      <trkpt lat="47.94118" lon="-3.83896">
        <ele>129.5</ele>
        <time>2023-04-05T08:53:47Z</time>
      </trkpt>
      <trkpt lat="47.9412" lon="-3.83895">
        <ele>129.6</ele>
        <time>2023-04-05T08:53:48Z</time>
      </trkpt>
      <trkpt lat="47.94122" lon="-3.83892">
        <ele>129.9</ele>
        <time>2023-04-05T08:53:49Z</time>
      </trkpt>
      <trkpt lat="47.94123" lon="-3.83892">
        <ele>130</ele>
        <time>2023-04-05T08:53:50Z</time>
      </trkpt>
      <trkpt lat="47.94125" lon="-3.83888">
        <ele>130.3</ele>
        <time>2023-04-05T08:53:51Z</time>
      </trkpt>
      <trkpt lat="47.94126" lon="-3.83887">
        <ele>130.4</ele>
        <time>2023-04-05T08:53:52Z</time>
      </trkpt>
      <trkpt lat="47.94129" lon="-3.83885">
        <ele>130.7</ele>
        <time>2023-04-05T08:53:53Z</time>
      </trkpt>
      <trkpt lat="47.94129" lon="-3.83885">
        <ele>130.8</ele>
        <time>2023-04-05T08:53:54Z</time>
      </trkpt>
      <trkpt lat="47.94133" lon="-3.83883">
        <ele>131.2</ele>
        <time>2023-04-05T08:53:55Z</time>
      </trkpt>
      <trkpt lat="47.94134" lon="-3.83882">
        <ele>131.3</ele>
        <time>2023-04-05T08:53:56Z</time>
      </trkpt>
      <trkpt lat="47.94137" lon="-3.83879">
        <ele>131.7</ele>
        <time>2023-04-05T08:53:57Z</time>
      </trkpt>
      <trkpt lat="47.94138" lon="-3.83879">
        <ele>131.8</ele>
        <time>2023-04-05T08:53:58Z</time>
      </trkpt>
      <trkpt lat="47.9414" lon="-3.83877">
        <ele>132.1</ele>
        <time>2023-04-05T08:53:59Z</time>
      </trkpt>
      <trkpt lat="47.94141" lon="-3.83877">
        <ele>132.2</ele>
        <time>2023-04-05T08:54:00Z</time>
      </trkpt>
      <trkpt lat="47.94143" lon="-3.83876">
        <ele>132.5</ele>
        <time>2023-04-05T08:54:01Z</time>
      </trkpt>
      <trkpt lat="47.94145" lon="-3.83875">
        <ele>132.6</ele>
        <time>2023-04-05T08:54:02Z</time>
      </trkpt>
      <trkpt lat="47.94146" lon="-3.83874">
        <ele>132.8</ele>
        <time>2023-04-05T08:54:03Z</time>
      </trkpt>
      <trkpt lat="47.94148" lon="-3.83873">
        <ele>133.1</ele>
        <time>2023-04-05T08:54:04Z</time>
      </trkpt>
      <trkpt lat="47.94148" lon="-3.83872">
        <ele>133.2</ele>
        <time>2023-04-05T08:54:05Z</time>
      </trkpt>
      <trkpt lat="47.9415" lon="-3.8387">
        <ele>133.5</ele>
        <time>2023-04-05T08:54:06Z</time>
      </trkpt>
      <trkpt lat="47.94153" lon="-3.83867">
        <ele>133.9</ele>
        <time>2023-04-05T08:54:07Z</time>
      </trkpt>
      <trkpt lat="47.94154" lon="-3.83867">
        <ele>134</ele>
        <time>2023-04-05T08:54:08Z</time>
      </trkpt>
      <trkpt lat="47.94156" lon="-3.83864">
        <ele>134.4</ele>
        <time>2023-04-05T08:54:10Z</time>
      </trkpt>
      <trkpt lat="47.94156" lon="-3.83863">
        <ele>134.5</ele>
        <time>2023-04-05T08:54:11Z</time>
      </trkpt>
      <trkpt lat="47.94158" lon="-3.83861">
        <ele>134.7</ele>
        <time>2023-04-05T08:54:12Z</time>
      </trkpt>
      <trkpt lat="47.94159" lon="-3.83859">
        <ele>134.9</ele>
        <time>2023-04-05T08:54:13Z</time>
      </trkpt>
      <trkpt lat="47.9416" lon="-3.83857">
        <ele>135.1</ele>
        <time>2023-04-05T08:54:14Z</time>
      </trkpt>
      <trkpt lat="47.94161" lon="-3.83856">
        <ele>135.3</ele>
        <time>2023-04-05T08:54:15Z</time>
      </trkpt>
      <trkpt lat="47.94162" lon="-3.83855">
        <ele>135.4</ele>
        <time>2023-04-05T08:54:16Z</time>
      </trkpt>
      <trkpt lat="47.94165" lon="-3.83853">
        <ele>135.9</ele>
        <time>2023-04-05T08:54:17Z</time>
      </trkpt>
      <trkpt lat="47.94166" lon="-3.83853">
        <ele>136</ele>
        <time>2023-04-05T08:54:18Z</time>
      </trkpt>
      <trkpt lat="47.94169" lon="-3.83851">
        <ele>136.4</ele>
        <time>2023-04-05T08:54:19Z</time>
      </trkpt>
      <trkpt lat="47.9417" lon="-3.83851">
        <ele>136.5</ele>
        <time>2023-04-05T08:54:20Z</time>
      </trkpt>
      <trkpt lat="47.94173" lon="-3.83849">
        <ele>136.9</ele>
        <time>2023-04-05T08:54:21Z</time>
      </trkpt>
      <trkpt lat="47.94173" lon="-3.83848">
        <ele>137</ele>
        <time>2023-04-05T08:54:22Z</time>
      </trkpt>
      <trkpt lat="47.94175" lon="-3.83847">
        <ele>137.2</ele>
        <time>2023-04-05T08:54:23Z</time>
      </trkpt>
      <trkpt lat="47.94177" lon="-3.83846">
        <ele>137.5</ele>
        <time>2023-04-05T08:54:24Z</time>
      </trkpt>
      <trkpt lat="47.94179" lon="-3.83844">
        <ele>137.8</ele>
        <time>2023-04-05T08:54:25Z</time>
      </trkpt>
      <trkpt lat="47.9418" lon="-3.83843">
        <ele>137.9</ele>
        <time>2023-04-05T08:54:26Z</time>
      </trkpt>
      <trkpt lat="47.94181" lon="-3.83841">
        <ele>138.2</ele>
        <time>2023-04-05T08:54:27Z</time>
      </trkpt>
      <trkpt lat="47.94182" lon="-3.8384">
        <ele>138.4</ele>
        <time>2023-04-05T08:54:28Z</time>
      </trkpt>
      <trkpt lat="47.94183" lon="-3.83839">
        <ele>138.5</ele>
        <time>2023-04-05T08:54:29Z</time>
      </trkpt>
      <trkpt lat="47.94186" lon="-3.83837">
        <ele>138.9</ele>
        <time>2023-04-05T08:54:30Z</time>
      </trkpt>
      <trkpt lat="47.94187" lon="-3.83836">
        <ele>139</ele>
        <time>2023-04-05T08:54:31Z</time>
      </trkpt>
      <trkpt lat="47.94189" lon="-3.83835">
        <ele>139.2</ele>
        <time>2023-04-05T08:54:32Z</time>
      </trkpt>
      <trkpt lat="47.9419" lon="-3.83834">
        <ele>139.4</ele>
        <time>2023-04-05T08:54:33Z</time>
      </trkpt>
      <trkpt lat="47.94194" lon="-3.83831">
        <ele>140</ele>
        <time>2023-04-05T08:54:35Z</time>
      </trkpt>
      <trkpt lat="47.94196" lon="-3.83829">
        <ele>140.2</ele>
        <time>2023-04-05T08:54:36Z</time>
      </trkpt>
      <trkpt lat="47.94199" lon="-3.83827">
        <ele>140.6</ele>
        <time>2023-04-05T08:54:38Z</time>
      </trkpt>
      <trkpt lat="47.94201" lon="-3.83826">
        <ele>140.7</ele>
        <time>2023-04-05T08:54:39Z</time>
      </trkpt>
      <trkpt lat="47.94203" lon="-3.83824">
        <ele>140.9</ele>
        <time>2023-04-05T08:54:41Z</time>
      </trkpt>
      <trkpt lat="47.94206" lon="-3.83822">
        <ele>141.2</ele>
        <time>2023-04-05T08:54:42Z</time>
      </trkpt>
      <trkpt lat="47.94207" lon="-3.83821">
        <ele>141.3</ele>
        <time>2023-04-05T08:54:43Z</time>
      </trkpt>
      <trkpt lat="47.94209" lon="-3.83817">
        <ele>141.6</ele>
        <time>2023-04-05T08:54:44Z</time>
      </trkpt>
      <trkpt lat="47.9421" lon="-3.83816">
        <ele>141.7</ele>
        <time>2023-04-05T08:54:45Z</time>
      </trkpt>
      <trkpt lat="47.94214" lon="-3.83813">
        <ele>141.9</ele>
        <time>2023-04-05T08:54:46Z</time>
      </trkpt>
      <trkpt lat="47.94215" lon="-3.83812">
        <ele>142</ele>
        <time>2023-04-05T08:54:47Z</time>
      </trkpt>
      <trkpt lat="47.94217" lon="-3.8381">
        <ele>142.3</ele>
        <time>2023-04-05T08:54:48Z</time>
      </trkpt>
      <trkpt lat="47.94219" lon="-3.83809">
        <ele>142.3</ele>
        <time>2023-04-05T08:54:49Z</time>
      </trkpt>
      <trkpt lat="47.94221" lon="-3.83807">
        <ele>142.6</ele>
        <time>2023-04-05T08:54:50Z</time>
      </trkpt>
      <trkpt lat="47.94223" lon="-3.83805">
        <ele>142.6</ele>
        <time>2023-04-05T08:54:51Z</time>
      </trkpt>
      <trkpt lat="47.94225" lon="-3.83803">
        <ele>142.8</ele>
        <time>2023-04-05T08:54:52Z</time>
      </trkpt>
      <trkpt lat="47.94226" lon="-3.83802">
        <ele>142.9</ele>
        <time>2023-04-05T08:54:53Z</time>
      </trkpt>
      <trkpt lat="47.94229" lon="-3.838">
        <ele>143.1</ele>
        <time>2023-04-05T08:54:54Z</time>
      </trkpt>
      <trkpt lat="47.9423" lon="-3.83799">
        <ele>143.1</ele>
        <time>2023-04-05T08:54:55Z</time>
      </trkpt>
      <trkpt lat="47.94232" lon="-3.83796">
        <ele>143.3</ele>
        <time>2023-04-05T08:54:57Z</time>
      </trkpt>
      <trkpt lat="47.94236" lon="-3.83792">
        <ele>143.5</ele>
        <time>2023-04-05T08:54:58Z</time>
      </trkpt>
      <trkpt lat="47.9424" lon="-3.83789">
        <ele>143.7</ele>
        <time>2023-04-05T08:55:00Z</time>
      </trkpt>
      <trkpt lat="47.94241" lon="-3.83788">
        <ele>143.8</ele>
        <time>2023-04-05T08:55:01Z</time>
      </trkpt>
      <trkpt lat="47.94244" lon="-3.83786">
        <ele>143.9</ele>
        <time>2023-04-05T08:55:03Z</time>
      </trkpt>
      <trkpt lat="47.94247" lon="-3.83784">
        <ele>144</ele>
        <time>2023-04-05T08:55:04Z</time>
      </trkpt>
      <trkpt lat="47.94247" lon="-3.83783">
        <ele>144.1</ele>
        <time>2023-04-05T08:55:05Z</time>
      </trkpt>
      <trkpt lat="47.94251" lon="-3.83781">
        <ele>144.1</ele>
        <time>2023-04-05T08:55:06Z</time>
      </trkpt>
      <trkpt lat="47.94252" lon="-3.83781">
        <ele>144.2</ele>
        <time>2023-04-05T08:55:07Z</time>
      </trkpt>
      <trkpt lat="47.94255" lon="-3.83779">
        <ele>144.2</ele>
        <time>2023-04-05T08:55:08Z</time>
      </trkpt>
      <trkpt lat="47.94257" lon="-3.83777">
        <ele>144.3</ele>
        <time>2023-04-05T08:55:09Z</time>
      </trkpt>
      <trkpt lat="47.94264" lon="-3.83771">
        <ele>144.4</ele>
        <time>2023-04-05T08:55:11Z</time>
      </trkpt>
      <trkpt lat="47.94268" lon="-3.83769">
        <ele>144.4</ele>
        <time>2023-04-05T08:55:13Z</time>
      </trkpt>
      <trkpt lat="47.94271" lon="-3.83767">
        <ele>144.4</ele>
        <time>2023-04-05T08:55:14Z</time>
      </trkpt>
      <trkpt lat="47.94274" lon="-3.83765">
        <ele>144.4</ele>
        <time>2023-04-05T08:55:15Z</time>
      </trkpt>
      <trkpt lat="47.94281" lon="-3.83761">
        <ele>144.4</ele>
        <time>2023-04-05T08:55:16Z</time>
      </trkpt>
      <trkpt lat="47.94285" lon="-3.83759">
        <ele>144.3</ele>
        <time>2023-04-05T08:55:18Z</time>
      </trkpt>
      <trkpt lat="47.94289" lon="-3.83756">
        <ele>144.3</ele>
        <time>2023-04-05T08:55:19Z</time>
      </trkpt>
      <trkpt lat="47.94293" lon="-3.83753">
        <ele>144.3</ele>
        <time>2023-04-05T08:55:20Z</time>
      </trkpt>
      <trkpt lat="47.94298" lon="-3.83749">
        <ele>144.2</ele>
        <time>2023-04-05T08:55:21Z</time>
      </trkpt>
      <trkpt lat="47.94302" lon="-3.83746">
        <ele>144.1</ele>
        <time>2023-04-05T08:55:22Z</time>
      </trkpt>
      <trkpt lat="47.94306" lon="-3.83742">
        <ele>144.1</ele>
        <time>2023-04-05T08:55:23Z</time>
      </trkpt>
      <trkpt lat="47.94311" lon="-3.83739">
        <ele>144</ele>
        <time>2023-04-05T08:55:24Z</time>
      </trkpt>
      <trkpt lat="47.94315" lon="-3.83735">
        <ele>143.9</ele>
        <time>2023-04-05T08:55:25Z</time>
      </trkpt>
      <trkpt lat="47.9432" lon="-3.83732">
        <ele>143.8</ele>
        <time>2023-04-05T08:55:26Z</time>
      </trkpt>
      <trkpt lat="47.94324" lon="-3.83729">
        <ele>143.6</ele>
        <time>2023-04-05T08:55:27Z</time>
      </trkpt>
      <trkpt lat="47.94329" lon="-3.83725">
        <ele>143.5</ele>
        <time>2023-04-05T08:55:28Z</time>
      </trkpt>
      <trkpt lat="47.94334" lon="-3.83723">
        <ele>143.5</ele>
        <time>2023-04-05T08:55:29Z</time>
      </trkpt>
      <trkpt lat="47.9434" lon="-3.83721">
        <ele>143.4</ele>
        <time>2023-04-05T08:55:30Z</time>
      </trkpt>
      <trkpt lat="47.94345" lon="-3.8372">
        <ele>143.3</ele>
        <time>2023-04-05T08:55:31Z</time>
      </trkpt>
      <trkpt lat="47.9435" lon="-3.8372">
        <ele>143.2</ele>
        <time>2023-04-05T08:55:32Z</time>
      </trkpt>
      <trkpt lat="47.94356" lon="-3.83719">
        <ele>143.1</ele>
        <time>2023-04-05T08:55:33Z</time>
      </trkpt>
      <trkpt lat="47.94362" lon="-3.83719">
        <ele>143</ele>
        <time>2023-04-05T08:55:34Z</time>
      </trkpt>
      <trkpt lat="47.94367" lon="-3.83719">
        <ele>142.9</ele>
        <time>2023-04-05T08:55:35Z</time>
      </trkpt>
      <trkpt lat="47.94373" lon="-3.8372">
        <ele>142.7</ele>
        <time>2023-04-05T08:55:36Z</time>
      </trkpt>
      <trkpt lat="47.9438" lon="-3.83719">
        <ele>142.6</ele>
        <time>2023-04-05T08:55:37Z</time>
      </trkpt>
      <trkpt lat="47.94386" lon="-3.83717">
        <ele>142.4</ele>
        <time>2023-04-05T08:55:38Z</time>
      </trkpt>
      <trkpt lat="47.94392" lon="-3.83717">
        <ele>142.2</ele>
        <time>2023-04-05T08:55:39Z</time>
      </trkpt>
      <trkpt lat="47.94398" lon="-3.83715">
        <ele>142</ele>
        <time>2023-04-05T08:55:40Z</time>
      </trkpt>
      <trkpt lat="47.94405" lon="-3.83713">
        <ele>141.8</ele>
        <time>2023-04-05T08:55:41Z</time>
      </trkpt>
      <trkpt lat="47.94411" lon="-3.83712">
        <ele>141.6</ele>
        <time>2023-04-05T08:55:42Z</time>
      </trkpt>
      <trkpt lat="47.94417" lon="-3.83709">
        <ele>141.5</ele>
        <time>2023-04-05T08:55:43Z</time>
      </trkpt>
      <trkpt lat="47.94424" lon="-3.83708">
        <ele>141.3</ele>
        <time>2023-04-05T08:55:44Z</time>
      </trkpt>
      <trkpt lat="47.9443" lon="-3.83707">
        <ele>141.2</ele>
        <time>2023-04-05T08:55:45Z</time>
      </trkpt>
      <trkpt lat="47.94436" lon="-3.83706">
        <ele>141</ele>
        <time>2023-04-05T08:55:46Z</time>
      </trkpt>
      <trkpt lat="47.94443" lon="-3.83704">
        <ele>140.9</ele>
        <time>2023-04-05T08:55:47Z</time>
      </trkpt>
      <trkpt lat="47.94449" lon="-3.83702">
        <ele>140.8</ele>
        <time>2023-04-05T08:55:48Z</time>
      </trkpt>
      <trkpt lat="47.94455" lon="-3.83701">
        <ele>140.7</ele>
        <time>2023-04-05T08:55:49Z</time>
      </trkpt>
      <trkpt lat="47.94461" lon="-3.837">
        <ele>140.5</ele>
        <time>2023-04-05T08:55:50Z</time>
      </trkpt>
      <trkpt lat="47.94467" lon="-3.83699">
        <ele>140.4</ele>
        <time>2023-04-05T08:55:51Z</time>
      </trkpt>
      <trkpt lat="47.94474" lon="-3.83698">
        <ele>140.2</ele>
        <time>2023-04-05T08:55:52Z</time>
      </trkpt>
      <trkpt lat="47.9448" lon="-3.83696">
        <ele>140.1</ele>
        <time>2023-04-05T08:55:53Z</time>
      </trkpt>
      <trkpt lat="47.94486" lon="-3.83694">
        <ele>139.9</ele>
        <time>2023-04-05T08:55:54Z</time>
      </trkpt>
      <trkpt lat="47.94492" lon="-3.83692">
        <ele>139.8</ele>
        <time>2023-04-05T08:55:55Z</time>
      </trkpt>
      <trkpt lat="47.94498" lon="-3.83688">
        <ele>139.6</ele>
        <time>2023-04-05T08:55:56Z</time>
      </trkpt>
      <trkpt lat="47.94504" lon="-3.83684">
        <ele>139.5</ele>
        <time>2023-04-05T08:55:57Z</time>
      </trkpt>
      <trkpt lat="47.94509" lon="-3.8368">
        <ele>139.4</ele>
        <time>2023-04-05T08:55:58Z</time>
      </trkpt>
      <trkpt lat="47.94514" lon="-3.83675">
        <ele>139.2</ele>
        <time>2023-04-05T08:55:59Z</time>
      </trkpt>
      <trkpt lat="47.9452" lon="-3.83671">
        <ele>139.1</ele>
        <time>2023-04-05T08:56:00Z</time>
      </trkpt>
      <trkpt lat="47.94525" lon="-3.83666">
        <ele>139</ele>
        <time>2023-04-05T08:56:01Z</time>
      </trkpt>
      <trkpt lat="47.9453" lon="-3.83659">
        <ele>138.8</ele>
        <time>2023-04-05T08:56:02Z</time>
      </trkpt>
      <trkpt lat="47.94535" lon="-3.83653">
        <ele>138.6</ele>
        <time>2023-04-05T08:56:03Z</time>
      </trkpt>
      <trkpt lat="47.94539" lon="-3.83646">
        <ele>138.4</ele>
        <time>2023-04-05T08:56:04Z</time>
      </trkpt>
      <trkpt lat="47.94543" lon="-3.83638">
        <ele>138.3</ele>
        <time>2023-04-05T08:56:05Z</time>
      </trkpt>
      <trkpt lat="47.94548" lon="-3.8363">
        <ele>138.1</ele>
        <time>2023-04-05T08:56:06Z</time>
      </trkpt>
      <trkpt lat="47.94552" lon="-3.83623">
        <ele>138</ele>
        <time>2023-04-05T08:56:07Z</time>
      </trkpt>
      <trkpt lat="47.94556" lon="-3.83615">
        <ele>137.9</ele>
        <time>2023-04-05T08:56:08Z</time>
      </trkpt>
      <trkpt lat="47.9456" lon="-3.83608">
        <ele>137.8</ele>
        <time>2023-04-05T08:56:09Z</time>
      </trkpt>
      <trkpt lat="47.94564" lon="-3.836">
        <ele>137.6</ele>
        <time>2023-04-05T08:56:10Z</time>
      </trkpt>
      <trkpt lat="47.94569" lon="-3.83593">
        <ele>137.5</ele>
        <time>2023-04-05T08:56:11Z</time>
      </trkpt>
      <trkpt lat="47.94573" lon="-3.83586">
        <ele>137.4</ele>
        <time>2023-04-05T08:56:12Z</time>
      </trkpt>
      <trkpt lat="47.94577" lon="-3.83579">
        <ele>137.3</ele>
        <time>2023-04-05T08:56:13Z</time>
      </trkpt>
      <trkpt lat="47.94582" lon="-3.83573">
        <ele>137.2</ele>
        <time>2023-04-05T08:56:14Z</time>
      </trkpt>
      <trkpt lat="47.94587" lon="-3.83565">
        <ele>137.1</ele>
        <time>2023-04-05T08:56:15Z</time>
      </trkpt>
      <trkpt lat="47.94591" lon="-3.83558">
        <ele>137</ele>
        <time>2023-04-05T08:56:16Z</time>
      </trkpt>
      <trkpt lat="47.94595" lon="-3.83551">
        <ele>136.8</ele>
        <time>2023-04-05T08:56:17Z</time>
      </trkpt>
      <trkpt lat="47.94599" lon="-3.83544">
        <ele>136.7</ele>
        <time>2023-04-05T08:56:18Z</time>
      </trkpt>
      <trkpt lat="47.94603" lon="-3.83536">
        <ele>136.6</ele>
        <time>2023-04-05T08:56:19Z</time>
      </trkpt>
      <trkpt lat="47.94607" lon="-3.83529">
        <ele>136.5</ele>
        <time>2023-04-05T08:56:20Z</time>
      </trkpt>
      <trkpt lat="47.94611" lon="-3.83522">
        <ele>136.4</ele>
        <time>2023-04-05T08:56:21Z</time>
      </trkpt>
      <trkpt lat="47.94615" lon="-3.83515">
        <ele>136.3</ele>
        <time>2023-04-05T08:56:22Z</time>
      </trkpt>
      <trkpt lat="47.94619" lon="-3.83508">
        <ele>136.2</ele>
        <time>2023-04-05T08:56:23Z</time>
      </trkpt>
      <trkpt lat="47.94624" lon="-3.83501">
        <ele>136.1</ele>
        <time>2023-04-05T08:56:24Z</time>
      </trkpt>
      <trkpt lat="47.94628" lon="-3.83493">
        <ele>136</ele>
        <time>2023-04-05T08:56:25Z</time>
      </trkpt>
      <trkpt lat="47.94632" lon="-3.83486">
        <ele>136</ele>
        <time>2023-04-05T08:56:26Z</time>
      </trkpt>
      <trkpt lat="47.94636" lon="-3.83479">
        <ele>135.9</ele>
        <time>2023-04-05T08:56:27Z</time>
      </trkpt>
      <trkpt lat="47.9464" lon="-3.83472">
        <ele>135.9</ele>
        <time>2023-04-05T08:56:28Z</time>
      </trkpt>
      <trkpt lat="47.94644" lon="-3.83465">
        <ele>135.9</ele>
        <time>2023-04-05T08:56:29Z</time>
      </trkpt>
      <trkpt lat="47.94649" lon="-3.83459">
        <ele>135.8</ele>
        <time>2023-04-05T08:56:30Z</time>
      </trkpt>
      <trkpt lat="47.94652" lon="-3.83452">
        <ele>135.8</ele>
        <time>2023-04-05T08:56:31Z</time>
      </trkpt>
      <trkpt lat="47.94657" lon="-3.83446">
        <ele>135.7</ele>
        <time>2023-04-05T08:56:32Z</time>
      </trkpt>
      <trkpt lat="47.9466" lon="-3.83439">
        <ele>135.7</ele>
        <time>2023-04-05T08:56:33Z</time>
      </trkpt>
      <trkpt lat="47.94664" lon="-3.83432">
        <ele>135.6</ele>
        <time>2023-04-05T08:56:34Z</time>
      </trkpt>
      <trkpt lat="47.94668" lon="-3.83425">
        <ele>135.6</ele>
        <time>2023-04-05T08:56:35Z</time>
      </trkpt>
      <trkpt lat="47.94672" lon="-3.83419">
        <ele>135.6</ele>
        <time>2023-04-05T08:56:36Z</time>
      </trkpt>
      <trkpt lat="47.94676" lon="-3.83413">
        <ele>135.5</ele>
        <time>2023-04-05T08:56:37Z</time>
      </trkpt>
      <trkpt lat="47.9468" lon="-3.83406">
        <ele>135.5</ele>
        <time>2023-04-05T08:56:38Z</time>
      </trkpt>
      <trkpt lat="47.94684" lon="-3.834">
        <ele>135.5</ele>
        <time>2023-04-05T08:56:39Z</time>
      </trkpt>
      <trkpt lat="47.94688" lon="-3.83394">
        <ele>135.4</ele>
        <time>2023-04-05T08:56:40Z</time>
      </trkpt>
      <trkpt lat="47.94692" lon="-3.83389">
        <ele>135.3</ele>
        <time>2023-04-05T08:56:41Z</time>
      </trkpt>
      <trkpt lat="47.94697" lon="-3.83383">
        <ele>135.3</ele>
        <time>2023-04-05T08:56:42Z</time>
      </trkpt>
      <trkpt lat="47.94701" lon="-3.83377">
        <ele>135.2</ele>
        <time>2023-04-05T08:56:43Z</time>
      </trkpt>
      <trkpt lat="47.94706" lon="-3.83371">
        <ele>135.1</ele>
        <time>2023-04-05T08:56:44Z</time>
      </trkpt>
      <trkpt lat="47.94711" lon="-3.83365">
        <ele>135</ele>
        <time>2023-04-05T08:56:45Z</time>
      </trkpt>
      <trkpt lat="47.94716" lon="-3.83359">
        <ele>135</ele>
        <time>2023-04-05T08:56:46Z</time>
      </trkpt>
      <trkpt lat="47.94721" lon="-3.83354">
        <ele>134.9</ele>
        <time>2023-04-05T08:56:47Z</time>
      </trkpt>
      <trkpt lat="47.94726" lon="-3.83349">
        <ele>134.8</ele>
        <time>2023-04-05T08:56:48Z</time>
      </trkpt>
      <trkpt lat="47.94732" lon="-3.83344">
        <ele>134.7</ele>
        <time>2023-04-05T08:56:49Z</time>
      </trkpt>
      <trkpt lat="47.94737" lon="-3.8334">
        <ele>134.6</ele>
        <time>2023-04-05T08:56:50Z</time>
      </trkpt>
      <trkpt lat="47.94742" lon="-3.83335">
        <ele>134.5</ele>
        <time>2023-04-05T08:56:51Z</time>
      </trkpt>
      <trkpt lat="47.94748" lon="-3.83331">
        <ele>134.4</ele>
        <time>2023-04-05T08:56:52Z</time>
      </trkpt>
      <trkpt lat="47.94754" lon="-3.83327">
        <ele>134.3</ele>
        <time>2023-04-05T08:56:53Z</time>
      </trkpt>
      <trkpt lat="47.9476" lon="-3.83323">
        <ele>134.2</ele>
        <time>2023-04-05T08:56:54Z</time>
      </trkpt>
      <trkpt lat="47.94766" lon="-3.8332">
        <ele>134.2</ele>
        <time>2023-04-05T08:56:55Z</time>
      </trkpt>
      <trkpt lat="47.94771" lon="-3.83316">
        <ele>134.1</ele>
        <time>2023-04-05T08:56:56Z</time>
      </trkpt>
      <trkpt lat="47.94777" lon="-3.83313">
        <ele>134.1</ele>
        <time>2023-04-05T08:56:57Z</time>
      </trkpt>
      <trkpt lat="47.94783" lon="-3.8331">
        <ele>134</ele>
        <time>2023-04-05T08:56:58Z</time>
      </trkpt>
      <trkpt lat="47.94788" lon="-3.83307">
        <ele>133.9</ele>
        <time>2023-04-05T08:56:59Z</time>
      </trkpt>
      <trkpt lat="47.94794" lon="-3.83304">
        <ele>133.8</ele>
        <time>2023-04-05T08:57:00Z</time>
      </trkpt>
      <trkpt lat="47.94799" lon="-3.83301">
        <ele>133.7</ele>
        <time>2023-04-05T08:57:01Z</time>
      </trkpt>
      <trkpt lat="47.94805" lon="-3.83298">
        <ele>133.6</ele>
        <time>2023-04-05T08:57:02Z</time>
      </trkpt>
      <trkpt lat="47.9481" lon="-3.83294">
        <ele>133.5</ele>
        <time>2023-04-05T08:57:03Z</time>
      </trkpt>
      <trkpt lat="47.94816" lon="-3.83291">
        <ele>133.4</ele>
        <time>2023-04-05T08:57:04Z</time>
      </trkpt>
      <trkpt lat="47.94821" lon="-3.83288">
        <ele>133.4</ele>
        <time>2023-04-05T08:57:05Z</time>
      </trkpt>
      <trkpt lat="47.94826" lon="-3.83284">
        <ele>133.4</ele>
        <time>2023-04-05T08:57:06Z</time>
      </trkpt>
      <trkpt lat="47.94831" lon="-3.83282">
        <ele>133.3</ele>
        <time>2023-04-05T08:57:07Z</time>
      </trkpt>
      <trkpt lat="47.94837" lon="-3.83279">
        <ele>133.3</ele>
        <time>2023-04-05T08:57:08Z</time>
      </trkpt>
      <trkpt lat="47.94842" lon="-3.83276">
        <ele>133.2</ele>
        <time>2023-04-05T08:57:09Z</time>
      </trkpt>
      <trkpt lat="47.94847" lon="-3.83274">
        <ele>133.2</ele>
        <time>2023-04-05T08:57:10Z</time>
      </trkpt>
      <trkpt lat="47.94852" lon="-3.83273">
        <ele>133.2</ele>
        <time>2023-04-05T08:57:11Z</time>
      </trkpt>
      <trkpt lat="47.94858" lon="-3.83275">
        <ele>133.2</ele>
        <time>2023-04-05T08:57:12Z</time>
      </trkpt>
      <trkpt lat="47.94862" lon="-3.8328">
        <ele>133.2</ele>
        <time>2023-04-05T08:57:13Z</time>
      </trkpt>
      <trkpt lat="47.94866" lon="-3.83286">
        <ele>133.2</ele>
        <time>2023-04-05T08:57:14Z</time>
      </trkpt>
      <trkpt lat="47.94869" lon="-3.83291">
        <ele>133.1</ele>
        <time>2023-04-05T08:57:15Z</time>
      </trkpt>
      <trkpt lat="47.94873" lon="-3.83297">
        <ele>133.1</ele>
        <time>2023-04-05T08:57:16Z</time>
      </trkpt>
      <trkpt lat="47.94878" lon="-3.83301">
        <ele>133.2</ele>
        <time>2023-04-05T08:57:17Z</time>
      </trkpt>
      <trkpt lat="47.94882" lon="-3.83306">
        <ele>133.2</ele>
        <time>2023-04-05T08:57:18Z</time>
      </trkpt>
      <trkpt lat="47.94886" lon="-3.83311">
        <ele>133.3</ele>
        <time>2023-04-05T08:57:19Z</time>
      </trkpt>
      <trkpt lat="47.94891" lon="-3.83315">
        <ele>133.4</ele>
        <time>2023-04-05T08:57:20Z</time>
      </trkpt>
      <trkpt lat="47.94895" lon="-3.8332">
        <ele>133.5</ele>
        <time>2023-04-05T08:57:21Z</time>
      </trkpt>
      <trkpt lat="47.94899" lon="-3.83324">
        <ele>133.6</ele>
        <time>2023-04-05T08:57:22Z</time>
      </trkpt>
      <trkpt lat="47.94903" lon="-3.83328">
        <ele>133.8</ele>
        <time>2023-04-05T08:57:23Z</time>
      </trkpt>
      <trkpt lat="47.94907" lon="-3.83332">
        <ele>133.9</ele>
        <time>2023-04-05T08:57:24Z</time>
      </trkpt>
      <trkpt lat="47.94911" lon="-3.83336">
        <ele>134.1</ele>
        <time>2023-04-05T08:57:25Z</time>
      </trkpt>
      <trkpt lat="47.94913" lon="-3.83339">
        <ele>134.2</ele>
        <time>2023-04-05T08:57:26Z</time>
      </trkpt>
      <trkpt lat="47.94916" lon="-3.83342">
        <ele>134.3</ele>
        <time>2023-04-05T08:57:27Z</time>
      </trkpt>
      <trkpt lat="47.94919" lon="-3.83345">
        <ele>134.5</ele>
        <time>2023-04-05T08:57:28Z</time>
      </trkpt>
      <trkpt lat="47.94924" lon="-3.8335">
        <ele>134.7</ele>
        <time>2023-04-05T08:57:29Z</time>
      </trkpt>
      <trkpt lat="47.94928" lon="-3.83355">
        <ele>134.9</ele>
        <time>2023-04-05T08:57:30Z</time>
      </trkpt>
      <trkpt lat="47.94932" lon="-3.8336">
        <ele>135.2</ele>
        <time>2023-04-05T08:57:31Z</time>
      </trkpt>
      <trkpt lat="47.94935" lon="-3.83363">
        <ele>135.4</ele>
        <time>2023-04-05T08:57:32Z</time>
      </trkpt>
      <trkpt lat="47.94939" lon="-3.83368">
        <ele>135.6</ele>
        <time>2023-04-05T08:57:33Z</time>
      </trkpt>
      <trkpt lat="47.94943" lon="-3.83372">
        <ele>135.9</ele>
        <time>2023-04-05T08:57:34Z</time>
      </trkpt>
      <trkpt lat="47.94947" lon="-3.83377">
        <ele>136.2</ele>
        <time>2023-04-05T08:57:35Z</time>
      </trkpt>
      <trkpt lat="47.9495" lon="-3.8338">
        <ele>136.4</ele>
        <time>2023-04-05T08:57:36Z</time>
      </trkpt>
      <trkpt lat="47.94954" lon="-3.83385">
        <ele>136.8</ele>
        <time>2023-04-05T08:57:38Z</time>
      </trkpt>
      <trkpt lat="47.94961" lon="-3.83391">
        <ele>137.2</ele>
        <time>2023-04-05T08:57:39Z</time>
      </trkpt>
      <trkpt lat="47.94963" lon="-3.83394">
        <ele>137.4</ele>
        <time>2023-04-05T08:57:41Z</time>
      </trkpt>
      <trkpt lat="47.94969" lon="-3.83399">
        <ele>137.7</ele>
        <time>2023-04-05T08:57:42Z</time>
      </trkpt>
      <trkpt lat="47.94973" lon="-3.83403">
        <ele>138</ele>
        <time>2023-04-05T08:57:44Z</time>
      </trkpt>
      <trkpt lat="47.94976" lon="-3.83406">
        <ele>138.1</ele>
        <time>2023-04-05T08:57:45Z</time>
      </trkpt>
      <trkpt lat="47.94982" lon="-3.8341">
        <ele>138.4</ele>
        <time>2023-04-05T08:57:46Z</time>
      </trkpt>
      <trkpt lat="47.94986" lon="-3.83412">
        <ele>138.4</ele>
        <time>2023-04-05T08:57:48Z</time>
      </trkpt>
      <trkpt lat="47.9499" lon="-3.83412">
        <ele>138.3</ele>
        <time>2023-04-05T08:57:49Z</time>
      </trkpt>
      <trkpt lat="47.94991" lon="-3.83411">
        <ele>138.3</ele>
        <time>2023-04-05T08:57:50Z</time>
      </trkpt>
      <trkpt lat="47.94994" lon="-3.8341">
        <ele>138.4</ele>
        <time>2023-04-05T08:57:51Z</time>
      </trkpt>
      <trkpt lat="47.94998" lon="-3.83413">
        <ele>138.6</ele>
        <time>2023-04-05T08:57:52Z</time>
      </trkpt>
      <trkpt lat="47.95002" lon="-3.83417">
        <ele>138.8</ele>
        <time>2023-04-05T08:57:53Z</time>
      </trkpt>
      <trkpt lat="47.95005" lon="-3.83421">
        <ele>139</ele>
        <time>2023-04-05T08:57:54Z</time>
      </trkpt>
      <trkpt lat="47.95008" lon="-3.83424">
        <ele>139.2</ele>
        <time>2023-04-05T08:57:55Z</time>
      </trkpt>
      <trkpt lat="47.9501" lon="-3.83426">
        <ele>139.4</ele>
        <time>2023-04-05T08:57:56Z</time>
      </trkpt>
      <trkpt lat="47.95013" lon="-3.8343">
        <ele>139.5</ele>
        <time>2023-04-05T08:57:57Z</time>
      </trkpt>
      <trkpt lat="47.95014" lon="-3.83435">
        <ele>139.7</ele>
        <time>2023-04-05T08:57:58Z</time>
      </trkpt>
      <trkpt lat="47.95015" lon="-3.8344">
        <ele>139.9</ele>
        <time>2023-04-05T08:57:59Z</time>
      </trkpt>
      <trkpt lat="47.95018" lon="-3.83444">
        <ele>140</ele>
        <time>2023-04-05T08:58:00Z</time>
      </trkpt>
      <trkpt lat="47.9502" lon="-3.83449">
        <ele>140.2</ele>
        <time>2023-04-05T08:58:01Z</time>
      </trkpt>
      <trkpt lat="47.95021" lon="-3.83454">
        <ele>140.3</ele>
        <time>2023-04-05T08:58:02Z</time>
      </trkpt>
      <trkpt lat="47.95022" lon="-3.8346">
        <ele>140.3</ele>
        <time>2023-04-05T08:58:03Z</time>
      </trkpt>
      <trkpt lat="47.95023" lon="-3.83464">
        <ele>140.4</ele>
        <time>2023-04-05T08:58:04Z</time>
      </trkpt>
      <trkpt lat="47.95025" lon="-3.83469">
        <ele>140.4</ele>
        <time>2023-04-05T08:58:05Z</time>
      </trkpt>
      <trkpt lat="47.95028" lon="-3.83474">
        <ele>140.4</ele>
        <time>2023-04-05T08:58:06Z</time>
      </trkpt>
      <trkpt lat="47.95029" lon="-3.83479">
        <ele>140.4</ele>
        <time>2023-04-05T08:58:07Z</time>
      </trkpt>
      <trkpt lat="47.95031" lon="-3.83484">
        <ele>140.4</ele>
        <time>2023-04-05T08:58:08Z</time>
      </trkpt>
      <trkpt lat="47.95033" lon="-3.8349">
        <ele>140.4</ele>
        <time>2023-04-05T08:58:09Z</time>
      </trkpt>
      <trkpt lat="47.95034" lon="-3.83496">
        <ele>140.4</ele>
        <time>2023-04-05T08:58:10Z</time>
      </trkpt>
      <trkpt lat="47.95035" lon="-3.83502">
        <ele>140.3</ele>
        <time>2023-04-05T08:58:11Z</time>
      </trkpt>
      <trkpt lat="47.95036" lon="-3.83508">
        <ele>140.2</ele>
        <time>2023-04-05T08:58:12Z</time>
      </trkpt>
      <trkpt lat="47.95037" lon="-3.83515">
        <ele>140.2</ele>
        <time>2023-04-05T08:58:13Z</time>
      </trkpt>
      <trkpt lat="47.95038" lon="-3.83522">
        <ele>140.1</ele>
        <time>2023-04-05T08:58:14Z</time>
      </trkpt>
      <trkpt lat="47.95041" lon="-3.83527">
        <ele>139.9</ele>
        <time>2023-04-05T08:58:15Z</time>
      </trkpt>
      <trkpt lat="47.95043" lon="-3.83534">
        <ele>139.8</ele>
        <time>2023-04-05T08:58:16Z</time>
      </trkpt>
      <trkpt lat="47.95045" lon="-3.83541">
        <ele>139.6</ele>
        <time>2023-04-05T08:58:17Z</time>
      </trkpt>
      <trkpt lat="47.95048" lon="-3.83548">
        <ele>139.5</ele>
        <time>2023-04-05T08:58:18Z</time>
      </trkpt>
      <trkpt lat="47.95051" lon="-3.83555">
        <ele>139.3</ele>
        <time>2023-04-05T08:58:19Z</time>
      </trkpt>
      <trkpt lat="47.95055" lon="-3.83561">
        <ele>139.1</ele>
        <time>2023-04-05T08:58:20Z</time>
      </trkpt>
      <trkpt lat="47.95059" lon="-3.83568">
        <ele>139</ele>
        <time>2023-04-05T08:58:21Z</time>
      </trkpt>
      <trkpt lat="47.95064" lon="-3.83574">
        <ele>138.9</ele>
        <time>2023-04-05T08:58:22Z</time>
      </trkpt>
      <trkpt lat="47.95068" lon="-3.83579">
        <ele>138.8</ele>
        <time>2023-04-05T08:58:23Z</time>
      </trkpt>
      <trkpt lat="47.95072" lon="-3.83585">
        <ele>138.7</ele>
        <time>2023-04-05T08:58:24Z</time>
      </trkpt>
      <trkpt lat="47.95076" lon="-3.8359">
        <ele>138.7</ele>
        <time>2023-04-05T08:58:25Z</time>
      </trkpt>
      <trkpt lat="47.9508" lon="-3.83596">
        <ele>138.7</ele>
        <time>2023-04-05T08:58:26Z</time>
      </trkpt>
      <trkpt lat="47.95083" lon="-3.83602">
        <ele>138.6</ele>
        <time>2023-04-05T08:58:27Z</time>
      </trkpt>
      <trkpt lat="47.95087" lon="-3.83608">
        <ele>138.6</ele>
        <time>2023-04-05T08:58:28Z</time>
      </trkpt>
      <trkpt lat="47.9509" lon="-3.83612">
        <ele>138.6</ele>
        <time>2023-04-05T08:58:29Z</time>
      </trkpt>
      <trkpt lat="47.95095" lon="-3.83617">
        <ele>138.6</ele>
        <time>2023-04-05T08:58:30Z</time>
      </trkpt>
      <trkpt lat="47.95099" lon="-3.83621">
        <ele>138.7</ele>
        <time>2023-04-05T08:58:31Z</time>
      </trkpt>
      <trkpt lat="47.95104" lon="-3.83624">
        <ele>138.8</ele>
        <time>2023-04-05T08:58:32Z</time>
      </trkpt>
      <trkpt lat="47.95108" lon="-3.83627">
        <ele>138.9</ele>
        <time>2023-04-05T08:58:33Z</time>
      </trkpt>
      <trkpt lat="47.95113" lon="-3.8363">
        <ele>139</ele>
        <time>2023-04-05T08:58:34Z</time>
      </trkpt>
      <trkpt lat="47.95115" lon="-3.83631">
        <ele>139.1</ele>
        <time>2023-04-05T08:58:35Z</time>
      </trkpt>
      <trkpt lat="47.95121" lon="-3.83633">
        <ele>139.3</ele>
        <time>2023-04-05T08:58:36Z</time>
      </trkpt>
      <trkpt lat="47.95126" lon="-3.83635">
        <ele>139.5</ele>
        <time>2023-04-05T08:58:37Z</time>
      </trkpt>
      <trkpt lat="47.9513" lon="-3.83637">
        <ele>139.6</ele>
        <time>2023-04-05T08:58:38Z</time>
      </trkpt>
      <trkpt lat="47.95134" lon="-3.83639">
        <ele>139.7</ele>
        <time>2023-04-05T08:58:39Z</time>
      </trkpt>
      <trkpt lat="47.9514" lon="-3.83643">
        <ele>139.9</ele>
        <time>2023-04-05T08:58:40Z</time>
      </trkpt>
      <trkpt lat="47.95143" lon="-3.83644">
        <ele>140</ele>
        <time>2023-04-05T08:58:41Z</time>
      </trkpt>
      <trkpt lat="47.95146" lon="-3.83643">
        <ele>140.1</ele>
        <time>2023-04-05T08:58:42Z</time>
      </trkpt>
      <trkpt lat="47.95153" lon="-3.83646">
        <ele>140.4</ele>
        <time>2023-04-05T08:58:43Z</time>
      </trkpt>
      <trkpt lat="47.95158" lon="-3.83647">
        <ele>140.6</ele>
        <time>2023-04-05T08:58:44Z</time>
      </trkpt>
      <trkpt lat="47.95162" lon="-3.83646">
        <ele>140.7</ele>
        <time>2023-04-05T08:58:45Z</time>
      </trkpt>
      <trkpt lat="47.95164" lon="-3.83642">
        <ele>140.9</ele>
        <time>2023-04-05T08:58:46Z</time>
      </trkpt>
      <trkpt lat="47.95168" lon="-3.83635">
        <ele>141.1</ele>
        <time>2023-04-05T08:58:47Z</time>
      </trkpt>
      <trkpt lat="47.95172" lon="-3.83629">
        <ele>141.3</ele>
        <time>2023-04-05T08:58:48Z</time>
      </trkpt>
      <trkpt lat="47.95176" lon="-3.83625">
        <ele>141.5</ele>
        <time>2023-04-05T08:58:50Z</time>
      </trkpt>
      <trkpt lat="47.95179" lon="-3.8362">
        <ele>141.6</ele>
        <time>2023-04-05T08:58:51Z</time>
      </trkpt>
      <trkpt lat="47.95182" lon="-3.83614">
        <ele>141.8</ele>
        <time>2023-04-05T08:58:52Z</time>
      </trkpt>
      <trkpt lat="47.95184" lon="-3.8361">
        <ele>142</ele>
        <time>2023-04-05T08:58:53Z</time>
      </trkpt>
      <trkpt lat="47.95188" lon="-3.83606">
        <ele>142.2</ele>
        <time>2023-04-05T08:58:54Z</time>
      </trkpt>
      <trkpt lat="47.95194" lon="-3.83599">
        <ele>142.6</ele>
        <time>2023-04-05T08:58:55Z</time>
      </trkpt>
      <trkpt lat="47.95202" lon="-3.83595">
        <ele>143.1</ele>
        <time>2023-04-05T08:58:57Z</time>
      </trkpt>
      <trkpt lat="47.95206" lon="-3.83597">
        <ele>143.4</ele>
        <time>2023-04-05T08:58:58Z</time>
      </trkpt>
      <trkpt lat="47.95211" lon="-3.83598">
        <ele>143.7</ele>
        <time>2023-04-05T08:58:59Z</time>
      </trkpt>
      <trkpt lat="47.95218" lon="-3.83599">
        <ele>144.2</ele>
        <time>2023-04-05T08:59:01Z</time>
      </trkpt>
      <trkpt lat="47.95222" lon="-3.83602">
        <ele>144.5</ele>
        <time>2023-04-05T08:59:03Z</time>
      </trkpt>
      <trkpt lat="47.95225" lon="-3.83605">
        <ele>144.8</ele>
        <time>2023-04-05T08:59:04Z</time>
      </trkpt>
      <trkpt lat="47.95232" lon="-3.83609">
        <ele>145.3</ele>
        <time>2023-04-05T08:59:05Z</time>
      </trkpt>
      <trkpt lat="47.95235" lon="-3.83611">
        <ele>145.5</ele>
        <time>2023-04-05T08:59:06Z</time>
      </trkpt>
      <trkpt lat="47.95239" lon="-3.83613">
        <ele>145.8</ele>
        <time>2023-04-05T08:59:08Z</time>
      </trkpt>
      <trkpt lat="47.95241" lon="-3.83615">
        <ele>145.9</ele>
        <time>2023-04-05T08:59:09Z</time>
      </trkpt>
      <trkpt lat="47.95248" lon="-3.83619">
        <ele>146.3</ele>
        <time>2023-04-05T08:59:10Z</time>
      </trkpt>
      <trkpt lat="47.95252" lon="-3.83621">
        <ele>146.5</ele>
        <time>2023-04-05T08:59:12Z</time>
      </trkpt>
      <trkpt lat="47.95256" lon="-3.83623">
        <ele>146.6</ele>
        <time>2023-04-05T08:59:13Z</time>
      </trkpt>
      <trkpt lat="47.95259" lon="-3.83624">
        <ele>146.7</ele>
        <time>2023-04-05T08:59:14Z</time>
      </trkpt>
      <trkpt lat="47.95263" lon="-3.83626">
        <ele>146.9</ele>
        <time>2023-04-05T08:59:15Z</time>
      </trkpt>
      <trkpt lat="47.95267" lon="-3.83628">
        <ele>147</ele>
        <time>2023-04-05T08:59:16Z</time>
      </trkpt>
      <trkpt lat="47.9527" lon="-3.83629">
        <ele>147.1</ele>
        <time>2023-04-05T08:59:17Z</time>
      </trkpt>
      <trkpt lat="47.95274" lon="-3.8363">
        <ele>147.2</ele>
        <time>2023-04-05T08:59:18Z</time>
      </trkpt>
      <trkpt lat="47.95281" lon="-3.83634">
        <ele>147.4</ele>
        <time>2023-04-05T08:59:19Z</time>
      </trkpt>
      <trkpt lat="47.95289" lon="-3.83639">
        <ele>147.6</ele>
        <time>2023-04-05T08:59:21Z</time>
      </trkpt>
      <trkpt lat="47.95294" lon="-3.83642">
        <ele>147.7</ele>
        <time>2023-04-05T08:59:23Z</time>
      </trkpt>
      <trkpt lat="47.95298" lon="-3.83644">
        <ele>147.8</ele>
        <time>2023-04-05T08:59:24Z</time>
      </trkpt>
      <trkpt lat="47.95302" lon="-3.83645">
        <ele>148</ele>
        <time>2023-04-05T08:59:25Z</time>
      </trkpt>
      <trkpt lat="47.95309" lon="-3.83649">
        <ele>148.3</ele>
        <time>2023-04-05T08:59:26Z</time>
      </trkpt>
      <trkpt lat="47.95314" lon="-3.83651">
        <ele>148.5</ele>
        <time>2023-04-05T08:59:28Z</time>
      </trkpt>
      <trkpt lat="47.95318" lon="-3.83651">
        <ele>148.7</ele>
        <time>2023-04-05T08:59:29Z</time>
      </trkpt>
      <trkpt lat="47.95321" lon="-3.83653">
        <ele>148.8</ele>
        <time>2023-04-05T08:59:30Z</time>
      </trkpt>
      <trkpt lat="47.95325" lon="-3.83656">
        <ele>149</ele>
        <time>2023-04-05T08:59:31Z</time>
      </trkpt>
      <trkpt lat="47.95328" lon="-3.83659">
        <ele>149.2</ele>
        <time>2023-04-05T08:59:32Z</time>
      </trkpt>
      <trkpt lat="47.95331" lon="-3.83661">
        <ele>149.3</ele>
        <time>2023-04-05T08:59:33Z</time>
      </trkpt>
      <trkpt lat="47.95333" lon="-3.83665">
        <ele>149.4</ele>
        <time>2023-04-05T08:59:34Z</time>
      </trkpt>
      <trkpt lat="47.95336" lon="-3.83669">
        <ele>149.5</ele>
        <time>2023-04-05T08:59:35Z</time>
      </trkpt>
      <trkpt lat="47.95338" lon="-3.83674">
        <ele>149.6</ele>
        <time>2023-04-05T08:59:36Z</time>
      </trkpt>
      <trkpt lat="47.9534" lon="-3.83679">
        <ele>149.7</ele>
        <time>2023-04-05T08:59:37Z</time>
      </trkpt>
      <trkpt lat="47.95342" lon="-3.83683">
        <ele>149.8</ele>
        <time>2023-04-05T08:59:38Z</time>
      </trkpt>
      <trkpt lat="47.95345" lon="-3.83687">
        <ele>149.8</ele>
        <time>2023-04-05T08:59:39Z</time>
      </trkpt>
      <trkpt lat="47.95349" lon="-3.8369">
        <ele>149.8</ele>
        <time>2023-04-05T08:59:40Z</time>
      </trkpt>
      <trkpt lat="47.95352" lon="-3.83692">
        <ele>149.8</ele>
        <time>2023-04-05T08:59:41Z</time>
      </trkpt>
      <trkpt lat="47.95355" lon="-3.83695">
        <ele>149.7</ele>
        <time>2023-04-05T08:59:42Z</time>
      </trkpt>
      <trkpt lat="47.95359" lon="-3.83698">
        <ele>149.6</ele>
        <time>2023-04-05T08:59:43Z</time>
      </trkpt>
      <trkpt lat="47.95363" lon="-3.83701">
        <ele>149.4</ele>
        <time>2023-04-05T08:59:44Z</time>
      </trkpt>
      <trkpt lat="47.95369" lon="-3.83705">
        <ele>149.1</ele>
        <time>2023-04-05T08:59:45Z</time>
      </trkpt>
      <trkpt lat="47.95374" lon="-3.83709">
        <ele>148.9</ele>
        <time>2023-04-05T08:59:46Z</time>
      </trkpt>
      <trkpt lat="47.95378" lon="-3.83711">
        <ele>148.7</ele>
        <time>2023-04-05T08:59:47Z</time>
      </trkpt>
      <trkpt lat="47.95382" lon="-3.83714">
        <ele>148.7</ele>
        <time>2023-04-05T08:59:48Z</time>
      </trkpt>
      <trkpt lat="47.95384" lon="-3.83716">
        <ele>147.9</ele>
        <time>2023-04-05T08:59:49Z</time>
      </trkpt>
      <trkpt lat="47.95389" lon="-3.83719">
        <ele>147.9</ele>
        <time>2023-04-05T08:59:50Z</time>
      </trkpt>
      <trkpt lat="47.95391" lon="-3.8372">
        <ele>147.9</ele>
        <time>2023-04-05T08:59:51Z</time>
      </trkpt>
      <trkpt lat="47.95394" lon="-3.83722">
        <ele>148</ele>
        <time>2023-04-05T08:59:52Z</time>
      </trkpt>
      <trkpt lat="47.95399" lon="-3.83727">
        <ele>148.1</ele>
        <time>2023-04-05T08:59:54Z</time>
      </trkpt>
      <trkpt lat="47.95401" lon="-3.83734">
        <ele>148.1</ele>
        <time>2023-04-05T08:59:56Z</time>
      </trkpt>
      <trkpt lat="47.95401" lon="-3.8374">
        <ele>148.1</ele>
        <time>2023-04-05T08:59:57Z</time>
      </trkpt>
      <trkpt lat="47.954" lon="-3.83749">
        <ele>148.1</ele>
        <time>2023-04-05T08:59:58Z</time>
      </trkpt>
      <trkpt lat="47.95398" lon="-3.83757">
        <ele>148</ele>
        <time>2023-04-05T08:59:59Z</time>
      </trkpt>
      <trkpt lat="47.95394" lon="-3.83763">
        <ele>147.9</ele>
        <time>2023-04-05T09:00:00Z</time>
      </trkpt>
      <trkpt lat="47.9539" lon="-3.83768">
        <ele>147.8</ele>
        <time>2023-04-05T09:00:01Z</time>
      </trkpt>
      <trkpt lat="47.95385" lon="-3.83773">
        <ele>147.6</ele>
        <time>2023-04-05T09:00:02Z</time>
      </trkpt>
      <trkpt lat="47.9538" lon="-3.83778">
        <ele>147.5</ele>
        <time>2023-04-05T09:00:03Z</time>
      </trkpt>
      <trkpt lat="47.95375" lon="-3.83784">
        <ele>147.3</ele>
        <time>2023-04-05T09:00:04Z</time>
      </trkpt>
      <trkpt lat="47.95372" lon="-3.83791">
        <ele>147.2</ele>
        <time>2023-04-05T09:00:05Z</time>
      </trkpt>
      <trkpt lat="47.95368" lon="-3.83798">
        <ele>147.1</ele>
        <time>2023-04-05T09:00:06Z</time>
      </trkpt>
      <trkpt lat="47.95363" lon="-3.83805">
        <ele>147</ele>
        <time>2023-04-05T09:00:07Z</time>
      </trkpt>
      <trkpt lat="47.95359" lon="-3.83812">
        <ele>146.9</ele>
        <time>2023-04-05T09:00:08Z</time>
      </trkpt>
      <trkpt lat="47.95355" lon="-3.83819">
        <ele>146.9</ele>
        <time>2023-04-05T09:00:09Z</time>
      </trkpt>
      <trkpt lat="47.95351" lon="-3.83826">
        <ele>146.8</ele>
        <time>2023-04-05T09:00:10Z</time>
      </trkpt>
      <trkpt lat="47.95348" lon="-3.83832">
        <ele>146.7</ele>
        <time>2023-04-05T09:00:11Z</time>
      </trkpt>
      <trkpt lat="47.95346" lon="-3.83837">
        <ele>146.7</ele>
        <time>2023-04-05T09:00:12Z</time>
      </trkpt>
      <trkpt lat="47.95344" lon="-3.8384">
        <ele>146.7</ele>
        <time>2023-04-05T09:00:13Z</time>
      </trkpt>
      <trkpt lat="47.95344" lon="-3.83841">
        <ele>146.7</ele>
        <time>2023-04-05T09:00:14Z</time>
      </trkpt>
      <trkpt lat="47.95343" lon="-3.83843">
        <ele>146.7</ele>
        <time>2023-04-05T09:00:15Z</time>
      </trkpt>
      <trkpt lat="47.95342" lon="-3.83845">
        <ele>146.6</ele>
        <time>2023-04-05T09:00:16Z</time>
      </trkpt>
      <trkpt lat="47.95342" lon="-3.83849">
        <ele>146.6</ele>
        <time>2023-04-05T09:00:17Z</time>
      </trkpt>
      <trkpt lat="47.95342" lon="-3.83851">
        <ele>146.2</ele>
        <time>2023-04-05T09:00:18Z</time>
      </trkpt>
      <trkpt lat="47.95342" lon="-3.83856">
        <ele>145.9</ele>
        <time>2023-04-05T09:00:19Z</time>
      </trkpt>
      <trkpt lat="47.95344" lon="-3.83862">
        <ele>145.5</ele>
        <time>2023-04-05T09:00:20Z</time>
      </trkpt>
      <trkpt lat="47.95355" lon="-3.83863">
        <ele>144.5</ele>
        <time>2023-04-05T09:00:22Z</time>
      </trkpt>
      <trkpt lat="47.95363" lon="-3.83866">
        <ele>143.8</ele>
        <time>2023-04-05T09:00:23Z</time>
      </trkpt>
      <trkpt lat="47.95371" lon="-3.83869">
        <ele>143.2</ele>
        <time>2023-04-05T09:00:24Z</time>
      </trkpt>
      <trkpt lat="47.95378" lon="-3.83874">
        <ele>142.7</ele>
        <time>2023-04-05T09:00:25Z</time>
      </trkpt>
      <trkpt lat="47.95385" lon="-3.8388">
        <ele>142.3</ele>
        <time>2023-04-05T09:00:26Z</time>
      </trkpt>
      <trkpt lat="47.95391" lon="-3.83886">
        <ele>142</ele>
        <time>2023-04-05T09:00:27Z</time>
      </trkpt>
      <trkpt lat="47.95398" lon="-3.83891">
        <ele>141.8</ele>
        <time>2023-04-05T09:00:28Z</time>
      </trkpt>
      <trkpt lat="47.95405" lon="-3.83896">
        <ele>141.6</ele>
        <time>2023-04-05T09:00:29Z</time>
      </trkpt>
      <trkpt lat="47.95412" lon="-3.83901">
        <ele>141.5</ele>
        <time>2023-04-05T09:00:30Z</time>
      </trkpt>
      <trkpt lat="47.95418" lon="-3.83905">
        <ele>141.4</ele>
        <time>2023-04-05T09:00:31Z</time>
      </trkpt>
      <trkpt lat="47.95424" lon="-3.83909">
        <ele>141.3</ele>
        <time>2023-04-05T09:00:32Z</time>
      </trkpt>
      <trkpt lat="47.95431" lon="-3.83913">
        <ele>141.2</ele>
        <time>2023-04-05T09:00:33Z</time>
      </trkpt>
      <trkpt lat="47.95437" lon="-3.83916">
        <ele>141.1</ele>
        <time>2023-04-05T09:00:34Z</time>
      </trkpt>
      <trkpt lat="47.95443" lon="-3.83918">
        <ele>140.9</ele>
        <time>2023-04-05T09:00:35Z</time>
      </trkpt>
      <trkpt lat="47.9545" lon="-3.83921">
        <ele>140.9</ele>
        <time>2023-04-05T09:00:36Z</time>
      </trkpt>
      <trkpt lat="47.95456" lon="-3.83924">
        <ele>140.8</ele>
        <time>2023-04-05T09:00:37Z</time>
      </trkpt>
      <trkpt lat="47.95462" lon="-3.83926">
        <ele>140.7</ele>
        <time>2023-04-05T09:00:38Z</time>
      </trkpt>
      <trkpt lat="47.95468" lon="-3.83929">
        <ele>140.7</ele>
        <time>2023-04-05T09:00:39Z</time>
      </trkpt>
      <trkpt lat="47.95474" lon="-3.83932">
        <ele>140.7</ele>
        <time>2023-04-05T09:00:40Z</time>
      </trkpt>
      <trkpt lat="47.9548" lon="-3.83934">
        <ele>140.8</ele>
        <time>2023-04-05T09:00:41Z</time>
      </trkpt>
      <trkpt lat="47.95486" lon="-3.83936">
        <ele>140.8</ele>
        <time>2023-04-05T09:00:42Z</time>
      </trkpt>
      <trkpt lat="47.95492" lon="-3.83939">
        <ele>140.8</ele>
        <time>2023-04-05T09:00:43Z</time>
      </trkpt>
      <trkpt lat="47.95498" lon="-3.83941">
        <ele>140.9</ele>
        <time>2023-04-05T09:00:44Z</time>
      </trkpt>
      <trkpt lat="47.95503" lon="-3.83944">
        <ele>141.1</ele>
        <time>2023-04-05T09:00:45Z</time>
      </trkpt>
      <trkpt lat="47.95508" lon="-3.83946">
        <ele>141.2</ele>
        <time>2023-04-05T09:00:46Z</time>
      </trkpt>
      <trkpt lat="47.95513" lon="-3.83948">
        <ele>141.3</ele>
        <time>2023-04-05T09:00:47Z</time>
      </trkpt>
      <trkpt lat="47.95518" lon="-3.83949">
        <ele>141.5</ele>
        <time>2023-04-05T09:00:48Z</time>
      </trkpt>
      <trkpt lat="47.95523" lon="-3.8395">
        <ele>141.6</ele>
        <time>2023-04-05T09:00:49Z</time>
      </trkpt>
      <trkpt lat="47.95528" lon="-3.83952">
        <ele>141.8</ele>
        <time>2023-04-05T09:00:50Z</time>
      </trkpt>
      <trkpt lat="47.95533" lon="-3.83954">
        <ele>141.9</ele>
        <time>2023-04-05T09:00:51Z</time>
      </trkpt>
      <trkpt lat="47.95537" lon="-3.83955">
        <ele>142.1</ele>
        <time>2023-04-05T09:00:52Z</time>
      </trkpt>
      <trkpt lat="47.95542" lon="-3.83956">
        <ele>142.2</ele>
        <time>2023-04-05T09:00:53Z</time>
      </trkpt>
      <trkpt lat="47.95546" lon="-3.83957">
        <ele>142.4</ele>
        <time>2023-04-05T09:00:54Z</time>
      </trkpt>
      <trkpt lat="47.95551" lon="-3.83957">
        <ele>142.5</ele>
        <time>2023-04-05T09:00:55Z</time>
      </trkpt>
      <trkpt lat="47.95554" lon="-3.83956">
        <ele>142.6</ele>
        <time>2023-04-05T09:00:56Z</time>
      </trkpt>
      <trkpt lat="47.95558" lon="-3.83956">
        <ele>142.7</ele>
        <time>2023-04-05T09:00:57Z</time>
      </trkpt>
      <trkpt lat="47.95564" lon="-3.83956">
        <ele>142.9</ele>
        <time>2023-04-05T09:00:58Z</time>
      </trkpt>
      <trkpt lat="47.95567" lon="-3.83958">
        <ele>143</ele>
        <time>2023-04-05T09:00:59Z</time>
      </trkpt>
      <trkpt lat="47.95572" lon="-3.8396">
        <ele>143</ele>
        <time>2023-04-05T09:01:00Z</time>
      </trkpt>
      <trkpt lat="47.95577" lon="-3.83962">
        <ele>143</ele>
        <time>2023-04-05T09:01:01Z</time>
      </trkpt>
      <trkpt lat="47.95582" lon="-3.83963">
        <ele>142.9</ele>
        <time>2023-04-05T09:01:03Z</time>
      </trkpt>
      <trkpt lat="47.95588" lon="-3.8397">
        <ele>142.6</ele>
        <time>2023-04-05T09:01:04Z</time>
      </trkpt>
      <trkpt lat="47.95597" lon="-3.83975">
        <ele>142.2</ele>
        <time>2023-04-05T09:01:06Z</time>
      </trkpt>
      <trkpt lat="47.95604" lon="-3.83978">
        <ele>142</ele>
        <time>2023-04-05T09:01:07Z</time>
      </trkpt>
      <trkpt lat="47.95609" lon="-3.83982">
        <ele>141.7</ele>
        <time>2023-04-05T09:01:08Z</time>
      </trkpt>
      <trkpt lat="47.95614" lon="-3.83986">
        <ele>141.6</ele>
        <time>2023-04-05T09:01:09Z</time>
      </trkpt>
      <trkpt lat="47.95619" lon="-3.83992">
        <ele>141.5</ele>
        <time>2023-04-05T09:01:10Z</time>
      </trkpt>
      <trkpt lat="47.95625" lon="-3.83996">
        <ele>141.4</ele>
        <time>2023-04-05T09:01:11Z</time>
      </trkpt>
      <trkpt lat="47.9563" lon="-3.84">
        <ele>141.3</ele>
        <time>2023-04-05T09:01:12Z</time>
      </trkpt>
      <trkpt lat="47.95636" lon="-3.84002">
        <ele>141.2</ele>
        <time>2023-04-05T09:01:13Z</time>
      </trkpt>
      <trkpt lat="47.95642" lon="-3.84004">
        <ele>141.2</ele>
        <time>2023-04-05T09:01:14Z</time>
      </trkpt>
      <trkpt lat="47.95647" lon="-3.84006">
        <ele>141.2</ele>
        <time>2023-04-05T09:01:15Z</time>
      </trkpt>
      <trkpt lat="47.95653" lon="-3.84006">
        <ele>141.2</ele>
        <time>2023-04-05T09:01:16Z</time>
      </trkpt>
      <trkpt lat="47.95658" lon="-3.84006">
        <ele>141.3</ele>
        <time>2023-04-05T09:01:17Z</time>
      </trkpt>
      <trkpt lat="47.95664" lon="-3.84007">
        <ele>141.3</ele>
        <time>2023-04-05T09:01:18Z</time>
      </trkpt>
      <trkpt lat="47.95669" lon="-3.84007">
        <ele>141.4</ele>
        <time>2023-04-05T09:01:19Z</time>
      </trkpt>
      <trkpt lat="47.95675" lon="-3.84008">
        <ele>141.5</ele>
        <time>2023-04-05T09:01:20Z</time>
      </trkpt>
      <trkpt lat="47.9568" lon="-3.84008">
        <ele>141.7</ele>
        <time>2023-04-05T09:01:21Z</time>
      </trkpt>
      <trkpt lat="47.95685" lon="-3.84009">
        <ele>141.9</ele>
        <time>2023-04-05T09:01:22Z</time>
      </trkpt>
      <trkpt lat="47.9569" lon="-3.84008">
        <ele>142.1</ele>
        <time>2023-04-05T09:01:23Z</time>
      </trkpt>
      <trkpt lat="47.95694" lon="-3.84007">
        <ele>142.2</ele>
        <time>2023-04-05T09:01:24Z</time>
      </trkpt>
      <trkpt lat="47.95699" lon="-3.84008">
        <ele>142.4</ele>
        <time>2023-04-05T09:01:25Z</time>
      </trkpt>
      <trkpt lat="47.95703" lon="-3.84007">
        <ele>142.6</ele>
        <time>2023-04-05T09:01:26Z</time>
      </trkpt>
      <trkpt lat="47.95707" lon="-3.84007">
        <ele>142.8</ele>
        <time>2023-04-05T09:01:27Z</time>
      </trkpt>
      <trkpt lat="47.95711" lon="-3.84007">
        <ele>142.9</ele>
        <time>2023-04-05T09:01:28Z</time>
      </trkpt>
      <trkpt lat="47.95716" lon="-3.84007">
        <ele>143.1</ele>
        <time>2023-04-05T09:01:29Z</time>
      </trkpt>
      <trkpt lat="47.9572" lon="-3.84007">
        <ele>143.3</ele>
        <time>2023-04-05T09:01:30Z</time>
      </trkpt>
      <trkpt lat="47.95725" lon="-3.84007">
        <ele>143.5</ele>
        <time>2023-04-05T09:01:31Z</time>
      </trkpt>
      <trkpt lat="47.95728" lon="-3.84007">
        <ele>143.6</ele>
        <time>2023-04-05T09:01:32Z</time>
      </trkpt>
      <trkpt lat="47.95732" lon="-3.84007">
        <ele>143.8</ele>
        <time>2023-04-05T09:01:33Z</time>
      </trkpt>
      <trkpt lat="47.95738" lon="-3.84007">
        <ele>144</ele>
        <time>2023-04-05T09:01:34Z</time>
      </trkpt>
      <trkpt lat="47.95742" lon="-3.84007">
        <ele>144.2</ele>
        <time>2023-04-05T09:01:35Z</time>
      </trkpt>
      <trkpt lat="47.95746" lon="-3.84006">
        <ele>144.4</ele>
        <time>2023-04-05T09:01:36Z</time>
      </trkpt>
      <trkpt lat="47.95751" lon="-3.84005">
        <ele>144.6</ele>
        <time>2023-04-05T09:01:37Z</time>
      </trkpt>
      <trkpt lat="47.95755" lon="-3.84006">
        <ele>144.6</ele>
        <time>2023-04-05T09:01:38Z</time>
      </trkpt>
      <trkpt lat="47.95758" lon="-3.84009">
        <ele>144.6</ele>
        <time>2023-04-05T09:01:39Z</time>
      </trkpt>
      <trkpt lat="47.95763" lon="-3.84012">
        <ele>144.6</ele>
        <time>2023-04-05T09:01:41Z</time>
      </trkpt>
      <trkpt lat="47.95766" lon="-3.84015">
        <ele>144.6</ele>
        <time>2023-04-05T09:01:42Z</time>
      </trkpt>
      <trkpt lat="47.95769" lon="-3.84019">
        <ele>144.5</ele>
        <time>2023-04-05T09:01:43Z</time>
      </trkpt>
      <trkpt lat="47.95774" lon="-3.84024">
        <ele>144.5</ele>
        <time>2023-04-05T09:01:44Z</time>
      </trkpt>
      <trkpt lat="47.95778" lon="-3.84028">
        <ele>144.4</ele>
        <time>2023-04-05T09:01:45Z</time>
      </trkpt>
      <trkpt lat="47.95781" lon="-3.84034">
        <ele>144.4</ele>
        <time>2023-04-05T09:01:46Z</time>
      </trkpt>
      <trkpt lat="47.95783" lon="-3.84041">
        <ele>144.4</ele>
        <time>2023-04-05T09:01:47Z</time>
      </trkpt>
      <trkpt lat="47.95784" lon="-3.84048">
        <ele>144.3</ele>
        <time>2023-04-05T09:01:48Z</time>
      </trkpt>
      <trkpt lat="47.95786" lon="-3.84055">
        <ele>144.3</ele>
        <time>2023-04-05T09:01:49Z</time>
      </trkpt>
      <trkpt lat="47.95789" lon="-3.84062">
        <ele>144.3</ele>
        <time>2023-04-05T09:01:50Z</time>
      </trkpt>
      <trkpt lat="47.95793" lon="-3.84068">
        <ele>144.3</ele>
        <time>2023-04-05T09:01:51Z</time>
      </trkpt>
      <trkpt lat="47.95798" lon="-3.84071">
        <ele>144.3</ele>
        <time>2023-04-05T09:01:52Z</time>
      </trkpt>
      <trkpt lat="47.95803" lon="-3.84071">
        <ele>144.3</ele>
        <time>2023-04-05T09:01:53Z</time>
      </trkpt>
      <trkpt lat="47.95808" lon="-3.84068">
        <ele>144.3</ele>
        <time>2023-04-05T09:01:54Z</time>
      </trkpt>
      <trkpt lat="47.95813" lon="-3.84066">
        <ele>144.4</ele>
        <time>2023-04-05T09:01:55Z</time>
      </trkpt>
      <trkpt lat="47.95818" lon="-3.84065">
        <ele>144.4</ele>
        <time>2023-04-05T09:01:56Z</time>
      </trkpt>
      <trkpt lat="47.95823" lon="-3.84064">
        <ele>144.5</ele>
        <time>2023-04-05T09:01:57Z</time>
      </trkpt>
      <trkpt lat="47.95828" lon="-3.84064">
        <ele>144.6</ele>
        <time>2023-04-05T09:01:58Z</time>
      </trkpt>
      <trkpt lat="47.95832" lon="-3.84064">
        <ele>144.7</ele>
        <time>2023-04-05T09:01:59Z</time>
      </trkpt>
      <trkpt lat="47.95837" lon="-3.84064">
        <ele>144.8</ele>
        <time>2023-04-05T09:02:00Z</time>
      </trkpt>
      <trkpt lat="47.95841" lon="-3.84064">
        <ele>144.9</ele>
        <time>2023-04-05T09:02:01Z</time>
      </trkpt>
      <trkpt lat="47.95846" lon="-3.84064">
        <ele>144.9</ele>
        <time>2023-04-05T09:02:02Z</time>
      </trkpt>
      <trkpt lat="47.9585" lon="-3.84065">
        <ele>144.9</ele>
        <time>2023-04-05T09:02:03Z</time>
      </trkpt>
      <trkpt lat="47.95855" lon="-3.84066">
        <ele>144.9</ele>
        <time>2023-04-05T09:02:04Z</time>
      </trkpt>
      <trkpt lat="47.9586" lon="-3.84067">
        <ele>144.8</ele>
        <time>2023-04-05T09:02:05Z</time>
      </trkpt>
      <trkpt lat="47.95864" lon="-3.84069">
        <ele>144.7</ele>
        <time>2023-04-05T09:02:06Z</time>
      </trkpt>
      <trkpt lat="47.95868" lon="-3.84072">
        <ele>144.7</ele>
        <time>2023-04-05T09:02:07Z</time>
      </trkpt>
      <trkpt lat="47.95872" lon="-3.84076">
        <ele>144.7</ele>
        <time>2023-04-05T09:02:08Z</time>
      </trkpt>
      <trkpt lat="47.95877" lon="-3.84077">
        <ele>144.5</ele>
        <time>2023-04-05T09:02:09Z</time>
      </trkpt>
      <trkpt lat="47.95881" lon="-3.84075">
        <ele>144.5</ele>
        <time>2023-04-05T09:02:10Z</time>
      </trkpt>
      <trkpt lat="47.95885" lon="-3.84071">
        <ele>144.4</ele>
        <time>2023-04-05T09:02:11Z</time>
      </trkpt>
      <trkpt lat="47.95889" lon="-3.84067">
        <ele>144.4</ele>
        <time>2023-04-05T09:02:12Z</time>
      </trkpt>
      <trkpt lat="47.95893" lon="-3.84063">
        <ele>144.3</ele>
        <time>2023-04-05T09:02:13Z</time>
      </trkpt>
      <trkpt lat="47.95898" lon="-3.84059">
        <ele>144.2</ele>
        <time>2023-04-05T09:02:14Z</time>
      </trkpt>
      <trkpt lat="47.95903" lon="-3.84055">
        <ele>144.1</ele>
        <time>2023-04-05T09:02:15Z</time>
      </trkpt>
      <trkpt lat="47.95909" lon="-3.84053">
        <ele>143.9</ele>
        <time>2023-04-05T09:02:16Z</time>
      </trkpt>
      <trkpt lat="47.95916" lon="-3.84051">
        <ele>143.1</ele>
        <time>2023-04-05T09:02:17Z</time>
      </trkpt>
      <trkpt lat="47.95923" lon="-3.8405">
        <ele>142.1</ele>
        <time>2023-04-05T09:02:18Z</time>
      </trkpt>
      <trkpt lat="47.95932" lon="-3.84049">
        <ele>141</ele>
        <time>2023-04-05T09:02:19Z</time>
      </trkpt>
      <trkpt lat="47.95941" lon="-3.84047">
        <ele>139.7</ele>
        <time>2023-04-05T09:02:20Z</time>
      </trkpt>
      <trkpt lat="47.9595" lon="-3.84045">
        <ele>138.5</ele>
        <time>2023-04-05T09:02:21Z</time>
      </trkpt>
      <trkpt lat="47.95961" lon="-3.84043">
        <ele>137.9</ele>
        <time>2023-04-05T09:02:22Z</time>
      </trkpt>
      <trkpt lat="47.95971" lon="-3.84042">
        <ele>136.7</ele>
        <time>2023-04-05T09:02:23Z</time>
      </trkpt>
      <trkpt lat="47.95982" lon="-3.8404">
        <ele>135.4</ele>
        <time>2023-04-05T09:02:24Z</time>
      </trkpt>
      <trkpt lat="47.95992" lon="-3.84037">
        <ele>134</ele>
        <time>2023-04-05T09:02:25Z</time>
      </trkpt>
      <trkpt lat="47.96003" lon="-3.84035">
        <ele>132.7</ele>
        <time>2023-04-05T09:02:26Z</time>
      </trkpt>
      <trkpt lat="47.96014" lon="-3.84032">
        <ele>131.5</ele>
        <time>2023-04-05T09:02:27Z</time>
      </trkpt>
      <trkpt lat="47.96024" lon="-3.8403">
        <ele>130.5</ele>
        <time>2023-04-05T09:02:28Z</time>
      </trkpt>
      <trkpt lat="47.96033" lon="-3.84028">
        <ele>129.6</ele>
        <time>2023-04-05T09:02:29Z</time>
      </trkpt>
      <trkpt lat="47.96041" lon="-3.84026">
        <ele>129</ele>
        <time>2023-04-05T09:02:30Z</time>
      </trkpt>
      <trkpt lat="47.96049" lon="-3.84024">
        <ele>128.4</ele>
        <time>2023-04-05T09:02:31Z</time>
      </trkpt>
      <trkpt lat="47.96054" lon="-3.84018">
        <ele>127.9</ele>
        <time>2023-04-05T09:02:32Z</time>
      </trkpt>
      <trkpt lat="47.96057" lon="-3.84009">
        <ele>127.5</ele>
        <time>2023-04-05T09:02:33Z</time>
      </trkpt>
      <trkpt lat="47.96059" lon="-3.83999">
        <ele>127.1</ele>
        <time>2023-04-05T09:02:34Z</time>
      </trkpt>
      <trkpt lat="47.9606" lon="-3.83991">
        <ele>126.8</ele>
        <time>2023-04-05T09:02:35Z</time>
      </trkpt>
      <trkpt lat="47.9606" lon="-3.83982">
        <ele>126.5</ele>
        <time>2023-04-05T09:02:36Z</time>
      </trkpt>
      <trkpt lat="47.9606" lon="-3.83976">
        <ele>126.3</ele>
        <time>2023-04-05T09:02:37Z</time>
      </trkpt>
      <trkpt lat="47.9606" lon="-3.83972">
        <ele>126.2</ele>
        <time>2023-04-05T09:02:38Z</time>
      </trkpt>
      <trkpt lat="47.96061" lon="-3.83967">
        <ele>126</ele>
        <time>2023-04-05T09:02:39Z</time>
      </trkpt>
      <trkpt lat="47.96061" lon="-3.83966">
        <ele>126</ele>
        <time>2023-04-05T09:02:40Z</time>
      </trkpt>
      <trkpt lat="47.96065" lon="-3.83964">
        <ele>125.8</ele>
        <time>2023-04-05T09:02:41Z</time>
      </trkpt>
      <trkpt lat="47.96068" lon="-3.83964">
        <ele>125.7</ele>
        <time>2023-04-05T09:02:42Z</time>
      </trkpt>
      <trkpt lat="47.96072" lon="-3.83964">
        <ele>125.7</ele>
        <time>2023-04-05T09:02:43Z</time>
      </trkpt>
      <trkpt lat="47.96077" lon="-3.83966">
        <ele>125.6</ele>
        <time>2023-04-05T09:02:44Z</time>
      </trkpt>
      <trkpt lat="47.96085" lon="-3.8397">
        <ele>125.5</ele>
        <time>2023-04-05T09:02:45Z</time>
      </trkpt>
      <trkpt lat="47.96088" lon="-3.83973">
        <ele>125.4</ele>
        <time>2023-04-05T09:02:46Z</time>
      </trkpt>
      <trkpt lat="47.96093" lon="-3.83975">
        <ele>125.4</ele>
        <time>2023-04-05T09:02:47Z</time>
      </trkpt>
      <trkpt lat="47.96097" lon="-3.8398">
        <ele>125.3</ele>
        <time>2023-04-05T09:02:48Z</time>
      </trkpt>
      <trkpt lat="47.96102" lon="-3.83984">
        <ele>125.1</ele>
        <time>2023-04-05T09:02:49Z</time>
      </trkpt>
      <trkpt lat="47.96108" lon="-3.83988">
        <ele>125</ele>
        <time>2023-04-05T09:02:50Z</time>
      </trkpt>
      <trkpt lat="47.96113" lon="-3.83991">
        <ele>124.9</ele>
        <time>2023-04-05T09:02:51Z</time>
      </trkpt>
      <trkpt lat="47.96119" lon="-3.83995">
        <ele>124.7</ele>
        <time>2023-04-05T09:02:52Z</time>
      </trkpt>
      <trkpt lat="47.96124" lon="-3.83998">
        <ele>124.6</ele>
        <time>2023-04-05T09:02:53Z</time>
      </trkpt>
      <trkpt lat="47.9613" lon="-3.84001">
        <ele>124.4</ele>
        <time>2023-04-05T09:02:54Z</time>
      </trkpt>
      <trkpt lat="47.96137" lon="-3.84003">
        <ele>124.3</ele>
        <time>2023-04-05T09:02:55Z</time>
      </trkpt>
      <trkpt lat="47.96143" lon="-3.84007">
        <ele>124.1</ele>
        <time>2023-04-05T09:02:56Z</time>
      </trkpt>
      <trkpt lat="47.96149" lon="-3.84011">
        <ele>124</ele>
        <time>2023-04-05T09:02:57Z</time>
      </trkpt>
      <trkpt lat="47.96155" lon="-3.84015">
        <ele>123.9</ele>
        <time>2023-04-05T09:02:58Z</time>
      </trkpt>
      <trkpt lat="47.96161" lon="-3.84019">
        <ele>123.8</ele>
        <time>2023-04-05T09:02:59Z</time>
      </trkpt>
      <trkpt lat="47.96167" lon="-3.84022">
        <ele>123.7</ele>
        <time>2023-04-05T09:03:00Z</time>
      </trkpt>
      <trkpt lat="47.96173" lon="-3.84026">
        <ele>123.8</ele>
        <time>2023-04-05T09:03:01Z</time>
      </trkpt>
      <trkpt lat="47.96179" lon="-3.8403">
        <ele>123.9</ele>
        <time>2023-04-05T09:03:02Z</time>
      </trkpt>
      <trkpt lat="47.96185" lon="-3.84034">
        <ele>123.9</ele>
        <time>2023-04-05T09:03:03Z</time>
      </trkpt>
      <trkpt lat="47.96191" lon="-3.84036">
        <ele>123.9</ele>
        <time>2023-04-05T09:03:04Z</time>
      </trkpt>
      <trkpt lat="47.96198" lon="-3.84034">
        <ele>123.9</ele>
        <time>2023-04-05T09:03:05Z</time>
      </trkpt>
      <trkpt lat="47.96204" lon="-3.84032">
        <ele>124</ele>
        <time>2023-04-05T09:03:06Z</time>
      </trkpt>
      <trkpt lat="47.9621" lon="-3.8403">
        <ele>124</ele>
        <time>2023-04-05T09:03:07Z</time>
      </trkpt>
      <trkpt lat="47.96216" lon="-3.84029">
        <ele>124</ele>
        <time>2023-04-05T09:03:08Z</time>
      </trkpt>
      <trkpt lat="47.96221" lon="-3.84027">
        <ele>124</ele>
        <time>2023-04-05T09:03:09Z</time>
      </trkpt>
      <trkpt lat="47.96227" lon="-3.84025">
        <ele>124</ele>
        <time>2023-04-05T09:03:10Z</time>
      </trkpt>
      <trkpt lat="47.96232" lon="-3.84023">
        <ele>124</ele>
        <time>2023-04-05T09:03:11Z</time>
      </trkpt>
      <trkpt lat="47.96238" lon="-3.84021">
        <ele>124</ele>
        <time>2023-04-05T09:03:12Z</time>
      </trkpt>
      <trkpt lat="47.96243" lon="-3.8402">
        <ele>124</ele>
        <time>2023-04-05T09:03:13Z</time>
      </trkpt>
      <trkpt lat="47.96248" lon="-3.84018">
        <ele>123.9</ele>
        <time>2023-04-05T09:03:14Z</time>
      </trkpt>
      <trkpt lat="47.96254" lon="-3.84016">
        <ele>123.8</ele>
        <time>2023-04-05T09:03:15Z</time>
      </trkpt>
      <trkpt lat="47.96259" lon="-3.84014">
        <ele>123.7</ele>
        <time>2023-04-05T09:03:16Z</time>
      </trkpt>
      <trkpt lat="47.96264" lon="-3.84013">
        <ele>123.5</ele>
        <time>2023-04-05T09:03:17Z</time>
      </trkpt>
      <trkpt lat="47.96269" lon="-3.84011">
        <ele>123.3</ele>
        <time>2023-04-05T09:03:18Z</time>
      </trkpt>
      <trkpt lat="47.96275" lon="-3.8401">
        <ele>123.1</ele>
        <time>2023-04-05T09:03:19Z</time>
      </trkpt>
      <trkpt lat="47.96282" lon="-3.84007">
        <ele>122.8</ele>
        <time>2023-04-05T09:03:20Z</time>
      </trkpt>
      <trkpt lat="47.96288" lon="-3.84005">
        <ele>122.6</ele>
        <time>2023-04-05T09:03:21Z</time>
      </trkpt>
      <trkpt lat="47.96295" lon="-3.84002">
        <ele>122.2</ele>
        <time>2023-04-05T09:03:22Z</time>
      </trkpt>
      <trkpt lat="47.96302" lon="-3.84">
        <ele>121.9</ele>
        <time>2023-04-05T09:03:23Z</time>
      </trkpt>
      <trkpt lat="47.96309" lon="-3.83997">
        <ele>121.6</ele>
        <time>2023-04-05T09:03:24Z</time>
      </trkpt>
      <trkpt lat="47.96317" lon="-3.83995">
        <ele>121.3</ele>
        <time>2023-04-05T09:03:25Z</time>
      </trkpt>
      <trkpt lat="47.96325" lon="-3.83993">
        <ele>120.9</ele>
        <time>2023-04-05T09:03:26Z</time>
      </trkpt>
      <trkpt lat="47.96333" lon="-3.83991">
        <ele>120.6</ele>
        <time>2023-04-05T09:03:27Z</time>
      </trkpt>
      <trkpt lat="47.96341" lon="-3.8399">
        <ele>120.3</ele>
        <time>2023-04-05T09:03:28Z</time>
      </trkpt>
      <trkpt lat="47.96349" lon="-3.8399">
        <ele>119.9</ele>
        <time>2023-04-05T09:03:29Z</time>
      </trkpt>
      <trkpt lat="47.96358" lon="-3.8399">
        <ele>119.6</ele>
        <time>2023-04-05T09:03:30Z</time>
      </trkpt>
      <trkpt lat="47.96367" lon="-3.83992">
        <ele>119.2</ele>
        <time>2023-04-05T09:03:31Z</time>
      </trkpt>
      <trkpt lat="47.96376" lon="-3.83995">
        <ele>118.9</ele>
        <time>2023-04-05T09:03:32Z</time>
      </trkpt>
      <trkpt lat="47.96385" lon="-3.83998">
        <ele>118.7</ele>
        <time>2023-04-05T09:03:33Z</time>
      </trkpt>
      <trkpt lat="47.96393" lon="-3.84002">
        <ele>118.5</ele>
        <time>2023-04-05T09:03:34Z</time>
      </trkpt>
      <trkpt lat="47.96402" lon="-3.84006">
        <ele>118.4</ele>
        <time>2023-04-05T09:03:35Z</time>
      </trkpt>
      <trkpt lat="47.9641" lon="-3.84011">
        <ele>118.3</ele>
        <time>2023-04-05T09:03:36Z</time>
      </trkpt>
      <trkpt lat="47.96418" lon="-3.84015">
        <ele>118.2</ele>
        <time>2023-04-05T09:03:37Z</time>
      </trkpt>
      <trkpt lat="47.96426" lon="-3.84017">
        <ele>118.1</ele>
        <time>2023-04-05T09:03:38Z</time>
      </trkpt>
      <trkpt lat="47.96435" lon="-3.84018">
        <ele>118.1</ele>
        <time>2023-04-05T09:03:39Z</time>
      </trkpt>
      <trkpt lat="47.96442" lon="-3.8402">
        <ele>118.2</ele>
        <time>2023-04-05T09:03:40Z</time>
      </trkpt>
      <trkpt lat="47.96448" lon="-3.84027">
        <ele>118.2</ele>
        <time>2023-04-05T09:03:41Z</time>
      </trkpt>
      <trkpt lat="47.96452" lon="-3.84037">
        <ele>118.2</ele>
        <time>2023-04-05T09:03:42Z</time>
      </trkpt>
      <trkpt lat="47.96454" lon="-3.84048">
        <ele>118.2</ele>
        <time>2023-04-05T09:03:43Z</time>
      </trkpt>
      <trkpt lat="47.96455" lon="-3.84058">
        <ele>118.2</ele>
        <time>2023-04-05T09:03:44Z</time>
      </trkpt>
      <trkpt lat="47.96458" lon="-3.84068">
        <ele>118.2</ele>
        <time>2023-04-05T09:03:45Z</time>
      </trkpt>
      <trkpt lat="47.96462" lon="-3.84077">
        <ele>118.2</ele>
        <time>2023-04-05T09:03:46Z</time>
      </trkpt>
      <trkpt lat="47.96467" lon="-3.84084">
        <ele>118.2</ele>
        <time>2023-04-05T09:03:47Z</time>
      </trkpt>
      <trkpt lat="47.96472" lon="-3.84091">
        <ele>118.2</ele>
        <time>2023-04-05T09:03:48Z</time>
      </trkpt>
      <trkpt lat="47.96477" lon="-3.84099">
        <ele>118.2</ele>
        <time>2023-04-05T09:03:49Z</time>
      </trkpt>
      <trkpt lat="47.96482" lon="-3.84106">
        <ele>118.2</ele>
        <time>2023-04-05T09:03:50Z</time>
      </trkpt>
      <trkpt lat="47.96486" lon="-3.84112">
        <ele>118.2</ele>
        <time>2023-04-05T09:03:51Z</time>
      </trkpt>
      <trkpt lat="47.96491" lon="-3.84119">
        <ele>118.2</ele>
        <time>2023-04-05T09:03:52Z</time>
      </trkpt>
      <trkpt lat="47.96496" lon="-3.84125">
        <ele>118.2</ele>
        <time>2023-04-05T09:03:53Z</time>
      </trkpt>
      <trkpt lat="47.96501" lon="-3.84131">
        <ele>118.2</ele>
        <time>2023-04-05T09:03:54Z</time>
      </trkpt>
      <trkpt lat="47.96505" lon="-3.84138">
        <ele>118.3</ele>
        <time>2023-04-05T09:03:55Z</time>
      </trkpt>
      <trkpt lat="47.96509" lon="-3.84144">
        <ele>118.3</ele>
        <time>2023-04-05T09:03:56Z</time>
      </trkpt>
      <trkpt lat="47.96514" lon="-3.8415">
        <ele>118.4</ele>
        <time>2023-04-05T09:03:57Z</time>
      </trkpt>
      <trkpt lat="47.96518" lon="-3.84156">
        <ele>118.4</ele>
        <time>2023-04-05T09:03:58Z</time>
      </trkpt>
      <trkpt lat="47.96522" lon="-3.84162">
        <ele>118.5</ele>
        <time>2023-04-05T09:03:59Z</time>
      </trkpt>
      <trkpt lat="47.96527" lon="-3.84168">
        <ele>118.5</ele>
        <time>2023-04-05T09:04:00Z</time>
      </trkpt>
      <trkpt lat="47.96531" lon="-3.84173">
        <ele>118.6</ele>
        <time>2023-04-05T09:04:01Z</time>
      </trkpt>
      <trkpt lat="47.96535" lon="-3.84179">
        <ele>118.7</ele>
        <time>2023-04-05T09:04:02Z</time>
      </trkpt>
      <trkpt lat="47.9654" lon="-3.84185">
        <ele>118.8</ele>
        <time>2023-04-05T09:04:03Z</time>
      </trkpt>
      <trkpt lat="47.96544" lon="-3.84191">
        <ele>118.9</ele>
        <time>2023-04-05T09:04:04Z</time>
      </trkpt>
      <trkpt lat="47.96548" lon="-3.84197">
        <ele>119</ele>
        <time>2023-04-05T09:04:05Z</time>
      </trkpt>
      <trkpt lat="47.96552" lon="-3.84203">
        <ele>119.1</ele>
        <time>2023-04-05T09:04:06Z</time>
      </trkpt>
      <trkpt lat="47.96556" lon="-3.84208">
        <ele>119.2</ele>
        <time>2023-04-05T09:04:07Z</time>
      </trkpt>
      <trkpt lat="47.9656" lon="-3.84214">
        <ele>119.4</ele>
        <time>2023-04-05T09:04:08Z</time>
      </trkpt>
      <trkpt lat="47.96564" lon="-3.84219">
        <ele>119.5</ele>
        <time>2023-04-05T09:04:09Z</time>
      </trkpt>
      <trkpt lat="47.96568" lon="-3.84224">
        <ele>119.6</ele>
        <time>2023-04-05T09:04:10Z</time>
      </trkpt>
      <trkpt lat="47.96572" lon="-3.84229">
        <ele>119.7</ele>
        <time>2023-04-05T09:04:11Z</time>
      </trkpt>
      <trkpt lat="47.96576" lon="-3.84234">
        <ele>119.9</ele>
        <time>2023-04-05T09:04:12Z</time>
      </trkpt>
      <trkpt lat="47.96581" lon="-3.8424">
        <ele>120</ele>
        <time>2023-04-05T09:04:13Z</time>
      </trkpt>
      <trkpt lat="47.96585" lon="-3.84245">
        <ele>120.1</ele>
        <time>2023-04-05T09:04:14Z</time>
      </trkpt>
      <trkpt lat="47.96589" lon="-3.8425">
        <ele>120.2</ele>
        <time>2023-04-05T09:04:15Z</time>
      </trkpt>
      <trkpt lat="47.96593" lon="-3.84255">
        <ele>120.4</ele>
        <time>2023-04-05T09:04:16Z</time>
      </trkpt>
      <trkpt lat="47.96597" lon="-3.84259">
        <ele>120.5</ele>
        <time>2023-04-05T09:04:17Z</time>
      </trkpt>
      <trkpt lat="47.96601" lon="-3.84264">
        <ele>120.6</ele>
        <time>2023-04-05T09:04:18Z</time>
      </trkpt>
      <trkpt lat="47.96605" lon="-3.84269">
        <ele>120.8</ele>
        <time>2023-04-05T09:04:19Z</time>
      </trkpt>
      <trkpt lat="47.96609" lon="-3.84274">
        <ele>120.9</ele>
        <time>2023-04-05T09:04:20Z</time>
      </trkpt>
      <trkpt lat="47.96613" lon="-3.84278">
        <ele>121</ele>
        <time>2023-04-05T09:04:21Z</time>
      </trkpt>
      <trkpt lat="47.96618" lon="-3.84282">
        <ele>121.2</ele>
        <time>2023-04-05T09:04:22Z</time>
      </trkpt>
      <trkpt lat="47.96622" lon="-3.84287">
        <ele>121.3</ele>
        <time>2023-04-05T09:04:23Z</time>
      </trkpt>
      <trkpt lat="47.96626" lon="-3.84291">
        <ele>121.5</ele>
        <time>2023-04-05T09:04:24Z</time>
      </trkpt>
      <trkpt lat="47.9663" lon="-3.84295">
        <ele>121.6</ele>
        <time>2023-04-05T09:04:25Z</time>
      </trkpt>
      <trkpt lat="47.96634" lon="-3.843">
        <ele>121.7</ele>
        <time>2023-04-05T09:04:26Z</time>
      </trkpt>
      <trkpt lat="47.96638" lon="-3.84303">
        <ele>121.9</ele>
        <time>2023-04-05T09:04:27Z</time>
      </trkpt>
      <trkpt lat="47.96641" lon="-3.84307">
        <ele>122</ele>
        <time>2023-04-05T09:04:28Z</time>
      </trkpt>
      <trkpt lat="47.96645" lon="-3.84312">
        <ele>122.1</ele>
        <time>2023-04-05T09:04:29Z</time>
      </trkpt>
      <trkpt lat="47.96649" lon="-3.84316">
        <ele>122.3</ele>
        <time>2023-04-05T09:04:30Z</time>
      </trkpt>
      <trkpt lat="47.96653" lon="-3.8432">
        <ele>122.4</ele>
        <time>2023-04-05T09:04:31Z</time>
      </trkpt>
      <trkpt lat="47.96657" lon="-3.84324">
        <ele>122.5</ele>
        <time>2023-04-05T09:04:32Z</time>
      </trkpt>
      <trkpt lat="47.96661" lon="-3.84328">
        <ele>122.6</ele>
        <time>2023-04-05T09:04:33Z</time>
      </trkpt>
      <trkpt lat="47.96666" lon="-3.84332">
        <ele>122.8</ele>
        <time>2023-04-05T09:04:34Z</time>
      </trkpt>
      <trkpt lat="47.9667" lon="-3.84336">
        <ele>122.9</ele>
        <time>2023-04-05T09:04:35Z</time>
      </trkpt>
      <trkpt lat="47.96674" lon="-3.84339">
        <ele>123.1</ele>
        <time>2023-04-05T09:04:36Z</time>
      </trkpt>
      <trkpt lat="47.96678" lon="-3.84343">
        <ele>123.2</ele>
        <time>2023-04-05T09:04:37Z</time>
      </trkpt>
      <trkpt lat="47.96682" lon="-3.84347">
        <ele>123.3</ele>
        <time>2023-04-05T09:04:38Z</time>
      </trkpt>
      <trkpt lat="47.96686" lon="-3.84351">
        <ele>123.5</ele>
        <time>2023-04-05T09:04:39Z</time>
      </trkpt>
      <trkpt lat="47.9669" lon="-3.84355">
        <ele>123.6</ele>
        <time>2023-04-05T09:04:40Z</time>
      </trkpt>
      <trkpt lat="47.96694" lon="-3.84359">
        <ele>123.7</ele>
        <time>2023-04-05T09:04:41Z</time>
      </trkpt>
      <trkpt lat="47.96698" lon="-3.84363">
        <ele>123.9</ele>
        <time>2023-04-05T09:04:42Z</time>
      </trkpt>
      <trkpt lat="47.96703" lon="-3.84367">
        <ele>124</ele>
        <time>2023-04-05T09:04:43Z</time>
      </trkpt>
      <trkpt lat="47.96707" lon="-3.8437">
        <ele>124.1</ele>
        <time>2023-04-05T09:04:44Z</time>
      </trkpt>
      <trkpt lat="47.96711" lon="-3.84374">
        <ele>124.2</ele>
        <time>2023-04-05T09:04:45Z</time>
      </trkpt>
      <trkpt lat="47.96715" lon="-3.84377">
        <ele>124.4</ele>
        <time>2023-04-05T09:04:46Z</time>
      </trkpt>
      <trkpt lat="47.96719" lon="-3.8438">
        <ele>124.5</ele>
        <time>2023-04-05T09:04:47Z</time>
      </trkpt>
      <trkpt lat="47.96723" lon="-3.84384">
        <ele>124.6</ele>
        <time>2023-04-05T09:04:48Z</time>
      </trkpt>
      <trkpt lat="47.96727" lon="-3.84388">
        <ele>124.7</ele>
        <time>2023-04-05T09:04:49Z</time>
      </trkpt>
      <trkpt lat="47.96731" lon="-3.84391">
        <ele>124.8</ele>
        <time>2023-04-05T09:04:50Z</time>
      </trkpt>
      <trkpt lat="47.96736" lon="-3.84395">
        <ele>125</ele>
        <time>2023-04-05T09:04:51Z</time>
      </trkpt>
      <trkpt lat="47.9674" lon="-3.84398">
        <ele>125.1</ele>
        <time>2023-04-05T09:04:52Z</time>
      </trkpt>
      <trkpt lat="47.96744" lon="-3.84402">
        <ele>125.2</ele>
        <time>2023-04-05T09:04:53Z</time>
      </trkpt>
      <trkpt lat="47.96748" lon="-3.84406">
        <ele>125.3</ele>
        <time>2023-04-05T09:04:54Z</time>
      </trkpt>
      <trkpt lat="47.96753" lon="-3.8441">
        <ele>125.4</ele>
        <time>2023-04-05T09:04:55Z</time>
      </trkpt>
      <trkpt lat="47.96757" lon="-3.84414">
        <ele>125.5</ele>
        <time>2023-04-05T09:04:56Z</time>
      </trkpt>
      <trkpt lat="47.96761" lon="-3.84418">
        <ele>125.7</ele>
        <time>2023-04-05T09:04:57Z</time>
      </trkpt>
      <trkpt lat="47.96765" lon="-3.84421">
        <ele>125.8</ele>
        <time>2023-04-05T09:04:58Z</time>
      </trkpt>
      <trkpt lat="47.9677" lon="-3.84425">
        <ele>125.9</ele>
        <time>2023-04-05T09:04:59Z</time>
      </trkpt>
      <trkpt lat="47.96774" lon="-3.84428">
        <ele>126</ele>
        <time>2023-04-05T09:05:00Z</time>
      </trkpt>
      <trkpt lat="47.96778" lon="-3.84432">
        <ele>126.1</ele>
        <time>2023-04-05T09:05:01Z</time>
      </trkpt>
      <trkpt lat="47.96783" lon="-3.84435">
        <ele>126.2</ele>
        <time>2023-04-05T09:05:02Z</time>
      </trkpt>
      <trkpt lat="47.96787" lon="-3.84439">
        <ele>126.3</ele>
        <time>2023-04-05T09:05:03Z</time>
      </trkpt>
      <trkpt lat="47.96791" lon="-3.84443">
        <ele>126.4</ele>
        <time>2023-04-05T09:05:04Z</time>
      </trkpt>
      <trkpt lat="47.96796" lon="-3.84447">
        <ele>126.5</ele>
        <time>2023-04-05T09:05:05Z</time>
      </trkpt>
      <trkpt lat="47.968" lon="-3.8445">
        <ele>126.6</ele>
        <time>2023-04-05T09:05:06Z</time>
      </trkpt>
      <trkpt lat="47.96804" lon="-3.84454">
        <ele>126.7</ele>
        <time>2023-04-05T09:05:07Z</time>
      </trkpt>
      <trkpt lat="47.96809" lon="-3.84457">
        <ele>126.9</ele>
        <time>2023-04-05T09:05:08Z</time>
      </trkpt>
      <trkpt lat="47.96813" lon="-3.84461">
        <ele>127</ele>
        <time>2023-04-05T09:05:09Z</time>
      </trkpt>
      <trkpt lat="47.96817" lon="-3.84465">
        <ele>127.1</ele>
        <time>2023-04-05T09:05:10Z</time>
      </trkpt>
      <trkpt lat="47.96821" lon="-3.84468">
        <ele>127.2</ele>
        <time>2023-04-05T09:05:11Z</time>
      </trkpt>
      <trkpt lat="47.96825" lon="-3.84471">
        <ele>127.3</ele>
        <time>2023-04-05T09:05:12Z</time>
      </trkpt>
      <trkpt lat="47.96829" lon="-3.84475">
        <ele>127.4</ele>
        <time>2023-04-05T09:05:13Z</time>
      </trkpt>
      <trkpt lat="47.96833" lon="-3.84478">
        <ele>127.6</ele>
        <time>2023-04-05T09:05:14Z</time>
      </trkpt>
      <trkpt lat="47.96837" lon="-3.84482">
        <ele>127.7</ele>
        <time>2023-04-05T09:05:15Z</time>
      </trkpt>
      <trkpt lat="47.96841" lon="-3.84486">
        <ele>127.8</ele>
        <time>2023-04-05T09:05:16Z</time>
      </trkpt>
      <trkpt lat="47.96845" lon="-3.8449">
        <ele>127.9</ele>
        <time>2023-04-05T09:05:17Z</time>
      </trkpt>
      <trkpt lat="47.96849" lon="-3.84494">
        <ele>128</ele>
        <time>2023-04-05T09:05:18Z</time>
      </trkpt>
      <trkpt lat="47.96854" lon="-3.84497">
        <ele>128.1</ele>
        <time>2023-04-05T09:05:19Z</time>
      </trkpt>
      <trkpt lat="47.96858" lon="-3.84501">
        <ele>128.2</ele>
        <time>2023-04-05T09:05:20Z</time>
      </trkpt>
      <trkpt lat="47.96862" lon="-3.84505">
        <ele>128.3</ele>
        <time>2023-04-05T09:05:21Z</time>
      </trkpt>
      <trkpt lat="47.96867" lon="-3.84508">
        <ele>128.4</ele>
        <time>2023-04-05T09:05:22Z</time>
      </trkpt>
      <trkpt lat="47.96871" lon="-3.84512">
        <ele>128.5</ele>
        <time>2023-04-05T09:05:23Z</time>
      </trkpt>
      <trkpt lat="47.96875" lon="-3.84516">
        <ele>128.6</ele>
        <time>2023-04-05T09:05:24Z</time>
      </trkpt>
      <trkpt lat="47.9688" lon="-3.8452">
        <ele>128.7</ele>
        <time>2023-04-05T09:05:25Z</time>
      </trkpt>
      <trkpt lat="47.96884" lon="-3.84524">
        <ele>128.8</ele>
        <time>2023-04-05T09:05:26Z</time>
      </trkpt>
      <trkpt lat="47.96888" lon="-3.84528">
        <ele>128.9</ele>
        <time>2023-04-05T09:05:27Z</time>
      </trkpt>
      <trkpt lat="47.96892" lon="-3.84532">
        <ele>129</ele>
        <time>2023-04-05T09:05:28Z</time>
      </trkpt>
      <trkpt lat="47.96897" lon="-3.84536">
        <ele>129.2</ele>
        <time>2023-04-05T09:05:29Z</time>
      </trkpt>
      <trkpt lat="47.96901" lon="-3.8454">
        <ele>129.3</ele>
        <time>2023-04-05T09:05:30Z</time>
      </trkpt>
      <trkpt lat="47.96905" lon="-3.84544">
        <ele>129.5</ele>
        <time>2023-04-05T09:05:31Z</time>
      </trkpt>
      <trkpt lat="47.96909" lon="-3.84548">
        <ele>129.6</ele>
        <time>2023-04-05T09:05:32Z</time>
      </trkpt>
      <trkpt lat="47.96913" lon="-3.84552">
        <ele>129.8</ele>
        <time>2023-04-05T09:05:33Z</time>
      </trkpt>
      <trkpt lat="47.96917" lon="-3.84557">
        <ele>129.9</ele>
        <time>2023-04-05T09:05:34Z</time>
      </trkpt>
      <trkpt lat="47.96921" lon="-3.84561">
        <ele>130</ele>
        <time>2023-04-05T09:05:35Z</time>
      </trkpt>
      <trkpt lat="47.96926" lon="-3.84565">
        <ele>130.1</ele>
        <time>2023-04-05T09:05:36Z</time>
      </trkpt>
      <trkpt lat="47.9693" lon="-3.84569">
        <ele>130.3</ele>
        <time>2023-04-05T09:05:37Z</time>
      </trkpt>
      <trkpt lat="47.96934" lon="-3.84573">
        <ele>130.4</ele>
        <time>2023-04-05T09:05:38Z</time>
      </trkpt>
      <trkpt lat="47.96938" lon="-3.84578">
        <ele>130.5</ele>
        <time>2023-04-05T09:05:39Z</time>
      </trkpt>
      <trkpt lat="47.96942" lon="-3.84582">
        <ele>130.5</ele>
        <time>2023-04-05T09:05:40Z</time>
      </trkpt>
      <trkpt lat="47.96946" lon="-3.84586">
        <ele>130.6</ele>
        <time>2023-04-05T09:05:41Z</time>
      </trkpt>
      <trkpt lat="47.9695" lon="-3.8459">
        <ele>130.7</ele>
        <time>2023-04-05T09:05:42Z</time>
      </trkpt>
      <trkpt lat="47.96954" lon="-3.84595">
        <ele>130.8</ele>
        <time>2023-04-05T09:05:43Z</time>
      </trkpt>
      <trkpt lat="47.96958" lon="-3.84599">
        <ele>130.9</ele>
        <time>2023-04-05T09:05:44Z</time>
      </trkpt>
      <trkpt lat="47.96963" lon="-3.84604">
        <ele>131</ele>
        <time>2023-04-05T09:05:45Z</time>
      </trkpt>
      <trkpt lat="47.96967" lon="-3.84608">
        <ele>131</ele>
        <time>2023-04-05T09:05:46Z</time>
      </trkpt>
      <trkpt lat="47.96971" lon="-3.84613">
        <ele>131.1</ele>
        <time>2023-04-05T09:05:47Z</time>
      </trkpt>
      <trkpt lat="47.96975" lon="-3.84618">
        <ele>131.2</ele>
        <time>2023-04-05T09:05:48Z</time>
      </trkpt>
      <trkpt lat="47.96979" lon="-3.84622">
        <ele>131.3</ele>
        <time>2023-04-05T09:05:49Z</time>
      </trkpt>
      <trkpt lat="47.96983" lon="-3.84627">
        <ele>131.4</ele>
        <time>2023-04-05T09:05:50Z</time>
      </trkpt>
      <trkpt lat="47.96988" lon="-3.84631">
        <ele>131.5</ele>
        <time>2023-04-05T09:05:51Z</time>
      </trkpt>
      <trkpt lat="47.96991" lon="-3.84635">
        <ele>131.5</ele>
        <time>2023-04-05T09:05:52Z</time>
      </trkpt>
      <trkpt lat="47.96996" lon="-3.8464">
        <ele>131.6</ele>
        <time>2023-04-05T09:05:53Z</time>
      </trkpt>
      <trkpt lat="47.97" lon="-3.84644">
        <ele>131.7</ele>
        <time>2023-04-05T09:05:54Z</time>
      </trkpt>
      <trkpt lat="47.97004" lon="-3.84648">
        <ele>131.8</ele>
        <time>2023-04-05T09:05:55Z</time>
      </trkpt>
      <trkpt lat="47.97007" lon="-3.84653">
        <ele>131.9</ele>
        <time>2023-04-05T09:05:56Z</time>
      </trkpt>
      <trkpt lat="47.97011" lon="-3.84657">
        <ele>132</ele>
        <time>2023-04-05T09:05:57Z</time>
      </trkpt>
      <trkpt lat="47.97015" lon="-3.84662">
        <ele>132</ele>
        <time>2023-04-05T09:05:58Z</time>
      </trkpt>
      <trkpt lat="47.97019" lon="-3.84666">
        <ele>132.1</ele>
        <time>2023-04-05T09:05:59Z</time>
      </trkpt>
      <trkpt lat="47.97023" lon="-3.84671">
        <ele>132.2</ele>
        <time>2023-04-05T09:06:00Z</time>
      </trkpt>
      <trkpt lat="47.97027" lon="-3.84675">
        <ele>132.3</ele>
        <time>2023-04-05T09:06:01Z</time>
      </trkpt>
      <trkpt lat="47.97031" lon="-3.84679">
        <ele>132.4</ele>
        <time>2023-04-05T09:06:02Z</time>
      </trkpt>
      <trkpt lat="47.97034" lon="-3.84684">
        <ele>132.5</ele>
        <time>2023-04-05T09:06:03Z</time>
      </trkpt>
      <trkpt lat="47.97038" lon="-3.84688">
        <ele>132.6</ele>
        <time>2023-04-05T09:06:04Z</time>
      </trkpt>
      <trkpt lat="47.97042" lon="-3.84692">
        <ele>132.7</ele>
        <time>2023-04-05T09:06:05Z</time>
      </trkpt>
      <trkpt lat="47.97045" lon="-3.84697">
        <ele>132.8</ele>
        <time>2023-04-05T09:06:06Z</time>
      </trkpt>
      <trkpt lat="47.97049" lon="-3.84702">
        <ele>132.8</ele>
        <time>2023-04-05T09:06:07Z</time>
      </trkpt>
      <trkpt lat="47.97052" lon="-3.84707">
        <ele>132.9</ele>
        <time>2023-04-05T09:06:08Z</time>
      </trkpt>
      <trkpt lat="47.97056" lon="-3.84711">
        <ele>133</ele>
        <time>2023-04-05T09:06:09Z</time>
      </trkpt>
      <trkpt lat="47.9706" lon="-3.84716">
        <ele>133.1</ele>
        <time>2023-04-05T09:06:10Z</time>
      </trkpt>
      <trkpt lat="47.97064" lon="-3.8472">
        <ele>133.2</ele>
        <time>2023-04-05T09:06:11Z</time>
      </trkpt>
      <trkpt lat="47.97067" lon="-3.84725">
        <ele>133.2</ele>
        <time>2023-04-05T09:06:12Z</time>
      </trkpt>
      <trkpt lat="47.97071" lon="-3.8473">
        <ele>133.3</ele>
        <time>2023-04-05T09:06:13Z</time>
      </trkpt>
      <trkpt lat="47.97075" lon="-3.84734">
        <ele>133.4</ele>
        <time>2023-04-05T09:06:14Z</time>
      </trkpt>
      <trkpt lat="47.97079" lon="-3.84739">
        <ele>133.4</ele>
        <time>2023-04-05T09:06:15Z</time>
      </trkpt>
      <trkpt lat="47.97082" lon="-3.84745">
        <ele>133.5</ele>
        <time>2023-04-05T09:06:16Z</time>
      </trkpt>
      <trkpt lat="47.97086" lon="-3.8475">
        <ele>133.5</ele>
        <time>2023-04-05T09:06:17Z</time>
      </trkpt>
      <trkpt lat="47.9709" lon="-3.84755">
        <ele>133.6</ele>
        <time>2023-04-05T09:06:18Z</time>
      </trkpt>
      <trkpt lat="47.97093" lon="-3.84761">
        <ele>133.7</ele>
        <time>2023-04-05T09:06:19Z</time>
      </trkpt>
      <trkpt lat="47.97097" lon="-3.84767">
        <ele>133.7</ele>
        <time>2023-04-05T09:06:20Z</time>
      </trkpt>
      <trkpt lat="47.971" lon="-3.84772">
        <ele>133.8</ele>
        <time>2023-04-05T09:06:21Z</time>
      </trkpt>
      <trkpt lat="47.97104" lon="-3.84778">
        <ele>133.8</ele>
        <time>2023-04-05T09:06:22Z</time>
      </trkpt>
      <trkpt lat="47.97107" lon="-3.84784">
        <ele>133.9</ele>
        <time>2023-04-05T09:06:23Z</time>
      </trkpt>
      <trkpt lat="47.9711" lon="-3.8479">
        <ele>133.9</ele>
        <time>2023-04-05T09:06:24Z</time>
      </trkpt>
      <trkpt lat="47.97113" lon="-3.84796">
        <ele>134</ele>
        <time>2023-04-05T09:06:25Z</time>
      </trkpt>
      <trkpt lat="47.97116" lon="-3.84802">
        <ele>134.1</ele>
        <time>2023-04-05T09:06:26Z</time>
      </trkpt>
      <trkpt lat="47.9712" lon="-3.84809">
        <ele>134.1</ele>
        <time>2023-04-05T09:06:27Z</time>
      </trkpt>
      <trkpt lat="47.97123" lon="-3.84815">
        <ele>134.2</ele>
        <time>2023-04-05T09:06:28Z</time>
      </trkpt>
      <trkpt lat="47.97126" lon="-3.84822">
        <ele>134.2</ele>
        <time>2023-04-05T09:06:29Z</time>
      </trkpt>
      <trkpt lat="47.97129" lon="-3.84829">
        <ele>134.3</ele>
        <time>2023-04-05T09:06:30Z</time>
      </trkpt>
      <trkpt lat="47.97132" lon="-3.84835">
        <ele>134.3</ele>
        <time>2023-04-05T09:06:31Z</time>
      </trkpt>
      <trkpt lat="47.97135" lon="-3.84842">
        <ele>134.4</ele>
        <time>2023-04-05T09:06:32Z</time>
      </trkpt>
      <trkpt lat="47.97137" lon="-3.84848">
        <ele>134.4</ele>
        <time>2023-04-05T09:06:33Z</time>
      </trkpt>
      <trkpt lat="47.9714" lon="-3.84855">
        <ele>134.5</ele>
        <time>2023-04-05T09:06:34Z</time>
      </trkpt>
      <trkpt lat="47.97143" lon="-3.84861">
        <ele>134.5</ele>
        <time>2023-04-05T09:06:35Z</time>
      </trkpt>
      <trkpt lat="47.97145" lon="-3.84868">
        <ele>134.6</ele>
        <time>2023-04-05T09:06:36Z</time>
      </trkpt>
      <trkpt lat="47.97148" lon="-3.84875">
        <ele>134.6</ele>
        <time>2023-04-05T09:06:37Z</time>
      </trkpt>
      <trkpt lat="47.9715" lon="-3.84882">
        <ele>134.6</ele>
        <time>2023-04-05T09:06:38Z</time>
      </trkpt>
      <trkpt lat="47.97153" lon="-3.84889">
        <ele>134.6</ele>
        <time>2023-04-05T09:06:39Z</time>
      </trkpt>
      <trkpt lat="47.97156" lon="-3.84896">
        <ele>134.6</ele>
        <time>2023-04-05T09:06:40Z</time>
      </trkpt>
      <trkpt lat="47.97158" lon="-3.84903">
        <ele>134.6</ele>
        <time>2023-04-05T09:06:41Z</time>
      </trkpt>
      <trkpt lat="47.97161" lon="-3.8491">
        <ele>134.6</ele>
        <time>2023-04-05T09:06:42Z</time>
      </trkpt>
      <trkpt lat="47.97163" lon="-3.84917">
        <ele>134.5</ele>
        <time>2023-04-05T09:06:43Z</time>
      </trkpt>
      <trkpt lat="47.97165" lon="-3.84924">
        <ele>134.5</ele>
        <time>2023-04-05T09:06:44Z</time>
      </trkpt>
      <trkpt lat="47.97168" lon="-3.84931">
        <ele>134.4</ele>
        <time>2023-04-05T09:06:45Z</time>
      </trkpt>
      <trkpt lat="47.9717" lon="-3.84938">
        <ele>134.4</ele>
        <time>2023-04-05T09:06:46Z</time>
      </trkpt>
      <trkpt lat="47.97173" lon="-3.84945">
        <ele>134.3</ele>
        <time>2023-04-05T09:06:47Z</time>
      </trkpt>
      <trkpt lat="47.97176" lon="-3.84952">
        <ele>134.3</ele>
        <time>2023-04-05T09:06:48Z</time>
      </trkpt>
      <trkpt lat="47.97178" lon="-3.8496">
        <ele>134.3</ele>
        <time>2023-04-05T09:06:49Z</time>
      </trkpt>
      <trkpt lat="47.97181" lon="-3.84967">
        <ele>134.2</ele>
        <time>2023-04-05T09:06:50Z</time>
      </trkpt>
      <trkpt lat="47.97183" lon="-3.84975">
        <ele>134.2</ele>
        <time>2023-04-05T09:06:51Z</time>
      </trkpt>
      <trkpt lat="47.97186" lon="-3.84983">
        <ele>134.2</ele>
        <time>2023-04-05T09:06:52Z</time>
      </trkpt>
      <trkpt lat="47.97188" lon="-3.8499">
        <ele>134.1</ele>
        <time>2023-04-05T09:06:53Z</time>
      </trkpt>
      <trkpt lat="47.97191" lon="-3.84998">
        <ele>134.1</ele>
        <time>2023-04-05T09:06:54Z</time>
      </trkpt>
      <trkpt lat="47.97193" lon="-3.85005">
        <ele>134.1</ele>
        <time>2023-04-05T09:06:55Z</time>
      </trkpt>
      <trkpt lat="47.97196" lon="-3.85013">
        <ele>134</ele>
        <time>2023-04-05T09:06:56Z</time>
      </trkpt>
      <trkpt lat="47.97199" lon="-3.85021">
        <ele>134</ele>
        <time>2023-04-05T09:06:57Z</time>
      </trkpt>
      <trkpt lat="47.97201" lon="-3.85028">
        <ele>133.9</ele>
        <time>2023-04-05T09:06:58Z</time>
      </trkpt>
      <trkpt lat="47.97204" lon="-3.85036">
        <ele>133.8</ele>
        <time>2023-04-05T09:06:59Z</time>
      </trkpt>
      <trkpt lat="47.97207" lon="-3.85044">
        <ele>133.7</ele>
        <time>2023-04-05T09:07:00Z</time>
      </trkpt>
      <trkpt lat="47.9721" lon="-3.85051">
        <ele>133.6</ele>
        <time>2023-04-05T09:07:01Z</time>
      </trkpt>
      <trkpt lat="47.97212" lon="-3.85059">
        <ele>133.5</ele>
        <time>2023-04-05T09:07:02Z</time>
      </trkpt>
      <trkpt lat="47.97215" lon="-3.85067">
        <ele>133.4</ele>
        <time>2023-04-05T09:07:03Z</time>
      </trkpt>
      <trkpt lat="47.97218" lon="-3.85075">
        <ele>133.2</ele>
        <time>2023-04-05T09:07:04Z</time>
      </trkpt>
      <trkpt lat="47.97221" lon="-3.85083">
        <ele>133.1</ele>
        <time>2023-04-05T09:07:05Z</time>
      </trkpt>
      <trkpt lat="47.97223" lon="-3.85091">
        <ele>132.9</ele>
        <time>2023-04-05T09:07:06Z</time>
      </trkpt>
      <trkpt lat="47.97226" lon="-3.851">
        <ele>132.6</ele>
        <time>2023-04-05T09:07:07Z</time>
      </trkpt>
      <trkpt lat="47.97229" lon="-3.85109">
        <ele>132.3</ele>
        <time>2023-04-05T09:07:08Z</time>
      </trkpt>
      <trkpt lat="47.97232" lon="-3.85118">
        <ele>132</ele>
        <time>2023-04-05T09:07:09Z</time>
      </trkpt>
      <trkpt lat="47.97235" lon="-3.85127">
        <ele>131.7</ele>
        <time>2023-04-05T09:07:10Z</time>
      </trkpt>
      <trkpt lat="47.97238" lon="-3.85137">
        <ele>131.4</ele>
        <time>2023-04-05T09:07:11Z</time>
      </trkpt>
      <trkpt lat="47.97242" lon="-3.85147">
        <ele>131</ele>
        <time>2023-04-05T09:07:12Z</time>
      </trkpt>
      <trkpt lat="47.97245" lon="-3.85157">
        <ele>130.6</ele>
        <time>2023-04-05T09:07:13Z</time>
      </trkpt>
      <trkpt lat="47.97249" lon="-3.85167">
        <ele>130.2</ele>
        <time>2023-04-05T09:07:14Z</time>
      </trkpt>
      <trkpt lat="47.97252" lon="-3.85177">
        <ele>129.8</ele>
        <time>2023-04-05T09:07:15Z</time>
      </trkpt>
      <trkpt lat="47.97256" lon="-3.85188">
        <ele>129.4</ele>
        <time>2023-04-05T09:07:16Z</time>
      </trkpt>
      <trkpt lat="47.9726" lon="-3.85198">
        <ele>129</ele>
        <time>2023-04-05T09:07:17Z</time>
      </trkpt>
      <trkpt lat="47.97264" lon="-3.85209">
        <ele>128.7</ele>
        <time>2023-04-05T09:07:18Z</time>
      </trkpt>
      <trkpt lat="47.97268" lon="-3.85219">
        <ele>128.4</ele>
        <time>2023-04-05T09:07:19Z</time>
      </trkpt>
      <trkpt lat="47.97271" lon="-3.8523">
        <ele>128.1</ele>
        <time>2023-04-05T09:07:20Z</time>
      </trkpt>
      <trkpt lat="47.97275" lon="-3.85241">
        <ele>127.8</ele>
        <time>2023-04-05T09:07:21Z</time>
      </trkpt>
      <trkpt lat="47.97279" lon="-3.85252">
        <ele>127.6</ele>
        <time>2023-04-05T09:07:22Z</time>
      </trkpt>
      <trkpt lat="47.97283" lon="-3.85263">
        <ele>127.4</ele>
        <time>2023-04-05T09:07:23Z</time>
      </trkpt>
      <trkpt lat="47.97287" lon="-3.85274">
        <ele>127.3</ele>
        <time>2023-04-05T09:07:24Z</time>
      </trkpt>
      <trkpt lat="47.97291" lon="-3.85284">
        <ele>127.2</ele>
        <time>2023-04-05T09:07:25Z</time>
      </trkpt>
      <trkpt lat="47.97295" lon="-3.85294">
        <ele>127.1</ele>
        <time>2023-04-05T09:07:26Z</time>
      </trkpt>
      <trkpt lat="47.973" lon="-3.85303">
        <ele>127.1</ele>
        <time>2023-04-05T09:07:27Z</time>
      </trkpt>
      <trkpt lat="47.97306" lon="-3.85309">
        <ele>127.1</ele>
        <time>2023-04-05T09:07:28Z</time>
      </trkpt>
      <trkpt lat="47.97314" lon="-3.85311">
        <ele>127.1</ele>
        <time>2023-04-05T09:07:29Z</time>
      </trkpt>
      <trkpt lat="47.97322" lon="-3.85309">
        <ele>127.1</ele>
        <time>2023-04-05T09:07:30Z</time>
      </trkpt>
      <trkpt lat="47.97328" lon="-3.85305">
        <ele>127.1</ele>
        <time>2023-04-05T09:07:31Z</time>
      </trkpt>
      <trkpt lat="47.97335" lon="-3.853">
        <ele>127.1</ele>
        <time>2023-04-05T09:07:32Z</time>
      </trkpt>
      <trkpt lat="47.9734" lon="-3.85294">
        <ele>127.1</ele>
        <time>2023-04-05T09:07:33Z</time>
      </trkpt>
      <trkpt lat="47.97346" lon="-3.8529">
        <ele>127.1</ele>
        <time>2023-04-05T09:07:34Z</time>
      </trkpt>
      <trkpt lat="47.97352" lon="-3.85285">
        <ele>127.1</ele>
        <time>2023-04-05T09:07:35Z</time>
      </trkpt>
      <trkpt lat="47.97358" lon="-3.8528">
        <ele>127.2</ele>
        <time>2023-04-05T09:07:36Z</time>
      </trkpt>
      <trkpt lat="47.97363" lon="-3.85276">
        <ele>127.2</ele>
        <time>2023-04-05T09:07:37Z</time>
      </trkpt>
      <trkpt lat="47.97369" lon="-3.85271">
        <ele>127.3</ele>
        <time>2023-04-05T09:07:38Z</time>
      </trkpt>
      <trkpt lat="47.97375" lon="-3.85267">
        <ele>127.5</ele>
        <time>2023-04-05T09:07:39Z</time>
      </trkpt>
      <trkpt lat="47.9738" lon="-3.85262">
        <ele>127.6</ele>
        <time>2023-04-05T09:07:40Z</time>
      </trkpt>
      <trkpt lat="47.97386" lon="-3.85258">
        <ele>127.7</ele>
        <time>2023-04-05T09:07:41Z</time>
      </trkpt>
      <trkpt lat="47.97391" lon="-3.85254">
        <ele>127.8</ele>
        <time>2023-04-05T09:07:42Z</time>
      </trkpt>
      <trkpt lat="47.97396" lon="-3.8525">
        <ele>127.9</ele>
        <time>2023-04-05T09:07:43Z</time>
      </trkpt>
      <trkpt lat="47.97402" lon="-3.85246">
        <ele>127.9</ele>
        <time>2023-04-05T09:07:44Z</time>
      </trkpt>
      <trkpt lat="47.97407" lon="-3.85242">
        <ele>128</ele>
        <time>2023-04-05T09:07:45Z</time>
      </trkpt>
      <trkpt lat="47.97412" lon="-3.85239">
        <ele>128.1</ele>
        <time>2023-04-05T09:07:46Z</time>
      </trkpt>
      <trkpt lat="47.97417" lon="-3.85235">
        <ele>128.2</ele>
        <time>2023-04-05T09:07:47Z</time>
      </trkpt>
      <trkpt lat="47.97422" lon="-3.85232">
        <ele>128.3</ele>
        <time>2023-04-05T09:07:48Z</time>
      </trkpt>
      <trkpt lat="47.97427" lon="-3.85228">
        <ele>128.3</ele>
        <time>2023-04-05T09:07:49Z</time>
      </trkpt>
      <trkpt lat="47.97432" lon="-3.85225">
        <ele>128.4</ele>
        <time>2023-04-05T09:07:50Z</time>
      </trkpt>
      <trkpt lat="47.97437" lon="-3.85222">
        <ele>128.4</ele>
        <time>2023-04-05T09:07:51Z</time>
      </trkpt>
      <trkpt lat="47.97442" lon="-3.85218">
        <ele>128.5</ele>
        <time>2023-04-05T09:07:52Z</time>
      </trkpt>
      <trkpt lat="47.97447" lon="-3.85215">
        <ele>128.5</ele>
        <time>2023-04-05T09:07:53Z</time>
      </trkpt>
      <trkpt lat="47.97452" lon="-3.8521">
        <ele>128.5</ele>
        <time>2023-04-05T09:07:54Z</time>
      </trkpt>
      <trkpt lat="47.97457" lon="-3.85206">
        <ele>128.5</ele>
        <time>2023-04-05T09:07:55Z</time>
      </trkpt>
      <trkpt lat="47.97462" lon="-3.85202">
        <ele>128.5</ele>
        <time>2023-04-05T09:07:56Z</time>
      </trkpt>
      <trkpt lat="47.97467" lon="-3.85198">
        <ele>128.5</ele>
        <time>2023-04-05T09:07:57Z</time>
      </trkpt>
      <trkpt lat="47.97473" lon="-3.85194">
        <ele>128.5</ele>
        <time>2023-04-05T09:07:58Z</time>
      </trkpt>
      <trkpt lat="47.97478" lon="-3.85191">
        <ele>128.5</ele>
        <time>2023-04-05T09:07:59Z</time>
      </trkpt>
      <trkpt lat="47.97484" lon="-3.85189">
        <ele>128.6</ele>
        <time>2023-04-05T09:08:00Z</time>
      </trkpt>
      <trkpt lat="47.9749" lon="-3.85187">
        <ele>128.7</ele>
        <time>2023-04-05T09:08:01Z</time>
      </trkpt>
      <trkpt lat="47.97496" lon="-3.85186">
        <ele>128.8</ele>
        <time>2023-04-05T09:08:02Z</time>
      </trkpt>
      <trkpt lat="47.97501" lon="-3.85186">
        <ele>128.9</ele>
        <time>2023-04-05T09:08:03Z</time>
      </trkpt>
      <trkpt lat="47.97507" lon="-3.85187">
        <ele>129</ele>
        <time>2023-04-05T09:08:04Z</time>
      </trkpt>
      <trkpt lat="47.97513" lon="-3.85187">
        <ele>129</ele>
        <time>2023-04-05T09:08:05Z</time>
      </trkpt>
      <trkpt lat="47.97518" lon="-3.85187">
        <ele>129.1</ele>
        <time>2023-04-05T09:08:06Z</time>
      </trkpt>
      <trkpt lat="47.97524" lon="-3.85188">
        <ele>129.1</ele>
        <time>2023-04-05T09:08:07Z</time>
      </trkpt>
      <trkpt lat="47.97529" lon="-3.85189">
        <ele>129.2</ele>
        <time>2023-04-05T09:08:08Z</time>
      </trkpt>
      <trkpt lat="47.97535" lon="-3.8519">
        <ele>129.2</ele>
        <time>2023-04-05T09:08:09Z</time>
      </trkpt>
      <trkpt lat="47.97541" lon="-3.8519">
        <ele>129.1</ele>
        <time>2023-04-05T09:08:10Z</time>
      </trkpt>
      <trkpt lat="47.97546" lon="-3.8519">
        <ele>129.1</ele>
        <time>2023-04-05T09:08:11Z</time>
      </trkpt>
      <trkpt lat="47.97552" lon="-3.85191">
        <ele>129.1</ele>
        <time>2023-04-05T09:08:12Z</time>
      </trkpt>
      <trkpt lat="47.97558" lon="-3.85191">
        <ele>129</ele>
        <time>2023-04-05T09:08:13Z</time>
      </trkpt>
      <trkpt lat="47.97563" lon="-3.85191">
        <ele>129</ele>
        <time>2023-04-05T09:08:14Z</time>
      </trkpt>
      <trkpt lat="47.97568" lon="-3.85192">
        <ele>129</ele>
        <time>2023-04-05T09:08:15Z</time>
      </trkpt>
      <trkpt lat="47.97574" lon="-3.85193">
        <ele>129</ele>
        <time>2023-04-05T09:08:16Z</time>
      </trkpt>
      <trkpt lat="47.9758" lon="-3.85194">
        <ele>128.9</ele>
        <time>2023-04-05T09:08:17Z</time>
      </trkpt>
      <trkpt lat="47.97586" lon="-3.85195">
        <ele>128.9</ele>
        <time>2023-04-05T09:08:18Z</time>
      </trkpt>
      <trkpt lat="47.97592" lon="-3.85195">
        <ele>128.7</ele>
        <time>2023-04-05T09:08:19Z</time>
      </trkpt>
      <trkpt lat="47.97598" lon="-3.85196">
        <ele>128.6</ele>
        <time>2023-04-05T09:08:20Z</time>
      </trkpt>
      <trkpt lat="47.97604" lon="-3.85195">
        <ele>128.4</ele>
        <time>2023-04-05T09:08:21Z</time>
      </trkpt>
      <trkpt lat="47.9761" lon="-3.85195">
        <ele>128.1</ele>
        <time>2023-04-05T09:08:22Z</time>
      </trkpt>
      <trkpt lat="47.97617" lon="-3.85195">
        <ele>127.9</ele>
        <time>2023-04-05T09:08:23Z</time>
      </trkpt>
      <trkpt lat="47.97623" lon="-3.85195">
        <ele>127.6</ele>
        <time>2023-04-05T09:08:24Z</time>
      </trkpt>
      <trkpt lat="47.9763" lon="-3.85195">
        <ele>127.4</ele>
        <time>2023-04-05T09:08:25Z</time>
      </trkpt>
      <trkpt lat="47.97637" lon="-3.85195">
        <ele>127.2</ele>
        <time>2023-04-05T09:08:26Z</time>
      </trkpt>
      <trkpt lat="47.97644" lon="-3.85194">
        <ele>126.9</ele>
        <time>2023-04-05T09:08:27Z</time>
      </trkpt>
      <trkpt lat="47.97651" lon="-3.85194">
        <ele>126.7</ele>
        <time>2023-04-05T09:08:28Z</time>
      </trkpt>
      <trkpt lat="47.97658" lon="-3.85194">
        <ele>126.4</ele>
        <time>2023-04-05T09:08:29Z</time>
      </trkpt>
      <trkpt lat="47.97665" lon="-3.85194">
        <ele>126.1</ele>
        <time>2023-04-05T09:08:30Z</time>
      </trkpt>
      <trkpt lat="47.97673" lon="-3.85194">
        <ele>125.9</ele>
        <time>2023-04-05T09:08:31Z</time>
      </trkpt>
      <trkpt lat="47.9768" lon="-3.85193">
        <ele>125.6</ele>
        <time>2023-04-05T09:08:32Z</time>
      </trkpt>
      <trkpt lat="47.97688" lon="-3.85193">
        <ele>125.4</ele>
        <time>2023-04-05T09:08:33Z</time>
      </trkpt>
      <trkpt lat="47.97695" lon="-3.85193">
        <ele>125.1</ele>
        <time>2023-04-05T09:08:34Z</time>
      </trkpt>
      <trkpt lat="47.97703" lon="-3.85194">
        <ele>124.8</ele>
        <time>2023-04-05T09:08:35Z</time>
      </trkpt>
      <trkpt lat="47.9771" lon="-3.85194">
        <ele>124.5</ele>
        <time>2023-04-05T09:08:36Z</time>
      </trkpt>
      <trkpt lat="47.97718" lon="-3.85196">
        <ele>124.3</ele>
        <time>2023-04-05T09:08:37Z</time>
      </trkpt>
      <trkpt lat="47.97725" lon="-3.85197">
        <ele>124</ele>
        <time>2023-04-05T09:08:38Z</time>
      </trkpt>
      <trkpt lat="47.97733" lon="-3.85199">
        <ele>123.6</ele>
        <time>2023-04-05T09:08:39Z</time>
      </trkpt>
      <trkpt lat="47.97741" lon="-3.852">
        <ele>123.2</ele>
        <time>2023-04-05T09:08:40Z</time>
      </trkpt>
      <trkpt lat="47.97748" lon="-3.85204">
        <ele>122.8</ele>
        <time>2023-04-05T09:08:41Z</time>
      </trkpt>
      <trkpt lat="47.97757" lon="-3.85207">
        <ele>122.3</ele>
        <time>2023-04-05T09:08:42Z</time>
      </trkpt>
      <trkpt lat="47.97765" lon="-3.85209">
        <ele>121.9</ele>
        <time>2023-04-05T09:08:43Z</time>
      </trkpt>
      <trkpt lat="47.97773" lon="-3.85212">
        <ele>121.4</ele>
        <time>2023-04-05T09:08:44Z</time>
      </trkpt>
      <trkpt lat="47.97782" lon="-3.85215">
        <ele>120.9</ele>
        <time>2023-04-05T09:08:45Z</time>
      </trkpt>
      <trkpt lat="47.97791" lon="-3.85218">
        <ele>120.4</ele>
        <time>2023-04-05T09:08:46Z</time>
      </trkpt>
      <trkpt lat="47.97799" lon="-3.85221">
        <ele>120</ele>
        <time>2023-04-05T09:08:47Z</time>
      </trkpt>
      <trkpt lat="47.97809" lon="-3.85224">
        <ele>119.6</ele>
        <time>2023-04-05T09:08:48Z</time>
      </trkpt>
      <trkpt lat="47.97818" lon="-3.85227">
        <ele>119.2</ele>
        <time>2023-04-05T09:08:49Z</time>
      </trkpt>
      <trkpt lat="47.97828" lon="-3.8523">
        <ele>118.7</ele>
        <time>2023-04-05T09:08:50Z</time>
      </trkpt>
      <trkpt lat="47.97838" lon="-3.85233">
        <ele>118.2</ele>
        <time>2023-04-05T09:08:51Z</time>
      </trkpt>
      <trkpt lat="47.97847" lon="-3.85237">
        <ele>117.6</ele>
        <time>2023-04-05T09:08:52Z</time>
      </trkpt>
      <trkpt lat="47.97858" lon="-3.8524">
        <ele>117.1</ele>
        <time>2023-04-05T09:08:53Z</time>
      </trkpt>
      <trkpt lat="47.97868" lon="-3.85243">
        <ele>116.7</ele>
        <time>2023-04-05T09:08:54Z</time>
      </trkpt>
      <trkpt lat="47.97878" lon="-3.85246">
        <ele>116.4</ele>
        <time>2023-04-05T09:08:55Z</time>
      </trkpt>
      <trkpt lat="47.97888" lon="-3.85248">
        <ele>116.1</ele>
        <time>2023-04-05T09:08:56Z</time>
      </trkpt>
      <trkpt lat="47.97899" lon="-3.8525">
        <ele>116</ele>
        <time>2023-04-05T09:08:57Z</time>
      </trkpt>
      <trkpt lat="47.97909" lon="-3.8525">
        <ele>115.9</ele>
        <time>2023-04-05T09:08:58Z</time>
      </trkpt>
      <trkpt lat="47.97918" lon="-3.85248">
        <ele>116</ele>
        <time>2023-04-05T09:08:59Z</time>
      </trkpt>
      <trkpt lat="47.97927" lon="-3.85247">
        <ele>116.2</ele>
        <time>2023-04-05T09:09:00Z</time>
      </trkpt>
      <trkpt lat="47.97935" lon="-3.85245">
        <ele>116.4</ele>
        <time>2023-04-05T09:09:01Z</time>
      </trkpt>
      <trkpt lat="47.97944" lon="-3.85244">
        <ele>116.7</ele>
        <time>2023-04-05T09:09:02Z</time>
      </trkpt>
      <trkpt lat="47.97951" lon="-3.85242">
        <ele>117</ele>
        <time>2023-04-05T09:09:03Z</time>
      </trkpt>
      <trkpt lat="47.97959" lon="-3.85242">
        <ele>117.4</ele>
        <time>2023-04-05T09:09:04Z</time>
      </trkpt>
      <trkpt lat="47.97965" lon="-3.85241">
        <ele>117.7</ele>
        <time>2023-04-05T09:09:05Z</time>
      </trkpt>
      <trkpt lat="47.97971" lon="-3.8524">
        <ele>118</ele>
        <time>2023-04-05T09:09:06Z</time>
      </trkpt>
      <trkpt lat="47.97976" lon="-3.85239">
        <ele>118.3</ele>
        <time>2023-04-05T09:09:07Z</time>
      </trkpt>
      <trkpt lat="47.9798" lon="-3.85239">
        <ele>118.5</ele>
        <time>2023-04-05T09:09:08Z</time>
      </trkpt>
      <trkpt lat="47.97985" lon="-3.85238">
        <ele>118.8</ele>
        <time>2023-04-05T09:09:09Z</time>
      </trkpt>
      <trkpt lat="47.9799" lon="-3.85238">
        <ele>119.1</ele>
        <time>2023-04-05T09:09:10Z</time>
      </trkpt>
      <trkpt lat="47.97995" lon="-3.85238">
        <ele>119.4</ele>
        <time>2023-04-05T09:09:11Z</time>
      </trkpt>
      <trkpt lat="47.97999" lon="-3.85237">
        <ele>119.7</ele>
        <time>2023-04-05T09:09:12Z</time>
      </trkpt>
      <trkpt lat="47.98004" lon="-3.85237">
        <ele>119.9</ele>
        <time>2023-04-05T09:09:13Z</time>
      </trkpt>
      <trkpt lat="47.98007" lon="-3.85236">
        <ele>120.1</ele>
        <time>2023-04-05T09:09:14Z</time>
      </trkpt>
      <trkpt lat="47.98012" lon="-3.85236">
        <ele>120.3</ele>
        <time>2023-04-05T09:09:15Z</time>
      </trkpt>
      <trkpt lat="47.98016" lon="-3.85236">
        <ele>120.6</ele>
        <time>2023-04-05T09:09:16Z</time>
      </trkpt>
      <trkpt lat="47.9802" lon="-3.85236">
        <ele>120.8</ele>
        <time>2023-04-05T09:09:17Z</time>
      </trkpt>
      <trkpt lat="47.98025" lon="-3.85235">
        <ele>121</ele>
        <time>2023-04-05T09:09:18Z</time>
      </trkpt>
      <trkpt lat="47.98029" lon="-3.85235">
        <ele>121.2</ele>
        <time>2023-04-05T09:09:19Z</time>
      </trkpt>
      <trkpt lat="47.98033" lon="-3.85235">
        <ele>121.4</ele>
        <time>2023-04-05T09:09:20Z</time>
      </trkpt>
      <trkpt lat="47.98037" lon="-3.85234">
        <ele>121.5</ele>
        <time>2023-04-05T09:09:21Z</time>
      </trkpt>
      <trkpt lat="47.98043" lon="-3.85235">
        <ele>121.8</ele>
        <time>2023-04-05T09:09:22Z</time>
      </trkpt>
      <trkpt lat="47.98047" lon="-3.85235">
        <ele>121.9</ele>
        <time>2023-04-05T09:09:23Z</time>
      </trkpt>
      <trkpt lat="47.98051" lon="-3.85236">
        <ele>122.1</ele>
        <time>2023-04-05T09:09:24Z</time>
      </trkpt>
      <trkpt lat="47.98055" lon="-3.85236">
        <ele>122.2</ele>
        <time>2023-04-05T09:09:25Z</time>
      </trkpt>
      <trkpt lat="47.98065" lon="-3.85236">
        <ele>122.6</ele>
        <time>2023-04-05T09:09:27Z</time>
      </trkpt>
      <trkpt lat="47.9807" lon="-3.85236">
        <ele>122.8</ele>
        <time>2023-04-05T09:09:28Z</time>
      </trkpt>
      <trkpt lat="47.98078" lon="-3.85238">
        <ele>122.9</ele>
        <time>2023-04-05T09:09:30Z</time>
      </trkpt>
      <trkpt lat="47.98082" lon="-3.85238">
        <ele>123</ele>
        <time>2023-04-05T09:09:32Z</time>
      </trkpt>
      <trkpt lat="47.9809" lon="-3.85239">
        <ele>123.2</ele>
        <time>2023-04-05T09:09:33Z</time>
      </trkpt>
      <trkpt lat="47.98095" lon="-3.8524">
        <ele>123.2</ele>
        <time>2023-04-05T09:09:35Z</time>
      </trkpt>
      <trkpt lat="47.98103" lon="-3.85243">
        <ele>123.2</ele>
        <time>2023-04-05T09:09:36Z</time>
      </trkpt>
      <trkpt lat="47.98108" lon="-3.85243">
        <ele>123.2</ele>
        <time>2023-04-05T09:09:38Z</time>
      </trkpt>
      <trkpt lat="47.98112" lon="-3.85243">
        <ele>123.2</ele>
        <time>2023-04-05T09:09:39Z</time>
      </trkpt>
      <trkpt lat="47.98117" lon="-3.85242">
        <ele>123.2</ele>
        <time>2023-04-05T09:09:40Z</time>
      </trkpt>
      <trkpt lat="47.98121" lon="-3.85242">
        <ele>123.2</ele>
        <time>2023-04-05T09:09:41Z</time>
      </trkpt>
      <trkpt lat="47.98124" lon="-3.85242">
        <ele>123.1</ele>
        <time>2023-04-05T09:09:42Z</time>
      </trkpt>
      <trkpt lat="47.98129" lon="-3.85241">
        <ele>123.1</ele>
        <time>2023-04-05T09:09:43Z</time>
      </trkpt>
      <trkpt lat="47.98134" lon="-3.85241">
        <ele>123.1</ele>
        <time>2023-04-05T09:09:44Z</time>
      </trkpt>
      <trkpt lat="47.98137" lon="-3.85242">
        <ele>123.1</ele>
        <time>2023-04-05T09:09:45Z</time>
      </trkpt>
      <trkpt lat="47.98144" lon="-3.85242">
        <ele>123.1</ele>
        <time>2023-04-05T09:09:46Z</time>
      </trkpt>
      <trkpt lat="47.98149" lon="-3.85241">
        <ele>123</ele>
        <time>2023-04-05T09:09:47Z</time>
      </trkpt>
      <trkpt lat="47.98154" lon="-3.85242">
        <ele>123</ele>
        <time>2023-04-05T09:09:48Z</time>
      </trkpt>
      <trkpt lat="47.98161" lon="-3.8524">
        <ele>122.9</ele>
        <time>2023-04-05T09:09:50Z</time>
      </trkpt>
      <trkpt lat="47.98166" lon="-3.85239">
        <ele>122.9</ele>
        <time>2023-04-05T09:09:52Z</time>
      </trkpt>
      <trkpt lat="47.98171" lon="-3.85239">
        <ele>122.8</ele>
        <time>2023-04-05T09:09:53Z</time>
      </trkpt>
      <trkpt lat="47.98178" lon="-3.85238">
        <ele>122.6</ele>
        <time>2023-04-05T09:09:54Z</time>
      </trkpt>
      <trkpt lat="47.98183" lon="-3.85238">
        <ele>122.5</ele>
        <time>2023-04-05T09:09:55Z</time>
      </trkpt>
      <trkpt lat="47.98187" lon="-3.85237">
        <ele>122.3</ele>
        <time>2023-04-05T09:09:56Z</time>
      </trkpt>
      <trkpt lat="47.98191" lon="-3.85235">
        <ele>122.2</ele>
        <time>2023-04-05T09:09:57Z</time>
      </trkpt>
      <trkpt lat="47.98196" lon="-3.85234">
        <ele>122</ele>
        <time>2023-04-05T09:09:58Z</time>
      </trkpt>
      <trkpt lat="47.98201" lon="-3.85232">
        <ele>121.7</ele>
        <time>2023-04-05T09:09:59Z</time>
      </trkpt>
      <trkpt lat="47.98207" lon="-3.85231">
        <ele>121.4</ele>
        <time>2023-04-05T09:10:00Z</time>
      </trkpt>
      <trkpt lat="47.98213" lon="-3.85229">
        <ele>121.1</ele>
        <time>2023-04-05T09:10:01Z</time>
      </trkpt>
      <trkpt lat="47.98217" lon="-3.85227">
        <ele>120.9</ele>
        <time>2023-04-05T09:10:02Z</time>
      </trkpt>
      <trkpt lat="47.98221" lon="-3.85224">
        <ele>120.7</ele>
        <time>2023-04-05T09:10:03Z</time>
      </trkpt>
      <trkpt lat="47.98224" lon="-3.85223">
        <ele>120.5</ele>
        <time>2023-04-05T09:10:04Z</time>
      </trkpt>
      <trkpt lat="47.98231" lon="-3.85223">
        <ele>120.2</ele>
        <time>2023-04-05T09:10:05Z</time>
      </trkpt>
      <trkpt lat="47.98234" lon="-3.8522">
        <ele>120</ele>
        <time>2023-04-05T09:10:07Z</time>
      </trkpt>
      <trkpt lat="47.98236" lon="-3.85217">
        <ele>119.8</ele>
        <time>2023-04-05T09:10:08Z</time>
      </trkpt>
      <trkpt lat="47.98243" lon="-3.85214">
        <ele>119.3</ele>
        <time>2023-04-05T09:10:09Z</time>
      </trkpt>
      <trkpt lat="47.98252" lon="-3.85212">
        <ele>118.7</ele>
        <time>2023-04-05T09:10:11Z</time>
      </trkpt>
      <trkpt lat="47.98254" lon="-3.85211">
        <ele>118.6</ele>
        <time>2023-04-05T09:10:13Z</time>
      </trkpt>
      <trkpt lat="47.98254" lon="-3.85212">
        <ele>118.5</ele>
        <time>2023-04-05T09:10:14Z</time>
      </trkpt>
      <trkpt lat="47.98254" lon="-3.85212">
        <ele>118.5</ele>
        <time>2023-04-05T09:10:15Z</time>
      </trkpt>
      <trkpt lat="47.98253" lon="-3.85212">
        <ele>118.4</ele>
        <time>2023-04-05T09:10:16Z</time>
      </trkpt>
      <trkpt lat="47.98253" lon="-3.85212">
        <ele>118.4</ele>
        <time>2023-04-05T09:10:17Z</time>
      </trkpt>
      <trkpt lat="47.98253" lon="-3.85213">
        <ele>118.4</ele>
        <time>2023-04-05T09:10:18Z</time>
      </trkpt>
      <trkpt lat="47.98253" lon="-3.85213">
        <ele>118.4</ele>
        <time>2023-04-05T09:10:19Z</time>
      </trkpt>
      <trkpt lat="47.98253" lon="-3.85213">
        <ele>118.4</ele>
        <time>2023-04-05T09:10:20Z</time>
      </trkpt>
      <trkpt lat="47.98253" lon="-3.85213">
        <ele>118.4</ele>
        <time>2023-04-05T09:10:21Z</time>
      </trkpt>
      <trkpt lat="47.98253" lon="-3.85213">
        <ele>118.4</ele>
        <time>2023-04-05T09:10:22Z</time>
      </trkpt>
      <trkpt lat="47.98253" lon="-3.85213">
        <ele>118.3</ele>
        <time>2023-04-05T09:10:23Z</time>
      </trkpt>
      <trkpt lat="47.98253" lon="-3.85213">
        <ele>118.3</ele>
        <time>2023-04-05T09:10:24Z</time>
      </trkpt>
      <trkpt lat="47.98255" lon="-3.8521">
        <ele>118.1</ele>
        <time>2023-04-05T09:10:48Z</time>
      </trkpt>
      <trkpt lat="47.98256" lon="-3.85208">
        <ele>118</ele>
        <time>2023-04-05T09:10:49Z</time>
      </trkpt>
      <trkpt lat="47.98258" lon="-3.85206">
        <ele>117.8</ele>
        <time>2023-04-05T09:10:51Z</time>
      </trkpt>
      <trkpt lat="47.98261" lon="-3.85202">
        <ele>117.5</ele>
        <time>2023-04-05T09:10:52Z</time>
      </trkpt>
      <trkpt lat="47.98265" lon="-3.852">
        <ele>117.1</ele>
        <time>2023-04-05T09:10:53Z</time>
      </trkpt>
      <trkpt lat="47.98273" lon="-3.85199">
        <ele>116.4</ele>
        <time>2023-04-05T09:10:54Z</time>
      </trkpt>
      <trkpt lat="47.98279" lon="-3.85197">
        <ele>115.9</ele>
        <time>2023-04-05T09:10:55Z</time>
      </trkpt>
      <trkpt lat="47.98283" lon="-3.85195">
        <ele>115.5</ele>
        <time>2023-04-05T09:10:56Z</time>
      </trkpt>
      <trkpt lat="47.98287" lon="-3.85192">
        <ele>115.2</ele>
        <time>2023-04-05T09:10:57Z</time>
      </trkpt>
      <trkpt lat="47.98298" lon="-3.85188">
        <ele>114.4</ele>
        <time>2023-04-05T09:10:58Z</time>
      </trkpt>
      <trkpt lat="47.98302" lon="-3.85186">
        <ele>114.1</ele>
        <time>2023-04-05T09:10:59Z</time>
      </trkpt>
      <trkpt lat="47.98308" lon="-3.85181">
        <ele>113.7</ele>
        <time>2023-04-05T09:11:00Z</time>
      </trkpt>
      <trkpt lat="47.98314" lon="-3.85178">
        <ele>113.4</ele>
        <time>2023-04-05T09:11:01Z</time>
      </trkpt>
      <trkpt lat="47.98318" lon="-3.85174">
        <ele>113.1</ele>
        <time>2023-04-05T09:11:02Z</time>
      </trkpt>
      <trkpt lat="47.98324" lon="-3.85171">
        <ele>112.8</ele>
        <time>2023-04-05T09:11:03Z</time>
      </trkpt>
      <trkpt lat="47.98331" lon="-3.85166">
        <ele>112.5</ele>
        <time>2023-04-05T09:11:04Z</time>
      </trkpt>
      <trkpt lat="47.98338" lon="-3.85163">
        <ele>112.1</ele>
        <time>2023-04-05T09:11:05Z</time>
      </trkpt>
      <trkpt lat="47.98344" lon="-3.85158">
        <ele>111.7</ele>
        <time>2023-04-05T09:11:06Z</time>
      </trkpt>
      <trkpt lat="47.9835" lon="-3.85152">
        <ele>111.5</ele>
        <time>2023-04-05T09:11:07Z</time>
      </trkpt>
      <trkpt lat="47.98356" lon="-3.85147">
        <ele>111.1</ele>
        <time>2023-04-05T09:11:08Z</time>
      </trkpt>
      <trkpt lat="47.98362" lon="-3.85141">
        <ele>110.8</ele>
        <time>2023-04-05T09:11:09Z</time>
      </trkpt>
      <trkpt lat="47.98366" lon="-3.85134">
        <ele>110.5</ele>
        <time>2023-04-05T09:11:10Z</time>
      </trkpt>
      <trkpt lat="47.98371" lon="-3.85128">
        <ele>110.2</ele>
        <time>2023-04-05T09:11:11Z</time>
      </trkpt>
      <trkpt lat="47.98377" lon="-3.85124">
        <ele>109.9</ele>
        <time>2023-04-05T09:11:12Z</time>
      </trkpt>
      <trkpt lat="47.98384" lon="-3.85121">
        <ele>109.7</ele>
        <time>2023-04-05T09:11:13Z</time>
      </trkpt>
      <trkpt lat="47.9839" lon="-3.85117">
        <ele>109.5</ele>
        <time>2023-04-05T09:11:14Z</time>
      </trkpt>
      <trkpt lat="47.98395" lon="-3.85114">
        <ele>109.3</ele>
        <time>2023-04-05T09:11:15Z</time>
      </trkpt>
      <trkpt lat="47.98401" lon="-3.85111">
        <ele>109.1</ele>
        <time>2023-04-05T09:11:16Z</time>
      </trkpt>
      <trkpt lat="47.98407" lon="-3.85106">
        <ele>108.9</ele>
        <time>2023-04-05T09:11:17Z</time>
      </trkpt>
      <trkpt lat="47.98412" lon="-3.85102">
        <ele>108.7</ele>
        <time>2023-04-05T09:11:18Z</time>
      </trkpt>
      <trkpt lat="47.98418" lon="-3.85098">
        <ele>108.4</ele>
        <time>2023-04-05T09:11:19Z</time>
      </trkpt>
      <trkpt lat="47.98423" lon="-3.85094">
        <ele>108.2</ele>
        <time>2023-04-05T09:11:20Z</time>
      </trkpt>
      <trkpt lat="47.98428" lon="-3.8509">
        <ele>108</ele>
        <time>2023-04-05T09:11:21Z</time>
      </trkpt>
      <trkpt lat="47.98434" lon="-3.85084">
        <ele>107.7</ele>
        <time>2023-04-05T09:11:22Z</time>
      </trkpt>
      <trkpt lat="47.9844" lon="-3.8508">
        <ele>107.4</ele>
        <time>2023-04-05T09:11:23Z</time>
      </trkpt>
      <trkpt lat="47.98446" lon="-3.85075">
        <ele>107.2</ele>
        <time>2023-04-05T09:11:24Z</time>
      </trkpt>
      <trkpt lat="47.9845" lon="-3.85071">
        <ele>107</ele>
        <time>2023-04-05T09:11:25Z</time>
      </trkpt>
      <trkpt lat="47.98455" lon="-3.85068">
        <ele>106.9</ele>
        <time>2023-04-05T09:11:26Z</time>
      </trkpt>
      <trkpt lat="47.9846" lon="-3.85064">
        <ele>106.7</ele>
        <time>2023-04-05T09:11:27Z</time>
      </trkpt>
      <trkpt lat="47.98466" lon="-3.85061">
        <ele>106.6</ele>
        <time>2023-04-05T09:11:28Z</time>
      </trkpt>
      <trkpt lat="47.98471" lon="-3.85058">
        <ele>106.4</ele>
        <time>2023-04-05T09:11:29Z</time>
      </trkpt>
      <trkpt lat="47.98474" lon="-3.85054">
        <ele>106.3</ele>
        <time>2023-04-05T09:11:30Z</time>
      </trkpt>
      <trkpt lat="47.98478" lon="-3.85051">
        <ele>106.2</ele>
        <time>2023-04-05T09:11:31Z</time>
      </trkpt>
      <trkpt lat="47.98484" lon="-3.85048">
        <ele>106</ele>
        <time>2023-04-05T09:11:32Z</time>
      </trkpt>
      <trkpt lat="47.9849" lon="-3.85045">
        <ele>105.8</ele>
        <time>2023-04-05T09:11:33Z</time>
      </trkpt>
      <trkpt lat="47.98495" lon="-3.85044">
        <ele>105.6</ele>
        <time>2023-04-05T09:11:34Z</time>
      </trkpt>
      <trkpt lat="47.985" lon="-3.85044">
        <ele>105.4</ele>
        <time>2023-04-05T09:11:35Z</time>
      </trkpt>
      <trkpt lat="47.98505" lon="-3.85045">
        <ele>105.2</ele>
        <time>2023-04-05T09:11:36Z</time>
      </trkpt>
      <trkpt lat="47.98511" lon="-3.85047">
        <ele>105</ele>
        <time>2023-04-05T09:11:37Z</time>
      </trkpt>
      <trkpt lat="47.98516" lon="-3.85051">
        <ele>104.7</ele>
        <time>2023-04-05T09:11:38Z</time>
      </trkpt>
      <trkpt lat="47.98519" lon="-3.85059">
        <ele>104.5</ele>
        <time>2023-04-05T09:11:39Z</time>
      </trkpt>
      <trkpt lat="47.98522" lon="-3.85066">
        <ele>104.3</ele>
        <time>2023-04-05T09:11:40Z</time>
      </trkpt>
      <trkpt lat="47.98527" lon="-3.85069">
        <ele>104.1</ele>
        <time>2023-04-05T09:11:41Z</time>
      </trkpt>
      <trkpt lat="47.98533" lon="-3.8507">
        <ele>103.9</ele>
        <time>2023-04-05T09:11:42Z</time>
      </trkpt>
      <trkpt lat="47.98538" lon="-3.8507">
        <ele>103.8</ele>
        <time>2023-04-05T09:11:43Z</time>
      </trkpt>
      <trkpt lat="47.98541" lon="-3.8507">
        <ele>103.8</ele>
        <time>2023-04-05T09:11:44Z</time>
      </trkpt>
      <trkpt lat="47.98545" lon="-3.85069">
        <ele>103.9</ele>
        <time>2023-04-05T09:11:45Z</time>
      </trkpt>
      <trkpt lat="47.98547" lon="-3.85068">
        <ele>103.9</ele>
        <time>2023-04-05T09:11:46Z</time>
      </trkpt>
      <trkpt lat="47.98549" lon="-3.85068">
        <ele>104</ele>
        <time>2023-04-05T09:11:47Z</time>
      </trkpt>
      <trkpt lat="47.9855" lon="-3.85068">
        <ele>104</ele>
        <time>2023-04-05T09:11:48Z</time>
      </trkpt>
      <trkpt lat="47.98553" lon="-3.85067">
        <ele>104.1</ele>
        <time>2023-04-05T09:11:49Z</time>
      </trkpt>
      <trkpt lat="47.98554" lon="-3.85067">
        <ele>104.1</ele>
        <time>2023-04-05T09:11:50Z</time>
      </trkpt>
      <trkpt lat="47.98555" lon="-3.85068">
        <ele>104.1</ele>
        <time>2023-04-05T09:11:51Z</time>
      </trkpt>
      <trkpt lat="47.98557" lon="-3.85067">
        <ele>104.2</ele>
        <time>2023-04-05T09:11:52Z</time>
      </trkpt>
      <trkpt lat="47.98561" lon="-3.85065">
        <ele>104.3</ele>
        <time>2023-04-05T09:11:53Z</time>
      </trkpt>
      <trkpt lat="47.98562" lon="-3.85063">
        <ele>104.3</ele>
        <time>2023-04-05T09:11:54Z</time>
      </trkpt>
      <trkpt lat="47.98564" lon="-3.85061">
        <ele>104.4</ele>
        <time>2023-04-05T09:11:56Z</time>
      </trkpt>
      <trkpt lat="47.98566" lon="-3.8506">
        <ele>104.4</ele>
        <time>2023-04-05T09:11:57Z</time>
      </trkpt>
      <trkpt lat="47.98567" lon="-3.8506">
        <ele>104.5</ele>
        <time>2023-04-05T09:11:58Z</time>
      </trkpt>
      <trkpt lat="47.98569" lon="-3.85059">
        <ele>104.5</ele>
        <time>2023-04-05T09:11:59Z</time>
      </trkpt>
      <trkpt lat="47.9857" lon="-3.85058">
        <ele>104.6</ele>
        <time>2023-04-05T09:12:00Z</time>
      </trkpt>
      <trkpt lat="47.98571" lon="-3.85057">
        <ele>104.6</ele>
        <time>2023-04-05T09:12:01Z</time>
      </trkpt>
      <trkpt lat="47.98575" lon="-3.85057">
        <ele>104.7</ele>
        <time>2023-04-05T09:12:02Z</time>
      </trkpt>
      <trkpt lat="47.98577" lon="-3.85057">
        <ele>104.8</ele>
        <time>2023-04-05T09:12:03Z</time>
      </trkpt>
      <trkpt lat="47.9858" lon="-3.85056">
        <ele>104.9</ele>
        <time>2023-04-05T09:12:04Z</time>
      </trkpt>
      <trkpt lat="47.98582" lon="-3.85055">
        <ele>105</ele>
        <time>2023-04-05T09:12:05Z</time>
      </trkpt>
      <trkpt lat="47.98585" lon="-3.85053">
        <ele>105.1</ele>
        <time>2023-04-05T09:12:06Z</time>
      </trkpt>
      <trkpt lat="47.98588" lon="-3.8505">
        <ele>105.3</ele>
        <time>2023-04-05T09:12:07Z</time>
      </trkpt>
      <trkpt lat="47.98589" lon="-3.8505">
        <ele>105.3</ele>
        <time>2023-04-05T09:12:08Z</time>
      </trkpt>
      <trkpt lat="47.98592" lon="-3.85048">
        <ele>105.5</ele>
        <time>2023-04-05T09:12:09Z</time>
      </trkpt>
      <trkpt lat="47.98595" lon="-3.85046">
        <ele>105.6</ele>
        <time>2023-04-05T09:12:11Z</time>
      </trkpt>
      <trkpt lat="47.98597" lon="-3.85044">
        <ele>105.8</ele>
        <time>2023-04-05T09:12:12Z</time>
      </trkpt>
      <trkpt lat="47.98602" lon="-3.85039">
        <ele>106.1</ele>
        <time>2023-04-05T09:12:13Z</time>
      </trkpt>
      <trkpt lat="47.98608" lon="-3.85035">
        <ele>106.4</ele>
        <time>2023-04-05T09:12:15Z</time>
      </trkpt>
      <trkpt lat="47.9861" lon="-3.85034">
        <ele>106.5</ele>
        <time>2023-04-05T09:12:17Z</time>
      </trkpt>
      <trkpt lat="47.98613" lon="-3.85032">
        <ele>106.7</ele>
        <time>2023-04-05T09:12:18Z</time>
      </trkpt>
      <trkpt lat="47.98615" lon="-3.85032">
        <ele>106.8</ele>
        <time>2023-04-05T09:12:19Z</time>
      </trkpt>
      <trkpt lat="47.98619" lon="-3.8503">
        <ele>107</ele>
        <time>2023-04-05T09:12:20Z</time>
      </trkpt>
      <trkpt lat="47.9862" lon="-3.85022">
        <ele>107.2</ele>
        <time>2023-04-05T09:12:22Z</time>
      </trkpt>
      <trkpt lat="47.98621" lon="-3.85019">
        <ele>107.3</ele>
        <time>2023-04-05T09:12:23Z</time>
      </trkpt>
      <trkpt lat="47.98621" lon="-3.85017">
        <ele>107.3</ele>
        <time>2023-04-05T09:12:24Z</time>
      </trkpt>
      <trkpt lat="47.98621" lon="-3.85012">
        <ele>107.4</ele>
        <time>2023-04-05T09:12:25Z</time>
      </trkpt>
      <trkpt lat="47.9862" lon="-3.85007">
        <ele>107.5</ele>
        <time>2023-04-05T09:12:26Z</time>
      </trkpt>
      <trkpt lat="47.98618" lon="-3.85003">
        <ele>107.6</ele>
        <time>2023-04-05T09:12:27Z</time>
      </trkpt>
      <trkpt lat="47.98618" lon="-3.85">
        <ele>107.6</ele>
        <time>2023-04-05T09:12:28Z</time>
      </trkpt>
      <trkpt lat="47.98618" lon="-3.84999">
        <ele>107.6</ele>
        <time>2023-04-05T09:12:29Z</time>
      </trkpt>
      <trkpt lat="47.98617" lon="-3.84998">
        <ele>107.6</ele>
        <time>2023-04-05T09:12:30Z</time>
      </trkpt>
      <trkpt lat="47.98617" lon="-3.84998">
        <ele>107.6</ele>
        <time>2023-04-05T09:12:31Z</time>
      </trkpt>
      <trkpt lat="47.98618" lon="-3.84998">
        <ele>107.6</ele>
        <time>2023-04-05T09:12:32Z</time>
      </trkpt>
      <trkpt lat="47.98618" lon="-3.84999">
        <ele>107.7</ele>
        <time>2023-04-05T09:12:33Z</time>
      </trkpt>
      <trkpt lat="47.98618" lon="-3.84999">
        <ele>107.7</ele>
        <time>2023-04-05T09:12:34Z</time>
      </trkpt>
      <trkpt lat="47.98618" lon="-3.84998">
        <ele>107.7</ele>
        <time>2023-04-05T09:12:35Z</time>
      </trkpt>
      <trkpt lat="47.98618" lon="-3.84998">
        <ele>107.7</ele>
        <time>2023-04-05T09:12:36Z</time>
      </trkpt>
      <trkpt lat="47.98618" lon="-3.84998">
        <ele>107.7</ele>
        <time>2023-04-05T09:12:37Z</time>
      </trkpt>
      <trkpt lat="47.98619" lon="-3.84998">
        <ele>107.7</ele>
        <time>2023-04-05T09:12:38Z</time>
      </trkpt>
      <trkpt lat="47.98619" lon="-3.84998">
        <ele>107.7</ele>
        <time>2023-04-05T09:12:39Z</time>
      </trkpt>
      <trkpt lat="47.98619" lon="-3.84998">
        <ele>107.7</ele>
        <time>2023-04-05T09:12:40Z</time>
      </trkpt>
      <trkpt lat="47.98619" lon="-3.84998">
        <ele>107.7</ele>
        <time>2023-04-05T09:12:41Z</time>
      </trkpt>
      <trkpt lat="47.98619" lon="-3.84998">
        <ele>107.7</ele>
        <time>2023-04-05T09:12:42Z</time>
      </trkpt>
      <trkpt lat="47.98619" lon="-3.84993">
        <ele>107.7</ele>
        <time>2023-04-05T09:13:03Z</time>
      </trkpt>
      <trkpt lat="47.98619" lon="-3.84991">
        <ele>107.8</ele>
        <time>2023-04-05T09:13:04Z</time>
      </trkpt>
      <trkpt lat="47.98618" lon="-3.84988">
        <ele>107.8</ele>
        <time>2023-04-05T09:13:05Z</time>
      </trkpt>
      <trkpt lat="47.98618" lon="-3.84984">
        <ele>107.9</ele>
        <time>2023-04-05T09:13:07Z</time>
      </trkpt>
      <trkpt lat="47.98618" lon="-3.84983">
        <ele>107.9</ele>
        <time>2023-04-05T09:13:08Z</time>
      </trkpt>
      <trkpt lat="47.98619" lon="-3.84981">
        <ele>107.9</ele>
        <time>2023-04-05T09:13:09Z</time>
      </trkpt>
      <trkpt lat="47.98618" lon="-3.84979">
        <ele>107.9</ele>
        <time>2023-04-05T09:13:10Z</time>
      </trkpt>
      <trkpt lat="47.98618" lon="-3.84977">
        <ele>108</ele>
        <time>2023-04-05T09:13:12Z</time>
      </trkpt>
      <trkpt lat="47.98618" lon="-3.84977">
        <ele>108</ele>
        <time>2023-04-05T09:13:13Z</time>
      </trkpt>
      <trkpt lat="47.98618" lon="-3.84976">
        <ele>108</ele>
        <time>2023-04-05T09:13:14Z</time>
      </trkpt>
      <trkpt lat="47.98618" lon="-3.84975">
        <ele>108</ele>
        <time>2023-04-05T09:13:15Z</time>
      </trkpt>
      <trkpt lat="47.98617" lon="-3.84975">
        <ele>108</ele>
        <time>2023-04-05T09:13:16Z</time>
      </trkpt>
      <trkpt lat="47.98617" lon="-3.84975">
        <ele>108</ele>
        <time>2023-04-05T09:13:18Z</time>
      </trkpt>
      <trkpt lat="47.98617" lon="-3.84975">
        <ele>108</ele>
        <time>2023-04-05T09:13:19Z</time>
      </trkpt>
      <trkpt lat="47.98617" lon="-3.84975">
        <ele>108</ele>
        <time>2023-04-05T09:13:20Z</time>
      </trkpt>
      <trkpt lat="47.98617" lon="-3.84975">
        <ele>108</ele>
        <time>2023-04-05T09:13:21Z</time>
      </trkpt>
      <trkpt lat="47.98617" lon="-3.84975">
        <ele>108</ele>
        <time>2023-04-05T09:13:22Z</time>
      </trkpt>
      <trkpt lat="47.98617" lon="-3.84974">
        <ele>108</ele>
        <time>2023-04-05T09:13:23Z</time>
      </trkpt>
      <trkpt lat="47.98617" lon="-3.84973">
        <ele>108</ele>
        <time>2023-04-05T09:13:24Z</time>
      </trkpt>
      <trkpt lat="47.98616" lon="-3.84971">
        <ele>108</ele>
        <time>2023-04-05T09:13:25Z</time>
      </trkpt>
      <trkpt lat="47.98616" lon="-3.84969">
        <ele>108.1</ele>
        <time>2023-04-05T09:13:26Z</time>
      </trkpt>
      <trkpt lat="47.98615" lon="-3.84967">
        <ele>108.1</ele>
        <time>2023-04-05T09:13:27Z</time>
      </trkpt>
      <trkpt lat="47.98614" lon="-3.84963">
        <ele>108.1</ele>
        <time>2023-04-05T09:13:28Z</time>
      </trkpt>
      <trkpt lat="47.98614" lon="-3.84962">
        <ele>108.2</ele>
        <time>2023-04-05T09:13:29Z</time>
      </trkpt>
      <trkpt lat="47.98612" lon="-3.84957">
        <ele>108.2</ele>
        <time>2023-04-05T09:13:30Z</time>
      </trkpt>
      <trkpt lat="47.98612" lon="-3.84955">
        <ele>108.2</ele>
        <time>2023-04-05T09:13:31Z</time>
      </trkpt>
      <trkpt lat="47.98612" lon="-3.84954">
        <ele>108.3</ele>
        <time>2023-04-05T09:13:32Z</time>
      </trkpt>
      <trkpt lat="47.98611" lon="-3.84948">
        <ele>108.3</ele>
        <time>2023-04-05T09:13:33Z</time>
      </trkpt>
      <trkpt lat="47.9861" lon="-3.84945">
        <ele>108.4</ele>
        <time>2023-04-05T09:13:35Z</time>
      </trkpt>
      <trkpt lat="47.98611" lon="-3.84943">
        <ele>108.4</ele>
        <time>2023-04-05T09:13:36Z</time>
      </trkpt>
      <trkpt lat="47.98612" lon="-3.84941">
        <ele>108.4</ele>
        <time>2023-04-05T09:13:37Z</time>
      </trkpt>
      <trkpt lat="47.98613" lon="-3.8494">
        <ele>108.4</ele>
        <time>2023-04-05T09:13:38Z</time>
      </trkpt>
      <trkpt lat="47.98614" lon="-3.84939">
        <ele>108.4</ele>
        <time>2023-04-05T09:13:39Z</time>
      </trkpt>
      <trkpt lat="47.98614" lon="-3.84939">
        <ele>108.4</ele>
        <time>2023-04-05T09:13:40Z</time>
      </trkpt>
      <trkpt lat="47.98614" lon="-3.84939">
        <ele>108.4</ele>
        <time>2023-04-05T09:13:41Z</time>
      </trkpt>
      <trkpt lat="47.98614" lon="-3.84939">
        <ele>108.4</ele>
        <time>2023-04-05T09:13:42Z</time>
      </trkpt>
      <trkpt lat="47.98614" lon="-3.84938">
        <ele>108.4</ele>
        <time>2023-04-05T09:13:43Z</time>
      </trkpt>
      <trkpt lat="47.98614" lon="-3.84938">
        <ele>108.5</ele>
        <time>2023-04-05T09:13:44Z</time>
      </trkpt>
      <trkpt lat="47.98615" lon="-3.84937">
        <ele>108.5</ele>
        <time>2023-04-05T09:13:45Z</time>
      </trkpt>
      <trkpt lat="47.98616" lon="-3.84936">
        <ele>108.5</ele>
        <time>2023-04-05T09:13:46Z</time>
      </trkpt>
      <trkpt lat="47.98616" lon="-3.84935">
        <ele>108.5</ele>
        <time>2023-04-05T09:13:47Z</time>
      </trkpt>
      <trkpt lat="47.98617" lon="-3.84934">
        <ele>108.5</ele>
        <time>2023-04-05T09:13:48Z</time>
      </trkpt>
      <trkpt lat="47.9862" lon="-3.84934">
        <ele>108.5</ele>
        <time>2023-04-05T09:13:49Z</time>
      </trkpt>
      <trkpt lat="47.98621" lon="-3.84934">
        <ele>108.5</ele>
        <time>2023-04-05T09:13:50Z</time>
      </trkpt>
      <trkpt lat="47.98623" lon="-3.84934">
        <ele>108.5</ele>
        <time>2023-04-05T09:13:51Z</time>
      </trkpt>
      <trkpt lat="47.98624" lon="-3.84933">
        <ele>108.5</ele>
        <time>2023-04-05T09:13:52Z</time>
      </trkpt>
      <trkpt lat="47.98627" lon="-3.84932">
        <ele>108.6</ele>
        <time>2023-04-05T09:13:53Z</time>
      </trkpt>
      <trkpt lat="47.98628" lon="-3.84931">
        <ele>108.6</ele>
        <time>2023-04-05T09:13:54Z</time>
      </trkpt>
      <trkpt lat="47.98629" lon="-3.84931">
        <ele>108.6</ele>
        <time>2023-04-05T09:13:55Z</time>
      </trkpt>
      <trkpt lat="47.98628" lon="-3.84931">
        <ele>108.6</ele>
        <time>2023-04-05T09:13:56Z</time>
      </trkpt>
      <trkpt lat="47.98628" lon="-3.84932">
        <ele>108.6</ele>
        <time>2023-04-05T09:13:57Z</time>
      </trkpt>
      <trkpt lat="47.98627" lon="-3.84932">
        <ele>108.6</ele>
        <time>2023-04-05T09:13:58Z</time>
      </trkpt>
      <trkpt lat="47.98627" lon="-3.84933">
        <ele>108.6</ele>
        <time>2023-04-05T09:13:59Z</time>
      </trkpt>
      <trkpt lat="47.98626" lon="-3.84933">
        <ele>108.6</ele>
        <time>2023-04-05T09:14:00Z</time>
      </trkpt>
      <trkpt lat="47.98626" lon="-3.84934">
        <ele>108.6</ele>
        <time>2023-04-05T09:14:01Z</time>
      </trkpt>
      <trkpt lat="47.98625" lon="-3.84934">
        <ele>108.6</ele>
        <time>2023-04-05T09:14:02Z</time>
      </trkpt>
      <trkpt lat="47.98625" lon="-3.84935">
        <ele>108.6</ele>
        <time>2023-04-05T09:14:03Z</time>
      </trkpt>
      <trkpt lat="47.98622" lon="-3.84932">
        <ele>108.6</ele>
        <time>2023-04-05T09:14:04Z</time>
      </trkpt>
      <trkpt lat="47.98619" lon="-3.8493">
        <ele>108.6</ele>
        <time>2023-04-05T09:14:05Z</time>
      </trkpt>
      <trkpt lat="47.98616" lon="-3.84927">
        <ele>108.7</ele>
        <time>2023-04-05T09:14:06Z</time>
      </trkpt>
      <trkpt lat="47.98614" lon="-3.84921">
        <ele>108.7</ele>
        <time>2023-04-05T09:14:08Z</time>
      </trkpt>
      <trkpt lat="47.98613" lon="-3.84917">
        <ele>108.7</ele>
        <time>2023-04-05T09:14:09Z</time>
      </trkpt>
      <trkpt lat="47.98611" lon="-3.8491">
        <ele>108.7</ele>
        <time>2023-04-05T09:14:11Z</time>
      </trkpt>
      <trkpt lat="47.98609" lon="-3.84905">
        <ele>108.8</ele>
        <time>2023-04-05T09:14:13Z</time>
      </trkpt>
      <trkpt lat="47.98608" lon="-3.84901">
        <ele>108.8</ele>
        <time>2023-04-05T09:14:14Z</time>
      </trkpt>
      <trkpt lat="47.98606" lon="-3.84897">
        <ele>108.8</ele>
        <time>2023-04-05T09:14:15Z</time>
      </trkpt>
      <trkpt lat="47.98604" lon="-3.84893">
        <ele>108.7</ele>
        <time>2023-04-05T09:14:16Z</time>
      </trkpt>
      <trkpt lat="47.98604" lon="-3.84892">
        <ele>108.7</ele>
        <time>2023-04-05T09:14:17Z</time>
      </trkpt>
      <trkpt lat="47.98603" lon="-3.8489">
        <ele>108.6</ele>
        <time>2023-04-05T09:14:18Z</time>
      </trkpt>
      <trkpt lat="47.98602" lon="-3.84888">
        <ele>108.6</ele>
        <time>2023-04-05T09:14:19Z</time>
      </trkpt>
      <trkpt lat="47.986" lon="-3.84885">
        <ele>108.5</ele>
        <time>2023-04-05T09:14:20Z</time>
      </trkpt>
      <trkpt lat="47.98599" lon="-3.84884">
        <ele>108.5</ele>
        <time>2023-04-05T09:14:21Z</time>
      </trkpt>
      <trkpt lat="47.98598" lon="-3.84882">
        <ele>108.5</ele>
        <time>2023-04-05T09:14:23Z</time>
      </trkpt>
      <trkpt lat="47.98596" lon="-3.84878">
        <ele>108.4</ele>
        <time>2023-04-05T09:14:24Z</time>
      </trkpt>
      <trkpt lat="47.98593" lon="-3.84872">
        <ele>108.4</ele>
        <time>2023-04-05T09:14:26Z</time>
      </trkpt>
      <trkpt lat="47.98592" lon="-3.8487">
        <ele>108.4</ele>
        <time>2023-04-05T09:14:28Z</time>
      </trkpt>
      <trkpt lat="47.98591" lon="-3.84869">
        <ele>108.4</ele>
        <time>2023-04-05T09:14:29Z</time>
      </trkpt>
      <trkpt lat="47.9859" lon="-3.84867">
        <ele>108.4</ele>
        <time>2023-04-05T09:14:30Z</time>
      </trkpt>
      <trkpt lat="47.98589" lon="-3.84865">
        <ele>108.4</ele>
        <time>2023-04-05T09:14:31Z</time>
      </trkpt>
      <trkpt lat="47.98588" lon="-3.84864">
        <ele>108.4</ele>
        <time>2023-04-05T09:14:32Z</time>
      </trkpt>
      <trkpt lat="47.98586" lon="-3.84861">
        <ele>108.4</ele>
        <time>2023-04-05T09:14:33Z</time>
      </trkpt>
      <trkpt lat="47.98586" lon="-3.8486">
        <ele>108.4</ele>
        <time>2023-04-05T09:14:34Z</time>
      </trkpt>
      <trkpt lat="47.98585" lon="-3.84859">
        <ele>108.5</ele>
        <time>2023-04-05T09:14:35Z</time>
      </trkpt>
      <trkpt lat="47.98584" lon="-3.84854">
        <ele>108.5</ele>
        <time>2023-04-05T09:14:36Z</time>
      </trkpt>
      <trkpt lat="47.98583" lon="-3.84853">
        <ele>108.6</ele>
        <time>2023-04-05T09:14:37Z</time>
      </trkpt>
      <trkpt lat="47.98581" lon="-3.84849">
        <ele>108.6</ele>
        <time>2023-04-05T09:14:38Z</time>
      </trkpt>
      <trkpt lat="47.9858" lon="-3.84848">
        <ele>108.7</ele>
        <time>2023-04-05T09:14:39Z</time>
      </trkpt>
      <trkpt lat="47.98578" lon="-3.84844">
        <ele>108.7</ele>
        <time>2023-04-05T09:14:40Z</time>
      </trkpt>
      <trkpt lat="47.98577" lon="-3.84842">
        <ele>108.8</ele>
        <time>2023-04-05T09:14:41Z</time>
      </trkpt>
      <trkpt lat="47.98576" lon="-3.84838">
        <ele>108.9</ele>
        <time>2023-04-05T09:14:42Z</time>
      </trkpt>
      <trkpt lat="47.98575" lon="-3.84836">
        <ele>108.9</ele>
        <time>2023-04-05T09:14:43Z</time>
      </trkpt>
      <trkpt lat="47.98574" lon="-3.84832">
        <ele>109</ele>
        <time>2023-04-05T09:14:44Z</time>
      </trkpt>
      <trkpt lat="47.98573" lon="-3.84828">
        <ele>109</ele>
        <time>2023-04-05T09:14:45Z</time>
      </trkpt>
      <trkpt lat="47.9857" lon="-3.84825">
        <ele>109.1</ele>
        <time>2023-04-05T09:14:46Z</time>
      </trkpt>
      <trkpt lat="47.98568" lon="-3.84824">
        <ele>109.1</ele>
        <time>2023-04-05T09:14:47Z</time>
      </trkpt>
      <trkpt lat="47.98566" lon="-3.84819">
        <ele>109.2</ele>
        <time>2023-04-05T09:14:48Z</time>
      </trkpt>
      <trkpt lat="47.98565" lon="-3.84817">
        <ele>109.3</ele>
        <time>2023-04-05T09:14:49Z</time>
      </trkpt>
      <trkpt lat="47.98562" lon="-3.84812">
        <ele>109.4</ele>
        <time>2023-04-05T09:14:51Z</time>
      </trkpt>
      <trkpt lat="47.9856" lon="-3.84809">
        <ele>109.5</ele>
        <time>2023-04-05T09:14:52Z</time>
      </trkpt>
      <trkpt lat="47.98558" lon="-3.84804">
        <ele>109.8</ele>
        <time>2023-04-05T09:14:54Z</time>
      </trkpt>
      <trkpt lat="47.98557" lon="-3.84802">
        <ele>109.8</ele>
        <time>2023-04-05T09:14:55Z</time>
      </trkpt>
      <trkpt lat="47.98556" lon="-3.848">
        <ele>109.9</ele>
        <time>2023-04-05T09:14:56Z</time>
      </trkpt>
      <trkpt lat="47.98555" lon="-3.84797">
        <ele>110.1</ele>
        <time>2023-04-05T09:14:57Z</time>
      </trkpt>
      <trkpt lat="47.98554" lon="-3.84795">
        <ele>110.2</ele>
        <time>2023-04-05T09:14:58Z</time>
      </trkpt>
      <trkpt lat="47.98552" lon="-3.84791">
        <ele>110.4</ele>
        <time>2023-04-05T09:14:59Z</time>
      </trkpt>
      <trkpt lat="47.98549" lon="-3.84789">
        <ele>110.7</ele>
        <time>2023-04-05T09:15:01Z</time>
      </trkpt>
      <trkpt lat="47.98546" lon="-3.84786">
        <ele>110.9</ele>
        <time>2023-04-05T09:15:02Z</time>
      </trkpt>
      <trkpt lat="47.98544" lon="-3.84782">
        <ele>111.2</ele>
        <time>2023-04-05T09:15:03Z</time>
      </trkpt>
      <trkpt lat="47.98544" lon="-3.84781">
        <ele>111.3</ele>
        <time>2023-04-05T09:15:04Z</time>
      </trkpt>
      <trkpt lat="47.98542" lon="-3.84779">
        <ele>111.5</ele>
        <time>2023-04-05T09:15:05Z</time>
      </trkpt>
      <trkpt lat="47.98541" lon="-3.84778">
        <ele>111.6</ele>
        <time>2023-04-05T09:15:06Z</time>
      </trkpt>
      <trkpt lat="47.98539" lon="-3.84776">
        <ele>111.8</ele>
        <time>2023-04-05T09:15:07Z</time>
      </trkpt>
      <trkpt lat="47.98539" lon="-3.84774">
        <ele>111.9</ele>
        <time>2023-04-05T09:15:08Z</time>
      </trkpt>
      <trkpt lat="47.98538" lon="-3.84773">
        <ele>112</ele>
        <time>2023-04-05T09:15:09Z</time>
      </trkpt>
      <trkpt lat="47.98537" lon="-3.84771">
        <ele>112.2</ele>
        <time>2023-04-05T09:15:10Z</time>
      </trkpt>
      <trkpt lat="47.98536" lon="-3.8477">
        <ele>112.4</ele>
        <time>2023-04-05T09:15:11Z</time>
      </trkpt>
      <trkpt lat="47.98533" lon="-3.84767">
        <ele>112.7</ele>
        <time>2023-04-05T09:15:12Z</time>
      </trkpt>
      <trkpt lat="47.98532" lon="-3.84766">
        <ele>112.8</ele>
        <time>2023-04-05T09:15:13Z</time>
      </trkpt>
      <trkpt lat="47.98531" lon="-3.84764">
        <ele>113</ele>
        <time>2023-04-05T09:15:14Z</time>
      </trkpt>
      <trkpt lat="47.9853" lon="-3.84762">
        <ele>113.2</ele>
        <time>2023-04-05T09:15:15Z</time>
      </trkpt>
      <trkpt lat="47.98528" lon="-3.8476">
        <ele>113.4</ele>
        <time>2023-04-05T09:15:16Z</time>
      </trkpt>
      <trkpt lat="47.98528" lon="-3.84759">
        <ele>113.6</ele>
        <time>2023-04-05T09:15:17Z</time>
      </trkpt>
      <trkpt lat="47.98527" lon="-3.84757">
        <ele>113.7</ele>
        <time>2023-04-05T09:15:18Z</time>
      </trkpt>
      <trkpt lat="47.98526" lon="-3.84754">
        <ele>113.9</ele>
        <time>2023-04-05T09:15:19Z</time>
      </trkpt>
      <trkpt lat="47.98525" lon="-3.84753">
        <ele>114.1</ele>
        <time>2023-04-05T09:15:20Z</time>
      </trkpt>
      <trkpt lat="47.98523" lon="-3.8475">
        <ele>114.4</ele>
        <time>2023-04-05T09:15:21Z</time>
      </trkpt>
      <trkpt lat="47.98522" lon="-3.84749">
        <ele>114.5</ele>
        <time>2023-04-05T09:15:22Z</time>
      </trkpt>
      <trkpt lat="47.98521" lon="-3.84748">
        <ele>114.7</ele>
        <time>2023-04-05T09:15:23Z</time>
      </trkpt>
      <trkpt lat="47.9852" lon="-3.84746">
        <ele>114.8</ele>
        <time>2023-04-05T09:15:24Z</time>
      </trkpt>
      <trkpt lat="47.98517" lon="-3.84743">
        <ele>115.2</ele>
        <time>2023-04-05T09:15:25Z</time>
      </trkpt>
      <trkpt lat="47.98516" lon="-3.84742">
        <ele>115.3</ele>
        <time>2023-04-05T09:15:26Z</time>
      </trkpt>
      <trkpt lat="47.98514" lon="-3.8474">
        <ele>115.6</ele>
        <time>2023-04-05T09:15:28Z</time>
      </trkpt>
      <trkpt lat="47.98512" lon="-3.84738">
        <ele>115.8</ele>
        <time>2023-04-05T09:15:29Z</time>
      </trkpt>
      <trkpt lat="47.98512" lon="-3.84737">
        <ele>115.9</ele>
        <time>2023-04-05T09:15:30Z</time>
      </trkpt>
      <trkpt lat="47.98509" lon="-3.84734">
        <ele>116.2</ele>
        <time>2023-04-05T09:15:31Z</time>
      </trkpt>
      <trkpt lat="47.98506" lon="-3.84732">
        <ele>116.6</ele>
        <time>2023-04-05T09:15:33Z</time>
      </trkpt>
      <trkpt lat="47.98504" lon="-3.84728">
        <ele>116.9</ele>
        <time>2023-04-05T09:15:35Z</time>
      </trkpt>
      <trkpt lat="47.98502" lon="-3.84724">
        <ele>117.3</ele>
        <time>2023-04-05T09:15:37Z</time>
      </trkpt>
      <trkpt lat="47.98501" lon="-3.8472">
        <ele>117.5</ele>
        <time>2023-04-05T09:15:38Z</time>
      </trkpt>
      <trkpt lat="47.98501" lon="-3.84719">
        <ele>117.6</ele>
        <time>2023-04-05T09:15:39Z</time>
      </trkpt>
      <trkpt lat="47.98501" lon="-3.84718">
        <ele>117.6</ele>
        <time>2023-04-05T09:15:40Z</time>
      </trkpt>
      <trkpt lat="47.985" lon="-3.84717">
        <ele>117.8</ele>
        <time>2023-04-05T09:15:41Z</time>
      </trkpt>
      <trkpt lat="47.98498" lon="-3.84713">
        <ele>118.1</ele>
        <time>2023-04-05T09:15:42Z</time>
      </trkpt>
      <trkpt lat="47.98496" lon="-3.84709">
        <ele>118.3</ele>
        <time>2023-04-05T09:15:44Z</time>
      </trkpt>
      <trkpt lat="47.98495" lon="-3.84708">
        <ele>118.4</ele>
        <time>2023-04-05T09:15:45Z</time>
      </trkpt>
      <trkpt lat="47.98494" lon="-3.84707">
        <ele>118.5</ele>
        <time>2023-04-05T09:15:46Z</time>
      </trkpt>
      <trkpt lat="47.98492" lon="-3.84704">
        <ele>118.7</ele>
        <time>2023-04-05T09:15:47Z</time>
      </trkpt>
      <trkpt lat="47.98491" lon="-3.84703">
        <ele>118.8</ele>
        <time>2023-04-05T09:15:48Z</time>
      </trkpt>
      <trkpt lat="47.98489" lon="-3.847">
        <ele>119</ele>
        <time>2023-04-05T09:15:49Z</time>
      </trkpt>
      <trkpt lat="47.98488" lon="-3.84698">
        <ele>119.1</ele>
        <time>2023-04-05T09:15:50Z</time>
      </trkpt>
      <trkpt lat="47.98485" lon="-3.84695">
        <ele>119.3</ele>
        <time>2023-04-05T09:15:51Z</time>
      </trkpt>
      <trkpt lat="47.98484" lon="-3.84694">
        <ele>119.3</ele>
        <time>2023-04-05T09:15:52Z</time>
      </trkpt>
      <trkpt lat="47.98482" lon="-3.84689">
        <ele>119.5</ele>
        <time>2023-04-05T09:15:53Z</time>
      </trkpt>
      <trkpt lat="47.98481" lon="-3.84687">
        <ele>119.6</ele>
        <time>2023-04-05T09:15:54Z</time>
      </trkpt>
      <trkpt lat="47.98479" lon="-3.84683">
        <ele>119.7</ele>
        <time>2023-04-05T09:15:56Z</time>
      </trkpt>
      <trkpt lat="47.98478" lon="-3.84681">
        <ele>119.8</ele>
        <time>2023-04-05T09:15:57Z</time>
      </trkpt>
      <trkpt lat="47.98477" lon="-3.84679">
        <ele>119.9</ele>
        <time>2023-04-05T09:15:58Z</time>
      </trkpt>
      <trkpt lat="47.98475" lon="-3.84675">
        <ele>120</ele>
        <time>2023-04-05T09:15:59Z</time>
      </trkpt>
      <trkpt lat="47.98475" lon="-3.84674">
        <ele>120.1</ele>
        <time>2023-04-05T09:16:00Z</time>
      </trkpt>
      <trkpt lat="47.98473" lon="-3.84671">
        <ele>120.2</ele>
        <time>2023-04-05T09:16:01Z</time>
      </trkpt>
      <trkpt lat="47.98472" lon="-3.84669">
        <ele>120.2</ele>
        <time>2023-04-05T09:16:02Z</time>
      </trkpt>
      <trkpt lat="47.9847" lon="-3.84665">
        <ele>120.3</ele>
        <time>2023-04-05T09:16:03Z</time>
      </trkpt>
      <trkpt lat="47.98469" lon="-3.84664">
        <ele>120.4</ele>
        <time>2023-04-05T09:16:04Z</time>
      </trkpt>
      <trkpt lat="47.98466" lon="-3.84661">
        <ele>120.5</ele>
        <time>2023-04-05T09:16:05Z</time>
      </trkpt>
      <trkpt lat="47.98464" lon="-3.84658">
        <ele>120.5</ele>
        <time>2023-04-05T09:16:07Z</time>
      </trkpt>
      <trkpt lat="47.98462" lon="-3.84655">
        <ele>120.6</ele>
        <time>2023-04-05T09:16:08Z</time>
      </trkpt>
      <trkpt lat="47.98462" lon="-3.84655">
        <ele>120.6</ele>
        <time>2023-04-05T09:16:09Z</time>
      </trkpt>
      <trkpt lat="47.98462" lon="-3.84656">
        <ele>120.6</ele>
        <time>2023-04-05T09:16:10Z</time>
      </trkpt>
      <trkpt lat="47.98463" lon="-3.84656">
        <ele>120.6</ele>
        <time>2023-04-05T09:16:12Z</time>
      </trkpt>
      <trkpt lat="47.98463" lon="-3.84656">
        <ele>120.6</ele>
        <time>2023-04-05T09:16:13Z</time>
      </trkpt>
      <trkpt lat="47.98463" lon="-3.84656">
        <ele>120.6</ele>
        <time>2023-04-05T09:16:14Z</time>
      </trkpt>
      <trkpt lat="47.98463" lon="-3.84656">
        <ele>120.6</ele>
        <time>2023-04-05T09:16:15Z</time>
      </trkpt>
      <trkpt lat="47.98463" lon="-3.84656">
        <ele>120.6</ele>
        <time>2023-04-05T09:16:16Z</time>
      </trkpt>
      <trkpt lat="47.98463" lon="-3.84656">
        <ele>120.6</ele>
        <time>2023-04-05T09:16:17Z</time>
      </trkpt>
      <trkpt lat="47.98463" lon="-3.84656">
        <ele>120.6</ele>
        <time>2023-04-05T09:16:18Z</time>
      </trkpt>
      <trkpt lat="47.98455" lon="-3.84644">
        <ele>120.6</ele>
        <time>2023-04-05T09:16:23Z</time>
      </trkpt>
      <trkpt lat="47.98452" lon="-3.84641">
        <ele>120.6</ele>
        <time>2023-04-05T09:16:25Z</time>
      </trkpt>
      <trkpt lat="47.98449" lon="-3.84636">
        <ele>120.6</ele>
        <time>2023-04-05T09:16:26Z</time>
      </trkpt>
      <trkpt lat="47.98446" lon="-3.84632">
        <ele>120.5</ele>
        <time>2023-04-05T09:16:28Z</time>
      </trkpt>
      <trkpt lat="47.98444" lon="-3.84629">
        <ele>120.5</ele>
        <time>2023-04-05T09:16:29Z</time>
      </trkpt>
      <trkpt lat="47.98442" lon="-3.84626">
        <ele>120.5</ele>
        <time>2023-04-05T09:16:30Z</time>
      </trkpt>
      <trkpt lat="47.98439" lon="-3.84621">
        <ele>120.4</ele>
        <time>2023-04-05T09:16:31Z</time>
      </trkpt>
      <trkpt lat="47.98438" lon="-3.84618">
        <ele>120.4</ele>
        <time>2023-04-05T09:16:32Z</time>
      </trkpt>
      <trkpt lat="47.98437" lon="-3.84614">
        <ele>120.4</ele>
        <time>2023-04-05T09:16:33Z</time>
      </trkpt>
      <trkpt lat="47.98435" lon="-3.8461">
        <ele>120.4</ele>
        <time>2023-04-05T09:16:34Z</time>
      </trkpt>
      <trkpt lat="47.98434" lon="-3.84606">
        <ele>120.4</ele>
        <time>2023-04-05T09:16:35Z</time>
      </trkpt>
      <trkpt lat="47.98432" lon="-3.84598">
        <ele>120.3</ele>
        <time>2023-04-05T09:16:36Z</time>
      </trkpt>
      <trkpt lat="47.98429" lon="-3.84591">
        <ele>120.3</ele>
        <time>2023-04-05T09:16:38Z</time>
      </trkpt>
      <trkpt lat="47.98428" lon="-3.84588">
        <ele>120.3</ele>
        <time>2023-04-05T09:16:39Z</time>
      </trkpt>
      <trkpt lat="47.98427" lon="-3.84585">
        <ele>120.3</ele>
        <time>2023-04-05T09:16:40Z</time>
      </trkpt>
      <trkpt lat="47.98423" lon="-3.84577">
        <ele>120.3</ele>
        <time>2023-04-05T09:16:41Z</time>
      </trkpt>
      <trkpt lat="47.98421" lon="-3.84573">
        <ele>120.3</ele>
        <time>2023-04-05T09:16:42Z</time>
      </trkpt>
      <trkpt lat="47.98419" lon="-3.84569">
        <ele>120.3</ele>
        <time>2023-04-05T09:16:43Z</time>
      </trkpt>
      <trkpt lat="47.98415" lon="-3.84562">
        <ele>120.4</ele>
        <time>2023-04-05T09:16:45Z</time>
      </trkpt>
      <trkpt lat="47.98414" lon="-3.84559">
        <ele>120.4</ele>
        <time>2023-04-05T09:16:46Z</time>
      </trkpt>
      <trkpt lat="47.98412" lon="-3.84554">
        <ele>120.4</ele>
        <time>2023-04-05T09:16:48Z</time>
      </trkpt>
      <trkpt lat="47.98409" lon="-3.84551">
        <ele>120.3</ele>
        <time>2023-04-05T09:16:49Z</time>
      </trkpt>
      <trkpt lat="47.98404" lon="-3.84545">
        <ele>120.3</ele>
        <time>2023-04-05T09:16:50Z</time>
      </trkpt>
      <trkpt lat="47.98402" lon="-3.84543">
        <ele>120.3</ele>
        <time>2023-04-05T09:16:51Z</time>
      </trkpt>
      <trkpt lat="47.98398" lon="-3.8454">
        <ele>120.3</ele>
        <time>2023-04-05T09:16:53Z</time>
      </trkpt>
      <trkpt lat="47.98396" lon="-3.84537">
        <ele>120.3</ele>
        <time>2023-04-05T09:16:54Z</time>
      </trkpt>
      <trkpt lat="47.98393" lon="-3.84535">
        <ele>120.3</ele>
        <time>2023-04-05T09:16:55Z</time>
      </trkpt>
      <trkpt lat="47.98392" lon="-3.84534">
        <ele>120.3</ele>
        <time>2023-04-05T09:16:56Z</time>
      </trkpt>
      <trkpt lat="47.98387" lon="-3.84529">
        <ele>120.3</ele>
        <time>2023-04-05T09:16:57Z</time>
      </trkpt>
      <trkpt lat="47.98384" lon="-3.84526">
        <ele>120.3</ele>
        <time>2023-04-05T09:16:58Z</time>
      </trkpt>
      <trkpt lat="47.98382" lon="-3.84523">
        <ele>120.4</ele>
        <time>2023-04-05T09:17:00Z</time>
      </trkpt>
      <trkpt lat="47.98379" lon="-3.8452">
        <ele>120.4</ele>
        <time>2023-04-05T09:17:01Z</time>
      </trkpt>
      <trkpt lat="47.98376" lon="-3.84515">
        <ele>120.5</ele>
        <time>2023-04-05T09:17:02Z</time>
      </trkpt>
      <trkpt lat="47.98373" lon="-3.84512">
        <ele>120.6</ele>
        <time>2023-04-05T09:17:03Z</time>
      </trkpt>
      <trkpt lat="47.98371" lon="-3.84509">
        <ele>120.6</ele>
        <time>2023-04-05T09:17:04Z</time>
      </trkpt>
      <trkpt lat="47.98368" lon="-3.84506">
        <ele>120.7</ele>
        <time>2023-04-05T09:17:05Z</time>
      </trkpt>
      <trkpt lat="47.98367" lon="-3.84503">
        <ele>120.7</ele>
        <time>2023-04-05T09:17:06Z</time>
      </trkpt>
      <trkpt lat="47.98367" lon="-3.84501">
        <ele>120.7</ele>
        <time>2023-04-05T09:17:07Z</time>
      </trkpt>
      <trkpt lat="47.98364" lon="-3.84498">
        <ele>120.6</ele>
        <time>2023-04-05T09:17:08Z</time>
      </trkpt>
      <trkpt lat="47.98361" lon="-3.84495">
        <ele>120.6</ele>
        <time>2023-04-05T09:17:09Z</time>
      </trkpt>
      <trkpt lat="47.98357" lon="-3.84491">
        <ele>120.5</ele>
        <time>2023-04-05T09:17:10Z</time>
      </trkpt>
      <trkpt lat="47.98353" lon="-3.84487">
        <ele>120.5</ele>
        <time>2023-04-05T09:17:11Z</time>
      </trkpt>
      <trkpt lat="47.9835" lon="-3.84483">
        <ele>120.4</ele>
        <time>2023-04-05T09:17:12Z</time>
      </trkpt>
      <trkpt lat="47.98347" lon="-3.84479">
        <ele>120.4</ele>
        <time>2023-04-05T09:17:13Z</time>
      </trkpt>
      <trkpt lat="47.98345" lon="-3.84475">
        <ele>120.3</ele>
        <time>2023-04-05T09:17:14Z</time>
      </trkpt>
      <trkpt lat="47.98341" lon="-3.8447">
        <ele>120.2</ele>
        <time>2023-04-05T09:17:15Z</time>
      </trkpt>
      <trkpt lat="47.98339" lon="-3.84465">
        <ele>120.2</ele>
        <time>2023-04-05T09:17:16Z</time>
      </trkpt>
      <trkpt lat="47.98336" lon="-3.8446">
        <ele>120.1</ele>
        <time>2023-04-05T09:17:17Z</time>
      </trkpt>
      <trkpt lat="47.98333" lon="-3.84454">
        <ele>120</ele>
        <time>2023-04-05T09:17:18Z</time>
      </trkpt>
      <trkpt lat="47.98331" lon="-3.8445">
        <ele>120</ele>
        <time>2023-04-05T09:17:19Z</time>
      </trkpt>
      <trkpt lat="47.9833" lon="-3.84446">
        <ele>119.9</ele>
        <time>2023-04-05T09:17:20Z</time>
      </trkpt>
      <trkpt lat="47.98328" lon="-3.84441">
        <ele>119.9</ele>
        <time>2023-04-05T09:17:21Z</time>
      </trkpt>
      <trkpt lat="47.98326" lon="-3.84436">
        <ele>119.9</ele>
        <time>2023-04-05T09:17:22Z</time>
      </trkpt>
      <trkpt lat="47.98324" lon="-3.84432">
        <ele>119.9</ele>
        <time>2023-04-05T09:17:23Z</time>
      </trkpt>
      <trkpt lat="47.98322" lon="-3.84426">
        <ele>119.9</ele>
        <time>2023-04-05T09:17:24Z</time>
      </trkpt>
      <trkpt lat="47.98321" lon="-3.84421">
        <ele>120</ele>
        <time>2023-04-05T09:17:25Z</time>
      </trkpt>
      <trkpt lat="47.98321" lon="-3.84416">
        <ele>119.9</ele>
        <time>2023-04-05T09:17:26Z</time>
      </trkpt>
      <trkpt lat="47.98323" lon="-3.84409">
        <ele>119.9</ele>
        <time>2023-04-05T09:17:27Z</time>
      </trkpt>
      <trkpt lat="47.9833" lon="-3.84397">
        <ele>119.9</ele>
        <time>2023-04-05T09:17:29Z</time>
      </trkpt>
      <trkpt lat="47.98331" lon="-3.84393">
        <ele>119.9</ele>
        <time>2023-04-05T09:17:30Z</time>
      </trkpt>
      <trkpt lat="47.98333" lon="-3.8439">
        <ele>119.8</ele>
        <time>2023-04-05T09:17:31Z</time>
      </trkpt>
      <trkpt lat="47.98335" lon="-3.84386">
        <ele>119.8</ele>
        <time>2023-04-05T09:17:33Z</time>
      </trkpt>
      <trkpt lat="47.98337" lon="-3.84382">
        <ele>119.8</ele>
        <time>2023-04-05T09:17:34Z</time>
      </trkpt>
      <trkpt lat="47.98338" lon="-3.84377">
        <ele>119.8</ele>
        <time>2023-04-05T09:17:35Z</time>
      </trkpt>
      <trkpt lat="47.98341" lon="-3.84369">
        <ele>119.8</ele>
        <time>2023-04-05T09:17:36Z</time>
      </trkpt>
      <trkpt lat="47.98342" lon="-3.84364">
        <ele>119.8</ele>
        <time>2023-04-05T09:17:38Z</time>
      </trkpt>
      <trkpt lat="47.98344" lon="-3.84359">
        <ele>119.7</ele>
        <time>2023-04-05T09:17:39Z</time>
      </trkpt>
      <trkpt lat="47.98345" lon="-3.8435">
        <ele>119.7</ele>
        <time>2023-04-05T09:17:40Z</time>
      </trkpt>
      <trkpt lat="47.98347" lon="-3.84343">
        <ele>119.7</ele>
        <time>2023-04-05T09:17:42Z</time>
      </trkpt>
      <trkpt lat="47.98349" lon="-3.84336">
        <ele>119.7</ele>
        <time>2023-04-05T09:17:43Z</time>
      </trkpt>
      <trkpt lat="47.98351" lon="-3.84331">
        <ele>119.6</ele>
        <time>2023-04-05T09:17:44Z</time>
      </trkpt>
      <trkpt lat="47.98353" lon="-3.84328">
        <ele>119.3</ele>
        <time>2023-04-05T09:17:45Z</time>
      </trkpt>
      <trkpt lat="47.9836" lon="-3.84329">
        <ele>118.7</ele>
        <time>2023-04-05T09:17:46Z</time>
      </trkpt>
      <trkpt lat="47.98366" lon="-3.84328">
        <ele>118.1</ele>
        <time>2023-04-05T09:17:47Z</time>
      </trkpt>
      <trkpt lat="47.98372" lon="-3.84327">
        <ele>117.6</ele>
        <time>2023-04-05T09:17:48Z</time>
      </trkpt>
      <trkpt lat="47.98379" lon="-3.84327">
        <ele>117</ele>
        <time>2023-04-05T09:17:49Z</time>
      </trkpt>
      <trkpt lat="47.98387" lon="-3.84326">
        <ele>116.4</ele>
        <time>2023-04-05T09:17:50Z</time>
      </trkpt>
      <trkpt lat="47.98394" lon="-3.84325">
        <ele>115.9</ele>
        <time>2023-04-05T09:17:51Z</time>
      </trkpt>
      <trkpt lat="47.98402" lon="-3.84325">
        <ele>115.3</ele>
        <time>2023-04-05T09:17:52Z</time>
      </trkpt>
      <trkpt lat="47.98409" lon="-3.84325">
        <ele>114.8</ele>
        <time>2023-04-05T09:17:53Z</time>
      </trkpt>
      <trkpt lat="47.98417" lon="-3.84324">
        <ele>114.4</ele>
        <time>2023-04-05T09:17:54Z</time>
      </trkpt>
      <trkpt lat="47.98426" lon="-3.84324">
        <ele>113.9</ele>
        <time>2023-04-05T09:17:55Z</time>
      </trkpt>
      <trkpt lat="47.98434" lon="-3.84324">
        <ele>113.6</ele>
        <time>2023-04-05T09:17:56Z</time>
      </trkpt>
      <trkpt lat="47.98443" lon="-3.84323">
        <ele>113.4</ele>
        <time>2023-04-05T09:17:57Z</time>
      </trkpt>
      <trkpt lat="47.98451" lon="-3.84323">
        <ele>113.3</ele>
        <time>2023-04-05T09:17:58Z</time>
      </trkpt>
      <trkpt lat="47.98459" lon="-3.84321">
        <ele>113.3</ele>
        <time>2023-04-05T09:17:59Z</time>
      </trkpt>
      <trkpt lat="47.98467" lon="-3.84321">
        <ele>113.4</ele>
        <time>2023-04-05T09:18:00Z</time>
      </trkpt>
      <trkpt lat="47.98474" lon="-3.84321">
        <ele>113.5</ele>
        <time>2023-04-05T09:18:01Z</time>
      </trkpt>
      <trkpt lat="47.98481" lon="-3.84321">
        <ele>113.8</ele>
        <time>2023-04-05T09:18:02Z</time>
      </trkpt>
      <trkpt lat="47.98487" lon="-3.8432">
        <ele>114</ele>
        <time>2023-04-05T09:18:03Z</time>
      </trkpt>
      <trkpt lat="47.98493" lon="-3.84319">
        <ele>114.2</ele>
        <time>2023-04-05T09:18:04Z</time>
      </trkpt>
      <trkpt lat="47.98498" lon="-3.84319">
        <ele>114.5</ele>
        <time>2023-04-05T09:18:05Z</time>
      </trkpt>
      <trkpt lat="47.98503" lon="-3.84319">
        <ele>114.8</ele>
        <time>2023-04-05T09:18:06Z</time>
      </trkpt>
      <trkpt lat="47.98508" lon="-3.84319">
        <ele>115.1</ele>
        <time>2023-04-05T09:18:07Z</time>
      </trkpt>
      <trkpt lat="47.98513" lon="-3.84319">
        <ele>115.4</ele>
        <time>2023-04-05T09:18:08Z</time>
      </trkpt>
      <trkpt lat="47.98517" lon="-3.84319">
        <ele>115.7</ele>
        <time>2023-04-05T09:18:09Z</time>
      </trkpt>
      <trkpt lat="47.98522" lon="-3.84319">
        <ele>116.1</ele>
        <time>2023-04-05T09:18:10Z</time>
      </trkpt>
      <trkpt lat="47.98526" lon="-3.84319">
        <ele>116.4</ele>
        <time>2023-04-05T09:18:11Z</time>
      </trkpt>
      <trkpt lat="47.9853" lon="-3.84318">
        <ele>116.7</ele>
        <time>2023-04-05T09:18:12Z</time>
      </trkpt>
      <trkpt lat="47.98534" lon="-3.84318">
        <ele>117</ele>
        <time>2023-04-05T09:18:13Z</time>
      </trkpt>
      <trkpt lat="47.98538" lon="-3.84318">
        <ele>117.3</ele>
        <time>2023-04-05T09:18:14Z</time>
      </trkpt>
      <trkpt lat="47.98543" lon="-3.84317">
        <ele>117.7</ele>
        <time>2023-04-05T09:18:15Z</time>
      </trkpt>
      <trkpt lat="47.98547" lon="-3.84316">
        <ele>118</ele>
        <time>2023-04-05T09:18:16Z</time>
      </trkpt>
      <trkpt lat="47.98552" lon="-3.84316">
        <ele>118.4</ele>
        <time>2023-04-05T09:18:17Z</time>
      </trkpt>
      <trkpt lat="47.98555" lon="-3.84316">
        <ele>118.7</ele>
        <time>2023-04-05T09:18:18Z</time>
      </trkpt>
      <trkpt lat="47.9856" lon="-3.84317">
        <ele>119.2</ele>
        <time>2023-04-05T09:18:19Z</time>
      </trkpt>
      <trkpt lat="47.98566" lon="-3.84315">
        <ele>119.7</ele>
        <time>2023-04-05T09:18:21Z</time>
      </trkpt>
      <trkpt lat="47.9857" lon="-3.84313">
        <ele>120.1</ele>
        <time>2023-04-05T09:18:22Z</time>
      </trkpt>
      <trkpt lat="47.98577" lon="-3.84311">
        <ele>120.7</ele>
        <time>2023-04-05T09:18:23Z</time>
      </trkpt>
      <trkpt lat="47.98581" lon="-3.8431">
        <ele>121.1</ele>
        <time>2023-04-05T09:18:24Z</time>
      </trkpt>
      <trkpt lat="47.98585" lon="-3.84309">
        <ele>121.4</ele>
        <time>2023-04-05T09:18:26Z</time>
      </trkpt>
      <trkpt lat="47.98588" lon="-3.84308">
        <ele>121.7</ele>
        <time>2023-04-05T09:18:27Z</time>
      </trkpt>
      <trkpt lat="47.98592" lon="-3.84307">
        <ele>122</ele>
        <time>2023-04-05T09:18:28Z</time>
      </trkpt>
      <trkpt lat="47.98595" lon="-3.84306">
        <ele>122.2</ele>
        <time>2023-04-05T09:18:29Z</time>
      </trkpt>
      <trkpt lat="47.98599" lon="-3.84306">
        <ele>122.5</ele>
        <time>2023-04-05T09:18:30Z</time>
      </trkpt>
      <trkpt lat="47.98602" lon="-3.84306">
        <ele>122.7</ele>
        <time>2023-04-05T09:18:31Z</time>
      </trkpt>
      <trkpt lat="47.98606" lon="-3.84305">
        <ele>122.9</ele>
        <time>2023-04-05T09:18:32Z</time>
      </trkpt>
      <trkpt lat="47.98609" lon="-3.84305">
        <ele>123.1</ele>
        <time>2023-04-05T09:18:33Z</time>
      </trkpt>
      <trkpt lat="47.98613" lon="-3.84306">
        <ele>123.4</ele>
        <time>2023-04-05T09:18:34Z</time>
      </trkpt>
      <trkpt lat="47.98616" lon="-3.84306">
        <ele>123.6</ele>
        <time>2023-04-05T09:18:35Z</time>
      </trkpt>
      <trkpt lat="47.98623" lon="-3.84307">
        <ele>124</ele>
        <time>2023-04-05T09:18:36Z</time>
      </trkpt>
      <trkpt lat="47.98627" lon="-3.84308">
        <ele>124.2</ele>
        <time>2023-04-05T09:18:38Z</time>
      </trkpt>
      <trkpt lat="47.98631" lon="-3.84308">
        <ele>124.4</ele>
        <time>2023-04-05T09:18:39Z</time>
      </trkpt>
      <trkpt lat="47.98634" lon="-3.84308">
        <ele>124.6</ele>
        <time>2023-04-05T09:18:40Z</time>
      </trkpt>
      <trkpt lat="47.98638" lon="-3.84309">
        <ele>124.8</ele>
        <time>2023-04-05T09:18:41Z</time>
      </trkpt>
      <trkpt lat="47.98642" lon="-3.84309">
        <ele>125</ele>
        <time>2023-04-05T09:18:42Z</time>
      </trkpt>
      <trkpt lat="47.98648" lon="-3.84311">
        <ele>125.4</ele>
        <time>2023-04-05T09:18:43Z</time>
      </trkpt>
      <trkpt lat="47.98652" lon="-3.84312">
        <ele>125.6</ele>
        <time>2023-04-05T09:18:45Z</time>
      </trkpt>
      <trkpt lat="47.98656" lon="-3.84313">
        <ele>125.9</ele>
        <time>2023-04-05T09:18:46Z</time>
      </trkpt>
      <trkpt lat="47.98659" lon="-3.84314">
        <ele>126.1</ele>
        <time>2023-04-05T09:18:47Z</time>
      </trkpt>
      <trkpt lat="47.98663" lon="-3.84315">
        <ele>126.4</ele>
        <time>2023-04-05T09:18:48Z</time>
      </trkpt>
      <trkpt lat="47.98666" lon="-3.84316">
        <ele>126.6</ele>
        <time>2023-04-05T09:18:49Z</time>
      </trkpt>
      <trkpt lat="47.98669" lon="-3.84317">
        <ele>126.8</ele>
        <time>2023-04-05T09:18:50Z</time>
      </trkpt>
      <trkpt lat="47.98672" lon="-3.84318">
        <ele>127</ele>
        <time>2023-04-05T09:18:51Z</time>
      </trkpt>
      <trkpt lat="47.98675" lon="-3.84318">
        <ele>127.3</ele>
        <time>2023-04-05T09:18:52Z</time>
      </trkpt>
      <trkpt lat="47.98678" lon="-3.84319">
        <ele>127.5</ele>
        <time>2023-04-05T09:18:53Z</time>
      </trkpt>
      <trkpt lat="47.98681" lon="-3.8432">
        <ele>127.7</ele>
        <time>2023-04-05T09:18:54Z</time>
      </trkpt>
      <trkpt lat="47.98685" lon="-3.84322">
        <ele>128</ele>
        <time>2023-04-05T09:18:55Z</time>
      </trkpt>
      <trkpt lat="47.98688" lon="-3.84322">
        <ele>128.2</ele>
        <time>2023-04-05T09:18:56Z</time>
      </trkpt>
      <trkpt lat="47.98691" lon="-3.84323">
        <ele>128.4</ele>
        <time>2023-04-05T09:18:57Z</time>
      </trkpt>
      <trkpt lat="47.98694" lon="-3.84323">
        <ele>128.7</ele>
        <time>2023-04-05T09:18:58Z</time>
      </trkpt>
      <trkpt lat="47.98698" lon="-3.84324">
        <ele>128.9</ele>
        <time>2023-04-05T09:18:59Z</time>
      </trkpt>
      <trkpt lat="47.98701" lon="-3.84324">
        <ele>129.1</ele>
        <time>2023-04-05T09:19:00Z</time>
      </trkpt>
      <trkpt lat="47.98704" lon="-3.84324">
        <ele>129.3</ele>
        <time>2023-04-05T09:19:01Z</time>
      </trkpt>
      <trkpt lat="47.98708" lon="-3.84325">
        <ele>129.6</ele>
        <time>2023-04-05T09:19:02Z</time>
      </trkpt>
      <trkpt lat="47.98711" lon="-3.84325">
        <ele>129.8</ele>
        <time>2023-04-05T09:19:03Z</time>
      </trkpt>
      <trkpt lat="47.98714" lon="-3.84325">
        <ele>130</ele>
        <time>2023-04-05T09:19:04Z</time>
      </trkpt>
      <trkpt lat="47.98718" lon="-3.84325">
        <ele>130.3</ele>
        <time>2023-04-05T09:19:05Z</time>
      </trkpt>
      <trkpt lat="47.98721" lon="-3.84325">
        <ele>130.5</ele>
        <time>2023-04-05T09:19:06Z</time>
      </trkpt>
      <trkpt lat="47.98724" lon="-3.84325">
        <ele>130.7</ele>
        <time>2023-04-05T09:19:07Z</time>
      </trkpt>
      <trkpt lat="47.98727" lon="-3.84325">
        <ele>130.9</ele>
        <time>2023-04-05T09:19:08Z</time>
      </trkpt>
      <trkpt lat="47.9873" lon="-3.84326">
        <ele>131.2</ele>
        <time>2023-04-05T09:19:09Z</time>
      </trkpt>
      <trkpt lat="47.98734" lon="-3.84325">
        <ele>131.4</ele>
        <time>2023-04-05T09:19:10Z</time>
      </trkpt>
      <trkpt lat="47.98737" lon="-3.84325">
        <ele>131.6</ele>
        <time>2023-04-05T09:19:11Z</time>
      </trkpt>
      <trkpt lat="47.9874" lon="-3.84325">
        <ele>131.8</ele>
        <time>2023-04-05T09:19:12Z</time>
      </trkpt>
      <trkpt lat="47.98743" lon="-3.84324">
        <ele>132</ele>
        <time>2023-04-05T09:19:13Z</time>
      </trkpt>
      <trkpt lat="47.98747" lon="-3.84323">
        <ele>132.2</ele>
        <time>2023-04-05T09:19:14Z</time>
      </trkpt>
      <trkpt lat="47.98751" lon="-3.84323">
        <ele>132.4</ele>
        <time>2023-04-05T09:19:15Z</time>
      </trkpt>
      <trkpt lat="47.98754" lon="-3.84323">
        <ele>132.6</ele>
        <time>2023-04-05T09:19:16Z</time>
      </trkpt>
      <trkpt lat="47.98757" lon="-3.84321">
        <ele>132.8</ele>
        <time>2023-04-05T09:19:17Z</time>
      </trkpt>
      <trkpt lat="47.98761" lon="-3.84321">
        <ele>132.9</ele>
        <time>2023-04-05T09:19:18Z</time>
      </trkpt>
      <trkpt lat="47.98764" lon="-3.84321">
        <ele>133.1</ele>
        <time>2023-04-05T09:19:19Z</time>
      </trkpt>
      <trkpt lat="47.98768" lon="-3.8432">
        <ele>133.2</ele>
        <time>2023-04-05T09:19:20Z</time>
      </trkpt>
      <trkpt lat="47.98771" lon="-3.84319">
        <ele>133.3</ele>
        <time>2023-04-05T09:19:21Z</time>
      </trkpt>
      <trkpt lat="47.98775" lon="-3.84318">
        <ele>133.3</ele>
        <time>2023-04-05T09:19:22Z</time>
      </trkpt>
      <trkpt lat="47.98781" lon="-3.84317">
        <ele>133.4</ele>
        <time>2023-04-05T09:19:23Z</time>
      </trkpt>
      <trkpt lat="47.98785" lon="-3.84316">
        <ele>133.4</ele>
        <time>2023-04-05T09:19:24Z</time>
      </trkpt>
      <trkpt lat="47.9879" lon="-3.84315">
        <ele>133.4</ele>
        <time>2023-04-05T09:19:25Z</time>
      </trkpt>
      <trkpt lat="47.98799" lon="-3.84314">
        <ele>133.3</ele>
        <time>2023-04-05T09:19:27Z</time>
      </trkpt>
      <trkpt lat="47.98806" lon="-3.84314">
        <ele>133.2</ele>
        <time>2023-04-05T09:19:29Z</time>
      </trkpt>
      <trkpt lat="47.98811" lon="-3.84314">
        <ele>133.1</ele>
        <time>2023-04-05T09:19:30Z</time>
      </trkpt>
      <trkpt lat="47.98817" lon="-3.84315">
        <ele>132.9</ele>
        <time>2023-04-05T09:19:31Z</time>
      </trkpt>
      <trkpt lat="47.98823" lon="-3.84315">
        <ele>132.6</ele>
        <time>2023-04-05T09:19:32Z</time>
      </trkpt>
      <trkpt lat="47.98829" lon="-3.84315">
        <ele>132.4</ele>
        <time>2023-04-05T09:19:33Z</time>
      </trkpt>
      <trkpt lat="47.98835" lon="-3.84314">
        <ele>132.1</ele>
        <time>2023-04-05T09:19:34Z</time>
      </trkpt>
      <trkpt lat="47.98842" lon="-3.84314">
        <ele>131.8</ele>
        <time>2023-04-05T09:19:35Z</time>
      </trkpt>
      <trkpt lat="47.98849" lon="-3.84314">
        <ele>131.4</ele>
        <time>2023-04-05T09:19:36Z</time>
      </trkpt>
      <trkpt lat="47.98856" lon="-3.84314">
        <ele>131</ele>
        <time>2023-04-05T09:19:37Z</time>
      </trkpt>
      <trkpt lat="47.98863" lon="-3.84313">
        <ele>130.6</ele>
        <time>2023-04-05T09:19:38Z</time>
      </trkpt>
      <trkpt lat="47.98871" lon="-3.84312">
        <ele>130.2</ele>
        <time>2023-04-05T09:19:39Z</time>
      </trkpt>
      <trkpt lat="47.98879" lon="-3.84311">
        <ele>129.9</ele>
        <time>2023-04-05T09:19:40Z</time>
      </trkpt>
      <trkpt lat="47.98886" lon="-3.84309">
        <ele>129.6</ele>
        <time>2023-04-05T09:19:41Z</time>
      </trkpt>
      <trkpt lat="47.98894" lon="-3.84308">
        <ele>129.3</ele>
        <time>2023-04-05T09:19:42Z</time>
      </trkpt>
      <trkpt lat="47.98902" lon="-3.84307">
        <ele>129.1</ele>
        <time>2023-04-05T09:19:43Z</time>
      </trkpt>
      <trkpt lat="47.98909" lon="-3.84305">
        <ele>128.9</ele>
        <time>2023-04-05T09:19:44Z</time>
      </trkpt>
      <trkpt lat="47.98917" lon="-3.84304">
        <ele>128.7</ele>
        <time>2023-04-05T09:19:45Z</time>
      </trkpt>
      <trkpt lat="47.98925" lon="-3.84303">
        <ele>128.5</ele>
        <time>2023-04-05T09:19:46Z</time>
      </trkpt>
      <trkpt lat="47.98933" lon="-3.84302">
        <ele>128.4</ele>
        <time>2023-04-05T09:19:47Z</time>
      </trkpt>
      <trkpt lat="47.98941" lon="-3.84301">
        <ele>128.2</ele>
        <time>2023-04-05T09:19:48Z</time>
      </trkpt>
      <trkpt lat="47.98948" lon="-3.84299">
        <ele>128.2</ele>
        <time>2023-04-05T09:19:49Z</time>
      </trkpt>
      <trkpt lat="47.98955" lon="-3.84298">
        <ele>127.9</ele>
        <time>2023-04-05T09:19:50Z</time>
      </trkpt>
      <trkpt lat="47.98962" lon="-3.84296">
        <ele>127.6</ele>
        <time>2023-04-05T09:19:51Z</time>
      </trkpt>
      <trkpt lat="47.9897" lon="-3.84295">
        <ele>127.3</ele>
        <time>2023-04-05T09:19:52Z</time>
      </trkpt>
      <trkpt lat="47.98977" lon="-3.84294">
        <ele>127</ele>
        <time>2023-04-05T09:19:53Z</time>
      </trkpt>
      <trkpt lat="47.98984" lon="-3.84294">
        <ele>126.8</ele>
        <time>2023-04-05T09:19:54Z</time>
      </trkpt>
      <trkpt lat="47.98992" lon="-3.84295">
        <ele>126.5</ele>
        <time>2023-04-05T09:19:55Z</time>
      </trkpt>
      <trkpt lat="47.99" lon="-3.84296">
        <ele>126.3</ele>
        <time>2023-04-05T09:19:56Z</time>
      </trkpt>
      <trkpt lat="47.99008" lon="-3.84297">
        <ele>126</ele>
        <time>2023-04-05T09:19:57Z</time>
      </trkpt>
      <trkpt lat="47.99016" lon="-3.84297">
        <ele>125.8</ele>
        <time>2023-04-05T09:19:58Z</time>
      </trkpt>
      <trkpt lat="47.99024" lon="-3.84298">
        <ele>125.6</ele>
        <time>2023-04-05T09:19:59Z</time>
      </trkpt>
      <trkpt lat="47.99032" lon="-3.84299">
        <ele>125.5</ele>
        <time>2023-04-05T09:20:00Z</time>
      </trkpt>
      <trkpt lat="47.99039" lon="-3.843">
        <ele>125.3</ele>
        <time>2023-04-05T09:20:01Z</time>
      </trkpt>
      <trkpt lat="47.99047" lon="-3.84302">
        <ele>125.2</ele>
        <time>2023-04-05T09:20:02Z</time>
      </trkpt>
      <trkpt lat="47.99055" lon="-3.84303">
        <ele>125</ele>
        <time>2023-04-05T09:20:03Z</time>
      </trkpt>
      <trkpt lat="47.99062" lon="-3.84304">
        <ele>124.9</ele>
        <time>2023-04-05T09:20:04Z</time>
      </trkpt>
      <trkpt lat="47.9907" lon="-3.84305">
        <ele>124.7</ele>
        <time>2023-04-05T09:20:05Z</time>
      </trkpt>
      <trkpt lat="47.99077" lon="-3.84307">
        <ele>124.6</ele>
        <time>2023-04-05T09:20:06Z</time>
      </trkpt>
      <trkpt lat="47.99085" lon="-3.84309">
        <ele>124.5</ele>
        <time>2023-04-05T09:20:07Z</time>
      </trkpt>
      <trkpt lat="47.99092" lon="-3.84311">
        <ele>124.4</ele>
        <time>2023-04-05T09:20:08Z</time>
      </trkpt>
      <trkpt lat="47.99099" lon="-3.84313">
        <ele>124.3</ele>
        <time>2023-04-05T09:20:09Z</time>
      </trkpt>
      <trkpt lat="47.99106" lon="-3.84315">
        <ele>124.3</ele>
        <time>2023-04-05T09:20:10Z</time>
      </trkpt>
      <trkpt lat="47.99113" lon="-3.84316">
        <ele>124.3</ele>
        <time>2023-04-05T09:20:11Z</time>
      </trkpt>
      <trkpt lat="47.99119" lon="-3.84318">
        <ele>124.2</ele>
        <time>2023-04-05T09:20:12Z</time>
      </trkpt>
      <trkpt lat="47.99126" lon="-3.8432">
        <ele>124.2</ele>
        <time>2023-04-05T09:20:13Z</time>
      </trkpt>
      <trkpt lat="47.99133" lon="-3.84321">
        <ele>124.1</ele>
        <time>2023-04-05T09:20:14Z</time>
      </trkpt>
      <trkpt lat="47.9914" lon="-3.84324">
        <ele>124.1</ele>
        <time>2023-04-05T09:20:15Z</time>
      </trkpt>
      <trkpt lat="47.99146" lon="-3.84326">
        <ele>124.1</ele>
        <time>2023-04-05T09:20:16Z</time>
      </trkpt>
      <trkpt lat="47.99153" lon="-3.84328">
        <ele>124.1</ele>
        <time>2023-04-05T09:20:17Z</time>
      </trkpt>
      <trkpt lat="47.99159" lon="-3.84331">
        <ele>124.1</ele>
        <time>2023-04-05T09:20:18Z</time>
      </trkpt>
      <trkpt lat="47.99165" lon="-3.84334">
        <ele>124.2</ele>
        <time>2023-04-05T09:20:19Z</time>
      </trkpt>
      <trkpt lat="47.99172" lon="-3.84336">
        <ele>124.2</ele>
        <time>2023-04-05T09:20:20Z</time>
      </trkpt>
      <trkpt lat="47.99177" lon="-3.84338">
        <ele>124.2</ele>
        <time>2023-04-05T09:20:21Z</time>
      </trkpt>
      <trkpt lat="47.99183" lon="-3.84341">
        <ele>124.2</ele>
        <time>2023-04-05T09:20:22Z</time>
      </trkpt>
      <trkpt lat="47.9919" lon="-3.84343">
        <ele>124.3</ele>
        <time>2023-04-05T09:20:23Z</time>
      </trkpt>
      <trkpt lat="47.99196" lon="-3.84345">
        <ele>124.3</ele>
        <time>2023-04-05T09:20:24Z</time>
      </trkpt>
      <trkpt lat="47.99202" lon="-3.84347">
        <ele>124.3</ele>
        <time>2023-04-05T09:20:25Z</time>
      </trkpt>
      <trkpt lat="47.99208" lon="-3.8435">
        <ele>124.4</ele>
        <time>2023-04-05T09:20:26Z</time>
      </trkpt>
      <trkpt lat="47.99213" lon="-3.84353">
        <ele>124.5</ele>
        <time>2023-04-05T09:20:27Z</time>
      </trkpt>
      <trkpt lat="47.99219" lon="-3.84355">
        <ele>124.6</ele>
        <time>2023-04-05T09:20:28Z</time>
      </trkpt>
      <trkpt lat="47.99225" lon="-3.84358">
        <ele>124.7</ele>
        <time>2023-04-05T09:20:29Z</time>
      </trkpt>
      <trkpt lat="47.99231" lon="-3.8436">
        <ele>124.8</ele>
        <time>2023-04-05T09:20:30Z</time>
      </trkpt>
      <trkpt lat="47.99236" lon="-3.84363">
        <ele>124.9</ele>
        <time>2023-04-05T09:20:31Z</time>
      </trkpt>
      <trkpt lat="47.99242" lon="-3.84365">
        <ele>125</ele>
        <time>2023-04-05T09:20:32Z</time>
      </trkpt>
      <trkpt lat="47.99247" lon="-3.84367">
        <ele>125.1</ele>
        <time>2023-04-05T09:20:33Z</time>
      </trkpt>
      <trkpt lat="47.99252" lon="-3.84368">
        <ele>125.2</ele>
        <time>2023-04-05T09:20:34Z</time>
      </trkpt>
      <trkpt lat="47.99257" lon="-3.84369">
        <ele>125.3</ele>
        <time>2023-04-05T09:20:35Z</time>
      </trkpt>
      <trkpt lat="47.99262" lon="-3.84371">
        <ele>125.4</ele>
        <time>2023-04-05T09:20:36Z</time>
      </trkpt>
      <trkpt lat="47.99267" lon="-3.84372">
        <ele>125.5</ele>
        <time>2023-04-05T09:20:37Z</time>
      </trkpt>
      <trkpt lat="47.99272" lon="-3.84373">
        <ele>125.6</ele>
        <time>2023-04-05T09:20:38Z</time>
      </trkpt>
      <trkpt lat="47.99278" lon="-3.84373">
        <ele>125.7</ele>
        <time>2023-04-05T09:20:39Z</time>
      </trkpt>
      <trkpt lat="47.99283" lon="-3.84374">
        <ele>125.9</ele>
        <time>2023-04-05T09:20:40Z</time>
      </trkpt>
      <trkpt lat="47.99288" lon="-3.84374">
        <ele>126</ele>
        <time>2023-04-05T09:20:41Z</time>
      </trkpt>
      <trkpt lat="47.99293" lon="-3.84374">
        <ele>126.1</ele>
        <time>2023-04-05T09:20:42Z</time>
      </trkpt>
      <trkpt lat="47.99298" lon="-3.84375">
        <ele>126.2</ele>
        <time>2023-04-05T09:20:43Z</time>
      </trkpt>
      <trkpt lat="47.99303" lon="-3.84375">
        <ele>126.3</ele>
        <time>2023-04-05T09:20:44Z</time>
      </trkpt>
      <trkpt lat="47.99308" lon="-3.84375">
        <ele>126.5</ele>
        <time>2023-04-05T09:20:45Z</time>
      </trkpt>
      <trkpt lat="47.99313" lon="-3.84375">
        <ele>126.6</ele>
        <time>2023-04-05T09:20:46Z</time>
      </trkpt>
      <trkpt lat="47.99318" lon="-3.84374">
        <ele>126.7</ele>
        <time>2023-04-05T09:20:47Z</time>
      </trkpt>
      <trkpt lat="47.99323" lon="-3.84373">
        <ele>126.8</ele>
        <time>2023-04-05T09:20:48Z</time>
      </trkpt>
      <trkpt lat="47.99328" lon="-3.84373">
        <ele>126.9</ele>
        <time>2023-04-05T09:20:49Z</time>
      </trkpt>
      <trkpt lat="47.99333" lon="-3.84372">
        <ele>127</ele>
        <time>2023-04-05T09:20:50Z</time>
      </trkpt>
      <trkpt lat="47.99338" lon="-3.84372">
        <ele>127</ele>
        <time>2023-04-05T09:20:51Z</time>
      </trkpt>
      <trkpt lat="47.99342" lon="-3.84371">
        <ele>127.1</ele>
        <time>2023-04-05T09:20:52Z</time>
      </trkpt>
      <trkpt lat="47.99347" lon="-3.8437">
        <ele>127.2</ele>
        <time>2023-04-05T09:20:53Z</time>
      </trkpt>
      <trkpt lat="47.99352" lon="-3.84369">
        <ele>127.3</ele>
        <time>2023-04-05T09:20:54Z</time>
      </trkpt>
      <trkpt lat="47.99357" lon="-3.84368">
        <ele>127.4</ele>
        <time>2023-04-05T09:20:55Z</time>
      </trkpt>
      <trkpt lat="47.99362" lon="-3.84367">
        <ele>127.5</ele>
        <time>2023-04-05T09:20:56Z</time>
      </trkpt>
      <trkpt lat="47.99366" lon="-3.84367">
        <ele>127.6</ele>
        <time>2023-04-05T09:20:57Z</time>
      </trkpt>
      <trkpt lat="47.99371" lon="-3.84366">
        <ele>127.8</ele>
        <time>2023-04-05T09:20:58Z</time>
      </trkpt>
      <trkpt lat="47.99376" lon="-3.84365">
        <ele>128</ele>
        <time>2023-04-05T09:20:59Z</time>
      </trkpt>
      <trkpt lat="47.99381" lon="-3.84364">
        <ele>128.2</ele>
        <time>2023-04-05T09:21:00Z</time>
      </trkpt>
      <trkpt lat="47.99385" lon="-3.84363">
        <ele>128.4</ele>
        <time>2023-04-05T09:21:01Z</time>
      </trkpt>
      <trkpt lat="47.99388" lon="-3.84362">
        <ele>128.5</ele>
        <time>2023-04-05T09:21:02Z</time>
      </trkpt>
      <trkpt lat="47.99392" lon="-3.84361">
        <ele>128.7</ele>
        <time>2023-04-05T09:21:03Z</time>
      </trkpt>
      <trkpt lat="47.99397" lon="-3.8436">
        <ele>129</ele>
        <time>2023-04-05T09:21:04Z</time>
      </trkpt>
      <trkpt lat="47.99402" lon="-3.8436">
        <ele>129.3</ele>
        <time>2023-04-05T09:21:05Z</time>
      </trkpt>
      <trkpt lat="47.99407" lon="-3.84359">
        <ele>129.5</ele>
        <time>2023-04-05T09:21:06Z</time>
      </trkpt>
      <trkpt lat="47.99411" lon="-3.84358">
        <ele>129.8</ele>
        <time>2023-04-05T09:21:07Z</time>
      </trkpt>
      <trkpt lat="47.99417" lon="-3.84358">
        <ele>130.1</ele>
        <time>2023-04-05T09:21:08Z</time>
      </trkpt>
      <trkpt lat="47.9942" lon="-3.84358">
        <ele>130.3</ele>
        <time>2023-04-05T09:21:09Z</time>
      </trkpt>
      <trkpt lat="47.99423" lon="-3.84357">
        <ele>130.5</ele>
        <time>2023-04-05T09:21:10Z</time>
      </trkpt>
      <trkpt lat="47.99427" lon="-3.84355">
        <ele>130.7</ele>
        <time>2023-04-05T09:21:11Z</time>
      </trkpt>
      <trkpt lat="47.99431" lon="-3.84354">
        <ele>131</ele>
        <time>2023-04-05T09:21:12Z</time>
      </trkpt>
      <trkpt lat="47.99435" lon="-3.84353">
        <ele>131.3</ele>
        <time>2023-04-05T09:21:13Z</time>
      </trkpt>
      <trkpt lat="47.99439" lon="-3.84353">
        <ele>131.6</ele>
        <time>2023-04-05T09:21:14Z</time>
      </trkpt>
      <trkpt lat="47.99443" lon="-3.84352">
        <ele>131.9</ele>
        <time>2023-04-05T09:21:15Z</time>
      </trkpt>
      <trkpt lat="47.99448" lon="-3.84351">
        <ele>132.2</ele>
        <time>2023-04-05T09:21:16Z</time>
      </trkpt>
      <trkpt lat="47.99451" lon="-3.84351">
        <ele>132.5</ele>
        <time>2023-04-05T09:21:17Z</time>
      </trkpt>
      <trkpt lat="47.99455" lon="-3.8435">
        <ele>132.8</ele>
        <time>2023-04-05T09:21:18Z</time>
      </trkpt>
      <trkpt lat="47.99459" lon="-3.8435">
        <ele>133.2</ele>
        <time>2023-04-05T09:21:19Z</time>
      </trkpt>
      <trkpt lat="47.99462" lon="-3.84349">
        <ele>133.5</ele>
        <time>2023-04-05T09:21:20Z</time>
      </trkpt>
      <trkpt lat="47.99471" lon="-3.84347">
        <ele>134.3</ele>
        <time>2023-04-05T09:21:22Z</time>
      </trkpt>
      <trkpt lat="47.99476" lon="-3.84347">
        <ele>134.6</ele>
        <time>2023-04-05T09:21:24Z</time>
      </trkpt>
      <trkpt lat="47.99479" lon="-3.84346">
        <ele>134.9</ele>
        <time>2023-04-05T09:21:25Z</time>
      </trkpt>
      <trkpt lat="47.99482" lon="-3.84345">
        <ele>135.2</ele>
        <time>2023-04-05T09:21:26Z</time>
      </trkpt>
      <trkpt lat="47.99489" lon="-3.84344">
        <ele>135.7</ele>
        <time>2023-04-05T09:21:27Z</time>
      </trkpt>
      <trkpt lat="47.99493" lon="-3.84343">
        <ele>136.1</ele>
        <time>2023-04-05T09:21:29Z</time>
      </trkpt>
      <trkpt lat="47.99499" lon="-3.84342">
        <ele>136.5</ele>
        <time>2023-04-05T09:21:30Z</time>
      </trkpt>
      <trkpt lat="47.99503" lon="-3.84341">
        <ele>136.8</ele>
        <time>2023-04-05T09:21:31Z</time>
      </trkpt>
      <trkpt lat="47.99507" lon="-3.84341">
        <ele>137.1</ele>
        <time>2023-04-05T09:21:33Z</time>
      </trkpt>
      <trkpt lat="47.9951" lon="-3.84341">
        <ele>137.3</ele>
        <time>2023-04-05T09:21:34Z</time>
      </trkpt>
      <trkpt lat="47.99513" lon="-3.8434">
        <ele>137.5</ele>
        <time>2023-04-05T09:21:35Z</time>
      </trkpt>
      <trkpt lat="47.99516" lon="-3.8434">
        <ele>137.7</ele>
        <time>2023-04-05T09:21:36Z</time>
      </trkpt>
      <trkpt lat="47.9952" lon="-3.8434">
        <ele>138</ele>
        <time>2023-04-05T09:21:37Z</time>
      </trkpt>
      <trkpt lat="47.99523" lon="-3.8434">
        <ele>138.2</ele>
        <time>2023-04-05T09:21:38Z</time>
      </trkpt>
      <trkpt lat="47.99526" lon="-3.8434">
        <ele>138.4</ele>
        <time>2023-04-05T09:21:39Z</time>
      </trkpt>
      <trkpt lat="47.99533" lon="-3.84341">
        <ele>138.8</ele>
        <time>2023-04-05T09:21:40Z</time>
      </trkpt>
      <trkpt lat="47.99537" lon="-3.84341">
        <ele>139</ele>
        <time>2023-04-05T09:21:42Z</time>
      </trkpt>
      <trkpt lat="47.9954" lon="-3.84341">
        <ele>139.2</ele>
        <time>2023-04-05T09:21:43Z</time>
      </trkpt>
      <trkpt lat="47.99543" lon="-3.84342">
        <ele>139.4</ele>
        <time>2023-04-05T09:21:44Z</time>
      </trkpt>
      <trkpt lat="47.99546" lon="-3.84345">
        <ele>139.5</ele>
        <time>2023-04-05T09:21:45Z</time>
      </trkpt>
      <trkpt lat="47.99548" lon="-3.84349">
        <ele>139.5</ele>
        <time>2023-04-05T09:21:46Z</time>
      </trkpt>
      <trkpt lat="47.99548" lon="-3.84357">
        <ele>139.3</ele>
        <time>2023-04-05T09:21:47Z</time>
      </trkpt>
      <trkpt lat="47.99548" lon="-3.84364">
        <ele>139.1</ele>
        <time>2023-04-05T09:21:48Z</time>
      </trkpt>
      <trkpt lat="47.99545" lon="-3.84375">
        <ele>138.7</ele>
        <time>2023-04-05T09:21:50Z</time>
      </trkpt>
      <trkpt lat="47.99543" lon="-3.84385">
        <ele>138.4</ele>
        <time>2023-04-05T09:21:51Z</time>
      </trkpt>
      <trkpt lat="47.99543" lon="-3.84393">
        <ele>138.1</ele>
        <time>2023-04-05T09:21:52Z</time>
      </trkpt>
      <trkpt lat="47.99542" lon="-3.84401">
        <ele>137.8</ele>
        <time>2023-04-05T09:21:53Z</time>
      </trkpt>
      <trkpt lat="47.99541" lon="-3.84409">
        <ele>137.5</ele>
        <time>2023-04-05T09:21:54Z</time>
      </trkpt>
      <trkpt lat="47.9954" lon="-3.84418">
        <ele>137.2</ele>
        <time>2023-04-05T09:21:55Z</time>
      </trkpt>
      <trkpt lat="47.99539" lon="-3.84427">
        <ele>136.8</ele>
        <time>2023-04-05T09:21:56Z</time>
      </trkpt>
      <trkpt lat="47.99538" lon="-3.84437">
        <ele>136.4</ele>
        <time>2023-04-05T09:21:57Z</time>
      </trkpt>
      <trkpt lat="47.99537" lon="-3.84447">
        <ele>136</ele>
        <time>2023-04-05T09:21:58Z</time>
      </trkpt>
      <trkpt lat="47.99536" lon="-3.84458">
        <ele>135.6</ele>
        <time>2023-04-05T09:21:59Z</time>
      </trkpt>
      <trkpt lat="47.99535" lon="-3.84469">
        <ele>135.1</ele>
        <time>2023-04-05T09:22:00Z</time>
      </trkpt>
      <trkpt lat="47.99534" lon="-3.8448">
        <ele>134.6</ele>
        <time>2023-04-05T09:22:01Z</time>
      </trkpt>
      <trkpt lat="47.99533" lon="-3.84492">
        <ele>134.1</ele>
        <time>2023-04-05T09:22:02Z</time>
      </trkpt>
      <trkpt lat="47.99532" lon="-3.84504">
        <ele>133.6</ele>
        <time>2023-04-05T09:22:03Z</time>
      </trkpt>
      <trkpt lat="47.99531" lon="-3.84516">
        <ele>133</ele>
        <time>2023-04-05T09:22:04Z</time>
      </trkpt>
      <trkpt lat="47.9953" lon="-3.84529">
        <ele>132.4</ele>
        <time>2023-04-05T09:22:05Z</time>
      </trkpt>
      <trkpt lat="47.99529" lon="-3.84542">
        <ele>131.8</ele>
        <time>2023-04-05T09:22:06Z</time>
      </trkpt>
      <trkpt lat="47.99528" lon="-3.84556">
        <ele>131.1</ele>
        <time>2023-04-05T09:22:07Z</time>
      </trkpt>
      <trkpt lat="47.99527" lon="-3.8457">
        <ele>130.5</ele>
        <time>2023-04-05T09:22:08Z</time>
      </trkpt>
      <trkpt lat="47.99527" lon="-3.84584">
        <ele>129.7</ele>
        <time>2023-04-05T09:22:09Z</time>
      </trkpt>
      <trkpt lat="47.99527" lon="-3.84599">
        <ele>129</ele>
        <time>2023-04-05T09:22:10Z</time>
      </trkpt>
      <trkpt lat="47.99527" lon="-3.84614">
        <ele>128.3</ele>
        <time>2023-04-05T09:22:11Z</time>
      </trkpt>
      <trkpt lat="47.99527" lon="-3.84629">
        <ele>127.5</ele>
        <time>2023-04-05T09:22:12Z</time>
      </trkpt>
      <trkpt lat="47.99528" lon="-3.84644">
        <ele>126.7</ele>
        <time>2023-04-05T09:22:13Z</time>
      </trkpt>
      <trkpt lat="47.9953" lon="-3.8466">
        <ele>126.3</ele>
        <time>2023-04-05T09:22:14Z</time>
      </trkpt>
      <trkpt lat="47.99531" lon="-3.84675">
        <ele>125.7</ele>
        <time>2023-04-05T09:22:15Z</time>
      </trkpt>
      <trkpt lat="47.99533" lon="-3.84691">
        <ele>124.8</ele>
        <time>2023-04-05T09:22:16Z</time>
      </trkpt>
      <trkpt lat="47.99536" lon="-3.84707">
        <ele>123.9</ele>
        <time>2023-04-05T09:22:17Z</time>
      </trkpt>
      <trkpt lat="47.99538" lon="-3.84722">
        <ele>123.1</ele>
        <time>2023-04-05T09:22:18Z</time>
      </trkpt>
      <trkpt lat="47.99541" lon="-3.84738">
        <ele>122.2</ele>
        <time>2023-04-05T09:22:19Z</time>
      </trkpt>
      <trkpt lat="47.99544" lon="-3.84754">
        <ele>121.3</ele>
        <time>2023-04-05T09:22:20Z</time>
      </trkpt>
      <trkpt lat="47.99547" lon="-3.84771">
        <ele>120.4</ele>
        <time>2023-04-05T09:22:21Z</time>
      </trkpt>
      <trkpt lat="47.99549" lon="-3.84787">
        <ele>119.6</ele>
        <time>2023-04-05T09:22:22Z</time>
      </trkpt>
      <trkpt lat="47.99552" lon="-3.84803">
        <ele>118.7</ele>
        <time>2023-04-05T09:22:23Z</time>
      </trkpt>
      <trkpt lat="47.99555" lon="-3.84819">
        <ele>118</ele>
        <time>2023-04-05T09:22:24Z</time>
      </trkpt>
      <trkpt lat="47.99557" lon="-3.84836">
        <ele>117.3</ele>
        <time>2023-04-05T09:22:25Z</time>
      </trkpt>
      <trkpt lat="47.99559" lon="-3.84852">
        <ele>116.7</ele>
        <time>2023-04-05T09:22:26Z</time>
      </trkpt>
      <trkpt lat="47.99561" lon="-3.84868">
        <ele>116.1</ele>
        <time>2023-04-05T09:22:27Z</time>
      </trkpt>
      <trkpt lat="47.99563" lon="-3.84884">
        <ele>115.6</ele>
        <time>2023-04-05T09:22:28Z</time>
      </trkpt>
      <trkpt lat="47.99565" lon="-3.84899">
        <ele>115.2</ele>
        <time>2023-04-05T09:22:29Z</time>
      </trkpt>
      <trkpt lat="47.99567" lon="-3.84915">
        <ele>114.8</ele>
        <time>2023-04-05T09:22:30Z</time>
      </trkpt>
      <trkpt lat="47.99568" lon="-3.8493">
        <ele>114.5</ele>
        <time>2023-04-05T09:22:31Z</time>
      </trkpt>
      <trkpt lat="47.9957" lon="-3.84946">
        <ele>114.3</ele>
        <time>2023-04-05T09:22:32Z</time>
      </trkpt>
      <trkpt lat="47.99571" lon="-3.84961">
        <ele>114.1</ele>
        <time>2023-04-05T09:22:33Z</time>
      </trkpt>
      <trkpt lat="47.99572" lon="-3.84976">
        <ele>113.9</ele>
        <time>2023-04-05T09:22:34Z</time>
      </trkpt>
      <trkpt lat="47.99574" lon="-3.84991">
        <ele>113.9</ele>
        <time>2023-04-05T09:22:35Z</time>
      </trkpt>
      <trkpt lat="47.99575" lon="-3.85005">
        <ele>113.9</ele>
        <time>2023-04-05T09:22:36Z</time>
      </trkpt>
      <trkpt lat="47.99576" lon="-3.85019">
        <ele>114</ele>
        <time>2023-04-05T09:22:37Z</time>
      </trkpt>
      <trkpt lat="47.99577" lon="-3.85033">
        <ele>114.1</ele>
        <time>2023-04-05T09:22:38Z</time>
      </trkpt>
      <trkpt lat="47.99578" lon="-3.85045">
        <ele>114.2</ele>
        <time>2023-04-05T09:22:39Z</time>
      </trkpt>
      <trkpt lat="47.99579" lon="-3.85058">
        <ele>114.4</ele>
        <time>2023-04-05T09:22:40Z</time>
      </trkpt>
      <trkpt lat="47.9958" lon="-3.85069">
        <ele>114.6</ele>
        <time>2023-04-05T09:22:41Z</time>
      </trkpt>
      <trkpt lat="47.9958" lon="-3.8508">
        <ele>114.8</ele>
        <time>2023-04-05T09:22:42Z</time>
      </trkpt>
      <trkpt lat="47.99581" lon="-3.85092">
        <ele>115.1</ele>
        <time>2023-04-05T09:22:43Z</time>
      </trkpt>
      <trkpt lat="47.99582" lon="-3.85102">
        <ele>115.3</ele>
        <time>2023-04-05T09:22:44Z</time>
      </trkpt>
      <trkpt lat="47.99583" lon="-3.85112">
        <ele>115.6</ele>
        <time>2023-04-05T09:22:45Z</time>
      </trkpt>
      <trkpt lat="47.99583" lon="-3.85122">
        <ele>115.9</ele>
        <time>2023-04-05T09:22:46Z</time>
      </trkpt>
      <trkpt lat="47.99585" lon="-3.85132">
        <ele>116.2</ele>
        <time>2023-04-05T09:22:47Z</time>
      </trkpt>
      <trkpt lat="47.99586" lon="-3.85141">
        <ele>116.5</ele>
        <time>2023-04-05T09:22:48Z</time>
      </trkpt>
      <trkpt lat="47.99586" lon="-3.8515">
        <ele>116.8</ele>
        <time>2023-04-05T09:22:49Z</time>
      </trkpt>
      <trkpt lat="47.99587" lon="-3.85159">
        <ele>117.1</ele>
        <time>2023-04-05T09:22:50Z</time>
      </trkpt>
      <trkpt lat="47.99588" lon="-3.85168">
        <ele>117.4</ele>
        <time>2023-04-05T09:22:51Z</time>
      </trkpt>
      <trkpt lat="47.99589" lon="-3.85177">
        <ele>117.8</ele>
        <time>2023-04-05T09:22:52Z</time>
      </trkpt>
      <trkpt lat="47.9959" lon="-3.85185">
        <ele>118.1</ele>
        <time>2023-04-05T09:22:53Z</time>
      </trkpt>
      <trkpt lat="47.99591" lon="-3.85193">
        <ele>118.3</ele>
        <time>2023-04-05T09:22:54Z</time>
      </trkpt>
      <trkpt lat="47.99591" lon="-3.85201">
        <ele>118.6</ele>
        <time>2023-04-05T09:22:55Z</time>
      </trkpt>
      <trkpt lat="47.99592" lon="-3.85209">
        <ele>118.8</ele>
        <time>2023-04-05T09:22:56Z</time>
      </trkpt>
      <trkpt lat="47.99593" lon="-3.85217">
        <ele>119.1</ele>
        <time>2023-04-05T09:22:57Z</time>
      </trkpt>
      <trkpt lat="47.99594" lon="-3.85224">
        <ele>119.3</ele>
        <time>2023-04-05T09:22:58Z</time>
      </trkpt>
      <trkpt lat="47.99594" lon="-3.85232">
        <ele>119.5</ele>
        <time>2023-04-05T09:22:59Z</time>
      </trkpt>
      <trkpt lat="47.99595" lon="-3.85239">
        <ele>119.8</ele>
        <time>2023-04-05T09:23:00Z</time>
      </trkpt>
      <trkpt lat="47.99596" lon="-3.85247">
        <ele>120</ele>
        <time>2023-04-05T09:23:01Z</time>
      </trkpt>
      <trkpt lat="47.99596" lon="-3.85255">
        <ele>120.3</ele>
        <time>2023-04-05T09:23:02Z</time>
      </trkpt>
      <trkpt lat="47.99597" lon="-3.85262">
        <ele>120.5</ele>
        <time>2023-04-05T09:23:03Z</time>
      </trkpt>
      <trkpt lat="47.99598" lon="-3.8527">
        <ele>120.8</ele>
        <time>2023-04-05T09:23:04Z</time>
      </trkpt>
      <trkpt lat="47.99599" lon="-3.85277">
        <ele>121</ele>
        <time>2023-04-05T09:23:05Z</time>
      </trkpt>
      <trkpt lat="47.99599" lon="-3.85285">
        <ele>121.2</ele>
        <time>2023-04-05T09:23:06Z</time>
      </trkpt>
      <trkpt lat="47.996" lon="-3.85292">
        <ele>121.4</ele>
        <time>2023-04-05T09:23:07Z</time>
      </trkpt>
      <trkpt lat="47.996" lon="-3.853">
        <ele>121.6</ele>
        <time>2023-04-05T09:23:08Z</time>
      </trkpt>
      <trkpt lat="47.99601" lon="-3.85307">
        <ele>121.7</ele>
        <time>2023-04-05T09:23:09Z</time>
      </trkpt>
      <trkpt lat="47.99602" lon="-3.85315">
        <ele>121.9</ele>
        <time>2023-04-05T09:23:10Z</time>
      </trkpt>
      <trkpt lat="47.99602" lon="-3.85322">
        <ele>122</ele>
        <time>2023-04-05T09:23:11Z</time>
      </trkpt>
      <trkpt lat="47.99603" lon="-3.85329">
        <ele>122.1</ele>
        <time>2023-04-05T09:23:12Z</time>
      </trkpt>
      <trkpt lat="47.99604" lon="-3.85337">
        <ele>122.2</ele>
        <time>2023-04-05T09:23:13Z</time>
      </trkpt>
      <trkpt lat="47.99604" lon="-3.85344">
        <ele>122.2</ele>
        <time>2023-04-05T09:23:14Z</time>
      </trkpt>
      <trkpt lat="47.99605" lon="-3.85351">
        <ele>122.3</ele>
        <time>2023-04-05T09:23:15Z</time>
      </trkpt>
      <trkpt lat="47.99606" lon="-3.85359">
        <ele>122.3</ele>
        <time>2023-04-05T09:23:16Z</time>
      </trkpt>
      <trkpt lat="47.99607" lon="-3.85367">
        <ele>122.3</ele>
        <time>2023-04-05T09:23:17Z</time>
      </trkpt>
      <trkpt lat="47.99607" lon="-3.85374">
        <ele>122.2</ele>
        <time>2023-04-05T09:23:18Z</time>
      </trkpt>
      <trkpt lat="47.99608" lon="-3.85382">
        <ele>122.1</ele>
        <time>2023-04-05T09:23:19Z</time>
      </trkpt>
      <trkpt lat="47.99609" lon="-3.8539">
        <ele>122</ele>
        <time>2023-04-05T09:23:20Z</time>
      </trkpt>
      <trkpt lat="47.99609" lon="-3.85398">
        <ele>121.9</ele>
        <time>2023-04-05T09:23:21Z</time>
      </trkpt>
      <trkpt lat="47.9961" lon="-3.85406">
        <ele>121.8</ele>
        <time>2023-04-05T09:23:22Z</time>
      </trkpt>
      <trkpt lat="47.9961" lon="-3.85415">
        <ele>121.7</ele>
        <time>2023-04-05T09:23:23Z</time>
      </trkpt>
      <trkpt lat="47.99611" lon="-3.85424">
        <ele>121.5</ele>
        <time>2023-04-05T09:23:24Z</time>
      </trkpt>
      <trkpt lat="47.99611" lon="-3.85432">
        <ele>121.4</ele>
        <time>2023-04-05T09:23:25Z</time>
      </trkpt>
      <trkpt lat="47.99612" lon="-3.85441">
        <ele>121.2</ele>
        <time>2023-04-05T09:23:26Z</time>
      </trkpt>
      <trkpt lat="47.99613" lon="-3.85451">
        <ele>121.1</ele>
        <time>2023-04-05T09:23:27Z</time>
      </trkpt>
      <trkpt lat="47.99614" lon="-3.8546">
        <ele>120.9</ele>
        <time>2023-04-05T09:23:28Z</time>
      </trkpt>
      <trkpt lat="47.99615" lon="-3.85469">
        <ele>120.7</ele>
        <time>2023-04-05T09:23:29Z</time>
      </trkpt>
      <trkpt lat="47.99616" lon="-3.85479">
        <ele>120.5</ele>
        <time>2023-04-05T09:23:30Z</time>
      </trkpt>
      <trkpt lat="47.99617" lon="-3.85489">
        <ele>120.3</ele>
        <time>2023-04-05T09:23:31Z</time>
      </trkpt>
      <trkpt lat="47.99618" lon="-3.855">
        <ele>120</ele>
        <time>2023-04-05T09:23:32Z</time>
      </trkpt>
      <trkpt lat="47.99619" lon="-3.85511">
        <ele>119.7</ele>
        <time>2023-04-05T09:23:33Z</time>
      </trkpt>
      <trkpt lat="47.9962" lon="-3.85521">
        <ele>119.4</ele>
        <time>2023-04-05T09:23:34Z</time>
      </trkpt>
      <trkpt lat="47.99621" lon="-3.85532">
        <ele>119.2</ele>
        <time>2023-04-05T09:23:35Z</time>
      </trkpt>
      <trkpt lat="47.99622" lon="-3.85543">
        <ele>119</ele>
        <time>2023-04-05T09:23:36Z</time>
      </trkpt>
      <trkpt lat="47.99623" lon="-3.85553">
        <ele>118.8</ele>
        <time>2023-04-05T09:23:37Z</time>
      </trkpt>
      <trkpt lat="47.99624" lon="-3.85564">
        <ele>118.7</ele>
        <time>2023-04-05T09:23:38Z</time>
      </trkpt>
      <trkpt lat="47.99624" lon="-3.85574">
        <ele>118.6</ele>
        <time>2023-04-05T09:23:39Z</time>
      </trkpt>
      <trkpt lat="47.99625" lon="-3.85585">
        <ele>118.5</ele>
        <time>2023-04-05T09:23:40Z</time>
      </trkpt>
      <trkpt lat="47.99626" lon="-3.85595">
        <ele>118.5</ele>
        <time>2023-04-05T09:23:41Z</time>
      </trkpt>
      <trkpt lat="47.99627" lon="-3.85605">
        <ele>118.5</ele>
        <time>2023-04-05T09:23:42Z</time>
      </trkpt>
      <trkpt lat="47.99628" lon="-3.85614">
        <ele>118.6</ele>
        <time>2023-04-05T09:23:43Z</time>
      </trkpt>
      <trkpt lat="47.99628" lon="-3.85624">
        <ele>118.7</ele>
        <time>2023-04-05T09:23:44Z</time>
      </trkpt>
      <trkpt lat="47.99629" lon="-3.85633">
        <ele>118.8</ele>
        <time>2023-04-05T09:23:45Z</time>
      </trkpt>
      <trkpt lat="47.9963" lon="-3.85643">
        <ele>119</ele>
        <time>2023-04-05T09:23:46Z</time>
      </trkpt>
      <trkpt lat="47.99631" lon="-3.85652">
        <ele>119.2</ele>
        <time>2023-04-05T09:23:47Z</time>
      </trkpt>
      <trkpt lat="47.99632" lon="-3.8566">
        <ele>119.4</ele>
        <time>2023-04-05T09:23:48Z</time>
      </trkpt>
      <trkpt lat="47.99632" lon="-3.85669">
        <ele>119.6</ele>
        <time>2023-04-05T09:23:49Z</time>
      </trkpt>
      <trkpt lat="47.99633" lon="-3.85678">
        <ele>119.8</ele>
        <time>2023-04-05T09:23:50Z</time>
      </trkpt>
      <trkpt lat="47.99634" lon="-3.85686">
        <ele>120</ele>
        <time>2023-04-05T09:23:51Z</time>
      </trkpt>
      <trkpt lat="47.99635" lon="-3.85694">
        <ele>120.3</ele>
        <time>2023-04-05T09:23:52Z</time>
      </trkpt>
      <trkpt lat="47.99636" lon="-3.85701">
        <ele>120.5</ele>
        <time>2023-04-05T09:23:53Z</time>
      </trkpt>
      <trkpt lat="47.99637" lon="-3.85709">
        <ele>120.7</ele>
        <time>2023-04-05T09:23:54Z</time>
      </trkpt>
      <trkpt lat="47.99637" lon="-3.85717">
        <ele>120.9</ele>
        <time>2023-04-05T09:23:55Z</time>
      </trkpt>
      <trkpt lat="47.99637" lon="-3.85725">
        <ele>121.2</ele>
        <time>2023-04-05T09:23:56Z</time>
      </trkpt>
      <trkpt lat="47.99638" lon="-3.85732">
        <ele>121.4</ele>
        <time>2023-04-05T09:23:57Z</time>
      </trkpt>
      <trkpt lat="47.99638" lon="-3.8574">
        <ele>121.7</ele>
        <time>2023-04-05T09:23:58Z</time>
      </trkpt>
      <trkpt lat="47.99639" lon="-3.85747">
        <ele>121.9</ele>
        <time>2023-04-05T09:23:59Z</time>
      </trkpt>
      <trkpt lat="47.9964" lon="-3.85753">
        <ele>122.2</ele>
        <time>2023-04-05T09:24:00Z</time>
      </trkpt>
      <trkpt lat="47.99641" lon="-3.8576">
        <ele>122.4</ele>
        <time>2023-04-05T09:24:01Z</time>
      </trkpt>
      <trkpt lat="47.99641" lon="-3.85767">
        <ele>122.7</ele>
        <time>2023-04-05T09:24:02Z</time>
      </trkpt>
      <trkpt lat="47.99642" lon="-3.85774">
        <ele>122.9</ele>
        <time>2023-04-05T09:24:03Z</time>
      </trkpt>
      <trkpt lat="47.99642" lon="-3.85781">
        <ele>123.1</ele>
        <time>2023-04-05T09:24:04Z</time>
      </trkpt>
      <trkpt lat="47.99643" lon="-3.85788">
        <ele>123.3</ele>
        <time>2023-04-05T09:24:05Z</time>
      </trkpt>
      <trkpt lat="47.99644" lon="-3.85795">
        <ele>123.5</ele>
        <time>2023-04-05T09:24:06Z</time>
      </trkpt>
      <trkpt lat="47.99645" lon="-3.85802">
        <ele>123.8</ele>
        <time>2023-04-05T09:24:07Z</time>
      </trkpt>
      <trkpt lat="47.99645" lon="-3.85809">
        <ele>124</ele>
        <time>2023-04-05T09:24:08Z</time>
      </trkpt>
      <trkpt lat="47.99646" lon="-3.85816">
        <ele>124.2</ele>
        <time>2023-04-05T09:24:09Z</time>
      </trkpt>
      <trkpt lat="47.99647" lon="-3.85823">
        <ele>124.4</ele>
        <time>2023-04-05T09:24:10Z</time>
      </trkpt>
      <trkpt lat="47.99647" lon="-3.8583">
        <ele>124.6</ele>
        <time>2023-04-05T09:24:11Z</time>
      </trkpt>
      <trkpt lat="47.99648" lon="-3.85837">
        <ele>124.9</ele>
        <time>2023-04-05T09:24:12Z</time>
      </trkpt>
      <trkpt lat="47.99648" lon="-3.85843">
        <ele>125.1</ele>
        <time>2023-04-05T09:24:13Z</time>
      </trkpt>
      <trkpt lat="47.99649" lon="-3.8585">
        <ele>125.3</ele>
        <time>2023-04-05T09:24:14Z</time>
      </trkpt>
      <trkpt lat="47.99649" lon="-3.85857">
        <ele>125.5</ele>
        <time>2023-04-05T09:24:15Z</time>
      </trkpt>
      <trkpt lat="47.9965" lon="-3.85863">
        <ele>125.7</ele>
        <time>2023-04-05T09:24:16Z</time>
      </trkpt>
      <trkpt lat="47.9965" lon="-3.8587">
        <ele>125.8</ele>
        <time>2023-04-05T09:24:17Z</time>
      </trkpt>
      <trkpt lat="47.99651" lon="-3.85877">
        <ele>125.9</ele>
        <time>2023-04-05T09:24:18Z</time>
      </trkpt>
      <trkpt lat="47.99652" lon="-3.85884">
        <ele>126</ele>
        <time>2023-04-05T09:24:19Z</time>
      </trkpt>
      <trkpt lat="47.99652" lon="-3.8589">
        <ele>126.1</ele>
        <time>2023-04-05T09:24:20Z</time>
      </trkpt>
      <trkpt lat="47.99652" lon="-3.85895">
        <ele>126.1</ele>
        <time>2023-04-05T09:24:21Z</time>
      </trkpt>
      <trkpt lat="47.99653" lon="-3.85902">
        <ele>126.2</ele>
        <time>2023-04-05T09:24:22Z</time>
      </trkpt>
      <trkpt lat="47.99653" lon="-3.8591">
        <ele>126.2</ele>
        <time>2023-04-05T09:24:23Z</time>
      </trkpt>
      <trkpt lat="47.99654" lon="-3.85917">
        <ele>126.2</ele>
        <time>2023-04-05T09:24:24Z</time>
      </trkpt>
      <trkpt lat="47.99654" lon="-3.85924">
        <ele>126.2</ele>
        <time>2023-04-05T09:24:25Z</time>
      </trkpt>
      <trkpt lat="47.99655" lon="-3.85931">
        <ele>126.2</ele>
        <time>2023-04-05T09:24:26Z</time>
      </trkpt>
      <trkpt lat="47.99655" lon="-3.85938">
        <ele>126.1</ele>
        <time>2023-04-05T09:24:27Z</time>
      </trkpt>
      <trkpt lat="47.99656" lon="-3.85946">
        <ele>126</ele>
        <time>2023-04-05T09:24:28Z</time>
      </trkpt>
      <trkpt lat="47.99656" lon="-3.85953">
        <ele>125.9</ele>
        <time>2023-04-05T09:24:29Z</time>
      </trkpt>
      <trkpt lat="47.99656" lon="-3.85961">
        <ele>125.7</ele>
        <time>2023-04-05T09:24:30Z</time>
      </trkpt>
      <trkpt lat="47.99656" lon="-3.85968">
        <ele>125.6</ele>
        <time>2023-04-05T09:24:31Z</time>
      </trkpt>
      <trkpt lat="47.99656" lon="-3.85975">
        <ele>125.4</ele>
        <time>2023-04-05T09:24:32Z</time>
      </trkpt>
      <trkpt lat="47.99657" lon="-3.85983">
        <ele>125.2</ele>
        <time>2023-04-05T09:24:33Z</time>
      </trkpt>
      <trkpt lat="47.99656" lon="-3.8599">
        <ele>125.1</ele>
        <time>2023-04-05T09:24:34Z</time>
      </trkpt>
      <trkpt lat="47.99656" lon="-3.85998">
        <ele>124.9</ele>
        <time>2023-04-05T09:24:35Z</time>
      </trkpt>
      <trkpt lat="47.99656" lon="-3.86006">
        <ele>124.7</ele>
        <time>2023-04-05T09:24:36Z</time>
      </trkpt>
      <trkpt lat="47.99656" lon="-3.86014">
        <ele>124.4</ele>
        <time>2023-04-05T09:24:37Z</time>
      </trkpt>
      <trkpt lat="47.99655" lon="-3.86023">
        <ele>124.2</ele>
        <time>2023-04-05T09:24:38Z</time>
      </trkpt>
      <trkpt lat="47.99655" lon="-3.86032">
        <ele>123.9</ele>
        <time>2023-04-05T09:24:39Z</time>
      </trkpt>
      <trkpt lat="47.99654" lon="-3.86042">
        <ele>123.5</ele>
        <time>2023-04-05T09:24:40Z</time>
      </trkpt>
      <trkpt lat="47.99654" lon="-3.86052">
        <ele>123.2</ele>
        <time>2023-04-05T09:24:41Z</time>
      </trkpt>
      <trkpt lat="47.99653" lon="-3.86062">
        <ele>122.9</ele>
        <time>2023-04-05T09:24:42Z</time>
      </trkpt>
      <trkpt lat="47.99653" lon="-3.86073">
        <ele>122.5</ele>
        <time>2023-04-05T09:24:43Z</time>
      </trkpt>
      <trkpt lat="47.99652" lon="-3.86084">
        <ele>122.1</ele>
        <time>2023-04-05T09:24:44Z</time>
      </trkpt>
      <trkpt lat="47.99651" lon="-3.86096">
        <ele>121.7</ele>
        <time>2023-04-05T09:24:45Z</time>
      </trkpt>
      <trkpt lat="47.99651" lon="-3.86107">
        <ele>121.3</ele>
        <time>2023-04-05T09:24:46Z</time>
      </trkpt>
      <trkpt lat="47.9965" lon="-3.86119">
        <ele>120.9</ele>
        <time>2023-04-05T09:24:47Z</time>
      </trkpt>
      <trkpt lat="47.9965" lon="-3.86132">
        <ele>120.5</ele>
        <time>2023-04-05T09:24:48Z</time>
      </trkpt>
      <trkpt lat="47.99649" lon="-3.86145">
        <ele>120.1</ele>
        <time>2023-04-05T09:24:49Z</time>
      </trkpt>
      <trkpt lat="47.99648" lon="-3.86157">
        <ele>119.7</ele>
        <time>2023-04-05T09:24:50Z</time>
      </trkpt>
      <trkpt lat="47.99648" lon="-3.8617">
        <ele>119.3</ele>
        <time>2023-04-05T09:24:51Z</time>
      </trkpt>
      <trkpt lat="47.99647" lon="-3.86183">
        <ele>119.1</ele>
        <time>2023-04-05T09:24:52Z</time>
      </trkpt>
      <trkpt lat="47.99647" lon="-3.86196">
        <ele>118.9</ele>
        <time>2023-04-05T09:24:53Z</time>
      </trkpt>
      <trkpt lat="47.99646" lon="-3.86208">
        <ele>118.7</ele>
        <time>2023-04-05T09:24:54Z</time>
      </trkpt>
      <trkpt lat="47.99645" lon="-3.8622">
        <ele>118.6</ele>
        <time>2023-04-05T09:24:55Z</time>
      </trkpt>
      <trkpt lat="47.99644" lon="-3.86233">
        <ele>118.5</ele>
        <time>2023-04-05T09:24:56Z</time>
      </trkpt>
      <trkpt lat="47.99643" lon="-3.86244">
        <ele>118.4</ele>
        <time>2023-04-05T09:24:57Z</time>
      </trkpt>
      <trkpt lat="47.99643" lon="-3.86256">
        <ele>118.4</ele>
        <time>2023-04-05T09:24:58Z</time>
      </trkpt>
      <trkpt lat="47.99642" lon="-3.86267">
        <ele>118.4</ele>
        <time>2023-04-05T09:24:59Z</time>
      </trkpt>
      <trkpt lat="47.99642" lon="-3.86277">
        <ele>118.5</ele>
        <time>2023-04-05T09:25:00Z</time>
      </trkpt>
      <trkpt lat="47.99642" lon="-3.86287">
        <ele>118.6</ele>
        <time>2023-04-05T09:25:01Z</time>
      </trkpt>
      <trkpt lat="47.99641" lon="-3.86297">
        <ele>118.7</ele>
        <time>2023-04-05T09:25:02Z</time>
      </trkpt>
      <trkpt lat="47.99641" lon="-3.86307">
        <ele>118.9</ele>
        <time>2023-04-05T09:25:03Z</time>
      </trkpt>
      <trkpt lat="47.9964" lon="-3.86316">
        <ele>119.1</ele>
        <time>2023-04-05T09:25:04Z</time>
      </trkpt>
      <trkpt lat="47.9964" lon="-3.86325">
        <ele>119.2</ele>
        <time>2023-04-05T09:25:05Z</time>
      </trkpt>
      <trkpt lat="47.9964" lon="-3.86334">
        <ele>119.4</ele>
        <time>2023-04-05T09:25:06Z</time>
      </trkpt>
      <trkpt lat="47.99639" lon="-3.86343">
        <ele>119.6</ele>
        <time>2023-04-05T09:25:07Z</time>
      </trkpt>
      <trkpt lat="47.99639" lon="-3.86352">
        <ele>119.8</ele>
        <time>2023-04-05T09:25:08Z</time>
      </trkpt>
      <trkpt lat="47.99638" lon="-3.86361">
        <ele>120</ele>
        <time>2023-04-05T09:25:09Z</time>
      </trkpt>
      <trkpt lat="47.99638" lon="-3.86369">
        <ele>120.2</ele>
        <time>2023-04-05T09:25:10Z</time>
      </trkpt>
      <trkpt lat="47.99638" lon="-3.86377">
        <ele>120.4</ele>
        <time>2023-04-05T09:25:11Z</time>
      </trkpt>
      <trkpt lat="47.99638" lon="-3.86386">
        <ele>120.6</ele>
        <time>2023-04-05T09:25:12Z</time>
      </trkpt>
      <trkpt lat="47.99637" lon="-3.86394">
        <ele>120.7</ele>
        <time>2023-04-05T09:25:13Z</time>
      </trkpt>
      <trkpt lat="47.99637" lon="-3.86401">
        <ele>120.9</ele>
        <time>2023-04-05T09:25:14Z</time>
      </trkpt>
      <trkpt lat="47.99636" lon="-3.86409">
        <ele>121.1</ele>
        <time>2023-04-05T09:25:15Z</time>
      </trkpt>
      <trkpt lat="47.99636" lon="-3.86417">
        <ele>121.3</ele>
        <time>2023-04-05T09:25:16Z</time>
      </trkpt>
      <trkpt lat="47.99636" lon="-3.86424">
        <ele>121.5</ele>
        <time>2023-04-05T09:25:17Z</time>
      </trkpt>
      <trkpt lat="47.99636" lon="-3.86432">
        <ele>121.7</ele>
        <time>2023-04-05T09:25:18Z</time>
      </trkpt>
      <trkpt lat="47.99635" lon="-3.86439">
        <ele>122</ele>
        <time>2023-04-05T09:25:19Z</time>
      </trkpt>
      <trkpt lat="47.99635" lon="-3.86447">
        <ele>122.2</ele>
        <time>2023-04-05T09:25:20Z</time>
      </trkpt>
      <trkpt lat="47.99634" lon="-3.86453">
        <ele>122.3</ele>
        <time>2023-04-05T09:25:21Z</time>
      </trkpt>
      <trkpt lat="47.99634" lon="-3.8646">
        <ele>122.5</ele>
        <time>2023-04-05T09:25:22Z</time>
      </trkpt>
      <trkpt lat="47.99634" lon="-3.86467">
        <ele>122.7</ele>
        <time>2023-04-05T09:25:23Z</time>
      </trkpt>
      <trkpt lat="47.99633" lon="-3.86474">
        <ele>122.8</ele>
        <time>2023-04-05T09:25:24Z</time>
      </trkpt>
      <trkpt lat="47.99632" lon="-3.86481">
        <ele>122.8</ele>
        <time>2023-04-05T09:25:25Z</time>
      </trkpt>
      <trkpt lat="47.99632" lon="-3.86488">
        <ele>122.8</ele>
        <time>2023-04-05T09:25:26Z</time>
      </trkpt>
      <trkpt lat="47.99631" lon="-3.86496">
        <ele>122.8</ele>
        <time>2023-04-05T09:25:27Z</time>
      </trkpt>
      <trkpt lat="47.99631" lon="-3.86504">
        <ele>122.8</ele>
        <time>2023-04-05T09:25:28Z</time>
      </trkpt>
      <trkpt lat="47.9963" lon="-3.86511">
        <ele>122.8</ele>
        <time>2023-04-05T09:25:29Z</time>
      </trkpt>
      <trkpt lat="47.99629" lon="-3.86518">
        <ele>122.8</ele>
        <time>2023-04-05T09:25:30Z</time>
      </trkpt>
      <trkpt lat="47.99629" lon="-3.86525">
        <ele>122.8</ele>
        <time>2023-04-05T09:25:31Z</time>
      </trkpt>
      <trkpt lat="47.99628" lon="-3.86533">
        <ele>122.7</ele>
        <time>2023-04-05T09:25:32Z</time>
      </trkpt>
      <trkpt lat="47.99627" lon="-3.86541">
        <ele>122.7</ele>
        <time>2023-04-05T09:25:33Z</time>
      </trkpt>
      <trkpt lat="47.99626" lon="-3.86549">
        <ele>122.6</ele>
        <time>2023-04-05T09:25:34Z</time>
      </trkpt>
      <trkpt lat="47.99625" lon="-3.86557">
        <ele>122.5</ele>
        <time>2023-04-05T09:25:35Z</time>
      </trkpt>
      <trkpt lat="47.99624" lon="-3.86565">
        <ele>122.4</ele>
        <time>2023-04-05T09:25:36Z</time>
      </trkpt>
      <trkpt lat="47.99623" lon="-3.86574">
        <ele>122.3</ele>
        <time>2023-04-05T09:25:37Z</time>
      </trkpt>
      <trkpt lat="47.99622" lon="-3.86582">
        <ele>122.2</ele>
        <time>2023-04-05T09:25:38Z</time>
      </trkpt>
      <trkpt lat="47.99622" lon="-3.8659">
        <ele>122.1</ele>
        <time>2023-04-05T09:25:39Z</time>
      </trkpt>
      <trkpt lat="47.99621" lon="-3.86599">
        <ele>121.9</ele>
        <time>2023-04-05T09:25:40Z</time>
      </trkpt>
      <trkpt lat="47.99619" lon="-3.86608">
        <ele>121.8</ele>
        <time>2023-04-05T09:25:41Z</time>
      </trkpt>
      <trkpt lat="47.99618" lon="-3.86617">
        <ele>121.6</ele>
        <time>2023-04-05T09:25:42Z</time>
      </trkpt>
      <trkpt lat="47.99617" lon="-3.86626">
        <ele>121.5</ele>
        <time>2023-04-05T09:25:43Z</time>
      </trkpt>
      <trkpt lat="47.99616" lon="-3.86635">
        <ele>121.3</ele>
        <time>2023-04-05T09:25:44Z</time>
      </trkpt>
      <trkpt lat="47.99615" lon="-3.86644">
        <ele>121.1</ele>
        <time>2023-04-05T09:25:45Z</time>
      </trkpt>
      <trkpt lat="47.99615" lon="-3.86654">
        <ele>120.9</ele>
        <time>2023-04-05T09:25:46Z</time>
      </trkpt>
      <trkpt lat="47.99614" lon="-3.86664">
        <ele>120.7</ele>
        <time>2023-04-05T09:25:47Z</time>
      </trkpt>
      <trkpt lat="47.99612" lon="-3.86675">
        <ele>120.5</ele>
        <time>2023-04-05T09:25:48Z</time>
      </trkpt>
      <trkpt lat="47.99611" lon="-3.86685">
        <ele>120.3</ele>
        <time>2023-04-05T09:25:49Z</time>
      </trkpt>
      <trkpt lat="47.9961" lon="-3.86696">
        <ele>120.1</ele>
        <time>2023-04-05T09:25:50Z</time>
      </trkpt>
      <trkpt lat="47.99609" lon="-3.86707">
        <ele>120</ele>
        <time>2023-04-05T09:25:51Z</time>
      </trkpt>
      <trkpt lat="47.99608" lon="-3.86717">
        <ele>119.7</ele>
        <time>2023-04-05T09:25:52Z</time>
      </trkpt>
      <trkpt lat="47.99607" lon="-3.86728">
        <ele>119.4</ele>
        <time>2023-04-05T09:25:53Z</time>
      </trkpt>
      <trkpt lat="47.99605" lon="-3.86739">
        <ele>119</ele>
        <time>2023-04-05T09:25:54Z</time>
      </trkpt>
      <trkpt lat="47.99604" lon="-3.8675">
        <ele>118.7</ele>
        <time>2023-04-05T09:25:55Z</time>
      </trkpt>
      <trkpt lat="47.99603" lon="-3.86761">
        <ele>118.4</ele>
        <time>2023-04-05T09:25:56Z</time>
      </trkpt>
      <trkpt lat="47.99602" lon="-3.86773">
        <ele>118.1</ele>
        <time>2023-04-05T09:25:57Z</time>
      </trkpt>
      <trkpt lat="47.99601" lon="-3.86784">
        <ele>117.8</ele>
        <time>2023-04-05T09:25:58Z</time>
      </trkpt>
      <trkpt lat="47.99599" lon="-3.86796">
        <ele>117.5</ele>
        <time>2023-04-05T09:25:59Z</time>
      </trkpt>
      <trkpt lat="47.99599" lon="-3.86807">
        <ele>117.2</ele>
        <time>2023-04-05T09:26:00Z</time>
      </trkpt>
      <trkpt lat="47.99598" lon="-3.86818">
        <ele>117</ele>
        <time>2023-04-05T09:26:01Z</time>
      </trkpt>
      <trkpt lat="47.99597" lon="-3.8683">
        <ele>116.9</ele>
        <time>2023-04-05T09:26:02Z</time>
      </trkpt>
      <trkpt lat="47.99596" lon="-3.86841">
        <ele>116.7</ele>
        <time>2023-04-05T09:26:03Z</time>
      </trkpt>
      <trkpt lat="47.99596" lon="-3.86852">
        <ele>116.6</ele>
        <time>2023-04-05T09:26:04Z</time>
      </trkpt>
      <trkpt lat="47.99595" lon="-3.86863">
        <ele>116.5</ele>
        <time>2023-04-05T09:26:05Z</time>
      </trkpt>
      <trkpt lat="47.99595" lon="-3.86873">
        <ele>116.5</ele>
        <time>2023-04-05T09:26:06Z</time>
      </trkpt>
      <trkpt lat="47.99594" lon="-3.86884">
        <ele>116.5</ele>
        <time>2023-04-05T09:26:07Z</time>
      </trkpt>
      <trkpt lat="47.99594" lon="-3.86894">
        <ele>116.5</ele>
        <time>2023-04-05T09:26:08Z</time>
      </trkpt>
      <trkpt lat="47.99593" lon="-3.86904">
        <ele>116.5</ele>
        <time>2023-04-05T09:26:09Z</time>
      </trkpt>
      <trkpt lat="47.99593" lon="-3.86914">
        <ele>116.6</ele>
        <time>2023-04-05T09:26:10Z</time>
      </trkpt>
      <trkpt lat="47.99593" lon="-3.86923">
        <ele>116.6</ele>
        <time>2023-04-05T09:26:11Z</time>
      </trkpt>
      <trkpt lat="47.99592" lon="-3.86933">
        <ele>116.7</ele>
        <time>2023-04-05T09:26:12Z</time>
      </trkpt>
      <trkpt lat="47.99592" lon="-3.86942">
        <ele>116.7</ele>
        <time>2023-04-05T09:26:13Z</time>
      </trkpt>
      <trkpt lat="47.99592" lon="-3.86951">
        <ele>116.8</ele>
        <time>2023-04-05T09:26:14Z</time>
      </trkpt>
      <trkpt lat="47.99591" lon="-3.8696">
        <ele>116.9</ele>
        <time>2023-04-05T09:26:15Z</time>
      </trkpt>
      <trkpt lat="47.99591" lon="-3.8697">
        <ele>117</ele>
        <time>2023-04-05T09:26:16Z</time>
      </trkpt>
      <trkpt lat="47.9959" lon="-3.86979">
        <ele>117.1</ele>
        <time>2023-04-05T09:26:17Z</time>
      </trkpt>
      <trkpt lat="47.9959" lon="-3.86988">
        <ele>117.2</ele>
        <time>2023-04-05T09:26:18Z</time>
      </trkpt>
      <trkpt lat="47.9959" lon="-3.86997">
        <ele>117.3</ele>
        <time>2023-04-05T09:26:19Z</time>
      </trkpt>
      <trkpt lat="47.9959" lon="-3.87005">
        <ele>117.4</ele>
        <time>2023-04-05T09:26:20Z</time>
      </trkpt>
      <trkpt lat="47.99589" lon="-3.87014">
        <ele>117.5</ele>
        <time>2023-04-05T09:26:21Z</time>
      </trkpt>
      <trkpt lat="47.99588" lon="-3.87022">
        <ele>117.6</ele>
        <time>2023-04-05T09:26:22Z</time>
      </trkpt>
      <trkpt lat="47.99588" lon="-3.8703">
        <ele>117.7</ele>
        <time>2023-04-05T09:26:23Z</time>
      </trkpt>
      <trkpt lat="47.99587" lon="-3.87038">
        <ele>117.8</ele>
        <time>2023-04-05T09:26:24Z</time>
      </trkpt>
      <trkpt lat="47.99587" lon="-3.87046">
        <ele>117.9</ele>
        <time>2023-04-05T09:26:25Z</time>
      </trkpt>
      <trkpt lat="47.99587" lon="-3.87053">
        <ele>118</ele>
        <time>2023-04-05T09:26:26Z</time>
      </trkpt>
      <trkpt lat="47.99586" lon="-3.87061">
        <ele>118.1</ele>
        <time>2023-04-05T09:26:27Z</time>
      </trkpt>
      <trkpt lat="47.99586" lon="-3.87069">
        <ele>118.2</ele>
        <time>2023-04-05T09:26:28Z</time>
      </trkpt>
      <trkpt lat="47.99585" lon="-3.87078">
        <ele>118.3</ele>
        <time>2023-04-05T09:26:29Z</time>
      </trkpt>
      <trkpt lat="47.99585" lon="-3.87086">
        <ele>118.3</ele>
        <time>2023-04-05T09:26:30Z</time>
      </trkpt>
      <trkpt lat="47.99585" lon="-3.87094">
        <ele>118.4</ele>
        <time>2023-04-05T09:26:31Z</time>
      </trkpt>
      <trkpt lat="47.99584" lon="-3.87101">
        <ele>118.5</ele>
        <time>2023-04-05T09:26:32Z</time>
      </trkpt>
      <trkpt lat="47.99584" lon="-3.87109">
        <ele>118.6</ele>
        <time>2023-04-05T09:26:33Z</time>
      </trkpt>
      <trkpt lat="47.99583" lon="-3.87117">
        <ele>118.7</ele>
        <time>2023-04-05T09:26:34Z</time>
      </trkpt>
      <trkpt lat="47.99583" lon="-3.87125">
        <ele>118.7</ele>
        <time>2023-04-05T09:26:35Z</time>
      </trkpt>
      <trkpt lat="47.99582" lon="-3.87133">
        <ele>118.8</ele>
        <time>2023-04-05T09:26:36Z</time>
      </trkpt>
      <trkpt lat="47.99582" lon="-3.8714">
        <ele>118.9</ele>
        <time>2023-04-05T09:26:37Z</time>
      </trkpt>
      <trkpt lat="47.99582" lon="-3.87148">
        <ele>118.9</ele>
        <time>2023-04-05T09:26:38Z</time>
      </trkpt>
      <trkpt lat="47.99581" lon="-3.87155">
        <ele>119</ele>
        <time>2023-04-05T09:26:39Z</time>
      </trkpt>
      <trkpt lat="47.99581" lon="-3.87162">
        <ele>119</ele>
        <time>2023-04-05T09:26:40Z</time>
      </trkpt>
      <trkpt lat="47.9958" lon="-3.87169">
        <ele>119</ele>
        <time>2023-04-05T09:26:41Z</time>
      </trkpt>
      <trkpt lat="47.99579" lon="-3.87176">
        <ele>119</ele>
        <time>2023-04-05T09:26:42Z</time>
      </trkpt>
      <trkpt lat="47.99579" lon="-3.87183">
        <ele>119</ele>
        <time>2023-04-05T09:26:43Z</time>
      </trkpt>
      <trkpt lat="47.99578" lon="-3.87191">
        <ele>119.1</ele>
        <time>2023-04-05T09:26:44Z</time>
      </trkpt>
      <trkpt lat="47.99577" lon="-3.87198">
        <ele>119</ele>
        <time>2023-04-05T09:26:45Z</time>
      </trkpt>
      <trkpt lat="47.99577" lon="-3.87205">
        <ele>119</ele>
        <time>2023-04-05T09:26:46Z</time>
      </trkpt>
      <trkpt lat="47.99576" lon="-3.87212">
        <ele>119</ele>
        <time>2023-04-05T09:26:47Z</time>
      </trkpt>
      <trkpt lat="47.99576" lon="-3.8722">
        <ele>119</ele>
        <time>2023-04-05T09:26:48Z</time>
      </trkpt>
      <trkpt lat="47.99575" lon="-3.87227">
        <ele>118.9</ele>
        <time>2023-04-05T09:26:49Z</time>
      </trkpt>
      <trkpt lat="47.99574" lon="-3.87234">
        <ele>118.9</ele>
        <time>2023-04-05T09:26:50Z</time>
      </trkpt>
      <trkpt lat="47.99573" lon="-3.87242">
        <ele>118.8</ele>
        <time>2023-04-05T09:26:51Z</time>
      </trkpt>
      <trkpt lat="47.99573" lon="-3.87249">
        <ele>118.7</ele>
        <time>2023-04-05T09:26:52Z</time>
      </trkpt>
      <trkpt lat="47.99572" lon="-3.87256">
        <ele>118.6</ele>
        <time>2023-04-05T09:26:53Z</time>
      </trkpt>
      <trkpt lat="47.9957" lon="-3.87264">
        <ele>118.5</ele>
        <time>2023-04-05T09:26:54Z</time>
      </trkpt>
      <trkpt lat="47.99569" lon="-3.87272">
        <ele>118.4</ele>
        <time>2023-04-05T09:26:55Z</time>
      </trkpt>
      <trkpt lat="47.99567" lon="-3.87279">
        <ele>118.3</ele>
        <time>2023-04-05T09:26:56Z</time>
      </trkpt>
      <trkpt lat="47.99566" lon="-3.87287">
        <ele>118.2</ele>
        <time>2023-04-05T09:26:57Z</time>
      </trkpt>
      <trkpt lat="47.99564" lon="-3.87295">
        <ele>118.1</ele>
        <time>2023-04-05T09:26:58Z</time>
      </trkpt>
      <trkpt lat="47.99562" lon="-3.87304">
        <ele>117.9</ele>
        <time>2023-04-05T09:26:59Z</time>
      </trkpt>
      <trkpt lat="47.9956" lon="-3.87312">
        <ele>117.8</ele>
        <time>2023-04-05T09:27:00Z</time>
      </trkpt>
      <trkpt lat="47.99558" lon="-3.87321">
        <ele>117.7</ele>
        <time>2023-04-05T09:27:01Z</time>
      </trkpt>
      <trkpt lat="47.99556" lon="-3.87329">
        <ele>117.5</ele>
        <time>2023-04-05T09:27:02Z</time>
      </trkpt>
      <trkpt lat="47.99554" lon="-3.87338">
        <ele>117.3</ele>
        <time>2023-04-05T09:27:03Z</time>
      </trkpt>
      <trkpt lat="47.99552" lon="-3.87347">
        <ele>117.2</ele>
        <time>2023-04-05T09:27:04Z</time>
      </trkpt>
      <trkpt lat="47.99549" lon="-3.87356">
        <ele>117</ele>
        <time>2023-04-05T09:27:05Z</time>
      </trkpt>
      <trkpt lat="47.99547" lon="-3.87366">
        <ele>116.9</ele>
        <time>2023-04-05T09:27:06Z</time>
      </trkpt>
      <trkpt lat="47.99545" lon="-3.87376">
        <ele>116.7</ele>
        <time>2023-04-05T09:27:07Z</time>
      </trkpt>
      <trkpt lat="47.99542" lon="-3.87385">
        <ele>116.5</ele>
        <time>2023-04-05T09:27:08Z</time>
      </trkpt>
      <trkpt lat="47.9954" lon="-3.87395">
        <ele>116.3</ele>
        <time>2023-04-05T09:27:09Z</time>
      </trkpt>
      <trkpt lat="47.99537" lon="-3.87406">
        <ele>116.1</ele>
        <time>2023-04-05T09:27:10Z</time>
      </trkpt>
      <trkpt lat="47.99535" lon="-3.87416">
        <ele>115.9</ele>
        <time>2023-04-05T09:27:11Z</time>
      </trkpt>
      <trkpt lat="47.99533" lon="-3.87426">
        <ele>115.6</ele>
        <time>2023-04-05T09:27:12Z</time>
      </trkpt>
      <trkpt lat="47.9953" lon="-3.87435">
        <ele>115.4</ele>
        <time>2023-04-05T09:27:13Z</time>
      </trkpt>
      <trkpt lat="47.99528" lon="-3.87445">
        <ele>115.3</ele>
        <time>2023-04-05T09:27:14Z</time>
      </trkpt>
      <trkpt lat="47.99525" lon="-3.87455">
        <ele>115.1</ele>
        <time>2023-04-05T09:27:15Z</time>
      </trkpt>
      <trkpt lat="47.99522" lon="-3.87464">
        <ele>115</ele>
        <time>2023-04-05T09:27:16Z</time>
      </trkpt>
      <trkpt lat="47.9952" lon="-3.87474">
        <ele>114.9</ele>
        <time>2023-04-05T09:27:17Z</time>
      </trkpt>
      <trkpt lat="47.99517" lon="-3.87484">
        <ele>114.8</ele>
        <time>2023-04-05T09:27:18Z</time>
      </trkpt>
      <trkpt lat="47.99515" lon="-3.87494">
        <ele>114.8</ele>
        <time>2023-04-05T09:27:19Z</time>
      </trkpt>
      <trkpt lat="47.99513" lon="-3.87503">
        <ele>114.8</ele>
        <time>2023-04-05T09:27:20Z</time>
      </trkpt>
      <trkpt lat="47.9951" lon="-3.87513">
        <ele>114.7</ele>
        <time>2023-04-05T09:27:21Z</time>
      </trkpt>
      <trkpt lat="47.99508" lon="-3.87522">
        <ele>114.7</ele>
        <time>2023-04-05T09:27:22Z</time>
      </trkpt>
      <trkpt lat="47.99506" lon="-3.87531">
        <ele>114.8</ele>
        <time>2023-04-05T09:27:23Z</time>
      </trkpt>
      <trkpt lat="47.99504" lon="-3.87539">
        <ele>114.8</ele>
        <time>2023-04-05T09:27:24Z</time>
      </trkpt>
      <trkpt lat="47.99502" lon="-3.87548">
        <ele>114.8</ele>
        <time>2023-04-05T09:27:25Z</time>
      </trkpt>
      <trkpt lat="47.99501" lon="-3.87557">
        <ele>114.9</ele>
        <time>2023-04-05T09:27:26Z</time>
      </trkpt>
      <trkpt lat="47.99499" lon="-3.87565">
        <ele>115</ele>
        <time>2023-04-05T09:27:27Z</time>
      </trkpt>
      <trkpt lat="47.99497" lon="-3.87574">
        <ele>115.1</ele>
        <time>2023-04-05T09:27:28Z</time>
      </trkpt>
      <trkpt lat="47.99495" lon="-3.87582">
        <ele>115.2</ele>
        <time>2023-04-05T09:27:29Z</time>
      </trkpt>
      <trkpt lat="47.99493" lon="-3.8759">
        <ele>115.4</ele>
        <time>2023-04-05T09:27:30Z</time>
      </trkpt>
      <trkpt lat="47.99491" lon="-3.87597">
        <ele>115.5</ele>
        <time>2023-04-05T09:27:31Z</time>
      </trkpt>
      <trkpt lat="47.99489" lon="-3.87605">
        <ele>115.6</ele>
        <time>2023-04-05T09:27:32Z</time>
      </trkpt>
      <trkpt lat="47.99487" lon="-3.87613">
        <ele>115.8</ele>
        <time>2023-04-05T09:27:33Z</time>
      </trkpt>
      <trkpt lat="47.99485" lon="-3.8762">
        <ele>115.9</ele>
        <time>2023-04-05T09:27:34Z</time>
      </trkpt>
      <trkpt lat="47.99483" lon="-3.87628">
        <ele>116</ele>
        <time>2023-04-05T09:27:35Z</time>
      </trkpt>
      <trkpt lat="47.99482" lon="-3.87635">
        <ele>116.1</ele>
        <time>2023-04-05T09:27:36Z</time>
      </trkpt>
      <trkpt lat="47.9948" lon="-3.87643">
        <ele>116.3</ele>
        <time>2023-04-05T09:27:37Z</time>
      </trkpt>
      <trkpt lat="47.99478" lon="-3.8765">
        <ele>116.4</ele>
        <time>2023-04-05T09:27:38Z</time>
      </trkpt>
      <trkpt lat="47.99477" lon="-3.87657">
        <ele>116.5</ele>
        <time>2023-04-05T09:27:39Z</time>
      </trkpt>
      <trkpt lat="47.99475" lon="-3.87664">
        <ele>116.6</ele>
        <time>2023-04-05T09:27:40Z</time>
      </trkpt>
      <trkpt lat="47.99474" lon="-3.87672">
        <ele>116.8</ele>
        <time>2023-04-05T09:27:41Z</time>
      </trkpt>
      <trkpt lat="47.99472" lon="-3.87679">
        <ele>116.9</ele>
        <time>2023-04-05T09:27:42Z</time>
      </trkpt>
      <trkpt lat="47.9947" lon="-3.87686">
        <ele>117</ele>
        <time>2023-04-05T09:27:43Z</time>
      </trkpt>
      <trkpt lat="47.99469" lon="-3.87693">
        <ele>117</ele>
        <time>2023-04-05T09:27:44Z</time>
      </trkpt>
      <trkpt lat="47.99467" lon="-3.877">
        <ele>117.1</ele>
        <time>2023-04-05T09:27:45Z</time>
      </trkpt>
      <trkpt lat="47.99466" lon="-3.87707">
        <ele>117.2</ele>
        <time>2023-04-05T09:27:46Z</time>
      </trkpt>
      <trkpt lat="47.99465" lon="-3.87715">
        <ele>117.2</ele>
        <time>2023-04-05T09:27:47Z</time>
      </trkpt>
      <trkpt lat="47.99463" lon="-3.87722">
        <ele>117.3</ele>
        <time>2023-04-05T09:27:48Z</time>
      </trkpt>
      <trkpt lat="47.99462" lon="-3.87729">
        <ele>117.4</ele>
        <time>2023-04-05T09:27:49Z</time>
      </trkpt>
      <trkpt lat="47.9946" lon="-3.87736">
        <ele>117.4</ele>
        <time>2023-04-05T09:27:50Z</time>
      </trkpt>
      <trkpt lat="47.99459" lon="-3.87743">
        <ele>117.5</ele>
        <time>2023-04-05T09:27:51Z</time>
      </trkpt>
      <trkpt lat="47.99457" lon="-3.8775">
        <ele>117.5</ele>
        <time>2023-04-05T09:27:52Z</time>
      </trkpt>
      <trkpt lat="47.99456" lon="-3.87758">
        <ele>117.6</ele>
        <time>2023-04-05T09:27:53Z</time>
      </trkpt>
      <trkpt lat="47.99454" lon="-3.87765">
        <ele>117.6</ele>
        <time>2023-04-05T09:27:54Z</time>
      </trkpt>
      <trkpt lat="47.99452" lon="-3.87772">
        <ele>117.6</ele>
        <time>2023-04-05T09:27:55Z</time>
      </trkpt>
      <trkpt lat="47.99451" lon="-3.87779">
        <ele>117.6</ele>
        <time>2023-04-05T09:27:56Z</time>
      </trkpt>
      <trkpt lat="47.99449" lon="-3.87786">
        <ele>117.6</ele>
        <time>2023-04-05T09:27:57Z</time>
      </trkpt>
      <trkpt lat="47.99447" lon="-3.87793">
        <ele>117.6</ele>
        <time>2023-04-05T09:27:58Z</time>
      </trkpt>
      <trkpt lat="47.99445" lon="-3.878">
        <ele>117.6</ele>
        <time>2023-04-05T09:27:59Z</time>
      </trkpt>
      <trkpt lat="47.99443" lon="-3.87807">
        <ele>117.6</ele>
        <time>2023-04-05T09:28:00Z</time>
      </trkpt>
      <trkpt lat="47.99441" lon="-3.87815">
        <ele>117.6</ele>
        <time>2023-04-05T09:28:01Z</time>
      </trkpt>
      <trkpt lat="47.9944" lon="-3.87822">
        <ele>117.6</ele>
        <time>2023-04-05T09:28:02Z</time>
      </trkpt>
      <trkpt lat="47.99439" lon="-3.87829">
        <ele>117.6</ele>
        <time>2023-04-05T09:28:03Z</time>
      </trkpt>
      <trkpt lat="47.99439" lon="-3.87838">
        <ele>117.6</ele>
        <time>2023-04-05T09:28:04Z</time>
      </trkpt>
      <trkpt lat="47.99439" lon="-3.87846">
        <ele>117.5</ele>
        <time>2023-04-05T09:28:05Z</time>
      </trkpt>
      <trkpt lat="47.99439" lon="-3.87854">
        <ele>117.4</ele>
        <time>2023-04-05T09:28:06Z</time>
      </trkpt>
      <trkpt lat="47.99439" lon="-3.87863">
        <ele>117.3</ele>
        <time>2023-04-05T09:28:07Z</time>
      </trkpt>
      <trkpt lat="47.9944" lon="-3.87872">
        <ele>117.2</ele>
        <time>2023-04-05T09:28:08Z</time>
      </trkpt>
      <trkpt lat="47.9944" lon="-3.87881">
        <ele>117.1</ele>
        <time>2023-04-05T09:28:09Z</time>
      </trkpt>
      <trkpt lat="47.99439" lon="-3.8789">
        <ele>117</ele>
        <time>2023-04-05T09:28:10Z</time>
      </trkpt>
      <trkpt lat="47.99438" lon="-3.87899">
        <ele>116.9</ele>
        <time>2023-04-05T09:28:11Z</time>
      </trkpt>
      <trkpt lat="47.99437" lon="-3.87909">
        <ele>116.9</ele>
        <time>2023-04-05T09:28:12Z</time>
      </trkpt>
      <trkpt lat="47.99436" lon="-3.87918">
        <ele>116.8</ele>
        <time>2023-04-05T09:28:13Z</time>
      </trkpt>
      <trkpt lat="47.99435" lon="-3.87927">
        <ele>116.8</ele>
        <time>2023-04-05T09:28:14Z</time>
      </trkpt>
      <trkpt lat="47.99433" lon="-3.87936">
        <ele>116.8</ele>
        <time>2023-04-05T09:28:15Z</time>
      </trkpt>
      <trkpt lat="47.99432" lon="-3.87945">
        <ele>116.8</ele>
        <time>2023-04-05T09:28:16Z</time>
      </trkpt>
      <trkpt lat="47.99431" lon="-3.87953">
        <ele>116.8</ele>
        <time>2023-04-05T09:28:17Z</time>
      </trkpt>
      <trkpt lat="47.99429" lon="-3.87962">
        <ele>116.9</ele>
        <time>2023-04-05T09:28:18Z</time>
      </trkpt>
      <trkpt lat="47.99428" lon="-3.87971">
        <ele>117</ele>
        <time>2023-04-05T09:28:19Z</time>
      </trkpt>
      <trkpt lat="47.99427" lon="-3.8798">
        <ele>117</ele>
        <time>2023-04-05T09:28:20Z</time>
      </trkpt>
      <trkpt lat="47.99425" lon="-3.87988">
        <ele>117.1</ele>
        <time>2023-04-05T09:28:21Z</time>
      </trkpt>
      <trkpt lat="47.99424" lon="-3.87997">
        <ele>117.2</ele>
        <time>2023-04-05T09:28:22Z</time>
      </trkpt>
      <trkpt lat="47.99423" lon="-3.88006">
        <ele>117.4</ele>
        <time>2023-04-05T09:28:23Z</time>
      </trkpt>
      <trkpt lat="47.99421" lon="-3.88014">
        <ele>117.6</ele>
        <time>2023-04-05T09:28:24Z</time>
      </trkpt>
      <trkpt lat="47.9942" lon="-3.88022">
        <ele>117.7</ele>
        <time>2023-04-05T09:28:25Z</time>
      </trkpt>
      <trkpt lat="47.99418" lon="-3.8803">
        <ele>117.9</ele>
        <time>2023-04-05T09:28:26Z</time>
      </trkpt>
      <trkpt lat="47.99416" lon="-3.88037">
        <ele>118.1</ele>
        <time>2023-04-05T09:28:27Z</time>
      </trkpt>
      <trkpt lat="47.99415" lon="-3.88044">
        <ele>118.3</ele>
        <time>2023-04-05T09:28:28Z</time>
      </trkpt>
      <trkpt lat="47.99413" lon="-3.88053">
        <ele>118.6</ele>
        <time>2023-04-05T09:28:29Z</time>
      </trkpt>
      <trkpt lat="47.99411" lon="-3.8806">
        <ele>118.8</ele>
        <time>2023-04-05T09:28:30Z</time>
      </trkpt>
      <trkpt lat="47.99409" lon="-3.88067">
        <ele>119</ele>
        <time>2023-04-05T09:28:31Z</time>
      </trkpt>
      <trkpt lat="47.99407" lon="-3.88074">
        <ele>119.2</ele>
        <time>2023-04-05T09:28:32Z</time>
      </trkpt>
      <trkpt lat="47.99405" lon="-3.88082">
        <ele>119.5</ele>
        <time>2023-04-05T09:28:33Z</time>
      </trkpt>
      <trkpt lat="47.99403" lon="-3.88089">
        <ele>119.6</ele>
        <time>2023-04-05T09:28:34Z</time>
      </trkpt>
      <trkpt lat="47.99402" lon="-3.88096">
        <ele>119.8</ele>
        <time>2023-04-05T09:28:35Z</time>
      </trkpt>
      <trkpt lat="47.994" lon="-3.88104">
        <ele>120</ele>
        <time>2023-04-05T09:28:36Z</time>
      </trkpt>
      <trkpt lat="47.99399" lon="-3.88111">
        <ele>120.2</ele>
        <time>2023-04-05T09:28:37Z</time>
      </trkpt>
      <trkpt lat="47.99398" lon="-3.88118">
        <ele>120.4</ele>
        <time>2023-04-05T09:28:38Z</time>
      </trkpt>
      <trkpt lat="47.99396" lon="-3.88125">
        <ele>120.6</ele>
        <time>2023-04-05T09:28:39Z</time>
      </trkpt>
      <trkpt lat="47.99395" lon="-3.88133">
        <ele>120.7</ele>
        <time>2023-04-05T09:28:40Z</time>
      </trkpt>
      <trkpt lat="47.99395" lon="-3.88141">
        <ele>120.8</ele>
        <time>2023-04-05T09:28:41Z</time>
      </trkpt>
      <trkpt lat="47.99395" lon="-3.88148">
        <ele>120.9</ele>
        <time>2023-04-05T09:28:42Z</time>
      </trkpt>
      <trkpt lat="47.99394" lon="-3.88156">
        <ele>120.9</ele>
        <time>2023-04-05T09:28:43Z</time>
      </trkpt>
      <trkpt lat="47.99394" lon="-3.88163">
        <ele>120.9</ele>
        <time>2023-04-05T09:28:44Z</time>
      </trkpt>
      <trkpt lat="47.99395" lon="-3.88171">
        <ele>120.9</ele>
        <time>2023-04-05T09:28:45Z</time>
      </trkpt>
      <trkpt lat="47.99395" lon="-3.88179">
        <ele>120.9</ele>
        <time>2023-04-05T09:28:46Z</time>
      </trkpt>
      <trkpt lat="47.99395" lon="-3.88186">
        <ele>120.9</ele>
        <time>2023-04-05T09:28:47Z</time>
      </trkpt>
      <trkpt lat="47.99396" lon="-3.88194">
        <ele>120.8</ele>
        <time>2023-04-05T09:28:48Z</time>
      </trkpt>
      <trkpt lat="47.99396" lon="-3.88202">
        <ele>120.8</ele>
        <time>2023-04-05T09:28:49Z</time>
      </trkpt>
      <trkpt lat="47.99397" lon="-3.88211">
        <ele>120.8</ele>
        <time>2023-04-05T09:28:50Z</time>
      </trkpt>
      <trkpt lat="47.99397" lon="-3.88219">
        <ele>120.8</ele>
        <time>2023-04-05T09:28:51Z</time>
      </trkpt>
      <trkpt lat="47.99397" lon="-3.88227">
        <ele>120.8</ele>
        <time>2023-04-05T09:28:52Z</time>
      </trkpt>
      <trkpt lat="47.99397" lon="-3.88235">
        <ele>120.8</ele>
        <time>2023-04-05T09:28:53Z</time>
      </trkpt>
      <trkpt lat="47.99398" lon="-3.88243">
        <ele>120.8</ele>
        <time>2023-04-05T09:28:54Z</time>
      </trkpt>
      <trkpt lat="47.99398" lon="-3.8825">
        <ele>120.8</ele>
        <time>2023-04-05T09:28:55Z</time>
      </trkpt>
      <trkpt lat="47.99399" lon="-3.88258">
        <ele>120.7</ele>
        <time>2023-04-05T09:28:56Z</time>
      </trkpt>
      <trkpt lat="47.99399" lon="-3.88266">
        <ele>120.7</ele>
        <time>2023-04-05T09:28:57Z</time>
      </trkpt>
      <trkpt lat="47.994" lon="-3.88274">
        <ele>120.7</ele>
        <time>2023-04-05T09:28:58Z</time>
      </trkpt>
      <trkpt lat="47.994" lon="-3.88282">
        <ele>120.6</ele>
        <time>2023-04-05T09:28:59Z</time>
      </trkpt>
      <trkpt lat="47.99401" lon="-3.8829">
        <ele>120.6</ele>
        <time>2023-04-05T09:29:00Z</time>
      </trkpt>
      <trkpt lat="47.99401" lon="-3.88297">
        <ele>120.5</ele>
        <time>2023-04-05T09:29:01Z</time>
      </trkpt>
      <trkpt lat="47.99402" lon="-3.88305">
        <ele>120.5</ele>
        <time>2023-04-05T09:29:02Z</time>
      </trkpt>
      <trkpt lat="47.99402" lon="-3.88313">
        <ele>120.4</ele>
        <time>2023-04-05T09:29:03Z</time>
      </trkpt>
      <trkpt lat="47.99403" lon="-3.88321">
        <ele>120.4</ele>
        <time>2023-04-05T09:29:04Z</time>
      </trkpt>
      <trkpt lat="47.99404" lon="-3.88329">
        <ele>120.3</ele>
        <time>2023-04-05T09:29:05Z</time>
      </trkpt>
      <trkpt lat="47.99404" lon="-3.88337">
        <ele>120.2</ele>
        <time>2023-04-05T09:29:06Z</time>
      </trkpt>
      <trkpt lat="47.99405" lon="-3.88346">
        <ele>120.2</ele>
        <time>2023-04-05T09:29:07Z</time>
      </trkpt>
      <trkpt lat="47.99406" lon="-3.88354">
        <ele>120.1</ele>
        <time>2023-04-05T09:29:08Z</time>
      </trkpt>
      <trkpt lat="47.99406" lon="-3.88363">
        <ele>120</ele>
        <time>2023-04-05T09:29:09Z</time>
      </trkpt>
      <trkpt lat="47.99407" lon="-3.88372">
        <ele>119.9</ele>
        <time>2023-04-05T09:29:10Z</time>
      </trkpt>
      <trkpt lat="47.99407" lon="-3.88381">
        <ele>119.8</ele>
        <time>2023-04-05T09:29:11Z</time>
      </trkpt>
      <trkpt lat="47.99408" lon="-3.88389">
        <ele>119.7</ele>
        <time>2023-04-05T09:29:12Z</time>
      </trkpt>
      <trkpt lat="47.99409" lon="-3.88399">
        <ele>119.5</ele>
        <time>2023-04-05T09:29:13Z</time>
      </trkpt>
      <trkpt lat="47.9941" lon="-3.88408">
        <ele>119.4</ele>
        <time>2023-04-05T09:29:14Z</time>
      </trkpt>
      <trkpt lat="47.9941" lon="-3.88417">
        <ele>119.4</ele>
        <time>2023-04-05T09:29:15Z</time>
      </trkpt>
      <trkpt lat="47.99411" lon="-3.88426">
        <ele>119.3</ele>
        <time>2023-04-05T09:29:16Z</time>
      </trkpt>
      <trkpt lat="47.99411" lon="-3.88435">
        <ele>119.2</ele>
        <time>2023-04-05T09:29:17Z</time>
      </trkpt>
      <trkpt lat="47.99412" lon="-3.88445">
        <ele>119.1</ele>
        <time>2023-04-05T09:29:18Z</time>
      </trkpt>
      <trkpt lat="47.99412" lon="-3.88454">
        <ele>119</ele>
        <time>2023-04-05T09:29:19Z</time>
      </trkpt>
      <trkpt lat="47.99414" lon="-3.88463">
        <ele>118.9</ele>
        <time>2023-04-05T09:29:20Z</time>
      </trkpt>
      <trkpt lat="47.99417" lon="-3.88472">
        <ele>118.9</ele>
        <time>2023-04-05T09:29:21Z</time>
      </trkpt>
      <trkpt lat="47.99422" lon="-3.88477">
        <ele>119.1</ele>
        <time>2023-04-05T09:29:22Z</time>
      </trkpt>
      <trkpt lat="47.99428" lon="-3.88479">
        <ele>119.3</ele>
        <time>2023-04-05T09:29:23Z</time>
      </trkpt>
      <trkpt lat="47.99433" lon="-3.88479">
        <ele>119.5</ele>
        <time>2023-04-05T09:29:24Z</time>
      </trkpt>
      <trkpt lat="47.99437" lon="-3.88478">
        <ele>119.7</ele>
        <time>2023-04-05T09:29:25Z</time>
      </trkpt>
      <trkpt lat="47.99441" lon="-3.88477">
        <ele>119.9</ele>
        <time>2023-04-05T09:29:26Z</time>
      </trkpt>
      <trkpt lat="47.99446" lon="-3.88475">
        <ele>120.1</ele>
        <time>2023-04-05T09:29:27Z</time>
      </trkpt>
      <trkpt lat="47.99449" lon="-3.88474">
        <ele>120.3</ele>
        <time>2023-04-05T09:29:28Z</time>
      </trkpt>
      <trkpt lat="47.99454" lon="-3.88473">
        <ele>120.4</ele>
        <time>2023-04-05T09:29:29Z</time>
      </trkpt>
      <trkpt lat="47.99459" lon="-3.88472">
        <ele>120.5</ele>
        <time>2023-04-05T09:29:30Z</time>
      </trkpt>
      <trkpt lat="47.99463" lon="-3.88471">
        <ele>120.5</ele>
        <time>2023-04-05T09:29:31Z</time>
      </trkpt>
      <trkpt lat="47.99468" lon="-3.8847">
        <ele>120.5</ele>
        <time>2023-04-05T09:29:32Z</time>
      </trkpt>
      <trkpt lat="47.99473" lon="-3.88469">
        <ele>120.5</ele>
        <time>2023-04-05T09:29:33Z</time>
      </trkpt>
      <trkpt lat="47.99478" lon="-3.88468">
        <ele>120.5</ele>
        <time>2023-04-05T09:29:34Z</time>
      </trkpt>
      <trkpt lat="47.99483" lon="-3.88467">
        <ele>120.5</ele>
        <time>2023-04-05T09:29:35Z</time>
      </trkpt>
      <trkpt lat="47.99488" lon="-3.88466">
        <ele>120.5</ele>
        <time>2023-04-05T09:29:36Z</time>
      </trkpt>
      <trkpt lat="47.99494" lon="-3.88465">
        <ele>120.3</ele>
        <time>2023-04-05T09:29:37Z</time>
      </trkpt>
      <trkpt lat="47.995" lon="-3.88466">
        <ele>120.2</ele>
        <time>2023-04-05T09:29:38Z</time>
      </trkpt>
      <trkpt lat="47.99507" lon="-3.88466">
        <ele>120</ele>
        <time>2023-04-05T09:29:39Z</time>
      </trkpt>
      <trkpt lat="47.99514" lon="-3.88466">
        <ele>119.7</ele>
        <time>2023-04-05T09:29:40Z</time>
      </trkpt>
      <trkpt lat="47.99521" lon="-3.88465">
        <ele>119.5</ele>
        <time>2023-04-05T09:29:41Z</time>
      </trkpt>
      <trkpt lat="47.99528" lon="-3.88467">
        <ele>119.3</ele>
        <time>2023-04-05T09:29:42Z</time>
      </trkpt>
      <trkpt lat="47.99536" lon="-3.88469">
        <ele>119.1</ele>
        <time>2023-04-05T09:29:43Z</time>
      </trkpt>
      <trkpt lat="47.99544" lon="-3.88473">
        <ele>118.7</ele>
        <time>2023-04-05T09:29:44Z</time>
      </trkpt>
      <trkpt lat="47.99552" lon="-3.88476">
        <ele>118.3</ele>
        <time>2023-04-05T09:29:45Z</time>
      </trkpt>
      <trkpt lat="47.9956" lon="-3.88479">
        <ele>117.8</ele>
        <time>2023-04-05T09:29:46Z</time>
      </trkpt>
      <trkpt lat="47.99569" lon="-3.88481">
        <ele>117.5</ele>
        <time>2023-04-05T09:29:47Z</time>
      </trkpt>
      <trkpt lat="47.99577" lon="-3.88484">
        <ele>117.1</ele>
        <time>2023-04-05T09:29:48Z</time>
      </trkpt>
      <trkpt lat="47.99585" lon="-3.88487">
        <ele>116.8</ele>
        <time>2023-04-05T09:29:49Z</time>
      </trkpt>
      <trkpt lat="47.99594" lon="-3.8849">
        <ele>116.5</ele>
        <time>2023-04-05T09:29:50Z</time>
      </trkpt>
      <trkpt lat="47.99602" lon="-3.88492">
        <ele>116.3</ele>
        <time>2023-04-05T09:29:51Z</time>
      </trkpt>
      <trkpt lat="47.99611" lon="-3.88495">
        <ele>116.1</ele>
        <time>2023-04-05T09:29:52Z</time>
      </trkpt>
      <trkpt lat="47.99619" lon="-3.88498">
        <ele>115.8</ele>
        <time>2023-04-05T09:29:53Z</time>
      </trkpt>
      <trkpt lat="47.99627" lon="-3.88501">
        <ele>115.6</ele>
        <time>2023-04-05T09:29:54Z</time>
      </trkpt>
      <trkpt lat="47.99635" lon="-3.88504">
        <ele>115.4</ele>
        <time>2023-04-05T09:29:55Z</time>
      </trkpt>
      <trkpt lat="47.99644" lon="-3.88507">
        <ele>115.2</ele>
        <time>2023-04-05T09:29:56Z</time>
      </trkpt>
      <trkpt lat="47.99652" lon="-3.88511">
        <ele>115</ele>
        <time>2023-04-05T09:29:57Z</time>
      </trkpt>
      <trkpt lat="47.9966" lon="-3.88514">
        <ele>114.7</ele>
        <time>2023-04-05T09:29:58Z</time>
      </trkpt>
      <trkpt lat="47.99668" lon="-3.88518">
        <ele>114.4</ele>
        <time>2023-04-05T09:29:59Z</time>
      </trkpt>
      <trkpt lat="47.99676" lon="-3.88521">
        <ele>114.1</ele>
        <time>2023-04-05T09:30:00Z</time>
      </trkpt>
      <trkpt lat="47.99684" lon="-3.88524">
        <ele>113.8</ele>
        <time>2023-04-05T09:30:01Z</time>
      </trkpt>
      <trkpt lat="47.99691" lon="-3.88526">
        <ele>113.4</ele>
        <time>2023-04-05T09:30:02Z</time>
      </trkpt>
      <trkpt lat="47.99698" lon="-3.88529">
        <ele>113.1</ele>
        <time>2023-04-05T09:30:03Z</time>
      </trkpt>
      <trkpt lat="47.99704" lon="-3.88531">
        <ele>112.7</ele>
        <time>2023-04-05T09:30:04Z</time>
      </trkpt>
      <trkpt lat="47.9971" lon="-3.88533">
        <ele>112.2</ele>
        <time>2023-04-05T09:30:05Z</time>
      </trkpt>
      <trkpt lat="47.99716" lon="-3.88534">
        <ele>111.2</ele>
        <time>2023-04-05T09:30:06Z</time>
      </trkpt>
      <trkpt lat="47.99723" lon="-3.88536">
        <ele>109.4</ele>
        <time>2023-04-05T09:30:07Z</time>
      </trkpt>
      <trkpt lat="47.9973" lon="-3.88538">
        <ele>107.2</ele>
        <time>2023-04-05T09:30:08Z</time>
      </trkpt>
      <trkpt lat="47.99739" lon="-3.88537">
        <ele>104.9</ele>
        <time>2023-04-05T09:30:09Z</time>
      </trkpt>
      <trkpt lat="47.99748" lon="-3.88535">
        <ele>103.9</ele>
        <time>2023-04-05T09:30:10Z</time>
      </trkpt>
      <trkpt lat="47.99758" lon="-3.88532">
        <ele>102.8</ele>
        <time>2023-04-05T09:30:11Z</time>
      </trkpt>
      <trkpt lat="47.99768" lon="-3.88529">
        <ele>101.5</ele>
        <time>2023-04-05T09:30:12Z</time>
      </trkpt>
      <trkpt lat="47.9978" lon="-3.88525">
        <ele>100</ele>
        <time>2023-04-05T09:30:13Z</time>
      </trkpt>
      <trkpt lat="47.99791" lon="-3.88521">
        <ele>98.5</ele>
        <time>2023-04-05T09:30:14Z</time>
      </trkpt>
      <trkpt lat="47.99803" lon="-3.88517">
        <ele>96.7</ele>
        <time>2023-04-05T09:30:15Z</time>
      </trkpt>
      <trkpt lat="47.99815" lon="-3.88513">
        <ele>95.1</ele>
        <time>2023-04-05T09:30:16Z</time>
      </trkpt>
      <trkpt lat="47.99827" lon="-3.8851">
        <ele>93.8</ele>
        <time>2023-04-05T09:30:17Z</time>
      </trkpt>
      <trkpt lat="47.9984" lon="-3.8851">
        <ele>92.8</ele>
        <time>2023-04-05T09:30:18Z</time>
      </trkpt>
      <trkpt lat="47.99853" lon="-3.88515">
        <ele>91.8</ele>
        <time>2023-04-05T09:30:19Z</time>
      </trkpt>
      <trkpt lat="47.99865" lon="-3.88522">
        <ele>91</ele>
        <time>2023-04-05T09:30:20Z</time>
      </trkpt>
      <trkpt lat="47.99877" lon="-3.88531">
        <ele>90.6</ele>
        <time>2023-04-05T09:30:21Z</time>
      </trkpt>
      <trkpt lat="47.99889" lon="-3.88538">
        <ele>90.5</ele>
        <time>2023-04-05T09:30:22Z</time>
      </trkpt>
      <trkpt lat="47.99902" lon="-3.88544">
        <ele>90.5</ele>
        <time>2023-04-05T09:30:23Z</time>
      </trkpt>
      <trkpt lat="47.99914" lon="-3.88547">
        <ele>90.8</ele>
        <time>2023-04-05T09:30:24Z</time>
      </trkpt>
      <trkpt lat="47.99925" lon="-3.8855">
        <ele>91.2</ele>
        <time>2023-04-05T09:30:25Z</time>
      </trkpt>
      <trkpt lat="47.99937" lon="-3.88551">
        <ele>91.2</ele>
        <time>2023-04-05T09:30:26Z</time>
      </trkpt>
      <trkpt lat="47.99947" lon="-3.88551">
        <ele>91.5</ele>
        <time>2023-04-05T09:30:27Z</time>
      </trkpt>
      <trkpt lat="47.99957" lon="-3.88551">
        <ele>92</ele>
        <time>2023-04-05T09:30:28Z</time>
      </trkpt>
      <trkpt lat="47.99967" lon="-3.88551">
        <ele>92.4</ele>
        <time>2023-04-05T09:30:29Z</time>
      </trkpt>
      <trkpt lat="47.99975" lon="-3.88551">
        <ele>92.9</ele>
        <time>2023-04-05T09:30:30Z</time>
      </trkpt>
      <trkpt lat="47.99983" lon="-3.88551">
        <ele>93.4</ele>
        <time>2023-04-05T09:30:31Z</time>
      </trkpt>
      <trkpt lat="47.9999" lon="-3.88551">
        <ele>93.8</ele>
        <time>2023-04-05T09:30:32Z</time>
      </trkpt>
      <trkpt lat="47.99997" lon="-3.88551">
        <ele>94.3</ele>
        <time>2023-04-05T09:30:33Z</time>
      </trkpt>
      <trkpt lat="48.00003" lon="-3.8855">
        <ele>94.7</ele>
        <time>2023-04-05T09:30:34Z</time>
      </trkpt>
      <trkpt lat="48.00009" lon="-3.88549">
        <ele>95.2</ele>
        <time>2023-04-05T09:30:35Z</time>
      </trkpt>
      <trkpt lat="48.00014" lon="-3.88549">
        <ele>95.8</ele>
        <time>2023-04-05T09:30:36Z</time>
      </trkpt>
      <trkpt lat="48.0002" lon="-3.88546">
        <ele>96.3</ele>
        <time>2023-04-05T09:30:37Z</time>
      </trkpt>
      <trkpt lat="48.00025" lon="-3.88544">
        <ele>96.7</ele>
        <time>2023-04-05T09:30:38Z</time>
      </trkpt>
      <trkpt lat="48.00029" lon="-3.88543">
        <ele>97</ele>
        <time>2023-04-05T09:30:39Z</time>
      </trkpt>
      <trkpt lat="48.00034" lon="-3.88542">
        <ele>97.4</ele>
        <time>2023-04-05T09:30:40Z</time>
      </trkpt>
      <trkpt lat="48.00039" lon="-3.88541">
        <ele>97.7</ele>
        <time>2023-04-05T09:30:41Z</time>
      </trkpt>
      <trkpt lat="48.00044" lon="-3.88541">
        <ele>98</ele>
        <time>2023-04-05T09:30:42Z</time>
      </trkpt>
      <trkpt lat="48.00047" lon="-3.88541">
        <ele>98.2</ele>
        <time>2023-04-05T09:30:43Z</time>
      </trkpt>
      <trkpt lat="48.00052" lon="-3.88541">
        <ele>98.5</ele>
        <time>2023-04-05T09:30:44Z</time>
      </trkpt>
      <trkpt lat="48.00057" lon="-3.8854">
        <ele>98.7</ele>
        <time>2023-04-05T09:30:45Z</time>
      </trkpt>
      <trkpt lat="48.00061" lon="-3.88539">
        <ele>99</ele>
        <time>2023-04-05T09:30:46Z</time>
      </trkpt>
      <trkpt lat="48.00065" lon="-3.88538">
        <ele>99.2</ele>
        <time>2023-04-05T09:30:47Z</time>
      </trkpt>
      <trkpt lat="48.0007" lon="-3.88538">
        <ele>99.4</ele>
        <time>2023-04-05T09:30:48Z</time>
      </trkpt>
      <trkpt lat="48.00074" lon="-3.88538">
        <ele>99.6</ele>
        <time>2023-04-05T09:30:49Z</time>
      </trkpt>
      <trkpt lat="48.00078" lon="-3.88537">
        <ele>99.8</ele>
        <time>2023-04-05T09:30:50Z</time>
      </trkpt>
      <trkpt lat="48.00083" lon="-3.88536">
        <ele>100</ele>
        <time>2023-04-05T09:30:51Z</time>
      </trkpt>
      <trkpt lat="48.00087" lon="-3.88536">
        <ele>100.1</ele>
        <time>2023-04-05T09:30:52Z</time>
      </trkpt>
      <trkpt lat="48.00091" lon="-3.88536">
        <ele>100.3</ele>
        <time>2023-04-05T09:30:53Z</time>
      </trkpt>
      <trkpt lat="48.00095" lon="-3.88535">
        <ele>100.5</ele>
        <time>2023-04-05T09:30:54Z</time>
      </trkpt>
      <trkpt lat="48.00098" lon="-3.88535">
        <ele>100.6</ele>
        <time>2023-04-05T09:30:55Z</time>
      </trkpt>
      <trkpt lat="48.00102" lon="-3.88534">
        <ele>100.8</ele>
        <time>2023-04-05T09:30:56Z</time>
      </trkpt>
      <trkpt lat="48.0011" lon="-3.88533">
        <ele>101.2</ele>
        <time>2023-04-05T09:30:57Z</time>
      </trkpt>
      <trkpt lat="48.0012" lon="-3.88531">
        <ele>101.6</ele>
        <time>2023-04-05T09:30:59Z</time>
      </trkpt>
      <trkpt lat="48.00124" lon="-3.8853">
        <ele>101.8</ele>
        <time>2023-04-05T09:31:01Z</time>
      </trkpt>
      <trkpt lat="48.00129" lon="-3.88529">
        <ele>102</ele>
        <time>2023-04-05T09:31:02Z</time>
      </trkpt>
      <trkpt lat="48.00133" lon="-3.88528">
        <ele>102.1</ele>
        <time>2023-04-05T09:31:03Z</time>
      </trkpt>
      <trkpt lat="48.00137" lon="-3.88527">
        <ele>102.3</ele>
        <time>2023-04-05T09:31:04Z</time>
      </trkpt>
      <trkpt lat="48.00141" lon="-3.88525">
        <ele>102.5</ele>
        <time>2023-04-05T09:31:05Z</time>
      </trkpt>
      <trkpt lat="48.00145" lon="-3.88524">
        <ele>102.7</ele>
        <time>2023-04-05T09:31:06Z</time>
      </trkpt>
      <trkpt lat="48.0015" lon="-3.88522">
        <ele>102.9</ele>
        <time>2023-04-05T09:31:07Z</time>
      </trkpt>
      <trkpt lat="48.00154" lon="-3.8852">
        <ele>103.1</ele>
        <time>2023-04-05T09:31:08Z</time>
      </trkpt>
      <trkpt lat="48.00158" lon="-3.88518">
        <ele>103.4</ele>
        <time>2023-04-05T09:31:09Z</time>
      </trkpt>
      <trkpt lat="48.00163" lon="-3.88516">
        <ele>103.6</ele>
        <time>2023-04-05T09:31:10Z</time>
      </trkpt>
      <trkpt lat="48.00167" lon="-3.88513">
        <ele>103.8</ele>
        <time>2023-04-05T09:31:11Z</time>
      </trkpt>
      <trkpt lat="48.00171" lon="-3.88512">
        <ele>104</ele>
        <time>2023-04-05T09:31:12Z</time>
      </trkpt>
      <trkpt lat="48.00175" lon="-3.8851">
        <ele>104.3</ele>
        <time>2023-04-05T09:31:13Z</time>
      </trkpt>
      <trkpt lat="48.00179" lon="-3.88507">
        <ele>104.5</ele>
        <time>2023-04-05T09:31:14Z</time>
      </trkpt>
      <trkpt lat="48.00183" lon="-3.88505">
        <ele>104.7</ele>
        <time>2023-04-05T09:31:15Z</time>
      </trkpt>
      <trkpt lat="48.00187" lon="-3.88503">
        <ele>104.9</ele>
        <time>2023-04-05T09:31:16Z</time>
      </trkpt>
      <trkpt lat="48.0019" lon="-3.88501">
        <ele>105.1</ele>
        <time>2023-04-05T09:31:17Z</time>
      </trkpt>
      <trkpt lat="48.00194" lon="-3.88499">
        <ele>105.3</ele>
        <time>2023-04-05T09:31:18Z</time>
      </trkpt>
      <trkpt lat="48.00198" lon="-3.88497">
        <ele>105.5</ele>
        <time>2023-04-05T09:31:19Z</time>
      </trkpt>
      <trkpt lat="48.00201" lon="-3.88495">
        <ele>105.7</ele>
        <time>2023-04-05T09:31:20Z</time>
      </trkpt>
      <trkpt lat="48.00205" lon="-3.88493">
        <ele>105.9</ele>
        <time>2023-04-05T09:31:21Z</time>
      </trkpt>
      <trkpt lat="48.00209" lon="-3.88491">
        <ele>106</ele>
        <time>2023-04-05T09:31:22Z</time>
      </trkpt>
      <trkpt lat="48.00213" lon="-3.88489">
        <ele>106.2</ele>
        <time>2023-04-05T09:31:23Z</time>
      </trkpt>
      <trkpt lat="48.00217" lon="-3.88487">
        <ele>106.3</ele>
        <time>2023-04-05T09:31:24Z</time>
      </trkpt>
      <trkpt lat="48.00221" lon="-3.88485">
        <ele>106.4</ele>
        <time>2023-04-05T09:31:25Z</time>
      </trkpt>
      <trkpt lat="48.00226" lon="-3.88483">
        <ele>106.6</ele>
        <time>2023-04-05T09:31:26Z</time>
      </trkpt>
      <trkpt lat="48.0023" lon="-3.88482">
        <ele>106.7</ele>
        <time>2023-04-05T09:31:27Z</time>
      </trkpt>
      <trkpt lat="48.00234" lon="-3.8848">
        <ele>106.8</ele>
        <time>2023-04-05T09:31:28Z</time>
      </trkpt>
      <trkpt lat="48.00238" lon="-3.88479">
        <ele>107</ele>
        <time>2023-04-05T09:31:29Z</time>
      </trkpt>
      <trkpt lat="48.00243" lon="-3.88478">
        <ele>107.2</ele>
        <time>2023-04-05T09:31:30Z</time>
      </trkpt>
      <trkpt lat="48.00247" lon="-3.88477">
        <ele>107.3</ele>
        <time>2023-04-05T09:31:31Z</time>
      </trkpt>
      <trkpt lat="48.00251" lon="-3.88477">
        <ele>107.5</ele>
        <time>2023-04-05T09:31:32Z</time>
      </trkpt>
      <trkpt lat="48.00256" lon="-3.88477">
        <ele>107.7</ele>
        <time>2023-04-05T09:31:33Z</time>
      </trkpt>
      <trkpt lat="48.0026" lon="-3.88477">
        <ele>107.8</ele>
        <time>2023-04-05T09:31:34Z</time>
      </trkpt>
      <trkpt lat="48.00264" lon="-3.88477">
        <ele>108</ele>
        <time>2023-04-05T09:31:35Z</time>
      </trkpt>
      <trkpt lat="48.00268" lon="-3.88476">
        <ele>108.1</ele>
        <time>2023-04-05T09:31:36Z</time>
      </trkpt>
      <trkpt lat="48.00272" lon="-3.88476">
        <ele>108.3</ele>
        <time>2023-04-05T09:31:37Z</time>
      </trkpt>
      <trkpt lat="48.00276" lon="-3.88475">
        <ele>108.4</ele>
        <time>2023-04-05T09:31:38Z</time>
      </trkpt>
      <trkpt lat="48.0028" lon="-3.88475">
        <ele>108.5</ele>
        <time>2023-04-05T09:31:39Z</time>
      </trkpt>
      <trkpt lat="48.00284" lon="-3.88475">
        <ele>108.6</ele>
        <time>2023-04-05T09:31:40Z</time>
      </trkpt>
      <trkpt lat="48.00288" lon="-3.88475">
        <ele>108.7</ele>
        <time>2023-04-05T09:31:41Z</time>
      </trkpt>
      <trkpt lat="48.00292" lon="-3.88474">
        <ele>108.8</ele>
        <time>2023-04-05T09:31:42Z</time>
      </trkpt>
      <trkpt lat="48.00295" lon="-3.88474">
        <ele>108.8</ele>
        <time>2023-04-05T09:31:43Z</time>
      </trkpt>
      <trkpt lat="48.003" lon="-3.88473">
        <ele>108.9</ele>
        <time>2023-04-05T09:31:44Z</time>
      </trkpt>
      <trkpt lat="48.00304" lon="-3.88472">
        <ele>109</ele>
        <time>2023-04-05T09:31:45Z</time>
      </trkpt>
      <trkpt lat="48.00309" lon="-3.88471">
        <ele>109</ele>
        <time>2023-04-05T09:31:46Z</time>
      </trkpt>
      <trkpt lat="48.00313" lon="-3.8847">
        <ele>109</ele>
        <time>2023-04-05T09:31:47Z</time>
      </trkpt>
      <trkpt lat="48.00318" lon="-3.8847">
        <ele>109.1</ele>
        <time>2023-04-05T09:31:48Z</time>
      </trkpt>
      <trkpt lat="48.00322" lon="-3.88469">
        <ele>109.1</ele>
        <time>2023-04-05T09:31:49Z</time>
      </trkpt>
      <trkpt lat="48.00326" lon="-3.88468">
        <ele>109.1</ele>
        <time>2023-04-05T09:31:50Z</time>
      </trkpt>
      <trkpt lat="48.0033" lon="-3.88466">
        <ele>109</ele>
        <time>2023-04-05T09:31:51Z</time>
      </trkpt>
      <trkpt lat="48.00335" lon="-3.88464">
        <ele>109</ele>
        <time>2023-04-05T09:31:52Z</time>
      </trkpt>
      <trkpt lat="48.0034" lon="-3.88464">
        <ele>109</ele>
        <time>2023-04-05T09:31:53Z</time>
      </trkpt>
      <trkpt lat="48.00345" lon="-3.88466">
        <ele>109.7</ele>
        <time>2023-04-05T09:31:54Z</time>
      </trkpt>
      <trkpt lat="48.00349" lon="-3.8847">
        <ele>110.2</ele>
        <time>2023-04-05T09:31:55Z</time>
      </trkpt>
      <trkpt lat="48.00353" lon="-3.88476">
        <ele>110.4</ele>
        <time>2023-04-05T09:31:56Z</time>
      </trkpt>
      <trkpt lat="48.00355" lon="-3.88482">
        <ele>110.6</ele>
        <time>2023-04-05T09:31:57Z</time>
      </trkpt>
      <trkpt lat="48.00357" lon="-3.88488">
        <ele>110.7</ele>
        <time>2023-04-05T09:31:58Z</time>
      </trkpt>
      <trkpt lat="48.00358" lon="-3.88495">
        <ele>110.9</ele>
        <time>2023-04-05T09:31:59Z</time>
      </trkpt>
      <trkpt lat="48.00358" lon="-3.88501">
        <ele>111.1</ele>
        <time>2023-04-05T09:32:00Z</time>
      </trkpt>
      <trkpt lat="48.00359" lon="-3.88511">
        <ele>111.3</ele>
        <time>2023-04-05T09:32:02Z</time>
      </trkpt>
      <trkpt lat="48.00359" lon="-3.88516">
        <ele>111.5</ele>
        <time>2023-04-05T09:32:03Z</time>
      </trkpt>
      <trkpt lat="48.00357" lon="-3.88525">
        <ele>111.7</ele>
        <time>2023-04-05T09:32:04Z</time>
      </trkpt>
      <trkpt lat="48.00357" lon="-3.88531">
        <ele>111.9</ele>
        <time>2023-04-05T09:32:05Z</time>
      </trkpt>
      <trkpt lat="48.00357" lon="-3.88537">
        <ele>112.1</ele>
        <time>2023-04-05T09:32:06Z</time>
      </trkpt>
      <trkpt lat="48.00357" lon="-3.88545">
        <ele>112.4</ele>
        <time>2023-04-05T09:32:07Z</time>
      </trkpt>
      <trkpt lat="48.00356" lon="-3.88551">
        <ele>112.6</ele>
        <time>2023-04-05T09:32:08Z</time>
      </trkpt>
      <trkpt lat="48.00355" lon="-3.8856">
        <ele>112.9</ele>
        <time>2023-04-05T09:32:09Z</time>
      </trkpt>
      <trkpt lat="48.00355" lon="-3.88566">
        <ele>113.1</ele>
        <time>2023-04-05T09:32:11Z</time>
      </trkpt>
      <trkpt lat="48.00354" lon="-3.88573">
        <ele>113.3</ele>
        <time>2023-04-05T09:32:12Z</time>
      </trkpt>
      <trkpt lat="48.00353" lon="-3.88583">
        <ele>113.6</ele>
        <time>2023-04-05T09:32:13Z</time>
      </trkpt>
      <trkpt lat="48.00352" lon="-3.8859">
        <ele>113.8</ele>
        <time>2023-04-05T09:32:15Z</time>
      </trkpt>
      <trkpt lat="48.00352" lon="-3.88596">
        <ele>113.9</ele>
        <time>2023-04-05T09:32:16Z</time>
      </trkpt>
      <trkpt lat="48.00351" lon="-3.88602">
        <ele>114.1</ele>
        <time>2023-04-05T09:32:17Z</time>
      </trkpt>
      <trkpt lat="48.0035" lon="-3.88614">
        <ele>114.4</ele>
        <time>2023-04-05T09:32:18Z</time>
      </trkpt>
      <trkpt lat="48.0035" lon="-3.88621">
        <ele>114.5</ele>
        <time>2023-04-05T09:32:20Z</time>
      </trkpt>
      <trkpt lat="48.0035" lon="-3.88627">
        <ele>114.6</ele>
        <time>2023-04-05T09:32:21Z</time>
      </trkpt>
      <trkpt lat="48.0035" lon="-3.88634">
        <ele>114.8</ele>
        <time>2023-04-05T09:32:22Z</time>
      </trkpt>
      <trkpt lat="48.00351" lon="-3.8864">
        <ele>114.9</ele>
        <time>2023-04-05T09:32:23Z</time>
      </trkpt>
      <trkpt lat="48.00351" lon="-3.88646">
        <ele>115</ele>
        <time>2023-04-05T09:32:24Z</time>
      </trkpt>
      <trkpt lat="48.00352" lon="-3.88653">
        <ele>115.1</ele>
        <time>2023-04-05T09:32:25Z</time>
      </trkpt>
      <trkpt lat="48.00355" lon="-3.88659">
        <ele>115.1</ele>
        <time>2023-04-05T09:32:26Z</time>
      </trkpt>
      <trkpt lat="48.00357" lon="-3.88666">
        <ele>115.2</ele>
        <time>2023-04-05T09:32:27Z</time>
      </trkpt>
      <trkpt lat="48.00358" lon="-3.88673">
        <ele>115.3</ele>
        <time>2023-04-05T09:32:28Z</time>
      </trkpt>
      <trkpt lat="48.0036" lon="-3.88679">
        <ele>115.4</ele>
        <time>2023-04-05T09:32:29Z</time>
      </trkpt>
      <trkpt lat="48.00362" lon="-3.88685">
        <ele>115.4</ele>
        <time>2023-04-05T09:32:30Z</time>
      </trkpt>
      <trkpt lat="48.00363" lon="-3.8869">
        <ele>115.5</ele>
        <time>2023-04-05T09:32:31Z</time>
      </trkpt>
      <trkpt lat="48.00365" lon="-3.88697">
        <ele>115.6</ele>
        <time>2023-04-05T09:32:32Z</time>
      </trkpt>
      <trkpt lat="48.00367" lon="-3.88705">
        <ele>115.6</ele>
        <time>2023-04-05T09:32:33Z</time>
      </trkpt>
      <trkpt lat="48.00369" lon="-3.88711">
        <ele>115.7</ele>
        <time>2023-04-05T09:32:34Z</time>
      </trkpt>
      <trkpt lat="48.0037" lon="-3.88718">
        <ele>115.8</ele>
        <time>2023-04-05T09:32:35Z</time>
      </trkpt>
      <trkpt lat="48.00372" lon="-3.88725">
        <ele>115.9</ele>
        <time>2023-04-05T09:32:36Z</time>
      </trkpt>
      <trkpt lat="48.00373" lon="-3.88732">
        <ele>115.9</ele>
        <time>2023-04-05T09:32:37Z</time>
      </trkpt>
      <trkpt lat="48.00375" lon="-3.88739">
        <ele>116</ele>
        <time>2023-04-05T09:32:38Z</time>
      </trkpt>
      <trkpt lat="48.00377" lon="-3.88745">
        <ele>116.1</ele>
        <time>2023-04-05T09:32:39Z</time>
      </trkpt>
      <trkpt lat="48.00378" lon="-3.88752">
        <ele>116.1</ele>
        <time>2023-04-05T09:32:40Z</time>
      </trkpt>
      <trkpt lat="48.00379" lon="-3.88759">
        <ele>116.2</ele>
        <time>2023-04-05T09:32:41Z</time>
      </trkpt>
      <trkpt lat="48.00381" lon="-3.88765">
        <ele>116.3</ele>
        <time>2023-04-05T09:32:42Z</time>
      </trkpt>
      <trkpt lat="48.00383" lon="-3.88772">
        <ele>116.4</ele>
        <time>2023-04-05T09:32:43Z</time>
      </trkpt>
      <trkpt lat="48.00386" lon="-3.88777">
        <ele>116.6</ele>
        <time>2023-04-05T09:32:44Z</time>
      </trkpt>
      <trkpt lat="48.0039" lon="-3.8878">
        <ele>116.6</ele>
        <time>2023-04-05T09:32:45Z</time>
      </trkpt>
      <trkpt lat="48.00394" lon="-3.88781">
        <ele>116.6</ele>
        <time>2023-04-05T09:32:46Z</time>
      </trkpt>
      <trkpt lat="48.00399" lon="-3.88779">
        <ele>116.6</ele>
        <time>2023-04-05T09:32:47Z</time>
      </trkpt>
      <trkpt lat="48.00402" lon="-3.88779">
        <ele>116.6</ele>
        <time>2023-04-05T09:32:48Z</time>
      </trkpt>
      <trkpt lat="48.00405" lon="-3.88776">
        <ele>116.5</ele>
        <time>2023-04-05T09:32:49Z</time>
      </trkpt>
      <trkpt lat="48.0041" lon="-3.88775">
        <ele>116.5</ele>
        <time>2023-04-05T09:32:50Z</time>
      </trkpt>
      <trkpt lat="48.00414" lon="-3.88774">
        <ele>116.4</ele>
        <time>2023-04-05T09:32:51Z</time>
      </trkpt>
      <trkpt lat="48.00419" lon="-3.88771">
        <ele>116.3</ele>
        <time>2023-04-05T09:32:52Z</time>
      </trkpt>
      <trkpt lat="48.00424" lon="-3.88768">
        <ele>116.2</ele>
        <time>2023-04-05T09:32:53Z</time>
      </trkpt>
      <trkpt lat="48.00429" lon="-3.88765">
        <ele>116.1</ele>
        <time>2023-04-05T09:32:54Z</time>
      </trkpt>
      <trkpt lat="48.00434" lon="-3.88761">
        <ele>115.9</ele>
        <time>2023-04-05T09:32:55Z</time>
      </trkpt>
      <trkpt lat="48.00439" lon="-3.88758">
        <ele>115.7</ele>
        <time>2023-04-05T09:32:56Z</time>
      </trkpt>
      <trkpt lat="48.00445" lon="-3.88755">
        <ele>115.5</ele>
        <time>2023-04-05T09:32:57Z</time>
      </trkpt>
      <trkpt lat="48.00452" lon="-3.88751">
        <ele>115.1</ele>
        <time>2023-04-05T09:32:58Z</time>
      </trkpt>
      <trkpt lat="48.00458" lon="-3.88747">
        <ele>114.6</ele>
        <time>2023-04-05T09:32:59Z</time>
      </trkpt>
      <trkpt lat="48.00465" lon="-3.88743">
        <ele>114</ele>
        <time>2023-04-05T09:33:00Z</time>
      </trkpt>
      <trkpt lat="48.00473" lon="-3.88737">
        <ele>113.3</ele>
        <time>2023-04-05T09:33:01Z</time>
      </trkpt>
      <trkpt lat="48.00482" lon="-3.88731">
        <ele>112.4</ele>
        <time>2023-04-05T09:33:02Z</time>
      </trkpt>
      <trkpt lat="48.0049" lon="-3.88724">
        <ele>111.4</ele>
        <time>2023-04-05T09:33:03Z</time>
      </trkpt>
      <trkpt lat="48.00499" lon="-3.88716">
        <ele>110.4</ele>
        <time>2023-04-05T09:33:04Z</time>
      </trkpt>
      <trkpt lat="48.00508" lon="-3.88708">
        <ele>109.5</ele>
        <time>2023-04-05T09:33:05Z</time>
      </trkpt>
      <trkpt lat="48.00518" lon="-3.88699">
        <ele>108.5</ele>
        <time>2023-04-05T09:33:06Z</time>
      </trkpt>
      <trkpt lat="48.00527" lon="-3.8869">
        <ele>107.8</ele>
        <time>2023-04-05T09:33:07Z</time>
      </trkpt>
      <trkpt lat="48.00537" lon="-3.88681">
        <ele>107.2</ele>
        <time>2023-04-05T09:33:08Z</time>
      </trkpt>
      <trkpt lat="48.00546" lon="-3.88672">
        <ele>106.6</ele>
        <time>2023-04-05T09:33:09Z</time>
      </trkpt>
      <trkpt lat="48.00554" lon="-3.88663">
        <ele>106.2</ele>
        <time>2023-04-05T09:33:10Z</time>
      </trkpt>
      <trkpt lat="48.00564" lon="-3.88656">
        <ele>106</ele>
        <time>2023-04-05T09:33:11Z</time>
      </trkpt>
      <trkpt lat="48.00575" lon="-3.88655">
        <ele>105.9</ele>
        <time>2023-04-05T09:33:12Z</time>
      </trkpt>
      <trkpt lat="48.00584" lon="-3.88658">
        <ele>105.9</ele>
        <time>2023-04-05T09:33:13Z</time>
      </trkpt>
      <trkpt lat="48.00593" lon="-3.88665">
        <ele>106</ele>
        <time>2023-04-05T09:33:14Z</time>
      </trkpt>
      <trkpt lat="48.006" lon="-3.88672">
        <ele>106.2</ele>
        <time>2023-04-05T09:33:15Z</time>
      </trkpt>
      <trkpt lat="48.00608" lon="-3.88678">
        <ele>106.4</ele>
        <time>2023-04-05T09:33:16Z</time>
      </trkpt>
      <trkpt lat="48.00615" lon="-3.88684">
        <ele>106.5</ele>
        <time>2023-04-05T09:33:17Z</time>
      </trkpt>
      <trkpt lat="48.00623" lon="-3.88689">
        <ele>106.5</ele>
        <time>2023-04-05T09:33:18Z</time>
      </trkpt>
      <trkpt lat="48.0063" lon="-3.88693">
        <ele>106.6</ele>
        <time>2023-04-05T09:33:19Z</time>
      </trkpt>
      <trkpt lat="48.00636" lon="-3.88698">
        <ele>106.7</ele>
        <time>2023-04-05T09:33:20Z</time>
      </trkpt>
      <trkpt lat="48.00642" lon="-3.88702">
        <ele>106.8</ele>
        <time>2023-04-05T09:33:21Z</time>
      </trkpt>
      <trkpt lat="48.00647" lon="-3.88706">
        <ele>106.9</ele>
        <time>2023-04-05T09:33:22Z</time>
      </trkpt>
      <trkpt lat="48.00653" lon="-3.8871">
        <ele>106.9</ele>
        <time>2023-04-05T09:33:23Z</time>
      </trkpt>
      <trkpt lat="48.00658" lon="-3.88714">
        <ele>106.9</ele>
        <time>2023-04-05T09:33:24Z</time>
      </trkpt>
      <trkpt lat="48.00663" lon="-3.88718">
        <ele>107</ele>
        <time>2023-04-05T09:33:25Z</time>
      </trkpt>
      <trkpt lat="48.00668" lon="-3.88722">
        <ele>107.1</ele>
        <time>2023-04-05T09:33:26Z</time>
      </trkpt>
      <trkpt lat="48.00674" lon="-3.88726">
        <ele>107.3</ele>
        <time>2023-04-05T09:33:27Z</time>
      </trkpt>
      <trkpt lat="48.00679" lon="-3.88729">
        <ele>107.5</ele>
        <time>2023-04-05T09:33:28Z</time>
      </trkpt>
      <trkpt lat="48.00684" lon="-3.88732">
        <ele>107.8</ele>
        <time>2023-04-05T09:33:29Z</time>
      </trkpt>
      <trkpt lat="48.00689" lon="-3.88735">
        <ele>108.1</ele>
        <time>2023-04-05T09:33:30Z</time>
      </trkpt>
      <trkpt lat="48.00694" lon="-3.88738">
        <ele>108.4</ele>
        <time>2023-04-05T09:33:31Z</time>
      </trkpt>
      <trkpt lat="48.00699" lon="-3.88741">
        <ele>108.7</ele>
        <time>2023-04-05T09:33:32Z</time>
      </trkpt>
      <trkpt lat="48.00703" lon="-3.88743">
        <ele>109</ele>
        <time>2023-04-05T09:33:33Z</time>
      </trkpt>
      <trkpt lat="48.00708" lon="-3.88745">
        <ele>109.3</ele>
        <time>2023-04-05T09:33:34Z</time>
      </trkpt>
      <trkpt lat="48.00711" lon="-3.88748">
        <ele>109.6</ele>
        <time>2023-04-05T09:33:35Z</time>
      </trkpt>
      <trkpt lat="48.00716" lon="-3.88751">
        <ele>109.9</ele>
        <time>2023-04-05T09:33:36Z</time>
      </trkpt>
      <trkpt lat="48.0072" lon="-3.88753">
        <ele>110.2</ele>
        <time>2023-04-05T09:33:37Z</time>
      </trkpt>
      <trkpt lat="48.00723" lon="-3.88755">
        <ele>110.5</ele>
        <time>2023-04-05T09:33:38Z</time>
      </trkpt>
      <trkpt lat="48.00726" lon="-3.88756">
        <ele>110.7</ele>
        <time>2023-04-05T09:33:39Z</time>
      </trkpt>
      <trkpt lat="48.00731" lon="-3.88758">
        <ele>111</ele>
        <time>2023-04-05T09:33:40Z</time>
      </trkpt>
      <trkpt lat="48.00735" lon="-3.8876">
        <ele>111.3</ele>
        <time>2023-04-05T09:33:41Z</time>
      </trkpt>
      <trkpt lat="48.00739" lon="-3.88761">
        <ele>111.5</ele>
        <time>2023-04-05T09:33:42Z</time>
      </trkpt>
      <trkpt lat="48.00743" lon="-3.88762">
        <ele>111.7</ele>
        <time>2023-04-05T09:33:43Z</time>
      </trkpt>
      <trkpt lat="48.00748" lon="-3.88764">
        <ele>111.9</ele>
        <time>2023-04-05T09:33:44Z</time>
      </trkpt>
      <trkpt lat="48.00751" lon="-3.88765">
        <ele>112.1</ele>
        <time>2023-04-05T09:33:45Z</time>
      </trkpt>
      <trkpt lat="48.00756" lon="-3.88767">
        <ele>112.5</ele>
        <time>2023-04-05T09:33:46Z</time>
      </trkpt>
      <trkpt lat="48.0076" lon="-3.88768">
        <ele>112.8</ele>
        <time>2023-04-05T09:33:47Z</time>
      </trkpt>
      <trkpt lat="48.00765" lon="-3.88769">
        <ele>113.1</ele>
        <time>2023-04-05T09:33:48Z</time>
      </trkpt>
      <trkpt lat="48.00769" lon="-3.8877">
        <ele>113.5</ele>
        <time>2023-04-05T09:33:49Z</time>
      </trkpt>
      <trkpt lat="48.00774" lon="-3.88771">
        <ele>113.9</ele>
        <time>2023-04-05T09:33:50Z</time>
      </trkpt>
      <trkpt lat="48.00778" lon="-3.88772">
        <ele>114.3</ele>
        <time>2023-04-05T09:33:51Z</time>
      </trkpt>
      <trkpt lat="48.00782" lon="-3.88773">
        <ele>114.7</ele>
        <time>2023-04-05T09:33:52Z</time>
      </trkpt>
      <trkpt lat="48.00787" lon="-3.88773">
        <ele>115.1</ele>
        <time>2023-04-05T09:33:53Z</time>
      </trkpt>
      <trkpt lat="48.00791" lon="-3.88774">
        <ele>115.5</ele>
        <time>2023-04-05T09:33:54Z</time>
      </trkpt>
      <trkpt lat="48.00795" lon="-3.88774">
        <ele>115.8</ele>
        <time>2023-04-05T09:33:55Z</time>
      </trkpt>
      <trkpt lat="48.00799" lon="-3.88775">
        <ele>116.1</ele>
        <time>2023-04-05T09:33:56Z</time>
      </trkpt>
      <trkpt lat="48.00803" lon="-3.88776">
        <ele>116.4</ele>
        <time>2023-04-05T09:33:57Z</time>
      </trkpt>
      <trkpt lat="48.00807" lon="-3.88777">
        <ele>116.7</ele>
        <time>2023-04-05T09:33:58Z</time>
      </trkpt>
      <trkpt lat="48.0081" lon="-3.88777">
        <ele>116.8</ele>
        <time>2023-04-05T09:33:59Z</time>
      </trkpt>
      <trkpt lat="48.00816" lon="-3.88779">
        <ele>117.2</ele>
        <time>2023-04-05T09:34:00Z</time>
      </trkpt>
      <trkpt lat="48.0082" lon="-3.8878">
        <ele>117.4</ele>
        <time>2023-04-05T09:34:01Z</time>
      </trkpt>
      <trkpt lat="48.00824" lon="-3.88781">
        <ele>117.7</ele>
        <time>2023-04-05T09:34:02Z</time>
      </trkpt>
      <trkpt lat="48.00829" lon="-3.88782">
        <ele>117.9</ele>
        <time>2023-04-05T09:34:03Z</time>
      </trkpt>
      <trkpt lat="48.00833" lon="-3.88783">
        <ele>118.1</ele>
        <time>2023-04-05T09:34:04Z</time>
      </trkpt>
      <trkpt lat="48.00837" lon="-3.88784">
        <ele>118.3</ele>
        <time>2023-04-05T09:34:05Z</time>
      </trkpt>
      <trkpt lat="48.00841" lon="-3.88785">
        <ele>118.4</ele>
        <time>2023-04-05T09:34:06Z</time>
      </trkpt>
      <trkpt lat="48.00845" lon="-3.88786">
        <ele>118.6</ele>
        <time>2023-04-05T09:34:07Z</time>
      </trkpt>
      <trkpt lat="48.0085" lon="-3.88788">
        <ele>118.7</ele>
        <time>2023-04-05T09:34:08Z</time>
      </trkpt>
      <trkpt lat="48.00854" lon="-3.88789">
        <ele>118.7</ele>
        <time>2023-04-05T09:34:09Z</time>
      </trkpt>
      <trkpt lat="48.00858" lon="-3.88791">
        <ele>118.8</ele>
        <time>2023-04-05T09:34:10Z</time>
      </trkpt>
      <trkpt lat="48.00863" lon="-3.88792">
        <ele>118.8</ele>
        <time>2023-04-05T09:34:11Z</time>
      </trkpt>
      <trkpt lat="48.00867" lon="-3.88794">
        <ele>118.8</ele>
        <time>2023-04-05T09:34:12Z</time>
      </trkpt>
      <trkpt lat="48.00872" lon="-3.88796">
        <ele>118.8</ele>
        <time>2023-04-05T09:34:13Z</time>
      </trkpt>
      <trkpt lat="48.00876" lon="-3.88799">
        <ele>118.8</ele>
        <time>2023-04-05T09:34:14Z</time>
      </trkpt>
      <trkpt lat="48.0088" lon="-3.88802">
        <ele>118.7</ele>
        <time>2023-04-05T09:34:15Z</time>
      </trkpt>
      <trkpt lat="48.00884" lon="-3.88804">
        <ele>118.6</ele>
        <time>2023-04-05T09:34:16Z</time>
      </trkpt>
      <trkpt lat="48.00889" lon="-3.88808">
        <ele>118.5</ele>
        <time>2023-04-05T09:34:17Z</time>
      </trkpt>
      <trkpt lat="48.00893" lon="-3.88811">
        <ele>118.4</ele>
        <time>2023-04-05T09:34:18Z</time>
      </trkpt>
      <trkpt lat="48.00898" lon="-3.88815">
        <ele>118.3</ele>
        <time>2023-04-05T09:34:19Z</time>
      </trkpt>
      <trkpt lat="48.00903" lon="-3.88818">
        <ele>118.2</ele>
        <time>2023-04-05T09:34:20Z</time>
      </trkpt>
      <trkpt lat="48.00909" lon="-3.88822">
        <ele>118.2</ele>
        <time>2023-04-05T09:34:21Z</time>
      </trkpt>
      <trkpt lat="48.00915" lon="-3.88826">
        <ele>118.2</ele>
        <time>2023-04-05T09:34:22Z</time>
      </trkpt>
      <trkpt lat="48.0092" lon="-3.8883">
        <ele>118.2</ele>
        <time>2023-04-05T09:34:23Z</time>
      </trkpt>
      <trkpt lat="48.00926" lon="-3.88833">
        <ele>118.2</ele>
        <time>2023-04-05T09:34:24Z</time>
      </trkpt>
      <trkpt lat="48.00932" lon="-3.88835">
        <ele>118.2</ele>
        <time>2023-04-05T09:34:25Z</time>
      </trkpt>
      <trkpt lat="48.00937" lon="-3.88837">
        <ele>118.2</ele>
        <time>2023-04-05T09:34:26Z</time>
      </trkpt>
      <trkpt lat="48.00942" lon="-3.8884">
        <ele>118.2</ele>
        <time>2023-04-05T09:34:27Z</time>
      </trkpt>
      <trkpt lat="48.00947" lon="-3.88843">
        <ele>118.2</ele>
        <time>2023-04-05T09:34:28Z</time>
      </trkpt>
      <trkpt lat="48.00953" lon="-3.88845">
        <ele>118.2</ele>
        <time>2023-04-05T09:34:29Z</time>
      </trkpt>
      <trkpt lat="48.00958" lon="-3.88848">
        <ele>118.2</ele>
        <time>2023-04-05T09:34:30Z</time>
      </trkpt>
      <trkpt lat="48.00963" lon="-3.8885">
        <ele>118.2</ele>
        <time>2023-04-05T09:34:31Z</time>
      </trkpt>
      <trkpt lat="48.00968" lon="-3.88852">
        <ele>118.2</ele>
        <time>2023-04-05T09:34:32Z</time>
      </trkpt>
      <trkpt lat="48.00973" lon="-3.88854">
        <ele>118.3</ele>
        <time>2023-04-05T09:34:33Z</time>
      </trkpt>
      <trkpt lat="48.00978" lon="-3.88856">
        <ele>118.3</ele>
        <time>2023-04-05T09:34:34Z</time>
      </trkpt>
      <trkpt lat="48.00982" lon="-3.88858">
        <ele>118.4</ele>
        <time>2023-04-05T09:34:35Z</time>
      </trkpt>
      <trkpt lat="48.00987" lon="-3.8886">
        <ele>118.5</ele>
        <time>2023-04-05T09:34:36Z</time>
      </trkpt>
      <trkpt lat="48.00992" lon="-3.88863">
        <ele>118.7</ele>
        <time>2023-04-05T09:34:37Z</time>
      </trkpt>
      <trkpt lat="48.00996" lon="-3.88865">
        <ele>118.9</ele>
        <time>2023-04-05T09:34:38Z</time>
      </trkpt>
      <trkpt lat="48.01001" lon="-3.88867">
        <ele>119</ele>
        <time>2023-04-05T09:34:39Z</time>
      </trkpt>
      <trkpt lat="48.01005" lon="-3.88869">
        <ele>119.2</ele>
        <time>2023-04-05T09:34:40Z</time>
      </trkpt>
      <trkpt lat="48.0101" lon="-3.8887">
        <ele>119.4</ele>
        <time>2023-04-05T09:34:41Z</time>
      </trkpt>
      <trkpt lat="48.01014" lon="-3.88872">
        <ele>119.6</ele>
        <time>2023-04-05T09:34:42Z</time>
      </trkpt>
      <trkpt lat="48.01018" lon="-3.88873">
        <ele>119.8</ele>
        <time>2023-04-05T09:34:43Z</time>
      </trkpt>
      <trkpt lat="48.01023" lon="-3.88875">
        <ele>120</ele>
        <time>2023-04-05T09:34:44Z</time>
      </trkpt>
      <trkpt lat="48.01027" lon="-3.88876">
        <ele>120.3</ele>
        <time>2023-04-05T09:34:45Z</time>
      </trkpt>
      <trkpt lat="48.01032" lon="-3.88876">
        <ele>120.5</ele>
        <time>2023-04-05T09:34:46Z</time>
      </trkpt>
      <trkpt lat="48.01036" lon="-3.88877">
        <ele>120.8</ele>
        <time>2023-04-05T09:34:47Z</time>
      </trkpt>
      <trkpt lat="48.0104" lon="-3.88878">
        <ele>121.1</ele>
        <time>2023-04-05T09:34:48Z</time>
      </trkpt>
      <trkpt lat="48.01044" lon="-3.88879">
        <ele>121.4</ele>
        <time>2023-04-05T09:34:49Z</time>
      </trkpt>
      <trkpt lat="48.01049" lon="-3.88879">
        <ele>121.9</ele>
        <time>2023-04-05T09:34:50Z</time>
      </trkpt>
      <trkpt lat="48.01052" lon="-3.8888">
        <ele>122.2</ele>
        <time>2023-04-05T09:34:51Z</time>
      </trkpt>
      <trkpt lat="48.01055" lon="-3.8888">
        <ele>122.6</ele>
        <time>2023-04-05T09:34:52Z</time>
      </trkpt>
      <trkpt lat="48.01059" lon="-3.88881">
        <ele>123</ele>
        <time>2023-04-05T09:34:53Z</time>
      </trkpt>
      <trkpt lat="48.01063" lon="-3.88882">
        <ele>123.3</ele>
        <time>2023-04-05T09:34:54Z</time>
      </trkpt>
      <trkpt lat="48.01068" lon="-3.88883">
        <ele>123.6</ele>
        <time>2023-04-05T09:34:55Z</time>
      </trkpt>
      <trkpt lat="48.0107" lon="-3.88883">
        <ele>123.8</ele>
        <time>2023-04-05T09:34:56Z</time>
      </trkpt>
      <trkpt lat="48.01074" lon="-3.88884">
        <ele>124</ele>
        <time>2023-04-05T09:34:57Z</time>
      </trkpt>
      <trkpt lat="48.01078" lon="-3.88884">
        <ele>124.2</ele>
        <time>2023-04-05T09:34:58Z</time>
      </trkpt>
      <trkpt lat="48.01082" lon="-3.88885">
        <ele>124.5</ele>
        <time>2023-04-05T09:34:59Z</time>
      </trkpt>
      <trkpt lat="48.01086" lon="-3.88886">
        <ele>124.7</ele>
        <time>2023-04-05T09:35:00Z</time>
      </trkpt>
      <trkpt lat="48.0109" lon="-3.88887">
        <ele>124.9</ele>
        <time>2023-04-05T09:35:01Z</time>
      </trkpt>
      <trkpt lat="48.01094" lon="-3.88887">
        <ele>125.2</ele>
        <time>2023-04-05T09:35:02Z</time>
      </trkpt>
      <trkpt lat="48.01098" lon="-3.88888">
        <ele>125.4</ele>
        <time>2023-04-05T09:35:03Z</time>
      </trkpt>
      <trkpt lat="48.01102" lon="-3.88888">
        <ele>125.6</ele>
        <time>2023-04-05T09:35:04Z</time>
      </trkpt>
      <trkpt lat="48.01105" lon="-3.88889">
        <ele>125.7</ele>
        <time>2023-04-05T09:35:05Z</time>
      </trkpt>
      <trkpt lat="48.01109" lon="-3.8889">
        <ele>125.9</ele>
        <time>2023-04-05T09:35:06Z</time>
      </trkpt>
      <trkpt lat="48.01113" lon="-3.88891">
        <ele>126</ele>
        <time>2023-04-05T09:35:07Z</time>
      </trkpt>
      <trkpt lat="48.01117" lon="-3.88891">
        <ele>126.2</ele>
        <time>2023-04-05T09:35:08Z</time>
      </trkpt>
      <trkpt lat="48.01121" lon="-3.88892">
        <ele>126.4</ele>
        <time>2023-04-05T09:35:09Z</time>
      </trkpt>
      <trkpt lat="48.01125" lon="-3.88893">
        <ele>126.5</ele>
        <time>2023-04-05T09:35:10Z</time>
      </trkpt>
      <trkpt lat="48.01129" lon="-3.88894">
        <ele>126.7</ele>
        <time>2023-04-05T09:35:11Z</time>
      </trkpt>
      <trkpt lat="48.01133" lon="-3.88895">
        <ele>126.8</ele>
        <time>2023-04-05T09:35:12Z</time>
      </trkpt>
      <trkpt lat="48.01136" lon="-3.88896">
        <ele>126.9</ele>
        <time>2023-04-05T09:35:13Z</time>
      </trkpt>
      <trkpt lat="48.01141" lon="-3.88896">
        <ele>127.1</ele>
        <time>2023-04-05T09:35:14Z</time>
      </trkpt>
      <trkpt lat="48.01145" lon="-3.88896">
        <ele>127.2</ele>
        <time>2023-04-05T09:35:15Z</time>
      </trkpt>
      <trkpt lat="48.01149" lon="-3.88896">
        <ele>127.4</ele>
        <time>2023-04-05T09:35:16Z</time>
      </trkpt>
      <trkpt lat="48.01153" lon="-3.88896">
        <ele>127.5</ele>
        <time>2023-04-05T09:35:17Z</time>
      </trkpt>
      <trkpt lat="48.01156" lon="-3.88896">
        <ele>127.6</ele>
        <time>2023-04-05T09:35:18Z</time>
      </trkpt>
      <trkpt lat="48.01161" lon="-3.88896">
        <ele>127.8</ele>
        <time>2023-04-05T09:35:19Z</time>
      </trkpt>
      <trkpt lat="48.01165" lon="-3.88896">
        <ele>127.9</ele>
        <time>2023-04-05T09:35:20Z</time>
      </trkpt>
      <trkpt lat="48.01169" lon="-3.88897">
        <ele>128.1</ele>
        <time>2023-04-05T09:35:21Z</time>
      </trkpt>
      <trkpt lat="48.01173" lon="-3.88897">
        <ele>128.3</ele>
        <time>2023-04-05T09:35:22Z</time>
      </trkpt>
      <trkpt lat="48.01177" lon="-3.88897">
        <ele>128.5</ele>
        <time>2023-04-05T09:35:23Z</time>
      </trkpt>
      <trkpt lat="48.01181" lon="-3.88898">
        <ele>128.7</ele>
        <time>2023-04-05T09:35:24Z</time>
      </trkpt>
      <trkpt lat="48.01185" lon="-3.88898">
        <ele>128.9</ele>
        <time>2023-04-05T09:35:25Z</time>
      </trkpt>
      <trkpt lat="48.01189" lon="-3.88899">
        <ele>129.1</ele>
        <time>2023-04-05T09:35:26Z</time>
      </trkpt>
      <trkpt lat="48.01193" lon="-3.88899">
        <ele>129.3</ele>
        <time>2023-04-05T09:35:27Z</time>
      </trkpt>
      <trkpt lat="48.01197" lon="-3.889">
        <ele>129.5</ele>
        <time>2023-04-05T09:35:28Z</time>
      </trkpt>
      <trkpt lat="48.01201" lon="-3.88901">
        <ele>129.6</ele>
        <time>2023-04-05T09:35:29Z</time>
      </trkpt>
      <trkpt lat="48.01205" lon="-3.88902">
        <ele>129.8</ele>
        <time>2023-04-05T09:35:30Z</time>
      </trkpt>
      <trkpt lat="48.01209" lon="-3.88903">
        <ele>129.9</ele>
        <time>2023-04-05T09:35:31Z</time>
      </trkpt>
      <trkpt lat="48.01214" lon="-3.88904">
        <ele>130.1</ele>
        <time>2023-04-05T09:35:32Z</time>
      </trkpt>
      <trkpt lat="48.01218" lon="-3.88905">
        <ele>130.3</ele>
        <time>2023-04-05T09:35:33Z</time>
      </trkpt>
      <trkpt lat="48.01222" lon="-3.88907">
        <ele>130.5</ele>
        <time>2023-04-05T09:35:34Z</time>
      </trkpt>
      <trkpt lat="48.01226" lon="-3.88908">
        <ele>130.8</ele>
        <time>2023-04-05T09:35:35Z</time>
      </trkpt>
      <trkpt lat="48.0123" lon="-3.8891">
        <ele>130.9</ele>
        <time>2023-04-05T09:35:36Z</time>
      </trkpt>
      <trkpt lat="48.01233" lon="-3.88912">
        <ele>131.1</ele>
        <time>2023-04-05T09:35:37Z</time>
      </trkpt>
      <trkpt lat="48.01238" lon="-3.88914">
        <ele>131.2</ele>
        <time>2023-04-05T09:35:38Z</time>
      </trkpt>
      <trkpt lat="48.01242" lon="-3.88916">
        <ele>131.3</ele>
        <time>2023-04-05T09:35:39Z</time>
      </trkpt>
      <trkpt lat="48.01246" lon="-3.88919">
        <ele>131.3</ele>
        <time>2023-04-05T09:35:40Z</time>
      </trkpt>
      <trkpt lat="48.0125" lon="-3.88922">
        <ele>131.3</ele>
        <time>2023-04-05T09:35:41Z</time>
      </trkpt>
      <trkpt lat="48.01254" lon="-3.88925">
        <ele>131.3</ele>
        <time>2023-04-05T09:35:42Z</time>
      </trkpt>
      <trkpt lat="48.01257" lon="-3.88928">
        <ele>131.3</ele>
        <time>2023-04-05T09:35:43Z</time>
      </trkpt>
      <trkpt lat="48.01261" lon="-3.88931">
        <ele>131.3</ele>
        <time>2023-04-05T09:35:44Z</time>
      </trkpt>
      <trkpt lat="48.01266" lon="-3.88934">
        <ele>131.3</ele>
        <time>2023-04-05T09:35:45Z</time>
      </trkpt>
      <trkpt lat="48.0127" lon="-3.88938">
        <ele>131.3</ele>
        <time>2023-04-05T09:35:46Z</time>
      </trkpt>
      <trkpt lat="48.01274" lon="-3.88943">
        <ele>131.3</ele>
        <time>2023-04-05T09:35:47Z</time>
      </trkpt>
      <trkpt lat="48.01278" lon="-3.88946">
        <ele>131.3</ele>
        <time>2023-04-05T09:35:48Z</time>
      </trkpt>
      <trkpt lat="48.01282" lon="-3.8895">
        <ele>131.4</ele>
        <time>2023-04-05T09:35:49Z</time>
      </trkpt>
      <trkpt lat="48.01286" lon="-3.88954">
        <ele>131.4</ele>
        <time>2023-04-05T09:35:50Z</time>
      </trkpt>
      <trkpt lat="48.0129" lon="-3.88957">
        <ele>131.5</ele>
        <time>2023-04-05T09:35:51Z</time>
      </trkpt>
      <trkpt lat="48.01294" lon="-3.88961">
        <ele>131.6</ele>
        <time>2023-04-05T09:35:52Z</time>
      </trkpt>
      <trkpt lat="48.01298" lon="-3.88964">
        <ele>131.6</ele>
        <time>2023-04-05T09:35:53Z</time>
      </trkpt>
      <trkpt lat="48.01303" lon="-3.88968">
        <ele>131.7</ele>
        <time>2023-04-05T09:35:54Z</time>
      </trkpt>
      <trkpt lat="48.01307" lon="-3.88971">
        <ele>131.8</ele>
        <time>2023-04-05T09:35:55Z</time>
      </trkpt>
      <trkpt lat="48.01311" lon="-3.88975">
        <ele>131.8</ele>
        <time>2023-04-05T09:35:56Z</time>
      </trkpt>
      <trkpt lat="48.01315" lon="-3.88978">
        <ele>131.9</ele>
        <time>2023-04-05T09:35:57Z</time>
      </trkpt>
      <trkpt lat="48.01319" lon="-3.88982">
        <ele>131.9</ele>
        <time>2023-04-05T09:35:58Z</time>
      </trkpt>
      <trkpt lat="48.01324" lon="-3.88985">
        <ele>132</ele>
        <time>2023-04-05T09:35:59Z</time>
      </trkpt>
      <trkpt lat="48.01328" lon="-3.88989">
        <ele>132</ele>
        <time>2023-04-05T09:36:00Z</time>
      </trkpt>
      <trkpt lat="48.01332" lon="-3.88992">
        <ele>132.1</ele>
        <time>2023-04-05T09:36:01Z</time>
      </trkpt>
      <trkpt lat="48.01337" lon="-3.88995">
        <ele>132.2</ele>
        <time>2023-04-05T09:36:02Z</time>
      </trkpt>
      <trkpt lat="48.01341" lon="-3.88999">
        <ele>132.2</ele>
        <time>2023-04-05T09:36:03Z</time>
      </trkpt>
      <trkpt lat="48.01345" lon="-3.89002">
        <ele>132.3</ele>
        <time>2023-04-05T09:36:04Z</time>
      </trkpt>
      <trkpt lat="48.01349" lon="-3.89005">
        <ele>132.4</ele>
        <time>2023-04-05T09:36:05Z</time>
      </trkpt>
      <trkpt lat="48.01353" lon="-3.89009">
        <ele>132.5</ele>
        <time>2023-04-05T09:36:06Z</time>
      </trkpt>
      <trkpt lat="48.01357" lon="-3.89012">
        <ele>132.4</ele>
        <time>2023-04-05T09:36:07Z</time>
      </trkpt>
      <trkpt lat="48.01361" lon="-3.89016">
        <ele>132.4</ele>
        <time>2023-04-05T09:36:08Z</time>
      </trkpt>
      <trkpt lat="48.01365" lon="-3.89019">
        <ele>132.3</ele>
        <time>2023-04-05T09:36:09Z</time>
      </trkpt>
      <trkpt lat="48.01369" lon="-3.89022">
        <ele>132.2</ele>
        <time>2023-04-05T09:36:10Z</time>
      </trkpt>
      <trkpt lat="48.01373" lon="-3.89026">
        <ele>132.1</ele>
        <time>2023-04-05T09:36:11Z</time>
      </trkpt>
      <trkpt lat="48.01378" lon="-3.89029">
        <ele>132.1</ele>
        <time>2023-04-05T09:36:12Z</time>
      </trkpt>
      <trkpt lat="48.01382" lon="-3.89033">
        <ele>132.1</ele>
        <time>2023-04-05T09:36:13Z</time>
      </trkpt>
      <trkpt lat="48.01386" lon="-3.89036">
        <ele>132.1</ele>
        <time>2023-04-05T09:36:14Z</time>
      </trkpt>
      <trkpt lat="48.01391" lon="-3.8904">
        <ele>132.1</ele>
        <time>2023-04-05T09:36:15Z</time>
      </trkpt>
      <trkpt lat="48.01395" lon="-3.89043">
        <ele>132</ele>
        <time>2023-04-05T09:36:16Z</time>
      </trkpt>
      <trkpt lat="48.01399" lon="-3.89047">
        <ele>131.9</ele>
        <time>2023-04-05T09:36:17Z</time>
      </trkpt>
      <trkpt lat="48.01404" lon="-3.89051">
        <ele>131.7</ele>
        <time>2023-04-05T09:36:18Z</time>
      </trkpt>
      <trkpt lat="48.01408" lon="-3.89054">
        <ele>131.6</ele>
        <time>2023-04-05T09:36:19Z</time>
      </trkpt>
      <trkpt lat="48.01413" lon="-3.89058">
        <ele>131.4</ele>
        <time>2023-04-05T09:36:20Z</time>
      </trkpt>
      <trkpt lat="48.01418" lon="-3.89062">
        <ele>131.2</ele>
        <time>2023-04-05T09:36:21Z</time>
      </trkpt>
      <trkpt lat="48.01422" lon="-3.89066">
        <ele>131</ele>
        <time>2023-04-05T09:36:22Z</time>
      </trkpt>
      <trkpt lat="48.01427" lon="-3.8907">
        <ele>130.8</ele>
        <time>2023-04-05T09:36:23Z</time>
      </trkpt>
      <trkpt lat="48.01432" lon="-3.89074">
        <ele>130.6</ele>
        <time>2023-04-05T09:36:24Z</time>
      </trkpt>
      <trkpt lat="48.01437" lon="-3.89079">
        <ele>130.4</ele>
        <time>2023-04-05T09:36:25Z</time>
      </trkpt>
      <trkpt lat="48.01443" lon="-3.89083">
        <ele>130.3</ele>
        <time>2023-04-05T09:36:26Z</time>
      </trkpt>
      <trkpt lat="48.01448" lon="-3.89087">
        <ele>130.1</ele>
        <time>2023-04-05T09:36:27Z</time>
      </trkpt>
      <trkpt lat="48.01454" lon="-3.89091">
        <ele>130</ele>
        <time>2023-04-05T09:36:28Z</time>
      </trkpt>
      <trkpt lat="48.01459" lon="-3.89095">
        <ele>129.8</ele>
        <time>2023-04-05T09:36:29Z</time>
      </trkpt>
      <trkpt lat="48.01465" lon="-3.891">
        <ele>129.7</ele>
        <time>2023-04-05T09:36:30Z</time>
      </trkpt>
      <trkpt lat="48.0147" lon="-3.89105">
        <ele>129.5</ele>
        <time>2023-04-05T09:36:31Z</time>
      </trkpt>
      <trkpt lat="48.01476" lon="-3.8911">
        <ele>129.3</ele>
        <time>2023-04-05T09:36:32Z</time>
      </trkpt>
      <trkpt lat="48.01482" lon="-3.89114">
        <ele>129.1</ele>
        <time>2023-04-05T09:36:33Z</time>
      </trkpt>
      <trkpt lat="48.01487" lon="-3.89119">
        <ele>128.9</ele>
        <time>2023-04-05T09:36:34Z</time>
      </trkpt>
      <trkpt lat="48.01493" lon="-3.89124">
        <ele>128.7</ele>
        <time>2023-04-05T09:36:35Z</time>
      </trkpt>
      <trkpt lat="48.01498" lon="-3.89129">
        <ele>128.5</ele>
        <time>2023-04-05T09:36:36Z</time>
      </trkpt>
      <trkpt lat="48.01504" lon="-3.89133">
        <ele>128.3</ele>
        <time>2023-04-05T09:36:37Z</time>
      </trkpt>
      <trkpt lat="48.0151" lon="-3.89137">
        <ele>128.1</ele>
        <time>2023-04-05T09:36:38Z</time>
      </trkpt>
      <trkpt lat="48.01515" lon="-3.89142">
        <ele>127.9</ele>
        <time>2023-04-05T09:36:39Z</time>
      </trkpt>
      <trkpt lat="48.01521" lon="-3.89146">
        <ele>127.7</ele>
        <time>2023-04-05T09:36:40Z</time>
      </trkpt>
      <trkpt lat="48.01527" lon="-3.89149">
        <ele>127.5</ele>
        <time>2023-04-05T09:36:41Z</time>
      </trkpt>
      <trkpt lat="48.01534" lon="-3.89151">
        <ele>127.2</ele>
        <time>2023-04-05T09:36:42Z</time>
      </trkpt>
      <trkpt lat="48.01541" lon="-3.89153">
        <ele>126.8</ele>
        <time>2023-04-05T09:36:43Z</time>
      </trkpt>
      <trkpt lat="48.01548" lon="-3.89153">
        <ele>126.3</ele>
        <time>2023-04-05T09:36:44Z</time>
      </trkpt>
      <trkpt lat="48.01556" lon="-3.89153">
        <ele>125.6</ele>
        <time>2023-04-05T09:36:45Z</time>
      </trkpt>
      <trkpt lat="48.01564" lon="-3.89151">
        <ele>124.6</ele>
        <time>2023-04-05T09:36:46Z</time>
      </trkpt>
      <trkpt lat="48.01574" lon="-3.89148">
        <ele>123.4</ele>
        <time>2023-04-05T09:36:47Z</time>
      </trkpt>
      <trkpt lat="48.01583" lon="-3.89143">
        <ele>122.4</ele>
        <time>2023-04-05T09:36:48Z</time>
      </trkpt>
      <trkpt lat="48.01593" lon="-3.89138">
        <ele>121</ele>
        <time>2023-04-05T09:36:49Z</time>
      </trkpt>
      <trkpt lat="48.01604" lon="-3.89133">
        <ele>119.4</ele>
        <time>2023-04-05T09:36:50Z</time>
      </trkpt>
      <trkpt lat="48.01615" lon="-3.89126">
        <ele>118</ele>
        <time>2023-04-05T09:36:51Z</time>
      </trkpt>
      <trkpt lat="48.01626" lon="-3.8912">
        <ele>116.7</ele>
        <time>2023-04-05T09:36:52Z</time>
      </trkpt>
      <trkpt lat="48.01637" lon="-3.89115">
        <ele>115.9</ele>
        <time>2023-04-05T09:36:53Z</time>
      </trkpt>
      <trkpt lat="48.01647" lon="-3.89108">
        <ele>115.2</ele>
        <time>2023-04-05T09:36:54Z</time>
      </trkpt>
      <trkpt lat="48.01656" lon="-3.89101">
        <ele>114.5</ele>
        <time>2023-04-05T09:36:55Z</time>
      </trkpt>
      <trkpt lat="48.01665" lon="-3.89091">
        <ele>114.1</ele>
        <time>2023-04-05T09:36:56Z</time>
      </trkpt>
      <trkpt lat="48.01674" lon="-3.8908">
        <ele>113.9</ele>
        <time>2023-04-05T09:36:57Z</time>
      </trkpt>
      <trkpt lat="48.01681" lon="-3.89069">
        <ele>113.5</ele>
        <time>2023-04-05T09:36:58Z</time>
      </trkpt>
      <trkpt lat="48.01689" lon="-3.89057">
        <ele>112.8</ele>
        <time>2023-04-05T09:36:59Z</time>
      </trkpt>
      <trkpt lat="48.01696" lon="-3.89045">
        <ele>111.8</ele>
        <time>2023-04-05T09:37:00Z</time>
      </trkpt>
      <trkpt lat="48.01703" lon="-3.89032">
        <ele>110.6</ele>
        <time>2023-04-05T09:37:01Z</time>
      </trkpt>
      <trkpt lat="48.01709" lon="-3.89018">
        <ele>109.4</ele>
        <time>2023-04-05T09:37:02Z</time>
      </trkpt>
      <trkpt lat="48.01716" lon="-3.89004">
        <ele>108.1</ele>
        <time>2023-04-05T09:37:03Z</time>
      </trkpt>
      <trkpt lat="48.01722" lon="-3.8899">
        <ele>106.9</ele>
        <time>2023-04-05T09:37:04Z</time>
      </trkpt>
      <trkpt lat="48.01728" lon="-3.88976">
        <ele>105.9</ele>
        <time>2023-04-05T09:37:05Z</time>
      </trkpt>
      <trkpt lat="48.01734" lon="-3.8896">
        <ele>105</ele>
        <time>2023-04-05T09:37:06Z</time>
      </trkpt>
      <trkpt lat="48.0174" lon="-3.88945">
        <ele>104.1</ele>
        <time>2023-04-05T09:37:07Z</time>
      </trkpt>
      <trkpt lat="48.01746" lon="-3.88931">
        <ele>103.2</ele>
        <time>2023-04-05T09:37:08Z</time>
      </trkpt>
      <trkpt lat="48.01753" lon="-3.88916">
        <ele>102.4</ele>
        <time>2023-04-05T09:37:09Z</time>
      </trkpt>
      <trkpt lat="48.01761" lon="-3.88905">
        <ele>101.7</ele>
        <time>2023-04-05T09:37:10Z</time>
      </trkpt>
      <trkpt lat="48.0177" lon="-3.88894">
        <ele>101.3</ele>
        <time>2023-04-05T09:37:11Z</time>
      </trkpt>
      <trkpt lat="48.0178" lon="-3.88882">
        <ele>101</ele>
        <time>2023-04-05T09:37:12Z</time>
      </trkpt>
      <trkpt lat="48.0179" lon="-3.88874">
        <ele>100.9</ele>
        <time>2023-04-05T09:37:13Z</time>
      </trkpt>
      <trkpt lat="48.018" lon="-3.88869">
        <ele>100.9</ele>
        <time>2023-04-05T09:37:14Z</time>
      </trkpt>
      <trkpt lat="48.0181" lon="-3.88866">
        <ele>101.1</ele>
        <time>2023-04-05T09:37:15Z</time>
      </trkpt>
      <trkpt lat="48.0182" lon="-3.88862">
        <ele>101.4</ele>
        <time>2023-04-05T09:37:16Z</time>
      </trkpt>
      <trkpt lat="48.0183" lon="-3.8886">
        <ele>101.9</ele>
        <time>2023-04-05T09:37:17Z</time>
      </trkpt>
      <trkpt lat="48.01839" lon="-3.88856">
        <ele>102.4</ele>
        <time>2023-04-05T09:37:18Z</time>
      </trkpt>
      <trkpt lat="48.01848" lon="-3.88852">
        <ele>103</ele>
        <time>2023-04-05T09:37:19Z</time>
      </trkpt>
      <trkpt lat="48.01856" lon="-3.88849">
        <ele>103.7</ele>
        <time>2023-04-05T09:37:20Z</time>
      </trkpt>
      <trkpt lat="48.01863" lon="-3.88845">
        <ele>104.2</ele>
        <time>2023-04-05T09:37:21Z</time>
      </trkpt>
      <trkpt lat="48.01869" lon="-3.88841">
        <ele>104.8</ele>
        <time>2023-04-05T09:37:22Z</time>
      </trkpt>
      <trkpt lat="48.01875" lon="-3.88837">
        <ele>105.4</ele>
        <time>2023-04-05T09:37:23Z</time>
      </trkpt>
      <trkpt lat="48.0188" lon="-3.88832">
        <ele>106.1</ele>
        <time>2023-04-05T09:37:24Z</time>
      </trkpt>
      <trkpt lat="48.01884" lon="-3.88828">
        <ele>106.7</ele>
        <time>2023-04-05T09:37:25Z</time>
      </trkpt>
      <trkpt lat="48.01887" lon="-3.88825">
        <ele>107.2</ele>
        <time>2023-04-05T09:37:26Z</time>
      </trkpt>
      <trkpt lat="48.0189" lon="-3.8882">
        <ele>107.7</ele>
        <time>2023-04-05T09:37:27Z</time>
      </trkpt>
      <trkpt lat="48.01892" lon="-3.88818">
        <ele>108</ele>
        <time>2023-04-05T09:37:28Z</time>
      </trkpt>
      <trkpt lat="48.01895" lon="-3.88815">
        <ele>108.4</ele>
        <time>2023-04-05T09:37:29Z</time>
      </trkpt>
      <trkpt lat="48.01897" lon="-3.88812">
        <ele>108.8</ele>
        <time>2023-04-05T09:37:30Z</time>
      </trkpt>
      <trkpt lat="48.01899" lon="-3.88808">
        <ele>109.2</ele>
        <time>2023-04-05T09:37:31Z</time>
      </trkpt>
      <trkpt lat="48.01902" lon="-3.88805">
        <ele>109.6</ele>
        <time>2023-04-05T09:37:32Z</time>
      </trkpt>
      <trkpt lat="48.01904" lon="-3.88801">
        <ele>110.1</ele>
        <time>2023-04-05T09:37:33Z</time>
      </trkpt>
      <trkpt lat="48.01905" lon="-3.888">
        <ele>110.2</ele>
        <time>2023-04-05T09:37:34Z</time>
      </trkpt>
      <trkpt lat="48.01908" lon="-3.88797">
        <ele>110.7</ele>
        <time>2023-04-05T09:37:35Z</time>
      </trkpt>
      <trkpt lat="48.01913" lon="-3.88792">
        <ele>111.3</ele>
        <time>2023-04-05T09:37:37Z</time>
      </trkpt>
      <trkpt lat="48.01915" lon="-3.88789">
        <ele>111.7</ele>
        <time>2023-04-05T09:37:38Z</time>
      </trkpt>
      <trkpt lat="48.01917" lon="-3.88786">
        <ele>112.1</ele>
        <time>2023-04-05T09:37:39Z</time>
      </trkpt>
      <trkpt lat="48.01919" lon="-3.88783">
        <ele>112.4</ele>
        <time>2023-04-05T09:37:40Z</time>
      </trkpt>
      <trkpt lat="48.01922" lon="-3.88781">
        <ele>112.8</ele>
        <time>2023-04-05T09:37:41Z</time>
      </trkpt>
      <trkpt lat="48.01924" lon="-3.88778">
        <ele>113.1</ele>
        <time>2023-04-05T09:37:42Z</time>
      </trkpt>
      <trkpt lat="48.01926" lon="-3.88775">
        <ele>113.4</ele>
        <time>2023-04-05T09:37:43Z</time>
      </trkpt>
      <trkpt lat="48.01928" lon="-3.88772">
        <ele>113.7</ele>
        <time>2023-04-05T09:37:44Z</time>
      </trkpt>
      <trkpt lat="48.01932" lon="-3.88767">
        <ele>114.3</ele>
        <time>2023-04-05T09:37:45Z</time>
      </trkpt>
      <trkpt lat="48.01938" lon="-3.88761">
        <ele>115.1</ele>
        <time>2023-04-05T09:37:47Z</time>
      </trkpt>
      <trkpt lat="48.01942" lon="-3.88758">
        <ele>115.6</ele>
        <time>2023-04-05T09:37:49Z</time>
      </trkpt>
      <trkpt lat="48.01943" lon="-3.88756">
        <ele>115.7</ele>
        <time>2023-04-05T09:37:50Z</time>
      </trkpt>
      <trkpt lat="48.01945" lon="-3.88755">
        <ele>115.9</ele>
        <time>2023-04-05T09:37:51Z</time>
      </trkpt>
      <trkpt lat="48.01948" lon="-3.88752">
        <ele>116.3</ele>
        <time>2023-04-05T09:37:52Z</time>
      </trkpt>
      <trkpt lat="48.01949" lon="-3.88752">
        <ele>116.4</ele>
        <time>2023-04-05T09:37:53Z</time>
      </trkpt>
      <trkpt lat="48.01952" lon="-3.8875">
        <ele>116.6</ele>
        <time>2023-04-05T09:37:54Z</time>
      </trkpt>
      <trkpt lat="48.01955" lon="-3.88747">
        <ele>117</ele>
        <time>2023-04-05T09:37:55Z</time>
      </trkpt>
      <trkpt lat="48.01956" lon="-3.88746">
        <ele>117.1</ele>
        <time>2023-04-05T09:37:56Z</time>
      </trkpt>
      <trkpt lat="48.01959" lon="-3.88742">
        <ele>117.4</ele>
        <time>2023-04-05T09:37:57Z</time>
      </trkpt>
      <trkpt lat="48.0196" lon="-3.88741">
        <ele>117.5</ele>
        <time>2023-04-05T09:37:58Z</time>
      </trkpt>
      <trkpt lat="48.01963" lon="-3.88739">
        <ele>117.8</ele>
        <time>2023-04-05T09:37:59Z</time>
      </trkpt>
      <trkpt lat="48.01966" lon="-3.88735">
        <ele>118.1</ele>
        <time>2023-04-05T09:38:00Z</time>
      </trkpt>
      <trkpt lat="48.01967" lon="-3.88733">
        <ele>118.2</ele>
        <time>2023-04-05T09:38:01Z</time>
      </trkpt>
      <trkpt lat="48.01969" lon="-3.8873">
        <ele>118.4</ele>
        <time>2023-04-05T09:38:02Z</time>
      </trkpt>
      <trkpt lat="48.01972" lon="-3.88727">
        <ele>118.6</ele>
        <time>2023-04-05T09:38:03Z</time>
      </trkpt>
      <trkpt lat="48.01973" lon="-3.88726">
        <ele>118.7</ele>
        <time>2023-04-05T09:38:04Z</time>
      </trkpt>
      <trkpt lat="48.01976" lon="-3.88724">
        <ele>118.9</ele>
        <time>2023-04-05T09:38:05Z</time>
      </trkpt>
      <trkpt lat="48.01979" lon="-3.88721">
        <ele>119.1</ele>
        <time>2023-04-05T09:38:06Z</time>
      </trkpt>
      <trkpt lat="48.01981" lon="-3.8872">
        <ele>119.2</ele>
        <time>2023-04-05T09:38:07Z</time>
      </trkpt>
      <trkpt lat="48.01983" lon="-3.88718">
        <ele>119.4</ele>
        <time>2023-04-05T09:38:08Z</time>
      </trkpt>
      <trkpt lat="48.01986" lon="-3.88715">
        <ele>119.6</ele>
        <time>2023-04-05T09:38:09Z</time>
      </trkpt>
      <trkpt lat="48.01988" lon="-3.88712">
        <ele>119.7</ele>
        <time>2023-04-05T09:38:10Z</time>
      </trkpt>
      <trkpt lat="48.01991" lon="-3.88709">
        <ele>119.9</ele>
        <time>2023-04-05T09:38:11Z</time>
      </trkpt>
      <trkpt lat="48.01993" lon="-3.88706">
        <ele>120</ele>
        <time>2023-04-05T09:38:12Z</time>
      </trkpt>
      <trkpt lat="48.01995" lon="-3.88703">
        <ele>120.2</ele>
        <time>2023-04-05T09:38:13Z</time>
      </trkpt>
      <trkpt lat="48.01998" lon="-3.887">
        <ele>120.3</ele>
        <time>2023-04-05T09:38:14Z</time>
      </trkpt>
      <trkpt lat="48.02001" lon="-3.88697">
        <ele>120.5</ele>
        <time>2023-04-05T09:38:15Z</time>
      </trkpt>
      <trkpt lat="48.02004" lon="-3.88693">
        <ele>120.6</ele>
        <time>2023-04-05T09:38:16Z</time>
      </trkpt>
      <trkpt lat="48.02005" lon="-3.88691">
        <ele>120.7</ele>
        <time>2023-04-05T09:38:17Z</time>
      </trkpt>
      <trkpt lat="48.02008" lon="-3.88688">
        <ele>120.8</ele>
        <time>2023-04-05T09:38:18Z</time>
      </trkpt>
      <trkpt lat="48.0201" lon="-3.88685">
        <ele>120.9</ele>
        <time>2023-04-05T09:38:19Z</time>
      </trkpt>
      <trkpt lat="48.02013" lon="-3.88681">
        <ele>121</ele>
        <time>2023-04-05T09:38:20Z</time>
      </trkpt>
      <trkpt lat="48.02015" lon="-3.88677">
        <ele>121.1</ele>
        <time>2023-04-05T09:38:21Z</time>
      </trkpt>
      <trkpt lat="48.02018" lon="-3.88674">
        <ele>121.2</ele>
        <time>2023-04-05T09:38:22Z</time>
      </trkpt>
      <trkpt lat="48.02021" lon="-3.88671">
        <ele>121.3</ele>
        <time>2023-04-05T09:38:23Z</time>
      </trkpt>
      <trkpt lat="48.02024" lon="-3.88666">
        <ele>121.4</ele>
        <time>2023-04-05T09:38:24Z</time>
      </trkpt>
      <trkpt lat="48.02026" lon="-3.88663">
        <ele>121.5</ele>
        <time>2023-04-05T09:38:25Z</time>
      </trkpt>
      <trkpt lat="48.02029" lon="-3.88659">
        <ele>121.5</ele>
        <time>2023-04-05T09:38:26Z</time>
      </trkpt>
      <trkpt lat="48.02032" lon="-3.88655">
        <ele>121.6</ele>
        <time>2023-04-05T09:38:27Z</time>
      </trkpt>
      <trkpt lat="48.02035" lon="-3.88652">
        <ele>121.7</ele>
        <time>2023-04-05T09:38:28Z</time>
      </trkpt>
      <trkpt lat="48.02038" lon="-3.88647">
        <ele>121.7</ele>
        <time>2023-04-05T09:38:29Z</time>
      </trkpt>
      <trkpt lat="48.0204" lon="-3.88642">
        <ele>121.8</ele>
        <time>2023-04-05T09:38:30Z</time>
      </trkpt>
      <trkpt lat="48.02043" lon="-3.88638">
        <ele>121.8</ele>
        <time>2023-04-05T09:38:31Z</time>
      </trkpt>
      <trkpt lat="48.02046" lon="-3.88634">
        <ele>121.9</ele>
        <time>2023-04-05T09:38:32Z</time>
      </trkpt>
      <trkpt lat="48.0205" lon="-3.8863">
        <ele>121.9</ele>
        <time>2023-04-05T09:38:33Z</time>
      </trkpt>
      <trkpt lat="48.02053" lon="-3.88625">
        <ele>121.9</ele>
        <time>2023-04-05T09:38:34Z</time>
      </trkpt>
      <trkpt lat="48.02057" lon="-3.88621">
        <ele>121.9</ele>
        <time>2023-04-05T09:38:35Z</time>
      </trkpt>
      <trkpt lat="48.02061" lon="-3.88617">
        <ele>122</ele>
        <time>2023-04-05T09:38:36Z</time>
      </trkpt>
      <trkpt lat="48.02064" lon="-3.88612">
        <ele>122</ele>
        <time>2023-04-05T09:38:37Z</time>
      </trkpt>
      <trkpt lat="48.02068" lon="-3.88608">
        <ele>122</ele>
        <time>2023-04-05T09:38:38Z</time>
      </trkpt>
      <trkpt lat="48.02072" lon="-3.88604">
        <ele>122</ele>
        <time>2023-04-05T09:38:39Z</time>
      </trkpt>
      <trkpt lat="48.02075" lon="-3.886">
        <ele>122</ele>
        <time>2023-04-05T09:38:40Z</time>
      </trkpt>
      <trkpt lat="48.02079" lon="-3.88596">
        <ele>122.1</ele>
        <time>2023-04-05T09:38:41Z</time>
      </trkpt>
      <trkpt lat="48.02083" lon="-3.88592">
        <ele>122.1</ele>
        <time>2023-04-05T09:38:42Z</time>
      </trkpt>
      <trkpt lat="48.02088" lon="-3.88585">
        <ele>122.2</ele>
        <time>2023-04-05T09:38:44Z</time>
      </trkpt>
      <trkpt lat="48.02093" lon="-3.8858">
        <ele>122.3</ele>
        <time>2023-04-05T09:38:45Z</time>
      </trkpt>
      <trkpt lat="48.02097" lon="-3.88577">
        <ele>122.3</ele>
        <time>2023-04-05T09:38:46Z</time>
      </trkpt>
      <trkpt lat="48.02103" lon="-3.88571">
        <ele>122.4</ele>
        <time>2023-04-05T09:38:48Z</time>
      </trkpt>
      <trkpt lat="48.02108" lon="-3.88566">
        <ele>122.5</ele>
        <time>2023-04-05T09:38:49Z</time>
      </trkpt>
      <trkpt lat="48.02114" lon="-3.88564">
        <ele>122.6</ele>
        <time>2023-04-05T09:38:51Z</time>
      </trkpt>
      <trkpt lat="48.02119" lon="-3.88556">
        <ele>122.7</ele>
        <time>2023-04-05T09:38:52Z</time>
      </trkpt>
      <trkpt lat="48.02123" lon="-3.88551">
        <ele>122.8</ele>
        <time>2023-04-05T09:38:53Z</time>
      </trkpt>
      <trkpt lat="48.02127" lon="-3.88546">
        <ele>122.9</ele>
        <time>2023-04-05T09:38:54Z</time>
      </trkpt>
      <trkpt lat="48.02131" lon="-3.88541">
        <ele>122.9</ele>
        <time>2023-04-05T09:38:55Z</time>
      </trkpt>
      <trkpt lat="48.02134" lon="-3.88537">
        <ele>123</ele>
        <time>2023-04-05T09:38:56Z</time>
      </trkpt>
      <trkpt lat="48.02138" lon="-3.88532">
        <ele>123</ele>
        <time>2023-04-05T09:38:57Z</time>
      </trkpt>
      <trkpt lat="48.02142" lon="-3.88528">
        <ele>123.1</ele>
        <time>2023-04-05T09:38:58Z</time>
      </trkpt>
      <trkpt lat="48.02146" lon="-3.88524">
        <ele>123.2</ele>
        <time>2023-04-05T09:38:59Z</time>
      </trkpt>
      <trkpt lat="48.02149" lon="-3.88519">
        <ele>123.3</ele>
        <time>2023-04-05T09:39:00Z</time>
      </trkpt>
      <trkpt lat="48.02153" lon="-3.88515">
        <ele>123.4</ele>
        <time>2023-04-05T09:39:01Z</time>
      </trkpt>
      <trkpt lat="48.02157" lon="-3.88511">
        <ele>123.5</ele>
        <time>2023-04-05T09:39:02Z</time>
      </trkpt>
      <trkpt lat="48.0216" lon="-3.88507">
        <ele>123.6</ele>
        <time>2023-04-05T09:39:03Z</time>
      </trkpt>
      <trkpt lat="48.02164" lon="-3.88503">
        <ele>123.7</ele>
        <time>2023-04-05T09:39:04Z</time>
      </trkpt>
      <trkpt lat="48.02169" lon="-3.88499">
        <ele>123.8</ele>
        <time>2023-04-05T09:39:05Z</time>
      </trkpt>
      <trkpt lat="48.02173" lon="-3.88495">
        <ele>123.9</ele>
        <time>2023-04-05T09:39:06Z</time>
      </trkpt>
      <trkpt lat="48.02177" lon="-3.88491">
        <ele>124.1</ele>
        <time>2023-04-05T09:39:07Z</time>
      </trkpt>
      <trkpt lat="48.02181" lon="-3.88487">
        <ele>124.2</ele>
        <time>2023-04-05T09:39:08Z</time>
      </trkpt>
      <trkpt lat="48.02185" lon="-3.88483">
        <ele>124.3</ele>
        <time>2023-04-05T09:39:09Z</time>
      </trkpt>
      <trkpt lat="48.02189" lon="-3.8848">
        <ele>124.4</ele>
        <time>2023-04-05T09:39:10Z</time>
      </trkpt>
      <trkpt lat="48.02192" lon="-3.88477">
        <ele>124.4</ele>
        <time>2023-04-05T09:39:11Z</time>
      </trkpt>
      <trkpt lat="48.02196" lon="-3.88473">
        <ele>124.5</ele>
        <time>2023-04-05T09:39:12Z</time>
      </trkpt>
      <trkpt lat="48.02201" lon="-3.88469">
        <ele>124.5</ele>
        <time>2023-04-05T09:39:13Z</time>
      </trkpt>
      <trkpt lat="48.02205" lon="-3.88465">
        <ele>124.6</ele>
        <time>2023-04-05T09:39:14Z</time>
      </trkpt>
      <trkpt lat="48.0221" lon="-3.88461">
        <ele>124.6</ele>
        <time>2023-04-05T09:39:15Z</time>
      </trkpt>
      <trkpt lat="48.02214" lon="-3.88458">
        <ele>124.7</ele>
        <time>2023-04-05T09:39:16Z</time>
      </trkpt>
      <trkpt lat="48.02218" lon="-3.88454">
        <ele>124.7</ele>
        <time>2023-04-05T09:39:17Z</time>
      </trkpt>
      <trkpt lat="48.02222" lon="-3.8845">
        <ele>124.8</ele>
        <time>2023-04-05T09:39:18Z</time>
      </trkpt>
      <trkpt lat="48.02226" lon="-3.88446">
        <ele>124.9</ele>
        <time>2023-04-05T09:39:19Z</time>
      </trkpt>
      <trkpt lat="48.0223" lon="-3.88442">
        <ele>125</ele>
        <time>2023-04-05T09:39:20Z</time>
      </trkpt>
      <trkpt lat="48.02234" lon="-3.88438">
        <ele>125.1</ele>
        <time>2023-04-05T09:39:21Z</time>
      </trkpt>
      <trkpt lat="48.02238" lon="-3.88433">
        <ele>125.2</ele>
        <time>2023-04-05T09:39:22Z</time>
      </trkpt>
      <trkpt lat="48.02242" lon="-3.88428">
        <ele>125.3</ele>
        <time>2023-04-05T09:39:23Z</time>
      </trkpt>
      <trkpt lat="48.02246" lon="-3.88423">
        <ele>125.4</ele>
        <time>2023-04-05T09:39:24Z</time>
      </trkpt>
      <trkpt lat="48.0225" lon="-3.88419">
        <ele>125.6</ele>
        <time>2023-04-05T09:39:25Z</time>
      </trkpt>
      <trkpt lat="48.02254" lon="-3.88415">
        <ele>125.7</ele>
        <time>2023-04-05T09:39:26Z</time>
      </trkpt>
      <trkpt lat="48.02257" lon="-3.8841">
        <ele>125.9</ele>
        <time>2023-04-05T09:39:27Z</time>
      </trkpt>
      <trkpt lat="48.02261" lon="-3.88405">
        <ele>126.1</ele>
        <time>2023-04-05T09:39:28Z</time>
      </trkpt>
      <trkpt lat="48.02264" lon="-3.884">
        <ele>126.3</ele>
        <time>2023-04-05T09:39:29Z</time>
      </trkpt>
      <trkpt lat="48.02267" lon="-3.88395">
        <ele>126.5</ele>
        <time>2023-04-05T09:39:30Z</time>
      </trkpt>
      <trkpt lat="48.0227" lon="-3.8839">
        <ele>126.7</ele>
        <time>2023-04-05T09:39:31Z</time>
      </trkpt>
      <trkpt lat="48.02273" lon="-3.88385">
        <ele>126.8</ele>
        <time>2023-04-05T09:39:32Z</time>
      </trkpt>
      <trkpt lat="48.02276" lon="-3.8838">
        <ele>127</ele>
        <time>2023-04-05T09:39:33Z</time>
      </trkpt>
      <trkpt lat="48.0228" lon="-3.88375">
        <ele>127.2</ele>
        <time>2023-04-05T09:39:34Z</time>
      </trkpt>
      <trkpt lat="48.02281" lon="-3.88372">
        <ele>127.3</ele>
        <time>2023-04-05T09:39:35Z</time>
      </trkpt>
      <trkpt lat="48.02285" lon="-3.88367">
        <ele>127.5</ele>
        <time>2023-04-05T09:39:36Z</time>
      </trkpt>
      <trkpt lat="48.02289" lon="-3.88362">
        <ele>127.8</ele>
        <time>2023-04-05T09:39:37Z</time>
      </trkpt>
      <trkpt lat="48.02292" lon="-3.88358">
        <ele>128</ele>
        <time>2023-04-05T09:39:38Z</time>
      </trkpt>
      <trkpt lat="48.02296" lon="-3.88353">
        <ele>128.2</ele>
        <time>2023-04-05T09:39:39Z</time>
      </trkpt>
      <trkpt lat="48.023" lon="-3.88349">
        <ele>128.4</ele>
        <time>2023-04-05T09:39:40Z</time>
      </trkpt>
      <trkpt lat="48.02304" lon="-3.88345">
        <ele>128.6</ele>
        <time>2023-04-05T09:39:41Z</time>
      </trkpt>
      <trkpt lat="48.02308" lon="-3.88341">
        <ele>128.8</ele>
        <time>2023-04-05T09:39:42Z</time>
      </trkpt>
      <trkpt lat="48.02311" lon="-3.88337">
        <ele>129</ele>
        <time>2023-04-05T09:39:43Z</time>
      </trkpt>
      <trkpt lat="48.02315" lon="-3.88334">
        <ele>129.2</ele>
        <time>2023-04-05T09:39:44Z</time>
      </trkpt>
      <trkpt lat="48.0232" lon="-3.8833">
        <ele>129.5</ele>
        <time>2023-04-05T09:39:45Z</time>
      </trkpt>
      <trkpt lat="48.02324" lon="-3.88327">
        <ele>129.7</ele>
        <time>2023-04-05T09:39:46Z</time>
      </trkpt>
      <trkpt lat="48.02328" lon="-3.88324">
        <ele>129.9</ele>
        <time>2023-04-05T09:39:47Z</time>
      </trkpt>
      <trkpt lat="48.02332" lon="-3.8832">
        <ele>130.2</ele>
        <time>2023-04-05T09:39:48Z</time>
      </trkpt>
      <trkpt lat="48.02336" lon="-3.88317">
        <ele>130.4</ele>
        <time>2023-04-05T09:39:49Z</time>
      </trkpt>
      <trkpt lat="48.0234" lon="-3.88313">
        <ele>130.6</ele>
        <time>2023-04-05T09:39:50Z</time>
      </trkpt>
      <trkpt lat="48.02344" lon="-3.8831">
        <ele>130.9</ele>
        <time>2023-04-05T09:39:51Z</time>
      </trkpt>
      <trkpt lat="48.02347" lon="-3.88306">
        <ele>131.1</ele>
        <time>2023-04-05T09:39:52Z</time>
      </trkpt>
      <trkpt lat="48.02351" lon="-3.88302">
        <ele>131.4</ele>
        <time>2023-04-05T09:39:53Z</time>
      </trkpt>
      <trkpt lat="48.02354" lon="-3.88299">
        <ele>131.6</ele>
        <time>2023-04-05T09:39:54Z</time>
      </trkpt>
      <trkpt lat="48.02358" lon="-3.88296">
        <ele>131.9</ele>
        <time>2023-04-05T09:39:55Z</time>
      </trkpt>
      <trkpt lat="48.02361" lon="-3.88293">
        <ele>132.1</ele>
        <time>2023-04-05T09:39:56Z</time>
      </trkpt>
      <trkpt lat="48.02365" lon="-3.88289">
        <ele>132.3</ele>
        <time>2023-04-05T09:39:57Z</time>
      </trkpt>
      <trkpt lat="48.02368" lon="-3.88286">
        <ele>132.6</ele>
        <time>2023-04-05T09:39:58Z</time>
      </trkpt>
      <trkpt lat="48.02371" lon="-3.88283">
        <ele>132.8</ele>
        <time>2023-04-05T09:39:59Z</time>
      </trkpt>
      <trkpt lat="48.02374" lon="-3.88281">
        <ele>133</ele>
        <time>2023-04-05T09:40:00Z</time>
      </trkpt>
      <trkpt lat="48.02378" lon="-3.88277">
        <ele>133.3</ele>
        <time>2023-04-05T09:40:01Z</time>
      </trkpt>
      <trkpt lat="48.02381" lon="-3.88274">
        <ele>133.5</ele>
        <time>2023-04-05T09:40:02Z</time>
      </trkpt>
      <trkpt lat="48.02384" lon="-3.88271">
        <ele>133.7</ele>
        <time>2023-04-05T09:40:03Z</time>
      </trkpt>
      <trkpt lat="48.02387" lon="-3.88269">
        <ele>133.9</ele>
        <time>2023-04-05T09:40:04Z</time>
      </trkpt>
      <trkpt lat="48.02393" lon="-3.88262">
        <ele>134.3</ele>
        <time>2023-04-05T09:40:06Z</time>
      </trkpt>
      <trkpt lat="48.02398" lon="-3.88258">
        <ele>134.6</ele>
        <time>2023-04-05T09:40:07Z</time>
      </trkpt>
      <trkpt lat="48.02404" lon="-3.88251">
        <ele>135</ele>
        <time>2023-04-05T09:40:08Z</time>
      </trkpt>
      <trkpt lat="48.02407" lon="-3.88248">
        <ele>135.2</ele>
        <time>2023-04-05T09:40:09Z</time>
      </trkpt>
      <trkpt lat="48.0241" lon="-3.88244">
        <ele>135.4</ele>
        <time>2023-04-05T09:40:11Z</time>
      </trkpt>
      <trkpt lat="48.02414" lon="-3.88241">
        <ele>135.6</ele>
        <time>2023-04-05T09:40:12Z</time>
      </trkpt>
      <trkpt lat="48.02421" lon="-3.88237">
        <ele>136</ele>
        <time>2023-04-05T09:40:13Z</time>
      </trkpt>
      <trkpt lat="48.02425" lon="-3.88233">
        <ele>136.2</ele>
        <time>2023-04-05T09:40:15Z</time>
      </trkpt>
      <trkpt lat="48.02429" lon="-3.88231">
        <ele>136.4</ele>
        <time>2023-04-05T09:40:16Z</time>
      </trkpt>
      <trkpt lat="48.02433" lon="-3.88228">
        <ele>136.6</ele>
        <time>2023-04-05T09:40:17Z</time>
      </trkpt>
      <trkpt lat="48.02436" lon="-3.88224">
        <ele>136.7</ele>
        <time>2023-04-05T09:40:18Z</time>
      </trkpt>
      <trkpt lat="48.02443" lon="-3.88218">
        <ele>137</ele>
        <time>2023-04-05T09:40:19Z</time>
      </trkpt>
      <trkpt lat="48.0245" lon="-3.88212">
        <ele>137.2</ele>
        <time>2023-04-05T09:40:21Z</time>
      </trkpt>
      <trkpt lat="48.02454" lon="-3.88209">
        <ele>137.3</ele>
        <time>2023-04-05T09:40:23Z</time>
      </trkpt>
      <trkpt lat="48.02458" lon="-3.88205">
        <ele>137.5</ele>
        <time>2023-04-05T09:40:24Z</time>
      </trkpt>
      <trkpt lat="48.02462" lon="-3.88201">
        <ele>137.6</ele>
        <time>2023-04-05T09:40:25Z</time>
      </trkpt>
      <trkpt lat="48.02466" lon="-3.88198">
        <ele>137.7</ele>
        <time>2023-04-05T09:40:26Z</time>
      </trkpt>
      <trkpt lat="48.0247" lon="-3.88195">
        <ele>137.8</ele>
        <time>2023-04-05T09:40:27Z</time>
      </trkpt>
      <trkpt lat="48.02473" lon="-3.88191">
        <ele>137.9</ele>
        <time>2023-04-05T09:40:28Z</time>
      </trkpt>
      <trkpt lat="48.02476" lon="-3.88187">
        <ele>138</ele>
        <time>2023-04-05T09:40:29Z</time>
      </trkpt>
      <trkpt lat="48.0248" lon="-3.88184">
        <ele>138</ele>
        <time>2023-04-05T09:40:30Z</time>
      </trkpt>
      <trkpt lat="48.02484" lon="-3.8818">
        <ele>138.1</ele>
        <time>2023-04-05T09:40:31Z</time>
      </trkpt>
      <trkpt lat="48.02488" lon="-3.88175">
        <ele>138.2</ele>
        <time>2023-04-05T09:40:32Z</time>
      </trkpt>
      <trkpt lat="48.02492" lon="-3.88172">
        <ele>138.3</ele>
        <time>2023-04-05T09:40:33Z</time>
      </trkpt>
      <trkpt lat="48.02496" lon="-3.88168">
        <ele>138.4</ele>
        <time>2023-04-05T09:40:34Z</time>
      </trkpt>
      <trkpt lat="48.025" lon="-3.88163">
        <ele>138.5</ele>
        <time>2023-04-05T09:40:35Z</time>
      </trkpt>
      <trkpt lat="48.02503" lon="-3.88159">
        <ele>138.6</ele>
        <time>2023-04-05T09:40:36Z</time>
      </trkpt>
      <trkpt lat="48.02507" lon="-3.88155">
        <ele>138.6</ele>
        <time>2023-04-05T09:40:37Z</time>
      </trkpt>
      <trkpt lat="48.0251" lon="-3.88151">
        <ele>138.7</ele>
        <time>2023-04-05T09:40:38Z</time>
      </trkpt>
      <trkpt lat="48.02514" lon="-3.88146">
        <ele>138.7</ele>
        <time>2023-04-05T09:40:39Z</time>
      </trkpt>
      <trkpt lat="48.02517" lon="-3.8814">
        <ele>138.8</ele>
        <time>2023-04-05T09:40:40Z</time>
      </trkpt>
      <trkpt lat="48.0252" lon="-3.88135">
        <ele>138.8</ele>
        <time>2023-04-05T09:40:41Z</time>
      </trkpt>
      <trkpt lat="48.02524" lon="-3.88131">
        <ele>138.9</ele>
        <time>2023-04-05T09:40:42Z</time>
      </trkpt>
      <trkpt lat="48.02528" lon="-3.88126">
        <ele>138.9</ele>
        <time>2023-04-05T09:40:43Z</time>
      </trkpt>
      <trkpt lat="48.02531" lon="-3.88121">
        <ele>139</ele>
        <time>2023-04-05T09:40:44Z</time>
      </trkpt>
      <trkpt lat="48.02535" lon="-3.88116">
        <ele>139</ele>
        <time>2023-04-05T09:40:45Z</time>
      </trkpt>
      <trkpt lat="48.02538" lon="-3.8811">
        <ele>139</ele>
        <time>2023-04-05T09:40:46Z</time>
      </trkpt>
      <trkpt lat="48.02542" lon="-3.88105">
        <ele>139.1</ele>
        <time>2023-04-05T09:40:47Z</time>
      </trkpt>
      <trkpt lat="48.02546" lon="-3.881">
        <ele>139.1</ele>
        <time>2023-04-05T09:40:48Z</time>
      </trkpt>
      <trkpt lat="48.0255" lon="-3.88095">
        <ele>139.2</ele>
        <time>2023-04-05T09:40:49Z</time>
      </trkpt>
      <trkpt lat="48.02553" lon="-3.8809">
        <ele>139.2</ele>
        <time>2023-04-05T09:40:50Z</time>
      </trkpt>
      <trkpt lat="48.02557" lon="-3.88085">
        <ele>139.3</ele>
        <time>2023-04-05T09:40:51Z</time>
      </trkpt>
      <trkpt lat="48.02561" lon="-3.8808">
        <ele>139.3</ele>
        <time>2023-04-05T09:40:52Z</time>
      </trkpt>
      <trkpt lat="48.02565" lon="-3.88075">
        <ele>139.3</ele>
        <time>2023-04-05T09:40:53Z</time>
      </trkpt>
      <trkpt lat="48.02568" lon="-3.8807">
        <ele>139.4</ele>
        <time>2023-04-05T09:40:54Z</time>
      </trkpt>
      <trkpt lat="48.02572" lon="-3.88065">
        <ele>139.4</ele>
        <time>2023-04-05T09:40:55Z</time>
      </trkpt>
      <trkpt lat="48.02575" lon="-3.8806">
        <ele>139.4</ele>
        <time>2023-04-05T09:40:56Z</time>
      </trkpt>
      <trkpt lat="48.02579" lon="-3.88054">
        <ele>139.5</ele>
        <time>2023-04-05T09:40:57Z</time>
      </trkpt>
      <trkpt lat="48.02583" lon="-3.88049">
        <ele>139.5</ele>
        <time>2023-04-05T09:40:58Z</time>
      </trkpt>
      <trkpt lat="48.02586" lon="-3.88044">
        <ele>139.5</ele>
        <time>2023-04-05T09:40:59Z</time>
      </trkpt>
      <trkpt lat="48.0259" lon="-3.88039">
        <ele>139.5</ele>
        <time>2023-04-05T09:41:00Z</time>
      </trkpt>
      <trkpt lat="48.02594" lon="-3.88033">
        <ele>139.5</ele>
        <time>2023-04-05T09:41:01Z</time>
      </trkpt>
      <trkpt lat="48.02598" lon="-3.88028">
        <ele>139.4</ele>
        <time>2023-04-05T09:41:02Z</time>
      </trkpt>
      <trkpt lat="48.02602" lon="-3.88023">
        <ele>139.4</ele>
        <time>2023-04-05T09:41:03Z</time>
      </trkpt>
      <trkpt lat="48.02605" lon="-3.88017">
        <ele>139.4</ele>
        <time>2023-04-05T09:41:04Z</time>
      </trkpt>
      <trkpt lat="48.02609" lon="-3.88012">
        <ele>139.4</ele>
        <time>2023-04-05T09:41:05Z</time>
      </trkpt>
      <trkpt lat="48.02613" lon="-3.88006">
        <ele>139.4</ele>
        <time>2023-04-05T09:41:06Z</time>
      </trkpt>
      <trkpt lat="48.02616" lon="-3.88">
        <ele>139.4</ele>
        <time>2023-04-05T09:41:07Z</time>
      </trkpt>
      <trkpt lat="48.02619" lon="-3.87994">
        <ele>139.4</ele>
        <time>2023-04-05T09:41:08Z</time>
      </trkpt>
      <trkpt lat="48.02623" lon="-3.87988">
        <ele>139.4</ele>
        <time>2023-04-05T09:41:09Z</time>
      </trkpt>
      <trkpt lat="48.02626" lon="-3.87982">
        <ele>139.4</ele>
        <time>2023-04-05T09:41:10Z</time>
      </trkpt>
      <trkpt lat="48.02629" lon="-3.87975">
        <ele>139.4</ele>
        <time>2023-04-05T09:41:11Z</time>
      </trkpt>
      <trkpt lat="48.02632" lon="-3.87969">
        <ele>139.4</ele>
        <time>2023-04-05T09:41:12Z</time>
      </trkpt>
      <trkpt lat="48.02635" lon="-3.87963">
        <ele>139.5</ele>
        <time>2023-04-05T09:41:13Z</time>
      </trkpt>
      <trkpt lat="48.02638" lon="-3.87957">
        <ele>139.5</ele>
        <time>2023-04-05T09:41:14Z</time>
      </trkpt>
      <trkpt lat="48.02641" lon="-3.87951">
        <ele>139.5</ele>
        <time>2023-04-05T09:41:15Z</time>
      </trkpt>
      <trkpt lat="48.02643" lon="-3.87945">
        <ele>139.6</ele>
        <time>2023-04-05T09:41:16Z</time>
      </trkpt>
      <trkpt lat="48.02647" lon="-3.87939">
        <ele>139.7</ele>
        <time>2023-04-05T09:41:17Z</time>
      </trkpt>
      <trkpt lat="48.0265" lon="-3.87933">
        <ele>139.8</ele>
        <time>2023-04-05T09:41:18Z</time>
      </trkpt>
      <trkpt lat="48.02653" lon="-3.87927">
        <ele>139.9</ele>
        <time>2023-04-05T09:41:19Z</time>
      </trkpt>
      <trkpt lat="48.02656" lon="-3.87921">
        <ele>140</ele>
        <time>2023-04-05T09:41:20Z</time>
      </trkpt>
      <trkpt lat="48.02659" lon="-3.87915">
        <ele>140.1</ele>
        <time>2023-04-05T09:41:21Z</time>
      </trkpt>
      <trkpt lat="48.02662" lon="-3.87909">
        <ele>140.2</ele>
        <time>2023-04-05T09:41:22Z</time>
      </trkpt>
      <trkpt lat="48.02665" lon="-3.87903">
        <ele>140.3</ele>
        <time>2023-04-05T09:41:23Z</time>
      </trkpt>
      <trkpt lat="48.02668" lon="-3.87897">
        <ele>140.4</ele>
        <time>2023-04-05T09:41:24Z</time>
      </trkpt>
      <trkpt lat="48.02671" lon="-3.87892">
        <ele>140.5</ele>
        <time>2023-04-05T09:41:25Z</time>
      </trkpt>
      <trkpt lat="48.02673" lon="-3.87886">
        <ele>140.7</ele>
        <time>2023-04-05T09:41:26Z</time>
      </trkpt>
      <trkpt lat="48.02676" lon="-3.8788">
        <ele>140.8</ele>
        <time>2023-04-05T09:41:27Z</time>
      </trkpt>
      <trkpt lat="48.02679" lon="-3.87874">
        <ele>140.9</ele>
        <time>2023-04-05T09:41:28Z</time>
      </trkpt>
      <trkpt lat="48.02681" lon="-3.87868">
        <ele>141</ele>
        <time>2023-04-05T09:41:29Z</time>
      </trkpt>
      <trkpt lat="48.02684" lon="-3.87862">
        <ele>141.1</ele>
        <time>2023-04-05T09:41:30Z</time>
      </trkpt>
      <trkpt lat="48.02687" lon="-3.87856">
        <ele>141.2</ele>
        <time>2023-04-05T09:41:31Z</time>
      </trkpt>
      <trkpt lat="48.02691" lon="-3.8785">
        <ele>141.4</ele>
        <time>2023-04-05T09:41:32Z</time>
      </trkpt>
      <trkpt lat="48.02693" lon="-3.87844">
        <ele>141.5</ele>
        <time>2023-04-05T09:41:33Z</time>
      </trkpt>
      <trkpt lat="48.02696" lon="-3.87837">
        <ele>141.7</ele>
        <time>2023-04-05T09:41:34Z</time>
      </trkpt>
      <trkpt lat="48.027" lon="-3.87832">
        <ele>141.8</ele>
        <time>2023-04-05T09:41:35Z</time>
      </trkpt>
      <trkpt lat="48.02703" lon="-3.87826">
        <ele>142</ele>
        <time>2023-04-05T09:41:36Z</time>
      </trkpt>
      <trkpt lat="48.02706" lon="-3.8782">
        <ele>142.2</ele>
        <time>2023-04-05T09:41:37Z</time>
      </trkpt>
      <trkpt lat="48.02709" lon="-3.87813">
        <ele>142.4</ele>
        <time>2023-04-05T09:41:38Z</time>
      </trkpt>
      <trkpt lat="48.02711" lon="-3.87806">
        <ele>142.6</ele>
        <time>2023-04-05T09:41:39Z</time>
      </trkpt>
      <trkpt lat="48.02714" lon="-3.878">
        <ele>142.8</ele>
        <time>2023-04-05T09:41:40Z</time>
      </trkpt>
      <trkpt lat="48.02715" lon="-3.87794">
        <ele>143.1</ele>
        <time>2023-04-05T09:41:41Z</time>
      </trkpt>
      <trkpt lat="48.02717" lon="-3.87788">
        <ele>143.3</ele>
        <time>2023-04-05T09:41:42Z</time>
      </trkpt>
      <trkpt lat="48.0272" lon="-3.87782">
        <ele>143.6</ele>
        <time>2023-04-05T09:41:43Z</time>
      </trkpt>
      <trkpt lat="48.02721" lon="-3.87776">
        <ele>143.8</ele>
        <time>2023-04-05T09:41:44Z</time>
      </trkpt>
      <trkpt lat="48.02723" lon="-3.87769">
        <ele>144.1</ele>
        <time>2023-04-05T09:41:45Z</time>
      </trkpt>
      <trkpt lat="48.02724" lon="-3.87763">
        <ele>144.3</ele>
        <time>2023-04-05T09:41:46Z</time>
      </trkpt>
      <trkpt lat="48.02726" lon="-3.87757">
        <ele>144.6</ele>
        <time>2023-04-05T09:41:47Z</time>
      </trkpt>
      <trkpt lat="48.02728" lon="-3.8775">
        <ele>144.9</ele>
        <time>2023-04-05T09:41:48Z</time>
      </trkpt>
      <trkpt lat="48.02729" lon="-3.87744">
        <ele>145.1</ele>
        <time>2023-04-05T09:41:49Z</time>
      </trkpt>
      <trkpt lat="48.02731" lon="-3.87738">
        <ele>145.4</ele>
        <time>2023-04-05T09:41:50Z</time>
      </trkpt>
      <trkpt lat="48.02733" lon="-3.87732">
        <ele>145.7</ele>
        <time>2023-04-05T09:41:51Z</time>
      </trkpt>
      <trkpt lat="48.02734" lon="-3.87727">
        <ele>145.9</ele>
        <time>2023-04-05T09:41:52Z</time>
      </trkpt>
      <trkpt lat="48.02735" lon="-3.87722">
        <ele>146.1</ele>
        <time>2023-04-05T09:41:53Z</time>
      </trkpt>
      <trkpt lat="48.02735" lon="-3.87717">
        <ele>146.2</ele>
        <time>2023-04-05T09:41:54Z</time>
      </trkpt>
      <trkpt lat="48.02736" lon="-3.87711">
        <ele>146.5</ele>
        <time>2023-04-05T09:41:55Z</time>
      </trkpt>
      <trkpt lat="48.02737" lon="-3.87706">
        <ele>146.6</ele>
        <time>2023-04-05T09:41:56Z</time>
      </trkpt>
      <trkpt lat="48.02739" lon="-3.87699">
        <ele>146.9</ele>
        <time>2023-04-05T09:41:57Z</time>
      </trkpt>
      <trkpt lat="48.0274" lon="-3.87695">
        <ele>147.1</ele>
        <time>2023-04-05T09:41:58Z</time>
      </trkpt>
      <trkpt lat="48.02742" lon="-3.87688">
        <ele>147.3</ele>
        <time>2023-04-05T09:41:59Z</time>
      </trkpt>
      <trkpt lat="48.02743" lon="-3.87681">
        <ele>147.5</ele>
        <time>2023-04-05T09:42:00Z</time>
      </trkpt>
      <trkpt lat="48.02745" lon="-3.87675">
        <ele>147.7</ele>
        <time>2023-04-05T09:42:01Z</time>
      </trkpt>
      <trkpt lat="48.02746" lon="-3.8767">
        <ele>147.8</ele>
        <time>2023-04-05T09:42:02Z</time>
      </trkpt>
      <trkpt lat="48.02749" lon="-3.8766">
        <ele>148.1</ele>
        <time>2023-04-05T09:42:04Z</time>
      </trkpt>
      <trkpt lat="48.02751" lon="-3.87654">
        <ele>148.2</ele>
        <time>2023-04-05T09:42:05Z</time>
      </trkpt>
      <trkpt lat="48.02753" lon="-3.87648">
        <ele>148.4</ele>
        <time>2023-04-05T09:42:06Z</time>
      </trkpt>
      <trkpt lat="48.02755" lon="-3.87643">
        <ele>148.5</ele>
        <time>2023-04-05T09:42:07Z</time>
      </trkpt>
      <trkpt lat="48.02758" lon="-3.87637">
        <ele>148.6</ele>
        <time>2023-04-05T09:42:08Z</time>
      </trkpt>
      <trkpt lat="48.02761" lon="-3.87631">
        <ele>148.7</ele>
        <time>2023-04-05T09:42:09Z</time>
      </trkpt>
      <trkpt lat="48.02764" lon="-3.87625">
        <ele>148.8</ele>
        <time>2023-04-05T09:42:10Z</time>
      </trkpt>
      <trkpt lat="48.02767" lon="-3.87619">
        <ele>148.9</ele>
        <time>2023-04-05T09:42:11Z</time>
      </trkpt>
      <trkpt lat="48.0277" lon="-3.87614">
        <ele>148.9</ele>
        <time>2023-04-05T09:42:12Z</time>
      </trkpt>
      <trkpt lat="48.02774" lon="-3.87608">
        <ele>149</ele>
        <time>2023-04-05T09:42:13Z</time>
      </trkpt>
      <trkpt lat="48.02777" lon="-3.87602">
        <ele>149</ele>
        <time>2023-04-05T09:42:14Z</time>
      </trkpt>
      <trkpt lat="48.0278" lon="-3.87596">
        <ele>149.1</ele>
        <time>2023-04-05T09:42:15Z</time>
      </trkpt>
      <trkpt lat="48.02783" lon="-3.87589">
        <ele>149.1</ele>
        <time>2023-04-05T09:42:16Z</time>
      </trkpt>
      <trkpt lat="48.02787" lon="-3.87583">
        <ele>149.1</ele>
        <time>2023-04-05T09:42:17Z</time>
      </trkpt>
      <trkpt lat="48.0279" lon="-3.87577">
        <ele>149.2</ele>
        <time>2023-04-05T09:42:18Z</time>
      </trkpt>
      <trkpt lat="48.02793" lon="-3.8757">
        <ele>149.2</ele>
        <time>2023-04-05T09:42:19Z</time>
      </trkpt>
      <trkpt lat="48.02797" lon="-3.87564">
        <ele>149.2</ele>
        <time>2023-04-05T09:42:20Z</time>
      </trkpt>
      <trkpt lat="48.028" lon="-3.87558">
        <ele>149.2</ele>
        <time>2023-04-05T09:42:21Z</time>
      </trkpt>
      <trkpt lat="48.02804" lon="-3.87552">
        <ele>149.2</ele>
        <time>2023-04-05T09:42:22Z</time>
      </trkpt>
      <trkpt lat="48.02807" lon="-3.87546">
        <ele>149.2</ele>
        <time>2023-04-05T09:42:23Z</time>
      </trkpt>
      <trkpt lat="48.0281" lon="-3.8754">
        <ele>149.2</ele>
        <time>2023-04-05T09:42:24Z</time>
      </trkpt>
      <trkpt lat="48.02813" lon="-3.87533">
        <ele>149.2</ele>
        <time>2023-04-05T09:42:25Z</time>
      </trkpt>
      <trkpt lat="48.02816" lon="-3.87526">
        <ele>149.2</ele>
        <time>2023-04-05T09:42:26Z</time>
      </trkpt>
      <trkpt lat="48.02818" lon="-3.87519">
        <ele>149.2</ele>
        <time>2023-04-05T09:42:27Z</time>
      </trkpt>
      <trkpt lat="48.0282" lon="-3.87512">
        <ele>149.2</ele>
        <time>2023-04-05T09:42:28Z</time>
      </trkpt>
      <trkpt lat="48.02822" lon="-3.87505">
        <ele>149.2</ele>
        <time>2023-04-05T09:42:29Z</time>
      </trkpt>
      <trkpt lat="48.02824" lon="-3.87497">
        <ele>149.3</ele>
        <time>2023-04-05T09:42:30Z</time>
      </trkpt>
      <trkpt lat="48.02826" lon="-3.8749">
        <ele>149.3</ele>
        <time>2023-04-05T09:42:31Z</time>
      </trkpt>
      <trkpt lat="48.02828" lon="-3.87483">
        <ele>149.3</ele>
        <time>2023-04-05T09:42:32Z</time>
      </trkpt>
      <trkpt lat="48.0283" lon="-3.87476">
        <ele>149.4</ele>
        <time>2023-04-05T09:42:33Z</time>
      </trkpt>
      <trkpt lat="48.02832" lon="-3.87469">
        <ele>149.4</ele>
        <time>2023-04-05T09:42:34Z</time>
      </trkpt>
      <trkpt lat="48.02834" lon="-3.87461">
        <ele>149.5</ele>
        <time>2023-04-05T09:42:35Z</time>
      </trkpt>
      <trkpt lat="48.02836" lon="-3.87454">
        <ele>149.5</ele>
        <time>2023-04-05T09:42:36Z</time>
      </trkpt>
      <trkpt lat="48.02837" lon="-3.87447">
        <ele>149.6</ele>
        <time>2023-04-05T09:42:37Z</time>
      </trkpt>
      <trkpt lat="48.02839" lon="-3.8744">
        <ele>149.7</ele>
        <time>2023-04-05T09:42:38Z</time>
      </trkpt>
      <trkpt lat="48.02841" lon="-3.87432">
        <ele>149.8</ele>
        <time>2023-04-05T09:42:39Z</time>
      </trkpt>
      <trkpt lat="48.02843" lon="-3.87425">
        <ele>149.8</ele>
        <time>2023-04-05T09:42:40Z</time>
      </trkpt>
      <trkpt lat="48.02845" lon="-3.87418">
        <ele>149.9</ele>
        <time>2023-04-05T09:42:41Z</time>
      </trkpt>
      <trkpt lat="48.02847" lon="-3.8741">
        <ele>150</ele>
        <time>2023-04-05T09:42:42Z</time>
      </trkpt>
      <trkpt lat="48.02849" lon="-3.87403">
        <ele>150.1</ele>
        <time>2023-04-05T09:42:43Z</time>
      </trkpt>
      <trkpt lat="48.02851" lon="-3.87396">
        <ele>150.2</ele>
        <time>2023-04-05T09:42:44Z</time>
      </trkpt>
      <trkpt lat="48.02853" lon="-3.87389">
        <ele>150.4</ele>
        <time>2023-04-05T09:42:45Z</time>
      </trkpt>
      <trkpt lat="48.02854" lon="-3.87382">
        <ele>150.5</ele>
        <time>2023-04-05T09:42:46Z</time>
      </trkpt>
      <trkpt lat="48.02856" lon="-3.87375">
        <ele>150.7</ele>
        <time>2023-04-05T09:42:47Z</time>
      </trkpt>
      <trkpt lat="48.02858" lon="-3.87369">
        <ele>150.8</ele>
        <time>2023-04-05T09:42:48Z</time>
      </trkpt>
      <trkpt lat="48.0286" lon="-3.87362">
        <ele>151</ele>
        <time>2023-04-05T09:42:49Z</time>
      </trkpt>
      <trkpt lat="48.02861" lon="-3.87356">
        <ele>151.1</ele>
        <time>2023-04-05T09:42:50Z</time>
      </trkpt>
      <trkpt lat="48.02863" lon="-3.87349">
        <ele>151.2</ele>
        <time>2023-04-05T09:42:51Z</time>
      </trkpt>
      <trkpt lat="48.02865" lon="-3.87343">
        <ele>151.4</ele>
        <time>2023-04-05T09:42:52Z</time>
      </trkpt>
      <trkpt lat="48.02868" lon="-3.87337">
        <ele>151.5</ele>
        <time>2023-04-05T09:42:53Z</time>
      </trkpt>
      <trkpt lat="48.02871" lon="-3.87333">
        <ele>151.7</ele>
        <time>2023-04-05T09:42:54Z</time>
      </trkpt>
      <trkpt lat="48.02876" lon="-3.8733">
        <ele>151.8</ele>
        <time>2023-04-05T09:42:55Z</time>
      </trkpt>
      <trkpt lat="48.02881" lon="-3.87328">
        <ele>150.4</ele>
        <time>2023-04-05T09:42:56Z</time>
      </trkpt>
      <trkpt lat="48.02887" lon="-3.87329">
        <ele>149.9</ele>
        <time>2023-04-05T09:42:57Z</time>
      </trkpt>
      <trkpt lat="48.02893" lon="-3.87332">
        <ele>149.3</ele>
        <time>2023-04-05T09:42:58Z</time>
      </trkpt>
      <trkpt lat="48.02899" lon="-3.87335">
        <ele>148.6</ele>
        <time>2023-04-05T09:42:59Z</time>
      </trkpt>
      <trkpt lat="48.02906" lon="-3.8734">
        <ele>148</ele>
        <time>2023-04-05T09:43:00Z</time>
      </trkpt>
      <trkpt lat="48.02913" lon="-3.87344">
        <ele>147.4</ele>
        <time>2023-04-05T09:43:01Z</time>
      </trkpt>
      <trkpt lat="48.02921" lon="-3.87349">
        <ele>146.7</ele>
        <time>2023-04-05T09:43:02Z</time>
      </trkpt>
      <trkpt lat="48.02929" lon="-3.87354">
        <ele>145.9</ele>
        <time>2023-04-05T09:43:03Z</time>
      </trkpt>
      <trkpt lat="48.02936" lon="-3.8736">
        <ele>145.1</ele>
        <time>2023-04-05T09:43:04Z</time>
      </trkpt>
      <trkpt lat="48.02944" lon="-3.87366">
        <ele>144.2</ele>
        <time>2023-04-05T09:43:05Z</time>
      </trkpt>
      <trkpt lat="48.02951" lon="-3.87374">
        <ele>143.2</ele>
        <time>2023-04-05T09:43:06Z</time>
      </trkpt>
      <trkpt lat="48.0296" lon="-3.87382">
        <ele>142.1</ele>
        <time>2023-04-05T09:43:07Z</time>
      </trkpt>
      <trkpt lat="48.02968" lon="-3.8739">
        <ele>141.1</ele>
        <time>2023-04-05T09:43:08Z</time>
      </trkpt>
      <trkpt lat="48.02977" lon="-3.87397">
        <ele>140.1</ele>
        <time>2023-04-05T09:43:09Z</time>
      </trkpt>
      <trkpt lat="48.02987" lon="-3.87406">
        <ele>139.1</ele>
        <time>2023-04-05T09:43:10Z</time>
      </trkpt>
      <trkpt lat="48.02996" lon="-3.87414">
        <ele>138.1</ele>
        <time>2023-04-05T09:43:11Z</time>
      </trkpt>
      <trkpt lat="48.03007" lon="-3.8742">
        <ele>137</ele>
        <time>2023-04-05T09:43:12Z</time>
      </trkpt>
      <trkpt lat="48.03018" lon="-3.87424">
        <ele>136</ele>
        <time>2023-04-05T09:43:13Z</time>
      </trkpt>
      <trkpt lat="48.03029" lon="-3.87426">
        <ele>135</ele>
        <time>2023-04-05T09:43:14Z</time>
      </trkpt>
      <trkpt lat="48.03041" lon="-3.87426">
        <ele>133.9</ele>
        <time>2023-04-05T09:43:15Z</time>
      </trkpt>
      <trkpt lat="48.03053" lon="-3.87428">
        <ele>133</ele>
        <time>2023-04-05T09:43:16Z</time>
      </trkpt>
      <trkpt lat="48.03064" lon="-3.87433">
        <ele>132.3</ele>
        <time>2023-04-05T09:43:17Z</time>
      </trkpt>
      <trkpt lat="48.03076" lon="-3.8744">
        <ele>131.6</ele>
        <time>2023-04-05T09:43:18Z</time>
      </trkpt>
      <trkpt lat="48.03086" lon="-3.87449">
        <ele>130.8</ele>
        <time>2023-04-05T09:43:19Z</time>
      </trkpt>
      <trkpt lat="48.03095" lon="-3.87462">
        <ele>130</ele>
        <time>2023-04-05T09:43:20Z</time>
      </trkpt>
      <trkpt lat="48.03102" lon="-3.87477">
        <ele>129.1</ele>
        <time>2023-04-05T09:43:21Z</time>
      </trkpt>
      <trkpt lat="48.03108" lon="-3.87493">
        <ele>128.1</ele>
        <time>2023-04-05T09:43:22Z</time>
      </trkpt>
      <trkpt lat="48.03112" lon="-3.87512">
        <ele>126.9</ele>
        <time>2023-04-05T09:43:23Z</time>
      </trkpt>
      <trkpt lat="48.03114" lon="-3.87531">
        <ele>125.8</ele>
        <time>2023-04-05T09:43:24Z</time>
      </trkpt>
      <trkpt lat="48.03115" lon="-3.87551">
        <ele>124.7</ele>
        <time>2023-04-05T09:43:25Z</time>
      </trkpt>
      <trkpt lat="48.03115" lon="-3.87571">
        <ele>123.5</ele>
        <time>2023-04-05T09:43:26Z</time>
      </trkpt>
      <trkpt lat="48.03114" lon="-3.8759">
        <ele>122.4</ele>
        <time>2023-04-05T09:43:27Z</time>
      </trkpt>
      <trkpt lat="48.03113" lon="-3.8761">
        <ele>121.2</ele>
        <time>2023-04-05T09:43:28Z</time>
      </trkpt>
      <trkpt lat="48.03112" lon="-3.87629">
        <ele>120.1</ele>
        <time>2023-04-05T09:43:29Z</time>
      </trkpt>
      <trkpt lat="48.03111" lon="-3.87649">
        <ele>119</ele>
        <time>2023-04-05T09:43:30Z</time>
      </trkpt>
      <trkpt lat="48.0311" lon="-3.87668">
        <ele>117.7</ele>
        <time>2023-04-05T09:43:31Z</time>
      </trkpt>
      <trkpt lat="48.03109" lon="-3.87687">
        <ele>116.5</ele>
        <time>2023-04-05T09:43:32Z</time>
      </trkpt>
      <trkpt lat="48.03109" lon="-3.87707">
        <ele>115.7</ele>
        <time>2023-04-05T09:43:33Z</time>
      </trkpt>
      <trkpt lat="48.03111" lon="-3.87727">
        <ele>114.9</ele>
        <time>2023-04-05T09:43:34Z</time>
      </trkpt>
      <trkpt lat="48.03114" lon="-3.87746">
        <ele>114.1</ele>
        <time>2023-04-05T09:43:35Z</time>
      </trkpt>
      <trkpt lat="48.03118" lon="-3.87765">
        <ele>113.2</ele>
        <time>2023-04-05T09:43:36Z</time>
      </trkpt>
      <trkpt lat="48.03126" lon="-3.87781">
        <ele>112.6</ele>
        <time>2023-04-05T09:43:37Z</time>
      </trkpt>
      <trkpt lat="48.03137" lon="-3.87792">
        <ele>112.1</ele>
        <time>2023-04-05T09:43:38Z</time>
      </trkpt>
      <trkpt lat="48.0315" lon="-3.87801">
        <ele>111.9</ele>
        <time>2023-04-05T09:43:39Z</time>
      </trkpt>
      <trkpt lat="48.03163" lon="-3.87807">
        <ele>112.2</ele>
        <time>2023-04-05T09:43:40Z</time>
      </trkpt>
      <trkpt lat="48.03176" lon="-3.87809">
        <ele>113.1</ele>
        <time>2023-04-05T09:43:41Z</time>
      </trkpt>
      <trkpt lat="48.03186" lon="-3.87808">
        <ele>114.4</ele>
        <time>2023-04-05T09:43:42Z</time>
      </trkpt>
      <trkpt lat="48.03195" lon="-3.87804">
        <ele>115.2</ele>
        <time>2023-04-05T09:43:43Z</time>
      </trkpt>
      <trkpt lat="48.03201" lon="-3.87797">
        <ele>115.3</ele>
        <time>2023-04-05T09:43:44Z</time>
      </trkpt>
      <trkpt lat="48.03205" lon="-3.87786">
        <ele>115.4</ele>
        <time>2023-04-05T09:43:45Z</time>
      </trkpt>
      <trkpt lat="48.03207" lon="-3.87776">
        <ele>115.6</ele>
        <time>2023-04-05T09:43:46Z</time>
      </trkpt>
      <trkpt lat="48.03209" lon="-3.87766">
        <ele>115.9</ele>
        <time>2023-04-05T09:43:47Z</time>
      </trkpt>
      <trkpt lat="48.03212" lon="-3.87757">
        <ele>116.1</ele>
        <time>2023-04-05T09:43:48Z</time>
      </trkpt>
      <trkpt lat="48.03215" lon="-3.87749">
        <ele>116.3</ele>
        <time>2023-04-05T09:43:49Z</time>
      </trkpt>
      <trkpt lat="48.03218" lon="-3.87741">
        <ele>116.5</ele>
        <time>2023-04-05T09:43:50Z</time>
      </trkpt>
      <trkpt lat="48.0322" lon="-3.87734">
        <ele>116.6</ele>
        <time>2023-04-05T09:43:51Z</time>
      </trkpt>
      <trkpt lat="48.03223" lon="-3.87726">
        <ele>116.8</ele>
        <time>2023-04-05T09:43:52Z</time>
      </trkpt>
      <trkpt lat="48.03225" lon="-3.87719">
        <ele>116.9</ele>
        <time>2023-04-05T09:43:53Z</time>
      </trkpt>
      <trkpt lat="48.03227" lon="-3.87712">
        <ele>117.1</ele>
        <time>2023-04-05T09:43:54Z</time>
      </trkpt>
      <trkpt lat="48.03229" lon="-3.87705">
        <ele>117.3</ele>
        <time>2023-04-05T09:43:55Z</time>
      </trkpt>
      <trkpt lat="48.03231" lon="-3.87699">
        <ele>117.4</ele>
        <time>2023-04-05T09:43:56Z</time>
      </trkpt>
      <trkpt lat="48.03233" lon="-3.87692">
        <ele>117.6</ele>
        <time>2023-04-05T09:43:57Z</time>
      </trkpt>
      <trkpt lat="48.03235" lon="-3.87685">
        <ele>117.8</ele>
        <time>2023-04-05T09:43:58Z</time>
      </trkpt>
      <trkpt lat="48.03238" lon="-3.87678">
        <ele>118</ele>
        <time>2023-04-05T09:43:59Z</time>
      </trkpt>
      <trkpt lat="48.0324" lon="-3.87672">
        <ele>118.2</ele>
        <time>2023-04-05T09:44:00Z</time>
      </trkpt>
      <trkpt lat="48.03242" lon="-3.87665">
        <ele>118.5</ele>
        <time>2023-04-05T09:44:01Z</time>
      </trkpt>
      <trkpt lat="48.03245" lon="-3.87659">
        <ele>118.7</ele>
        <time>2023-04-05T09:44:02Z</time>
      </trkpt>
      <trkpt lat="48.03247" lon="-3.87652">
        <ele>118.9</ele>
        <time>2023-04-05T09:44:03Z</time>
      </trkpt>
      <trkpt lat="48.03249" lon="-3.87646">
        <ele>119.2</ele>
        <time>2023-04-05T09:44:04Z</time>
      </trkpt>
      <trkpt lat="48.03251" lon="-3.8764">
        <ele>119.5</ele>
        <time>2023-04-05T09:44:05Z</time>
      </trkpt>
      <trkpt lat="48.03253" lon="-3.87635">
        <ele>119.8</ele>
        <time>2023-04-05T09:44:06Z</time>
      </trkpt>
      <trkpt lat="48.03254" lon="-3.87631">
        <ele>120</ele>
        <time>2023-04-05T09:44:07Z</time>
      </trkpt>
      <trkpt lat="48.03256" lon="-3.87625">
        <ele>120.3</ele>
        <time>2023-04-05T09:44:08Z</time>
      </trkpt>
      <trkpt lat="48.03258" lon="-3.87619">
        <ele>120.7</ele>
        <time>2023-04-05T09:44:09Z</time>
      </trkpt>
      <trkpt lat="48.0326" lon="-3.87613">
        <ele>121</ele>
        <time>2023-04-05T09:44:10Z</time>
      </trkpt>
      <trkpt lat="48.03262" lon="-3.87608">
        <ele>121.3</ele>
        <time>2023-04-05T09:44:11Z</time>
      </trkpt>
      <trkpt lat="48.03264" lon="-3.87603">
        <ele>121.7</ele>
        <time>2023-04-05T09:44:12Z</time>
      </trkpt>
      <trkpt lat="48.03266" lon="-3.87598">
        <ele>122.1</ele>
        <time>2023-04-05T09:44:13Z</time>
      </trkpt>
      <trkpt lat="48.03268" lon="-3.87594">
        <ele>122.3</ele>
        <time>2023-04-05T09:44:14Z</time>
      </trkpt>
      <trkpt lat="48.0327" lon="-3.87591">
        <ele>122.6</ele>
        <time>2023-04-05T09:44:15Z</time>
      </trkpt>
      <trkpt lat="48.03272" lon="-3.87587">
        <ele>122.8</ele>
        <time>2023-04-05T09:44:16Z</time>
      </trkpt>
      <trkpt lat="48.03274" lon="-3.87583">
        <ele>123.1</ele>
        <time>2023-04-05T09:44:17Z</time>
      </trkpt>
      <trkpt lat="48.03276" lon="-3.8758">
        <ele>123.4</ele>
        <time>2023-04-05T09:44:18Z</time>
      </trkpt>
      <trkpt lat="48.03279" lon="-3.87576">
        <ele>123.6</ele>
        <time>2023-04-05T09:44:19Z</time>
      </trkpt>
      <trkpt lat="48.03281" lon="-3.87572">
        <ele>123.9</ele>
        <time>2023-04-05T09:44:20Z</time>
      </trkpt>
      <trkpt lat="48.03283" lon="-3.87569">
        <ele>124.1</ele>
        <time>2023-04-05T09:44:21Z</time>
      </trkpt>
      <trkpt lat="48.03287" lon="-3.87565">
        <ele>124.4</ele>
        <time>2023-04-05T09:44:22Z</time>
      </trkpt>
      <trkpt lat="48.03291" lon="-3.87561">
        <ele>124.7</ele>
        <time>2023-04-05T09:44:24Z</time>
      </trkpt>
      <trkpt lat="48.03293" lon="-3.87558">
        <ele>124.9</ele>
        <time>2023-04-05T09:44:25Z</time>
      </trkpt>
      <trkpt lat="48.03295" lon="-3.87555">
        <ele>125</ele>
        <time>2023-04-05T09:44:26Z</time>
      </trkpt>
      <trkpt lat="48.03298" lon="-3.87552">
        <ele>125.2</ele>
        <time>2023-04-05T09:44:27Z</time>
      </trkpt>
      <trkpt lat="48.03301" lon="-3.87548">
        <ele>125.4</ele>
        <time>2023-04-05T09:44:28Z</time>
      </trkpt>
      <trkpt lat="48.03303" lon="-3.87545">
        <ele>125.6</ele>
        <time>2023-04-05T09:44:29Z</time>
      </trkpt>
      <trkpt lat="48.03306" lon="-3.87543">
        <ele>125.8</ele>
        <time>2023-04-05T09:44:30Z</time>
      </trkpt>
      <trkpt lat="48.03308" lon="-3.87539">
        <ele>126</ele>
        <time>2023-04-05T09:44:31Z</time>
      </trkpt>
      <trkpt lat="48.03311" lon="-3.87535">
        <ele>126.3</ele>
        <time>2023-04-05T09:44:32Z</time>
      </trkpt>
      <trkpt lat="48.03313" lon="-3.87531">
        <ele>126.5</ele>
        <time>2023-04-05T09:44:33Z</time>
      </trkpt>
      <trkpt lat="48.03318" lon="-3.87524">
        <ele>127</ele>
        <time>2023-04-05T09:44:35Z</time>
      </trkpt>
      <trkpt lat="48.0332" lon="-3.8752">
        <ele>127.3</ele>
        <time>2023-04-05T09:44:36Z</time>
      </trkpt>
      <trkpt lat="48.03322" lon="-3.87517">
        <ele>127.5</ele>
        <time>2023-04-05T09:44:37Z</time>
      </trkpt>
      <trkpt lat="48.03325" lon="-3.87514">
        <ele>127.8</ele>
        <time>2023-04-05T09:44:38Z</time>
      </trkpt>
      <trkpt lat="48.03327" lon="-3.87511">
        <ele>128</ele>
        <time>2023-04-05T09:44:39Z</time>
      </trkpt>
      <trkpt lat="48.03329" lon="-3.87507">
        <ele>128.3</ele>
        <time>2023-04-05T09:44:40Z</time>
      </trkpt>
      <trkpt lat="48.03331" lon="-3.87504">
        <ele>128.6</ele>
        <time>2023-04-05T09:44:41Z</time>
      </trkpt>
      <trkpt lat="48.03334" lon="-3.87499">
        <ele>129</ele>
        <time>2023-04-05T09:44:42Z</time>
      </trkpt>
      <trkpt lat="48.03335" lon="-3.87498">
        <ele>129.1</ele>
        <time>2023-04-05T09:44:43Z</time>
      </trkpt>
      <trkpt lat="48.03337" lon="-3.87494">
        <ele>129.4</ele>
        <time>2023-04-05T09:44:44Z</time>
      </trkpt>
      <trkpt lat="48.0334" lon="-3.8749">
        <ele>129.7</ele>
        <time>2023-04-05T09:44:45Z</time>
      </trkpt>
      <trkpt lat="48.03343" lon="-3.87486">
        <ele>130.1</ele>
        <time>2023-04-05T09:44:46Z</time>
      </trkpt>
      <trkpt lat="48.03344" lon="-3.87484">
        <ele>130.3</ele>
        <time>2023-04-05T09:44:47Z</time>
      </trkpt>
      <trkpt lat="48.03346" lon="-3.87479">
        <ele>130.6</ele>
        <time>2023-04-05T09:44:48Z</time>
      </trkpt>
      <trkpt lat="48.03348" lon="-3.87475">
        <ele>130.9</ele>
        <time>2023-04-05T09:44:49Z</time>
      </trkpt>
      <trkpt lat="48.0335" lon="-3.87471">
        <ele>131.2</ele>
        <time>2023-04-05T09:44:50Z</time>
      </trkpt>
      <trkpt lat="48.03351" lon="-3.87468">
        <ele>131.5</ele>
        <time>2023-04-05T09:44:51Z</time>
      </trkpt>
      <trkpt lat="48.03354" lon="-3.87465">
        <ele>131.8</ele>
        <time>2023-04-05T09:44:52Z</time>
      </trkpt>
      <trkpt lat="48.03356" lon="-3.87462">
        <ele>132.1</ele>
        <time>2023-04-05T09:44:53Z</time>
      </trkpt>
      <trkpt lat="48.03358" lon="-3.87459">
        <ele>132.4</ele>
        <time>2023-04-05T09:44:54Z</time>
      </trkpt>
      <trkpt lat="48.03361" lon="-3.87457">
        <ele>132.7</ele>
        <time>2023-04-05T09:44:55Z</time>
      </trkpt>
      <trkpt lat="48.03368" lon="-3.87451">
        <ele>133.5</ele>
        <time>2023-04-05T09:44:57Z</time>
      </trkpt>
      <trkpt lat="48.03371" lon="-3.87449">
        <ele>133.8</ele>
        <time>2023-04-05T09:44:59Z</time>
      </trkpt>
      <trkpt lat="48.03373" lon="-3.87447">
        <ele>134.1</ele>
        <time>2023-04-05T09:45:00Z</time>
      </trkpt>
      <trkpt lat="48.03376" lon="-3.87445">
        <ele>134.4</ele>
        <time>2023-04-05T09:45:01Z</time>
      </trkpt>
      <trkpt lat="48.03379" lon="-3.87444">
        <ele>134.6</ele>
        <time>2023-04-05T09:45:02Z</time>
      </trkpt>
      <trkpt lat="48.03382" lon="-3.87443">
        <ele>134.9</ele>
        <time>2023-04-05T09:45:03Z</time>
      </trkpt>
      <trkpt lat="48.03385" lon="-3.87442">
        <ele>135.2</ele>
        <time>2023-04-05T09:45:04Z</time>
      </trkpt>
      <trkpt lat="48.03388" lon="-3.87441">
        <ele>135.5</ele>
        <time>2023-04-05T09:45:05Z</time>
      </trkpt>
      <trkpt lat="48.03391" lon="-3.8744">
        <ele>135.8</ele>
        <time>2023-04-05T09:45:06Z</time>
      </trkpt>
      <trkpt lat="48.03396" lon="-3.87439">
        <ele>136.3</ele>
        <time>2023-04-05T09:45:07Z</time>
      </trkpt>
      <trkpt lat="48.03399" lon="-3.87438">
        <ele>136.6</ele>
        <time>2023-04-05T09:45:09Z</time>
      </trkpt>
      <trkpt lat="48.03402" lon="-3.87439">
        <ele>136.9</ele>
        <time>2023-04-05T09:45:10Z</time>
      </trkpt>
      <trkpt lat="48.03405" lon="-3.8744">
        <ele>137.1</ele>
        <time>2023-04-05T09:45:11Z</time>
      </trkpt>
      <trkpt lat="48.03408" lon="-3.8744">
        <ele>137.4</ele>
        <time>2023-04-05T09:45:12Z</time>
      </trkpt>
      <trkpt lat="48.03411" lon="-3.87441">
        <ele>137.7</ele>
        <time>2023-04-05T09:45:13Z</time>
      </trkpt>
      <trkpt lat="48.03414" lon="-3.87442">
        <ele>137.9</ele>
        <time>2023-04-05T09:45:14Z</time>
      </trkpt>
      <trkpt lat="48.03417" lon="-3.87444">
        <ele>138.1</ele>
        <time>2023-04-05T09:45:15Z</time>
      </trkpt>
      <trkpt lat="48.0342" lon="-3.87445">
        <ele>138.4</ele>
        <time>2023-04-05T09:45:16Z</time>
      </trkpt>
      <trkpt lat="48.03423" lon="-3.87446">
        <ele>138.6</ele>
        <time>2023-04-05T09:45:17Z</time>
      </trkpt>
      <trkpt lat="48.03426" lon="-3.87446">
        <ele>138.9</ele>
        <time>2023-04-05T09:45:18Z</time>
      </trkpt>
      <trkpt lat="48.03429" lon="-3.87447">
        <ele>139.1</ele>
        <time>2023-04-05T09:45:19Z</time>
      </trkpt>
      <trkpt lat="48.03432" lon="-3.87446">
        <ele>139.3</ele>
        <time>2023-04-05T09:45:20Z</time>
      </trkpt>
      <trkpt lat="48.03435" lon="-3.87445">
        <ele>139.5</ele>
        <time>2023-04-05T09:45:21Z</time>
      </trkpt>
      <trkpt lat="48.03439" lon="-3.87443">
        <ele>139.7</ele>
        <time>2023-04-05T09:45:22Z</time>
      </trkpt>
      <trkpt lat="48.03442" lon="-3.87441">
        <ele>139.9</ele>
        <time>2023-04-05T09:45:23Z</time>
      </trkpt>
      <trkpt lat="48.03445" lon="-3.87439">
        <ele>140.1</ele>
        <time>2023-04-05T09:45:24Z</time>
      </trkpt>
      <trkpt lat="48.03448" lon="-3.87437">
        <ele>140.3</ele>
        <time>2023-04-05T09:45:25Z</time>
      </trkpt>
      <trkpt lat="48.0345" lon="-3.87435">
        <ele>140.4</ele>
        <time>2023-04-05T09:45:26Z</time>
      </trkpt>
      <trkpt lat="48.03453" lon="-3.87432">
        <ele>140.4</ele>
        <time>2023-04-05T09:45:27Z</time>
      </trkpt>
      <trkpt lat="48.03455" lon="-3.87429">
        <ele>140.5</ele>
        <time>2023-04-05T09:45:28Z</time>
      </trkpt>
      <trkpt lat="48.03457" lon="-3.87426">
        <ele>140.5</ele>
        <time>2023-04-05T09:45:29Z</time>
      </trkpt>
      <trkpt lat="48.0346" lon="-3.87423">
        <ele>140.6</ele>
        <time>2023-04-05T09:45:30Z</time>
      </trkpt>
      <trkpt lat="48.03463" lon="-3.8742">
        <ele>140.6</ele>
        <time>2023-04-05T09:45:31Z</time>
      </trkpt>
      <trkpt lat="48.03466" lon="-3.87416">
        <ele>140.6</ele>
        <time>2023-04-05T09:45:32Z</time>
      </trkpt>
      <trkpt lat="48.03468" lon="-3.87412">
        <ele>140.7</ele>
        <time>2023-04-05T09:45:33Z</time>
      </trkpt>
      <trkpt lat="48.0347" lon="-3.87409">
        <ele>140.7</ele>
        <time>2023-04-05T09:45:34Z</time>
      </trkpt>
      <trkpt lat="48.03473" lon="-3.87405">
        <ele>140.8</ele>
        <time>2023-04-05T09:45:35Z</time>
      </trkpt>
      <trkpt lat="48.03476" lon="-3.87402">
        <ele>140.8</ele>
        <time>2023-04-05T09:45:36Z</time>
      </trkpt>
      <trkpt lat="48.03479" lon="-3.87399">
        <ele>140.8</ele>
        <time>2023-04-05T09:45:37Z</time>
      </trkpt>
      <trkpt lat="48.03482" lon="-3.87395">
        <ele>140.9</ele>
        <time>2023-04-05T09:45:38Z</time>
      </trkpt>
      <trkpt lat="48.03484" lon="-3.87392">
        <ele>140.9</ele>
        <time>2023-04-05T09:45:39Z</time>
      </trkpt>
      <trkpt lat="48.03487" lon="-3.87388">
        <ele>141</ele>
        <time>2023-04-05T09:45:40Z</time>
      </trkpt>
      <trkpt lat="48.03489" lon="-3.87384">
        <ele>141</ele>
        <time>2023-04-05T09:45:41Z</time>
      </trkpt>
      <trkpt lat="48.03492" lon="-3.87379">
        <ele>141</ele>
        <time>2023-04-05T09:45:42Z</time>
      </trkpt>
      <trkpt lat="48.03494" lon="-3.87374">
        <ele>141.1</ele>
        <time>2023-04-05T09:45:43Z</time>
      </trkpt>
      <trkpt lat="48.03494" lon="-3.8737">
        <ele>141.1</ele>
        <time>2023-04-05T09:45:44Z</time>
      </trkpt>
      <trkpt lat="48.03496" lon="-3.87365">
        <ele>141.1</ele>
        <time>2023-04-05T09:45:45Z</time>
      </trkpt>
      <trkpt lat="48.03498" lon="-3.8736">
        <ele>141.1</ele>
        <time>2023-04-05T09:45:46Z</time>
      </trkpt>
      <trkpt lat="48.035" lon="-3.87356">
        <ele>141.1</ele>
        <time>2023-04-05T09:45:47Z</time>
      </trkpt>
      <trkpt lat="48.03502" lon="-3.87351">
        <ele>141.1</ele>
        <time>2023-04-05T09:45:48Z</time>
      </trkpt>
      <trkpt lat="48.03504" lon="-3.87346">
        <ele>141.1</ele>
        <time>2023-04-05T09:45:49Z</time>
      </trkpt>
      <trkpt lat="48.03507" lon="-3.87341">
        <ele>141.1</ele>
        <time>2023-04-05T09:45:50Z</time>
      </trkpt>
      <trkpt lat="48.03509" lon="-3.87336">
        <ele>141.2</ele>
        <time>2023-04-05T09:45:51Z</time>
      </trkpt>
      <trkpt lat="48.03512" lon="-3.87332">
        <ele>141.2</ele>
        <time>2023-04-05T09:45:52Z</time>
      </trkpt>
      <trkpt lat="48.03515" lon="-3.87327">
        <ele>141.2</ele>
        <time>2023-04-05T09:45:53Z</time>
      </trkpt>
      <trkpt lat="48.03518" lon="-3.87323">
        <ele>141.3</ele>
        <time>2023-04-05T09:45:54Z</time>
      </trkpt>
      <trkpt lat="48.03521" lon="-3.87319">
        <ele>141.4</ele>
        <time>2023-04-05T09:45:55Z</time>
      </trkpt>
      <trkpt lat="48.03524" lon="-3.87315">
        <ele>141.5</ele>
        <time>2023-04-05T09:45:56Z</time>
      </trkpt>
      <trkpt lat="48.03527" lon="-3.87312">
        <ele>141.6</ele>
        <time>2023-04-05T09:45:57Z</time>
      </trkpt>
      <trkpt lat="48.0353" lon="-3.87307">
        <ele>141.7</ele>
        <time>2023-04-05T09:45:58Z</time>
      </trkpt>
      <trkpt lat="48.03534" lon="-3.87303">
        <ele>141.9</ele>
        <time>2023-04-05T09:45:59Z</time>
      </trkpt>
      <trkpt lat="48.03538" lon="-3.87298">
        <ele>142.1</ele>
        <time>2023-04-05T09:46:00Z</time>
      </trkpt>
      <trkpt lat="48.03542" lon="-3.87294">
        <ele>142.3</ele>
        <time>2023-04-05T09:46:01Z</time>
      </trkpt>
      <trkpt lat="48.03545" lon="-3.87289">
        <ele>142.4</ele>
        <time>2023-04-05T09:46:03Z</time>
      </trkpt>
      <trkpt lat="48.03548" lon="-3.87285">
        <ele>142.4</ele>
        <time>2023-04-05T09:46:04Z</time>
      </trkpt>
      <trkpt lat="48.03551" lon="-3.87281">
        <ele>142.5</ele>
        <time>2023-04-05T09:46:05Z</time>
      </trkpt>
      <trkpt lat="48.03554" lon="-3.87277">
        <ele>142.6</ele>
        <time>2023-04-05T09:46:06Z</time>
      </trkpt>
      <trkpt lat="48.03557" lon="-3.87274">
        <ele>142.7</ele>
        <time>2023-04-05T09:46:07Z</time>
      </trkpt>
      <trkpt lat="48.03561" lon="-3.8727">
        <ele>142.8</ele>
        <time>2023-04-05T09:46:08Z</time>
      </trkpt>
      <trkpt lat="48.03564" lon="-3.87267">
        <ele>143</ele>
        <time>2023-04-05T09:46:09Z</time>
      </trkpt>
      <trkpt lat="48.03567" lon="-3.87263">
        <ele>143.1</ele>
        <time>2023-04-05T09:46:10Z</time>
      </trkpt>
      <trkpt lat="48.03571" lon="-3.8726">
        <ele>143.3</ele>
        <time>2023-04-05T09:46:11Z</time>
      </trkpt>
      <trkpt lat="48.03574" lon="-3.87257">
        <ele>143.5</ele>
        <time>2023-04-05T09:46:12Z</time>
      </trkpt>
      <trkpt lat="48.03577" lon="-3.87254">
        <ele>143.6</ele>
        <time>2023-04-05T09:46:13Z</time>
      </trkpt>
      <trkpt lat="48.03581" lon="-3.8725">
        <ele>143.8</ele>
        <time>2023-04-05T09:46:14Z</time>
      </trkpt>
      <trkpt lat="48.03587" lon="-3.87245">
        <ele>144.1</ele>
        <time>2023-04-05T09:46:16Z</time>
      </trkpt>
      <trkpt lat="48.0359" lon="-3.87242">
        <ele>144.2</ele>
        <time>2023-04-05T09:46:17Z</time>
      </trkpt>
      <trkpt lat="48.03593" lon="-3.87239">
        <ele>144.4</ele>
        <time>2023-04-05T09:46:18Z</time>
      </trkpt>
      <trkpt lat="48.03598" lon="-3.87235">
        <ele>144.6</ele>
        <time>2023-04-05T09:46:19Z</time>
      </trkpt>
      <trkpt lat="48.03601" lon="-3.87233">
        <ele>144.8</ele>
        <time>2023-04-05T09:46:20Z</time>
      </trkpt>
      <trkpt lat="48.03605" lon="-3.8723">
        <ele>144.9</ele>
        <time>2023-04-05T09:46:21Z</time>
      </trkpt>
      <trkpt lat="48.03608" lon="-3.87227">
        <ele>145.1</ele>
        <time>2023-04-05T09:46:22Z</time>
      </trkpt>
      <trkpt lat="48.03611" lon="-3.87224">
        <ele>145.2</ele>
        <time>2023-04-05T09:46:23Z</time>
      </trkpt>
      <trkpt lat="48.03614" lon="-3.87221">
        <ele>145.3</ele>
        <time>2023-04-05T09:46:24Z</time>
      </trkpt>
      <trkpt lat="48.03617" lon="-3.87219">
        <ele>145.5</ele>
        <time>2023-04-05T09:46:25Z</time>
      </trkpt>
      <trkpt lat="48.0362" lon="-3.87216">
        <ele>145.6</ele>
        <time>2023-04-05T09:46:26Z</time>
      </trkpt>
      <trkpt lat="48.03624" lon="-3.87213">
        <ele>145.8</ele>
        <time>2023-04-05T09:46:27Z</time>
      </trkpt>
      <trkpt lat="48.03627" lon="-3.87211">
        <ele>145.9</ele>
        <time>2023-04-05T09:46:28Z</time>
      </trkpt>
      <trkpt lat="48.0363" lon="-3.87208">
        <ele>146.1</ele>
        <time>2023-04-05T09:46:29Z</time>
      </trkpt>
      <trkpt lat="48.03633" lon="-3.87205">
        <ele>146.2</ele>
        <time>2023-04-05T09:46:30Z</time>
      </trkpt>
      <trkpt lat="48.03636" lon="-3.87203">
        <ele>146.4</ele>
        <time>2023-04-05T09:46:31Z</time>
      </trkpt>
      <trkpt lat="48.03639" lon="-3.872">
        <ele>146.6</ele>
        <time>2023-04-05T09:46:32Z</time>
      </trkpt>
      <trkpt lat="48.03642" lon="-3.87198">
        <ele>146.7</ele>
        <time>2023-04-05T09:46:33Z</time>
      </trkpt>
      <trkpt lat="48.03645" lon="-3.87196">
        <ele>146.9</ele>
        <time>2023-04-05T09:46:34Z</time>
      </trkpt>
      <trkpt lat="48.03649" lon="-3.87193">
        <ele>147</ele>
        <time>2023-04-05T09:46:35Z</time>
      </trkpt>
      <trkpt lat="48.03652" lon="-3.87191">
        <ele>147.2</ele>
        <time>2023-04-05T09:46:36Z</time>
      </trkpt>
      <trkpt lat="48.03655" lon="-3.87189">
        <ele>147.4</ele>
        <time>2023-04-05T09:46:37Z</time>
      </trkpt>
      <trkpt lat="48.03658" lon="-3.87187">
        <ele>147.5</ele>
        <time>2023-04-05T09:46:38Z</time>
      </trkpt>
      <trkpt lat="48.03661" lon="-3.87184">
        <ele>147.7</ele>
        <time>2023-04-05T09:46:39Z</time>
      </trkpt>
      <trkpt lat="48.03664" lon="-3.87181">
        <ele>147.9</ele>
        <time>2023-04-05T09:46:40Z</time>
      </trkpt>
      <trkpt lat="48.03667" lon="-3.87179">
        <ele>148</ele>
        <time>2023-04-05T09:46:41Z</time>
      </trkpt>
      <trkpt lat="48.0367" lon="-3.87176">
        <ele>148.2</ele>
        <time>2023-04-05T09:46:42Z</time>
      </trkpt>
      <trkpt lat="48.03673" lon="-3.87174">
        <ele>148.4</ele>
        <time>2023-04-05T09:46:43Z</time>
      </trkpt>
      <trkpt lat="48.03677" lon="-3.87171">
        <ele>148.7</ele>
        <time>2023-04-05T09:46:44Z</time>
      </trkpt>
      <trkpt lat="48.03679" lon="-3.87169">
        <ele>148.8</ele>
        <time>2023-04-05T09:46:45Z</time>
      </trkpt>
      <trkpt lat="48.03682" lon="-3.87166">
        <ele>149</ele>
        <time>2023-04-05T09:46:46Z</time>
      </trkpt>
      <trkpt lat="48.03684" lon="-3.87164">
        <ele>149.2</ele>
        <time>2023-04-05T09:46:47Z</time>
      </trkpt>
      <trkpt lat="48.0369" lon="-3.8716">
        <ele>149.6</ele>
        <time>2023-04-05T09:46:49Z</time>
      </trkpt>
      <trkpt lat="48.03695" lon="-3.87155">
        <ele>149.9</ele>
        <time>2023-04-05T09:46:50Z</time>
      </trkpt>
      <trkpt lat="48.03698" lon="-3.87152">
        <ele>150.2</ele>
        <time>2023-04-05T09:46:52Z</time>
      </trkpt>
      <trkpt lat="48.03701" lon="-3.8715">
        <ele>150.4</ele>
        <time>2023-04-05T09:46:53Z</time>
      </trkpt>
      <trkpt lat="48.03704" lon="-3.87148">
        <ele>150.6</ele>
        <time>2023-04-05T09:46:54Z</time>
      </trkpt>
      <trkpt lat="48.03706" lon="-3.87146">
        <ele>150.7</ele>
        <time>2023-04-05T09:46:55Z</time>
      </trkpt>
      <trkpt lat="48.0371" lon="-3.87144">
        <ele>150.9</ele>
        <time>2023-04-05T09:46:56Z</time>
      </trkpt>
      <trkpt lat="48.03713" lon="-3.87141">
        <ele>151.1</ele>
        <time>2023-04-05T09:46:57Z</time>
      </trkpt>
      <trkpt lat="48.03716" lon="-3.87139">
        <ele>151.2</ele>
        <time>2023-04-05T09:46:58Z</time>
      </trkpt>
      <trkpt lat="48.03719" lon="-3.87137">
        <ele>151.3</ele>
        <time>2023-04-05T09:46:59Z</time>
      </trkpt>
      <trkpt lat="48.03722" lon="-3.87135">
        <ele>151.5</ele>
        <time>2023-04-05T09:47:00Z</time>
      </trkpt>
      <trkpt lat="48.03725" lon="-3.87132">
        <ele>151.6</ele>
        <time>2023-04-05T09:47:01Z</time>
      </trkpt>
      <trkpt lat="48.03728" lon="-3.87129">
        <ele>151.7</ele>
        <time>2023-04-05T09:47:02Z</time>
      </trkpt>
      <trkpt lat="48.03731" lon="-3.87126">
        <ele>151.8</ele>
        <time>2023-04-05T09:47:03Z</time>
      </trkpt>
      <trkpt lat="48.03734" lon="-3.87123">
        <ele>151.9</ele>
        <time>2023-04-05T09:47:04Z</time>
      </trkpt>
      <trkpt lat="48.03737" lon="-3.87121">
        <ele>152</ele>
        <time>2023-04-05T09:47:05Z</time>
      </trkpt>
      <trkpt lat="48.0374" lon="-3.87118">
        <ele>152.1</ele>
        <time>2023-04-05T09:47:06Z</time>
      </trkpt>
      <trkpt lat="48.03743" lon="-3.87116">
        <ele>152.2</ele>
        <time>2023-04-05T09:47:07Z</time>
      </trkpt>
      <trkpt lat="48.03747" lon="-3.87114">
        <ele>152.3</ele>
        <time>2023-04-05T09:47:08Z</time>
      </trkpt>
      <trkpt lat="48.0375" lon="-3.87112">
        <ele>152.4</ele>
        <time>2023-04-05T09:47:09Z</time>
      </trkpt>
      <trkpt lat="48.03754" lon="-3.87109">
        <ele>152.5</ele>
        <time>2023-04-05T09:47:10Z</time>
      </trkpt>
      <trkpt lat="48.03757" lon="-3.87107">
        <ele>152.6</ele>
        <time>2023-04-05T09:47:11Z</time>
      </trkpt>
      <trkpt lat="48.0376" lon="-3.87105">
        <ele>152.6</ele>
        <time>2023-04-05T09:47:12Z</time>
      </trkpt>
      <trkpt lat="48.03763" lon="-3.87102">
        <ele>152.7</ele>
        <time>2023-04-05T09:47:13Z</time>
      </trkpt>
      <trkpt lat="48.03765" lon="-3.871">
        <ele>152.8</ele>
        <time>2023-04-05T09:47:14Z</time>
      </trkpt>
      <trkpt lat="48.03768" lon="-3.87098">
        <ele>152.8</ele>
        <time>2023-04-05T09:47:15Z</time>
      </trkpt>
      <trkpt lat="48.03771" lon="-3.87095">
        <ele>152.9</ele>
        <time>2023-04-05T09:47:16Z</time>
      </trkpt>
      <trkpt lat="48.03775" lon="-3.87091">
        <ele>152.9</ele>
        <time>2023-04-05T09:47:17Z</time>
      </trkpt>
      <trkpt lat="48.03779" lon="-3.87087">
        <ele>153</ele>
        <time>2023-04-05T09:47:18Z</time>
      </trkpt>
      <trkpt lat="48.03782" lon="-3.87083">
        <ele>153</ele>
        <time>2023-04-05T09:47:19Z</time>
      </trkpt>
      <trkpt lat="48.03786" lon="-3.8708">
        <ele>153.1</ele>
        <time>2023-04-05T09:47:20Z</time>
      </trkpt>
      <trkpt lat="48.0379" lon="-3.87076">
        <ele>153.1</ele>
        <time>2023-04-05T09:47:21Z</time>
      </trkpt>
      <trkpt lat="48.03797" lon="-3.8707">
        <ele>153.2</ele>
        <time>2023-04-05T09:47:23Z</time>
      </trkpt>
      <trkpt lat="48.038" lon="-3.87068">
        <ele>153.2</ele>
        <time>2023-04-05T09:47:24Z</time>
      </trkpt>
      <trkpt lat="48.03803" lon="-3.87066">
        <ele>153.2</ele>
        <time>2023-04-05T09:47:25Z</time>
      </trkpt>
      <trkpt lat="48.03807" lon="-3.87063">
        <ele>153.2</ele>
        <time>2023-04-05T09:47:26Z</time>
      </trkpt>
      <trkpt lat="48.0381" lon="-3.8706">
        <ele>153.2</ele>
        <time>2023-04-05T09:47:27Z</time>
      </trkpt>
      <trkpt lat="48.03814" lon="-3.87057">
        <ele>153.2</ele>
        <time>2023-04-05T09:47:28Z</time>
      </trkpt>
      <trkpt lat="48.03818" lon="-3.87055">
        <ele>153.2</ele>
        <time>2023-04-05T09:47:29Z</time>
      </trkpt>
      <trkpt lat="48.03821" lon="-3.87052">
        <ele>153.2</ele>
        <time>2023-04-05T09:47:30Z</time>
      </trkpt>
      <trkpt lat="48.03825" lon="-3.87049">
        <ele>153.1</ele>
        <time>2023-04-05T09:47:31Z</time>
      </trkpt>
      <trkpt lat="48.03828" lon="-3.87047">
        <ele>153.1</ele>
        <time>2023-04-05T09:47:32Z</time>
      </trkpt>
      <trkpt lat="48.03832" lon="-3.87044">
        <ele>153</ele>
        <time>2023-04-05T09:47:33Z</time>
      </trkpt>
      <trkpt lat="48.03835" lon="-3.87042">
        <ele>152.9</ele>
        <time>2023-04-05T09:47:34Z</time>
      </trkpt>
      <trkpt lat="48.03839" lon="-3.8704">
        <ele>152.8</ele>
        <time>2023-04-05T09:47:35Z</time>
      </trkpt>
      <trkpt lat="48.03843" lon="-3.87038">
        <ele>152.7</ele>
        <time>2023-04-05T09:47:36Z</time>
      </trkpt>
      <trkpt lat="48.03847" lon="-3.87036">
        <ele>152.6</ele>
        <time>2023-04-05T09:47:37Z</time>
      </trkpt>
      <trkpt lat="48.03852" lon="-3.87034">
        <ele>152.5</ele>
        <time>2023-04-05T09:47:38Z</time>
      </trkpt>
      <trkpt lat="48.03856" lon="-3.87033">
        <ele>152.3</ele>
        <time>2023-04-05T09:47:39Z</time>
      </trkpt>
      <trkpt lat="48.03862" lon="-3.8703">
        <ele>152.1</ele>
        <time>2023-04-05T09:47:40Z</time>
      </trkpt>
      <trkpt lat="48.03869" lon="-3.87027">
        <ele>151.8</ele>
        <time>2023-04-05T09:47:41Z</time>
      </trkpt>
      <trkpt lat="48.03874" lon="-3.87023">
        <ele>151.5</ele>
        <time>2023-04-05T09:47:42Z</time>
      </trkpt>
      <trkpt lat="48.0388" lon="-3.87021">
        <ele>151.1</ele>
        <time>2023-04-05T09:47:43Z</time>
      </trkpt>
      <trkpt lat="48.03888" lon="-3.87018">
        <ele>150.7</ele>
        <time>2023-04-05T09:47:44Z</time>
      </trkpt>
      <trkpt lat="48.03896" lon="-3.87015">
        <ele>150.3</ele>
        <time>2023-04-05T09:47:45Z</time>
      </trkpt>
      <trkpt lat="48.03904" lon="-3.87012">
        <ele>149.9</ele>
        <time>2023-04-05T09:47:46Z</time>
      </trkpt>
      <trkpt lat="48.03911" lon="-3.87008">
        <ele>149.6</ele>
        <time>2023-04-05T09:47:47Z</time>
      </trkpt>
      <trkpt lat="48.03918" lon="-3.87005">
        <ele>149.2</ele>
        <time>2023-04-05T09:47:48Z</time>
      </trkpt>
      <trkpt lat="48.03925" lon="-3.87003">
        <ele>149</ele>
        <time>2023-04-05T09:47:49Z</time>
      </trkpt>
      <trkpt lat="48.03933" lon="-3.86999">
        <ele>148.7</ele>
        <time>2023-04-05T09:47:50Z</time>
      </trkpt>
      <trkpt lat="48.03941" lon="-3.86995">
        <ele>148.4</ele>
        <time>2023-04-05T09:47:51Z</time>
      </trkpt>
      <trkpt lat="48.03948" lon="-3.86993">
        <ele>148.2</ele>
        <time>2023-04-05T09:47:52Z</time>
      </trkpt>
      <trkpt lat="48.03955" lon="-3.8699">
        <ele>147.9</ele>
        <time>2023-04-05T09:47:53Z</time>
      </trkpt>
      <trkpt lat="48.03963" lon="-3.86987">
        <ele>147.7</ele>
        <time>2023-04-05T09:47:54Z</time>
      </trkpt>
      <trkpt lat="48.03971" lon="-3.86985">
        <ele>147.4</ele>
        <time>2023-04-05T09:47:55Z</time>
      </trkpt>
      <trkpt lat="48.03977" lon="-3.86982">
        <ele>147.3</ele>
        <time>2023-04-05T09:47:56Z</time>
      </trkpt>
      <trkpt lat="48.03984" lon="-3.86979">
        <ele>147.1</ele>
        <time>2023-04-05T09:47:57Z</time>
      </trkpt>
      <trkpt lat="48.03991" lon="-3.86977">
        <ele>146.8</ele>
        <time>2023-04-05T09:47:58Z</time>
      </trkpt>
      <trkpt lat="48.03998" lon="-3.86974">
        <ele>146.6</ele>
        <time>2023-04-05T09:47:59Z</time>
      </trkpt>
      <trkpt lat="48.04005" lon="-3.86972">
        <ele>146.3</ele>
        <time>2023-04-05T09:48:00Z</time>
      </trkpt>
      <trkpt lat="48.04012" lon="-3.8697">
        <ele>146</ele>
        <time>2023-04-05T09:48:01Z</time>
      </trkpt>
      <trkpt lat="48.0402" lon="-3.86967">
        <ele>145.7</ele>
        <time>2023-04-05T09:48:02Z</time>
      </trkpt>
      <trkpt lat="48.04027" lon="-3.86963">
        <ele>145.5</ele>
        <time>2023-04-05T09:48:03Z</time>
      </trkpt>
      <trkpt lat="48.04034" lon="-3.8696">
        <ele>145.3</ele>
        <time>2023-04-05T09:48:04Z</time>
      </trkpt>
      <trkpt lat="48.04041" lon="-3.86957">
        <ele>145.1</ele>
        <time>2023-04-05T09:48:05Z</time>
      </trkpt>
      <trkpt lat="48.04048" lon="-3.86955">
        <ele>144.9</ele>
        <time>2023-04-05T09:48:06Z</time>
      </trkpt>
      <trkpt lat="48.04054" lon="-3.86952">
        <ele>144.7</ele>
        <time>2023-04-05T09:48:07Z</time>
      </trkpt>
      <trkpt lat="48.04062" lon="-3.86949">
        <ele>144.5</ele>
        <time>2023-04-05T09:48:08Z</time>
      </trkpt>
      <trkpt lat="48.04069" lon="-3.86946">
        <ele>144.3</ele>
        <time>2023-04-05T09:48:09Z</time>
      </trkpt>
      <trkpt lat="48.04076" lon="-3.86943">
        <ele>144.2</ele>
        <time>2023-04-05T09:48:10Z</time>
      </trkpt>
      <trkpt lat="48.04084" lon="-3.8694">
        <ele>144.1</ele>
        <time>2023-04-05T09:48:11Z</time>
      </trkpt>
      <trkpt lat="48.04092" lon="-3.86937">
        <ele>144.1</ele>
        <time>2023-04-05T09:48:12Z</time>
      </trkpt>
      <trkpt lat="48.04099" lon="-3.86935">
        <ele>144.1</ele>
        <time>2023-04-05T09:48:13Z</time>
      </trkpt>
      <trkpt lat="48.04107" lon="-3.86932">
        <ele>144.2</ele>
        <time>2023-04-05T09:48:14Z</time>
      </trkpt>
      <trkpt lat="48.04115" lon="-3.86929">
        <ele>144.3</ele>
        <time>2023-04-05T09:48:15Z</time>
      </trkpt>
      <trkpt lat="48.04121" lon="-3.86926">
        <ele>144.5</ele>
        <time>2023-04-05T09:48:16Z</time>
      </trkpt>
      <trkpt lat="48.04128" lon="-3.86923">
        <ele>144.6</ele>
        <time>2023-04-05T09:48:17Z</time>
      </trkpt>
      <trkpt lat="48.04134" lon="-3.86921">
        <ele>144.8</ele>
        <time>2023-04-05T09:48:18Z</time>
      </trkpt>
      <trkpt lat="48.0414" lon="-3.8692">
        <ele>144.9</ele>
        <time>2023-04-05T09:48:19Z</time>
      </trkpt>
      <trkpt lat="48.04145" lon="-3.86918">
        <ele>145</ele>
        <time>2023-04-05T09:48:20Z</time>
      </trkpt>
      <trkpt lat="48.04151" lon="-3.86915">
        <ele>145.1</ele>
        <time>2023-04-05T09:48:21Z</time>
      </trkpt>
      <trkpt lat="48.04157" lon="-3.86913">
        <ele>145.2</ele>
        <time>2023-04-05T09:48:22Z</time>
      </trkpt>
      <trkpt lat="48.04162" lon="-3.8691">
        <ele>145.3</ele>
        <time>2023-04-05T09:48:23Z</time>
      </trkpt>
      <trkpt lat="48.04167" lon="-3.86908">
        <ele>145.4</ele>
        <time>2023-04-05T09:48:24Z</time>
      </trkpt>
      <trkpt lat="48.04173" lon="-3.86906">
        <ele>145.5</ele>
        <time>2023-04-05T09:48:25Z</time>
      </trkpt>
      <trkpt lat="48.04178" lon="-3.86904">
        <ele>145.6</ele>
        <time>2023-04-05T09:48:26Z</time>
      </trkpt>
      <trkpt lat="48.04183" lon="-3.86903">
        <ele>145.7</ele>
        <time>2023-04-05T09:48:27Z</time>
      </trkpt>
      <trkpt lat="48.04188" lon="-3.86901">
        <ele>145.8</ele>
        <time>2023-04-05T09:48:28Z</time>
      </trkpt>
      <trkpt lat="48.04193" lon="-3.86899">
        <ele>145.9</ele>
        <time>2023-04-05T09:48:29Z</time>
      </trkpt>
      <trkpt lat="48.04197" lon="-3.86897">
        <ele>146</ele>
        <time>2023-04-05T09:48:30Z</time>
      </trkpt>
      <trkpt lat="48.04202" lon="-3.86895">
        <ele>146.1</ele>
        <time>2023-04-05T09:48:31Z</time>
      </trkpt>
      <trkpt lat="48.04207" lon="-3.86892">
        <ele>146.2</ele>
        <time>2023-04-05T09:48:32Z</time>
      </trkpt>
      <trkpt lat="48.04212" lon="-3.86891">
        <ele>146.4</ele>
        <time>2023-04-05T09:48:33Z</time>
      </trkpt>
      <trkpt lat="48.04217" lon="-3.86889">
        <ele>146.4</ele>
        <time>2023-04-05T09:48:34Z</time>
      </trkpt>
      <trkpt lat="48.04222" lon="-3.86887">
        <ele>146.5</ele>
        <time>2023-04-05T09:48:35Z</time>
      </trkpt>
      <trkpt lat="48.04227" lon="-3.86885">
        <ele>146.5</ele>
        <time>2023-04-05T09:48:36Z</time>
      </trkpt>
      <trkpt lat="48.04232" lon="-3.86881">
        <ele>146.7</ele>
        <time>2023-04-05T09:48:37Z</time>
      </trkpt>
      <trkpt lat="48.04236" lon="-3.86879">
        <ele>146.8</ele>
        <time>2023-04-05T09:48:38Z</time>
      </trkpt>
      <trkpt lat="48.04241" lon="-3.86877">
        <ele>146.9</ele>
        <time>2023-04-05T09:48:39Z</time>
      </trkpt>
      <trkpt lat="48.04245" lon="-3.86875">
        <ele>147.1</ele>
        <time>2023-04-05T09:48:40Z</time>
      </trkpt>
      <trkpt lat="48.0425" lon="-3.86873">
        <ele>147.3</ele>
        <time>2023-04-05T09:48:41Z</time>
      </trkpt>
      <trkpt lat="48.04255" lon="-3.86871">
        <ele>147.5</ele>
        <time>2023-04-05T09:48:42Z</time>
      </trkpt>
      <trkpt lat="48.0426" lon="-3.8687">
        <ele>147.7</ele>
        <time>2023-04-05T09:48:43Z</time>
      </trkpt>
      <trkpt lat="48.04264" lon="-3.86868">
        <ele>147.8</ele>
        <time>2023-04-05T09:48:44Z</time>
      </trkpt>
      <trkpt lat="48.04268" lon="-3.86866">
        <ele>148</ele>
        <time>2023-04-05T09:48:45Z</time>
      </trkpt>
      <trkpt lat="48.04273" lon="-3.86865">
        <ele>148.2</ele>
        <time>2023-04-05T09:48:46Z</time>
      </trkpt>
      <trkpt lat="48.04277" lon="-3.86863">
        <ele>148.3</ele>
        <time>2023-04-05T09:48:47Z</time>
      </trkpt>
      <trkpt lat="48.0428" lon="-3.86861">
        <ele>148.4</ele>
        <time>2023-04-05T09:48:48Z</time>
      </trkpt>
      <trkpt lat="48.04285" lon="-3.8686">
        <ele>148.6</ele>
        <time>2023-04-05T09:48:49Z</time>
      </trkpt>
      <trkpt lat="48.04288" lon="-3.86859">
        <ele>148.7</ele>
        <time>2023-04-05T09:48:50Z</time>
      </trkpt>
      <trkpt lat="48.04293" lon="-3.86857">
        <ele>148.8</ele>
        <time>2023-04-05T09:48:51Z</time>
      </trkpt>
      <trkpt lat="48.04296" lon="-3.86856">
        <ele>148.9</ele>
        <time>2023-04-05T09:48:52Z</time>
      </trkpt>
      <trkpt lat="48.04304" lon="-3.86853">
        <ele>149</ele>
        <time>2023-04-05T09:48:53Z</time>
      </trkpt>
      <trkpt lat="48.04308" lon="-3.86851">
        <ele>149.1</ele>
        <time>2023-04-05T09:48:54Z</time>
      </trkpt>
      <trkpt lat="48.04311" lon="-3.8685">
        <ele>149.2</ele>
        <time>2023-04-05T09:48:55Z</time>
      </trkpt>
      <trkpt lat="48.04316" lon="-3.86849">
        <ele>149.3</ele>
        <time>2023-04-05T09:48:56Z</time>
      </trkpt>
      <trkpt lat="48.04321" lon="-3.86847">
        <ele>149.5</ele>
        <time>2023-04-05T09:48:57Z</time>
      </trkpt>
      <trkpt lat="48.04326" lon="-3.86844">
        <ele>149.6</ele>
        <time>2023-04-05T09:48:58Z</time>
      </trkpt>
      <trkpt lat="48.04334" lon="-3.8684">
        <ele>149.9</ele>
        <time>2023-04-05T09:49:00Z</time>
      </trkpt>
      <trkpt lat="48.04339" lon="-3.86839">
        <ele>150.1</ele>
        <time>2023-04-05T09:49:02Z</time>
      </trkpt>
      <trkpt lat="48.04347" lon="-3.86835">
        <ele>150.4</ele>
        <time>2023-04-05T09:49:03Z</time>
      </trkpt>
      <trkpt lat="48.04356" lon="-3.86833">
        <ele>150.6</ele>
        <time>2023-04-05T09:49:05Z</time>
      </trkpt>
      <trkpt lat="48.04361" lon="-3.86831">
        <ele>150.7</ele>
        <time>2023-04-05T09:49:07Z</time>
      </trkpt>
      <trkpt lat="48.04365" lon="-3.8683">
        <ele>150.7</ele>
        <time>2023-04-05T09:49:08Z</time>
      </trkpt>
      <trkpt lat="48.04368" lon="-3.86828">
        <ele>150.8</ele>
        <time>2023-04-05T09:49:09Z</time>
      </trkpt>
      <trkpt lat="48.04372" lon="-3.86827">
        <ele>150.9</ele>
        <time>2023-04-05T09:49:10Z</time>
      </trkpt>
      <trkpt lat="48.04379" lon="-3.86824">
        <ele>151.1</ele>
        <time>2023-04-05T09:49:11Z</time>
      </trkpt>
      <trkpt lat="48.04384" lon="-3.86822">
        <ele>151.3</ele>
        <time>2023-04-05T09:49:13Z</time>
      </trkpt>
      <trkpt lat="48.04387" lon="-3.86821">
        <ele>151.4</ele>
        <time>2023-04-05T09:49:14Z</time>
      </trkpt>
      <trkpt lat="48.04392" lon="-3.86819">
        <ele>151.6</ele>
        <time>2023-04-05T09:49:15Z</time>
      </trkpt>
      <trkpt lat="48.04396" lon="-3.86818">
        <ele>151.7</ele>
        <time>2023-04-05T09:49:16Z</time>
      </trkpt>
      <trkpt lat="48.044" lon="-3.86816">
        <ele>151.8</ele>
        <time>2023-04-05T09:49:17Z</time>
      </trkpt>
      <trkpt lat="48.04404" lon="-3.86815">
        <ele>151.9</ele>
        <time>2023-04-05T09:49:18Z</time>
      </trkpt>
      <trkpt lat="48.04408" lon="-3.86813">
        <ele>152.1</ele>
        <time>2023-04-05T09:49:19Z</time>
      </trkpt>
      <trkpt lat="48.04412" lon="-3.86811">
        <ele>152.2</ele>
        <time>2023-04-05T09:49:20Z</time>
      </trkpt>
      <trkpt lat="48.04415" lon="-3.86808">
        <ele>152.3</ele>
        <time>2023-04-05T09:49:21Z</time>
      </trkpt>
      <trkpt lat="48.04419" lon="-3.86807">
        <ele>152.5</ele>
        <time>2023-04-05T09:49:22Z</time>
      </trkpt>
      <trkpt lat="48.04423" lon="-3.86805">
        <ele>152.6</ele>
        <time>2023-04-05T09:49:23Z</time>
      </trkpt>
      <trkpt lat="48.04428" lon="-3.86803">
        <ele>152.7</ele>
        <time>2023-04-05T09:49:24Z</time>
      </trkpt>
      <trkpt lat="48.04432" lon="-3.86801">
        <ele>152.8</ele>
        <time>2023-04-05T09:49:25Z</time>
      </trkpt>
      <trkpt lat="48.04435" lon="-3.86799">
        <ele>152.9</ele>
        <time>2023-04-05T09:49:26Z</time>
      </trkpt>
      <trkpt lat="48.0444" lon="-3.86796">
        <ele>153</ele>
        <time>2023-04-05T09:49:27Z</time>
      </trkpt>
      <trkpt lat="48.04444" lon="-3.86795">
        <ele>153.1</ele>
        <time>2023-04-05T09:49:28Z</time>
      </trkpt>
      <trkpt lat="48.04449" lon="-3.86793">
        <ele>153.3</ele>
        <time>2023-04-05T09:49:29Z</time>
      </trkpt>
      <trkpt lat="48.04452" lon="-3.86792">
        <ele>153.4</ele>
        <time>2023-04-05T09:49:30Z</time>
      </trkpt>
      <trkpt lat="48.04457" lon="-3.86789">
        <ele>153.5</ele>
        <time>2023-04-05T09:49:31Z</time>
      </trkpt>
      <trkpt lat="48.04462" lon="-3.86787">
        <ele>153.7</ele>
        <time>2023-04-05T09:49:32Z</time>
      </trkpt>
      <trkpt lat="48.04467" lon="-3.86786">
        <ele>153.8</ele>
        <time>2023-04-05T09:49:34Z</time>
      </trkpt>
      <trkpt lat="48.04471" lon="-3.86784">
        <ele>153.8</ele>
        <time>2023-04-05T09:49:35Z</time>
      </trkpt>
      <trkpt lat="48.04475" lon="-3.86782">
        <ele>153.9</ele>
        <time>2023-04-05T09:49:36Z</time>
      </trkpt>
      <trkpt lat="48.04479" lon="-3.8678">
        <ele>153.9</ele>
        <time>2023-04-05T09:49:37Z</time>
      </trkpt>
      <trkpt lat="48.04483" lon="-3.86779">
        <ele>154</ele>
        <time>2023-04-05T09:49:38Z</time>
      </trkpt>
      <trkpt lat="48.04487" lon="-3.86777">
        <ele>154</ele>
        <time>2023-04-05T09:49:39Z</time>
      </trkpt>
      <trkpt lat="48.04491" lon="-3.86775">
        <ele>154.1</ele>
        <time>2023-04-05T09:49:40Z</time>
      </trkpt>
      <trkpt lat="48.04495" lon="-3.86773">
        <ele>154.1</ele>
        <time>2023-04-05T09:49:41Z</time>
      </trkpt>
      <trkpt lat="48.04499" lon="-3.86771">
        <ele>154.2</ele>
        <time>2023-04-05T09:49:42Z</time>
      </trkpt>
      <trkpt lat="48.04503" lon="-3.86769">
        <ele>154.2</ele>
        <time>2023-04-05T09:49:43Z</time>
      </trkpt>
      <trkpt lat="48.04507" lon="-3.86767">
        <ele>154.2</ele>
        <time>2023-04-05T09:49:44Z</time>
      </trkpt>
      <trkpt lat="48.04512" lon="-3.86766">
        <ele>154.3</ele>
        <time>2023-04-05T09:49:45Z</time>
      </trkpt>
      <trkpt lat="48.04519" lon="-3.86762">
        <ele>154.4</ele>
        <time>2023-04-05T09:49:46Z</time>
      </trkpt>
      <trkpt lat="48.04524" lon="-3.8676">
        <ele>154.4</ele>
        <time>2023-04-05T09:49:48Z</time>
      </trkpt>
      <trkpt lat="48.04531" lon="-3.86756">
        <ele>154.6</ele>
        <time>2023-04-05T09:49:49Z</time>
      </trkpt>
      <trkpt lat="48.04538" lon="-3.86753">
        <ele>154.9</ele>
        <time>2023-04-05T09:49:51Z</time>
      </trkpt>
      <trkpt lat="48.04542" lon="-3.86751">
        <ele>155.1</ele>
        <time>2023-04-05T09:49:53Z</time>
      </trkpt>
      <trkpt lat="48.04546" lon="-3.86749">
        <ele>155.3</ele>
        <time>2023-04-05T09:49:54Z</time>
      </trkpt>
      <trkpt lat="48.04551" lon="-3.86747">
        <ele>155.5</ele>
        <time>2023-04-05T09:49:55Z</time>
      </trkpt>
      <trkpt lat="48.04555" lon="-3.86746">
        <ele>155.7</ele>
        <time>2023-04-05T09:49:56Z</time>
      </trkpt>
      <trkpt lat="48.04558" lon="-3.86744">
        <ele>155.9</ele>
        <time>2023-04-05T09:49:57Z</time>
      </trkpt>
      <trkpt lat="48.04562" lon="-3.86742">
        <ele>156.1</ele>
        <time>2023-04-05T09:49:58Z</time>
      </trkpt>
      <trkpt lat="48.04565" lon="-3.86741">
        <ele>156.2</ele>
        <time>2023-04-05T09:49:59Z</time>
      </trkpt>
      <trkpt lat="48.04568" lon="-3.86739">
        <ele>156.4</ele>
        <time>2023-04-05T09:50:00Z</time>
      </trkpt>
      <trkpt lat="48.04572" lon="-3.86738">
        <ele>156.6</ele>
        <time>2023-04-05T09:50:01Z</time>
      </trkpt>
      <trkpt lat="48.04575" lon="-3.86737">
        <ele>156.8</ele>
        <time>2023-04-05T09:50:02Z</time>
      </trkpt>
      <trkpt lat="48.04578" lon="-3.86736">
        <ele>157</ele>
        <time>2023-04-05T09:50:03Z</time>
      </trkpt>
      <trkpt lat="48.04582" lon="-3.86734">
        <ele>157.2</ele>
        <time>2023-04-05T09:50:04Z</time>
      </trkpt>
      <trkpt lat="48.04585" lon="-3.86732">
        <ele>157.4</ele>
        <time>2023-04-05T09:50:05Z</time>
      </trkpt>
      <trkpt lat="48.04589" lon="-3.8673">
        <ele>157.7</ele>
        <time>2023-04-05T09:50:06Z</time>
      </trkpt>
      <trkpt lat="48.04593" lon="-3.86729">
        <ele>158</ele>
        <time>2023-04-05T09:50:08Z</time>
      </trkpt>
      <trkpt lat="48.04598" lon="-3.86727">
        <ele>158.4</ele>
        <time>2023-04-05T09:50:09Z</time>
      </trkpt>
      <trkpt lat="48.04603" lon="-3.86725">
        <ele>158.8</ele>
        <time>2023-04-05T09:50:11Z</time>
      </trkpt>
      <trkpt lat="48.04608" lon="-3.86723">
        <ele>159.2</ele>
        <time>2023-04-05T09:50:12Z</time>
      </trkpt>
      <trkpt lat="48.04612" lon="-3.86721">
        <ele>159.5</ele>
        <time>2023-04-05T09:50:14Z</time>
      </trkpt>
      <trkpt lat="48.04615" lon="-3.8672">
        <ele>159.8</ele>
        <time>2023-04-05T09:50:15Z</time>
      </trkpt>
      <trkpt lat="48.04618" lon="-3.86719">
        <ele>160</ele>
        <time>2023-04-05T09:50:16Z</time>
      </trkpt>
      <trkpt lat="48.04621" lon="-3.86717">
        <ele>160.2</ele>
        <time>2023-04-05T09:50:17Z</time>
      </trkpt>
      <trkpt lat="48.04624" lon="-3.86715">
        <ele>160.5</ele>
        <time>2023-04-05T09:50:18Z</time>
      </trkpt>
      <trkpt lat="48.04628" lon="-3.86713">
        <ele>160.7</ele>
        <time>2023-04-05T09:50:19Z</time>
      </trkpt>
      <trkpt lat="48.04631" lon="-3.86712">
        <ele>160.9</ele>
        <time>2023-04-05T09:50:20Z</time>
      </trkpt>
      <trkpt lat="48.04634" lon="-3.86711">
        <ele>161.1</ele>
        <time>2023-04-05T09:50:21Z</time>
      </trkpt>
      <trkpt lat="48.04638" lon="-3.86709">
        <ele>161.3</ele>
        <time>2023-04-05T09:50:22Z</time>
      </trkpt>
      <trkpt lat="48.04641" lon="-3.86707">
        <ele>161.5</ele>
        <time>2023-04-05T09:50:23Z</time>
      </trkpt>
      <trkpt lat="48.04644" lon="-3.86706">
        <ele>161.7</ele>
        <time>2023-04-05T09:50:24Z</time>
      </trkpt>
      <trkpt lat="48.04648" lon="-3.86704">
        <ele>161.9</ele>
        <time>2023-04-05T09:50:25Z</time>
      </trkpt>
      <trkpt lat="48.04651" lon="-3.86703">
        <ele>162.1</ele>
        <time>2023-04-05T09:50:26Z</time>
      </trkpt>
      <trkpt lat="48.04654" lon="-3.86702">
        <ele>162.3</ele>
        <time>2023-04-05T09:50:27Z</time>
      </trkpt>
      <trkpt lat="48.04657" lon="-3.86701">
        <ele>162.5</ele>
        <time>2023-04-05T09:50:28Z</time>
      </trkpt>
      <trkpt lat="48.04661" lon="-3.867">
        <ele>162.7</ele>
        <time>2023-04-05T09:50:29Z</time>
      </trkpt>
      <trkpt lat="48.04664" lon="-3.86699">
        <ele>162.9</ele>
        <time>2023-04-05T09:50:30Z</time>
      </trkpt>
      <trkpt lat="48.04668" lon="-3.86697">
        <ele>163.1</ele>
        <time>2023-04-05T09:50:31Z</time>
      </trkpt>
      <trkpt lat="48.04669" lon="-3.86697">
        <ele>163.2</ele>
        <time>2023-04-05T09:50:32Z</time>
      </trkpt>
      <trkpt lat="48.04673" lon="-3.86696">
        <ele>163.4</ele>
        <time>2023-04-05T09:50:33Z</time>
      </trkpt>
      <trkpt lat="48.04677" lon="-3.86695">
        <ele>163.6</ele>
        <time>2023-04-05T09:50:34Z</time>
      </trkpt>
      <trkpt lat="48.04681" lon="-3.86694">
        <ele>163.7</ele>
        <time>2023-04-05T09:50:35Z</time>
      </trkpt>
      <trkpt lat="48.04684" lon="-3.86693">
        <ele>163.9</ele>
        <time>2023-04-05T09:50:36Z</time>
      </trkpt>
      <trkpt lat="48.04687" lon="-3.86693">
        <ele>164.1</ele>
        <time>2023-04-05T09:50:37Z</time>
      </trkpt>
      <trkpt lat="48.04691" lon="-3.86692">
        <ele>164.3</ele>
        <time>2023-04-05T09:50:38Z</time>
      </trkpt>
      <trkpt lat="48.04695" lon="-3.8669">
        <ele>164.5</ele>
        <time>2023-04-05T09:50:39Z</time>
      </trkpt>
      <trkpt lat="48.04699" lon="-3.86689">
        <ele>164.7</ele>
        <time>2023-04-05T09:50:40Z</time>
      </trkpt>
      <trkpt lat="48.04701" lon="-3.86687">
        <ele>164.9</ele>
        <time>2023-04-05T09:50:41Z</time>
      </trkpt>
      <trkpt lat="48.04704" lon="-3.86685">
        <ele>165.1</ele>
        <time>2023-04-05T09:50:42Z</time>
      </trkpt>
      <trkpt lat="48.04707" lon="-3.86683">
        <ele>165.3</ele>
        <time>2023-04-05T09:50:43Z</time>
      </trkpt>
      <trkpt lat="48.04712" lon="-3.86682">
        <ele>165.7</ele>
        <time>2023-04-05T09:50:44Z</time>
      </trkpt>
      <trkpt lat="48.04716" lon="-3.86681">
        <ele>166</ele>
        <time>2023-04-05T09:50:45Z</time>
      </trkpt>
      <trkpt lat="48.04718" lon="-3.86681">
        <ele>166.1</ele>
        <time>2023-04-05T09:50:46Z</time>
      </trkpt>
      <trkpt lat="48.04721" lon="-3.8668">
        <ele>166.3</ele>
        <time>2023-04-05T09:50:47Z</time>
      </trkpt>
      <trkpt lat="48.04725" lon="-3.86679">
        <ele>166.5</ele>
        <time>2023-04-05T09:50:48Z</time>
      </trkpt>
      <trkpt lat="48.04728" lon="-3.86677">
        <ele>166.7</ele>
        <time>2023-04-05T09:50:49Z</time>
      </trkpt>
      <trkpt lat="48.04731" lon="-3.86674">
        <ele>166.9</ele>
        <time>2023-04-05T09:50:50Z</time>
      </trkpt>
      <trkpt lat="48.04738" lon="-3.86672">
        <ele>167.2</ele>
        <time>2023-04-05T09:50:52Z</time>
      </trkpt>
      <trkpt lat="48.04741" lon="-3.86671">
        <ele>167.3</ele>
        <time>2023-04-05T09:50:54Z</time>
      </trkpt>
      <trkpt lat="48.04745" lon="-3.8667">
        <ele>167.4</ele>
        <time>2023-04-05T09:50:55Z</time>
      </trkpt>
      <trkpt lat="48.04748" lon="-3.86669">
        <ele>167.6</ele>
        <time>2023-04-05T09:50:56Z</time>
      </trkpt>
      <trkpt lat="48.0475" lon="-3.86668">
        <ele>167.7</ele>
        <time>2023-04-05T09:50:57Z</time>
      </trkpt>
      <trkpt lat="48.04759" lon="-3.86666">
        <ele>168.1</ele>
        <time>2023-04-05T09:50:59Z</time>
      </trkpt>
      <trkpt lat="48.04765" lon="-3.86665">
        <ele>168.4</ele>
        <time>2023-04-05T09:51:01Z</time>
      </trkpt>
      <trkpt lat="48.04769" lon="-3.86665">
        <ele>168.5</ele>
        <time>2023-04-05T09:51:02Z</time>
      </trkpt>
      <trkpt lat="48.04774" lon="-3.86662">
        <ele>168.7</ele>
        <time>2023-04-05T09:51:04Z</time>
      </trkpt>
      <trkpt lat="48.04777" lon="-3.86661">
        <ele>168.8</ele>
        <time>2023-04-05T09:51:05Z</time>
      </trkpt>
      <trkpt lat="48.0478" lon="-3.8666">
        <ele>168.9</ele>
        <time>2023-04-05T09:51:06Z</time>
      </trkpt>
      <trkpt lat="48.04783" lon="-3.86658">
        <ele>169.1</ele>
        <time>2023-04-05T09:51:08Z</time>
      </trkpt>
      <trkpt lat="48.0479" lon="-3.86657">
        <ele>169.4</ele>
        <time>2023-04-05T09:51:09Z</time>
      </trkpt>
      <trkpt lat="48.04796" lon="-3.86656">
        <ele>169.7</ele>
        <time>2023-04-05T09:51:11Z</time>
      </trkpt>
      <trkpt lat="48.048" lon="-3.86654">
        <ele>169.8</ele>
        <time>2023-04-05T09:51:12Z</time>
      </trkpt>
      <trkpt lat="48.04803" lon="-3.86654">
        <ele>170</ele>
        <time>2023-04-05T09:51:13Z</time>
      </trkpt>
      <trkpt lat="48.04806" lon="-3.86654">
        <ele>170.2</ele>
        <time>2023-04-05T09:51:14Z</time>
      </trkpt>
      <trkpt lat="48.04813" lon="-3.86653">
        <ele>170.5</ele>
        <time>2023-04-05T09:51:16Z</time>
      </trkpt>
      <trkpt lat="48.04817" lon="-3.86653">
        <ele>170.7</ele>
        <time>2023-04-05T09:51:18Z</time>
      </trkpt>
      <trkpt lat="48.04823" lon="-3.86653">
        <ele>170.9</ele>
        <time>2023-04-05T09:51:19Z</time>
      </trkpt>
      <trkpt lat="48.04826" lon="-3.86653">
        <ele>171.1</ele>
        <time>2023-04-05T09:51:21Z</time>
      </trkpt>
      <trkpt lat="48.0483" lon="-3.86653">
        <ele>171.2</ele>
        <time>2023-04-05T09:51:22Z</time>
      </trkpt>
      <trkpt lat="48.04833" lon="-3.86653">
        <ele>171.3</ele>
        <time>2023-04-05T09:51:23Z</time>
      </trkpt>
      <trkpt lat="48.04836" lon="-3.86654">
        <ele>171.4</ele>
        <time>2023-04-05T09:51:24Z</time>
      </trkpt>
      <trkpt lat="48.04842" lon="-3.86652">
        <ele>171.7</ele>
        <time>2023-04-05T09:51:25Z</time>
      </trkpt>
      <trkpt lat="48.04849" lon="-3.86651">
        <ele>171.9</ele>
        <time>2023-04-05T09:51:27Z</time>
      </trkpt>
      <trkpt lat="48.04852" lon="-3.86651">
        <ele>172</ele>
        <time>2023-04-05T09:51:28Z</time>
      </trkpt>
      <trkpt lat="48.04856" lon="-3.86651">
        <ele>172.2</ele>
        <time>2023-04-05T09:51:30Z</time>
      </trkpt>
      <trkpt lat="48.0486" lon="-3.86651">
        <ele>172.3</ele>
        <time>2023-04-05T09:51:31Z</time>
      </trkpt>
      <trkpt lat="48.04863" lon="-3.86651">
        <ele>172.5</ele>
        <time>2023-04-05T09:51:32Z</time>
      </trkpt>
      <trkpt lat="48.04867" lon="-3.8665">
        <ele>172.6</ele>
        <time>2023-04-05T09:51:33Z</time>
      </trkpt>
      <trkpt lat="48.0487" lon="-3.8665">
        <ele>172.8</ele>
        <time>2023-04-05T09:51:34Z</time>
      </trkpt>
      <trkpt lat="48.04874" lon="-3.8665">
        <ele>172.9</ele>
        <time>2023-04-05T09:51:35Z</time>
      </trkpt>
      <trkpt lat="48.04877" lon="-3.8665">
        <ele>173.1</ele>
        <time>2023-04-05T09:51:36Z</time>
      </trkpt>
      <trkpt lat="48.04881" lon="-3.8665">
        <ele>173.3</ele>
        <time>2023-04-05T09:51:37Z</time>
      </trkpt>
      <trkpt lat="48.04884" lon="-3.8665">
        <ele>173.4</ele>
        <time>2023-04-05T09:51:38Z</time>
      </trkpt>
      <trkpt lat="48.04887" lon="-3.86649">
        <ele>173.6</ele>
        <time>2023-04-05T09:51:39Z</time>
      </trkpt>
      <trkpt lat="48.04891" lon="-3.86648">
        <ele>173.7</ele>
        <time>2023-04-05T09:51:40Z</time>
      </trkpt>
      <trkpt lat="48.04895" lon="-3.86648">
        <ele>173.8</ele>
        <time>2023-04-05T09:51:41Z</time>
      </trkpt>
      <trkpt lat="48.04899" lon="-3.86647">
        <ele>174</ele>
        <time>2023-04-05T09:51:42Z</time>
      </trkpt>
      <trkpt lat="48.04902" lon="-3.86647">
        <ele>174.1</ele>
        <time>2023-04-05T09:51:43Z</time>
      </trkpt>
      <trkpt lat="48.04906" lon="-3.86647">
        <ele>174.1</ele>
        <time>2023-04-05T09:51:44Z</time>
      </trkpt>
      <trkpt lat="48.04909" lon="-3.86646">
        <ele>174.2</ele>
        <time>2023-04-05T09:51:45Z</time>
      </trkpt>
      <trkpt lat="48.04913" lon="-3.86646">
        <ele>174.3</ele>
        <time>2023-04-05T09:51:46Z</time>
      </trkpt>
      <trkpt lat="48.04917" lon="-3.86646">
        <ele>174.3</ele>
        <time>2023-04-05T09:51:47Z</time>
      </trkpt>
      <trkpt lat="48.0492" lon="-3.86646">
        <ele>174.4</ele>
        <time>2023-04-05T09:51:48Z</time>
      </trkpt>
      <trkpt lat="48.04924" lon="-3.86647">
        <ele>174.4</ele>
        <time>2023-04-05T09:51:49Z</time>
      </trkpt>
      <trkpt lat="48.04927" lon="-3.86647">
        <ele>174.4</ele>
        <time>2023-04-05T09:51:50Z</time>
      </trkpt>
      <trkpt lat="48.04931" lon="-3.86646">
        <ele>174.3</ele>
        <time>2023-04-05T09:51:51Z</time>
      </trkpt>
      <trkpt lat="48.04936" lon="-3.86646">
        <ele>174.3</ele>
        <time>2023-04-05T09:51:52Z</time>
      </trkpt>
      <trkpt lat="48.0494" lon="-3.86645">
        <ele>174.2</ele>
        <time>2023-04-05T09:51:53Z</time>
      </trkpt>
      <trkpt lat="48.04945" lon="-3.86644">
        <ele>174.2</ele>
        <time>2023-04-05T09:51:54Z</time>
      </trkpt>
      <trkpt lat="48.04949" lon="-3.86644">
        <ele>174.2</ele>
        <time>2023-04-05T09:51:55Z</time>
      </trkpt>
      <trkpt lat="48.04954" lon="-3.86643">
        <ele>174.1</ele>
        <time>2023-04-05T09:51:56Z</time>
      </trkpt>
      <trkpt lat="48.04958" lon="-3.86643">
        <ele>174.1</ele>
        <time>2023-04-05T09:51:57Z</time>
      </trkpt>
      <trkpt lat="48.04962" lon="-3.86643">
        <ele>174</ele>
        <time>2023-04-05T09:51:58Z</time>
      </trkpt>
      <trkpt lat="48.04966" lon="-3.86642">
        <ele>173.9</ele>
        <time>2023-04-05T09:51:59Z</time>
      </trkpt>
      <trkpt lat="48.0497" lon="-3.86641">
        <ele>173.8</ele>
        <time>2023-04-05T09:52:00Z</time>
      </trkpt>
      <trkpt lat="48.04975" lon="-3.86641">
        <ele>173.6</ele>
        <time>2023-04-05T09:52:01Z</time>
      </trkpt>
      <trkpt lat="48.0498" lon="-3.86641">
        <ele>173.4</ele>
        <time>2023-04-05T09:52:02Z</time>
      </trkpt>
      <trkpt lat="48.04984" lon="-3.8664">
        <ele>173.3</ele>
        <time>2023-04-05T09:52:03Z</time>
      </trkpt>
      <trkpt lat="48.04988" lon="-3.86639">
        <ele>173.1</ele>
        <time>2023-04-05T09:52:04Z</time>
      </trkpt>
      <trkpt lat="48.04993" lon="-3.86639">
        <ele>173</ele>
        <time>2023-04-05T09:52:05Z</time>
      </trkpt>
      <trkpt lat="48.04997" lon="-3.86638">
        <ele>172.9</ele>
        <time>2023-04-05T09:52:06Z</time>
      </trkpt>
      <trkpt lat="48.05002" lon="-3.86638">
        <ele>172.8</ele>
        <time>2023-04-05T09:52:07Z</time>
      </trkpt>
      <trkpt lat="48.05006" lon="-3.86638">
        <ele>172.7</ele>
        <time>2023-04-05T09:52:08Z</time>
      </trkpt>
      <trkpt lat="48.0501" lon="-3.8664">
        <ele>172.6</ele>
        <time>2023-04-05T09:52:09Z</time>
      </trkpt>
      <trkpt lat="48.05013" lon="-3.86639">
        <ele>172.6</ele>
        <time>2023-04-05T09:52:11Z</time>
      </trkpt>
      <trkpt lat="48.05014" lon="-3.86639">
        <ele>172.5</ele>
        <time>2023-04-05T09:52:12Z</time>
      </trkpt>
      <trkpt lat="48.05017" lon="-3.86642">
        <ele>172.4</ele>
        <time>2023-04-05T09:52:13Z</time>
      </trkpt>
      <trkpt lat="48.05018" lon="-3.86643">
        <ele>172.4</ele>
        <time>2023-04-05T09:52:14Z</time>
      </trkpt>
      <trkpt lat="48.0502" lon="-3.86649">
        <ele>172.3</ele>
        <time>2023-04-05T09:52:15Z</time>
      </trkpt>
      <trkpt lat="48.05021" lon="-3.86656">
        <ele>172.2</ele>
        <time>2023-04-05T09:52:16Z</time>
      </trkpt>
      <trkpt lat="48.05017" lon="-3.86668">
        <ele>172.1</ele>
        <time>2023-04-05T09:52:17Z</time>
      </trkpt>
      <trkpt lat="48.05015" lon="-3.86676">
        <ele>172</ele>
        <time>2023-04-05T09:52:18Z</time>
      </trkpt>
      <trkpt lat="48.05014" lon="-3.86684">
        <ele>172</ele>
        <time>2023-04-05T09:52:19Z</time>
      </trkpt>
      <trkpt lat="48.05013" lon="-3.86692">
        <ele>171.9</ele>
        <time>2023-04-05T09:52:20Z</time>
      </trkpt>
      <trkpt lat="48.05012" lon="-3.867">
        <ele>171.9</ele>
        <time>2023-04-05T09:52:21Z</time>
      </trkpt>
      <trkpt lat="48.05011" lon="-3.86707">
        <ele>171.8</ele>
        <time>2023-04-05T09:52:22Z</time>
      </trkpt>
      <trkpt lat="48.05009" lon="-3.86716">
        <ele>171.8</ele>
        <time>2023-04-05T09:52:23Z</time>
      </trkpt>
      <trkpt lat="48.05008" lon="-3.86724">
        <ele>171.7</ele>
        <time>2023-04-05T09:52:24Z</time>
      </trkpt>
      <trkpt lat="48.05007" lon="-3.86732">
        <ele>171.7</ele>
        <time>2023-04-05T09:52:25Z</time>
      </trkpt>
      <trkpt lat="48.05006" lon="-3.8674">
        <ele>171.6</ele>
        <time>2023-04-05T09:52:26Z</time>
      </trkpt>
      <trkpt lat="48.05004" lon="-3.86748">
        <ele>171.6</ele>
        <time>2023-04-05T09:52:27Z</time>
      </trkpt>
      <trkpt lat="48.05003" lon="-3.86757">
        <ele>171.6</ele>
        <time>2023-04-05T09:52:28Z</time>
      </trkpt>
      <trkpt lat="48.05002" lon="-3.86766">
        <ele>171.6</ele>
        <time>2023-04-05T09:52:29Z</time>
      </trkpt>
      <trkpt lat="48.05" lon="-3.86774">
        <ele>171.5</ele>
        <time>2023-04-05T09:52:30Z</time>
      </trkpt>
      <trkpt lat="48.04999" lon="-3.86783">
        <ele>171.5</ele>
        <time>2023-04-05T09:52:31Z</time>
      </trkpt>
      <trkpt lat="48.04998" lon="-3.86792">
        <ele>171.4</ele>
        <time>2023-04-05T09:52:32Z</time>
      </trkpt>
      <trkpt lat="48.04997" lon="-3.868">
        <ele>171.4</ele>
        <time>2023-04-05T09:52:33Z</time>
      </trkpt>
      <trkpt lat="48.04996" lon="-3.86809">
        <ele>171.3</ele>
        <time>2023-04-05T09:52:34Z</time>
      </trkpt>
      <trkpt lat="48.04995" lon="-3.86818">
        <ele>171.3</ele>
        <time>2023-04-05T09:52:35Z</time>
      </trkpt>
      <trkpt lat="48.04994" lon="-3.86827">
        <ele>171.2</ele>
        <time>2023-04-05T09:52:36Z</time>
      </trkpt>
      <trkpt lat="48.04993" lon="-3.86835">
        <ele>171.2</ele>
        <time>2023-04-05T09:52:37Z</time>
      </trkpt>
      <trkpt lat="48.04992" lon="-3.86844">
        <ele>171.2</ele>
        <time>2023-04-05T09:52:38Z</time>
      </trkpt>
      <trkpt lat="48.04991" lon="-3.86852">
        <ele>171.2</ele>
        <time>2023-04-05T09:52:39Z</time>
      </trkpt>
      <trkpt lat="48.0499" lon="-3.86861">
        <ele>171.1</ele>
        <time>2023-04-05T09:52:40Z</time>
      </trkpt>
      <trkpt lat="48.04988" lon="-3.8687">
        <ele>171.1</ele>
        <time>2023-04-05T09:52:41Z</time>
      </trkpt>
      <trkpt lat="48.04987" lon="-3.86879">
        <ele>171.1</ele>
        <time>2023-04-05T09:52:42Z</time>
      </trkpt>
      <trkpt lat="48.04986" lon="-3.86888">
        <ele>171</ele>
        <time>2023-04-05T09:52:43Z</time>
      </trkpt>
      <trkpt lat="48.04985" lon="-3.86896">
        <ele>171</ele>
        <time>2023-04-05T09:52:44Z</time>
      </trkpt>
      <trkpt lat="48.04984" lon="-3.86905">
        <ele>171</ele>
        <time>2023-04-05T09:52:45Z</time>
      </trkpt>
      <trkpt lat="48.04983" lon="-3.86914">
        <ele>170.9</ele>
        <time>2023-04-05T09:52:46Z</time>
      </trkpt>
      <trkpt lat="48.04982" lon="-3.86922">
        <ele>170.9</ele>
        <time>2023-04-05T09:52:47Z</time>
      </trkpt>
      <trkpt lat="48.04982" lon="-3.86931">
        <ele>170.9</ele>
        <time>2023-04-05T09:52:48Z</time>
      </trkpt>
      <trkpt lat="48.04981" lon="-3.8694">
        <ele>170.8</ele>
        <time>2023-04-05T09:52:49Z</time>
      </trkpt>
      <trkpt lat="48.0498" lon="-3.86949">
        <ele>170.8</ele>
        <time>2023-04-05T09:52:50Z</time>
      </trkpt>
      <trkpt lat="48.04979" lon="-3.86958">
        <ele>170.7</ele>
        <time>2023-04-05T09:52:51Z</time>
      </trkpt>
      <trkpt lat="48.04978" lon="-3.86967">
        <ele>170.7</ele>
        <time>2023-04-05T09:52:52Z</time>
      </trkpt>
      <trkpt lat="48.04978" lon="-3.86977">
        <ele>170.7</ele>
        <time>2023-04-05T09:52:53Z</time>
      </trkpt>
      <trkpt lat="48.04977" lon="-3.86986">
        <ele>170.6</ele>
        <time>2023-04-05T09:52:54Z</time>
      </trkpt>
      <trkpt lat="48.04976" lon="-3.86995">
        <ele>170.6</ele>
        <time>2023-04-05T09:52:55Z</time>
      </trkpt>
      <trkpt lat="48.04975" lon="-3.87004">
        <ele>170.5</ele>
        <time>2023-04-05T09:52:56Z</time>
      </trkpt>
      <trkpt lat="48.04975" lon="-3.87013">
        <ele>170.5</ele>
        <time>2023-04-05T09:52:57Z</time>
      </trkpt>
      <trkpt lat="48.04974" lon="-3.87022">
        <ele>170.4</ele>
        <time>2023-04-05T09:52:58Z</time>
      </trkpt>
      <trkpt lat="48.04973" lon="-3.87031">
        <ele>170.4</ele>
        <time>2023-04-05T09:52:59Z</time>
      </trkpt>
      <trkpt lat="48.04972" lon="-3.8704">
        <ele>170.4</ele>
        <time>2023-04-05T09:53:00Z</time>
      </trkpt>
      <trkpt lat="48.04972" lon="-3.87049">
        <ele>170.3</ele>
        <time>2023-04-05T09:53:01Z</time>
      </trkpt>
      <trkpt lat="48.04971" lon="-3.87059">
        <ele>170.3</ele>
        <time>2023-04-05T09:53:02Z</time>
      </trkpt>
      <trkpt lat="48.04971" lon="-3.87068">
        <ele>170.2</ele>
        <time>2023-04-05T09:53:03Z</time>
      </trkpt>
      <trkpt lat="48.0497" lon="-3.87077">
        <ele>170.1</ele>
        <time>2023-04-05T09:53:04Z</time>
      </trkpt>
      <trkpt lat="48.04969" lon="-3.87085">
        <ele>170.1</ele>
        <time>2023-04-05T09:53:05Z</time>
      </trkpt>
      <trkpt lat="48.04968" lon="-3.87095">
        <ele>170</ele>
        <time>2023-04-05T09:53:06Z</time>
      </trkpt>
      <trkpt lat="48.04968" lon="-3.87104">
        <ele>169.9</ele>
        <time>2023-04-05T09:53:07Z</time>
      </trkpt>
      <trkpt lat="48.04967" lon="-3.87113">
        <ele>169.8</ele>
        <time>2023-04-05T09:53:08Z</time>
      </trkpt>
      <trkpt lat="48.04966" lon="-3.87122">
        <ele>169.7</ele>
        <time>2023-04-05T09:53:09Z</time>
      </trkpt>
      <trkpt lat="48.04966" lon="-3.87132">
        <ele>169.7</ele>
        <time>2023-04-05T09:53:10Z</time>
      </trkpt>
      <trkpt lat="48.04965" lon="-3.87141">
        <ele>169.6</ele>
        <time>2023-04-05T09:53:11Z</time>
      </trkpt>
      <trkpt lat="48.04964" lon="-3.87151">
        <ele>169.5</ele>
        <time>2023-04-05T09:53:12Z</time>
      </trkpt>
      <trkpt lat="48.04964" lon="-3.87161">
        <ele>169.4</ele>
        <time>2023-04-05T09:53:13Z</time>
      </trkpt>
      <trkpt lat="48.04963" lon="-3.8717">
        <ele>169.4</ele>
        <time>2023-04-05T09:53:14Z</time>
      </trkpt>
      <trkpt lat="48.04962" lon="-3.8718">
        <ele>169.3</ele>
        <time>2023-04-05T09:53:15Z</time>
      </trkpt>
      <trkpt lat="48.04962" lon="-3.87189">
        <ele>169.2</ele>
        <time>2023-04-05T09:53:16Z</time>
      </trkpt>
      <trkpt lat="48.04961" lon="-3.87199">
        <ele>169.2</ele>
        <time>2023-04-05T09:53:17Z</time>
      </trkpt>
      <trkpt lat="48.04961" lon="-3.87208">
        <ele>169.1</ele>
        <time>2023-04-05T09:53:18Z</time>
      </trkpt>
      <trkpt lat="48.0496" lon="-3.87217">
        <ele>169.1</ele>
        <time>2023-04-05T09:53:19Z</time>
      </trkpt>
      <trkpt lat="48.0496" lon="-3.87227">
        <ele>169</ele>
        <time>2023-04-05T09:53:20Z</time>
      </trkpt>
      <trkpt lat="48.04959" lon="-3.87236">
        <ele>168.9</ele>
        <time>2023-04-05T09:53:21Z</time>
      </trkpt>
      <trkpt lat="48.04959" lon="-3.87246">
        <ele>168.9</ele>
        <time>2023-04-05T09:53:22Z</time>
      </trkpt>
      <trkpt lat="48.04958" lon="-3.87256">
        <ele>168.8</ele>
        <time>2023-04-05T09:53:23Z</time>
      </trkpt>
      <trkpt lat="48.04958" lon="-3.87265">
        <ele>168.8</ele>
        <time>2023-04-05T09:53:24Z</time>
      </trkpt>
      <trkpt lat="48.04957" lon="-3.87275">
        <ele>168.7</ele>
        <time>2023-04-05T09:53:25Z</time>
      </trkpt>
      <trkpt lat="48.04956" lon="-3.87284">
        <ele>168.7</ele>
        <time>2023-04-05T09:53:26Z</time>
      </trkpt>
      <trkpt lat="48.04956" lon="-3.87294">
        <ele>168.6</ele>
        <time>2023-04-05T09:53:27Z</time>
      </trkpt>
      <trkpt lat="48.04955" lon="-3.87303">
        <ele>168.6</ele>
        <time>2023-04-05T09:53:28Z</time>
      </trkpt>
      <trkpt lat="48.04955" lon="-3.87312">
        <ele>168.5</ele>
        <time>2023-04-05T09:53:29Z</time>
      </trkpt>
      <trkpt lat="48.04954" lon="-3.87322">
        <ele>168.5</ele>
        <time>2023-04-05T09:53:30Z</time>
      </trkpt>
      <trkpt lat="48.04954" lon="-3.87332">
        <ele>168.4</ele>
        <time>2023-04-05T09:53:31Z</time>
      </trkpt>
      <trkpt lat="48.04953" lon="-3.87341">
        <ele>168.3</ele>
        <time>2023-04-05T09:53:32Z</time>
      </trkpt>
      <trkpt lat="48.04953" lon="-3.87351">
        <ele>168.3</ele>
        <time>2023-04-05T09:53:33Z</time>
      </trkpt>
      <trkpt lat="48.04953" lon="-3.8736">
        <ele>168.2</ele>
        <time>2023-04-05T09:53:34Z</time>
      </trkpt>
      <trkpt lat="48.04952" lon="-3.87369">
        <ele>168.1</ele>
        <time>2023-04-05T09:53:35Z</time>
      </trkpt>
      <trkpt lat="48.04952" lon="-3.87379">
        <ele>168.1</ele>
        <time>2023-04-05T09:53:36Z</time>
      </trkpt>
      <trkpt lat="48.04951" lon="-3.87388">
        <ele>168</ele>
        <time>2023-04-05T09:53:37Z</time>
      </trkpt>
      <trkpt lat="48.0495" lon="-3.87397">
        <ele>168</ele>
        <time>2023-04-05T09:53:38Z</time>
      </trkpt>
      <trkpt lat="48.0495" lon="-3.87406">
        <ele>167.9</ele>
        <time>2023-04-05T09:53:39Z</time>
      </trkpt>
      <trkpt lat="48.04949" lon="-3.87416">
        <ele>167.9</ele>
        <time>2023-04-05T09:53:40Z</time>
      </trkpt>
      <trkpt lat="48.04949" lon="-3.87425">
        <ele>167.8</ele>
        <time>2023-04-05T09:53:41Z</time>
      </trkpt>
      <trkpt lat="48.04949" lon="-3.87434">
        <ele>167.7</ele>
        <time>2023-04-05T09:53:42Z</time>
      </trkpt>
      <trkpt lat="48.04948" lon="-3.87443">
        <ele>167.6</ele>
        <time>2023-04-05T09:53:43Z</time>
      </trkpt>
      <trkpt lat="48.04948" lon="-3.87453">
        <ele>167.5</ele>
        <time>2023-04-05T09:53:44Z</time>
      </trkpt>
      <trkpt lat="48.04947" lon="-3.87462">
        <ele>167.3</ele>
        <time>2023-04-05T09:53:45Z</time>
      </trkpt>
      <trkpt lat="48.04946" lon="-3.87472">
        <ele>167.2</ele>
        <time>2023-04-05T09:53:46Z</time>
      </trkpt>
      <trkpt lat="48.04946" lon="-3.87481">
        <ele>167</ele>
        <time>2023-04-05T09:53:47Z</time>
      </trkpt>
      <trkpt lat="48.04945" lon="-3.87491">
        <ele>166.9</ele>
        <time>2023-04-05T09:53:48Z</time>
      </trkpt>
      <trkpt lat="48.04944" lon="-3.87501">
        <ele>166.8</ele>
        <time>2023-04-05T09:53:49Z</time>
      </trkpt>
      <trkpt lat="48.04943" lon="-3.8751">
        <ele>166.8</ele>
        <time>2023-04-05T09:53:50Z</time>
      </trkpt>
      <trkpt lat="48.04942" lon="-3.8752">
        <ele>166.7</ele>
        <time>2023-04-05T09:53:51Z</time>
      </trkpt>
      <trkpt lat="48.0494" lon="-3.87529">
        <ele>166.6</ele>
        <time>2023-04-05T09:53:52Z</time>
      </trkpt>
      <trkpt lat="48.04939" lon="-3.87538">
        <ele>166.5</ele>
        <time>2023-04-05T09:53:53Z</time>
      </trkpt>
      <trkpt lat="48.04937" lon="-3.87548">
        <ele>166.3</ele>
        <time>2023-04-05T09:53:54Z</time>
      </trkpt>
      <trkpt lat="48.04935" lon="-3.87557">
        <ele>166.1</ele>
        <time>2023-04-05T09:53:55Z</time>
      </trkpt>
      <trkpt lat="48.04934" lon="-3.87567">
        <ele>165.9</ele>
        <time>2023-04-05T09:53:56Z</time>
      </trkpt>
      <trkpt lat="48.04932" lon="-3.87576">
        <ele>165.8</ele>
        <time>2023-04-05T09:53:57Z</time>
      </trkpt>
      <trkpt lat="48.04931" lon="-3.87586">
        <ele>165.6</ele>
        <time>2023-04-05T09:53:58Z</time>
      </trkpt>
      <trkpt lat="48.04929" lon="-3.87595">
        <ele>165.4</ele>
        <time>2023-04-05T09:53:59Z</time>
      </trkpt>
      <trkpt lat="48.04927" lon="-3.87605">
        <ele>165.2</ele>
        <time>2023-04-05T09:54:00Z</time>
      </trkpt>
      <trkpt lat="48.04925" lon="-3.87615">
        <ele>165</ele>
        <time>2023-04-05T09:54:01Z</time>
      </trkpt>
      <trkpt lat="48.04923" lon="-3.87625">
        <ele>164.8</ele>
        <time>2023-04-05T09:54:02Z</time>
      </trkpt>
      <trkpt lat="48.04922" lon="-3.87634">
        <ele>164.5</ele>
        <time>2023-04-05T09:54:03Z</time>
      </trkpt>
      <trkpt lat="48.0492" lon="-3.87644">
        <ele>164.3</ele>
        <time>2023-04-05T09:54:04Z</time>
      </trkpt>
      <trkpt lat="48.04918" lon="-3.87654">
        <ele>164.1</ele>
        <time>2023-04-05T09:54:05Z</time>
      </trkpt>
      <trkpt lat="48.04916" lon="-3.87664">
        <ele>163.9</ele>
        <time>2023-04-05T09:54:06Z</time>
      </trkpt>
      <trkpt lat="48.04914" lon="-3.87674">
        <ele>163.6</ele>
        <time>2023-04-05T09:54:07Z</time>
      </trkpt>
      <trkpt lat="48.04912" lon="-3.87685">
        <ele>163.4</ele>
        <time>2023-04-05T09:54:08Z</time>
      </trkpt>
      <trkpt lat="48.0491" lon="-3.87696">
        <ele>163.2</ele>
        <time>2023-04-05T09:54:09Z</time>
      </trkpt>
      <trkpt lat="48.04908" lon="-3.87707">
        <ele>162.9</ele>
        <time>2023-04-05T09:54:10Z</time>
      </trkpt>
      <trkpt lat="48.04906" lon="-3.87718">
        <ele>162.7</ele>
        <time>2023-04-05T09:54:11Z</time>
      </trkpt>
      <trkpt lat="48.04905" lon="-3.87729">
        <ele>162.5</ele>
        <time>2023-04-05T09:54:12Z</time>
      </trkpt>
      <trkpt lat="48.04903" lon="-3.8774">
        <ele>162.2</ele>
        <time>2023-04-05T09:54:13Z</time>
      </trkpt>
      <trkpt lat="48.04901" lon="-3.87751">
        <ele>162</ele>
        <time>2023-04-05T09:54:14Z</time>
      </trkpt>
      <trkpt lat="48.04899" lon="-3.87762">
        <ele>161.7</ele>
        <time>2023-04-05T09:54:15Z</time>
      </trkpt>
      <trkpt lat="48.04897" lon="-3.87773">
        <ele>161.6</ele>
        <time>2023-04-05T09:54:16Z</time>
      </trkpt>
      <trkpt lat="48.04895" lon="-3.87784">
        <ele>161.4</ele>
        <time>2023-04-05T09:54:17Z</time>
      </trkpt>
      <trkpt lat="48.04893" lon="-3.87796">
        <ele>161.2</ele>
        <time>2023-04-05T09:54:18Z</time>
      </trkpt>
      <trkpt lat="48.04891" lon="-3.87807">
        <ele>161</ele>
        <time>2023-04-05T09:54:19Z</time>
      </trkpt>
      <trkpt lat="48.04889" lon="-3.87818">
        <ele>160.8</ele>
        <time>2023-04-05T09:54:20Z</time>
      </trkpt>
      <trkpt lat="48.04887" lon="-3.87829">
        <ele>160.7</ele>
        <time>2023-04-05T09:54:21Z</time>
      </trkpt>
      <trkpt lat="48.04886" lon="-3.87841">
        <ele>160.5</ele>
        <time>2023-04-05T09:54:22Z</time>
      </trkpt>
      <trkpt lat="48.04884" lon="-3.87852">
        <ele>160.5</ele>
        <time>2023-04-05T09:54:23Z</time>
      </trkpt>
      <trkpt lat="48.04882" lon="-3.87862">
        <ele>160.4</ele>
        <time>2023-04-05T09:54:24Z</time>
      </trkpt>
      <trkpt lat="48.0488" lon="-3.87873">
        <ele>160.3</ele>
        <time>2023-04-05T09:54:25Z</time>
      </trkpt>
      <trkpt lat="48.04879" lon="-3.87883">
        <ele>160.3</ele>
        <time>2023-04-05T09:54:26Z</time>
      </trkpt>
      <trkpt lat="48.04877" lon="-3.87893">
        <ele>160.3</ele>
        <time>2023-04-05T09:54:27Z</time>
      </trkpt>
      <trkpt lat="48.04875" lon="-3.87904">
        <ele>160.3</ele>
        <time>2023-04-05T09:54:28Z</time>
      </trkpt>
      <trkpt lat="48.04874" lon="-3.87914">
        <ele>160.3</ele>
        <time>2023-04-05T09:54:29Z</time>
      </trkpt>
      <trkpt lat="48.04872" lon="-3.87924">
        <ele>160.3</ele>
        <time>2023-04-05T09:54:30Z</time>
      </trkpt>
      <trkpt lat="48.04871" lon="-3.87934">
        <ele>160.3</ele>
        <time>2023-04-05T09:54:31Z</time>
      </trkpt>
      <trkpt lat="48.04869" lon="-3.87944">
        <ele>160.3</ele>
        <time>2023-04-05T09:54:32Z</time>
      </trkpt>
      <trkpt lat="48.04867" lon="-3.87954">
        <ele>160.2</ele>
        <time>2023-04-05T09:54:33Z</time>
      </trkpt>
      <trkpt lat="48.04865" lon="-3.87964">
        <ele>160.2</ele>
        <time>2023-04-05T09:54:34Z</time>
      </trkpt>
      <trkpt lat="48.04863" lon="-3.87974">
        <ele>160.2</ele>
        <time>2023-04-05T09:54:35Z</time>
      </trkpt>
      <trkpt lat="48.04861" lon="-3.87984">
        <ele>160.2</ele>
        <time>2023-04-05T09:54:36Z</time>
      </trkpt>
      <trkpt lat="48.04858" lon="-3.87993">
        <ele>160.1</ele>
        <time>2023-04-05T09:54:37Z</time>
      </trkpt>
      <trkpt lat="48.04855" lon="-3.88003">
        <ele>160.1</ele>
        <time>2023-04-05T09:54:38Z</time>
      </trkpt>
      <trkpt lat="48.04853" lon="-3.88012">
        <ele>160.2</ele>
        <time>2023-04-05T09:54:39Z</time>
      </trkpt>
      <trkpt lat="48.0485" lon="-3.88021">
        <ele>160.2</ele>
        <time>2023-04-05T09:54:40Z</time>
      </trkpt>
      <trkpt lat="48.04846" lon="-3.8803">
        <ele>160.3</ele>
        <time>2023-04-05T09:54:41Z</time>
      </trkpt>
      <trkpt lat="48.04843" lon="-3.88039">
        <ele>160.3</ele>
        <time>2023-04-05T09:54:42Z</time>
      </trkpt>
      <trkpt lat="48.0484" lon="-3.88048">
        <ele>160.4</ele>
        <time>2023-04-05T09:54:43Z</time>
      </trkpt>
      <trkpt lat="48.04836" lon="-3.88057">
        <ele>160.4</ele>
        <time>2023-04-05T09:54:44Z</time>
      </trkpt>
      <trkpt lat="48.04833" lon="-3.88065">
        <ele>160.5</ele>
        <time>2023-04-05T09:54:45Z</time>
      </trkpt>
      <trkpt lat="48.04829" lon="-3.88074">
        <ele>160.5</ele>
        <time>2023-04-05T09:54:46Z</time>
      </trkpt>
      <trkpt lat="48.04826" lon="-3.88082">
        <ele>160.6</ele>
        <time>2023-04-05T09:54:47Z</time>
      </trkpt>
      <trkpt lat="48.04822" lon="-3.8809">
        <ele>160.7</ele>
        <time>2023-04-05T09:54:48Z</time>
      </trkpt>
      <trkpt lat="48.04819" lon="-3.88099">
        <ele>160.8</ele>
        <time>2023-04-05T09:54:49Z</time>
      </trkpt>
      <trkpt lat="48.04815" lon="-3.88107">
        <ele>160.9</ele>
        <time>2023-04-05T09:54:50Z</time>
      </trkpt>
      <trkpt lat="48.04812" lon="-3.88115">
        <ele>161</ele>
        <time>2023-04-05T09:54:51Z</time>
      </trkpt>
      <trkpt lat="48.04808" lon="-3.88122">
        <ele>161.1</ele>
        <time>2023-04-05T09:54:52Z</time>
      </trkpt>
      <trkpt lat="48.04805" lon="-3.8813">
        <ele>161.2</ele>
        <time>2023-04-05T09:54:53Z</time>
      </trkpt>
      <trkpt lat="48.04802" lon="-3.88138">
        <ele>161.4</ele>
        <time>2023-04-05T09:54:54Z</time>
      </trkpt>
      <trkpt lat="48.04798" lon="-3.88145">
        <ele>161.5</ele>
        <time>2023-04-05T09:54:55Z</time>
      </trkpt>
      <trkpt lat="48.04795" lon="-3.88153">
        <ele>161.6</ele>
        <time>2023-04-05T09:54:56Z</time>
      </trkpt>
      <trkpt lat="48.04794" lon="-3.88161">
        <ele>161.7</ele>
        <time>2023-04-05T09:54:57Z</time>
      </trkpt>
      <trkpt lat="48.04795" lon="-3.8817">
        <ele>161.6</ele>
        <time>2023-04-05T09:54:58Z</time>
      </trkpt>
      <trkpt lat="48.04797" lon="-3.88177">
        <ele>161.5</ele>
        <time>2023-04-05T09:54:59Z</time>
      </trkpt>
      <trkpt lat="48.04801" lon="-3.88183">
        <ele>161.5</ele>
        <time>2023-04-05T09:55:00Z</time>
      </trkpt>
      <trkpt lat="48.04806" lon="-3.88187">
        <ele>161.6</ele>
        <time>2023-04-05T09:55:01Z</time>
      </trkpt>
      <trkpt lat="48.04811" lon="-3.8819">
        <ele>161.8</ele>
        <time>2023-04-05T09:55:02Z</time>
      </trkpt>
      <trkpt lat="48.04816" lon="-3.88193">
        <ele>161.9</ele>
        <time>2023-04-05T09:55:03Z</time>
      </trkpt>
      <trkpt lat="48.0482" lon="-3.88195">
        <ele>162</ele>
        <time>2023-04-05T09:55:04Z</time>
      </trkpt>
      <trkpt lat="48.04825" lon="-3.88197">
        <ele>162.2</ele>
        <time>2023-04-05T09:55:05Z</time>
      </trkpt>
      <trkpt lat="48.04829" lon="-3.882">
        <ele>162.3</ele>
        <time>2023-04-05T09:55:06Z</time>
      </trkpt>
      <trkpt lat="48.04832" lon="-3.88203">
        <ele>162.4</ele>
        <time>2023-04-05T09:55:07Z</time>
      </trkpt>
      <trkpt lat="48.04835" lon="-3.88205">
        <ele>162.5</ele>
        <time>2023-04-05T09:55:08Z</time>
      </trkpt>
      <trkpt lat="48.04839" lon="-3.88209">
        <ele>162.7</ele>
        <time>2023-04-05T09:55:09Z</time>
      </trkpt>
      <trkpt lat="48.04843" lon="-3.88212">
        <ele>162.8</ele>
        <time>2023-04-05T09:55:10Z</time>
      </trkpt>
      <trkpt lat="48.04849" lon="-3.88218">
        <ele>163</ele>
        <time>2023-04-05T09:55:11Z</time>
      </trkpt>
      <trkpt lat="48.04852" lon="-3.88221">
        <ele>163.2</ele>
        <time>2023-04-05T09:55:12Z</time>
      </trkpt>
      <trkpt lat="48.04854" lon="-3.88223">
        <ele>163.3</ele>
        <time>2023-04-05T09:55:13Z</time>
      </trkpt>
      <trkpt lat="48.04857" lon="-3.88225">
        <ele>163.4</ele>
        <time>2023-04-05T09:55:14Z</time>
      </trkpt>
      <trkpt lat="48.04863" lon="-3.88228">
        <ele>163.7</ele>
        <time>2023-04-05T09:55:16Z</time>
      </trkpt>
      <trkpt lat="48.04867" lon="-3.88235">
        <ele>164</ele>
        <time>2023-04-05T09:55:17Z</time>
      </trkpt>
      <trkpt lat="48.04871" lon="-3.88239">
        <ele>164.2</ele>
        <time>2023-04-05T09:55:18Z</time>
      </trkpt>
      <trkpt lat="48.04875" lon="-3.88242">
        <ele>164.4</ele>
        <time>2023-04-05T09:55:19Z</time>
      </trkpt>
      <trkpt lat="48.04879" lon="-3.88245">
        <ele>164.6</ele>
        <time>2023-04-05T09:55:20Z</time>
      </trkpt>
      <trkpt lat="48.04882" lon="-3.88248">
        <ele>164.7</ele>
        <time>2023-04-05T09:55:21Z</time>
      </trkpt>
      <trkpt lat="48.04886" lon="-3.88251">
        <ele>164.9</ele>
        <time>2023-04-05T09:55:22Z</time>
      </trkpt>
      <trkpt lat="48.04894" lon="-3.88257">
        <ele>165.2</ele>
        <time>2023-04-05T09:55:23Z</time>
      </trkpt>
      <trkpt lat="48.04898" lon="-3.8826">
        <ele>165.3</ele>
        <time>2023-04-05T09:55:25Z</time>
      </trkpt>
      <trkpt lat="48.04903" lon="-3.88262">
        <ele>165.4</ele>
        <time>2023-04-05T09:55:26Z</time>
      </trkpt>
      <trkpt lat="48.04907" lon="-3.88264">
        <ele>165.5</ele>
        <time>2023-04-05T09:55:27Z</time>
      </trkpt>
      <trkpt lat="48.04911" lon="-3.88267">
        <ele>165.6</ele>
        <time>2023-04-05T09:55:28Z</time>
      </trkpt>
      <trkpt lat="48.04915" lon="-3.88269">
        <ele>165.7</ele>
        <time>2023-04-05T09:55:29Z</time>
      </trkpt>
      <trkpt lat="48.04919" lon="-3.88271">
        <ele>165.8</ele>
        <time>2023-04-05T09:55:30Z</time>
      </trkpt>
      <trkpt lat="48.04923" lon="-3.88274">
        <ele>165.8</ele>
        <time>2023-04-05T09:55:31Z</time>
      </trkpt>
      <trkpt lat="48.04927" lon="-3.88277">
        <ele>165.9</ele>
        <time>2023-04-05T09:55:32Z</time>
      </trkpt>
      <trkpt lat="48.04931" lon="-3.8828">
        <ele>166</ele>
        <time>2023-04-05T09:55:33Z</time>
      </trkpt>
      <trkpt lat="48.04935" lon="-3.88282">
        <ele>166.1</ele>
        <time>2023-04-05T09:55:34Z</time>
      </trkpt>
      <trkpt lat="48.04939" lon="-3.88285">
        <ele>166.2</ele>
        <time>2023-04-05T09:55:35Z</time>
      </trkpt>
      <trkpt lat="48.04943" lon="-3.88288">
        <ele>166.2</ele>
        <time>2023-04-05T09:55:36Z</time>
      </trkpt>
      <trkpt lat="48.04948" lon="-3.8829">
        <ele>166.2</ele>
        <time>2023-04-05T09:55:37Z</time>
      </trkpt>
      <trkpt lat="48.04951" lon="-3.88293">
        <ele>166.2</ele>
        <time>2023-04-05T09:55:38Z</time>
      </trkpt>
      <trkpt lat="48.04958" lon="-3.88295">
        <ele>166.3</ele>
        <time>2023-04-05T09:55:39Z</time>
      </trkpt>
      <trkpt lat="48.04963" lon="-3.88298">
        <ele>166.3</ele>
        <time>2023-04-05T09:55:40Z</time>
      </trkpt>
      <trkpt lat="48.04967" lon="-3.88299">
        <ele>166.4</ele>
        <time>2023-04-05T09:55:41Z</time>
      </trkpt>
      <trkpt lat="48.04973" lon="-3.88299">
        <ele>166.5</ele>
        <time>2023-04-05T09:55:42Z</time>
      </trkpt>
      <trkpt lat="48.04977" lon="-3.88299">
        <ele>166.5</ele>
        <time>2023-04-05T09:55:43Z</time>
      </trkpt>
      <trkpt lat="48.04982" lon="-3.88297">
        <ele>166.5</ele>
        <time>2023-04-05T09:55:44Z</time>
      </trkpt>
      <trkpt lat="48.04987" lon="-3.88295">
        <ele>166.5</ele>
        <time>2023-04-05T09:55:45Z</time>
      </trkpt>
      <trkpt lat="48.04992" lon="-3.88291">
        <ele>166.5</ele>
        <time>2023-04-05T09:55:46Z</time>
      </trkpt>
      <trkpt lat="48.04996" lon="-3.88287">
        <ele>166.4</ele>
        <time>2023-04-05T09:55:47Z</time>
      </trkpt>
      <trkpt lat="48.05001" lon="-3.88282">
        <ele>166.4</ele>
        <time>2023-04-05T09:55:48Z</time>
      </trkpt>
      <trkpt lat="48.05005" lon="-3.88277">
        <ele>166.3</ele>
        <time>2023-04-05T09:55:49Z</time>
      </trkpt>
      <trkpt lat="48.05008" lon="-3.88271">
        <ele>166.3</ele>
        <time>2023-04-05T09:55:50Z</time>
      </trkpt>
      <trkpt lat="48.05012" lon="-3.88264">
        <ele>166.2</ele>
        <time>2023-04-05T09:55:51Z</time>
      </trkpt>
      <trkpt lat="48.05014" lon="-3.88257">
        <ele>166.2</ele>
        <time>2023-04-05T09:55:52Z</time>
      </trkpt>
      <trkpt lat="48.05017" lon="-3.8825">
        <ele>166.2</ele>
        <time>2023-04-05T09:55:53Z</time>
      </trkpt>
      <trkpt lat="48.05019" lon="-3.88242">
        <ele>166.2</ele>
        <time>2023-04-05T09:55:54Z</time>
      </trkpt>
      <trkpt lat="48.05022" lon="-3.88236">
        <ele>166.3</ele>
        <time>2023-04-05T09:55:55Z</time>
      </trkpt>
      <trkpt lat="48.05025" lon="-3.88228">
        <ele>166.3</ele>
        <time>2023-04-05T09:55:56Z</time>
      </trkpt>
      <trkpt lat="48.05027" lon="-3.88221">
        <ele>166.3</ele>
        <time>2023-04-05T09:55:57Z</time>
      </trkpt>
      <trkpt lat="48.0503" lon="-3.88214">
        <ele>166.4</ele>
        <time>2023-04-05T09:55:58Z</time>
      </trkpt>
      <trkpt lat="48.05033" lon="-3.88207">
        <ele>166.4</ele>
        <time>2023-04-05T09:55:59Z</time>
      </trkpt>
      <trkpt lat="48.05035" lon="-3.882">
        <ele>166.4</ele>
        <time>2023-04-05T09:56:00Z</time>
      </trkpt>
      <trkpt lat="48.05039" lon="-3.88194">
        <ele>166.5</ele>
        <time>2023-04-05T09:56:01Z</time>
      </trkpt>
      <trkpt lat="48.05043" lon="-3.88188">
        <ele>166.6</ele>
        <time>2023-04-05T09:56:02Z</time>
      </trkpt>
      <trkpt lat="48.05047" lon="-3.88184">
        <ele>166.7</ele>
        <time>2023-04-05T09:56:03Z</time>
      </trkpt>
      <trkpt lat="48.05052" lon="-3.8818">
        <ele>166.8</ele>
        <time>2023-04-05T09:56:04Z</time>
      </trkpt>
      <trkpt lat="48.05057" lon="-3.88177">
        <ele>166.9</ele>
        <time>2023-04-05T09:56:05Z</time>
      </trkpt>
      <trkpt lat="48.05062" lon="-3.88176">
        <ele>167</ele>
        <time>2023-04-05T09:56:06Z</time>
      </trkpt>
      <trkpt lat="48.05067" lon="-3.88175">
        <ele>167.1</ele>
        <time>2023-04-05T09:56:07Z</time>
      </trkpt>
      <trkpt lat="48.05073" lon="-3.88176">
        <ele>167.2</ele>
        <time>2023-04-05T09:56:08Z</time>
      </trkpt>
      <trkpt lat="48.05078" lon="-3.88177">
        <ele>167.2</ele>
        <time>2023-04-05T09:56:09Z</time>
      </trkpt>
      <trkpt lat="48.05083" lon="-3.88178">
        <ele>167.3</ele>
        <time>2023-04-05T09:56:10Z</time>
      </trkpt>
      <trkpt lat="48.05088" lon="-3.88179">
        <ele>167.3</ele>
        <time>2023-04-05T09:56:11Z</time>
      </trkpt>
      <trkpt lat="48.05094" lon="-3.88179">
        <ele>167.4</ele>
        <time>2023-04-05T09:56:12Z</time>
      </trkpt>
      <trkpt lat="48.05099" lon="-3.8818">
        <ele>167.5</ele>
        <time>2023-04-05T09:56:13Z</time>
      </trkpt>
      <trkpt lat="48.05105" lon="-3.88181">
        <ele>167.6</ele>
        <time>2023-04-05T09:56:14Z</time>
      </trkpt>
      <trkpt lat="48.0511" lon="-3.88181">
        <ele>167.7</ele>
        <time>2023-04-05T09:56:15Z</time>
      </trkpt>
      <trkpt lat="48.05115" lon="-3.88182">
        <ele>167.8</ele>
        <time>2023-04-05T09:56:16Z</time>
      </trkpt>
      <trkpt lat="48.05121" lon="-3.88184">
        <ele>167.8</ele>
        <time>2023-04-05T09:56:17Z</time>
      </trkpt>
      <trkpt lat="48.05126" lon="-3.88185">
        <ele>167.9</ele>
        <time>2023-04-05T09:56:18Z</time>
      </trkpt>
      <trkpt lat="48.05131" lon="-3.88187">
        <ele>168</ele>
        <time>2023-04-05T09:56:19Z</time>
      </trkpt>
      <trkpt lat="48.05137" lon="-3.88188">
        <ele>168</ele>
        <time>2023-04-05T09:56:20Z</time>
      </trkpt>
      <trkpt lat="48.05142" lon="-3.8819">
        <ele>168.1</ele>
        <time>2023-04-05T09:56:21Z</time>
      </trkpt>
      <trkpt lat="48.05148" lon="-3.88191">
        <ele>168.1</ele>
        <time>2023-04-05T09:56:22Z</time>
      </trkpt>
      <trkpt lat="48.05153" lon="-3.88193">
        <ele>168.1</ele>
        <time>2023-04-05T09:56:23Z</time>
      </trkpt>
      <trkpt lat="48.05159" lon="-3.88195">
        <ele>168</ele>
        <time>2023-04-05T09:56:24Z</time>
      </trkpt>
      <trkpt lat="48.05164" lon="-3.88197">
        <ele>168</ele>
        <time>2023-04-05T09:56:25Z</time>
      </trkpt>
      <trkpt lat="48.0517" lon="-3.88199">
        <ele>167.9</ele>
        <time>2023-04-05T09:56:26Z</time>
      </trkpt>
      <trkpt lat="48.05175" lon="-3.88201">
        <ele>167.7</ele>
        <time>2023-04-05T09:56:27Z</time>
      </trkpt>
      <trkpt lat="48.05181" lon="-3.88204">
        <ele>167.5</ele>
        <time>2023-04-05T09:56:28Z</time>
      </trkpt>
      <trkpt lat="48.05187" lon="-3.88208">
        <ele>167.3</ele>
        <time>2023-04-05T09:56:29Z</time>
      </trkpt>
      <trkpt lat="48.05192" lon="-3.88211">
        <ele>167.2</ele>
        <time>2023-04-05T09:56:30Z</time>
      </trkpt>
      <trkpt lat="48.05199" lon="-3.88215">
        <ele>167</ele>
        <time>2023-04-05T09:56:31Z</time>
      </trkpt>
      <trkpt lat="48.05205" lon="-3.88219">
        <ele>166.8</ele>
        <time>2023-04-05T09:56:32Z</time>
      </trkpt>
      <trkpt lat="48.05211" lon="-3.88222">
        <ele>166.7</ele>
        <time>2023-04-05T09:56:33Z</time>
      </trkpt>
      <trkpt lat="48.05218" lon="-3.88226">
        <ele>166.5</ele>
        <time>2023-04-05T09:56:34Z</time>
      </trkpt>
      <trkpt lat="48.05225" lon="-3.88229">
        <ele>166.3</ele>
        <time>2023-04-05T09:56:35Z</time>
      </trkpt>
      <trkpt lat="48.05231" lon="-3.88233">
        <ele>166.1</ele>
        <time>2023-04-05T09:56:36Z</time>
      </trkpt>
      <trkpt lat="48.05238" lon="-3.88236">
        <ele>165.9</ele>
        <time>2023-04-05T09:56:37Z</time>
      </trkpt>
      <trkpt lat="48.05245" lon="-3.88239">
        <ele>165.7</ele>
        <time>2023-04-05T09:56:38Z</time>
      </trkpt>
      <trkpt lat="48.05251" lon="-3.88243">
        <ele>165.5</ele>
        <time>2023-04-05T09:56:39Z</time>
      </trkpt>
      <trkpt lat="48.05258" lon="-3.88246">
        <ele>165.1</ele>
        <time>2023-04-05T09:56:40Z</time>
      </trkpt>
      <trkpt lat="48.05265" lon="-3.88249">
        <ele>164.7</ele>
        <time>2023-04-05T09:56:41Z</time>
      </trkpt>
      <trkpt lat="48.05272" lon="-3.88253">
        <ele>164.3</ele>
        <time>2023-04-05T09:56:42Z</time>
      </trkpt>
      <trkpt lat="48.05279" lon="-3.88257">
        <ele>163.9</ele>
        <time>2023-04-05T09:56:43Z</time>
      </trkpt>
      <trkpt lat="48.05287" lon="-3.88262">
        <ele>163.4</ele>
        <time>2023-04-05T09:56:44Z</time>
      </trkpt>
      <trkpt lat="48.05295" lon="-3.88266">
        <ele>162.9</ele>
        <time>2023-04-05T09:56:45Z</time>
      </trkpt>
      <trkpt lat="48.05303" lon="-3.8827">
        <ele>162.4</ele>
        <time>2023-04-05T09:56:46Z</time>
      </trkpt>
      <trkpt lat="48.05311" lon="-3.88275">
        <ele>161.9</ele>
        <time>2023-04-05T09:56:47Z</time>
      </trkpt>
      <trkpt lat="48.05319" lon="-3.88279">
        <ele>161.4</ele>
        <time>2023-04-05T09:56:48Z</time>
      </trkpt>
      <trkpt lat="48.05327" lon="-3.88284">
        <ele>160.8</ele>
        <time>2023-04-05T09:56:49Z</time>
      </trkpt>
      <trkpt lat="48.05336" lon="-3.88289">
        <ele>160.3</ele>
        <time>2023-04-05T09:56:50Z</time>
      </trkpt>
      <trkpt lat="48.05344" lon="-3.88295">
        <ele>159.7</ele>
        <time>2023-04-05T09:56:51Z</time>
      </trkpt>
      <trkpt lat="48.05353" lon="-3.883">
        <ele>159.1</ele>
        <time>2023-04-05T09:56:52Z</time>
      </trkpt>
      <trkpt lat="48.05362" lon="-3.88305">
        <ele>158.5</ele>
        <time>2023-04-05T09:56:53Z</time>
      </trkpt>
      <trkpt lat="48.05371" lon="-3.8831">
        <ele>158</ele>
        <time>2023-04-05T09:56:54Z</time>
      </trkpt>
      <trkpt lat="48.0538" lon="-3.88315">
        <ele>157.4</ele>
        <time>2023-04-05T09:56:55Z</time>
      </trkpt>
      <trkpt lat="48.05389" lon="-3.88321">
        <ele>156.9</ele>
        <time>2023-04-05T09:56:56Z</time>
      </trkpt>
      <trkpt lat="48.05398" lon="-3.88326">
        <ele>156.4</ele>
        <time>2023-04-05T09:56:57Z</time>
      </trkpt>
      <trkpt lat="48.05408" lon="-3.88331">
        <ele>155.9</ele>
        <time>2023-04-05T09:56:58Z</time>
      </trkpt>
      <trkpt lat="48.05417" lon="-3.88336">
        <ele>155.4</ele>
        <time>2023-04-05T09:56:59Z</time>
      </trkpt>
      <trkpt lat="48.05427" lon="-3.88341">
        <ele>154.9</ele>
        <time>2023-04-05T09:57:00Z</time>
      </trkpt>
      <trkpt lat="48.05436" lon="-3.88346">
        <ele>154.5</ele>
        <time>2023-04-05T09:57:01Z</time>
      </trkpt>
      <trkpt lat="48.05445" lon="-3.88351">
        <ele>154.1</ele>
        <time>2023-04-05T09:57:02Z</time>
      </trkpt>
      <trkpt lat="48.05454" lon="-3.88357">
        <ele>153.5</ele>
        <time>2023-04-05T09:57:03Z</time>
      </trkpt>
      <trkpt lat="48.05463" lon="-3.88362">
        <ele>152.9</ele>
        <time>2023-04-05T09:57:04Z</time>
      </trkpt>
      <trkpt lat="48.05472" lon="-3.88369">
        <ele>152.4</ele>
        <time>2023-04-05T09:57:05Z</time>
      </trkpt>
      <trkpt lat="48.05481" lon="-3.88376">
        <ele>151.9</ele>
        <time>2023-04-05T09:57:06Z</time>
      </trkpt>
      <trkpt lat="48.05489" lon="-3.88382">
        <ele>151.5</ele>
        <time>2023-04-05T09:57:07Z</time>
      </trkpt>
      <trkpt lat="48.05498" lon="-3.8839">
        <ele>151</ele>
        <time>2023-04-05T09:57:08Z</time>
      </trkpt>
      <trkpt lat="48.05506" lon="-3.88397">
        <ele>150.6</ele>
        <time>2023-04-05T09:57:09Z</time>
      </trkpt>
      <trkpt lat="48.05514" lon="-3.88405">
        <ele>150.3</ele>
        <time>2023-04-05T09:57:10Z</time>
      </trkpt>
      <trkpt lat="48.05522" lon="-3.88413">
        <ele>150</ele>
        <time>2023-04-05T09:57:11Z</time>
      </trkpt>
      <trkpt lat="48.0553" lon="-3.88421">
        <ele>149.7</ele>
        <time>2023-04-05T09:57:12Z</time>
      </trkpt>
      <trkpt lat="48.05537" lon="-3.88429">
        <ele>149.5</ele>
        <time>2023-04-05T09:57:13Z</time>
      </trkpt>
      <trkpt lat="48.05545" lon="-3.88436">
        <ele>149.4</ele>
        <time>2023-04-05T09:57:14Z</time>
      </trkpt>
      <trkpt lat="48.05552" lon="-3.88444">
        <ele>149.3</ele>
        <time>2023-04-05T09:57:15Z</time>
      </trkpt>
      <trkpt lat="48.05558" lon="-3.88452">
        <ele>149.2</ele>
        <time>2023-04-05T09:57:16Z</time>
      </trkpt>
      <trkpt lat="48.05565" lon="-3.8846">
        <ele>149</ele>
        <time>2023-04-05T09:57:17Z</time>
      </trkpt>
      <trkpt lat="48.05572" lon="-3.88467">
        <ele>148.9</ele>
        <time>2023-04-05T09:57:18Z</time>
      </trkpt>
      <trkpt lat="48.05579" lon="-3.88474">
        <ele>148.7</ele>
        <time>2023-04-05T09:57:19Z</time>
      </trkpt>
      <trkpt lat="48.05586" lon="-3.8848">
        <ele>148.6</ele>
        <time>2023-04-05T09:57:20Z</time>
      </trkpt>
      <trkpt lat="48.05593" lon="-3.88486">
        <ele>148.5</ele>
        <time>2023-04-05T09:57:21Z</time>
      </trkpt>
      <trkpt lat="48.056" lon="-3.88492">
        <ele>148.4</ele>
        <time>2023-04-05T09:57:22Z</time>
      </trkpt>
      <trkpt lat="48.05606" lon="-3.88497">
        <ele>148.4</ele>
        <time>2023-04-05T09:57:23Z</time>
      </trkpt>
      <trkpt lat="48.05613" lon="-3.88502">
        <ele>148.3</ele>
        <time>2023-04-05T09:57:24Z</time>
      </trkpt>
      <trkpt lat="48.0562" lon="-3.88507">
        <ele>148.3</ele>
        <time>2023-04-05T09:57:25Z</time>
      </trkpt>
      <trkpt lat="48.05626" lon="-3.88511">
        <ele>148.3</ele>
        <time>2023-04-05T09:57:26Z</time>
      </trkpt>
      <trkpt lat="48.05633" lon="-3.88515">
        <ele>148.3</ele>
        <time>2023-04-05T09:57:27Z</time>
      </trkpt>
      <trkpt lat="48.0564" lon="-3.88519">
        <ele>148.4</ele>
        <time>2023-04-05T09:57:28Z</time>
      </trkpt>
      <trkpt lat="48.05645" lon="-3.88523">
        <ele>148.4</ele>
        <time>2023-04-05T09:57:29Z</time>
      </trkpt>
      <trkpt lat="48.05652" lon="-3.88526">
        <ele>148.4</ele>
        <time>2023-04-05T09:57:30Z</time>
      </trkpt>
      <trkpt lat="48.05658" lon="-3.8853">
        <ele>148.4</ele>
        <time>2023-04-05T09:57:31Z</time>
      </trkpt>
      <trkpt lat="48.05664" lon="-3.88534">
        <ele>148.4</ele>
        <time>2023-04-05T09:57:32Z</time>
      </trkpt>
      <trkpt lat="48.0567" lon="-3.88537">
        <ele>148.5</ele>
        <time>2023-04-05T09:57:33Z</time>
      </trkpt>
      <trkpt lat="48.05676" lon="-3.88541">
        <ele>148.6</ele>
        <time>2023-04-05T09:57:34Z</time>
      </trkpt>
      <trkpt lat="48.05682" lon="-3.88545">
        <ele>148.6</ele>
        <time>2023-04-05T09:57:35Z</time>
      </trkpt>
      <trkpt lat="48.05688" lon="-3.88548">
        <ele>148.7</ele>
        <time>2023-04-05T09:57:36Z</time>
      </trkpt>
      <trkpt lat="48.05693" lon="-3.88552">
        <ele>148.8</ele>
        <time>2023-04-05T09:57:37Z</time>
      </trkpt>
      <trkpt lat="48.05699" lon="-3.88555">
        <ele>148.8</ele>
        <time>2023-04-05T09:57:38Z</time>
      </trkpt>
      <trkpt lat="48.05705" lon="-3.88558">
        <ele>148.8</ele>
        <time>2023-04-05T09:57:39Z</time>
      </trkpt>
      <trkpt lat="48.0571" lon="-3.88562">
        <ele>148.9</ele>
        <time>2023-04-05T09:57:40Z</time>
      </trkpt>
      <trkpt lat="48.05716" lon="-3.88565">
        <ele>148.9</ele>
        <time>2023-04-05T09:57:41Z</time>
      </trkpt>
      <trkpt lat="48.05721" lon="-3.88569">
        <ele>148.9</ele>
        <time>2023-04-05T09:57:42Z</time>
      </trkpt>
      <trkpt lat="48.05727" lon="-3.88572">
        <ele>148.9</ele>
        <time>2023-04-05T09:57:43Z</time>
      </trkpt>
      <trkpt lat="48.05733" lon="-3.88576">
        <ele>148.8</ele>
        <time>2023-04-05T09:57:44Z</time>
      </trkpt>
      <trkpt lat="48.05739" lon="-3.8858">
        <ele>148.6</ele>
        <time>2023-04-05T09:57:45Z</time>
      </trkpt>
      <trkpt lat="48.05744" lon="-3.88583">
        <ele>148.4</ele>
        <time>2023-04-05T09:57:46Z</time>
      </trkpt>
      <trkpt lat="48.05751" lon="-3.88587">
        <ele>148.2</ele>
        <time>2023-04-05T09:57:47Z</time>
      </trkpt>
      <trkpt lat="48.05757" lon="-3.88591">
        <ele>147.9</ele>
        <time>2023-04-05T09:57:48Z</time>
      </trkpt>
      <trkpt lat="48.05763" lon="-3.88596">
        <ele>147.6</ele>
        <time>2023-04-05T09:57:49Z</time>
      </trkpt>
      <trkpt lat="48.0577" lon="-3.88599">
        <ele>147.2</ele>
        <time>2023-04-05T09:57:50Z</time>
      </trkpt>
      <trkpt lat="48.05778" lon="-3.88602">
        <ele>146.6</ele>
        <time>2023-04-05T09:57:51Z</time>
      </trkpt>
      <trkpt lat="48.05786" lon="-3.88604">
        <ele>145.9</ele>
        <time>2023-04-05T09:57:52Z</time>
      </trkpt>
      <trkpt lat="48.05795" lon="-3.88605">
        <ele>145.2</ele>
        <time>2023-04-05T09:57:53Z</time>
      </trkpt>
      <trkpt lat="48.05804" lon="-3.88604">
        <ele>144.4</ele>
        <time>2023-04-05T09:57:54Z</time>
      </trkpt>
      <trkpt lat="48.05813" lon="-3.88602">
        <ele>143.7</ele>
        <time>2023-04-05T09:57:55Z</time>
      </trkpt>
      <trkpt lat="48.05822" lon="-3.88598">
        <ele>142.8</ele>
        <time>2023-04-05T09:57:56Z</time>
      </trkpt>
      <trkpt lat="48.05831" lon="-3.88591">
        <ele>142</ele>
        <time>2023-04-05T09:57:57Z</time>
      </trkpt>
      <trkpt lat="48.0584" lon="-3.88583">
        <ele>141.1</ele>
        <time>2023-04-05T09:57:58Z</time>
      </trkpt>
      <trkpt lat="48.05848" lon="-3.88573">
        <ele>140.1</ele>
        <time>2023-04-05T09:57:59Z</time>
      </trkpt>
      <trkpt lat="48.05856" lon="-3.88562">
        <ele>139.2</ele>
        <time>2023-04-05T09:58:00Z</time>
      </trkpt>
      <trkpt lat="48.05863" lon="-3.88549">
        <ele>138.2</ele>
        <time>2023-04-05T09:58:01Z</time>
      </trkpt>
      <trkpt lat="48.05869" lon="-3.88535">
        <ele>137.3</ele>
        <time>2023-04-05T09:58:02Z</time>
      </trkpt>
      <trkpt lat="48.05875" lon="-3.88521">
        <ele>136.4</ele>
        <time>2023-04-05T09:58:03Z</time>
      </trkpt>
      <trkpt lat="48.05882" lon="-3.88508">
        <ele>135.5</ele>
        <time>2023-04-05T09:58:04Z</time>
      </trkpt>
      <trkpt lat="48.0589" lon="-3.88494">
        <ele>134.7</ele>
        <time>2023-04-05T09:58:05Z</time>
      </trkpt>
      <trkpt lat="48.05897" lon="-3.8848">
        <ele>133.7</ele>
        <time>2023-04-05T09:58:06Z</time>
      </trkpt>
      <trkpt lat="48.05905" lon="-3.88467">
        <ele>132.8</ele>
        <time>2023-04-05T09:58:07Z</time>
      </trkpt>
      <trkpt lat="48.05914" lon="-3.88455">
        <ele>132</ele>
        <time>2023-04-05T09:58:08Z</time>
      </trkpt>
      <trkpt lat="48.05924" lon="-3.88444">
        <ele>131.1</ele>
        <time>2023-04-05T09:58:09Z</time>
      </trkpt>
      <trkpt lat="48.05934" lon="-3.88435">
        <ele>130.2</ele>
        <time>2023-04-05T09:58:10Z</time>
      </trkpt>
      <trkpt lat="48.05945" lon="-3.88428">
        <ele>129.2</ele>
        <time>2023-04-05T09:58:11Z</time>
      </trkpt>
      <trkpt lat="48.05957" lon="-3.88421">
        <ele>128.3</ele>
        <time>2023-04-05T09:58:12Z</time>
      </trkpt>
      <trkpt lat="48.05968" lon="-3.88414">
        <ele>127.3</ele>
        <time>2023-04-05T09:58:13Z</time>
      </trkpt>
      <trkpt lat="48.0598" lon="-3.88406">
        <ele>126.5</ele>
        <time>2023-04-05T09:58:14Z</time>
      </trkpt>
      <trkpt lat="48.05992" lon="-3.88399">
        <ele>125.6</ele>
        <time>2023-04-05T09:58:15Z</time>
      </trkpt>
      <trkpt lat="48.06004" lon="-3.88392">
        <ele>124.7</ele>
        <time>2023-04-05T09:58:16Z</time>
      </trkpt>
      <trkpt lat="48.06016" lon="-3.88385">
        <ele>123.8</ele>
        <time>2023-04-05T09:58:17Z</time>
      </trkpt>
      <trkpt lat="48.06028" lon="-3.88377">
        <ele>123</ele>
        <time>2023-04-05T09:58:18Z</time>
      </trkpt>
      <trkpt lat="48.0604" lon="-3.8837">
        <ele>122.2</ele>
        <time>2023-04-05T09:58:19Z</time>
      </trkpt>
      <trkpt lat="48.06051" lon="-3.8836">
        <ele>121.3</ele>
        <time>2023-04-05T09:58:20Z</time>
      </trkpt>
      <trkpt lat="48.06061" lon="-3.88349">
        <ele>120.4</ele>
        <time>2023-04-05T09:58:21Z</time>
      </trkpt>
      <trkpt lat="48.0607" lon="-3.88336">
        <ele>119.4</ele>
        <time>2023-04-05T09:58:22Z</time>
      </trkpt>
      <trkpt lat="48.06078" lon="-3.8832">
        <ele>118.4</ele>
        <time>2023-04-05T09:58:23Z</time>
      </trkpt>
      <trkpt lat="48.06084" lon="-3.88303">
        <ele>117.4</ele>
        <time>2023-04-05T09:58:24Z</time>
      </trkpt>
      <trkpt lat="48.06089" lon="-3.88285">
        <ele>116.4</ele>
        <time>2023-04-05T09:58:25Z</time>
      </trkpt>
      <trkpt lat="48.06094" lon="-3.88266">
        <ele>115.5</ele>
        <time>2023-04-05T09:58:26Z</time>
      </trkpt>
      <trkpt lat="48.06097" lon="-3.88247">
        <ele>114.5</ele>
        <time>2023-04-05T09:58:27Z</time>
      </trkpt>
      <trkpt lat="48.061" lon="-3.88228">
        <ele>113.3</ele>
        <time>2023-04-05T09:58:28Z</time>
      </trkpt>
      <trkpt lat="48.06103" lon="-3.8821">
        <ele>112.1</ele>
        <time>2023-04-05T09:58:29Z</time>
      </trkpt>
      <trkpt lat="48.06107" lon="-3.88191">
        <ele>110.8</ele>
        <time>2023-04-05T09:58:30Z</time>
      </trkpt>
      <trkpt lat="48.06109" lon="-3.88171">
        <ele>109.5</ele>
        <time>2023-04-05T09:58:31Z</time>
      </trkpt>
      <trkpt lat="48.06112" lon="-3.88151">
        <ele>108.2</ele>
        <time>2023-04-05T09:58:32Z</time>
      </trkpt>
      <trkpt lat="48.06114" lon="-3.88132">
        <ele>106.9</ele>
        <time>2023-04-05T09:58:33Z</time>
      </trkpt>
      <trkpt lat="48.06116" lon="-3.88114">
        <ele>105.8</ele>
        <time>2023-04-05T09:58:34Z</time>
      </trkpt>
      <trkpt lat="48.06119" lon="-3.88095">
        <ele>104.9</ele>
        <time>2023-04-05T09:58:35Z</time>
      </trkpt>
      <trkpt lat="48.06125" lon="-3.88078">
        <ele>104.4</ele>
        <time>2023-04-05T09:58:36Z</time>
      </trkpt>
      <trkpt lat="48.06132" lon="-3.88061">
        <ele>103.9</ele>
        <time>2023-04-05T09:58:37Z</time>
      </trkpt>
      <trkpt lat="48.0614" lon="-3.88047">
        <ele>103.6</ele>
        <time>2023-04-05T09:58:38Z</time>
      </trkpt>
      <trkpt lat="48.06149" lon="-3.88035">
        <ele>103.5</ele>
        <time>2023-04-05T09:58:39Z</time>
      </trkpt>
      <trkpt lat="48.06159" lon="-3.88025">
        <ele>103.2</ele>
        <time>2023-04-05T09:58:40Z</time>
      </trkpt>
      <trkpt lat="48.06168" lon="-3.88017">
        <ele>103.1</ele>
        <time>2023-04-05T09:58:41Z</time>
      </trkpt>
      <trkpt lat="48.06179" lon="-3.88014">
        <ele>103.3</ele>
        <time>2023-04-05T09:58:42Z</time>
      </trkpt>
      <trkpt lat="48.06189" lon="-3.88013">
        <ele>103.5</ele>
        <time>2023-04-05T09:58:43Z</time>
      </trkpt>
      <trkpt lat="48.06198" lon="-3.88014">
        <ele>103.9</ele>
        <time>2023-04-05T09:58:44Z</time>
      </trkpt>
      <trkpt lat="48.06206" lon="-3.88015">
        <ele>104.3</ele>
        <time>2023-04-05T09:58:45Z</time>
      </trkpt>
      <trkpt lat="48.06212" lon="-3.88014">
        <ele>104.7</ele>
        <time>2023-04-05T09:58:46Z</time>
      </trkpt>
      <trkpt lat="48.06217" lon="-3.88006">
        <ele>106.4</ele>
        <time>2023-04-05T09:58:47Z</time>
      </trkpt>
      <trkpt lat="48.06219" lon="-3.87996">
        <ele>107.5</ele>
        <time>2023-04-05T09:58:48Z</time>
      </trkpt>
      <trkpt lat="48.0622" lon="-3.87988">
        <ele>108.4</ele>
        <time>2023-04-05T09:58:49Z</time>
      </trkpt>
      <trkpt lat="48.06221" lon="-3.8798">
        <ele>109.2</ele>
        <time>2023-04-05T09:58:50Z</time>
      </trkpt>
      <trkpt lat="48.06221" lon="-3.87973">
        <ele>110</ele>
        <time>2023-04-05T09:58:51Z</time>
      </trkpt>
      <trkpt lat="48.06222" lon="-3.87966">
        <ele>110.8</ele>
        <time>2023-04-05T09:58:52Z</time>
      </trkpt>
      <trkpt lat="48.06221" lon="-3.87959">
        <ele>111.5</ele>
        <time>2023-04-05T09:58:53Z</time>
      </trkpt>
      <trkpt lat="48.06222" lon="-3.87952">
        <ele>113.1</ele>
        <time>2023-04-05T09:58:54Z</time>
      </trkpt>
      <trkpt lat="48.06224" lon="-3.87947">
        <ele>113.2</ele>
        <time>2023-04-05T09:58:55Z</time>
      </trkpt>
      <trkpt lat="48.06227" lon="-3.87943">
        <ele>113.4</ele>
        <time>2023-04-05T09:58:56Z</time>
      </trkpt>
      <trkpt lat="48.06228" lon="-3.87942">
        <ele>113.4</ele>
        <time>2023-04-05T09:58:57Z</time>
      </trkpt>
      <trkpt lat="48.06229" lon="-3.87941">
        <ele>113.5</ele>
        <time>2023-04-05T09:58:58Z</time>
      </trkpt>
      <trkpt lat="48.0623" lon="-3.87939">
        <ele>113.6</ele>
        <time>2023-04-05T09:58:59Z</time>
      </trkpt>
      <trkpt lat="48.06232" lon="-3.87937">
        <ele>113.7</ele>
        <time>2023-04-05T09:59:00Z</time>
      </trkpt>
      <trkpt lat="48.06233" lon="-3.87936">
        <ele>113.7</ele>
        <time>2023-04-05T09:59:01Z</time>
      </trkpt>
      <trkpt lat="48.06235" lon="-3.87933">
        <ele>113.8</ele>
        <time>2023-04-05T09:59:02Z</time>
      </trkpt>
      <trkpt lat="48.06236" lon="-3.87932">
        <ele>113.9</ele>
        <time>2023-04-05T09:59:03Z</time>
      </trkpt>
      <trkpt lat="48.06238" lon="-3.8793">
        <ele>114</ele>
        <time>2023-04-05T09:59:04Z</time>
      </trkpt>
      <trkpt lat="48.0624" lon="-3.87929">
        <ele>114.2</ele>
        <time>2023-04-05T09:59:05Z</time>
      </trkpt>
      <trkpt lat="48.06243" lon="-3.87927">
        <ele>114.3</ele>
        <time>2023-04-05T09:59:07Z</time>
      </trkpt>
      <trkpt lat="48.06244" lon="-3.87927">
        <ele>114.4</ele>
        <time>2023-04-05T09:59:08Z</time>
      </trkpt>
      <trkpt lat="48.06245" lon="-3.87927">
        <ele>114.5</ele>
        <time>2023-04-05T09:59:09Z</time>
      </trkpt>
      <trkpt lat="48.06246" lon="-3.87927">
        <ele>114.5</ele>
        <time>2023-04-05T09:59:10Z</time>
      </trkpt>
      <trkpt lat="48.06248" lon="-3.87927">
        <ele>114.7</ele>
        <time>2023-04-05T09:59:11Z</time>
      </trkpt>
      <trkpt lat="48.0625" lon="-3.87927">
        <ele>114.8</ele>
        <time>2023-04-05T09:59:12Z</time>
      </trkpt>
      <trkpt lat="48.06253" lon="-3.87926">
        <ele>115</ele>
        <time>2023-04-05T09:59:14Z</time>
      </trkpt>
      <trkpt lat="48.06255" lon="-3.87927">
        <ele>115.2</ele>
        <time>2023-04-05T09:59:15Z</time>
      </trkpt>
      <trkpt lat="48.06256" lon="-3.87928">
        <ele>115.3</ele>
        <time>2023-04-05T09:59:17Z</time>
      </trkpt>
      <trkpt lat="48.06257" lon="-3.87929">
        <ele>115.5</ele>
        <time>2023-04-05T09:59:18Z</time>
      </trkpt>
      <trkpt lat="48.06259" lon="-3.8793">
        <ele>115.6</ele>
        <time>2023-04-05T09:59:19Z</time>
      </trkpt>
      <trkpt lat="48.06261" lon="-3.87932">
        <ele>115.8</ele>
        <time>2023-04-05T09:59:21Z</time>
      </trkpt>
      <trkpt lat="48.06262" lon="-3.87933">
        <ele>115.9</ele>
        <time>2023-04-05T09:59:22Z</time>
      </trkpt>
      <trkpt lat="48.06264" lon="-3.87936">
        <ele>116.1</ele>
        <time>2023-04-05T09:59:23Z</time>
      </trkpt>
      <trkpt lat="48.06267" lon="-3.87938">
        <ele>116.3</ele>
        <time>2023-04-05T09:59:25Z</time>
      </trkpt>
      <trkpt lat="48.06267" lon="-3.87939">
        <ele>116.4</ele>
        <time>2023-04-05T09:59:26Z</time>
      </trkpt>
      <trkpt lat="48.06269" lon="-3.87943">
        <ele>116.6</ele>
        <time>2023-04-05T09:59:27Z</time>
      </trkpt>
      <trkpt lat="48.0627" lon="-3.87944">
        <ele>116.7</ele>
        <time>2023-04-05T09:59:28Z</time>
      </trkpt>
      <trkpt lat="48.06273" lon="-3.87947">
        <ele>117</ele>
        <time>2023-04-05T09:59:29Z</time>
      </trkpt>
      <trkpt lat="48.06273" lon="-3.87949">
        <ele>117</ele>
        <time>2023-04-05T09:59:30Z</time>
      </trkpt>
      <trkpt lat="48.06276" lon="-3.87952">
        <ele>117.3</ele>
        <time>2023-04-05T09:59:31Z</time>
      </trkpt>
      <trkpt lat="48.06277" lon="-3.87953">
        <ele>117.4</ele>
        <time>2023-04-05T09:59:32Z</time>
      </trkpt>
      <trkpt lat="48.06278" lon="-3.87955">
        <ele>117.5</ele>
        <time>2023-04-05T09:59:33Z</time>
      </trkpt>
      <trkpt lat="48.06279" lon="-3.87957">
        <ele>117.6</ele>
        <time>2023-04-05T09:59:34Z</time>
      </trkpt>
      <trkpt lat="48.06281" lon="-3.8796">
        <ele>117.9</ele>
        <time>2023-04-05T09:59:35Z</time>
      </trkpt>
      <trkpt lat="48.06282" lon="-3.87961">
        <ele>118</ele>
        <time>2023-04-05T09:59:36Z</time>
      </trkpt>
      <trkpt lat="48.06284" lon="-3.87963">
        <ele>118.1</ele>
        <time>2023-04-05T09:59:37Z</time>
      </trkpt>
      <trkpt lat="48.06285" lon="-3.87964">
        <ele>118.2</ele>
        <time>2023-04-05T09:59:38Z</time>
      </trkpt>
      <trkpt lat="48.06287" lon="-3.87967">
        <ele>118.4</ele>
        <time>2023-04-05T09:59:39Z</time>
      </trkpt>
      <trkpt lat="48.06288" lon="-3.87967">
        <ele>118.5</ele>
        <time>2023-04-05T09:59:40Z</time>
      </trkpt>
      <trkpt lat="48.06288" lon="-3.87968">
        <ele>118.6</ele>
        <time>2023-04-05T09:59:41Z</time>
      </trkpt>
      <trkpt lat="48.06291" lon="-3.87971">
        <ele>118.9</ele>
        <time>2023-04-05T09:59:42Z</time>
      </trkpt>
      <trkpt lat="48.06292" lon="-3.87972">
        <ele>119</ele>
        <time>2023-04-05T09:59:43Z</time>
      </trkpt>
      <trkpt lat="48.06295" lon="-3.87974">
        <ele>119.3</ele>
        <time>2023-04-05T09:59:44Z</time>
      </trkpt>
      <trkpt lat="48.06295" lon="-3.87975">
        <ele>119.3</ele>
        <time>2023-04-05T09:59:45Z</time>
      </trkpt>
      <trkpt lat="48.06297" lon="-3.87975">
        <ele>119.5</ele>
        <time>2023-04-05T09:59:46Z</time>
      </trkpt>
      <trkpt lat="48.06298" lon="-3.87977">
        <ele>119.6</ele>
        <time>2023-04-05T09:59:47Z</time>
      </trkpt>
      <trkpt lat="48.063" lon="-3.87978">
        <ele>119.8</ele>
        <time>2023-04-05T09:59:48Z</time>
      </trkpt>
      <trkpt lat="48.06301" lon="-3.87979">
        <ele>120</ele>
        <time>2023-04-05T09:59:49Z</time>
      </trkpt>
      <trkpt lat="48.06303" lon="-3.87981">
        <ele>120.2</ele>
        <time>2023-04-05T09:59:50Z</time>
      </trkpt>
      <trkpt lat="48.06304" lon="-3.87982">
        <ele>120.3</ele>
        <time>2023-04-05T09:59:51Z</time>
      </trkpt>
      <trkpt lat="48.06306" lon="-3.87983">
        <ele>120.5</ele>
        <time>2023-04-05T09:59:52Z</time>
      </trkpt>
      <trkpt lat="48.06307" lon="-3.87984">
        <ele>120.6</ele>
        <time>2023-04-05T09:59:54Z</time>
      </trkpt>
      <trkpt lat="48.06308" lon="-3.87984">
        <ele>120.8</ele>
        <time>2023-04-05T09:59:55Z</time>
      </trkpt>
      <trkpt lat="48.06309" lon="-3.87985">
        <ele>120.9</ele>
        <time>2023-04-05T09:59:56Z</time>
      </trkpt>
      <trkpt lat="48.0631" lon="-3.87986">
        <ele>121</ele>
        <time>2023-04-05T09:59:57Z</time>
      </trkpt>
      <trkpt lat="48.06311" lon="-3.87986">
        <ele>121.1</ele>
        <time>2023-04-05T09:59:58Z</time>
      </trkpt>
      <trkpt lat="48.06311" lon="-3.87986">
        <ele>121.1</ele>
        <time>2023-04-05T10:00:00Z</time>
      </trkpt>
      <trkpt lat="48.06311" lon="-3.87987">
        <ele>121.2</ele>
        <time>2023-04-05T10:00:01Z</time>
      </trkpt>
      <trkpt lat="48.06313" lon="-3.87988">
        <ele>121.4</ele>
        <time>2023-04-05T10:00:02Z</time>
      </trkpt>
      <trkpt lat="48.06315" lon="-3.87989">
        <ele>121.6</ele>
        <time>2023-04-05T10:00:03Z</time>
      </trkpt>
      <trkpt lat="48.06316" lon="-3.8799">
        <ele>121.8</ele>
        <time>2023-04-05T10:00:04Z</time>
      </trkpt>
      <trkpt lat="48.06317" lon="-3.87991">
        <ele>121.9</ele>
        <time>2023-04-05T10:00:05Z</time>
      </trkpt>
      <trkpt lat="48.0632" lon="-3.87993">
        <ele>122.3</ele>
        <time>2023-04-05T10:00:06Z</time>
      </trkpt>
      <trkpt lat="48.0632" lon="-3.87993">
        <ele>122.4</ele>
        <time>2023-04-05T10:00:07Z</time>
      </trkpt>
      <trkpt lat="48.06322" lon="-3.87994">
        <ele>122.6</ele>
        <time>2023-04-05T10:00:08Z</time>
      </trkpt>
      <trkpt lat="48.06323" lon="-3.87995">
        <ele>122.8</ele>
        <time>2023-04-05T10:00:09Z</time>
      </trkpt>
      <trkpt lat="48.06324" lon="-3.87996">
        <ele>123</ele>
        <time>2023-04-05T10:00:10Z</time>
      </trkpt>
      <trkpt lat="48.06325" lon="-3.87996">
        <ele>123.2</ele>
        <time>2023-04-05T10:00:11Z</time>
      </trkpt>
      <trkpt lat="48.06325" lon="-3.87996">
        <ele>123.3</ele>
        <time>2023-04-05T10:00:12Z</time>
      </trkpt>
      <trkpt lat="48.06326" lon="-3.87997">
        <ele>123.5</ele>
        <time>2023-04-05T10:00:13Z</time>
      </trkpt>
      <trkpt lat="48.06328" lon="-3.87998">
        <ele>123.8</ele>
        <time>2023-04-05T10:00:15Z</time>
      </trkpt>
      <trkpt lat="48.06328" lon="-3.87998">
        <ele>124</ele>
        <time>2023-04-05T10:00:16Z</time>
      </trkpt>
      <trkpt lat="48.06329" lon="-3.87999">
        <ele>124.2</ele>
        <time>2023-04-05T10:00:17Z</time>
      </trkpt>
      <trkpt lat="48.0633" lon="-3.88">
        <ele>124.5</ele>
        <time>2023-04-05T10:00:18Z</time>
      </trkpt>
      <trkpt lat="48.06331" lon="-3.88001">
        <ele>124.8</ele>
        <time>2023-04-05T10:00:19Z</time>
      </trkpt>
      <trkpt lat="48.06332" lon="-3.88001">
        <ele>125</ele>
        <time>2023-04-05T10:00:20Z</time>
      </trkpt>
      <trkpt lat="48.06334" lon="-3.88003">
        <ele>125.5</ele>
        <time>2023-04-05T10:00:21Z</time>
      </trkpt>
      <trkpt lat="48.06335" lon="-3.88003">
        <ele>125.9</ele>
        <time>2023-04-05T10:00:23Z</time>
      </trkpt>
      <trkpt lat="48.06336" lon="-3.88003">
        <ele>126</ele>
        <time>2023-04-05T10:00:24Z</time>
      </trkpt>
      <trkpt lat="48.06337" lon="-3.88004">
        <ele>126.4</ele>
        <time>2023-04-05T10:00:25Z</time>
      </trkpt>
      <trkpt lat="48.06338" lon="-3.88005">
        <ele>126.7</ele>
        <time>2023-04-05T10:00:26Z</time>
      </trkpt>
      <trkpt lat="48.06339" lon="-3.88005">
        <ele>127</ele>
        <time>2023-04-05T10:00:27Z</time>
      </trkpt>
      <trkpt lat="48.06341" lon="-3.88006">
        <ele>127.4</ele>
        <time>2023-04-05T10:00:28Z</time>
      </trkpt>
      <trkpt lat="48.06342" lon="-3.88006">
        <ele>127.6</ele>
        <time>2023-04-05T10:00:30Z</time>
      </trkpt>
      <trkpt lat="48.06342" lon="-3.88007">
        <ele>127.7</ele>
        <time>2023-04-05T10:00:31Z</time>
      </trkpt>
      <trkpt lat="48.06343" lon="-3.88008">
        <ele>127.9</ele>
        <time>2023-04-05T10:00:32Z</time>
      </trkpt>
      <trkpt lat="48.06344" lon="-3.88008">
        <ele>128.1</ele>
        <time>2023-04-05T10:00:33Z</time>
      </trkpt>
      <trkpt lat="48.06345" lon="-3.88009">
        <ele>128.3</ele>
        <time>2023-04-05T10:00:34Z</time>
      </trkpt>
      <trkpt lat="48.06346" lon="-3.8801">
        <ele>128.5</ele>
        <time>2023-04-05T10:00:35Z</time>
      </trkpt>
      <trkpt lat="48.06346" lon="-3.8801">
        <ele>128.7</ele>
        <time>2023-04-05T10:00:36Z</time>
      </trkpt>
      <trkpt lat="48.06347" lon="-3.88011">
        <ele>128.8</ele>
        <time>2023-04-05T10:00:37Z</time>
      </trkpt>
      <trkpt lat="48.06348" lon="-3.88012">
        <ele>129</ele>
        <time>2023-04-05T10:00:38Z</time>
      </trkpt>
      <trkpt lat="48.06348" lon="-3.88012">
        <ele>129.1</ele>
        <time>2023-04-05T10:00:39Z</time>
      </trkpt>
      <trkpt lat="48.06349" lon="-3.88013">
        <ele>129.3</ele>
        <time>2023-04-05T10:00:40Z</time>
      </trkpt>
      <trkpt lat="48.06349" lon="-3.88014">
        <ele>129.4</ele>
        <time>2023-04-05T10:00:41Z</time>
      </trkpt>
      <trkpt lat="48.0635" lon="-3.88015">
        <ele>129.5</ele>
        <time>2023-04-05T10:00:42Z</time>
      </trkpt>
      <trkpt lat="48.06351" lon="-3.88015">
        <ele>129.7</ele>
        <time>2023-04-05T10:00:43Z</time>
      </trkpt>
      <trkpt lat="48.06351" lon="-3.88016">
        <ele>129.7</ele>
        <time>2023-04-05T10:00:44Z</time>
      </trkpt>
      <trkpt lat="48.06352" lon="-3.88017">
        <ele>130</ele>
        <time>2023-04-05T10:00:45Z</time>
      </trkpt>
      <trkpt lat="48.06353" lon="-3.88018">
        <ele>130.1</ele>
        <time>2023-04-05T10:00:46Z</time>
      </trkpt>
      <trkpt lat="48.06353" lon="-3.88019">
        <ele>130.2</ele>
        <time>2023-04-05T10:00:47Z</time>
      </trkpt>
      <trkpt lat="48.06354" lon="-3.8802">
        <ele>130.4</ele>
        <time>2023-04-05T10:00:48Z</time>
      </trkpt>
      <trkpt lat="48.06354" lon="-3.8802">
        <ele>130.4</ele>
        <time>2023-04-05T10:00:49Z</time>
      </trkpt>
      <trkpt lat="48.06356" lon="-3.88022">
        <ele>130.8</ele>
        <time>2023-04-05T10:00:50Z</time>
      </trkpt>
      <trkpt lat="48.06357" lon="-3.88023">
        <ele>131</ele>
        <time>2023-04-05T10:00:51Z</time>
      </trkpt>
      <trkpt lat="48.06358" lon="-3.88024">
        <ele>131.2</ele>
        <time>2023-04-05T10:00:52Z</time>
      </trkpt>
      <trkpt lat="48.06359" lon="-3.88025">
        <ele>131.3</ele>
        <time>2023-04-05T10:00:53Z</time>
      </trkpt>
      <trkpt lat="48.0636" lon="-3.88025">
        <ele>131.4</ele>
        <time>2023-04-05T10:00:54Z</time>
      </trkpt>
      <trkpt lat="48.06361" lon="-3.88027">
        <ele>131.7</ele>
        <time>2023-04-05T10:00:55Z</time>
      </trkpt>
      <trkpt lat="48.06361" lon="-3.88028">
        <ele>131.8</ele>
        <time>2023-04-05T10:00:56Z</time>
      </trkpt>
      <trkpt lat="48.06362" lon="-3.88028">
        <ele>132</ele>
        <time>2023-04-05T10:00:57Z</time>
      </trkpt>
      <trkpt lat="48.06364" lon="-3.8803">
        <ele>132.3</ele>
        <time>2023-04-05T10:00:59Z</time>
      </trkpt>
      <trkpt lat="48.06365" lon="-3.88031">
        <ele>132.4</ele>
        <time>2023-04-05T10:01:00Z</time>
      </trkpt>
      <trkpt lat="48.06365" lon="-3.88032">
        <ele>132.5</ele>
        <time>2023-04-05T10:01:01Z</time>
      </trkpt>
      <trkpt lat="48.06366" lon="-3.88032">
        <ele>132.6</ele>
        <time>2023-04-05T10:01:02Z</time>
      </trkpt>
      <trkpt lat="48.06367" lon="-3.88033">
        <ele>132.7</ele>
        <time>2023-04-05T10:01:03Z</time>
      </trkpt>
      <trkpt lat="48.06367" lon="-3.88034">
        <ele>132.8</ele>
        <time>2023-04-05T10:01:04Z</time>
      </trkpt>
      <trkpt lat="48.06367" lon="-3.88034">
        <ele>132.9</ele>
        <time>2023-04-05T10:01:05Z</time>
      </trkpt>
      <trkpt lat="48.06367" lon="-3.88034">
        <ele>132.9</ele>
        <time>2023-04-05T10:01:06Z</time>
      </trkpt>
      <trkpt lat="48.06367" lon="-3.88034">
        <ele>133</ele>
        <time>2023-04-05T10:01:07Z</time>
      </trkpt>
      <trkpt lat="48.06367" lon="-3.88035">
        <ele>133</ele>
        <time>2023-04-05T10:01:08Z</time>
      </trkpt>
      <trkpt lat="48.06368" lon="-3.88036">
        <ele>133.1</ele>
        <time>2023-04-05T10:01:09Z</time>
      </trkpt>
      <trkpt lat="48.06369" lon="-3.88036">
        <ele>133.2</ele>
        <time>2023-04-05T10:01:10Z</time>
      </trkpt>
      <trkpt lat="48.0637" lon="-3.88038">
        <ele>133.4</ele>
        <time>2023-04-05T10:01:11Z</time>
      </trkpt>
      <trkpt lat="48.06372" lon="-3.88039">
        <ele>133.7</ele>
        <time>2023-04-05T10:01:12Z</time>
      </trkpt>
      <trkpt lat="48.06372" lon="-3.8804">
        <ele>133.8</ele>
        <time>2023-04-05T10:01:13Z</time>
      </trkpt>
      <trkpt lat="48.06373" lon="-3.88041">
        <ele>133.9</ele>
        <time>2023-04-05T10:01:14Z</time>
      </trkpt>
      <trkpt lat="48.06375" lon="-3.88043">
        <ele>134.1</ele>
        <time>2023-04-05T10:01:15Z</time>
      </trkpt>
      <trkpt lat="48.06376" lon="-3.88044">
        <ele>134.3</ele>
        <time>2023-04-05T10:01:16Z</time>
      </trkpt>
      <trkpt lat="48.06377" lon="-3.88045">
        <ele>134.4</ele>
        <time>2023-04-05T10:01:17Z</time>
      </trkpt>
      <trkpt lat="48.06379" lon="-3.88047">
        <ele>134.6</ele>
        <time>2023-04-05T10:01:18Z</time>
      </trkpt>
      <trkpt lat="48.06382" lon="-3.88048">
        <ele>134.9</ele>
        <time>2023-04-05T10:01:19Z</time>
      </trkpt>
      <trkpt lat="48.06382" lon="-3.88049">
        <ele>135</ele>
        <time>2023-04-05T10:01:20Z</time>
      </trkpt>
      <trkpt lat="48.06384" lon="-3.88051">
        <ele>135.2</ele>
        <time>2023-04-05T10:01:21Z</time>
      </trkpt>
      <trkpt lat="48.06385" lon="-3.88052">
        <ele>135.3</ele>
        <time>2023-04-05T10:01:22Z</time>
      </trkpt>
      <trkpt lat="48.06386" lon="-3.88053">
        <ele>135.4</ele>
        <time>2023-04-05T10:01:23Z</time>
      </trkpt>
      <trkpt lat="48.06388" lon="-3.88055">
        <ele>135.6</ele>
        <time>2023-04-05T10:01:24Z</time>
      </trkpt>
      <trkpt lat="48.06389" lon="-3.88056">
        <ele>135.7</ele>
        <time>2023-04-05T10:01:25Z</time>
      </trkpt>
      <trkpt lat="48.0639" lon="-3.88057">
        <ele>135.8</ele>
        <time>2023-04-05T10:01:26Z</time>
      </trkpt>
      <trkpt lat="48.06392" lon="-3.88059">
        <ele>136</ele>
        <time>2023-04-05T10:01:27Z</time>
      </trkpt>
      <trkpt lat="48.06393" lon="-3.8806">
        <ele>136</ele>
        <time>2023-04-05T10:01:28Z</time>
      </trkpt>
      <trkpt lat="48.06394" lon="-3.88061">
        <ele>136.2</ele>
        <time>2023-04-05T10:01:29Z</time>
      </trkpt>
      <trkpt lat="48.06395" lon="-3.88063">
        <ele>136.3</ele>
        <time>2023-04-05T10:01:30Z</time>
      </trkpt>
      <trkpt lat="48.06397" lon="-3.88065">
        <ele>136.5</ele>
        <time>2023-04-05T10:01:31Z</time>
      </trkpt>
      <trkpt lat="48.06399" lon="-3.88067">
        <ele>136.6</ele>
        <time>2023-04-05T10:01:33Z</time>
      </trkpt>
      <trkpt lat="48.06399" lon="-3.88069">
        <ele>136.8</ele>
        <time>2023-04-05T10:01:34Z</time>
      </trkpt>
      <trkpt lat="48.06401" lon="-3.8807">
        <ele>136.9</ele>
        <time>2023-04-05T10:01:35Z</time>
      </trkpt>
      <trkpt lat="48.06403" lon="-3.88073">
        <ele>137.1</ele>
        <time>2023-04-05T10:01:36Z</time>
      </trkpt>
      <trkpt lat="48.06405" lon="-3.88075">
        <ele>137.2</ele>
        <time>2023-04-05T10:01:38Z</time>
      </trkpt>
      <trkpt lat="48.06406" lon="-3.88076">
        <ele>137.3</ele>
        <time>2023-04-05T10:01:39Z</time>
      </trkpt>
      <trkpt lat="48.06407" lon="-3.88078">
        <ele>137.3</ele>
        <time>2023-04-05T10:01:40Z</time>
      </trkpt>
      <trkpt lat="48.0641" lon="-3.8808">
        <ele>137.5</ele>
        <time>2023-04-05T10:01:41Z</time>
      </trkpt>
      <trkpt lat="48.06411" lon="-3.88082">
        <ele>137.6</ele>
        <time>2023-04-05T10:01:43Z</time>
      </trkpt>
      <trkpt lat="48.06412" lon="-3.88083">
        <ele>137.6</ele>
        <time>2023-04-05T10:01:44Z</time>
      </trkpt>
      <trkpt lat="48.06413" lon="-3.88085">
        <ele>137.7</ele>
        <time>2023-04-05T10:01:45Z</time>
      </trkpt>
      <trkpt lat="48.06415" lon="-3.88086">
        <ele>137.8</ele>
        <time>2023-04-05T10:01:46Z</time>
      </trkpt>
      <trkpt lat="48.06416" lon="-3.88088">
        <ele>137.8</ele>
        <time>2023-04-05T10:01:47Z</time>
      </trkpt>
      <trkpt lat="48.06417" lon="-3.8809">
        <ele>137.9</ele>
        <time>2023-04-05T10:01:48Z</time>
      </trkpt>
      <trkpt lat="48.06419" lon="-3.8809">
        <ele>138</ele>
        <time>2023-04-05T10:01:49Z</time>
      </trkpt>
      <trkpt lat="48.0642" lon="-3.88091">
        <ele>138</ele>
        <time>2023-04-05T10:01:50Z</time>
      </trkpt>
      <trkpt lat="48.06421" lon="-3.88092">
        <ele>138.1</ele>
        <time>2023-04-05T10:01:51Z</time>
      </trkpt>
      <trkpt lat="48.06424" lon="-3.88094">
        <ele>138.2</ele>
        <time>2023-04-05T10:01:52Z</time>
      </trkpt>
      <trkpt lat="48.06425" lon="-3.88095">
        <ele>138.3</ele>
        <time>2023-04-05T10:01:53Z</time>
      </trkpt>
      <trkpt lat="48.06426" lon="-3.88097">
        <ele>138.4</ele>
        <time>2023-04-05T10:01:54Z</time>
      </trkpt>
      <trkpt lat="48.06427" lon="-3.88099">
        <ele>138.5</ele>
        <time>2023-04-05T10:01:55Z</time>
      </trkpt>
      <trkpt lat="48.06428" lon="-3.881">
        <ele>138.5</ele>
        <time>2023-04-05T10:01:56Z</time>
      </trkpt>
      <trkpt lat="48.06429" lon="-3.88101">
        <ele>138.6</ele>
        <time>2023-04-05T10:01:57Z</time>
      </trkpt>
      <trkpt lat="48.0643" lon="-3.88102">
        <ele>138.7</ele>
        <time>2023-04-05T10:01:58Z</time>
      </trkpt>
      <trkpt lat="48.06433" lon="-3.88105">
        <ele>138.9</ele>
        <time>2023-04-05T10:01:59Z</time>
      </trkpt>
      <trkpt lat="48.06434" lon="-3.88106">
        <ele>139</ele>
        <time>2023-04-05T10:02:00Z</time>
      </trkpt>
      <trkpt lat="48.06436" lon="-3.88108">
        <ele>139.2</ele>
        <time>2023-04-05T10:02:01Z</time>
      </trkpt>
      <trkpt lat="48.06437" lon="-3.88109">
        <ele>139.2</ele>
        <time>2023-04-05T10:02:02Z</time>
      </trkpt>
      <trkpt lat="48.0644" lon="-3.88111">
        <ele>139.4</ele>
        <time>2023-04-05T10:02:03Z</time>
      </trkpt>
      <trkpt lat="48.0644" lon="-3.88112">
        <ele>139.5</ele>
        <time>2023-04-05T10:02:04Z</time>
      </trkpt>
      <trkpt lat="48.06442" lon="-3.88113">
        <ele>139.6</ele>
        <time>2023-04-05T10:02:05Z</time>
      </trkpt>
      <trkpt lat="48.06443" lon="-3.88114">
        <ele>139.7</ele>
        <time>2023-04-05T10:02:06Z</time>
      </trkpt>
      <trkpt lat="48.06444" lon="-3.88116">
        <ele>139.7</ele>
        <time>2023-04-05T10:02:07Z</time>
      </trkpt>
      <trkpt lat="48.06445" lon="-3.88117">
        <ele>139.8</ele>
        <time>2023-04-05T10:02:08Z</time>
      </trkpt>
      <trkpt lat="48.06446" lon="-3.88118">
        <ele>139.9</ele>
        <time>2023-04-05T10:02:09Z</time>
      </trkpt>
      <trkpt lat="48.06449" lon="-3.8812">
        <ele>140.1</ele>
        <time>2023-04-05T10:02:10Z</time>
      </trkpt>
      <trkpt lat="48.0645" lon="-3.8812">
        <ele>140.2</ele>
        <time>2023-04-05T10:02:11Z</time>
      </trkpt>
      <trkpt lat="48.06453" lon="-3.88122">
        <ele>140.4</ele>
        <time>2023-04-05T10:02:12Z</time>
      </trkpt>
      <trkpt lat="48.06454" lon="-3.88123">
        <ele>140.5</ele>
        <time>2023-04-05T10:02:13Z</time>
      </trkpt>
      <trkpt lat="48.06456" lon="-3.88125">
        <ele>140.6</ele>
        <time>2023-04-05T10:02:14Z</time>
      </trkpt>
      <trkpt lat="48.06458" lon="-3.88126">
        <ele>140.7</ele>
        <time>2023-04-05T10:02:15Z</time>
      </trkpt>
      <trkpt lat="48.0646" lon="-3.88128">
        <ele>140.9</ele>
        <time>2023-04-05T10:02:16Z</time>
      </trkpt>
      <trkpt lat="48.06461" lon="-3.88129">
        <ele>140.9</ele>
        <time>2023-04-05T10:02:17Z</time>
      </trkpt>
      <trkpt lat="48.06466" lon="-3.88129">
        <ele>141.3</ele>
        <time>2023-04-05T10:02:19Z</time>
      </trkpt>
      <trkpt lat="48.06467" lon="-3.88128">
        <ele>141.6</ele>
        <time>2023-04-05T10:02:20Z</time>
      </trkpt>
      <trkpt lat="48.06468" lon="-3.88128">
        <ele>141.6</ele>
        <time>2023-04-05T10:02:21Z</time>
      </trkpt>
      <trkpt lat="48.06471" lon="-3.88125">
        <ele>141.6</ele>
        <time>2023-04-05T10:02:22Z</time>
      </trkpt>
      <trkpt lat="48.06472" lon="-3.88124">
        <ele>141.6</ele>
        <time>2023-04-05T10:02:23Z</time>
      </trkpt>
      <trkpt lat="48.06473" lon="-3.88119">
        <ele>141.7</ele>
        <time>2023-04-05T10:02:24Z</time>
      </trkpt>
      <trkpt lat="48.06474" lon="-3.88117">
        <ele>141.7</ele>
        <time>2023-04-05T10:02:25Z</time>
      </trkpt>
      <trkpt lat="48.06476" lon="-3.8811">
        <ele>141.7</ele>
        <time>2023-04-05T10:02:26Z</time>
      </trkpt>
      <trkpt lat="48.06477" lon="-3.88106">
        <ele>141.7</ele>
        <time>2023-04-05T10:02:27Z</time>
      </trkpt>
      <trkpt lat="48.06479" lon="-3.88102">
        <ele>141.8</ele>
        <time>2023-04-05T10:02:28Z</time>
      </trkpt>
      <trkpt lat="48.0648" lon="-3.88097">
        <ele>141.8</ele>
        <time>2023-04-05T10:02:29Z</time>
      </trkpt>
      <trkpt lat="48.06482" lon="-3.88092">
        <ele>141.8</ele>
        <time>2023-04-05T10:02:30Z</time>
      </trkpt>
      <trkpt lat="48.06483" lon="-3.88086">
        <ele>141.9</ele>
        <time>2023-04-05T10:02:31Z</time>
      </trkpt>
      <trkpt lat="48.06485" lon="-3.8808">
        <ele>142</ele>
        <time>2023-04-05T10:02:33Z</time>
      </trkpt>
      <trkpt lat="48.06487" lon="-3.88074">
        <ele>142</ele>
        <time>2023-04-05T10:02:34Z</time>
      </trkpt>
      <trkpt lat="48.06489" lon="-3.88069">
        <ele>142.1</ele>
        <time>2023-04-05T10:02:35Z</time>
      </trkpt>
      <trkpt lat="48.06491" lon="-3.88064">
        <ele>142.1</ele>
        <time>2023-04-05T10:02:36Z</time>
      </trkpt>
      <trkpt lat="48.06493" lon="-3.88059">
        <ele>142.2</ele>
        <time>2023-04-05T10:02:37Z</time>
      </trkpt>
      <trkpt lat="48.06494" lon="-3.88053">
        <ele>142.2</ele>
        <time>2023-04-05T10:02:38Z</time>
      </trkpt>
      <trkpt lat="48.06498" lon="-3.88043">
        <ele>142.3</ele>
        <time>2023-04-05T10:02:39Z</time>
      </trkpt>
      <trkpt lat="48.06501" lon="-3.88031">
        <ele>142.4</ele>
        <time>2023-04-05T10:02:41Z</time>
      </trkpt>
      <trkpt lat="48.06504" lon="-3.88024">
        <ele>142.4</ele>
        <time>2023-04-05T10:02:43Z</time>
      </trkpt>
      <trkpt lat="48.06505" lon="-3.88019">
        <ele>142.4</ele>
        <time>2023-04-05T10:02:44Z</time>
      </trkpt>
      <trkpt lat="48.06508" lon="-3.88013">
        <ele>142.5</ele>
        <time>2023-04-05T10:02:45Z</time>
      </trkpt>
      <trkpt lat="48.0651" lon="-3.88008">
        <ele>142.5</ele>
        <time>2023-04-05T10:02:46Z</time>
      </trkpt>
      <trkpt lat="48.06513" lon="-3.88003">
        <ele>142.6</ele>
        <time>2023-04-05T10:02:47Z</time>
      </trkpt>
      <trkpt lat="48.06515" lon="-3.87997">
        <ele>142.7</ele>
        <time>2023-04-05T10:02:48Z</time>
      </trkpt>
      <trkpt lat="48.06517" lon="-3.87991">
        <ele>142.8</ele>
        <time>2023-04-05T10:02:49Z</time>
      </trkpt>
      <trkpt lat="48.06519" lon="-3.87985">
        <ele>142.9</ele>
        <time>2023-04-05T10:02:50Z</time>
      </trkpt>
      <trkpt lat="48.06521" lon="-3.87981">
        <ele>143</ele>
        <time>2023-04-05T10:02:51Z</time>
      </trkpt>
      <trkpt lat="48.06523" lon="-3.87975">
        <ele>143.1</ele>
        <time>2023-04-05T10:02:52Z</time>
      </trkpt>
      <trkpt lat="48.06525" lon="-3.8797">
        <ele>143.2</ele>
        <time>2023-04-05T10:02:53Z</time>
      </trkpt>
      <trkpt lat="48.06527" lon="-3.87965">
        <ele>143.4</ele>
        <time>2023-04-05T10:02:54Z</time>
      </trkpt>
      <trkpt lat="48.06529" lon="-3.87961">
        <ele>143.5</ele>
        <time>2023-04-05T10:02:55Z</time>
      </trkpt>
      <trkpt lat="48.0653" lon="-3.87956">
        <ele>143.6</ele>
        <time>2023-04-05T10:02:56Z</time>
      </trkpt>
      <trkpt lat="48.06531" lon="-3.87951">
        <ele>143.7</ele>
        <time>2023-04-05T10:02:57Z</time>
      </trkpt>
      <trkpt lat="48.06532" lon="-3.87945">
        <ele>143.9</ele>
        <time>2023-04-05T10:02:58Z</time>
      </trkpt>
      <trkpt lat="48.06535" lon="-3.87941">
        <ele>144</ele>
        <time>2023-04-05T10:02:59Z</time>
      </trkpt>
      <trkpt lat="48.06537" lon="-3.87936">
        <ele>144.2</ele>
        <time>2023-04-05T10:03:00Z</time>
      </trkpt>
      <trkpt lat="48.06539" lon="-3.8793">
        <ele>144.3</ele>
        <time>2023-04-05T10:03:01Z</time>
      </trkpt>
      <trkpt lat="48.06541" lon="-3.87925">
        <ele>144.5</ele>
        <time>2023-04-05T10:03:02Z</time>
      </trkpt>
      <trkpt lat="48.06543" lon="-3.87921">
        <ele>144.6</ele>
        <time>2023-04-05T10:03:03Z</time>
      </trkpt>
      <trkpt lat="48.06546" lon="-3.87916">
        <ele>144.9</ele>
        <time>2023-04-05T10:03:04Z</time>
      </trkpt>
      <trkpt lat="48.06549" lon="-3.87911">
        <ele>145.1</ele>
        <time>2023-04-05T10:03:05Z</time>
      </trkpt>
      <trkpt lat="48.06551" lon="-3.87908">
        <ele>145.3</ele>
        <time>2023-04-05T10:03:06Z</time>
      </trkpt>
      <trkpt lat="48.06554" lon="-3.87903">
        <ele>145.5</ele>
        <time>2023-04-05T10:03:07Z</time>
      </trkpt>
      <trkpt lat="48.06557" lon="-3.87899">
        <ele>145.6</ele>
        <time>2023-04-05T10:03:08Z</time>
      </trkpt>
      <trkpt lat="48.06559" lon="-3.87896">
        <ele>145.8</ele>
        <time>2023-04-05T10:03:09Z</time>
      </trkpt>
      <trkpt lat="48.06562" lon="-3.87892">
        <ele>146</ele>
        <time>2023-04-05T10:03:10Z</time>
      </trkpt>
      <trkpt lat="48.06564" lon="-3.87889">
        <ele>146.1</ele>
        <time>2023-04-05T10:03:11Z</time>
      </trkpt>
      <trkpt lat="48.06567" lon="-3.87884">
        <ele>146.3</ele>
        <time>2023-04-05T10:03:12Z</time>
      </trkpt>
      <trkpt lat="48.06571" lon="-3.8788">
        <ele>146.5</ele>
        <time>2023-04-05T10:03:13Z</time>
      </trkpt>
      <trkpt lat="48.06573" lon="-3.87877">
        <ele>146.7</ele>
        <time>2023-04-05T10:03:14Z</time>
      </trkpt>
      <trkpt lat="48.06576" lon="-3.87874">
        <ele>146.8</ele>
        <time>2023-04-05T10:03:15Z</time>
      </trkpt>
      <trkpt lat="48.0658" lon="-3.8787">
        <ele>147.1</ele>
        <time>2023-04-05T10:03:16Z</time>
      </trkpt>
      <trkpt lat="48.06584" lon="-3.87867">
        <ele>147.3</ele>
        <time>2023-04-05T10:03:18Z</time>
      </trkpt>
      <trkpt lat="48.0659" lon="-3.87862">
        <ele>147.6</ele>
        <time>2023-04-05T10:03:19Z</time>
      </trkpt>
      <trkpt lat="48.06594" lon="-3.87859">
        <ele>147.8</ele>
        <time>2023-04-05T10:03:21Z</time>
      </trkpt>
      <trkpt lat="48.06597" lon="-3.87857">
        <ele>148</ele>
        <time>2023-04-05T10:03:22Z</time>
      </trkpt>
      <trkpt lat="48.066" lon="-3.87855">
        <ele>148.1</ele>
        <time>2023-04-05T10:03:23Z</time>
      </trkpt>
      <trkpt lat="48.06604" lon="-3.87852">
        <ele>148.3</ele>
        <time>2023-04-05T10:03:24Z</time>
      </trkpt>
      <trkpt lat="48.06607" lon="-3.8785">
        <ele>148.5</ele>
        <time>2023-04-05T10:03:25Z</time>
      </trkpt>
      <trkpt lat="48.06611" lon="-3.87847">
        <ele>148.8</ele>
        <time>2023-04-05T10:03:26Z</time>
      </trkpt>
      <trkpt lat="48.06614" lon="-3.87845">
        <ele>149</ele>
        <time>2023-04-05T10:03:27Z</time>
      </trkpt>
      <trkpt lat="48.06617" lon="-3.87843">
        <ele>149.2</ele>
        <time>2023-04-05T10:03:28Z</time>
      </trkpt>
      <trkpt lat="48.06621" lon="-3.87841">
        <ele>149.4</ele>
        <time>2023-04-05T10:03:29Z</time>
      </trkpt>
      <trkpt lat="48.06628" lon="-3.87836">
        <ele>149.8</ele>
        <time>2023-04-05T10:03:30Z</time>
      </trkpt>
      <trkpt lat="48.06632" lon="-3.87834">
        <ele>150</ele>
        <time>2023-04-05T10:03:32Z</time>
      </trkpt>
      <trkpt lat="48.06635" lon="-3.87831">
        <ele>150.2</ele>
        <time>2023-04-05T10:03:33Z</time>
      </trkpt>
      <trkpt lat="48.06637" lon="-3.87827">
        <ele>150.2</ele>
        <time>2023-04-05T10:03:34Z</time>
      </trkpt>
      <trkpt lat="48.06639" lon="-3.87822">
        <ele>150.2</ele>
        <time>2023-04-05T10:03:35Z</time>
      </trkpt>
      <trkpt lat="48.0664" lon="-3.87816">
        <ele>150.2</ele>
        <time>2023-04-05T10:03:36Z</time>
      </trkpt>
      <trkpt lat="48.06641" lon="-3.8781">
        <ele>150.2</ele>
        <time>2023-04-05T10:03:37Z</time>
      </trkpt>
      <trkpt lat="48.06643" lon="-3.87804">
        <ele>150.2</ele>
        <time>2023-04-05T10:03:38Z</time>
      </trkpt>
      <trkpt lat="48.06644" lon="-3.87797">
        <ele>150.2</ele>
        <time>2023-04-05T10:03:39Z</time>
      </trkpt>
      <trkpt lat="48.06642" lon="-3.87787">
        <ele>150.2</ele>
        <time>2023-04-05T10:03:40Z</time>
      </trkpt>
      <trkpt lat="48.06642" lon="-3.87779">
        <ele>150.2</ele>
        <time>2023-04-05T10:03:41Z</time>
      </trkpt>
      <trkpt lat="48.06642" lon="-3.87772">
        <ele>150.1</ele>
        <time>2023-04-05T10:03:42Z</time>
      </trkpt>
      <trkpt lat="48.06643" lon="-3.87764">
        <ele>150.1</ele>
        <time>2023-04-05T10:03:43Z</time>
      </trkpt>
      <trkpt lat="48.06643" lon="-3.87757">
        <ele>150.1</ele>
        <time>2023-04-05T10:03:44Z</time>
      </trkpt>
      <trkpt lat="48.06644" lon="-3.87749">
        <ele>150.1</ele>
        <time>2023-04-05T10:03:45Z</time>
      </trkpt>
      <trkpt lat="48.06644" lon="-3.87742">
        <ele>150.1</ele>
        <time>2023-04-05T10:03:46Z</time>
      </trkpt>
      <trkpt lat="48.06645" lon="-3.87734">
        <ele>150.1</ele>
        <time>2023-04-05T10:03:47Z</time>
      </trkpt>
      <trkpt lat="48.06645" lon="-3.87726">
        <ele>150.1</ele>
        <time>2023-04-05T10:03:48Z</time>
      </trkpt>
      <trkpt lat="48.06646" lon="-3.87718">
        <ele>150.1</ele>
        <time>2023-04-05T10:03:49Z</time>
      </trkpt>
      <trkpt lat="48.06647" lon="-3.8771">
        <ele>150.1</ele>
        <time>2023-04-05T10:03:50Z</time>
      </trkpt>
      <trkpt lat="48.06647" lon="-3.87702">
        <ele>150.1</ele>
        <time>2023-04-05T10:03:51Z</time>
      </trkpt>
      <trkpt lat="48.06648" lon="-3.87693">
        <ele>150.1</ele>
        <time>2023-04-05T10:03:52Z</time>
      </trkpt>
      <trkpt lat="48.06649" lon="-3.87685">
        <ele>150.1</ele>
        <time>2023-04-05T10:03:53Z</time>
      </trkpt>
      <trkpt lat="48.0665" lon="-3.87677">
        <ele>150.1</ele>
        <time>2023-04-05T10:03:54Z</time>
      </trkpt>
      <trkpt lat="48.0665" lon="-3.87669">
        <ele>150</ele>
        <time>2023-04-05T10:03:55Z</time>
      </trkpt>
      <trkpt lat="48.06651" lon="-3.87661">
        <ele>150</ele>
        <time>2023-04-05T10:03:56Z</time>
      </trkpt>
      <trkpt lat="48.06652" lon="-3.87653">
        <ele>149.9</ele>
        <time>2023-04-05T10:03:57Z</time>
      </trkpt>
      <trkpt lat="48.06653" lon="-3.87645">
        <ele>149.9</ele>
        <time>2023-04-05T10:03:58Z</time>
      </trkpt>
      <trkpt lat="48.06654" lon="-3.87637">
        <ele>149.9</ele>
        <time>2023-04-05T10:03:59Z</time>
      </trkpt>
      <trkpt lat="48.06655" lon="-3.87628">
        <ele>149.8</ele>
        <time>2023-04-05T10:04:00Z</time>
      </trkpt>
      <trkpt lat="48.06656" lon="-3.8762">
        <ele>149.8</ele>
        <time>2023-04-05T10:04:01Z</time>
      </trkpt>
      <trkpt lat="48.06657" lon="-3.87611">
        <ele>149.8</ele>
        <time>2023-04-05T10:04:02Z</time>
      </trkpt>
      <trkpt lat="48.06658" lon="-3.87602">
        <ele>149.7</ele>
        <time>2023-04-05T10:04:03Z</time>
      </trkpt>
      <trkpt lat="48.06659" lon="-3.87594">
        <ele>149.7</ele>
        <time>2023-04-05T10:04:04Z</time>
      </trkpt>
      <trkpt lat="48.0666" lon="-3.87585">
        <ele>149.7</ele>
        <time>2023-04-05T10:04:05Z</time>
      </trkpt>
      <trkpt lat="48.06661" lon="-3.87576">
        <ele>149.6</ele>
        <time>2023-04-05T10:04:06Z</time>
      </trkpt>
      <trkpt lat="48.06662" lon="-3.87567">
        <ele>149.6</ele>
        <time>2023-04-05T10:04:07Z</time>
      </trkpt>
      <trkpt lat="48.06663" lon="-3.87558">
        <ele>149.5</ele>
        <time>2023-04-05T10:04:08Z</time>
      </trkpt>
      <trkpt lat="48.06665" lon="-3.8755">
        <ele>149.5</ele>
        <time>2023-04-05T10:04:09Z</time>
      </trkpt>
      <trkpt lat="48.06666" lon="-3.87541">
        <ele>149.5</ele>
        <time>2023-04-05T10:04:10Z</time>
      </trkpt>
      <trkpt lat="48.06667" lon="-3.87533">
        <ele>149.4</ele>
        <time>2023-04-05T10:04:11Z</time>
      </trkpt>
      <trkpt lat="48.06668" lon="-3.87524">
        <ele>149.3</ele>
        <time>2023-04-05T10:04:12Z</time>
      </trkpt>
      <trkpt lat="48.06669" lon="-3.87515">
        <ele>149.3</ele>
        <time>2023-04-05T10:04:13Z</time>
      </trkpt>
      <trkpt lat="48.0667" lon="-3.87506">
        <ele>149.2</ele>
        <time>2023-04-05T10:04:14Z</time>
      </trkpt>
      <trkpt lat="48.06671" lon="-3.87497">
        <ele>149.2</ele>
        <time>2023-04-05T10:04:15Z</time>
      </trkpt>
      <trkpt lat="48.06673" lon="-3.87488">
        <ele>149.1</ele>
        <time>2023-04-05T10:04:16Z</time>
      </trkpt>
      <trkpt lat="48.06674" lon="-3.87479">
        <ele>149</ele>
        <time>2023-04-05T10:04:17Z</time>
      </trkpt>
      <trkpt lat="48.06675" lon="-3.8747">
        <ele>149</ele>
        <time>2023-04-05T10:04:18Z</time>
      </trkpt>
      <trkpt lat="48.06676" lon="-3.87461">
        <ele>148.9</ele>
        <time>2023-04-05T10:04:19Z</time>
      </trkpt>
      <trkpt lat="48.06677" lon="-3.87452">
        <ele>148.9</ele>
        <time>2023-04-05T10:04:20Z</time>
      </trkpt>
      <trkpt lat="48.06677" lon="-3.87442">
        <ele>148.8</ele>
        <time>2023-04-05T10:04:21Z</time>
      </trkpt>
      <trkpt lat="48.06678" lon="-3.87432">
        <ele>148.7</ele>
        <time>2023-04-05T10:04:22Z</time>
      </trkpt>
      <trkpt lat="48.06679" lon="-3.87423">
        <ele>148.7</ele>
        <time>2023-04-05T10:04:23Z</time>
      </trkpt>
      <trkpt lat="48.06681" lon="-3.87414">
        <ele>148.7</ele>
        <time>2023-04-05T10:04:24Z</time>
      </trkpt>
      <trkpt lat="48.06681" lon="-3.87405">
        <ele>148.7</ele>
        <time>2023-04-05T10:04:25Z</time>
      </trkpt>
      <trkpt lat="48.06683" lon="-3.87396">
        <ele>148.7</ele>
        <time>2023-04-05T10:04:26Z</time>
      </trkpt>
      <trkpt lat="48.06684" lon="-3.87386">
        <ele>148.7</ele>
        <time>2023-04-05T10:04:27Z</time>
      </trkpt>
      <trkpt lat="48.06684" lon="-3.87377">
        <ele>148.7</ele>
        <time>2023-04-05T10:04:28Z</time>
      </trkpt>
      <trkpt lat="48.06685" lon="-3.87368">
        <ele>148.7</ele>
        <time>2023-04-05T10:04:29Z</time>
      </trkpt>
      <trkpt lat="48.06686" lon="-3.8736">
        <ele>148.7</ele>
        <time>2023-04-05T10:04:30Z</time>
      </trkpt>
      <trkpt lat="48.06687" lon="-3.87351">
        <ele>148.8</ele>
        <time>2023-04-05T10:04:31Z</time>
      </trkpt>
      <trkpt lat="48.06688" lon="-3.87342">
        <ele>148.8</ele>
        <time>2023-04-05T10:04:32Z</time>
      </trkpt>
      <trkpt lat="48.06689" lon="-3.87334">
        <ele>148.9</ele>
        <time>2023-04-05T10:04:33Z</time>
      </trkpt>
      <trkpt lat="48.0669" lon="-3.87326">
        <ele>148.9</ele>
        <time>2023-04-05T10:04:34Z</time>
      </trkpt>
      <trkpt lat="48.06691" lon="-3.87318">
        <ele>149</ele>
        <time>2023-04-05T10:04:35Z</time>
      </trkpt>
      <trkpt lat="48.06692" lon="-3.8731">
        <ele>149</ele>
        <time>2023-04-05T10:04:36Z</time>
      </trkpt>
      <trkpt lat="48.06693" lon="-3.87302">
        <ele>149.1</ele>
        <time>2023-04-05T10:04:37Z</time>
      </trkpt>
      <trkpt lat="48.06694" lon="-3.87293">
        <ele>149.2</ele>
        <time>2023-04-05T10:04:38Z</time>
      </trkpt>
      <trkpt lat="48.06695" lon="-3.87285">
        <ele>149.3</ele>
        <time>2023-04-05T10:04:39Z</time>
      </trkpt>
      <trkpt lat="48.06696" lon="-3.87277">
        <ele>149.4</ele>
        <time>2023-04-05T10:04:40Z</time>
      </trkpt>
      <trkpt lat="48.06697" lon="-3.87269">
        <ele>149.6</ele>
        <time>2023-04-05T10:04:41Z</time>
      </trkpt>
      <trkpt lat="48.06697" lon="-3.87261">
        <ele>149.7</ele>
        <time>2023-04-05T10:04:42Z</time>
      </trkpt>
      <trkpt lat="48.06698" lon="-3.87253">
        <ele>149.9</ele>
        <time>2023-04-05T10:04:43Z</time>
      </trkpt>
      <trkpt lat="48.06698" lon="-3.87246">
        <ele>150.1</ele>
        <time>2023-04-05T10:04:44Z</time>
      </trkpt>
      <trkpt lat="48.06699" lon="-3.87239">
        <ele>150.2</ele>
        <time>2023-04-05T10:04:45Z</time>
      </trkpt>
      <trkpt lat="48.067" lon="-3.87231">
        <ele>150.3</ele>
        <time>2023-04-05T10:04:46Z</time>
      </trkpt>
      <trkpt lat="48.067" lon="-3.87224">
        <ele>150.5</ele>
        <time>2023-04-05T10:04:47Z</time>
      </trkpt>
      <trkpt lat="48.06701" lon="-3.87217">
        <ele>150.6</ele>
        <time>2023-04-05T10:04:48Z</time>
      </trkpt>
      <trkpt lat="48.06701" lon="-3.8721">
        <ele>150.8</ele>
        <time>2023-04-05T10:04:49Z</time>
      </trkpt>
      <trkpt lat="48.06701" lon="-3.87203">
        <ele>151</ele>
        <time>2023-04-05T10:04:50Z</time>
      </trkpt>
      <trkpt lat="48.06701" lon="-3.87196">
        <ele>151.1</ele>
        <time>2023-04-05T10:04:51Z</time>
      </trkpt>
      <trkpt lat="48.06701" lon="-3.87189">
        <ele>151.3</ele>
        <time>2023-04-05T10:04:52Z</time>
      </trkpt>
      <trkpt lat="48.06701" lon="-3.87184">
        <ele>151.5</ele>
        <time>2023-04-05T10:04:53Z</time>
      </trkpt>
      <trkpt lat="48.06702" lon="-3.87178">
        <ele>151.7</ele>
        <time>2023-04-05T10:04:54Z</time>
      </trkpt>
      <trkpt lat="48.06702" lon="-3.87171">
        <ele>151.9</ele>
        <time>2023-04-05T10:04:55Z</time>
      </trkpt>
      <trkpt lat="48.06703" lon="-3.87164">
        <ele>152.1</ele>
        <time>2023-04-05T10:04:56Z</time>
      </trkpt>
      <trkpt lat="48.06703" lon="-3.87157">
        <ele>152.3</ele>
        <time>2023-04-05T10:04:57Z</time>
      </trkpt>
      <trkpt lat="48.06704" lon="-3.87151">
        <ele>152.6</ele>
        <time>2023-04-05T10:04:58Z</time>
      </trkpt>
      <trkpt lat="48.06704" lon="-3.87144">
        <ele>152.8</ele>
        <time>2023-04-05T10:04:59Z</time>
      </trkpt>
      <trkpt lat="48.06704" lon="-3.87137">
        <ele>153</ele>
        <time>2023-04-05T10:05:00Z</time>
      </trkpt>
      <trkpt lat="48.06704" lon="-3.87131">
        <ele>153.3</ele>
        <time>2023-04-05T10:05:01Z</time>
      </trkpt>
      <trkpt lat="48.06704" lon="-3.87125">
        <ele>153.5</ele>
        <time>2023-04-05T10:05:02Z</time>
      </trkpt>
      <trkpt lat="48.06705" lon="-3.87118">
        <ele>153.7</ele>
        <time>2023-04-05T10:05:03Z</time>
      </trkpt>
      <trkpt lat="48.06705" lon="-3.87111">
        <ele>154</ele>
        <time>2023-04-05T10:05:04Z</time>
      </trkpt>
      <trkpt lat="48.06706" lon="-3.87103">
        <ele>154.3</ele>
        <time>2023-04-05T10:05:06Z</time>
      </trkpt>
      <trkpt lat="48.06706" lon="-3.87097">
        <ele>154.5</ele>
        <time>2023-04-05T10:05:07Z</time>
      </trkpt>
      <trkpt lat="48.06707" lon="-3.87091">
        <ele>154.8</ele>
        <time>2023-04-05T10:05:08Z</time>
      </trkpt>
      <trkpt lat="48.06707" lon="-3.87085">
        <ele>155</ele>
        <time>2023-04-05T10:05:09Z</time>
      </trkpt>
      <trkpt lat="48.06708" lon="-3.87074">
        <ele>155.4</ele>
        <time>2023-04-05T10:05:10Z</time>
      </trkpt>
      <trkpt lat="48.06708" lon="-3.87068">
        <ele>155.6</ele>
        <time>2023-04-05T10:05:12Z</time>
      </trkpt>
      <trkpt lat="48.06708" lon="-3.87057">
        <ele>156</ele>
        <time>2023-04-05T10:05:13Z</time>
      </trkpt>
      <trkpt lat="48.06709" lon="-3.8705">
        <ele>156.3</ele>
        <time>2023-04-05T10:05:15Z</time>
      </trkpt>
      <trkpt lat="48.06709" lon="-3.87044">
        <ele>156.5</ele>
        <time>2023-04-05T10:05:16Z</time>
      </trkpt>
      <trkpt lat="48.0671" lon="-3.87038">
        <ele>156.7</ele>
        <time>2023-04-05T10:05:17Z</time>
      </trkpt>
      <trkpt lat="48.06711" lon="-3.87033">
        <ele>156.9</ele>
        <time>2023-04-05T10:05:18Z</time>
      </trkpt>
      <trkpt lat="48.06711" lon="-3.87027">
        <ele>157.1</ele>
        <time>2023-04-05T10:05:19Z</time>
      </trkpt>
      <trkpt lat="48.06712" lon="-3.87021">
        <ele>157.3</ele>
        <time>2023-04-05T10:05:20Z</time>
      </trkpt>
      <trkpt lat="48.06712" lon="-3.87015">
        <ele>157.6</ele>
        <time>2023-04-05T10:05:21Z</time>
      </trkpt>
      <trkpt lat="48.06712" lon="-3.87009">
        <ele>157.8</ele>
        <time>2023-04-05T10:05:22Z</time>
      </trkpt>
      <trkpt lat="48.06713" lon="-3.87003">
        <ele>158</ele>
        <time>2023-04-05T10:05:23Z</time>
      </trkpt>
      <trkpt lat="48.06713" lon="-3.86998">
        <ele>158.2</ele>
        <time>2023-04-05T10:05:24Z</time>
      </trkpt>
      <trkpt lat="48.06713" lon="-3.86992">
        <ele>158.4</ele>
        <time>2023-04-05T10:05:25Z</time>
      </trkpt>
      <trkpt lat="48.06714" lon="-3.86986">
        <ele>158.6</ele>
        <time>2023-04-05T10:05:26Z</time>
      </trkpt>
      <trkpt lat="48.06714" lon="-3.86981">
        <ele>158.7</ele>
        <time>2023-04-05T10:05:27Z</time>
      </trkpt>
      <trkpt lat="48.06715" lon="-3.86976">
        <ele>158.9</ele>
        <time>2023-04-05T10:05:28Z</time>
      </trkpt>
      <trkpt lat="48.06715" lon="-3.8697">
        <ele>159.1</ele>
        <time>2023-04-05T10:05:29Z</time>
      </trkpt>
      <trkpt lat="48.06715" lon="-3.86964">
        <ele>159.2</ele>
        <time>2023-04-05T10:05:30Z</time>
      </trkpt>
      <trkpt lat="48.06715" lon="-3.86959">
        <ele>159.4</ele>
        <time>2023-04-05T10:05:31Z</time>
      </trkpt>
      <trkpt lat="48.06716" lon="-3.86953">
        <ele>159.6</ele>
        <time>2023-04-05T10:05:32Z</time>
      </trkpt>
      <trkpt lat="48.06716" lon="-3.86948">
        <ele>159.7</ele>
        <time>2023-04-05T10:05:33Z</time>
      </trkpt>
      <trkpt lat="48.06716" lon="-3.86943">
        <ele>159.9</ele>
        <time>2023-04-05T10:05:34Z</time>
      </trkpt>
      <trkpt lat="48.06717" lon="-3.86937">
        <ele>160</ele>
        <time>2023-04-05T10:05:35Z</time>
      </trkpt>
      <trkpt lat="48.06717" lon="-3.86931">
        <ele>160.2</ele>
        <time>2023-04-05T10:05:36Z</time>
      </trkpt>
      <trkpt lat="48.06717" lon="-3.86926">
        <ele>160.4</ele>
        <time>2023-04-05T10:05:37Z</time>
      </trkpt>
      <trkpt lat="48.06718" lon="-3.8692">
        <ele>160.5</ele>
        <time>2023-04-05T10:05:38Z</time>
      </trkpt>
      <trkpt lat="48.06718" lon="-3.86915">
        <ele>160.7</ele>
        <time>2023-04-05T10:05:39Z</time>
      </trkpt>
      <trkpt lat="48.06718" lon="-3.86909">
        <ele>160.9</ele>
        <time>2023-04-05T10:05:40Z</time>
      </trkpt>
      <trkpt lat="48.06719" lon="-3.86903">
        <ele>161</ele>
        <time>2023-04-05T10:05:41Z</time>
      </trkpt>
      <trkpt lat="48.0672" lon="-3.86898">
        <ele>161.2</ele>
        <time>2023-04-05T10:05:42Z</time>
      </trkpt>
      <trkpt lat="48.0672" lon="-3.86892">
        <ele>161.3</ele>
        <time>2023-04-05T10:05:43Z</time>
      </trkpt>
      <trkpt lat="48.0672" lon="-3.86887">
        <ele>161.5</ele>
        <time>2023-04-05T10:05:44Z</time>
      </trkpt>
      <trkpt lat="48.06721" lon="-3.86882">
        <ele>161.6</ele>
        <time>2023-04-05T10:05:45Z</time>
      </trkpt>
      <trkpt lat="48.06721" lon="-3.86876">
        <ele>161.8</ele>
        <time>2023-04-05T10:05:46Z</time>
      </trkpt>
      <trkpt lat="48.06721" lon="-3.86871">
        <ele>161.9</ele>
        <time>2023-04-05T10:05:47Z</time>
      </trkpt>
      <trkpt lat="48.06721" lon="-3.86866">
        <ele>162.1</ele>
        <time>2023-04-05T10:05:48Z</time>
      </trkpt>
      <trkpt lat="48.06722" lon="-3.8686">
        <ele>162.2</ele>
        <time>2023-04-05T10:05:49Z</time>
      </trkpt>
      <trkpt lat="48.06723" lon="-3.86855">
        <ele>162.4</ele>
        <time>2023-04-05T10:05:50Z</time>
      </trkpt>
      <trkpt lat="48.06723" lon="-3.86849">
        <ele>162.5</ele>
        <time>2023-04-05T10:05:51Z</time>
      </trkpt>
      <trkpt lat="48.06724" lon="-3.86844">
        <ele>162.7</ele>
        <time>2023-04-05T10:05:52Z</time>
      </trkpt>
      <trkpt lat="48.06724" lon="-3.86838">
        <ele>162.8</ele>
        <time>2023-04-05T10:05:53Z</time>
      </trkpt>
      <trkpt lat="48.06725" lon="-3.86833">
        <ele>163</ele>
        <time>2023-04-05T10:05:54Z</time>
      </trkpt>
      <trkpt lat="48.06725" lon="-3.86828">
        <ele>163.1</ele>
        <time>2023-04-05T10:05:55Z</time>
      </trkpt>
      <trkpt lat="48.06726" lon="-3.86823">
        <ele>163.3</ele>
        <time>2023-04-05T10:05:56Z</time>
      </trkpt>
      <trkpt lat="48.06726" lon="-3.86818">
        <ele>163.4</ele>
        <time>2023-04-05T10:05:57Z</time>
      </trkpt>
      <trkpt lat="48.06727" lon="-3.86813">
        <ele>163.6</ele>
        <time>2023-04-05T10:05:58Z</time>
      </trkpt>
      <trkpt lat="48.06727" lon="-3.86807">
        <ele>163.8</ele>
        <time>2023-04-05T10:05:59Z</time>
      </trkpt>
      <trkpt lat="48.06728" lon="-3.86801">
        <ele>163.9</ele>
        <time>2023-04-05T10:06:00Z</time>
      </trkpt>
      <trkpt lat="48.06729" lon="-3.86796">
        <ele>164.1</ele>
        <time>2023-04-05T10:06:01Z</time>
      </trkpt>
      <trkpt lat="48.06729" lon="-3.86789">
        <ele>164.3</ele>
        <time>2023-04-05T10:06:02Z</time>
      </trkpt>
      <trkpt lat="48.0673" lon="-3.86783">
        <ele>164.4</ele>
        <time>2023-04-05T10:06:03Z</time>
      </trkpt>
      <trkpt lat="48.06731" lon="-3.86777">
        <ele>164.6</ele>
        <time>2023-04-05T10:06:04Z</time>
      </trkpt>
      <trkpt lat="48.06731" lon="-3.86772">
        <ele>164.7</ele>
        <time>2023-04-05T10:06:05Z</time>
      </trkpt>
      <trkpt lat="48.06732" lon="-3.86766">
        <ele>164.9</ele>
        <time>2023-04-05T10:06:06Z</time>
      </trkpt>
      <trkpt lat="48.06733" lon="-3.8676">
        <ele>165</ele>
        <time>2023-04-05T10:06:07Z</time>
      </trkpt>
      <trkpt lat="48.06733" lon="-3.86754">
        <ele>165.1</ele>
        <time>2023-04-05T10:06:08Z</time>
      </trkpt>
      <trkpt lat="48.06734" lon="-3.86749">
        <ele>165.2</ele>
        <time>2023-04-05T10:06:09Z</time>
      </trkpt>
      <trkpt lat="48.06734" lon="-3.86742">
        <ele>165.4</ele>
        <time>2023-04-05T10:06:10Z</time>
      </trkpt>
      <trkpt lat="48.06735" lon="-3.86736">
        <ele>165.5</ele>
        <time>2023-04-05T10:06:11Z</time>
      </trkpt>
      <trkpt lat="48.06736" lon="-3.86729">
        <ele>165.6</ele>
        <time>2023-04-05T10:06:12Z</time>
      </trkpt>
      <trkpt lat="48.06737" lon="-3.86723">
        <ele>165.7</ele>
        <time>2023-04-05T10:06:13Z</time>
      </trkpt>
      <trkpt lat="48.06738" lon="-3.86717">
        <ele>165.8</ele>
        <time>2023-04-05T10:06:14Z</time>
      </trkpt>
      <trkpt lat="48.06739" lon="-3.8671">
        <ele>165.9</ele>
        <time>2023-04-05T10:06:15Z</time>
      </trkpt>
      <trkpt lat="48.0674" lon="-3.86704">
        <ele>166</ele>
        <time>2023-04-05T10:06:16Z</time>
      </trkpt>
      <trkpt lat="48.06742" lon="-3.86693">
        <ele>166.2</ele>
        <time>2023-04-05T10:06:18Z</time>
      </trkpt>
      <trkpt lat="48.06743" lon="-3.86686">
        <ele>166.2</ele>
        <time>2023-04-05T10:06:19Z</time>
      </trkpt>
      <trkpt lat="48.06743" lon="-3.86678">
        <ele>166.3</ele>
        <time>2023-04-05T10:06:20Z</time>
      </trkpt>
      <trkpt lat="48.06744" lon="-3.86671">
        <ele>166.4</ele>
        <time>2023-04-05T10:06:21Z</time>
      </trkpt>
      <trkpt lat="48.06745" lon="-3.86664">
        <ele>166.5</ele>
        <time>2023-04-05T10:06:22Z</time>
      </trkpt>
      <trkpt lat="48.06746" lon="-3.86657">
        <ele>166.6</ele>
        <time>2023-04-05T10:06:23Z</time>
      </trkpt>
      <trkpt lat="48.06746" lon="-3.8665">
        <ele>166.6</ele>
        <time>2023-04-05T10:06:24Z</time>
      </trkpt>
      <trkpt lat="48.06747" lon="-3.86643">
        <ele>166.7</ele>
        <time>2023-04-05T10:06:25Z</time>
      </trkpt>
      <trkpt lat="48.06748" lon="-3.86636">
        <ele>166.7</ele>
        <time>2023-04-05T10:06:26Z</time>
      </trkpt>
      <trkpt lat="48.06749" lon="-3.86629">
        <ele>166.7</ele>
        <time>2023-04-05T10:06:27Z</time>
      </trkpt>
      <trkpt lat="48.06749" lon="-3.86622">
        <ele>166.8</ele>
        <time>2023-04-05T10:06:28Z</time>
      </trkpt>
      <trkpt lat="48.0675" lon="-3.86614">
        <ele>166.8</ele>
        <time>2023-04-05T10:06:29Z</time>
      </trkpt>
      <trkpt lat="48.0675" lon="-3.86607">
        <ele>166.8</ele>
        <time>2023-04-05T10:06:30Z</time>
      </trkpt>
      <trkpt lat="48.0675" lon="-3.86599">
        <ele>166.9</ele>
        <time>2023-04-05T10:06:31Z</time>
      </trkpt>
      <trkpt lat="48.06751" lon="-3.86592">
        <ele>166.9</ele>
        <time>2023-04-05T10:06:32Z</time>
      </trkpt>
      <trkpt lat="48.06751" lon="-3.86585">
        <ele>166.9</ele>
        <time>2023-04-05T10:06:33Z</time>
      </trkpt>
      <trkpt lat="48.06751" lon="-3.86578">
        <ele>167</ele>
        <time>2023-04-05T10:06:34Z</time>
      </trkpt>
      <trkpt lat="48.06752" lon="-3.86571">
        <ele>167</ele>
        <time>2023-04-05T10:06:35Z</time>
      </trkpt>
      <trkpt lat="48.06752" lon="-3.86564">
        <ele>167.1</ele>
        <time>2023-04-05T10:06:36Z</time>
      </trkpt>
      <trkpt lat="48.06753" lon="-3.86557">
        <ele>167.1</ele>
        <time>2023-04-05T10:06:37Z</time>
      </trkpt>
      <trkpt lat="48.06754" lon="-3.8655">
        <ele>167.2</ele>
        <time>2023-04-05T10:06:38Z</time>
      </trkpt>
      <trkpt lat="48.06754" lon="-3.86543">
        <ele>167.3</ele>
        <time>2023-04-05T10:06:39Z</time>
      </trkpt>
      <trkpt lat="48.06755" lon="-3.86536">
        <ele>167.3</ele>
        <time>2023-04-05T10:06:40Z</time>
      </trkpt>
      <trkpt lat="48.06756" lon="-3.86529">
        <ele>167.4</ele>
        <time>2023-04-05T10:06:41Z</time>
      </trkpt>
      <trkpt lat="48.06757" lon="-3.86522">
        <ele>167.5</ele>
        <time>2023-04-05T10:06:42Z</time>
      </trkpt>
      <trkpt lat="48.06758" lon="-3.86515">
        <ele>167.5</ele>
        <time>2023-04-05T10:06:43Z</time>
      </trkpt>
      <trkpt lat="48.06759" lon="-3.86508">
        <ele>167.6</ele>
        <time>2023-04-05T10:06:44Z</time>
      </trkpt>
      <trkpt lat="48.0676" lon="-3.86501">
        <ele>167.7</ele>
        <time>2023-04-05T10:06:45Z</time>
      </trkpt>
      <trkpt lat="48.06761" lon="-3.86494">
        <ele>167.7</ele>
        <time>2023-04-05T10:06:46Z</time>
      </trkpt>
      <trkpt lat="48.06762" lon="-3.86487">
        <ele>167.8</ele>
        <time>2023-04-05T10:06:47Z</time>
      </trkpt>
      <trkpt lat="48.06762" lon="-3.8648">
        <ele>167.9</ele>
        <time>2023-04-05T10:06:48Z</time>
      </trkpt>
      <trkpt lat="48.06763" lon="-3.86473">
        <ele>168</ele>
        <time>2023-04-05T10:06:49Z</time>
      </trkpt>
      <trkpt lat="48.06764" lon="-3.86466">
        <ele>168</ele>
        <time>2023-04-05T10:06:50Z</time>
      </trkpt>
      <trkpt lat="48.06766" lon="-3.86459">
        <ele>168.1</ele>
        <time>2023-04-05T10:06:51Z</time>
      </trkpt>
      <trkpt lat="48.06767" lon="-3.86452">
        <ele>168.2</ele>
        <time>2023-04-05T10:06:52Z</time>
      </trkpt>
      <trkpt lat="48.06768" lon="-3.86446">
        <ele>168.3</ele>
        <time>2023-04-05T10:06:53Z</time>
      </trkpt>
      <trkpt lat="48.06769" lon="-3.86439">
        <ele>168.3</ele>
        <time>2023-04-05T10:06:54Z</time>
      </trkpt>
      <trkpt lat="48.06769" lon="-3.86432">
        <ele>168.4</ele>
        <time>2023-04-05T10:06:55Z</time>
      </trkpt>
      <trkpt lat="48.0677" lon="-3.86425">
        <ele>168.5</ele>
        <time>2023-04-05T10:06:56Z</time>
      </trkpt>
      <trkpt lat="48.06771" lon="-3.86418">
        <ele>168.6</ele>
        <time>2023-04-05T10:06:57Z</time>
      </trkpt>
      <trkpt lat="48.06772" lon="-3.86411">
        <ele>168.7</ele>
        <time>2023-04-05T10:06:58Z</time>
      </trkpt>
      <trkpt lat="48.06773" lon="-3.86404">
        <ele>168.7</ele>
        <time>2023-04-05T10:06:59Z</time>
      </trkpt>
      <trkpt lat="48.06774" lon="-3.86397">
        <ele>168.8</ele>
        <time>2023-04-05T10:07:00Z</time>
      </trkpt>
      <trkpt lat="48.06775" lon="-3.86391">
        <ele>168.9</ele>
        <time>2023-04-05T10:07:01Z</time>
      </trkpt>
      <trkpt lat="48.06776" lon="-3.86384">
        <ele>169</ele>
        <time>2023-04-05T10:07:02Z</time>
      </trkpt>
      <trkpt lat="48.06777" lon="-3.86377">
        <ele>169.1</ele>
        <time>2023-04-05T10:07:03Z</time>
      </trkpt>
      <trkpt lat="48.06778" lon="-3.8637">
        <ele>169.1</ele>
        <time>2023-04-05T10:07:04Z</time>
      </trkpt>
      <trkpt lat="48.06779" lon="-3.86363">
        <ele>169.2</ele>
        <time>2023-04-05T10:07:05Z</time>
      </trkpt>
      <trkpt lat="48.0678" lon="-3.86356">
        <ele>169.3</ele>
        <time>2023-04-05T10:07:06Z</time>
      </trkpt>
      <trkpt lat="48.06781" lon="-3.8635">
        <ele>169.4</ele>
        <time>2023-04-05T10:07:07Z</time>
      </trkpt>
      <trkpt lat="48.06782" lon="-3.86343">
        <ele>169.5</ele>
        <time>2023-04-05T10:07:08Z</time>
      </trkpt>
      <trkpt lat="48.06783" lon="-3.86337">
        <ele>169.6</ele>
        <time>2023-04-05T10:07:09Z</time>
      </trkpt>
      <trkpt lat="48.06784" lon="-3.8633">
        <ele>169.7</ele>
        <time>2023-04-05T10:07:10Z</time>
      </trkpt>
      <trkpt lat="48.06785" lon="-3.86323">
        <ele>169.8</ele>
        <time>2023-04-05T10:07:11Z</time>
      </trkpt>
      <trkpt lat="48.06786" lon="-3.86317">
        <ele>169.9</ele>
        <time>2023-04-05T10:07:12Z</time>
      </trkpt>
      <trkpt lat="48.06787" lon="-3.8631">
        <ele>170</ele>
        <time>2023-04-05T10:07:13Z</time>
      </trkpt>
      <trkpt lat="48.06787" lon="-3.86303">
        <ele>170.1</ele>
        <time>2023-04-05T10:07:14Z</time>
      </trkpt>
      <trkpt lat="48.06788" lon="-3.86296">
        <ele>170.2</ele>
        <time>2023-04-05T10:07:15Z</time>
      </trkpt>
      <trkpt lat="48.06789" lon="-3.8629">
        <ele>170.2</ele>
        <time>2023-04-05T10:07:16Z</time>
      </trkpt>
      <trkpt lat="48.06789" lon="-3.86283">
        <ele>170.3</ele>
        <time>2023-04-05T10:07:17Z</time>
      </trkpt>
      <trkpt lat="48.0679" lon="-3.86277">
        <ele>170.4</ele>
        <time>2023-04-05T10:07:18Z</time>
      </trkpt>
      <trkpt lat="48.0679" lon="-3.8627">
        <ele>170.5</ele>
        <time>2023-04-05T10:07:19Z</time>
      </trkpt>
      <trkpt lat="48.0679" lon="-3.86263">
        <ele>170.6</ele>
        <time>2023-04-05T10:07:20Z</time>
      </trkpt>
      <trkpt lat="48.0679" lon="-3.86257">
        <ele>170.7</ele>
        <time>2023-04-05T10:07:21Z</time>
      </trkpt>
      <trkpt lat="48.0679" lon="-3.8625">
        <ele>170.8</ele>
        <time>2023-04-05T10:07:22Z</time>
      </trkpt>
      <trkpt lat="48.0679" lon="-3.86242">
        <ele>170.9</ele>
        <time>2023-04-05T10:07:23Z</time>
      </trkpt>
      <trkpt lat="48.06791" lon="-3.86235">
        <ele>171</ele>
        <time>2023-04-05T10:07:24Z</time>
      </trkpt>
      <trkpt lat="48.06791" lon="-3.86228">
        <ele>171.1</ele>
        <time>2023-04-05T10:07:25Z</time>
      </trkpt>
      <trkpt lat="48.06791" lon="-3.86221">
        <ele>171.2</ele>
        <time>2023-04-05T10:07:26Z</time>
      </trkpt>
      <trkpt lat="48.0679" lon="-3.86214">
        <ele>171.3</ele>
        <time>2023-04-05T10:07:27Z</time>
      </trkpt>
      <trkpt lat="48.0679" lon="-3.86208">
        <ele>171.4</ele>
        <time>2023-04-05T10:07:28Z</time>
      </trkpt>
      <trkpt lat="48.06789" lon="-3.86201">
        <ele>171.5</ele>
        <time>2023-04-05T10:07:29Z</time>
      </trkpt>
      <trkpt lat="48.06788" lon="-3.86195">
        <ele>171.6</ele>
        <time>2023-04-05T10:07:30Z</time>
      </trkpt>
      <trkpt lat="48.06788" lon="-3.8619">
        <ele>171.7</ele>
        <time>2023-04-05T10:07:31Z</time>
      </trkpt>
      <trkpt lat="48.06787" lon="-3.86183">
        <ele>171.8</ele>
        <time>2023-04-05T10:07:32Z</time>
      </trkpt>
      <trkpt lat="48.06787" lon="-3.86176">
        <ele>171.9</ele>
        <time>2023-04-05T10:07:33Z</time>
      </trkpt>
      <trkpt lat="48.06786" lon="-3.86169">
        <ele>172</ele>
        <time>2023-04-05T10:07:34Z</time>
      </trkpt>
      <trkpt lat="48.06786" lon="-3.86163">
        <ele>172.2</ele>
        <time>2023-04-05T10:07:35Z</time>
      </trkpt>
      <trkpt lat="48.06785" lon="-3.86156">
        <ele>172.3</ele>
        <time>2023-04-05T10:07:36Z</time>
      </trkpt>
      <trkpt lat="48.06784" lon="-3.86146">
        <ele>172.5</ele>
        <time>2023-04-05T10:07:37Z</time>
      </trkpt>
      <trkpt lat="48.06784" lon="-3.86141">
        <ele>172.5</ele>
        <time>2023-04-05T10:07:38Z</time>
      </trkpt>
      <trkpt lat="48.06783" lon="-3.86135">
        <ele>172.6</ele>
        <time>2023-04-05T10:07:39Z</time>
      </trkpt>
      <trkpt lat="48.06783" lon="-3.86129">
        <ele>172.7</ele>
        <time>2023-04-05T10:07:40Z</time>
      </trkpt>
      <trkpt lat="48.06783" lon="-3.86123">
        <ele>172.8</ele>
        <time>2023-04-05T10:07:41Z</time>
      </trkpt>
      <trkpt lat="48.06783" lon="-3.86116">
        <ele>172.9</ele>
        <time>2023-04-05T10:07:42Z</time>
      </trkpt>
      <trkpt lat="48.06783" lon="-3.8611">
        <ele>173</ele>
        <time>2023-04-05T10:07:43Z</time>
      </trkpt>
      <trkpt lat="48.06783" lon="-3.86104">
        <ele>173.1</ele>
        <time>2023-04-05T10:07:44Z</time>
      </trkpt>
      <trkpt lat="48.06783" lon="-3.86097">
        <ele>173.2</ele>
        <time>2023-04-05T10:07:45Z</time>
      </trkpt>
      <trkpt lat="48.06783" lon="-3.8609">
        <ele>173.3</ele>
        <time>2023-04-05T10:07:46Z</time>
      </trkpt>
      <trkpt lat="48.06784" lon="-3.86084">
        <ele>173.4</ele>
        <time>2023-04-05T10:07:47Z</time>
      </trkpt>
      <trkpt lat="48.06784" lon="-3.86077">
        <ele>173.5</ele>
        <time>2023-04-05T10:07:48Z</time>
      </trkpt>
      <trkpt lat="48.06784" lon="-3.8607">
        <ele>173.6</ele>
        <time>2023-04-05T10:07:49Z</time>
      </trkpt>
      <trkpt lat="48.06785" lon="-3.86063">
        <ele>173.6</ele>
        <time>2023-04-05T10:07:50Z</time>
      </trkpt>
      <trkpt lat="48.06786" lon="-3.86057">
        <ele>173.7</ele>
        <time>2023-04-05T10:07:51Z</time>
      </trkpt>
      <trkpt lat="48.06786" lon="-3.8605">
        <ele>173.8</ele>
        <time>2023-04-05T10:07:52Z</time>
      </trkpt>
      <trkpt lat="48.06787" lon="-3.86043">
        <ele>173.8</ele>
        <time>2023-04-05T10:07:53Z</time>
      </trkpt>
      <trkpt lat="48.06788" lon="-3.86036">
        <ele>173.9</ele>
        <time>2023-04-05T10:07:54Z</time>
      </trkpt>
      <trkpt lat="48.06788" lon="-3.8603">
        <ele>174</ele>
        <time>2023-04-05T10:07:55Z</time>
      </trkpt>
      <trkpt lat="48.06788" lon="-3.86023">
        <ele>174</ele>
        <time>2023-04-05T10:07:56Z</time>
      </trkpt>
      <trkpt lat="48.06789" lon="-3.86016">
        <ele>174.1</ele>
        <time>2023-04-05T10:07:57Z</time>
      </trkpt>
      <trkpt lat="48.0679" lon="-3.8601">
        <ele>174.1</ele>
        <time>2023-04-05T10:07:58Z</time>
      </trkpt>
      <trkpt lat="48.06791" lon="-3.86003">
        <ele>174.2</ele>
        <time>2023-04-05T10:07:59Z</time>
      </trkpt>
      <trkpt lat="48.06791" lon="-3.85995">
        <ele>174.2</ele>
        <time>2023-04-05T10:08:00Z</time>
      </trkpt>
      <trkpt lat="48.06792" lon="-3.85988">
        <ele>174.2</ele>
        <time>2023-04-05T10:08:01Z</time>
      </trkpt>
      <trkpt lat="48.06792" lon="-3.85981">
        <ele>174.3</ele>
        <time>2023-04-05T10:08:02Z</time>
      </trkpt>
      <trkpt lat="48.06792" lon="-3.85974">
        <ele>174.3</ele>
        <time>2023-04-05T10:08:03Z</time>
      </trkpt>
      <trkpt lat="48.06792" lon="-3.85967">
        <ele>174.4</ele>
        <time>2023-04-05T10:08:04Z</time>
      </trkpt>
      <trkpt lat="48.06792" lon="-3.8596">
        <ele>174.4</ele>
        <time>2023-04-05T10:08:05Z</time>
      </trkpt>
      <trkpt lat="48.06792" lon="-3.85953">
        <ele>174.5</ele>
        <time>2023-04-05T10:08:06Z</time>
      </trkpt>
      <trkpt lat="48.06791" lon="-3.85946">
        <ele>174.6</ele>
        <time>2023-04-05T10:08:07Z</time>
      </trkpt>
      <trkpt lat="48.06791" lon="-3.85939">
        <ele>174.6</ele>
        <time>2023-04-05T10:08:08Z</time>
      </trkpt>
      <trkpt lat="48.06791" lon="-3.85933">
        <ele>174.7</ele>
        <time>2023-04-05T10:08:09Z</time>
      </trkpt>
      <trkpt lat="48.06791" lon="-3.85926">
        <ele>174.8</ele>
        <time>2023-04-05T10:08:10Z</time>
      </trkpt>
      <trkpt lat="48.0679" lon="-3.85919">
        <ele>174.9</ele>
        <time>2023-04-05T10:08:11Z</time>
      </trkpt>
      <trkpt lat="48.0679" lon="-3.85913">
        <ele>174.9</ele>
        <time>2023-04-05T10:08:12Z</time>
      </trkpt>
      <trkpt lat="48.0679" lon="-3.85906">
        <ele>175</ele>
        <time>2023-04-05T10:08:13Z</time>
      </trkpt>
      <trkpt lat="48.0679" lon="-3.85899">
        <ele>175.1</ele>
        <time>2023-04-05T10:08:14Z</time>
      </trkpt>
      <trkpt lat="48.06789" lon="-3.85893">
        <ele>175.2</ele>
        <time>2023-04-05T10:08:15Z</time>
      </trkpt>
      <trkpt lat="48.06789" lon="-3.85887">
        <ele>175.2</ele>
        <time>2023-04-05T10:08:16Z</time>
      </trkpt>
      <trkpt lat="48.06789" lon="-3.8588">
        <ele>175.3</ele>
        <time>2023-04-05T10:08:17Z</time>
      </trkpt>
      <trkpt lat="48.06789" lon="-3.85873">
        <ele>175.4</ele>
        <time>2023-04-05T10:08:18Z</time>
      </trkpt>
      <trkpt lat="48.06788" lon="-3.85861">
        <ele>175.6</ele>
        <time>2023-04-05T10:08:19Z</time>
      </trkpt>
      <trkpt lat="48.06788" lon="-3.85856">
        <ele>175.6</ele>
        <time>2023-04-05T10:08:20Z</time>
      </trkpt>
      <trkpt lat="48.06787" lon="-3.85853">
        <ele>175.7</ele>
        <time>2023-04-05T10:08:21Z</time>
      </trkpt>
      <trkpt lat="48.06787" lon="-3.85846">
        <ele>175.8</ele>
        <time>2023-04-05T10:08:22Z</time>
      </trkpt>
      <trkpt lat="48.06786" lon="-3.85839">
        <ele>175.9</ele>
        <time>2023-04-05T10:08:23Z</time>
      </trkpt>
      <trkpt lat="48.06785" lon="-3.85835">
        <ele>176</ele>
        <time>2023-04-05T10:08:24Z</time>
      </trkpt>
      <trkpt lat="48.06784" lon="-3.85827">
        <ele>176.1</ele>
        <time>2023-04-05T10:08:25Z</time>
      </trkpt>
      <trkpt lat="48.06783" lon="-3.85819">
        <ele>176.2</ele>
        <time>2023-04-05T10:08:26Z</time>
      </trkpt>
      <trkpt lat="48.06782" lon="-3.85812">
        <ele>176.3</ele>
        <time>2023-04-05T10:08:27Z</time>
      </trkpt>
      <trkpt lat="48.0678" lon="-3.85805">
        <ele>176.5</ele>
        <time>2023-04-05T10:08:28Z</time>
      </trkpt>
      <trkpt lat="48.06779" lon="-3.85799">
        <ele>176.6</ele>
        <time>2023-04-05T10:08:29Z</time>
      </trkpt>
      <trkpt lat="48.06778" lon="-3.85792">
        <ele>176.7</ele>
        <time>2023-04-05T10:08:30Z</time>
      </trkpt>
      <trkpt lat="48.06777" lon="-3.85786">
        <ele>176.8</ele>
        <time>2023-04-05T10:08:31Z</time>
      </trkpt>
      <trkpt lat="48.06775" lon="-3.8578">
        <ele>176.9</ele>
        <time>2023-04-05T10:08:32Z</time>
      </trkpt>
      <trkpt lat="48.06773" lon="-3.85773">
        <ele>177</ele>
        <time>2023-04-05T10:08:33Z</time>
      </trkpt>
      <trkpt lat="48.06772" lon="-3.85768">
        <ele>177.1</ele>
        <time>2023-04-05T10:08:34Z</time>
      </trkpt>
      <trkpt lat="48.0677" lon="-3.85762">
        <ele>177.3</ele>
        <time>2023-04-05T10:08:35Z</time>
      </trkpt>
      <trkpt lat="48.06767" lon="-3.85751">
        <ele>177.4</ele>
        <time>2023-04-05T10:08:36Z</time>
      </trkpt>
      <trkpt lat="48.06765" lon="-3.85745">
        <ele>177.5</ele>
        <time>2023-04-05T10:08:38Z</time>
      </trkpt>
      <trkpt lat="48.06764" lon="-3.85739">
        <ele>177.6</ele>
        <time>2023-04-05T10:08:39Z</time>
      </trkpt>
      <trkpt lat="48.06761" lon="-3.85734">
        <ele>177.7</ele>
        <time>2023-04-05T10:08:40Z</time>
      </trkpt>
      <trkpt lat="48.06757" lon="-3.85724">
        <ele>177.9</ele>
        <time>2023-04-05T10:08:41Z</time>
      </trkpt>
      <trkpt lat="48.06754" lon="-3.85717">
        <ele>178</ele>
        <time>2023-04-05T10:08:43Z</time>
      </trkpt>
      <trkpt lat="48.06751" lon="-3.85712">
        <ele>178.1</ele>
        <time>2023-04-05T10:08:44Z</time>
      </trkpt>
      <trkpt lat="48.06748" lon="-3.85707">
        <ele>178.2</ele>
        <time>2023-04-05T10:08:45Z</time>
      </trkpt>
      <trkpt lat="48.06745" lon="-3.85702">
        <ele>178.4</ele>
        <time>2023-04-05T10:08:46Z</time>
      </trkpt>
      <trkpt lat="48.06741" lon="-3.85696">
        <ele>178.5</ele>
        <time>2023-04-05T10:08:47Z</time>
      </trkpt>
      <trkpt lat="48.06738" lon="-3.85691">
        <ele>178.6</ele>
        <time>2023-04-05T10:08:48Z</time>
      </trkpt>
      <trkpt lat="48.06736" lon="-3.85687">
        <ele>178.7</ele>
        <time>2023-04-05T10:08:49Z</time>
      </trkpt>
      <trkpt lat="48.06731" lon="-3.85677">
        <ele>178.9</ele>
        <time>2023-04-05T10:08:51Z</time>
      </trkpt>
      <trkpt lat="48.06728" lon="-3.85672">
        <ele>178.9</ele>
        <time>2023-04-05T10:08:52Z</time>
      </trkpt>
      <trkpt lat="48.06725" lon="-3.85666">
        <ele>179</ele>
        <time>2023-04-05T10:08:53Z</time>
      </trkpt>
      <trkpt lat="48.06722" lon="-3.85661">
        <ele>179.1</ele>
        <time>2023-04-05T10:08:54Z</time>
      </trkpt>
      <trkpt lat="48.06719" lon="-3.85655">
        <ele>179.2</ele>
        <time>2023-04-05T10:08:55Z</time>
      </trkpt>
      <trkpt lat="48.06716" lon="-3.85649">
        <ele>179.3</ele>
        <time>2023-04-05T10:08:56Z</time>
      </trkpt>
      <trkpt lat="48.06713" lon="-3.85643">
        <ele>179.4</ele>
        <time>2023-04-05T10:08:57Z</time>
      </trkpt>
      <trkpt lat="48.06711" lon="-3.85637">
        <ele>179.5</ele>
        <time>2023-04-05T10:08:58Z</time>
      </trkpt>
      <trkpt lat="48.06708" lon="-3.85631">
        <ele>179.6</ele>
        <time>2023-04-05T10:08:59Z</time>
      </trkpt>
      <trkpt lat="48.06706" lon="-3.85624">
        <ele>179.7</ele>
        <time>2023-04-05T10:09:00Z</time>
      </trkpt>
      <trkpt lat="48.06704" lon="-3.85618">
        <ele>179.8</ele>
        <time>2023-04-05T10:09:01Z</time>
      </trkpt>
      <trkpt lat="48.06701" lon="-3.85612">
        <ele>179.9</ele>
        <time>2023-04-05T10:09:02Z</time>
      </trkpt>
      <trkpt lat="48.06698" lon="-3.85606">
        <ele>180</ele>
        <time>2023-04-05T10:09:03Z</time>
      </trkpt>
      <trkpt lat="48.06696" lon="-3.856">
        <ele>180.1</ele>
        <time>2023-04-05T10:09:04Z</time>
      </trkpt>
      <trkpt lat="48.06693" lon="-3.85594">
        <ele>180.2</ele>
        <time>2023-04-05T10:09:05Z</time>
      </trkpt>
      <trkpt lat="48.0669" lon="-3.85589">
        <ele>180.3</ele>
        <time>2023-04-05T10:09:06Z</time>
      </trkpt>
      <trkpt lat="48.06687" lon="-3.85583">
        <ele>180.4</ele>
        <time>2023-04-05T10:09:07Z</time>
      </trkpt>
      <trkpt lat="48.06685" lon="-3.85578">
        <ele>180.5</ele>
        <time>2023-04-05T10:09:08Z</time>
      </trkpt>
      <trkpt lat="48.06682" lon="-3.85572">
        <ele>180.6</ele>
        <time>2023-04-05T10:09:09Z</time>
      </trkpt>
      <trkpt lat="48.06679" lon="-3.85567">
        <ele>180.6</ele>
        <time>2023-04-05T10:09:10Z</time>
      </trkpt>
      <trkpt lat="48.06676" lon="-3.85561">
        <ele>180.7</ele>
        <time>2023-04-05T10:09:11Z</time>
      </trkpt>
      <trkpt lat="48.06673" lon="-3.85556">
        <ele>180.8</ele>
        <time>2023-04-05T10:09:12Z</time>
      </trkpt>
      <trkpt lat="48.06671" lon="-3.8555">
        <ele>180.8</ele>
        <time>2023-04-05T10:09:13Z</time>
      </trkpt>
      <trkpt lat="48.06668" lon="-3.85544">
        <ele>180.9</ele>
        <time>2023-04-05T10:09:14Z</time>
      </trkpt>
      <trkpt lat="48.06666" lon="-3.85538">
        <ele>180.9</ele>
        <time>2023-04-05T10:09:15Z</time>
      </trkpt>
      <trkpt lat="48.06663" lon="-3.85533">
        <ele>181</ele>
        <time>2023-04-05T10:09:16Z</time>
      </trkpt>
      <trkpt lat="48.06661" lon="-3.85527">
        <ele>181.1</ele>
        <time>2023-04-05T10:09:17Z</time>
      </trkpt>
      <trkpt lat="48.06658" lon="-3.85521">
        <ele>181.1</ele>
        <time>2023-04-05T10:09:18Z</time>
      </trkpt>
      <trkpt lat="48.06656" lon="-3.85515">
        <ele>181.2</ele>
        <time>2023-04-05T10:09:19Z</time>
      </trkpt>
      <trkpt lat="48.06653" lon="-3.85509">
        <ele>181.3</ele>
        <time>2023-04-05T10:09:20Z</time>
      </trkpt>
      <trkpt lat="48.06651" lon="-3.85503">
        <ele>181.4</ele>
        <time>2023-04-05T10:09:21Z</time>
      </trkpt>
      <trkpt lat="48.06649" lon="-3.85497">
        <ele>181.5</ele>
        <time>2023-04-05T10:09:22Z</time>
      </trkpt>
      <trkpt lat="48.06646" lon="-3.85491">
        <ele>181.5</ele>
        <time>2023-04-05T10:09:23Z</time>
      </trkpt>
      <trkpt lat="48.06644" lon="-3.85484">
        <ele>181.6</ele>
        <time>2023-04-05T10:09:24Z</time>
      </trkpt>
      <trkpt lat="48.06642" lon="-3.85478">
        <ele>181.7</ele>
        <time>2023-04-05T10:09:25Z</time>
      </trkpt>
      <trkpt lat="48.0664" lon="-3.85472">
        <ele>181.8</ele>
        <time>2023-04-05T10:09:26Z</time>
      </trkpt>
      <trkpt lat="48.06637" lon="-3.85466">
        <ele>181.9</ele>
        <time>2023-04-05T10:09:27Z</time>
      </trkpt>
      <trkpt lat="48.06635" lon="-3.8546">
        <ele>182</ele>
        <time>2023-04-05T10:09:28Z</time>
      </trkpt>
      <trkpt lat="48.06633" lon="-3.85454">
        <ele>182.1</ele>
        <time>2023-04-05T10:09:29Z</time>
      </trkpt>
      <trkpt lat="48.06631" lon="-3.85448">
        <ele>182.1</ele>
        <time>2023-04-05T10:09:30Z</time>
      </trkpt>
      <trkpt lat="48.06629" lon="-3.85442">
        <ele>182.2</ele>
        <time>2023-04-05T10:09:31Z</time>
      </trkpt>
      <trkpt lat="48.06627" lon="-3.85436">
        <ele>182.3</ele>
        <time>2023-04-05T10:09:32Z</time>
      </trkpt>
      <trkpt lat="48.06625" lon="-3.85429">
        <ele>182.4</ele>
        <time>2023-04-05T10:09:33Z</time>
      </trkpt>
      <trkpt lat="48.06623" lon="-3.85423">
        <ele>182.5</ele>
        <time>2023-04-05T10:09:34Z</time>
      </trkpt>
      <trkpt lat="48.06621" lon="-3.85417">
        <ele>182.6</ele>
        <time>2023-04-05T10:09:35Z</time>
      </trkpt>
      <trkpt lat="48.06619" lon="-3.8541">
        <ele>182.7</ele>
        <time>2023-04-05T10:09:36Z</time>
      </trkpt>
      <trkpt lat="48.06618" lon="-3.85404">
        <ele>182.8</ele>
        <time>2023-04-05T10:09:37Z</time>
      </trkpt>
      <trkpt lat="48.06616" lon="-3.85397">
        <ele>183</ele>
        <time>2023-04-05T10:09:38Z</time>
      </trkpt>
      <trkpt lat="48.06615" lon="-3.8539">
        <ele>183.1</ele>
        <time>2023-04-05T10:09:39Z</time>
      </trkpt>
      <trkpt lat="48.06614" lon="-3.85383">
        <ele>183.2</ele>
        <time>2023-04-05T10:09:40Z</time>
      </trkpt>
      <trkpt lat="48.06612" lon="-3.85376">
        <ele>183.3</ele>
        <time>2023-04-05T10:09:41Z</time>
      </trkpt>
      <trkpt lat="48.06611" lon="-3.8537">
        <ele>183.3</ele>
        <time>2023-04-05T10:09:42Z</time>
      </trkpt>
      <trkpt lat="48.0661" lon="-3.85363">
        <ele>183.3</ele>
        <time>2023-04-05T10:09:43Z</time>
      </trkpt>
      <trkpt lat="48.06609" lon="-3.85357">
        <ele>183.4</ele>
        <time>2023-04-05T10:09:44Z</time>
      </trkpt>
      <trkpt lat="48.06609" lon="-3.8535">
        <ele>183.4</ele>
        <time>2023-04-05T10:09:45Z</time>
      </trkpt>
      <trkpt lat="48.06608" lon="-3.85343">
        <ele>183.5</ele>
        <time>2023-04-05T10:09:46Z</time>
      </trkpt>
      <trkpt lat="48.06607" lon="-3.85336">
        <ele>183.6</ele>
        <time>2023-04-05T10:09:47Z</time>
      </trkpt>
      <trkpt lat="48.06606" lon="-3.85329">
        <ele>183.6</ele>
        <time>2023-04-05T10:09:48Z</time>
      </trkpt>
      <trkpt lat="48.06606" lon="-3.85322">
        <ele>183.7</ele>
        <time>2023-04-05T10:09:49Z</time>
      </trkpt>
      <trkpt lat="48.06605" lon="-3.85315">
        <ele>183.8</ele>
        <time>2023-04-05T10:09:50Z</time>
      </trkpt>
      <trkpt lat="48.06605" lon="-3.85308">
        <ele>183.9</ele>
        <time>2023-04-05T10:09:51Z</time>
      </trkpt>
      <trkpt lat="48.06605" lon="-3.85301">
        <ele>183.9</ele>
        <time>2023-04-05T10:09:52Z</time>
      </trkpt>
      <trkpt lat="48.06604" lon="-3.85294">
        <ele>184</ele>
        <time>2023-04-05T10:09:53Z</time>
      </trkpt>
      <trkpt lat="48.06604" lon="-3.85287">
        <ele>184.1</ele>
        <time>2023-04-05T10:09:54Z</time>
      </trkpt>
      <trkpt lat="48.06604" lon="-3.8528">
        <ele>184.2</ele>
        <time>2023-04-05T10:09:55Z</time>
      </trkpt>
      <trkpt lat="48.06604" lon="-3.85273">
        <ele>184.2</ele>
        <time>2023-04-05T10:09:56Z</time>
      </trkpt>
      <trkpt lat="48.06604" lon="-3.85266">
        <ele>184.3</ele>
        <time>2023-04-05T10:09:57Z</time>
      </trkpt>
      <trkpt lat="48.06604" lon="-3.8526">
        <ele>184.4</ele>
        <time>2023-04-05T10:09:58Z</time>
      </trkpt>
      <trkpt lat="48.06604" lon="-3.85253">
        <ele>184.5</ele>
        <time>2023-04-05T10:09:59Z</time>
      </trkpt>
      <trkpt lat="48.06604" lon="-3.85246">
        <ele>184.6</ele>
        <time>2023-04-05T10:10:00Z</time>
      </trkpt>
      <trkpt lat="48.06604" lon="-3.85238">
        <ele>184.6</ele>
        <time>2023-04-05T10:10:01Z</time>
      </trkpt>
      <trkpt lat="48.06604" lon="-3.85231">
        <ele>184.7</ele>
        <time>2023-04-05T10:10:02Z</time>
      </trkpt>
      <trkpt lat="48.06604" lon="-3.85224">
        <ele>184.8</ele>
        <time>2023-04-05T10:10:03Z</time>
      </trkpt>
      <trkpt lat="48.06605" lon="-3.85217">
        <ele>184.9</ele>
        <time>2023-04-05T10:10:04Z</time>
      </trkpt>
      <trkpt lat="48.06605" lon="-3.8521">
        <ele>185</ele>
        <time>2023-04-05T10:10:05Z</time>
      </trkpt>
      <trkpt lat="48.06605" lon="-3.85203">
        <ele>185</ele>
        <time>2023-04-05T10:10:06Z</time>
      </trkpt>
      <trkpt lat="48.06605" lon="-3.85195">
        <ele>185.1</ele>
        <time>2023-04-05T10:10:07Z</time>
      </trkpt>
      <trkpt lat="48.06605" lon="-3.85188">
        <ele>185.2</ele>
        <time>2023-04-05T10:10:08Z</time>
      </trkpt>
      <trkpt lat="48.06605" lon="-3.85181">
        <ele>185.3</ele>
        <time>2023-04-05T10:10:09Z</time>
      </trkpt>
      <trkpt lat="48.06605" lon="-3.85174">
        <ele>185.4</ele>
        <time>2023-04-05T10:10:10Z</time>
      </trkpt>
      <trkpt lat="48.06606" lon="-3.85167">
        <ele>185.5</ele>
        <time>2023-04-05T10:10:11Z</time>
      </trkpt>
      <trkpt lat="48.06606" lon="-3.8516">
        <ele>185.6</ele>
        <time>2023-04-05T10:10:12Z</time>
      </trkpt>
      <trkpt lat="48.06606" lon="-3.85153">
        <ele>185.6</ele>
        <time>2023-04-05T10:10:13Z</time>
      </trkpt>
      <trkpt lat="48.06607" lon="-3.85145">
        <ele>185.7</ele>
        <time>2023-04-05T10:10:14Z</time>
      </trkpt>
      <trkpt lat="48.06607" lon="-3.85138">
        <ele>185.8</ele>
        <time>2023-04-05T10:10:15Z</time>
      </trkpt>
      <trkpt lat="48.06607" lon="-3.85131">
        <ele>185.9</ele>
        <time>2023-04-05T10:10:16Z</time>
      </trkpt>
      <trkpt lat="48.06607" lon="-3.85123">
        <ele>185.9</ele>
        <time>2023-04-05T10:10:17Z</time>
      </trkpt>
      <trkpt lat="48.06607" lon="-3.85116">
        <ele>186</ele>
        <time>2023-04-05T10:10:18Z</time>
      </trkpt>
      <trkpt lat="48.06607" lon="-3.85108">
        <ele>186.1</ele>
        <time>2023-04-05T10:10:19Z</time>
      </trkpt>
      <trkpt lat="48.06607" lon="-3.851">
        <ele>186.1</ele>
        <time>2023-04-05T10:10:20Z</time>
      </trkpt>
      <trkpt lat="48.06608" lon="-3.85092">
        <ele>186.2</ele>
        <time>2023-04-05T10:10:21Z</time>
      </trkpt>
      <trkpt lat="48.06608" lon="-3.85085">
        <ele>186.3</ele>
        <time>2023-04-05T10:10:22Z</time>
      </trkpt>
      <trkpt lat="48.06608" lon="-3.85077">
        <ele>186.4</ele>
        <time>2023-04-05T10:10:23Z</time>
      </trkpt>
      <trkpt lat="48.06608" lon="-3.85069">
        <ele>186.5</ele>
        <time>2023-04-05T10:10:24Z</time>
      </trkpt>
      <trkpt lat="48.06608" lon="-3.85061">
        <ele>186.5</ele>
        <time>2023-04-05T10:10:25Z</time>
      </trkpt>
      <trkpt lat="48.06608" lon="-3.85054">
        <ele>186.6</ele>
        <time>2023-04-05T10:10:26Z</time>
      </trkpt>
      <trkpt lat="48.06608" lon="-3.85047">
        <ele>186.7</ele>
        <time>2023-04-05T10:10:27Z</time>
      </trkpt>
      <trkpt lat="48.06608" lon="-3.8504">
        <ele>186.8</ele>
        <time>2023-04-05T10:10:28Z</time>
      </trkpt>
      <trkpt lat="48.06607" lon="-3.85034">
        <ele>186.8</ele>
        <time>2023-04-05T10:10:29Z</time>
      </trkpt>
      <trkpt lat="48.06608" lon="-3.85027">
        <ele>186.9</ele>
        <time>2023-04-05T10:10:30Z</time>
      </trkpt>
      <trkpt lat="48.06608" lon="-3.8502">
        <ele>187</ele>
        <time>2023-04-05T10:10:31Z</time>
      </trkpt>
      <trkpt lat="48.06608" lon="-3.85013">
        <ele>187</ele>
        <time>2023-04-05T10:10:32Z</time>
      </trkpt>
      <trkpt lat="48.06608" lon="-3.85005">
        <ele>187.1</ele>
        <time>2023-04-05T10:10:33Z</time>
      </trkpt>
      <trkpt lat="48.06609" lon="-3.84997">
        <ele>187.2</ele>
        <time>2023-04-05T10:10:34Z</time>
      </trkpt>
      <trkpt lat="48.06609" lon="-3.84989">
        <ele>187.2</ele>
        <time>2023-04-05T10:10:35Z</time>
      </trkpt>
      <trkpt lat="48.06609" lon="-3.84982">
        <ele>187.3</ele>
        <time>2023-04-05T10:10:36Z</time>
      </trkpt>
      <trkpt lat="48.06609" lon="-3.84974">
        <ele>187.4</ele>
        <time>2023-04-05T10:10:37Z</time>
      </trkpt>
      <trkpt lat="48.0661" lon="-3.84967">
        <ele>187.5</ele>
        <time>2023-04-05T10:10:38Z</time>
      </trkpt>
      <trkpt lat="48.0661" lon="-3.84959">
        <ele>187.5</ele>
        <time>2023-04-05T10:10:39Z</time>
      </trkpt>
      <trkpt lat="48.06611" lon="-3.84951">
        <ele>187.6</ele>
        <time>2023-04-05T10:10:40Z</time>
      </trkpt>
      <trkpt lat="48.06611" lon="-3.84944">
        <ele>187.7</ele>
        <time>2023-04-05T10:10:41Z</time>
      </trkpt>
      <trkpt lat="48.06611" lon="-3.84936">
        <ele>187.7</ele>
        <time>2023-04-05T10:10:42Z</time>
      </trkpt>
      <trkpt lat="48.06611" lon="-3.84928">
        <ele>187.8</ele>
        <time>2023-04-05T10:10:43Z</time>
      </trkpt>
      <trkpt lat="48.06611" lon="-3.8492">
        <ele>187.8</ele>
        <time>2023-04-05T10:10:44Z</time>
      </trkpt>
      <trkpt lat="48.06611" lon="-3.84912">
        <ele>187.9</ele>
        <time>2023-04-05T10:10:45Z</time>
      </trkpt>
      <trkpt lat="48.06611" lon="-3.84905">
        <ele>187.9</ele>
        <time>2023-04-05T10:10:46Z</time>
      </trkpt>
      <trkpt lat="48.06611" lon="-3.84897">
        <ele>188</ele>
        <time>2023-04-05T10:10:47Z</time>
      </trkpt>
      <trkpt lat="48.06611" lon="-3.8489">
        <ele>188</ele>
        <time>2023-04-05T10:10:48Z</time>
      </trkpt>
      <trkpt lat="48.0661" lon="-3.84882">
        <ele>188</ele>
        <time>2023-04-05T10:10:49Z</time>
      </trkpt>
      <trkpt lat="48.0661" lon="-3.84873">
        <ele>188.1</ele>
        <time>2023-04-05T10:10:50Z</time>
      </trkpt>
      <trkpt lat="48.0661" lon="-3.84866">
        <ele>188.1</ele>
        <time>2023-04-05T10:10:51Z</time>
      </trkpt>
      <trkpt lat="48.0661" lon="-3.84858">
        <ele>188.1</ele>
        <time>2023-04-05T10:10:52Z</time>
      </trkpt>
      <trkpt lat="48.0661" lon="-3.8485">
        <ele>188.2</ele>
        <time>2023-04-05T10:10:53Z</time>
      </trkpt>
      <trkpt lat="48.0661" lon="-3.84842">
        <ele>188.2</ele>
        <time>2023-04-05T10:10:54Z</time>
      </trkpt>
      <trkpt lat="48.0661" lon="-3.84834">
        <ele>188.2</ele>
        <time>2023-04-05T10:10:55Z</time>
      </trkpt>
      <trkpt lat="48.0661" lon="-3.84826">
        <ele>188.3</ele>
        <time>2023-04-05T10:10:56Z</time>
      </trkpt>
      <trkpt lat="48.0661" lon="-3.84818">
        <ele>188.3</ele>
        <time>2023-04-05T10:10:57Z</time>
      </trkpt>
      <trkpt lat="48.0661" lon="-3.8481">
        <ele>188.3</ele>
        <time>2023-04-05T10:10:58Z</time>
      </trkpt>
      <trkpt lat="48.06609" lon="-3.84803">
        <ele>188.3</ele>
        <time>2023-04-05T10:10:59Z</time>
      </trkpt>
      <trkpt lat="48.06609" lon="-3.84795">
        <ele>188.3</ele>
        <time>2023-04-05T10:11:00Z</time>
      </trkpt>
      <trkpt lat="48.06609" lon="-3.84787">
        <ele>188.3</ele>
        <time>2023-04-05T10:11:01Z</time>
      </trkpt>
      <trkpt lat="48.06609" lon="-3.84779">
        <ele>188.3</ele>
        <time>2023-04-05T10:11:02Z</time>
      </trkpt>
      <trkpt lat="48.06609" lon="-3.84771">
        <ele>188.3</ele>
        <time>2023-04-05T10:11:03Z</time>
      </trkpt>
      <trkpt lat="48.06609" lon="-3.84763">
        <ele>188.3</ele>
        <time>2023-04-05T10:11:04Z</time>
      </trkpt>
      <trkpt lat="48.06608" lon="-3.84755">
        <ele>188.2</ele>
        <time>2023-04-05T10:11:05Z</time>
      </trkpt>
      <trkpt lat="48.06608" lon="-3.84746">
        <ele>188.2</ele>
        <time>2023-04-05T10:11:06Z</time>
      </trkpt>
      <trkpt lat="48.06608" lon="-3.84738">
        <ele>188.2</ele>
        <time>2023-04-05T10:11:07Z</time>
      </trkpt>
      <trkpt lat="48.06608" lon="-3.8473">
        <ele>188.2</ele>
        <time>2023-04-05T10:11:08Z</time>
      </trkpt>
      <trkpt lat="48.06608" lon="-3.84722">
        <ele>188.2</ele>
        <time>2023-04-05T10:11:09Z</time>
      </trkpt>
      <trkpt lat="48.06608" lon="-3.84714">
        <ele>188.2</ele>
        <time>2023-04-05T10:11:10Z</time>
      </trkpt>
      <trkpt lat="48.06608" lon="-3.84707">
        <ele>188.2</ele>
        <time>2023-04-05T10:11:11Z</time>
      </trkpt>
      <trkpt lat="48.06608" lon="-3.84699">
        <ele>188.2</ele>
        <time>2023-04-05T10:11:12Z</time>
      </trkpt>
      <trkpt lat="48.06608" lon="-3.84691">
        <ele>188.2</ele>
        <time>2023-04-05T10:11:13Z</time>
      </trkpt>
      <trkpt lat="48.06608" lon="-3.84683">
        <ele>188.2</ele>
        <time>2023-04-05T10:11:14Z</time>
      </trkpt>
      <trkpt lat="48.06608" lon="-3.84675">
        <ele>188.2</ele>
        <time>2023-04-05T10:11:15Z</time>
      </trkpt>
      <trkpt lat="48.06608" lon="-3.84667">
        <ele>188.2</ele>
        <time>2023-04-05T10:11:16Z</time>
      </trkpt>
      <trkpt lat="48.06608" lon="-3.84659">
        <ele>188.2</ele>
        <time>2023-04-05T10:11:17Z</time>
      </trkpt>
      <trkpt lat="48.06609" lon="-3.84651">
        <ele>188.2</ele>
        <time>2023-04-05T10:11:18Z</time>
      </trkpt>
      <trkpt lat="48.06609" lon="-3.84642">
        <ele>188.2</ele>
        <time>2023-04-05T10:11:19Z</time>
      </trkpt>
      <trkpt lat="48.06609" lon="-3.84634">
        <ele>188.2</ele>
        <time>2023-04-05T10:11:20Z</time>
      </trkpt>
      <trkpt lat="48.06609" lon="-3.84626">
        <ele>188.2</ele>
        <time>2023-04-05T10:11:21Z</time>
      </trkpt>
      <trkpt lat="48.06609" lon="-3.84618">
        <ele>188.2</ele>
        <time>2023-04-05T10:11:22Z</time>
      </trkpt>
      <trkpt lat="48.06609" lon="-3.8461">
        <ele>188.2</ele>
        <time>2023-04-05T10:11:23Z</time>
      </trkpt>
      <trkpt lat="48.06609" lon="-3.84602">
        <ele>188.2</ele>
        <time>2023-04-05T10:11:24Z</time>
      </trkpt>
      <trkpt lat="48.06609" lon="-3.84594">
        <ele>188.3</ele>
        <time>2023-04-05T10:11:25Z</time>
      </trkpt>
      <trkpt lat="48.06609" lon="-3.84586">
        <ele>188.3</ele>
        <time>2023-04-05T10:11:26Z</time>
      </trkpt>
      <trkpt lat="48.06609" lon="-3.84578">
        <ele>188.4</ele>
        <time>2023-04-05T10:11:27Z</time>
      </trkpt>
      <trkpt lat="48.06609" lon="-3.8457">
        <ele>188.4</ele>
        <time>2023-04-05T10:11:28Z</time>
      </trkpt>
      <trkpt lat="48.06609" lon="-3.84562">
        <ele>188.4</ele>
        <time>2023-04-05T10:11:29Z</time>
      </trkpt>
      <trkpt lat="48.06609" lon="-3.84554">
        <ele>188.5</ele>
        <time>2023-04-05T10:11:30Z</time>
      </trkpt>
      <trkpt lat="48.06609" lon="-3.84546">
        <ele>188.5</ele>
        <time>2023-04-05T10:11:31Z</time>
      </trkpt>
      <trkpt lat="48.06609" lon="-3.84538">
        <ele>188.6</ele>
        <time>2023-04-05T10:11:32Z</time>
      </trkpt>
      <trkpt lat="48.06609" lon="-3.8453">
        <ele>188.7</ele>
        <time>2023-04-05T10:11:33Z</time>
      </trkpt>
      <trkpt lat="48.06609" lon="-3.84522">
        <ele>188.7</ele>
        <time>2023-04-05T10:11:34Z</time>
      </trkpt>
      <trkpt lat="48.06609" lon="-3.84514">
        <ele>188.8</ele>
        <time>2023-04-05T10:11:35Z</time>
      </trkpt>
      <trkpt lat="48.0661" lon="-3.84506">
        <ele>188.8</ele>
        <time>2023-04-05T10:11:36Z</time>
      </trkpt>
      <trkpt lat="48.0661" lon="-3.84498">
        <ele>188.9</ele>
        <time>2023-04-05T10:11:37Z</time>
      </trkpt>
      <trkpt lat="48.06611" lon="-3.8449">
        <ele>188.9</ele>
        <time>2023-04-05T10:11:38Z</time>
      </trkpt>
      <trkpt lat="48.06612" lon="-3.84482">
        <ele>189</ele>
        <time>2023-04-05T10:11:39Z</time>
      </trkpt>
      <trkpt lat="48.06612" lon="-3.84474">
        <ele>189</ele>
        <time>2023-04-05T10:11:40Z</time>
      </trkpt>
      <trkpt lat="48.06613" lon="-3.84465">
        <ele>189.1</ele>
        <time>2023-04-05T10:11:41Z</time>
      </trkpt>
      <trkpt lat="48.06613" lon="-3.84457">
        <ele>189.1</ele>
        <time>2023-04-05T10:11:42Z</time>
      </trkpt>
      <trkpt lat="48.06613" lon="-3.84449">
        <ele>189.2</ele>
        <time>2023-04-05T10:11:43Z</time>
      </trkpt>
      <trkpt lat="48.06613" lon="-3.84441">
        <ele>189.3</ele>
        <time>2023-04-05T10:11:44Z</time>
      </trkpt>
      <trkpt lat="48.06613" lon="-3.84433">
        <ele>189.4</ele>
        <time>2023-04-05T10:11:45Z</time>
      </trkpt>
      <trkpt lat="48.06613" lon="-3.84425">
        <ele>189.5</ele>
        <time>2023-04-05T10:11:46Z</time>
      </trkpt>
      <trkpt lat="48.06613" lon="-3.84417">
        <ele>189.6</ele>
        <time>2023-04-05T10:11:47Z</time>
      </trkpt>
      <trkpt lat="48.06613" lon="-3.8441">
        <ele>189.6</ele>
        <time>2023-04-05T10:11:48Z</time>
      </trkpt>
      <trkpt lat="48.06613" lon="-3.84402">
        <ele>189.7</ele>
        <time>2023-04-05T10:11:49Z</time>
      </trkpt>
      <trkpt lat="48.06613" lon="-3.84394">
        <ele>189.8</ele>
        <time>2023-04-05T10:11:50Z</time>
      </trkpt>
      <trkpt lat="48.06613" lon="-3.84386">
        <ele>189.9</ele>
        <time>2023-04-05T10:11:51Z</time>
      </trkpt>
      <trkpt lat="48.06612" lon="-3.84377">
        <ele>190</ele>
        <time>2023-04-05T10:11:52Z</time>
      </trkpt>
      <trkpt lat="48.06612" lon="-3.84369">
        <ele>190.1</ele>
        <time>2023-04-05T10:11:53Z</time>
      </trkpt>
      <trkpt lat="48.06611" lon="-3.84361">
        <ele>190.2</ele>
        <time>2023-04-05T10:11:54Z</time>
      </trkpt>
      <trkpt lat="48.06611" lon="-3.84354">
        <ele>190.3</ele>
        <time>2023-04-05T10:11:55Z</time>
      </trkpt>
      <trkpt lat="48.0661" lon="-3.84347">
        <ele>190.4</ele>
        <time>2023-04-05T10:11:56Z</time>
      </trkpt>
      <trkpt lat="48.06609" lon="-3.8434">
        <ele>190.6</ele>
        <time>2023-04-05T10:11:57Z</time>
      </trkpt>
      <trkpt lat="48.06608" lon="-3.84333">
        <ele>190.7</ele>
        <time>2023-04-05T10:11:58Z</time>
      </trkpt>
      <trkpt lat="48.06608" lon="-3.84327">
        <ele>190.8</ele>
        <time>2023-04-05T10:11:59Z</time>
      </trkpt>
      <trkpt lat="48.06607" lon="-3.8432">
        <ele>191</ele>
        <time>2023-04-05T10:12:00Z</time>
      </trkpt>
      <trkpt lat="48.06607" lon="-3.84314">
        <ele>191.1</ele>
        <time>2023-04-05T10:12:01Z</time>
      </trkpt>
      <trkpt lat="48.06607" lon="-3.84308">
        <ele>191.3</ele>
        <time>2023-04-05T10:12:02Z</time>
      </trkpt>
      <trkpt lat="48.0661" lon="-3.84304">
        <ele>191.1</ele>
        <time>2023-04-05T10:12:03Z</time>
      </trkpt>
      <trkpt lat="48.06614" lon="-3.84302">
        <ele>190.8</ele>
        <time>2023-04-05T10:12:04Z</time>
      </trkpt>
      <trkpt lat="48.06619" lon="-3.84301">
        <ele>190.3</ele>
        <time>2023-04-05T10:12:05Z</time>
      </trkpt>
      <trkpt lat="48.06625" lon="-3.84301">
        <ele>189.8</ele>
        <time>2023-04-05T10:12:06Z</time>
      </trkpt>
      <trkpt lat="48.06632" lon="-3.84304">
        <ele>189.2</ele>
        <time>2023-04-05T10:12:07Z</time>
      </trkpt>
      <trkpt lat="48.0664" lon="-3.84308">
        <ele>188.4</ele>
        <time>2023-04-05T10:12:08Z</time>
      </trkpt>
      <trkpt lat="48.06648" lon="-3.84311">
        <ele>187.5</ele>
        <time>2023-04-05T10:12:09Z</time>
      </trkpt>
      <trkpt lat="48.06656" lon="-3.84317">
        <ele>186.4</ele>
        <time>2023-04-05T10:12:10Z</time>
      </trkpt>
      <trkpt lat="48.06665" lon="-3.84326">
        <ele>185.3</ele>
        <time>2023-04-05T10:12:11Z</time>
      </trkpt>
      <trkpt lat="48.06673" lon="-3.84333">
        <ele>184.1</ele>
        <time>2023-04-05T10:12:12Z</time>
      </trkpt>
      <trkpt lat="48.06682" lon="-3.84341">
        <ele>183.2</ele>
        <time>2023-04-05T10:12:13Z</time>
      </trkpt>
      <trkpt lat="48.06692" lon="-3.84349">
        <ele>182.2</ele>
        <time>2023-04-05T10:12:14Z</time>
      </trkpt>
      <trkpt lat="48.06702" lon="-3.84356">
        <ele>181.3</ele>
        <time>2023-04-05T10:12:15Z</time>
      </trkpt>
      <trkpt lat="48.06712" lon="-3.84363">
        <ele>180.6</ele>
        <time>2023-04-05T10:12:16Z</time>
      </trkpt>
      <trkpt lat="48.06722" lon="-3.84371">
        <ele>179.9</ele>
        <time>2023-04-05T10:12:17Z</time>
      </trkpt>
      <trkpt lat="48.06731" lon="-3.84378">
        <ele>179.2</ele>
        <time>2023-04-05T10:12:18Z</time>
      </trkpt>
      <trkpt lat="48.06741" lon="-3.84386">
        <ele>178.6</ele>
        <time>2023-04-05T10:12:19Z</time>
      </trkpt>
      <trkpt lat="48.0675" lon="-3.84393">
        <ele>178.2</ele>
        <time>2023-04-05T10:12:20Z</time>
      </trkpt>
      <trkpt lat="48.0676" lon="-3.844">
        <ele>178</ele>
        <time>2023-04-05T10:12:21Z</time>
      </trkpt>
      <trkpt lat="48.0677" lon="-3.84406">
        <ele>177.9</ele>
        <time>2023-04-05T10:12:22Z</time>
      </trkpt>
      <trkpt lat="48.0678" lon="-3.84413">
        <ele>177.9</ele>
        <time>2023-04-05T10:12:23Z</time>
      </trkpt>
      <trkpt lat="48.06788" lon="-3.84419">
        <ele>177.8</ele>
        <time>2023-04-05T10:12:24Z</time>
      </trkpt>
      <trkpt lat="48.06797" lon="-3.84425">
        <ele>177.6</ele>
        <time>2023-04-05T10:12:25Z</time>
      </trkpt>
      <trkpt lat="48.06805" lon="-3.84432">
        <ele>177.4</ele>
        <time>2023-04-05T10:12:26Z</time>
      </trkpt>
      <trkpt lat="48.06813" lon="-3.84438">
        <ele>177.4</ele>
        <time>2023-04-05T10:12:27Z</time>
      </trkpt>
      <trkpt lat="48.06821" lon="-3.84442">
        <ele>177.3</ele>
        <time>2023-04-05T10:12:28Z</time>
      </trkpt>
      <trkpt lat="48.06829" lon="-3.84446">
        <ele>177.3</ele>
        <time>2023-04-05T10:12:29Z</time>
      </trkpt>
      <trkpt lat="48.06837" lon="-3.84449">
        <ele>177.2</ele>
        <time>2023-04-05T10:12:30Z</time>
      </trkpt>
      <trkpt lat="48.06845" lon="-3.84452">
        <ele>177.1</ele>
        <time>2023-04-05T10:12:31Z</time>
      </trkpt>
      <trkpt lat="48.06853" lon="-3.84456">
        <ele>177.2</ele>
        <time>2023-04-05T10:12:32Z</time>
      </trkpt>
      <trkpt lat="48.0686" lon="-3.8446">
        <ele>177.2</ele>
        <time>2023-04-05T10:12:33Z</time>
      </trkpt>
      <trkpt lat="48.06867" lon="-3.84464">
        <ele>177.2</ele>
        <time>2023-04-05T10:12:34Z</time>
      </trkpt>
      <trkpt lat="48.06873" lon="-3.84468">
        <ele>177.2</ele>
        <time>2023-04-05T10:12:35Z</time>
      </trkpt>
      <trkpt lat="48.06879" lon="-3.84472">
        <ele>177.2</ele>
        <time>2023-04-05T10:12:36Z</time>
      </trkpt>
      <trkpt lat="48.06884" lon="-3.84476">
        <ele>177.2</ele>
        <time>2023-04-05T10:12:37Z</time>
      </trkpt>
      <trkpt lat="48.0689" lon="-3.84479">
        <ele>177.1</ele>
        <time>2023-04-05T10:12:38Z</time>
      </trkpt>
      <trkpt lat="48.06896" lon="-3.84483">
        <ele>177</ele>
        <time>2023-04-05T10:12:39Z</time>
      </trkpt>
      <trkpt lat="48.06902" lon="-3.84487">
        <ele>176.7</ele>
        <time>2023-04-05T10:12:40Z</time>
      </trkpt>
      <trkpt lat="48.06908" lon="-3.8449">
        <ele>176.4</ele>
        <time>2023-04-05T10:12:41Z</time>
      </trkpt>
      <trkpt lat="48.06915" lon="-3.84494">
        <ele>176.1</ele>
        <time>2023-04-05T10:12:42Z</time>
      </trkpt>
      <trkpt lat="48.06921" lon="-3.84498">
        <ele>175.7</ele>
        <time>2023-04-05T10:12:43Z</time>
      </trkpt>
      <trkpt lat="48.06928" lon="-3.84501">
        <ele>175.3</ele>
        <time>2023-04-05T10:12:44Z</time>
      </trkpt>
      <trkpt lat="48.06936" lon="-3.84504">
        <ele>174.8</ele>
        <time>2023-04-05T10:12:45Z</time>
      </trkpt>
      <trkpt lat="48.06944" lon="-3.84505">
        <ele>174.2</ele>
        <time>2023-04-05T10:12:46Z</time>
      </trkpt>
      <trkpt lat="48.06953" lon="-3.84506">
        <ele>173.3</ele>
        <time>2023-04-05T10:12:47Z</time>
      </trkpt>
      <trkpt lat="48.06962" lon="-3.84507">
        <ele>172.4</ele>
        <time>2023-04-05T10:12:48Z</time>
      </trkpt>
      <trkpt lat="48.0697" lon="-3.84508">
        <ele>171.6</ele>
        <time>2023-04-05T10:12:49Z</time>
      </trkpt>
      <trkpt lat="48.0698" lon="-3.8451">
        <ele>170.6</ele>
        <time>2023-04-05T10:12:50Z</time>
      </trkpt>
      <trkpt lat="48.0699" lon="-3.84512">
        <ele>169.8</ele>
        <time>2023-04-05T10:12:51Z</time>
      </trkpt>
      <trkpt lat="48.07" lon="-3.84516">
        <ele>169</ele>
        <time>2023-04-05T10:12:52Z</time>
      </trkpt>
      <trkpt lat="48.07011" lon="-3.8452">
        <ele>168.1</ele>
        <time>2023-04-05T10:12:53Z</time>
      </trkpt>
      <trkpt lat="48.07022" lon="-3.84527">
        <ele>167</ele>
        <time>2023-04-05T10:12:54Z</time>
      </trkpt>
      <trkpt lat="48.07032" lon="-3.84535">
        <ele>165.8</ele>
        <time>2023-04-05T10:12:55Z</time>
      </trkpt>
      <trkpt lat="48.07043" lon="-3.84543">
        <ele>164.5</ele>
        <time>2023-04-05T10:12:56Z</time>
      </trkpt>
      <trkpt lat="48.07053" lon="-3.84553">
        <ele>163.1</ele>
        <time>2023-04-05T10:12:57Z</time>
      </trkpt>
      <trkpt lat="48.07063" lon="-3.84565">
        <ele>161.9</ele>
        <time>2023-04-05T10:12:58Z</time>
      </trkpt>
      <trkpt lat="48.07073" lon="-3.84577">
        <ele>160.5</ele>
        <time>2023-04-05T10:12:59Z</time>
      </trkpt>
      <trkpt lat="48.07083" lon="-3.8459">
        <ele>159.1</ele>
        <time>2023-04-05T10:13:00Z</time>
      </trkpt>
      <trkpt lat="48.07093" lon="-3.84604">
        <ele>157.7</ele>
        <time>2023-04-05T10:13:01Z</time>
      </trkpt>
      <trkpt lat="48.07102" lon="-3.84617">
        <ele>156.2</ele>
        <time>2023-04-05T10:13:02Z</time>
      </trkpt>
      <trkpt lat="48.07113" lon="-3.84631">
        <ele>154.7</ele>
        <time>2023-04-05T10:13:03Z</time>
      </trkpt>
      <trkpt lat="48.07123" lon="-3.84645">
        <ele>153.2</ele>
        <time>2023-04-05T10:13:04Z</time>
      </trkpt>
      <trkpt lat="48.07134" lon="-3.84659">
        <ele>151.7</ele>
        <time>2023-04-05T10:13:05Z</time>
      </trkpt>
      <trkpt lat="48.07145" lon="-3.84673">
        <ele>150.1</ele>
        <time>2023-04-05T10:13:06Z</time>
      </trkpt>
      <trkpt lat="48.07156" lon="-3.84688">
        <ele>148.4</ele>
        <time>2023-04-05T10:13:07Z</time>
      </trkpt>
      <trkpt lat="48.07167" lon="-3.84702">
        <ele>146.7</ele>
        <time>2023-04-05T10:13:08Z</time>
      </trkpt>
      <trkpt lat="48.07178" lon="-3.84717">
        <ele>145.3</ele>
        <time>2023-04-05T10:13:09Z</time>
      </trkpt>
      <trkpt lat="48.07189" lon="-3.84732">
        <ele>143.9</ele>
        <time>2023-04-05T10:13:10Z</time>
      </trkpt>
      <trkpt lat="48.072" lon="-3.84747">
        <ele>142.7</ele>
        <time>2023-04-05T10:13:11Z</time>
      </trkpt>
      <trkpt lat="48.07211" lon="-3.84761">
        <ele>141.8</ele>
        <time>2023-04-05T10:13:12Z</time>
      </trkpt>
      <trkpt lat="48.07222" lon="-3.84776">
        <ele>141</ele>
        <time>2023-04-05T10:13:13Z</time>
      </trkpt>
      <trkpt lat="48.07231" lon="-3.84791">
        <ele>140.7</ele>
        <time>2023-04-05T10:13:14Z</time>
      </trkpt>
      <trkpt lat="48.07239" lon="-3.84806">
        <ele>140.8</ele>
        <time>2023-04-05T10:13:15Z</time>
      </trkpt>
      <trkpt lat="48.07246" lon="-3.84821">
        <ele>141.2</ele>
        <time>2023-04-05T10:13:16Z</time>
      </trkpt>
      <trkpt lat="48.07251" lon="-3.84835">
        <ele>141.8</ele>
        <time>2023-04-05T10:13:17Z</time>
      </trkpt>
      <trkpt lat="48.07255" lon="-3.84849">
        <ele>142.6</ele>
        <time>2023-04-05T10:13:18Z</time>
      </trkpt>
      <trkpt lat="48.07259" lon="-3.84861">
        <ele>143.3</ele>
        <time>2023-04-05T10:13:19Z</time>
      </trkpt>
      <trkpt lat="48.07262" lon="-3.84871">
        <ele>144</ele>
        <time>2023-04-05T10:13:20Z</time>
      </trkpt>
      <trkpt lat="48.07265" lon="-3.8488">
        <ele>144.8</ele>
        <time>2023-04-05T10:13:21Z</time>
      </trkpt>
      <trkpt lat="48.07269" lon="-3.84889">
        <ele>145.7</ele>
        <time>2023-04-05T10:13:22Z</time>
      </trkpt>
      <trkpt lat="48.07271" lon="-3.84895">
        <ele>146.4</ele>
        <time>2023-04-05T10:13:23Z</time>
      </trkpt>
      <trkpt lat="48.07273" lon="-3.849">
        <ele>147</ele>
        <time>2023-04-05T10:13:24Z</time>
      </trkpt>
      <trkpt lat="48.07275" lon="-3.84904">
        <ele>147.4</ele>
        <time>2023-04-05T10:13:25Z</time>
      </trkpt>
      <trkpt lat="48.07277" lon="-3.84907">
        <ele>147.8</ele>
        <time>2023-04-05T10:13:26Z</time>
      </trkpt>
      <trkpt lat="48.07278" lon="-3.84908">
        <ele>147.9</ele>
        <time>2023-04-05T10:13:27Z</time>
      </trkpt>
      <trkpt lat="48.0728" lon="-3.84912">
        <ele>148.4</ele>
        <time>2023-04-05T10:13:28Z</time>
      </trkpt>
      <trkpt lat="48.07282" lon="-3.84916">
        <ele>148.9</ele>
        <time>2023-04-05T10:13:29Z</time>
      </trkpt>
      <trkpt lat="48.07284" lon="-3.84919">
        <ele>149.3</ele>
        <time>2023-04-05T10:13:30Z</time>
      </trkpt>
      <trkpt lat="48.07287" lon="-3.84923">
        <ele>149.9</ele>
        <time>2023-04-05T10:13:31Z</time>
      </trkpt>
      <trkpt lat="48.07289" lon="-3.84925">
        <ele>150.2</ele>
        <time>2023-04-05T10:13:32Z</time>
      </trkpt>
      <trkpt lat="48.0729" lon="-3.84928">
        <ele>150.4</ele>
        <time>2023-04-05T10:13:33Z</time>
      </trkpt>
      <trkpt lat="48.07294" lon="-3.84932">
        <ele>151</ele>
        <time>2023-04-05T10:13:35Z</time>
      </trkpt>
      <trkpt lat="48.07298" lon="-3.84936">
        <ele>151.8</ele>
        <time>2023-04-05T10:13:36Z</time>
      </trkpt>
      <trkpt lat="48.07301" lon="-3.84939">
        <ele>152.1</ele>
        <time>2023-04-05T10:13:37Z</time>
      </trkpt>
      <trkpt lat="48.07305" lon="-3.84944">
        <ele>152.8</ele>
        <time>2023-04-05T10:13:39Z</time>
      </trkpt>
      <trkpt lat="48.07308" lon="-3.84946">
        <ele>153.1</ele>
        <time>2023-04-05T10:13:41Z</time>
      </trkpt>
      <trkpt lat="48.07313" lon="-3.8495">
        <ele>153.8</ele>
        <time>2023-04-05T10:13:42Z</time>
      </trkpt>
      <trkpt lat="48.07317" lon="-3.84955">
        <ele>154.4</ele>
        <time>2023-04-05T10:13:44Z</time>
      </trkpt>
      <trkpt lat="48.0732" lon="-3.84958">
        <ele>154.8</ele>
        <time>2023-04-05T10:13:46Z</time>
      </trkpt>
      <trkpt lat="48.07322" lon="-3.8496">
        <ele>155.1</ele>
        <time>2023-04-05T10:13:47Z</time>
      </trkpt>
      <trkpt lat="48.07325" lon="-3.84963">
        <ele>155.4</ele>
        <time>2023-04-05T10:13:48Z</time>
      </trkpt>
      <trkpt lat="48.07329" lon="-3.84965">
        <ele>155.8</ele>
        <time>2023-04-05T10:13:49Z</time>
      </trkpt>
      <trkpt lat="48.0733" lon="-3.84966">
        <ele>156</ele>
        <time>2023-04-05T10:13:50Z</time>
      </trkpt>
      <trkpt lat="48.07332" lon="-3.8497">
        <ele>156.3</ele>
        <time>2023-04-05T10:13:51Z</time>
      </trkpt>
      <trkpt lat="48.07333" lon="-3.84972">
        <ele>156.5</ele>
        <time>2023-04-05T10:13:52Z</time>
      </trkpt>
      <trkpt lat="48.07337" lon="-3.84977">
        <ele>157</ele>
        <time>2023-04-05T10:13:53Z</time>
      </trkpt>
      <trkpt lat="48.07339" lon="-3.84979">
        <ele>157.2</ele>
        <time>2023-04-05T10:13:54Z</time>
      </trkpt>
      <trkpt lat="48.07341" lon="-3.84982">
        <ele>157.5</ele>
        <time>2023-04-05T10:13:55Z</time>
      </trkpt>
      <trkpt lat="48.07344" lon="-3.84987">
        <ele>157.9</ele>
        <time>2023-04-05T10:13:57Z</time>
      </trkpt>
      <trkpt lat="48.07346" lon="-3.8499">
        <ele>158.1</ele>
        <time>2023-04-05T10:13:58Z</time>
      </trkpt>
      <trkpt lat="48.07348" lon="-3.84992">
        <ele>158.4</ele>
        <time>2023-04-05T10:13:59Z</time>
      </trkpt>
      <trkpt lat="48.0735" lon="-3.84995">
        <ele>158.6</ele>
        <time>2023-04-05T10:14:01Z</time>
      </trkpt>
      <trkpt lat="48.07351" lon="-3.84999">
        <ele>158.8</ele>
        <time>2023-04-05T10:14:02Z</time>
      </trkpt>
      <trkpt lat="48.07352" lon="-3.85003">
        <ele>159</ele>
        <time>2023-04-05T10:14:03Z</time>
      </trkpt>
      <trkpt lat="48.07354" lon="-3.85007">
        <ele>159.3</ele>
        <time>2023-04-05T10:14:04Z</time>
      </trkpt>
      <trkpt lat="48.07356" lon="-3.85012">
        <ele>159.6</ele>
        <time>2023-04-05T10:14:05Z</time>
      </trkpt>
      <trkpt lat="48.07357" lon="-3.85014">
        <ele>159.7</ele>
        <time>2023-04-05T10:14:06Z</time>
      </trkpt>
      <trkpt lat="48.07359" lon="-3.85017">
        <ele>159.9</ele>
        <time>2023-04-05T10:14:07Z</time>
      </trkpt>
      <trkpt lat="48.0736" lon="-3.85022">
        <ele>160.2</ele>
        <time>2023-04-05T10:14:08Z</time>
      </trkpt>
      <trkpt lat="48.07361" lon="-3.85024">
        <ele>160.3</ele>
        <time>2023-04-05T10:14:09Z</time>
      </trkpt>
      <trkpt lat="48.07363" lon="-3.85028">
        <ele>160.4</ele>
        <time>2023-04-05T10:14:10Z</time>
      </trkpt>
      <trkpt lat="48.07364" lon="-3.85032">
        <ele>160.6</ele>
        <time>2023-04-05T10:14:11Z</time>
      </trkpt>
      <trkpt lat="48.07366" lon="-3.85035">
        <ele>160.7</ele>
        <time>2023-04-05T10:14:12Z</time>
      </trkpt>
      <trkpt lat="48.0737" lon="-3.85042">
        <ele>161</ele>
        <time>2023-04-05T10:14:13Z</time>
      </trkpt>
      <trkpt lat="48.07373" lon="-3.85048">
        <ele>161.2</ele>
        <time>2023-04-05T10:14:15Z</time>
      </trkpt>
      <trkpt lat="48.07375" lon="-3.85052">
        <ele>161.3</ele>
        <time>2023-04-05T10:14:17Z</time>
      </trkpt>
      <trkpt lat="48.07378" lon="-3.85055">
        <ele>161.4</ele>
        <time>2023-04-05T10:14:18Z</time>
      </trkpt>
      <trkpt lat="48.0738" lon="-3.85058">
        <ele>161.6</ele>
        <time>2023-04-05T10:14:19Z</time>
      </trkpt>
      <trkpt lat="48.07384" lon="-3.85065">
        <ele>161.8</ele>
        <time>2023-04-05T10:14:20Z</time>
      </trkpt>
      <trkpt lat="48.07387" lon="-3.85069">
        <ele>161.9</ele>
        <time>2023-04-05T10:14:22Z</time>
      </trkpt>
      <trkpt lat="48.07389" lon="-3.85073">
        <ele>161.9</ele>
        <time>2023-04-05T10:14:23Z</time>
      </trkpt>
      <trkpt lat="48.07393" lon="-3.85076">
        <ele>162</ele>
        <time>2023-04-05T10:14:24Z</time>
      </trkpt>
      <trkpt lat="48.07395" lon="-3.85081">
        <ele>162.2</ele>
        <time>2023-04-05T10:14:25Z</time>
      </trkpt>
      <trkpt lat="48.07399" lon="-3.85086">
        <ele>162.2</ele>
        <time>2023-04-05T10:14:27Z</time>
      </trkpt>
      <trkpt lat="48.07401" lon="-3.8509">
        <ele>162.3</ele>
        <time>2023-04-05T10:14:28Z</time>
      </trkpt>
      <trkpt lat="48.07402" lon="-3.85094">
        <ele>162.3</ele>
        <time>2023-04-05T10:14:29Z</time>
      </trkpt>
      <trkpt lat="48.07406" lon="-3.85102">
        <ele>162.4</ele>
        <time>2023-04-05T10:14:30Z</time>
      </trkpt>
      <trkpt lat="48.07409" lon="-3.85106">
        <ele>162.4</ele>
        <time>2023-04-05T10:14:31Z</time>
      </trkpt>
      <trkpt lat="48.07412" lon="-3.85111">
        <ele>162.4</ele>
        <time>2023-04-05T10:14:33Z</time>
      </trkpt>
      <trkpt lat="48.07414" lon="-3.85115">
        <ele>162.4</ele>
        <time>2023-04-05T10:14:34Z</time>
      </trkpt>
      <trkpt lat="48.07416" lon="-3.8512">
        <ele>162.4</ele>
        <time>2023-04-05T10:14:35Z</time>
      </trkpt>
      <trkpt lat="48.07418" lon="-3.85124">
        <ele>162.4</ele>
        <time>2023-04-05T10:14:36Z</time>
      </trkpt>
      <trkpt lat="48.07421" lon="-3.85129">
        <ele>162.4</ele>
        <time>2023-04-05T10:14:37Z</time>
      </trkpt>
      <trkpt lat="48.07424" lon="-3.85133">
        <ele>162.4</ele>
        <time>2023-04-05T10:14:38Z</time>
      </trkpt>
      <trkpt lat="48.07426" lon="-3.85138">
        <ele>162.4</ele>
        <time>2023-04-05T10:14:39Z</time>
      </trkpt>
      <trkpt lat="48.07428" lon="-3.85143">
        <ele>162.4</ele>
        <time>2023-04-05T10:14:40Z</time>
      </trkpt>
      <trkpt lat="48.07432" lon="-3.85153">
        <ele>162.4</ele>
        <time>2023-04-05T10:14:41Z</time>
      </trkpt>
      <trkpt lat="48.07435" lon="-3.85163">
        <ele>162.4</ele>
        <time>2023-04-05T10:14:43Z</time>
      </trkpt>
      <trkpt lat="48.07437" lon="-3.85169">
        <ele>162.3</ele>
        <time>2023-04-05T10:14:44Z</time>
      </trkpt>
      <trkpt lat="48.07441" lon="-3.8518">
        <ele>162.3</ele>
        <time>2023-04-05T10:14:46Z</time>
      </trkpt>
      <trkpt lat="48.07443" lon="-3.85186">
        <ele>162.3</ele>
        <time>2023-04-05T10:14:47Z</time>
      </trkpt>
      <trkpt lat="48.07445" lon="-3.85192">
        <ele>162.3</ele>
        <time>2023-04-05T10:14:49Z</time>
      </trkpt>
      <trkpt lat="48.07448" lon="-3.85195">
        <ele>162.3</ele>
        <time>2023-04-05T10:14:50Z</time>
      </trkpt>
      <trkpt lat="48.07452" lon="-3.85198">
        <ele>162.4</ele>
        <time>2023-04-05T10:14:51Z</time>
      </trkpt>
      <trkpt lat="48.07455" lon="-3.852">
        <ele>162.4</ele>
        <time>2023-04-05T10:14:52Z</time>
      </trkpt>
      <trkpt lat="48.07463" lon="-3.85197">
        <ele>162.7</ele>
        <time>2023-04-05T10:14:53Z</time>
      </trkpt>
      <trkpt lat="48.07468" lon="-3.85193">
        <ele>162.9</ele>
        <time>2023-04-05T10:14:55Z</time>
      </trkpt>
      <trkpt lat="48.07474" lon="-3.8519">
        <ele>163.1</ele>
        <time>2023-04-05T10:14:56Z</time>
      </trkpt>
      <trkpt lat="48.07478" lon="-3.85189">
        <ele>163.3</ele>
        <time>2023-04-05T10:14:58Z</time>
      </trkpt>
      <trkpt lat="48.07481" lon="-3.85189">
        <ele>163.4</ele>
        <time>2023-04-05T10:14:59Z</time>
      </trkpt>
      <trkpt lat="48.07484" lon="-3.85189">
        <ele>163.6</ele>
        <time>2023-04-05T10:15:00Z</time>
      </trkpt>
      <trkpt lat="48.07488" lon="-3.85187">
        <ele>163.7</ele>
        <time>2023-04-05T10:15:01Z</time>
      </trkpt>
      <trkpt lat="48.07491" lon="-3.85186">
        <ele>163.8</ele>
        <time>2023-04-05T10:15:02Z</time>
      </trkpt>
      <trkpt lat="48.07495" lon="-3.85184">
        <ele>164</ele>
        <time>2023-04-05T10:15:03Z</time>
      </trkpt>
      <trkpt lat="48.07501" lon="-3.85184">
        <ele>164.2</ele>
        <time>2023-04-05T10:15:04Z</time>
      </trkpt>
      <trkpt lat="48.07504" lon="-3.85185">
        <ele>164.4</ele>
        <time>2023-04-05T10:15:05Z</time>
      </trkpt>
      <trkpt lat="48.07508" lon="-3.85185">
        <ele>164.5</ele>
        <time>2023-04-05T10:15:07Z</time>
      </trkpt>
      <trkpt lat="48.07511" lon="-3.85185">
        <ele>164.7</ele>
        <time>2023-04-05T10:15:08Z</time>
      </trkpt>
      <trkpt lat="48.07514" lon="-3.85185">
        <ele>164.8</ele>
        <time>2023-04-05T10:15:09Z</time>
      </trkpt>
      <trkpt lat="48.07517" lon="-3.85185">
        <ele>164.9</ele>
        <time>2023-04-05T10:15:10Z</time>
      </trkpt>
      <trkpt lat="48.0752" lon="-3.85184">
        <ele>165.1</ele>
        <time>2023-04-05T10:15:11Z</time>
      </trkpt>
      <trkpt lat="48.07523" lon="-3.85184">
        <ele>165.2</ele>
        <time>2023-04-05T10:15:12Z</time>
      </trkpt>
      <trkpt lat="48.07527" lon="-3.85185">
        <ele>165.4</ele>
        <time>2023-04-05T10:15:13Z</time>
      </trkpt>
      <trkpt lat="48.0753" lon="-3.85184">
        <ele>165.5</ele>
        <time>2023-04-05T10:15:14Z</time>
      </trkpt>
      <trkpt lat="48.07532" lon="-3.85184">
        <ele>165.5</ele>
        <time>2023-04-05T10:15:15Z</time>
      </trkpt>
      <trkpt lat="48.07533" lon="-3.85184">
        <ele>165.6</ele>
        <time>2023-04-05T10:15:16Z</time>
      </trkpt>
      <trkpt lat="48.07535" lon="-3.85183">
        <ele>165.7</ele>
        <time>2023-04-05T10:15:17Z</time>
      </trkpt>
      <trkpt lat="48.07535" lon="-3.85184">
        <ele>165.7</ele>
        <time>2023-04-05T10:15:18Z</time>
      </trkpt>
      <trkpt lat="48.07536" lon="-3.85184">
        <ele>165.7</ele>
        <time>2023-04-05T10:15:19Z</time>
      </trkpt>
      <trkpt lat="48.07537" lon="-3.85184">
        <ele>165.7</ele>
        <time>2023-04-05T10:15:20Z</time>
      </trkpt>
      <trkpt lat="48.07537" lon="-3.85184">
        <ele>165.8</ele>
        <time>2023-04-05T10:15:21Z</time>
      </trkpt>
      <trkpt lat="48.07538" lon="-3.85184">
        <ele>165.8</ele>
        <time>2023-04-05T10:15:22Z</time>
      </trkpt>
      <trkpt lat="48.07539" lon="-3.85184">
        <ele>165.8</ele>
        <time>2023-04-05T10:15:23Z</time>
      </trkpt>
      <trkpt lat="48.07539" lon="-3.85185">
        <ele>165.8</ele>
        <time>2023-04-05T10:15:24Z</time>
      </trkpt>
      <trkpt lat="48.0754" lon="-3.85185">
        <ele>165.9</ele>
        <time>2023-04-05T10:15:25Z</time>
      </trkpt>
      <trkpt lat="48.07541" lon="-3.85185">
        <ele>165.9</ele>
        <time>2023-04-05T10:15:26Z</time>
      </trkpt>
      <trkpt lat="48.07541" lon="-3.85185">
        <ele>165.9</ele>
        <time>2023-04-05T10:15:27Z</time>
      </trkpt>
      <trkpt lat="48.07542" lon="-3.85185">
        <ele>165.9</ele>
        <time>2023-04-05T10:15:28Z</time>
      </trkpt>
      <trkpt lat="48.07543" lon="-3.85185">
        <ele>166</ele>
        <time>2023-04-05T10:15:55Z</time>
      </trkpt>
      <trkpt lat="48.07543" lon="-3.85185">
        <ele>166</ele>
        <time>2023-04-05T10:15:56Z</time>
      </trkpt>
      <trkpt lat="48.07544" lon="-3.85185">
        <ele>166</ele>
        <time>2023-04-05T10:15:57Z</time>
      </trkpt>
      <trkpt lat="48.07547" lon="-3.85186">
        <ele>166.1</ele>
        <time>2023-04-05T10:15:58Z</time>
      </trkpt>
      <trkpt lat="48.07551" lon="-3.85185">
        <ele>166.3</ele>
        <time>2023-04-05T10:15:59Z</time>
      </trkpt>
      <trkpt lat="48.07552" lon="-3.85184">
        <ele>166.3</ele>
        <time>2023-04-05T10:16:00Z</time>
      </trkpt>
      <trkpt lat="48.07555" lon="-3.85184">
        <ele>166.4</ele>
        <time>2023-04-05T10:16:01Z</time>
      </trkpt>
      <trkpt lat="48.07558" lon="-3.85184">
        <ele>166.6</ele>
        <time>2023-04-05T10:16:02Z</time>
      </trkpt>
      <trkpt lat="48.07562" lon="-3.85184">
        <ele>166.7</ele>
        <time>2023-04-05T10:16:03Z</time>
      </trkpt>
      <trkpt lat="48.07563" lon="-3.85184">
        <ele>166.8</ele>
        <time>2023-04-05T10:16:04Z</time>
      </trkpt>
      <trkpt lat="48.07567" lon="-3.85183">
        <ele>166.9</ele>
        <time>2023-04-05T10:16:05Z</time>
      </trkpt>
      <trkpt lat="48.07572" lon="-3.85183">
        <ele>167.2</ele>
        <time>2023-04-05T10:16:06Z</time>
      </trkpt>
      <trkpt lat="48.07578" lon="-3.85184">
        <ele>167.4</ele>
        <time>2023-04-05T10:16:08Z</time>
      </trkpt>
      <trkpt lat="48.07582" lon="-3.85184">
        <ele>167.6</ele>
        <time>2023-04-05T10:16:10Z</time>
      </trkpt>
      <trkpt lat="48.07585" lon="-3.85185">
        <ele>167.7</ele>
        <time>2023-04-05T10:16:11Z</time>
      </trkpt>
      <trkpt lat="48.07588" lon="-3.85184">
        <ele>167.8</ele>
        <time>2023-04-05T10:16:12Z</time>
      </trkpt>
      <trkpt lat="48.07591" lon="-3.85184">
        <ele>167.8</ele>
        <time>2023-04-05T10:16:13Z</time>
      </trkpt>
      <trkpt lat="48.07597" lon="-3.85184">
        <ele>167.9</ele>
        <time>2023-04-05T10:16:14Z</time>
      </trkpt>
      <trkpt lat="48.076" lon="-3.85184">
        <ele>167.9</ele>
        <time>2023-04-05T10:16:16Z</time>
      </trkpt>
      <trkpt lat="48.07606" lon="-3.85185">
        <ele>168</ele>
        <time>2023-04-05T10:16:17Z</time>
      </trkpt>
      <trkpt lat="48.0761" lon="-3.85185">
        <ele>168</ele>
        <time>2023-04-05T10:16:19Z</time>
      </trkpt>
      <trkpt lat="48.07616" lon="-3.85185">
        <ele>168.1</ele>
        <time>2023-04-05T10:16:20Z</time>
      </trkpt>
      <trkpt lat="48.07619" lon="-3.85185">
        <ele>168.2</ele>
        <time>2023-04-05T10:16:21Z</time>
      </trkpt>
      <trkpt lat="48.07622" lon="-3.85185">
        <ele>168.3</ele>
        <time>2023-04-05T10:16:23Z</time>
      </trkpt>
      <trkpt lat="48.07625" lon="-3.85185">
        <ele>168.3</ele>
        <time>2023-04-05T10:16:24Z</time>
      </trkpt>
      <trkpt lat="48.07628" lon="-3.85186">
        <ele>168.4</ele>
        <time>2023-04-05T10:16:25Z</time>
      </trkpt>
      <trkpt lat="48.07631" lon="-3.85186">
        <ele>168.5</ele>
        <time>2023-04-05T10:16:26Z</time>
      </trkpt>
      <trkpt lat="48.07634" lon="-3.85186">
        <ele>168.5</ele>
        <time>2023-04-05T10:16:27Z</time>
      </trkpt>
      <trkpt lat="48.07638" lon="-3.85186">
        <ele>168.6</ele>
        <time>2023-04-05T10:16:28Z</time>
      </trkpt>
      <trkpt lat="48.07641" lon="-3.85186">
        <ele>168.7</ele>
        <time>2023-04-05T10:16:29Z</time>
      </trkpt>
      <trkpt lat="48.07647" lon="-3.85186">
        <ele>168.8</ele>
        <time>2023-04-05T10:16:30Z</time>
      </trkpt>
      <trkpt lat="48.0765" lon="-3.85186">
        <ele>168.8</ele>
        <time>2023-04-05T10:16:31Z</time>
      </trkpt>
      <trkpt lat="48.07654" lon="-3.85186">
        <ele>168.9</ele>
        <time>2023-04-05T10:16:33Z</time>
      </trkpt>
      <trkpt lat="48.07657" lon="-3.85186">
        <ele>168.9</ele>
        <time>2023-04-05T10:16:34Z</time>
      </trkpt>
      <trkpt lat="48.07664" lon="-3.85186">
        <ele>169</ele>
        <time>2023-04-05T10:16:35Z</time>
      </trkpt>
      <trkpt lat="48.07667" lon="-3.85187">
        <ele>169.1</ele>
        <time>2023-04-05T10:16:36Z</time>
      </trkpt>
      <trkpt lat="48.07674" lon="-3.85186">
        <ele>169.1</ele>
        <time>2023-04-05T10:16:38Z</time>
      </trkpt>
      <trkpt lat="48.07677" lon="-3.85185">
        <ele>169.2</ele>
        <time>2023-04-05T10:16:40Z</time>
      </trkpt>
      <trkpt lat="48.07681" lon="-3.85185">
        <ele>169.1</ele>
        <time>2023-04-05T10:16:41Z</time>
      </trkpt>
      <trkpt lat="48.07685" lon="-3.85185">
        <ele>169.1</ele>
        <time>2023-04-05T10:16:42Z</time>
      </trkpt>
      <trkpt lat="48.07688" lon="-3.85185">
        <ele>169.1</ele>
        <time>2023-04-05T10:16:43Z</time>
      </trkpt>
      <trkpt lat="48.07692" lon="-3.85185">
        <ele>169.1</ele>
        <time>2023-04-05T10:16:44Z</time>
      </trkpt>
      <trkpt lat="48.07696" lon="-3.85185">
        <ele>169</ele>
        <time>2023-04-05T10:16:45Z</time>
      </trkpt>
      <trkpt lat="48.07701" lon="-3.85185">
        <ele>168.9</ele>
        <time>2023-04-05T10:16:46Z</time>
      </trkpt>
      <trkpt lat="48.07706" lon="-3.85185">
        <ele>168.9</ele>
        <time>2023-04-05T10:16:47Z</time>
      </trkpt>
      <trkpt lat="48.07714" lon="-3.85186">
        <ele>168.7</ele>
        <time>2023-04-05T10:16:49Z</time>
      </trkpt>
      <trkpt lat="48.07719" lon="-3.85187">
        <ele>168.7</ele>
        <time>2023-04-05T10:16:50Z</time>
      </trkpt>
      <trkpt lat="48.07723" lon="-3.85187">
        <ele>168.6</ele>
        <time>2023-04-05T10:16:51Z</time>
      </trkpt>
      <trkpt lat="48.07729" lon="-3.85189">
        <ele>168.6</ele>
        <time>2023-04-05T10:16:52Z</time>
      </trkpt>
      <trkpt lat="48.07734" lon="-3.85192">
        <ele>168.5</ele>
        <time>2023-04-05T10:16:53Z</time>
      </trkpt>
      <trkpt lat="48.07739" lon="-3.85194">
        <ele>168.4</ele>
        <time>2023-04-05T10:16:54Z</time>
      </trkpt>
      <trkpt lat="48.07744" lon="-3.85196">
        <ele>168.3</ele>
        <time>2023-04-05T10:16:55Z</time>
      </trkpt>
      <trkpt lat="48.0775" lon="-3.85198">
        <ele>168.1</ele>
        <time>2023-04-05T10:16:56Z</time>
      </trkpt>
      <trkpt lat="48.07755" lon="-3.85199">
        <ele>167.9</ele>
        <time>2023-04-05T10:16:57Z</time>
      </trkpt>
      <trkpt lat="48.0776" lon="-3.85201">
        <ele>167.8</ele>
        <time>2023-04-05T10:16:58Z</time>
      </trkpt>
      <trkpt lat="48.07766" lon="-3.85202">
        <ele>167.6</ele>
        <time>2023-04-05T10:16:59Z</time>
      </trkpt>
      <trkpt lat="48.07771" lon="-3.85203">
        <ele>167.5</ele>
        <time>2023-04-05T10:17:00Z</time>
      </trkpt>
      <trkpt lat="48.07776" lon="-3.85204">
        <ele>167.4</ele>
        <time>2023-04-05T10:17:01Z</time>
      </trkpt>
      <trkpt lat="48.07781" lon="-3.85206">
        <ele>167.3</ele>
        <time>2023-04-05T10:17:02Z</time>
      </trkpt>
      <trkpt lat="48.07786" lon="-3.85207">
        <ele>167.3</ele>
        <time>2023-04-05T10:17:03Z</time>
      </trkpt>
      <trkpt lat="48.07791" lon="-3.85208">
        <ele>167.2</ele>
        <time>2023-04-05T10:17:04Z</time>
      </trkpt>
      <trkpt lat="48.07796" lon="-3.8521">
        <ele>167.2</ele>
        <time>2023-04-05T10:17:05Z</time>
      </trkpt>
      <trkpt lat="48.07801" lon="-3.85212">
        <ele>167.2</ele>
        <time>2023-04-05T10:17:06Z</time>
      </trkpt>
      <trkpt lat="48.07805" lon="-3.85214">
        <ele>167.2</ele>
        <time>2023-04-05T10:17:07Z</time>
      </trkpt>
      <trkpt lat="48.0781" lon="-3.85217">
        <ele>167.1</ele>
        <time>2023-04-05T10:17:08Z</time>
      </trkpt>
      <trkpt lat="48.07814" lon="-3.85219">
        <ele>167.1</ele>
        <time>2023-04-05T10:17:09Z</time>
      </trkpt>
      <trkpt lat="48.07819" lon="-3.85221">
        <ele>167</ele>
        <time>2023-04-05T10:17:10Z</time>
      </trkpt>
      <trkpt lat="48.07823" lon="-3.85222">
        <ele>166.9</ele>
        <time>2023-04-05T10:17:11Z</time>
      </trkpt>
      <trkpt lat="48.07828" lon="-3.85222">
        <ele>166.8</ele>
        <time>2023-04-05T10:17:12Z</time>
      </trkpt>
      <trkpt lat="48.07833" lon="-3.85223">
        <ele>166.8</ele>
        <time>2023-04-05T10:17:13Z</time>
      </trkpt>
      <trkpt lat="48.07837" lon="-3.85224">
        <ele>166.7</ele>
        <time>2023-04-05T10:17:14Z</time>
      </trkpt>
      <trkpt lat="48.07842" lon="-3.85225">
        <ele>166.7</ele>
        <time>2023-04-05T10:17:15Z</time>
      </trkpt>
      <trkpt lat="48.07846" lon="-3.85226">
        <ele>166.6</ele>
        <time>2023-04-05T10:17:16Z</time>
      </trkpt>
      <trkpt lat="48.07851" lon="-3.85227">
        <ele>166.6</ele>
        <time>2023-04-05T10:17:17Z</time>
      </trkpt>
      <trkpt lat="48.07856" lon="-3.85229">
        <ele>166.5</ele>
        <time>2023-04-05T10:17:18Z</time>
      </trkpt>
      <trkpt lat="48.07861" lon="-3.85231">
        <ele>166.5</ele>
        <time>2023-04-05T10:17:19Z</time>
      </trkpt>
      <trkpt lat="48.07865" lon="-3.85232">
        <ele>166.4</ele>
        <time>2023-04-05T10:17:20Z</time>
      </trkpt>
      <trkpt lat="48.0787" lon="-3.85235">
        <ele>166.4</ele>
        <time>2023-04-05T10:17:21Z</time>
      </trkpt>
      <trkpt lat="48.07874" lon="-3.85237">
        <ele>166.3</ele>
        <time>2023-04-05T10:17:22Z</time>
      </trkpt>
      <trkpt lat="48.07879" lon="-3.85239">
        <ele>166.3</ele>
        <time>2023-04-05T10:17:23Z</time>
      </trkpt>
      <trkpt lat="48.07883" lon="-3.85242">
        <ele>166.3</ele>
        <time>2023-04-05T10:17:24Z</time>
      </trkpt>
      <trkpt lat="48.07888" lon="-3.85244">
        <ele>166.2</ele>
        <time>2023-04-05T10:17:25Z</time>
      </trkpt>
      <trkpt lat="48.07892" lon="-3.85247">
        <ele>166.2</ele>
        <time>2023-04-05T10:17:26Z</time>
      </trkpt>
      <trkpt lat="48.07897" lon="-3.8525">
        <ele>166.1</ele>
        <time>2023-04-05T10:17:27Z</time>
      </trkpt>
      <trkpt lat="48.07902" lon="-3.85253">
        <ele>166.1</ele>
        <time>2023-04-05T10:17:28Z</time>
      </trkpt>
      <trkpt lat="48.07907" lon="-3.85255">
        <ele>166</ele>
        <time>2023-04-05T10:17:29Z</time>
      </trkpt>
      <trkpt lat="48.07912" lon="-3.85258">
        <ele>165.9</ele>
        <time>2023-04-05T10:17:30Z</time>
      </trkpt>
      <trkpt lat="48.07917" lon="-3.8526">
        <ele>165.9</ele>
        <time>2023-04-05T10:17:31Z</time>
      </trkpt>
      <trkpt lat="48.07922" lon="-3.85263">
        <ele>165.8</ele>
        <time>2023-04-05T10:17:32Z</time>
      </trkpt>
      <trkpt lat="48.07927" lon="-3.85266">
        <ele>165.7</ele>
        <time>2023-04-05T10:17:33Z</time>
      </trkpt>
      <trkpt lat="48.07932" lon="-3.85269">
        <ele>165.7</ele>
        <time>2023-04-05T10:17:34Z</time>
      </trkpt>
      <trkpt lat="48.07937" lon="-3.85271">
        <ele>165.6</ele>
        <time>2023-04-05T10:17:35Z</time>
      </trkpt>
      <trkpt lat="48.07942" lon="-3.85274">
        <ele>165.5</ele>
        <time>2023-04-05T10:17:36Z</time>
      </trkpt>
      <trkpt lat="48.07947" lon="-3.85276">
        <ele>165.4</ele>
        <time>2023-04-05T10:17:37Z</time>
      </trkpt>
      <trkpt lat="48.07952" lon="-3.85279">
        <ele>165.3</ele>
        <time>2023-04-05T10:17:38Z</time>
      </trkpt>
      <trkpt lat="48.07957" lon="-3.85283">
        <ele>165.2</ele>
        <time>2023-04-05T10:17:39Z</time>
      </trkpt>
      <trkpt lat="48.07961" lon="-3.85286">
        <ele>165.1</ele>
        <time>2023-04-05T10:17:40Z</time>
      </trkpt>
      <trkpt lat="48.07966" lon="-3.85288">
        <ele>165</ele>
        <time>2023-04-05T10:17:41Z</time>
      </trkpt>
      <trkpt lat="48.07971" lon="-3.85291">
        <ele>164.8</ele>
        <time>2023-04-05T10:17:42Z</time>
      </trkpt>
      <trkpt lat="48.07975" lon="-3.85293">
        <ele>164.6</ele>
        <time>2023-04-05T10:17:43Z</time>
      </trkpt>
      <trkpt lat="48.07981" lon="-3.85296">
        <ele>164.4</ele>
        <time>2023-04-05T10:17:44Z</time>
      </trkpt>
      <trkpt lat="48.07986" lon="-3.85298">
        <ele>164.2</ele>
        <time>2023-04-05T10:17:45Z</time>
      </trkpt>
      <trkpt lat="48.0799" lon="-3.853">
        <ele>164</ele>
        <time>2023-04-05T10:17:46Z</time>
      </trkpt>
      <trkpt lat="48.07995" lon="-3.85302">
        <ele>163.8</ele>
        <time>2023-04-05T10:17:47Z</time>
      </trkpt>
      <trkpt lat="48.08" lon="-3.85304">
        <ele>163.5</ele>
        <time>2023-04-05T10:17:48Z</time>
      </trkpt>
      <trkpt lat="48.08004" lon="-3.85305">
        <ele>163.3</ele>
        <time>2023-04-05T10:17:49Z</time>
      </trkpt>
      <trkpt lat="48.08007" lon="-3.85306">
        <ele>163.1</ele>
        <time>2023-04-05T10:17:50Z</time>
      </trkpt>
      <trkpt lat="48.0801" lon="-3.85311">
        <ele>162.9</ele>
        <time>2023-04-05T10:17:51Z</time>
      </trkpt>
      <trkpt lat="48.08011" lon="-3.85314">
        <ele>162.8</ele>
        <time>2023-04-05T10:17:52Z</time>
      </trkpt>
      <trkpt lat="48.08012" lon="-3.85322">
        <ele>162.5</ele>
        <time>2023-04-05T10:17:53Z</time>
      </trkpt>
      <trkpt lat="48.08011" lon="-3.85326">
        <ele>162.3</ele>
        <time>2023-04-05T10:17:54Z</time>
      </trkpt>
      <trkpt lat="48.08011" lon="-3.85332">
        <ele>162.1</ele>
        <time>2023-04-05T10:17:55Z</time>
      </trkpt>
      <trkpt lat="48.08009" lon="-3.85342">
        <ele>161.8</ele>
        <time>2023-04-05T10:17:56Z</time>
      </trkpt>
      <trkpt lat="48.08009" lon="-3.85348">
        <ele>161.6</ele>
        <time>2023-04-05T10:17:57Z</time>
      </trkpt>
      <trkpt lat="48.08008" lon="-3.85355">
        <ele>161.4</ele>
        <time>2023-04-05T10:17:58Z</time>
      </trkpt>
      <trkpt lat="48.08008" lon="-3.85362">
        <ele>161.2</ele>
        <time>2023-04-05T10:17:59Z</time>
      </trkpt>
      <trkpt lat="48.08007" lon="-3.85368">
        <ele>160.9</ele>
        <time>2023-04-05T10:18:00Z</time>
      </trkpt>
      <trkpt lat="48.08006" lon="-3.85376">
        <ele>160.7</ele>
        <time>2023-04-05T10:18:01Z</time>
      </trkpt>
      <trkpt lat="48.08006" lon="-3.85384">
        <ele>160.3</ele>
        <time>2023-04-05T10:18:02Z</time>
      </trkpt>
      <trkpt lat="48.08006" lon="-3.85391">
        <ele>160</ele>
        <time>2023-04-05T10:18:03Z</time>
      </trkpt>
      <trkpt lat="48.08008" lon="-3.85397">
        <ele>159.7</ele>
        <time>2023-04-05T10:18:04Z</time>
      </trkpt>
      <trkpt lat="48.08011" lon="-3.85402">
        <ele>159.3</ele>
        <time>2023-04-05T10:18:05Z</time>
      </trkpt>
      <trkpt lat="48.08015" lon="-3.85405">
        <ele>158.9</ele>
        <time>2023-04-05T10:18:06Z</time>
      </trkpt>
      <trkpt lat="48.0802" lon="-3.85409">
        <ele>158.5</ele>
        <time>2023-04-05T10:18:07Z</time>
      </trkpt>
      <trkpt lat="48.08025" lon="-3.85414">
        <ele>157.8</ele>
        <time>2023-04-05T10:18:08Z</time>
      </trkpt>
      <trkpt lat="48.0803" lon="-3.85419">
        <ele>157.2</ele>
        <time>2023-04-05T10:18:09Z</time>
      </trkpt>
      <trkpt lat="48.08035" lon="-3.85422">
        <ele>156.6</ele>
        <time>2023-04-05T10:18:10Z</time>
      </trkpt>
      <trkpt lat="48.08039" lon="-3.85425">
        <ele>155.9</ele>
        <time>2023-04-05T10:18:11Z</time>
      </trkpt>
      <trkpt lat="48.08044" lon="-3.85429">
        <ele>155.1</ele>
        <time>2023-04-05T10:18:12Z</time>
      </trkpt>
      <trkpt lat="48.08049" lon="-3.85432">
        <ele>154.2</ele>
        <time>2023-04-05T10:18:13Z</time>
      </trkpt>
      <trkpt lat="48.08054" lon="-3.85435">
        <ele>153.1</ele>
        <time>2023-04-05T10:18:14Z</time>
      </trkpt>
      <trkpt lat="48.08058" lon="-3.85437">
        <ele>152.3</ele>
        <time>2023-04-05T10:18:15Z</time>
      </trkpt>
      <trkpt lat="48.08063" lon="-3.8544">
        <ele>151.2</ele>
        <time>2023-04-05T10:18:16Z</time>
      </trkpt>
      <trkpt lat="48.08065" lon="-3.85443">
        <ele>150.6</ele>
        <time>2023-04-05T10:18:17Z</time>
      </trkpt>
      <trkpt lat="48.08069" lon="-3.85446">
        <ele>149.7</ele>
        <time>2023-04-05T10:18:18Z</time>
      </trkpt>
      <trkpt lat="48.08073" lon="-3.85448">
        <ele>148.7</ele>
        <time>2023-04-05T10:18:19Z</time>
      </trkpt>
      <trkpt lat="48.08077" lon="-3.8545">
        <ele>147.8</ele>
        <time>2023-04-05T10:18:20Z</time>
      </trkpt>
      <trkpt lat="48.0808" lon="-3.85453">
        <ele>147</ele>
        <time>2023-04-05T10:18:21Z</time>
      </trkpt>
      <trkpt lat="48.08082" lon="-3.85453">
        <ele>146.5</ele>
        <time>2023-04-05T10:18:22Z</time>
      </trkpt>
      <trkpt lat="48.08089" lon="-3.85459">
        <ele>145.1</ele>
        <time>2023-04-05T10:18:24Z</time>
      </trkpt>
      <trkpt lat="48.08094" lon="-3.85465">
        <ele>144.2</ele>
        <time>2023-04-05T10:18:25Z</time>
      </trkpt>
      <trkpt lat="48.08099" lon="-3.85471">
        <ele>143.4</ele>
        <time>2023-04-05T10:18:26Z</time>
      </trkpt>
      <trkpt lat="48.08103" lon="-3.85476">
        <ele>142.7</ele>
        <time>2023-04-05T10:18:27Z</time>
      </trkpt>
      <trkpt lat="48.08108" lon="-3.8548">
        <ele>142.2</ele>
        <time>2023-04-05T10:18:28Z</time>
      </trkpt>
      <trkpt lat="48.08112" lon="-3.85483">
        <ele>141.7</ele>
        <time>2023-04-05T10:18:29Z</time>
      </trkpt>
      <trkpt lat="48.08116" lon="-3.85485">
        <ele>141.3</ele>
        <time>2023-04-05T10:18:30Z</time>
      </trkpt>
      <trkpt lat="48.0812" lon="-3.85487">
        <ele>140.9</ele>
        <time>2023-04-05T10:18:31Z</time>
      </trkpt>
      <trkpt lat="48.08126" lon="-3.85489">
        <ele>140.3</ele>
        <time>2023-04-05T10:18:32Z</time>
      </trkpt>
      <trkpt lat="48.08133" lon="-3.85483">
        <ele>139.5</ele>
        <time>2023-04-05T10:18:34Z</time>
      </trkpt>
      <trkpt lat="48.08139" lon="-3.85481">
        <ele>138.9</ele>
        <time>2023-04-05T10:18:35Z</time>
      </trkpt>
      <trkpt lat="48.08144" lon="-3.85479">
        <ele>138.4</ele>
        <time>2023-04-05T10:18:36Z</time>
      </trkpt>
      <trkpt lat="48.0815" lon="-3.85479">
        <ele>137.9</ele>
        <time>2023-04-05T10:18:37Z</time>
      </trkpt>
      <trkpt lat="48.08156" lon="-3.85479">
        <ele>137.3</ele>
        <time>2023-04-05T10:18:38Z</time>
      </trkpt>
      <trkpt lat="48.08161" lon="-3.85481">
        <ele>136.8</ele>
        <time>2023-04-05T10:18:39Z</time>
      </trkpt>
      <trkpt lat="48.08168" lon="-3.85484">
        <ele>136.2</ele>
        <time>2023-04-05T10:18:40Z</time>
      </trkpt>
      <trkpt lat="48.08174" lon="-3.85487">
        <ele>135.6</ele>
        <time>2023-04-05T10:18:41Z</time>
      </trkpt>
      <trkpt lat="48.0818" lon="-3.85491">
        <ele>135.1</ele>
        <time>2023-04-05T10:18:42Z</time>
      </trkpt>
      <trkpt lat="48.08184" lon="-3.85493">
        <ele>134.7</ele>
        <time>2023-04-05T10:18:43Z</time>
      </trkpt>
      <trkpt lat="48.08188" lon="-3.85497">
        <ele>134.3</ele>
        <time>2023-04-05T10:18:44Z</time>
      </trkpt>
      <trkpt lat="48.08189" lon="-3.85501">
        <ele>134</ele>
        <time>2023-04-05T10:18:45Z</time>
      </trkpt>
      <trkpt lat="48.08188" lon="-3.85505">
        <ele>133.7</ele>
        <time>2023-04-05T10:18:46Z</time>
      </trkpt>
      <trkpt lat="48.08186" lon="-3.85509">
        <ele>133.5</ele>
        <time>2023-04-05T10:18:47Z</time>
      </trkpt>
      <trkpt lat="48.08183" lon="-3.85513">
        <ele>133</ele>
        <time>2023-04-05T10:18:48Z</time>
      </trkpt>
      <trkpt lat="48.0818" lon="-3.85515">
        <ele>132.9</ele>
        <time>2023-04-05T10:18:49Z</time>
      </trkpt>
      <trkpt lat="48.08178" lon="-3.85517">
        <ele>132.8</ele>
        <time>2023-04-05T10:18:50Z</time>
      </trkpt>
      <trkpt lat="48.08173" lon="-3.85521">
        <ele>132.6</ele>
        <time>2023-04-05T10:18:51Z</time>
      </trkpt>
      <trkpt lat="48.08169" lon="-3.8552">
        <ele>132.5</ele>
        <time>2023-04-05T10:18:52Z</time>
      </trkpt>
      <trkpt lat="48.08157" lon="-3.85525">
        <ele>132</ele>
        <time>2023-04-05T10:18:54Z</time>
      </trkpt>
      <trkpt lat="48.08153" lon="-3.85527">
        <ele>131.8</ele>
        <time>2023-04-05T10:18:55Z</time>
      </trkpt>
      <trkpt lat="48.0815" lon="-3.85531">
        <ele>131.7</ele>
        <time>2023-04-05T10:18:56Z</time>
      </trkpt>
      <trkpt lat="48.08147" lon="-3.85531">
        <ele>131.5</ele>
        <time>2023-04-05T10:18:58Z</time>
      </trkpt>
      <trkpt lat="48.08147" lon="-3.85531">
        <ele>131.5</ele>
        <time>2023-04-05T10:19:00Z</time>
      </trkpt>
      <trkpt lat="48.08147" lon="-3.8553">
        <ele>131.5</ele>
        <time>2023-04-05T10:19:01Z</time>
      </trkpt>
      <trkpt lat="48.08148" lon="-3.85529">
        <ele>131.4</ele>
        <time>2023-04-05T10:19:02Z</time>
      </trkpt>
      <trkpt lat="48.08149" lon="-3.85528">
        <ele>131.4</ele>
        <time>2023-04-05T10:19:03Z</time>
      </trkpt>
      <trkpt lat="48.08152" lon="-3.85528">
        <ele>131.2</ele>
        <time>2023-04-05T10:19:04Z</time>
      </trkpt>
      <trkpt lat="48.08154" lon="-3.8553">
        <ele>131.1</ele>
        <time>2023-04-05T10:19:05Z</time>
      </trkpt>
      <trkpt lat="48.08155" lon="-3.85532">
        <ele>131.1</ele>
        <time>2023-04-05T10:19:06Z</time>
      </trkpt>
      <trkpt lat="48.08156" lon="-3.85535">
        <ele>130.9</ele>
        <time>2023-04-05T10:19:07Z</time>
      </trkpt>
      <trkpt lat="48.08156" lon="-3.8554">
        <ele>130.8</ele>
        <time>2023-04-05T10:19:08Z</time>
      </trkpt>
      <trkpt lat="48.08156" lon="-3.85541">
        <ele>130.8</ele>
        <time>2023-04-05T10:19:09Z</time>
      </trkpt>
      <trkpt lat="48.08156" lon="-3.85548">
        <ele>130.6</ele>
        <time>2023-04-05T10:19:10Z</time>
      </trkpt>
      <trkpt lat="48.08156" lon="-3.85552">
        <ele>130.4</ele>
        <time>2023-04-05T10:19:11Z</time>
      </trkpt>
      <trkpt lat="48.08156" lon="-3.85556">
        <ele>130.3</ele>
        <time>2023-04-05T10:19:13Z</time>
      </trkpt>
      <trkpt lat="48.08157" lon="-3.85558">
        <ele>130.2</ele>
        <time>2023-04-05T10:19:14Z</time>
      </trkpt>
      <trkpt lat="48.08158" lon="-3.8556">
        <ele>130.2</ele>
        <time>2023-04-05T10:19:15Z</time>
      </trkpt>
      <trkpt lat="48.08159" lon="-3.85559">
        <ele>130.1</ele>
        <time>2023-04-05T10:19:16Z</time>
      </trkpt>
      <trkpt lat="48.0816" lon="-3.85559">
        <ele>130.1</ele>
        <time>2023-04-05T10:19:17Z</time>
      </trkpt>
      <trkpt lat="48.08163" lon="-3.85561">
        <ele>129.9</ele>
        <time>2023-04-05T10:19:18Z</time>
      </trkpt>
      <trkpt lat="48.08165" lon="-3.85564">
        <ele>129.7</ele>
        <time>2023-04-05T10:19:20Z</time>
      </trkpt>
      <trkpt lat="48.08166" lon="-3.85566">
        <ele>129.6</ele>
        <time>2023-04-05T10:19:21Z</time>
      </trkpt>
      <trkpt lat="48.08166" lon="-3.85568">
        <ele>129.5</ele>
        <time>2023-04-05T10:19:22Z</time>
      </trkpt>
      <trkpt lat="48.08167" lon="-3.85573">
        <ele>129.3</ele>
        <time>2023-04-05T10:19:23Z</time>
      </trkpt>
      <trkpt lat="48.08168" lon="-3.85574">
        <ele>129.2</ele>
        <time>2023-04-05T10:19:24Z</time>
      </trkpt>
      <trkpt lat="48.0817" lon="-3.85579">
        <ele>128.9</ele>
        <time>2023-04-05T10:19:25Z</time>
      </trkpt>
      <trkpt lat="48.0817" lon="-3.85581">
        <ele>128.7</ele>
        <time>2023-04-05T10:19:26Z</time>
      </trkpt>
      <trkpt lat="48.08171" lon="-3.85585">
        <ele>128.5</ele>
        <time>2023-04-05T10:19:28Z</time>
      </trkpt>
      <trkpt lat="48.08172" lon="-3.85586">
        <ele>128.3</ele>
        <time>2023-04-05T10:19:29Z</time>
      </trkpt>
      <trkpt lat="48.08173" lon="-3.85587">
        <ele>128.2</ele>
        <time>2023-04-05T10:19:30Z</time>
      </trkpt>
      <trkpt lat="48.08175" lon="-3.85591">
        <ele>127.9</ele>
        <time>2023-04-05T10:19:31Z</time>
      </trkpt>
      <trkpt lat="48.08177" lon="-3.85595">
        <ele>127.6</ele>
        <time>2023-04-05T10:19:32Z</time>
      </trkpt>
      <trkpt lat="48.08177" lon="-3.85597">
        <ele>127.5</ele>
        <time>2023-04-05T10:19:33Z</time>
      </trkpt>
      <trkpt lat="48.08178" lon="-3.85598">
        <ele>127.3</ele>
        <time>2023-04-05T10:19:34Z</time>
      </trkpt>
      <trkpt lat="48.08179" lon="-3.85601">
        <ele>127.1</ele>
        <time>2023-04-05T10:19:35Z</time>
      </trkpt>
      <trkpt lat="48.08181" lon="-3.85604">
        <ele>126.9</ele>
        <time>2023-04-05T10:19:36Z</time>
      </trkpt>
      <trkpt lat="48.08182" lon="-3.85606">
        <ele>126.8</ele>
        <time>2023-04-05T10:19:37Z</time>
      </trkpt>
      <trkpt lat="48.08183" lon="-3.85607">
        <ele>126.7</ele>
        <time>2023-04-05T10:19:38Z</time>
      </trkpt>
      <trkpt lat="48.08184" lon="-3.85609">
        <ele>126.6</ele>
        <time>2023-04-05T10:19:39Z</time>
      </trkpt>
      <trkpt lat="48.08186" lon="-3.85613">
        <ele>126.3</ele>
        <time>2023-04-05T10:19:40Z</time>
      </trkpt>
      <trkpt lat="48.08187" lon="-3.85616">
        <ele>126.2</ele>
        <time>2023-04-05T10:19:41Z</time>
      </trkpt>
      <trkpt lat="48.08188" lon="-3.85617">
        <ele>126.1</ele>
        <time>2023-04-05T10:19:42Z</time>
      </trkpt>
      <trkpt lat="48.08192" lon="-3.85621">
        <ele>125.8</ele>
        <time>2023-04-05T10:19:44Z</time>
      </trkpt>
      <trkpt lat="48.08193" lon="-3.85624">
        <ele>125.6</ele>
        <time>2023-04-05T10:19:45Z</time>
      </trkpt>
      <trkpt lat="48.08196" lon="-3.85627">
        <ele>125.4</ele>
        <time>2023-04-05T10:19:47Z</time>
      </trkpt>
      <trkpt lat="48.08197" lon="-3.85628">
        <ele>125.3</ele>
        <time>2023-04-05T10:19:48Z</time>
      </trkpt>
      <trkpt lat="48.08198" lon="-3.85629">
        <ele>125.2</ele>
        <time>2023-04-05T10:19:49Z</time>
      </trkpt>
      <trkpt lat="48.08199" lon="-3.85633">
        <ele>125</ele>
        <time>2023-04-05T10:19:50Z</time>
      </trkpt>
      <trkpt lat="48.082" lon="-3.85634">
        <ele>125</ele>
        <time>2023-04-05T10:19:51Z</time>
      </trkpt>
      <trkpt lat="48.08203" lon="-3.85637">
        <ele>124.8</ele>
        <time>2023-04-05T10:19:52Z</time>
      </trkpt>
      <trkpt lat="48.08203" lon="-3.85638">
        <ele>124.7</ele>
        <time>2023-04-05T10:19:53Z</time>
      </trkpt>
      <trkpt lat="48.08204" lon="-3.85643">
        <ele>124.5</ele>
        <time>2023-04-05T10:19:54Z</time>
      </trkpt>
      <trkpt lat="48.08204" lon="-3.85647">
        <ele>124.3</ele>
        <time>2023-04-05T10:19:55Z</time>
      </trkpt>
      <trkpt lat="48.08206" lon="-3.85651">
        <ele>124</ele>
        <time>2023-04-05T10:19:56Z</time>
      </trkpt>
      <trkpt lat="48.08206" lon="-3.85652">
        <ele>124</ele>
        <time>2023-04-05T10:19:57Z</time>
      </trkpt>
      <trkpt lat="48.08207" lon="-3.85655">
        <ele>123.8</ele>
        <time>2023-04-05T10:19:58Z</time>
      </trkpt>
      <trkpt lat="48.08207" lon="-3.85656">
        <ele>123.7</ele>
        <time>2023-04-05T10:19:59Z</time>
      </trkpt>
      <trkpt lat="48.08207" lon="-3.85658">
        <ele>123.7</ele>
        <time>2023-04-05T10:20:00Z</time>
      </trkpt>
      <trkpt lat="48.08208" lon="-3.85661">
        <ele>123.5</ele>
        <time>2023-04-05T10:20:01Z</time>
      </trkpt>
      <trkpt lat="48.08208" lon="-3.85662">
        <ele>123.5</ele>
        <time>2023-04-05T10:20:02Z</time>
      </trkpt>
      <trkpt lat="48.08208" lon="-3.85663">
        <ele>123.4</ele>
        <time>2023-04-05T10:20:03Z</time>
      </trkpt>
      <trkpt lat="48.08209" lon="-3.85665">
        <ele>123.3</ele>
        <time>2023-04-05T10:20:04Z</time>
      </trkpt>
      <trkpt lat="48.0821" lon="-3.85667">
        <ele>123.2</ele>
        <time>2023-04-05T10:20:05Z</time>
      </trkpt>
      <trkpt lat="48.08211" lon="-3.85669">
        <ele>123</ele>
        <time>2023-04-05T10:20:06Z</time>
      </trkpt>
      <trkpt lat="48.08212" lon="-3.8567">
        <ele>123</ele>
        <time>2023-04-05T10:20:07Z</time>
      </trkpt>
      <trkpt lat="48.08212" lon="-3.85671">
        <ele>122.9</ele>
        <time>2023-04-05T10:20:08Z</time>
      </trkpt>
      <trkpt lat="48.08214" lon="-3.85676">
        <ele>122.7</ele>
        <time>2023-04-05T10:20:09Z</time>
      </trkpt>
      <trkpt lat="48.08214" lon="-3.85678">
        <ele>122.5</ele>
        <time>2023-04-05T10:20:10Z</time>
      </trkpt>
      <trkpt lat="48.08215" lon="-3.85681">
        <ele>122.4</ele>
        <time>2023-04-05T10:20:11Z</time>
      </trkpt>
      <trkpt lat="48.08217" lon="-3.85682">
        <ele>122.3</ele>
        <time>2023-04-05T10:20:12Z</time>
      </trkpt>
      <trkpt lat="48.08217" lon="-3.85684">
        <ele>122.2</ele>
        <time>2023-04-05T10:20:13Z</time>
      </trkpt>
      <trkpt lat="48.08218" lon="-3.85687">
        <ele>122.1</ele>
        <time>2023-04-05T10:20:14Z</time>
      </trkpt>
      <trkpt lat="48.0822" lon="-3.85691">
        <ele>121.9</ele>
        <time>2023-04-05T10:20:15Z</time>
      </trkpt>
      <trkpt lat="48.0822" lon="-3.85692">
        <ele>121.8</ele>
        <time>2023-04-05T10:20:16Z</time>
      </trkpt>
      <trkpt lat="48.08221" lon="-3.85695">
        <ele>121.6</ele>
        <time>2023-04-05T10:20:17Z</time>
      </trkpt>
      <trkpt lat="48.08222" lon="-3.85696">
        <ele>121.6</ele>
        <time>2023-04-05T10:20:18Z</time>
      </trkpt>
      <trkpt lat="48.08223" lon="-3.85699">
        <ele>121.4</ele>
        <time>2023-04-05T10:20:19Z</time>
      </trkpt>
      <trkpt lat="48.08223" lon="-3.857">
        <ele>121.3</ele>
        <time>2023-04-05T10:20:20Z</time>
      </trkpt>
      <trkpt lat="48.08224" lon="-3.85702">
        <ele>121.2</ele>
        <time>2023-04-05T10:20:22Z</time>
      </trkpt>
      <trkpt lat="48.08225" lon="-3.85703">
        <ele>121.2</ele>
        <time>2023-04-05T10:20:23Z</time>
      </trkpt>
      <trkpt lat="48.08225" lon="-3.85704">
        <ele>121.1</ele>
        <time>2023-04-05T10:20:25Z</time>
      </trkpt>
      <trkpt lat="48.08226" lon="-3.85706">
        <ele>121</ele>
        <time>2023-04-05T10:20:27Z</time>
      </trkpt>
      <trkpt lat="48.08226" lon="-3.85707">
        <ele>120.9</ele>
        <time>2023-04-05T10:20:28Z</time>
      </trkpt>
      <trkpt lat="48.08227" lon="-3.85708">
        <ele>120.8</ele>
        <time>2023-04-05T10:20:29Z</time>
      </trkpt>
      <trkpt lat="48.08228" lon="-3.8571">
        <ele>120.8</ele>
        <time>2023-04-05T10:20:30Z</time>
      </trkpt>
      <trkpt lat="48.08228" lon="-3.85711">
        <ele>120.7</ele>
        <time>2023-04-05T10:20:31Z</time>
      </trkpt>
      <trkpt lat="48.08229" lon="-3.85712">
        <ele>120.6</ele>
        <time>2023-04-05T10:20:32Z</time>
      </trkpt>
      <trkpt lat="48.08229" lon="-3.85714">
        <ele>120.5</ele>
        <time>2023-04-05T10:21:04Z</time>
      </trkpt>
      <trkpt lat="48.0823" lon="-3.85715">
        <ele>120.4</ele>
        <time>2023-04-05T10:21:05Z</time>
      </trkpt>
      <trkpt lat="48.08231" lon="-3.85717">
        <ele>120.3</ele>
        <time>2023-04-05T10:21:06Z</time>
      </trkpt>
      <trkpt lat="48.08232" lon="-3.8572">
        <ele>120.1</ele>
        <time>2023-04-05T10:21:07Z</time>
      </trkpt>
      <trkpt lat="48.08232" lon="-3.85722">
        <ele>120.1</ele>
        <time>2023-04-05T10:21:08Z</time>
      </trkpt>
      <trkpt lat="48.08233" lon="-3.85724">
        <ele>119.9</ele>
        <time>2023-04-05T10:21:09Z</time>
      </trkpt>
      <trkpt lat="48.08234" lon="-3.85726">
        <ele>119.8</ele>
        <time>2023-04-05T10:21:10Z</time>
      </trkpt>
      <trkpt lat="48.08235" lon="-3.85732">
        <ele>119.5</ele>
        <time>2023-04-05T10:21:11Z</time>
      </trkpt>
      <trkpt lat="48.08235" lon="-3.85734">
        <ele>119.4</ele>
        <time>2023-04-05T10:21:12Z</time>
      </trkpt>
      <trkpt lat="48.08236" lon="-3.85739">
        <ele>119.1</ele>
        <time>2023-04-05T10:21:13Z</time>
      </trkpt>
      <trkpt lat="48.08236" lon="-3.85741">
        <ele>119</ele>
        <time>2023-04-05T10:21:14Z</time>
      </trkpt>
      <trkpt lat="48.08236" lon="-3.85743">
        <ele>118.9</ele>
        <time>2023-04-05T10:21:15Z</time>
      </trkpt>
      <trkpt lat="48.08237" lon="-3.85746">
        <ele>118.8</ele>
        <time>2023-04-05T10:21:16Z</time>
      </trkpt>
      <trkpt lat="48.08238" lon="-3.8575">
        <ele>118.6</ele>
        <time>2023-04-05T10:21:17Z</time>
      </trkpt>
      <trkpt lat="48.08238" lon="-3.85751">
        <ele>118.6</ele>
        <time>2023-04-05T10:21:18Z</time>
      </trkpt>
      <trkpt lat="48.0824" lon="-3.85757">
        <ele>118.3</ele>
        <time>2023-04-05T10:21:20Z</time>
      </trkpt>
      <trkpt lat="48.08241" lon="-3.85758">
        <ele>118.2</ele>
        <time>2023-04-05T10:21:21Z</time>
      </trkpt>
      <trkpt lat="48.08242" lon="-3.8576">
        <ele>118.2</ele>
        <time>2023-04-05T10:21:22Z</time>
      </trkpt>
      <trkpt lat="48.08243" lon="-3.85766">
        <ele>117.9</ele>
        <time>2023-04-05T10:21:23Z</time>
      </trkpt>
      <trkpt lat="48.08243" lon="-3.85767">
        <ele>117.9</ele>
        <time>2023-04-05T10:21:24Z</time>
      </trkpt>
      <trkpt lat="48.08243" lon="-3.85774">
        <ele>117.6</ele>
        <time>2023-04-05T10:21:25Z</time>
      </trkpt>
      <trkpt lat="48.08243" lon="-3.85777">
        <ele>117.5</ele>
        <time>2023-04-05T10:21:27Z</time>
      </trkpt>
      <trkpt lat="48.08244" lon="-3.85778">
        <ele>117.4</ele>
        <time>2023-04-05T10:21:28Z</time>
      </trkpt>
      <trkpt lat="48.08244" lon="-3.85783">
        <ele>117.3</ele>
        <time>2023-04-05T10:21:29Z</time>
      </trkpt>
      <trkpt lat="48.08247" lon="-3.85786">
        <ele>117.1</ele>
        <time>2023-04-05T10:21:31Z</time>
      </trkpt>
      <trkpt lat="48.08248" lon="-3.85788">
        <ele>117</ele>
        <time>2023-04-05T10:21:32Z</time>
      </trkpt>
      <trkpt lat="48.08248" lon="-3.85792">
        <ele>116.9</ele>
        <time>2023-04-05T10:21:34Z</time>
      </trkpt>
      <trkpt lat="48.08248" lon="-3.85794">
        <ele>116.8</ele>
        <time>2023-04-05T10:21:35Z</time>
      </trkpt>
      <trkpt lat="48.08248" lon="-3.85796">
        <ele>116.7</ele>
        <time>2023-04-05T10:21:36Z</time>
      </trkpt>
      <trkpt lat="48.08249" lon="-3.85799">
        <ele>116.6</ele>
        <time>2023-04-05T10:21:37Z</time>
      </trkpt>
      <trkpt lat="48.08249" lon="-3.85801">
        <ele>116.5</ele>
        <time>2023-04-05T10:21:38Z</time>
      </trkpt>
      <trkpt lat="48.0825" lon="-3.85803">
        <ele>116.4</ele>
        <time>2023-04-05T10:21:39Z</time>
      </trkpt>
      <trkpt lat="48.0825" lon="-3.85809">
        <ele>116.2</ele>
        <time>2023-04-05T10:21:41Z</time>
      </trkpt>
      <trkpt lat="48.0825" lon="-3.85814">
        <ele>116</ele>
        <time>2023-04-05T10:21:42Z</time>
      </trkpt>
      <trkpt lat="48.08251" lon="-3.85816">
        <ele>115.9</ele>
        <time>2023-04-05T10:21:43Z</time>
      </trkpt>
      <trkpt lat="48.08252" lon="-3.85823">
        <ele>115.7</ele>
        <time>2023-04-05T10:21:44Z</time>
      </trkpt>
      <trkpt lat="48.08252" lon="-3.85826">
        <ele>115.6</ele>
        <time>2023-04-05T10:21:45Z</time>
      </trkpt>
      <trkpt lat="48.08253" lon="-3.8583">
        <ele>115.4</ele>
        <time>2023-04-05T10:21:47Z</time>
      </trkpt>
      <trkpt lat="48.08253" lon="-3.85835">
        <ele>115.3</ele>
        <time>2023-04-05T10:21:48Z</time>
      </trkpt>
      <trkpt lat="48.08254" lon="-3.85839">
        <ele>115.1</ele>
        <time>2023-04-05T10:21:49Z</time>
      </trkpt>
      <trkpt lat="48.08255" lon="-3.85841">
        <ele>115.1</ele>
        <time>2023-04-05T10:21:50Z</time>
      </trkpt>
      <trkpt lat="48.08255" lon="-3.85847">
        <ele>114.9</ele>
        <time>2023-04-05T10:21:51Z</time>
      </trkpt>
      <trkpt lat="48.08255" lon="-3.85849">
        <ele>114.8</ele>
        <time>2023-04-05T10:21:52Z</time>
      </trkpt>
      <trkpt lat="48.08255" lon="-3.85854">
        <ele>114.6</ele>
        <time>2023-04-05T10:21:53Z</time>
      </trkpt>
      <trkpt lat="48.08255" lon="-3.85856">
        <ele>114.6</ele>
        <time>2023-04-05T10:21:54Z</time>
      </trkpt>
      <trkpt lat="48.08256" lon="-3.85861">
        <ele>114.4</ele>
        <time>2023-04-05T10:21:55Z</time>
      </trkpt>
      <trkpt lat="48.08258" lon="-3.85866">
        <ele>114.2</ele>
        <time>2023-04-05T10:21:56Z</time>
      </trkpt>
      <trkpt lat="48.0826" lon="-3.85871">
        <ele>113.9</ele>
        <time>2023-04-05T10:21:57Z</time>
      </trkpt>
      <trkpt lat="48.08263" lon="-3.85875">
        <ele>113.7</ele>
        <time>2023-04-05T10:21:58Z</time>
      </trkpt>
      <trkpt lat="48.08264" lon="-3.85876">
        <ele>113.6</ele>
        <time>2023-04-05T10:21:59Z</time>
      </trkpt>
      <trkpt lat="48.08266" lon="-3.85879">
        <ele>113.5</ele>
        <time>2023-04-05T10:22:00Z</time>
      </trkpt>
      <trkpt lat="48.08267" lon="-3.85879">
        <ele>113.4</ele>
        <time>2023-04-05T10:22:01Z</time>
      </trkpt>
      <trkpt lat="48.0827" lon="-3.8588">
        <ele>113.3</ele>
        <time>2023-04-05T10:22:02Z</time>
      </trkpt>
      <trkpt lat="48.08271" lon="-3.8588">
        <ele>113.2</ele>
        <time>2023-04-05T10:22:03Z</time>
      </trkpt>
      <trkpt lat="48.08273" lon="-3.85881">
        <ele>113.1</ele>
        <time>2023-04-05T10:22:04Z</time>
      </trkpt>
      <trkpt lat="48.08274" lon="-3.85881">
        <ele>113.1</ele>
        <time>2023-04-05T10:22:05Z</time>
      </trkpt>
      <trkpt lat="48.08277" lon="-3.85881">
        <ele>112.9</ele>
        <time>2023-04-05T10:22:06Z</time>
      </trkpt>
      <trkpt lat="48.08278" lon="-3.85881">
        <ele>112.8</ele>
        <time>2023-04-05T10:22:07Z</time>
      </trkpt>
      <trkpt lat="48.08281" lon="-3.85883">
        <ele>112.7</ele>
        <time>2023-04-05T10:22:08Z</time>
      </trkpt>
      <trkpt lat="48.08282" lon="-3.85884">
        <ele>112.6</ele>
        <time>2023-04-05T10:22:09Z</time>
      </trkpt>
      <trkpt lat="48.08284" lon="-3.85885">
        <ele>112.5</ele>
        <time>2023-04-05T10:22:10Z</time>
      </trkpt>
      <trkpt lat="48.08287" lon="-3.85887">
        <ele>112.4</ele>
        <time>2023-04-05T10:22:12Z</time>
      </trkpt>
      <trkpt lat="48.0829" lon="-3.8589">
        <ele>112.2</ele>
        <time>2023-04-05T10:22:13Z</time>
      </trkpt>
      <trkpt lat="48.08291" lon="-3.85891">
        <ele>112.1</ele>
        <time>2023-04-05T10:22:14Z</time>
      </trkpt>
      <trkpt lat="48.08292" lon="-3.85892">
        <ele>112</ele>
        <time>2023-04-05T10:22:15Z</time>
      </trkpt>
      <trkpt lat="48.08294" lon="-3.85894">
        <ele>112</ele>
        <time>2023-04-05T10:22:16Z</time>
      </trkpt>
      <trkpt lat="48.08295" lon="-3.85895">
        <ele>111.9</ele>
        <time>2023-04-05T10:22:17Z</time>
      </trkpt>
      <trkpt lat="48.08296" lon="-3.85896">
        <ele>111.8</ele>
        <time>2023-04-05T10:22:18Z</time>
      </trkpt>
      <trkpt lat="48.08297" lon="-3.85898">
        <ele>111.7</ele>
        <time>2023-04-05T10:22:20Z</time>
      </trkpt>
      <trkpt lat="48.083" lon="-3.85901">
        <ele>111.5</ele>
        <time>2023-04-05T10:22:21Z</time>
      </trkpt>
      <trkpt lat="48.08302" lon="-3.85902">
        <ele>111.3</ele>
        <time>2023-04-05T10:22:22Z</time>
      </trkpt>
      <trkpt lat="48.08304" lon="-3.85904">
        <ele>111.2</ele>
        <time>2023-04-05T10:22:23Z</time>
      </trkpt>
      <trkpt lat="48.08308" lon="-3.85908">
        <ele>110.9</ele>
        <time>2023-04-05T10:22:25Z</time>
      </trkpt>
      <trkpt lat="48.08309" lon="-3.85909">
        <ele>110.8</ele>
        <time>2023-04-05T10:22:26Z</time>
      </trkpt>
      <trkpt lat="48.0831" lon="-3.8591">
        <ele>110.7</ele>
        <time>2023-04-05T10:22:27Z</time>
      </trkpt>
      <trkpt lat="48.08311" lon="-3.85911">
        <ele>110.6</ele>
        <time>2023-04-05T10:22:28Z</time>
      </trkpt>
      <trkpt lat="48.08314" lon="-3.85913">
        <ele>110.4</ele>
        <time>2023-04-05T10:22:30Z</time>
      </trkpt>
      <trkpt lat="48.08315" lon="-3.85914">
        <ele>110.3</ele>
        <time>2023-04-05T10:22:31Z</time>
      </trkpt>
      <trkpt lat="48.08317" lon="-3.85918">
        <ele>110.1</ele>
        <time>2023-04-05T10:22:32Z</time>
      </trkpt>
      <trkpt lat="48.08318" lon="-3.85919">
        <ele>110</ele>
        <time>2023-04-05T10:22:33Z</time>
      </trkpt>
      <trkpt lat="48.0832" lon="-3.85923">
        <ele>109.7</ele>
        <time>2023-04-05T10:22:35Z</time>
      </trkpt>
      <trkpt lat="48.08323" lon="-3.85928">
        <ele>109.3</ele>
        <time>2023-04-05T10:22:37Z</time>
      </trkpt>
      <trkpt lat="48.08324" lon="-3.8593">
        <ele>109.1</ele>
        <time>2023-04-05T10:22:39Z</time>
      </trkpt>
      <trkpt lat="48.08325" lon="-3.85932">
        <ele>109</ele>
        <time>2023-04-05T10:22:40Z</time>
      </trkpt>
      <trkpt lat="48.08328" lon="-3.85935">
        <ele>108.7</ele>
        <time>2023-04-05T10:22:41Z</time>
      </trkpt>
      <trkpt lat="48.08331" lon="-3.85939">
        <ele>108.3</ele>
        <time>2023-04-05T10:22:42Z</time>
      </trkpt>
      <trkpt lat="48.08334" lon="-3.85944">
        <ele>107.9</ele>
        <time>2023-04-05T10:22:43Z</time>
      </trkpt>
      <trkpt lat="48.08336" lon="-3.85948">
        <ele>107.6</ele>
        <time>2023-04-05T10:22:44Z</time>
      </trkpt>
      <trkpt lat="48.08338" lon="-3.85951">
        <ele>107.3</ele>
        <time>2023-04-05T10:22:45Z</time>
      </trkpt>
      <trkpt lat="48.08339" lon="-3.85955">
        <ele>107.1</ele>
        <time>2023-04-05T10:22:46Z</time>
      </trkpt>
      <trkpt lat="48.08339" lon="-3.8596">
        <ele>106.8</ele>
        <time>2023-04-05T10:22:47Z</time>
      </trkpt>
      <trkpt lat="48.0834" lon="-3.85961">
        <ele>106.7</ele>
        <time>2023-04-05T10:22:48Z</time>
      </trkpt>
      <trkpt lat="48.08342" lon="-3.85964">
        <ele>106.5</ele>
        <time>2023-04-05T10:22:49Z</time>
      </trkpt>
      <trkpt lat="48.08345" lon="-3.85967">
        <ele>106.2</ele>
        <time>2023-04-05T10:22:50Z</time>
      </trkpt>
      <trkpt lat="48.08347" lon="-3.85971">
        <ele>105.9</ele>
        <time>2023-04-05T10:22:51Z</time>
      </trkpt>
      <trkpt lat="48.08349" lon="-3.85976">
        <ele>105.5</ele>
        <time>2023-04-05T10:22:52Z</time>
      </trkpt>
      <trkpt lat="48.08351" lon="-3.85979">
        <ele>105.3</ele>
        <time>2023-04-05T10:22:53Z</time>
      </trkpt>
      <trkpt lat="48.08353" lon="-3.85982">
        <ele>105.2</ele>
        <time>2023-04-05T10:22:54Z</time>
      </trkpt>
      <trkpt lat="48.08353" lon="-3.85983">
        <ele>105.1</ele>
        <time>2023-04-05T10:22:55Z</time>
      </trkpt>
      <trkpt lat="48.08354" lon="-3.85986">
        <ele>104.9</ele>
        <time>2023-04-05T10:22:57Z</time>
      </trkpt>
      <trkpt lat="48.08354" lon="-3.85987">
        <ele>104.9</ele>
        <time>2023-04-05T10:22:58Z</time>
      </trkpt>
      <trkpt lat="48.08354" lon="-3.85987">
        <ele>104.8</ele>
        <time>2023-04-05T10:22:59Z</time>
      </trkpt>
      <trkpt lat="48.08355" lon="-3.85989">
        <ele>104.7</ele>
        <time>2023-04-05T10:23:00Z</time>
      </trkpt>
      <trkpt lat="48.08357" lon="-3.85992">
        <ele>104.6</ele>
        <time>2023-04-05T10:23:02Z</time>
      </trkpt>
      <trkpt lat="48.08359" lon="-3.85996">
        <ele>104.4</ele>
        <time>2023-04-05T10:23:03Z</time>
      </trkpt>
      <trkpt lat="48.08359" lon="-3.85997">
        <ele>104.3</ele>
        <time>2023-04-05T10:23:04Z</time>
      </trkpt>
      <trkpt lat="48.08361" lon="-3.86">
        <ele>104.1</ele>
        <time>2023-04-05T10:23:05Z</time>
      </trkpt>
      <trkpt lat="48.08364" lon="-3.86003">
        <ele>103.9</ele>
        <time>2023-04-05T10:23:06Z</time>
      </trkpt>
      <trkpt lat="48.08366" lon="-3.86007">
        <ele>103.6</ele>
        <time>2023-04-05T10:23:07Z</time>
      </trkpt>
      <trkpt lat="48.08367" lon="-3.86009">
        <ele>103.6</ele>
        <time>2023-04-05T10:23:08Z</time>
      </trkpt>
      <trkpt lat="48.0837" lon="-3.86012">
        <ele>103.4</ele>
        <time>2023-04-05T10:23:09Z</time>
      </trkpt>
      <trkpt lat="48.08372" lon="-3.86017">
        <ele>103.2</ele>
        <time>2023-04-05T10:23:10Z</time>
      </trkpt>
      <trkpt lat="48.08374" lon="-3.86022">
        <ele>103.1</ele>
        <time>2023-04-05T10:23:11Z</time>
      </trkpt>
      <trkpt lat="48.08376" lon="-3.86026">
        <ele>103.1</ele>
        <time>2023-04-05T10:23:12Z</time>
      </trkpt>
      <trkpt lat="48.08377" lon="-3.8603">
        <ele>103.1</ele>
        <time>2023-04-05T10:23:13Z</time>
      </trkpt>
      <trkpt lat="48.08379" lon="-3.86033">
        <ele>103.1</ele>
        <time>2023-04-05T10:23:14Z</time>
      </trkpt>
      <trkpt lat="48.08382" lon="-3.86038">
        <ele>103.2</ele>
        <time>2023-04-05T10:23:15Z</time>
      </trkpt>
      <trkpt lat="48.08383" lon="-3.8604">
        <ele>103.3</ele>
        <time>2023-04-05T10:23:16Z</time>
      </trkpt>
      <trkpt lat="48.08385" lon="-3.86043">
        <ele>103.4</ele>
        <time>2023-04-05T10:23:17Z</time>
      </trkpt>
      <trkpt lat="48.08388" lon="-3.86046">
        <ele>103.5</ele>
        <time>2023-04-05T10:23:18Z</time>
      </trkpt>
      <trkpt lat="48.08389" lon="-3.86048">
        <ele>103.6</ele>
        <time>2023-04-05T10:23:19Z</time>
      </trkpt>
      <trkpt lat="48.08392" lon="-3.86052">
        <ele>103.8</ele>
        <time>2023-04-05T10:23:20Z</time>
      </trkpt>
      <trkpt lat="48.08393" lon="-3.86054">
        <ele>103.7</ele>
        <time>2023-04-05T10:23:21Z</time>
      </trkpt>
      <trkpt lat="48.08397" lon="-3.86055">
        <ele>103.6</ele>
        <time>2023-04-05T10:23:22Z</time>
      </trkpt>
      <trkpt lat="48.08401" lon="-3.86055">
        <ele>103.4</ele>
        <time>2023-04-05T10:23:23Z</time>
      </trkpt>
      <trkpt lat="48.08405" lon="-3.86052">
        <ele>103.2</ele>
        <time>2023-04-05T10:23:24Z</time>
      </trkpt>
      <trkpt lat="48.08409" lon="-3.86048">
        <ele>103.1</ele>
        <time>2023-04-05T10:23:25Z</time>
      </trkpt>
      <trkpt lat="48.08414" lon="-3.86044">
        <ele>103</ele>
        <time>2023-04-05T10:23:26Z</time>
      </trkpt>
      <trkpt lat="48.08418" lon="-3.86041">
        <ele>102.9</ele>
        <time>2023-04-05T10:23:27Z</time>
      </trkpt>
      <trkpt lat="48.08423" lon="-3.86039">
        <ele>102.9</ele>
        <time>2023-04-05T10:23:28Z</time>
      </trkpt>
      <trkpt lat="48.08429" lon="-3.86037">
        <ele>102.9</ele>
        <time>2023-04-05T10:23:29Z</time>
      </trkpt>
      <trkpt lat="48.08434" lon="-3.86035">
        <ele>103</ele>
        <time>2023-04-05T10:23:30Z</time>
      </trkpt>
      <trkpt lat="48.08439" lon="-3.86032">
        <ele>103.1</ele>
        <time>2023-04-05T10:23:31Z</time>
      </trkpt>
      <trkpt lat="48.08444" lon="-3.8603">
        <ele>103.2</ele>
        <time>2023-04-05T10:23:32Z</time>
      </trkpt>
      <trkpt lat="48.08448" lon="-3.86028">
        <ele>103.2</ele>
        <time>2023-04-05T10:23:33Z</time>
      </trkpt>
      <trkpt lat="48.08453" lon="-3.86026">
        <ele>103.3</ele>
        <time>2023-04-05T10:23:34Z</time>
      </trkpt>
      <trkpt lat="48.08457" lon="-3.86024">
        <ele>103.3</ele>
        <time>2023-04-05T10:23:35Z</time>
      </trkpt>
      <trkpt lat="48.08462" lon="-3.86021">
        <ele>103.3</ele>
        <time>2023-04-05T10:23:36Z</time>
      </trkpt>
      <trkpt lat="48.08467" lon="-3.86018">
        <ele>103.3</ele>
        <time>2023-04-05T10:23:37Z</time>
      </trkpt>
      <trkpt lat="48.08472" lon="-3.86015">
        <ele>103.3</ele>
        <time>2023-04-05T10:23:38Z</time>
      </trkpt>
      <trkpt lat="48.08476" lon="-3.86012">
        <ele>103.3</ele>
        <time>2023-04-05T10:23:39Z</time>
      </trkpt>
      <trkpt lat="48.08481" lon="-3.86007">
        <ele>103.2</ele>
        <time>2023-04-05T10:23:40Z</time>
      </trkpt>
      <trkpt lat="48.08486" lon="-3.86003">
        <ele>103.2</ele>
        <time>2023-04-05T10:23:41Z</time>
      </trkpt>
      <trkpt lat="48.0849" lon="-3.85998">
        <ele>103.2</ele>
        <time>2023-04-05T10:23:42Z</time>
      </trkpt>
      <trkpt lat="48.08495" lon="-3.85993">
        <ele>103.2</ele>
        <time>2023-04-05T10:23:43Z</time>
      </trkpt>
      <trkpt lat="48.08499" lon="-3.85988">
        <ele>103.2</ele>
        <time>2023-04-05T10:23:44Z</time>
      </trkpt>
      <trkpt lat="48.08503" lon="-3.85983">
        <ele>103.2</ele>
        <time>2023-04-05T10:23:45Z</time>
      </trkpt>
      <trkpt lat="48.08508" lon="-3.85978">
        <ele>103.3</ele>
        <time>2023-04-05T10:23:46Z</time>
      </trkpt>
      <trkpt lat="48.08512" lon="-3.85973">
        <ele>103.3</ele>
        <time>2023-04-05T10:23:47Z</time>
      </trkpt>
      <trkpt lat="48.08516" lon="-3.85969">
        <ele>103.4</ele>
        <time>2023-04-05T10:23:48Z</time>
      </trkpt>
      <trkpt lat="48.08521" lon="-3.85965">
        <ele>103.5</ele>
        <time>2023-04-05T10:23:49Z</time>
      </trkpt>
      <trkpt lat="48.08525" lon="-3.8596">
        <ele>103.5</ele>
        <time>2023-04-05T10:23:50Z</time>
      </trkpt>
      <trkpt lat="48.08529" lon="-3.85956">
        <ele>103.6</ele>
        <time>2023-04-05T10:23:51Z</time>
      </trkpt>
      <trkpt lat="48.08534" lon="-3.85951">
        <ele>103.6</ele>
        <time>2023-04-05T10:23:52Z</time>
      </trkpt>
      <trkpt lat="48.08539" lon="-3.85947">
        <ele>103.7</ele>
        <time>2023-04-05T10:23:53Z</time>
      </trkpt>
      <trkpt lat="48.08543" lon="-3.85943">
        <ele>103.7</ele>
        <time>2023-04-05T10:23:54Z</time>
      </trkpt>
      <trkpt lat="48.08547" lon="-3.85939">
        <ele>103.8</ele>
        <time>2023-04-05T10:23:55Z</time>
      </trkpt>
      <trkpt lat="48.08552" lon="-3.85935">
        <ele>103.8</ele>
        <time>2023-04-05T10:23:56Z</time>
      </trkpt>
      <trkpt lat="48.08556" lon="-3.85931">
        <ele>103.8</ele>
        <time>2023-04-05T10:23:57Z</time>
      </trkpt>
      <trkpt lat="48.08561" lon="-3.85927">
        <ele>103.9</ele>
        <time>2023-04-05T10:23:58Z</time>
      </trkpt>
      <trkpt lat="48.08566" lon="-3.85923">
        <ele>103.9</ele>
        <time>2023-04-05T10:23:59Z</time>
      </trkpt>
      <trkpt lat="48.08571" lon="-3.8592">
        <ele>103.7</ele>
        <time>2023-04-05T10:24:00Z</time>
      </trkpt>
      <trkpt lat="48.08575" lon="-3.85916">
        <ele>103.6</ele>
        <time>2023-04-05T10:24:01Z</time>
      </trkpt>
      <trkpt lat="48.0858" lon="-3.85913">
        <ele>103.6</ele>
        <time>2023-04-05T10:24:02Z</time>
      </trkpt>
      <trkpt lat="48.08585" lon="-3.85909">
        <ele>103.6</ele>
        <time>2023-04-05T10:24:03Z</time>
      </trkpt>
      <trkpt lat="48.08589" lon="-3.85906">
        <ele>103.6</ele>
        <time>2023-04-05T10:24:04Z</time>
      </trkpt>
      <trkpt lat="48.08594" lon="-3.85903">
        <ele>103.6</ele>
        <time>2023-04-05T10:24:05Z</time>
      </trkpt>
      <trkpt lat="48.08598" lon="-3.85898">
        <ele>103.6</ele>
        <time>2023-04-05T10:24:06Z</time>
      </trkpt>
      <trkpt lat="48.08603" lon="-3.85894">
        <ele>103.5</ele>
        <time>2023-04-05T10:24:07Z</time>
      </trkpt>
      <trkpt lat="48.08607" lon="-3.85889">
        <ele>103.4</ele>
        <time>2023-04-05T10:24:08Z</time>
      </trkpt>
      <trkpt lat="48.08612" lon="-3.85885">
        <ele>103.3</ele>
        <time>2023-04-05T10:24:09Z</time>
      </trkpt>
      <trkpt lat="48.08616" lon="-3.8588">
        <ele>103.1</ele>
        <time>2023-04-05T10:24:10Z</time>
      </trkpt>
      <trkpt lat="48.0862" lon="-3.85876">
        <ele>102.9</ele>
        <time>2023-04-05T10:24:11Z</time>
      </trkpt>
      <trkpt lat="48.08625" lon="-3.8587">
        <ele>102.6</ele>
        <time>2023-04-05T10:24:12Z</time>
      </trkpt>
      <trkpt lat="48.0863" lon="-3.85865">
        <ele>102.4</ele>
        <time>2023-04-05T10:24:13Z</time>
      </trkpt>
      <trkpt lat="48.08635" lon="-3.85859">
        <ele>102.2</ele>
        <time>2023-04-05T10:24:14Z</time>
      </trkpt>
      <trkpt lat="48.08639" lon="-3.85852">
        <ele>102</ele>
        <time>2023-04-05T10:24:15Z</time>
      </trkpt>
      <trkpt lat="48.08644" lon="-3.85846">
        <ele>101.8</ele>
        <time>2023-04-05T10:24:16Z</time>
      </trkpt>
      <trkpt lat="48.08649" lon="-3.85839">
        <ele>101.5</ele>
        <time>2023-04-05T10:24:17Z</time>
      </trkpt>
      <trkpt lat="48.08654" lon="-3.85832">
        <ele>101.3</ele>
        <time>2023-04-05T10:24:18Z</time>
      </trkpt>
      <trkpt lat="48.08658" lon="-3.85825">
        <ele>101.2</ele>
        <time>2023-04-05T10:24:19Z</time>
      </trkpt>
      <trkpt lat="48.08663" lon="-3.85818">
        <ele>101</ele>
        <time>2023-04-05T10:24:20Z</time>
      </trkpt>
      <trkpt lat="48.08667" lon="-3.8581">
        <ele>100.9</ele>
        <time>2023-04-05T10:24:21Z</time>
      </trkpt>
      <trkpt lat="48.08672" lon="-3.85803">
        <ele>100.8</ele>
        <time>2023-04-05T10:24:22Z</time>
      </trkpt>
      <trkpt lat="48.08676" lon="-3.85795">
        <ele>100.7</ele>
        <time>2023-04-05T10:24:23Z</time>
      </trkpt>
      <trkpt lat="48.0868" lon="-3.85788">
        <ele>100.6</ele>
        <time>2023-04-05T10:24:24Z</time>
      </trkpt>
      <trkpt lat="48.08684" lon="-3.85782">
        <ele>100.6</ele>
        <time>2023-04-05T10:24:25Z</time>
      </trkpt>
      <trkpt lat="48.08688" lon="-3.85775">
        <ele>100.6</ele>
        <time>2023-04-05T10:24:26Z</time>
      </trkpt>
      <trkpt lat="48.08693" lon="-3.85769">
        <ele>100.6</ele>
        <time>2023-04-05T10:24:27Z</time>
      </trkpt>
      <trkpt lat="48.08696" lon="-3.85762">
        <ele>100.6</ele>
        <time>2023-04-05T10:24:28Z</time>
      </trkpt>
      <trkpt lat="48.087" lon="-3.85756">
        <ele>100.6</ele>
        <time>2023-04-05T10:24:29Z</time>
      </trkpt>
      <trkpt lat="48.08704" lon="-3.8575">
        <ele>100.6</ele>
        <time>2023-04-05T10:24:30Z</time>
      </trkpt>
      <trkpt lat="48.08709" lon="-3.85744">
        <ele>100.6</ele>
        <time>2023-04-05T10:24:31Z</time>
      </trkpt>
      <trkpt lat="48.08713" lon="-3.85738">
        <ele>100.5</ele>
        <time>2023-04-05T10:24:32Z</time>
      </trkpt>
      <trkpt lat="48.08717" lon="-3.85733">
        <ele>100.5</ele>
        <time>2023-04-05T10:24:33Z</time>
      </trkpt>
      <trkpt lat="48.08721" lon="-3.85726">
        <ele>100.5</ele>
        <time>2023-04-05T10:24:34Z</time>
      </trkpt>
      <trkpt lat="48.08725" lon="-3.8572">
        <ele>100.5</ele>
        <time>2023-04-05T10:24:35Z</time>
      </trkpt>
      <trkpt lat="48.08729" lon="-3.85714">
        <ele>100.5</ele>
        <time>2023-04-05T10:24:36Z</time>
      </trkpt>
      <trkpt lat="48.08733" lon="-3.85708">
        <ele>100.5</ele>
        <time>2023-04-05T10:24:37Z</time>
      </trkpt>
      <trkpt lat="48.08737" lon="-3.85702">
        <ele>100.5</ele>
        <time>2023-04-05T10:24:38Z</time>
      </trkpt>
      <trkpt lat="48.08741" lon="-3.85696">
        <ele>100.5</ele>
        <time>2023-04-05T10:24:39Z</time>
      </trkpt>
      <trkpt lat="48.08746" lon="-3.8569">
        <ele>100.5</ele>
        <time>2023-04-05T10:24:40Z</time>
      </trkpt>
      <trkpt lat="48.0875" lon="-3.85685">
        <ele>100.5</ele>
        <time>2023-04-05T10:24:41Z</time>
      </trkpt>
      <trkpt lat="48.08754" lon="-3.85679">
        <ele>100.5</ele>
        <time>2023-04-05T10:24:42Z</time>
      </trkpt>
      <trkpt lat="48.08758" lon="-3.85673">
        <ele>100.5</ele>
        <time>2023-04-05T10:24:43Z</time>
      </trkpt>
      <trkpt lat="48.08761" lon="-3.85667">
        <ele>100.5</ele>
        <time>2023-04-05T10:24:44Z</time>
      </trkpt>
      <trkpt lat="48.08765" lon="-3.8566">
        <ele>100.6</ele>
        <time>2023-04-05T10:24:45Z</time>
      </trkpt>
      <trkpt lat="48.08769" lon="-3.85654">
        <ele>100.6</ele>
        <time>2023-04-05T10:24:46Z</time>
      </trkpt>
      <trkpt lat="48.08772" lon="-3.85647">
        <ele>100.7</ele>
        <time>2023-04-05T10:24:47Z</time>
      </trkpt>
      <trkpt lat="48.08775" lon="-3.85641">
        <ele>100.7</ele>
        <time>2023-04-05T10:24:48Z</time>
      </trkpt>
      <trkpt lat="48.08778" lon="-3.85634">
        <ele>100.8</ele>
        <time>2023-04-05T10:24:49Z</time>
      </trkpt>
      <trkpt lat="48.08781" lon="-3.85627">
        <ele>101</ele>
        <time>2023-04-05T10:24:50Z</time>
      </trkpt>
      <trkpt lat="48.08784" lon="-3.85621">
        <ele>101.1</ele>
        <time>2023-04-05T10:24:51Z</time>
      </trkpt>
      <trkpt lat="48.08787" lon="-3.85614">
        <ele>101.2</ele>
        <time>2023-04-05T10:24:52Z</time>
      </trkpt>
      <trkpt lat="48.0879" lon="-3.85607">
        <ele>101.4</ele>
        <time>2023-04-05T10:24:53Z</time>
      </trkpt>
      <trkpt lat="48.08793" lon="-3.85601">
        <ele>101.6</ele>
        <time>2023-04-05T10:24:54Z</time>
      </trkpt>
      <trkpt lat="48.08796" lon="-3.85595">
        <ele>101.8</ele>
        <time>2023-04-05T10:24:55Z</time>
      </trkpt>
      <trkpt lat="48.08799" lon="-3.85589">
        <ele>102</ele>
        <time>2023-04-05T10:24:56Z</time>
      </trkpt>
      <trkpt lat="48.08802" lon="-3.85584">
        <ele>102.3</ele>
        <time>2023-04-05T10:24:57Z</time>
      </trkpt>
      <trkpt lat="48.08806" lon="-3.85578">
        <ele>102.5</ele>
        <time>2023-04-05T10:24:58Z</time>
      </trkpt>
      <trkpt lat="48.08809" lon="-3.85573">
        <ele>102.8</ele>
        <time>2023-04-05T10:24:59Z</time>
      </trkpt>
      <trkpt lat="48.08812" lon="-3.85569">
        <ele>103.1</ele>
        <time>2023-04-05T10:25:00Z</time>
      </trkpt>
      <trkpt lat="48.08815" lon="-3.85564">
        <ele>103.3</ele>
        <time>2023-04-05T10:25:01Z</time>
      </trkpt>
      <trkpt lat="48.08818" lon="-3.85559">
        <ele>103.6</ele>
        <time>2023-04-05T10:25:02Z</time>
      </trkpt>
      <trkpt lat="48.08821" lon="-3.85554">
        <ele>103.9</ele>
        <time>2023-04-05T10:25:03Z</time>
      </trkpt>
      <trkpt lat="48.08824" lon="-3.85549">
        <ele>104.2</ele>
        <time>2023-04-05T10:25:04Z</time>
      </trkpt>
      <trkpt lat="48.08828" lon="-3.85545">
        <ele>104.5</ele>
        <time>2023-04-05T10:25:05Z</time>
      </trkpt>
      <trkpt lat="48.08831" lon="-3.8554">
        <ele>104.8</ele>
        <time>2023-04-05T10:25:06Z</time>
      </trkpt>
      <trkpt lat="48.08834" lon="-3.85535">
        <ele>105.2</ele>
        <time>2023-04-05T10:25:07Z</time>
      </trkpt>
      <trkpt lat="48.08837" lon="-3.85532">
        <ele>105.4</ele>
        <time>2023-04-05T10:25:08Z</time>
      </trkpt>
      <trkpt lat="48.0884" lon="-3.85527">
        <ele>105.8</ele>
        <time>2023-04-05T10:25:09Z</time>
      </trkpt>
      <trkpt lat="48.08843" lon="-3.85523">
        <ele>106.1</ele>
        <time>2023-04-05T10:25:10Z</time>
      </trkpt>
      <trkpt lat="48.08846" lon="-3.85519">
        <ele>106.4</ele>
        <time>2023-04-05T10:25:11Z</time>
      </trkpt>
      <trkpt lat="48.08849" lon="-3.85515">
        <ele>106.7</ele>
        <time>2023-04-05T10:25:12Z</time>
      </trkpt>
      <trkpt lat="48.08853" lon="-3.85511">
        <ele>107</ele>
        <time>2023-04-05T10:25:13Z</time>
      </trkpt>
      <trkpt lat="48.08857" lon="-3.85506">
        <ele>107.5</ele>
        <time>2023-04-05T10:25:14Z</time>
      </trkpt>
      <trkpt lat="48.08859" lon="-3.85503">
        <ele>107.7</ele>
        <time>2023-04-05T10:25:15Z</time>
      </trkpt>
      <trkpt lat="48.08862" lon="-3.855">
        <ele>108</ele>
        <time>2023-04-05T10:25:16Z</time>
      </trkpt>
      <trkpt lat="48.08864" lon="-3.85496">
        <ele>108.3</ele>
        <time>2023-04-05T10:25:17Z</time>
      </trkpt>
      <trkpt lat="48.08867" lon="-3.85492">
        <ele>108.6</ele>
        <time>2023-04-05T10:25:18Z</time>
      </trkpt>
      <trkpt lat="48.0887" lon="-3.85488">
        <ele>108.8</ele>
        <time>2023-04-05T10:25:19Z</time>
      </trkpt>
      <trkpt lat="48.08873" lon="-3.85484">
        <ele>109.1</ele>
        <time>2023-04-05T10:25:20Z</time>
      </trkpt>
      <trkpt lat="48.08876" lon="-3.85481">
        <ele>109.3</ele>
        <time>2023-04-05T10:25:21Z</time>
      </trkpt>
      <trkpt lat="48.08879" lon="-3.85477">
        <ele>109.5</ele>
        <time>2023-04-05T10:25:22Z</time>
      </trkpt>
      <trkpt lat="48.08883" lon="-3.85475">
        <ele>109.7</ele>
        <time>2023-04-05T10:25:23Z</time>
      </trkpt>
      <trkpt lat="48.08887" lon="-3.85472">
        <ele>109.8</ele>
        <time>2023-04-05T10:25:24Z</time>
      </trkpt>
      <trkpt lat="48.08891" lon="-3.85469">
        <ele>109.9</ele>
        <time>2023-04-05T10:25:25Z</time>
      </trkpt>
      <trkpt lat="48.08895" lon="-3.85467">
        <ele>109.9</ele>
        <time>2023-04-05T10:25:26Z</time>
      </trkpt>
      <trkpt lat="48.08899" lon="-3.85465">
        <ele>110</ele>
        <time>2023-04-05T10:25:27Z</time>
      </trkpt>
      <trkpt lat="48.08904" lon="-3.85463">
        <ele>110</ele>
        <time>2023-04-05T10:25:28Z</time>
      </trkpt>
      <trkpt lat="48.08909" lon="-3.85462">
        <ele>110</ele>
        <time>2023-04-05T10:25:29Z</time>
      </trkpt>
      <trkpt lat="48.08914" lon="-3.85461">
        <ele>110</ele>
        <time>2023-04-05T10:25:30Z</time>
      </trkpt>
      <trkpt lat="48.08918" lon="-3.8546">
        <ele>109.9</ele>
        <time>2023-04-05T10:25:31Z</time>
      </trkpt>
      <trkpt lat="48.08923" lon="-3.85458">
        <ele>109.9</ele>
        <time>2023-04-05T10:25:32Z</time>
      </trkpt>
      <trkpt lat="48.08928" lon="-3.85456">
        <ele>109.8</ele>
        <time>2023-04-05T10:25:33Z</time>
      </trkpt>
      <trkpt lat="48.08934" lon="-3.85454">
        <ele>109.8</ele>
        <time>2023-04-05T10:25:34Z</time>
      </trkpt>
      <trkpt lat="48.08939" lon="-3.85452">
        <ele>109.7</ele>
        <time>2023-04-05T10:25:35Z</time>
      </trkpt>
      <trkpt lat="48.08945" lon="-3.8545">
        <ele>109.6</ele>
        <time>2023-04-05T10:25:36Z</time>
      </trkpt>
      <trkpt lat="48.0895" lon="-3.85448">
        <ele>109.5</ele>
        <time>2023-04-05T10:25:37Z</time>
      </trkpt>
      <trkpt lat="48.08956" lon="-3.85446">
        <ele>109.4</ele>
        <time>2023-04-05T10:25:38Z</time>
      </trkpt>
      <trkpt lat="48.08962" lon="-3.85444">
        <ele>109.2</ele>
        <time>2023-04-05T10:25:39Z</time>
      </trkpt>
      <trkpt lat="48.08968" lon="-3.85442">
        <ele>109.1</ele>
        <time>2023-04-05T10:25:40Z</time>
      </trkpt>
      <trkpt lat="48.08974" lon="-3.8544">
        <ele>108.9</ele>
        <time>2023-04-05T10:25:41Z</time>
      </trkpt>
      <trkpt lat="48.0898" lon="-3.85437">
        <ele>108.8</ele>
        <time>2023-04-05T10:25:42Z</time>
      </trkpt>
      <trkpt lat="48.08986" lon="-3.85435">
        <ele>108.6</ele>
        <time>2023-04-05T10:25:43Z</time>
      </trkpt>
      <trkpt lat="48.08993" lon="-3.85433">
        <ele>108.3</ele>
        <time>2023-04-05T10:25:44Z</time>
      </trkpt>
      <trkpt lat="48.08999" lon="-3.8543">
        <ele>108.1</ele>
        <time>2023-04-05T10:25:45Z</time>
      </trkpt>
      <trkpt lat="48.09006" lon="-3.85428">
        <ele>107.8</ele>
        <time>2023-04-05T10:25:46Z</time>
      </trkpt>
      <trkpt lat="48.09012" lon="-3.85425">
        <ele>107.4</ele>
        <time>2023-04-05T10:25:47Z</time>
      </trkpt>
      <trkpt lat="48.09019" lon="-3.85422">
        <ele>106.9</ele>
        <time>2023-04-05T10:25:48Z</time>
      </trkpt>
      <trkpt lat="48.09026" lon="-3.8542">
        <ele>106.5</ele>
        <time>2023-04-05T10:25:49Z</time>
      </trkpt>
      <trkpt lat="48.09034" lon="-3.85416">
        <ele>105.9</ele>
        <time>2023-04-05T10:25:50Z</time>
      </trkpt>
      <trkpt lat="48.09042" lon="-3.85414">
        <ele>105.3</ele>
        <time>2023-04-05T10:25:51Z</time>
      </trkpt>
      <trkpt lat="48.0905" lon="-3.85411">
        <ele>104.6</ele>
        <time>2023-04-05T10:25:52Z</time>
      </trkpt>
      <trkpt lat="48.09058" lon="-3.85408">
        <ele>103.9</ele>
        <time>2023-04-05T10:25:53Z</time>
      </trkpt>
      <trkpt lat="48.09067" lon="-3.85404">
        <ele>103</ele>
        <time>2023-04-05T10:25:54Z</time>
      </trkpt>
      <trkpt lat="48.09076" lon="-3.85401">
        <ele>102.2</ele>
        <time>2023-04-05T10:25:55Z</time>
      </trkpt>
      <trkpt lat="48.09085" lon="-3.85396">
        <ele>101.3</ele>
        <time>2023-04-05T10:25:56Z</time>
      </trkpt>
      <trkpt lat="48.09094" lon="-3.85392">
        <ele>100.5</ele>
        <time>2023-04-05T10:25:57Z</time>
      </trkpt>
      <trkpt lat="48.09104" lon="-3.85387">
        <ele>99.7</ele>
        <time>2023-04-05T10:25:58Z</time>
      </trkpt>
      <trkpt lat="48.09114" lon="-3.85383">
        <ele>98.9</ele>
        <time>2023-04-05T10:25:59Z</time>
      </trkpt>
      <trkpt lat="48.09124" lon="-3.8538">
        <ele>98.3</ele>
        <time>2023-04-05T10:26:00Z</time>
      </trkpt>
      <trkpt lat="48.09134" lon="-3.85377">
        <ele>97.8</ele>
        <time>2023-04-05T10:26:01Z</time>
      </trkpt>
      <trkpt lat="48.09144" lon="-3.85374">
        <ele>97.3</ele>
        <time>2023-04-05T10:26:02Z</time>
      </trkpt>
      <trkpt lat="48.09154" lon="-3.85373">
        <ele>97.1</ele>
        <time>2023-04-05T10:26:03Z</time>
      </trkpt>
      <trkpt lat="48.09164" lon="-3.85371">
        <ele>96.9</ele>
        <time>2023-04-05T10:26:04Z</time>
      </trkpt>
      <trkpt lat="48.09173" lon="-3.8537">
        <ele>96.7</ele>
        <time>2023-04-05T10:26:05Z</time>
      </trkpt>
      <trkpt lat="48.09182" lon="-3.85369">
        <ele>96.6</ele>
        <time>2023-04-05T10:26:06Z</time>
      </trkpt>
      <trkpt lat="48.09191" lon="-3.85366">
        <ele>96.4</ele>
        <time>2023-04-05T10:26:07Z</time>
      </trkpt>
      <trkpt lat="48.092" lon="-3.85362">
        <ele>96.4</ele>
        <time>2023-04-05T10:26:08Z</time>
      </trkpt>
      <trkpt lat="48.09208" lon="-3.85358">
        <ele>96.4</ele>
        <time>2023-04-05T10:26:09Z</time>
      </trkpt>
      <trkpt lat="48.09216" lon="-3.85352">
        <ele>96.5</ele>
        <time>2023-04-05T10:26:10Z</time>
      </trkpt>
      <trkpt lat="48.09223" lon="-3.85346">
        <ele>96.6</ele>
        <time>2023-04-05T10:26:11Z</time>
      </trkpt>
      <trkpt lat="48.0923" lon="-3.85341">
        <ele>96.8</ele>
        <time>2023-04-05T10:26:12Z</time>
      </trkpt>
      <trkpt lat="48.09237" lon="-3.85335">
        <ele>97.1</ele>
        <time>2023-04-05T10:26:13Z</time>
      </trkpt>
      <trkpt lat="48.09243" lon="-3.8533">
        <ele>97.4</ele>
        <time>2023-04-05T10:26:14Z</time>
      </trkpt>
      <trkpt lat="48.09249" lon="-3.85326">
        <ele>97.8</ele>
        <time>2023-04-05T10:26:15Z</time>
      </trkpt>
      <trkpt lat="48.09255" lon="-3.85321">
        <ele>98.2</ele>
        <time>2023-04-05T10:26:16Z</time>
      </trkpt>
      <trkpt lat="48.0926" lon="-3.85317">
        <ele>98.7</ele>
        <time>2023-04-05T10:26:17Z</time>
      </trkpt>
      <trkpt lat="48.09265" lon="-3.85313">
        <ele>99.2</ele>
        <time>2023-04-05T10:26:18Z</time>
      </trkpt>
      <trkpt lat="48.0927" lon="-3.85309">
        <ele>99.9</ele>
        <time>2023-04-05T10:26:19Z</time>
      </trkpt>
      <trkpt lat="48.09275" lon="-3.85306">
        <ele>100.5</ele>
        <time>2023-04-05T10:26:20Z</time>
      </trkpt>
      <trkpt lat="48.09279" lon="-3.85302">
        <ele>101.1</ele>
        <time>2023-04-05T10:26:21Z</time>
      </trkpt>
      <trkpt lat="48.09282" lon="-3.85299">
        <ele>101.5</ele>
        <time>2023-04-05T10:26:22Z</time>
      </trkpt>
      <trkpt lat="48.09285" lon="-3.85296">
        <ele>102</ele>
        <time>2023-04-05T10:26:23Z</time>
      </trkpt>
      <trkpt lat="48.09286" lon="-3.85296">
        <ele>102.1</ele>
        <time>2023-04-05T10:26:24Z</time>
      </trkpt>
      <trkpt lat="48.09289" lon="-3.85294">
        <ele>102.4</ele>
        <time>2023-04-05T10:26:25Z</time>
      </trkpt>
      <trkpt lat="48.0929" lon="-3.85293">
        <ele>102.4</ele>
        <time>2023-04-05T10:26:26Z</time>
      </trkpt>
      <trkpt lat="48.09294" lon="-3.8529">
        <ele>102.5</ele>
        <time>2023-04-05T10:26:27Z</time>
      </trkpt>
      <trkpt lat="48.09295" lon="-3.85289">
        <ele>102.5</ele>
        <time>2023-04-05T10:26:28Z</time>
      </trkpt>
      <trkpt lat="48.09301" lon="-3.85286">
        <ele>102.6</ele>
        <time>2023-04-05T10:26:29Z</time>
      </trkpt>
      <trkpt lat="48.09305" lon="-3.85286">
        <ele>102.6</ele>
        <time>2023-04-05T10:26:30Z</time>
      </trkpt>
      <trkpt lat="48.0931" lon="-3.85284">
        <ele>102.6</ele>
        <time>2023-04-05T10:26:31Z</time>
      </trkpt>
      <trkpt lat="48.09314" lon="-3.85281">
        <ele>102.6</ele>
        <time>2023-04-05T10:26:32Z</time>
      </trkpt>
      <trkpt lat="48.09318" lon="-3.85279">
        <ele>102.6</ele>
        <time>2023-04-05T10:26:33Z</time>
      </trkpt>
      <trkpt lat="48.09323" lon="-3.85276">
        <ele>102.7</ele>
        <time>2023-04-05T10:26:34Z</time>
      </trkpt>
      <trkpt lat="48.09327" lon="-3.85274">
        <ele>102.7</ele>
        <time>2023-04-05T10:26:35Z</time>
      </trkpt>
      <trkpt lat="48.09332" lon="-3.85271">
        <ele>102.7</ele>
        <time>2023-04-05T10:26:36Z</time>
      </trkpt>
      <trkpt lat="48.09337" lon="-3.85269">
        <ele>102.8</ele>
        <time>2023-04-05T10:26:37Z</time>
      </trkpt>
      <trkpt lat="48.09341" lon="-3.85267">
        <ele>102.9</ele>
        <time>2023-04-05T10:26:38Z</time>
      </trkpt>
      <trkpt lat="48.09346" lon="-3.85264">
        <ele>102.9</ele>
        <time>2023-04-05T10:26:39Z</time>
      </trkpt>
      <trkpt lat="48.09351" lon="-3.85261">
        <ele>103</ele>
        <time>2023-04-05T10:26:40Z</time>
      </trkpt>
      <trkpt lat="48.09356" lon="-3.85259">
        <ele>103.1</ele>
        <time>2023-04-05T10:26:41Z</time>
      </trkpt>
      <trkpt lat="48.09361" lon="-3.85257">
        <ele>103.2</ele>
        <time>2023-04-05T10:26:42Z</time>
      </trkpt>
      <trkpt lat="48.09365" lon="-3.85254">
        <ele>103.3</ele>
        <time>2023-04-05T10:26:43Z</time>
      </trkpt>
      <trkpt lat="48.0937" lon="-3.85251">
        <ele>103.4</ele>
        <time>2023-04-05T10:26:44Z</time>
      </trkpt>
      <trkpt lat="48.09375" lon="-3.85248">
        <ele>103.5</ele>
        <time>2023-04-05T10:26:45Z</time>
      </trkpt>
      <trkpt lat="48.0938" lon="-3.85245">
        <ele>103.6</ele>
        <time>2023-04-05T10:26:46Z</time>
      </trkpt>
      <trkpt lat="48.09385" lon="-3.85241">
        <ele>103.7</ele>
        <time>2023-04-05T10:26:47Z</time>
      </trkpt>
      <trkpt lat="48.09389" lon="-3.85236">
        <ele>103.9</ele>
        <time>2023-04-05T10:26:48Z</time>
      </trkpt>
      <trkpt lat="48.09393" lon="-3.85231">
        <ele>104</ele>
        <time>2023-04-05T10:26:49Z</time>
      </trkpt>
      <trkpt lat="48.09397" lon="-3.85226">
        <ele>104.2</ele>
        <time>2023-04-05T10:26:50Z</time>
      </trkpt>
      <trkpt lat="48.094" lon="-3.8522">
        <ele>104.4</ele>
        <time>2023-04-05T10:26:51Z</time>
      </trkpt>
      <trkpt lat="48.09403" lon="-3.85214">
        <ele>104.6</ele>
        <time>2023-04-05T10:26:52Z</time>
      </trkpt>
      <trkpt lat="48.09406" lon="-3.85209">
        <ele>104.8</ele>
        <time>2023-04-05T10:26:53Z</time>
      </trkpt>
      <trkpt lat="48.0941" lon="-3.85204">
        <ele>105</ele>
        <time>2023-04-05T10:26:54Z</time>
      </trkpt>
      <trkpt lat="48.09413" lon="-3.85199">
        <ele>105.2</ele>
        <time>2023-04-05T10:26:55Z</time>
      </trkpt>
      <trkpt lat="48.09417" lon="-3.85195">
        <ele>105.5</ele>
        <time>2023-04-05T10:26:56Z</time>
      </trkpt>
      <trkpt lat="48.09422" lon="-3.85192">
        <ele>105.4</ele>
        <time>2023-04-05T10:26:57Z</time>
      </trkpt>
      <trkpt lat="48.09426" lon="-3.85189">
        <ele>105.4</ele>
        <time>2023-04-05T10:26:58Z</time>
      </trkpt>
      <trkpt lat="48.09431" lon="-3.85186">
        <ele>105.4</ele>
        <time>2023-04-05T10:26:59Z</time>
      </trkpt>
      <trkpt lat="48.09435" lon="-3.85184">
        <ele>105.4</ele>
        <time>2023-04-05T10:27:00Z</time>
      </trkpt>
      <trkpt lat="48.0944" lon="-3.85181">
        <ele>105.3</ele>
        <time>2023-04-05T10:27:01Z</time>
      </trkpt>
      <trkpt lat="48.09445" lon="-3.85178">
        <ele>105.3</ele>
        <time>2023-04-05T10:27:02Z</time>
      </trkpt>
      <trkpt lat="48.0945" lon="-3.85176">
        <ele>105.3</ele>
        <time>2023-04-05T10:27:03Z</time>
      </trkpt>
      <trkpt lat="48.09455" lon="-3.85173">
        <ele>105.2</ele>
        <time>2023-04-05T10:27:04Z</time>
      </trkpt>
      <trkpt lat="48.09459" lon="-3.8517">
        <ele>105.2</ele>
        <time>2023-04-05T10:27:05Z</time>
      </trkpt>
      <trkpt lat="48.09465" lon="-3.85167">
        <ele>105.2</ele>
        <time>2023-04-05T10:27:06Z</time>
      </trkpt>
      <trkpt lat="48.0947" lon="-3.85163">
        <ele>105.1</ele>
        <time>2023-04-05T10:27:07Z</time>
      </trkpt>
      <trkpt lat="48.09475" lon="-3.85161">
        <ele>105.1</ele>
        <time>2023-04-05T10:27:08Z</time>
      </trkpt>
      <trkpt lat="48.0948" lon="-3.85157">
        <ele>105.1</ele>
        <time>2023-04-05T10:27:09Z</time>
      </trkpt>
      <trkpt lat="48.09485" lon="-3.85154">
        <ele>105</ele>
        <time>2023-04-05T10:27:10Z</time>
      </trkpt>
      <trkpt lat="48.0949" lon="-3.85151">
        <ele>105</ele>
        <time>2023-04-05T10:27:11Z</time>
      </trkpt>
      <trkpt lat="48.09495" lon="-3.85148">
        <ele>105</ele>
        <time>2023-04-05T10:27:12Z</time>
      </trkpt>
      <trkpt lat="48.09501" lon="-3.85145">
        <ele>104.9</ele>
        <time>2023-04-05T10:27:13Z</time>
      </trkpt>
      <trkpt lat="48.09506" lon="-3.85142">
        <ele>104.9</ele>
        <time>2023-04-05T10:27:14Z</time>
      </trkpt>
      <trkpt lat="48.09511" lon="-3.85138">
        <ele>104.8</ele>
        <time>2023-04-05T10:27:15Z</time>
      </trkpt>
      <trkpt lat="48.09516" lon="-3.85135">
        <ele>104.8</ele>
        <time>2023-04-05T10:27:16Z</time>
      </trkpt>
      <trkpt lat="48.09521" lon="-3.85132">
        <ele>104.8</ele>
        <time>2023-04-05T10:27:17Z</time>
      </trkpt>
      <trkpt lat="48.09526" lon="-3.85128">
        <ele>104.7</ele>
        <time>2023-04-05T10:27:18Z</time>
      </trkpt>
      <trkpt lat="48.09531" lon="-3.85125">
        <ele>104.7</ele>
        <time>2023-04-05T10:27:19Z</time>
      </trkpt>
      <trkpt lat="48.09536" lon="-3.85122">
        <ele>104.7</ele>
        <time>2023-04-05T10:27:20Z</time>
      </trkpt>
      <trkpt lat="48.09541" lon="-3.85118">
        <ele>104.6</ele>
        <time>2023-04-05T10:27:21Z</time>
      </trkpt>
      <trkpt lat="48.09546" lon="-3.85115">
        <ele>104.6</ele>
        <time>2023-04-05T10:27:22Z</time>
      </trkpt>
      <trkpt lat="48.09552" lon="-3.85111">
        <ele>104.6</ele>
        <time>2023-04-05T10:27:23Z</time>
      </trkpt>
      <trkpt lat="48.09557" lon="-3.85108">
        <ele>104.5</ele>
        <time>2023-04-05T10:27:24Z</time>
      </trkpt>
      <trkpt lat="48.09562" lon="-3.85104">
        <ele>104.5</ele>
        <time>2023-04-05T10:27:25Z</time>
      </trkpt>
      <trkpt lat="48.09567" lon="-3.85101">
        <ele>104.5</ele>
        <time>2023-04-05T10:27:26Z</time>
      </trkpt>
      <trkpt lat="48.09573" lon="-3.85098">
        <ele>104.4</ele>
        <time>2023-04-05T10:27:27Z</time>
      </trkpt>
      <trkpt lat="48.09578" lon="-3.85095">
        <ele>104.4</ele>
        <time>2023-04-05T10:27:28Z</time>
      </trkpt>
      <trkpt lat="48.09583" lon="-3.85092">
        <ele>104.4</ele>
        <time>2023-04-05T10:27:29Z</time>
      </trkpt>
      <trkpt lat="48.09589" lon="-3.85089">
        <ele>104.3</ele>
        <time>2023-04-05T10:27:30Z</time>
      </trkpt>
      <trkpt lat="48.09594" lon="-3.85085">
        <ele>104.3</ele>
        <time>2023-04-05T10:27:31Z</time>
      </trkpt>
      <trkpt lat="48.09599" lon="-3.85082">
        <ele>104.2</ele>
        <time>2023-04-05T10:27:32Z</time>
      </trkpt>
      <trkpt lat="48.09604" lon="-3.85079">
        <ele>104.2</ele>
        <time>2023-04-05T10:27:33Z</time>
      </trkpt>
      <trkpt lat="48.0961" lon="-3.85076">
        <ele>104.2</ele>
        <time>2023-04-05T10:27:34Z</time>
      </trkpt>
      <trkpt lat="48.09615" lon="-3.85073">
        <ele>104.1</ele>
        <time>2023-04-05T10:27:35Z</time>
      </trkpt>
      <trkpt lat="48.0962" lon="-3.8507">
        <ele>104.1</ele>
        <time>2023-04-05T10:27:36Z</time>
      </trkpt>
      <trkpt lat="48.09625" lon="-3.85066">
        <ele>104.1</ele>
        <time>2023-04-05T10:27:37Z</time>
      </trkpt>
      <trkpt lat="48.09631" lon="-3.85064">
        <ele>104.1</ele>
        <time>2023-04-05T10:27:38Z</time>
      </trkpt>
      <trkpt lat="48.09636" lon="-3.8506">
        <ele>104.1</ele>
        <time>2023-04-05T10:27:39Z</time>
      </trkpt>
      <trkpt lat="48.09642" lon="-3.85058">
        <ele>104.1</ele>
        <time>2023-04-05T10:27:40Z</time>
      </trkpt>
      <trkpt lat="48.09647" lon="-3.85055">
        <ele>104.1</ele>
        <time>2023-04-05T10:27:41Z</time>
      </trkpt>
      <trkpt lat="48.09653" lon="-3.85051">
        <ele>104.1</ele>
        <time>2023-04-05T10:27:42Z</time>
      </trkpt>
      <trkpt lat="48.09658" lon="-3.85048">
        <ele>104.1</ele>
        <time>2023-04-05T10:27:43Z</time>
      </trkpt>
      <trkpt lat="48.09664" lon="-3.85044">
        <ele>104.2</ele>
        <time>2023-04-05T10:27:44Z</time>
      </trkpt>
      <trkpt lat="48.09669" lon="-3.85041">
        <ele>104.2</ele>
        <time>2023-04-05T10:27:45Z</time>
      </trkpt>
      <trkpt lat="48.09675" lon="-3.85037">
        <ele>104.2</ele>
        <time>2023-04-05T10:27:46Z</time>
      </trkpt>
      <trkpt lat="48.09681" lon="-3.85032">
        <ele>104.2</ele>
        <time>2023-04-05T10:27:47Z</time>
      </trkpt>
      <trkpt lat="48.09686" lon="-3.85028">
        <ele>104.2</ele>
        <time>2023-04-05T10:27:48Z</time>
      </trkpt>
      <trkpt lat="48.09692" lon="-3.85024">
        <ele>104.2</ele>
        <time>2023-04-05T10:27:49Z</time>
      </trkpt>
      <trkpt lat="48.09698" lon="-3.8502">
        <ele>104.2</ele>
        <time>2023-04-05T10:27:50Z</time>
      </trkpt>
      <trkpt lat="48.09705" lon="-3.85016">
        <ele>104.3</ele>
        <time>2023-04-05T10:27:51Z</time>
      </trkpt>
      <trkpt lat="48.09711" lon="-3.85013">
        <ele>104.3</ele>
        <time>2023-04-05T10:27:52Z</time>
      </trkpt>
      <trkpt lat="48.09717" lon="-3.85009">
        <ele>104.3</ele>
        <time>2023-04-05T10:27:53Z</time>
      </trkpt>
      <trkpt lat="48.09724" lon="-3.85005">
        <ele>104.3</ele>
        <time>2023-04-05T10:27:54Z</time>
      </trkpt>
      <trkpt lat="48.0973" lon="-3.85002">
        <ele>104.3</ele>
        <time>2023-04-05T10:27:55Z</time>
      </trkpt>
      <trkpt lat="48.09736" lon="-3.84999">
        <ele>104.3</ele>
        <time>2023-04-05T10:27:56Z</time>
      </trkpt>
      <trkpt lat="48.09743" lon="-3.84995">
        <ele>104.2</ele>
        <time>2023-04-05T10:27:57Z</time>
      </trkpt>
      <trkpt lat="48.0975" lon="-3.84992">
        <ele>103.7</ele>
        <time>2023-04-05T10:27:58Z</time>
      </trkpt>
      <trkpt lat="48.09757" lon="-3.84987">
        <ele>103.3</ele>
        <time>2023-04-05T10:27:59Z</time>
      </trkpt>
      <trkpt lat="48.09764" lon="-3.84983">
        <ele>102.9</ele>
        <time>2023-04-05T10:28:00Z</time>
      </trkpt>
      <trkpt lat="48.09771" lon="-3.84979">
        <ele>102.5</ele>
        <time>2023-04-05T10:28:01Z</time>
      </trkpt>
      <trkpt lat="48.09777" lon="-3.84975">
        <ele>102.2</ele>
        <time>2023-04-05T10:28:02Z</time>
      </trkpt>
      <trkpt lat="48.09784" lon="-3.84971">
        <ele>101.8</ele>
        <time>2023-04-05T10:28:03Z</time>
      </trkpt>
      <trkpt lat="48.0979" lon="-3.84968">
        <ele>101.5</ele>
        <time>2023-04-05T10:28:04Z</time>
      </trkpt>
      <trkpt lat="48.09797" lon="-3.84965">
        <ele>101.2</ele>
        <time>2023-04-05T10:28:05Z</time>
      </trkpt>
      <trkpt lat="48.09804" lon="-3.84962">
        <ele>100.9</ele>
        <time>2023-04-05T10:28:06Z</time>
      </trkpt>
      <trkpt lat="48.0981" lon="-3.8496">
        <ele>100.6</ele>
        <time>2023-04-05T10:28:07Z</time>
      </trkpt>
      <trkpt lat="48.09817" lon="-3.84958">
        <ele>100.4</ele>
        <time>2023-04-05T10:28:08Z</time>
      </trkpt>
      <trkpt lat="48.09823" lon="-3.84955">
        <ele>100.1</ele>
        <time>2023-04-05T10:28:09Z</time>
      </trkpt>
      <trkpt lat="48.09829" lon="-3.84952">
        <ele>99.9</ele>
        <time>2023-04-05T10:28:10Z</time>
      </trkpt>
      <trkpt lat="48.09836" lon="-3.84948">
        <ele>99.7</ele>
        <time>2023-04-05T10:28:11Z</time>
      </trkpt>
      <trkpt lat="48.09843" lon="-3.84946">
        <ele>99.5</ele>
        <time>2023-04-05T10:28:12Z</time>
      </trkpt>
      <trkpt lat="48.0985" lon="-3.84944">
        <ele>99.3</ele>
        <time>2023-04-05T10:28:13Z</time>
      </trkpt>
      <trkpt lat="48.09857" lon="-3.84943">
        <ele>99.1</ele>
        <time>2023-04-05T10:28:14Z</time>
      </trkpt>
      <trkpt lat="48.09864" lon="-3.84941">
        <ele>99</ele>
        <time>2023-04-05T10:28:15Z</time>
      </trkpt>
      <trkpt lat="48.09871" lon="-3.8494">
        <ele>98.8</ele>
        <time>2023-04-05T10:28:16Z</time>
      </trkpt>
      <trkpt lat="48.09878" lon="-3.84938">
        <ele>98.7</ele>
        <time>2023-04-05T10:28:17Z</time>
      </trkpt>
      <trkpt lat="48.09885" lon="-3.84937">
        <ele>98.5</ele>
        <time>2023-04-05T10:28:18Z</time>
      </trkpt>
      <trkpt lat="48.09892" lon="-3.84936">
        <ele>98.4</ele>
        <time>2023-04-05T10:28:19Z</time>
      </trkpt>
      <trkpt lat="48.09899" lon="-3.84935">
        <ele>98.3</ele>
        <time>2023-04-05T10:28:20Z</time>
      </trkpt>
      <trkpt lat="48.09906" lon="-3.84935">
        <ele>98.2</ele>
        <time>2023-04-05T10:28:21Z</time>
      </trkpt>
      <trkpt lat="48.09913" lon="-3.84934">
        <ele>98.1</ele>
        <time>2023-04-05T10:28:22Z</time>
      </trkpt>
      <trkpt lat="48.09919" lon="-3.84935">
        <ele>98</ele>
        <time>2023-04-05T10:28:23Z</time>
      </trkpt>
      <trkpt lat="48.09926" lon="-3.84935">
        <ele>98</ele>
        <time>2023-04-05T10:28:24Z</time>
      </trkpt>
      <trkpt lat="48.09932" lon="-3.84935">
        <ele>97.9</ele>
        <time>2023-04-05T10:28:25Z</time>
      </trkpt>
      <trkpt lat="48.09938" lon="-3.84935">
        <ele>97.9</ele>
        <time>2023-04-05T10:28:26Z</time>
      </trkpt>
      <trkpt lat="48.09944" lon="-3.84935">
        <ele>97.9</ele>
        <time>2023-04-05T10:28:27Z</time>
      </trkpt>
      <trkpt lat="48.0995" lon="-3.84935">
        <ele>97.8</ele>
        <time>2023-04-05T10:28:28Z</time>
      </trkpt>
      <trkpt lat="48.09955" lon="-3.84936">
        <ele>97.8</ele>
        <time>2023-04-05T10:28:29Z</time>
      </trkpt>
      <trkpt lat="48.09959" lon="-3.84936">
        <ele>97.8</ele>
        <time>2023-04-05T10:28:30Z</time>
      </trkpt>
      <trkpt lat="48.09962" lon="-3.84936">
        <ele>97.7</ele>
        <time>2023-04-05T10:28:31Z</time>
      </trkpt>
      <trkpt lat="48.09969" lon="-3.84937">
        <ele>97.6</ele>
        <time>2023-04-05T10:28:32Z</time>
      </trkpt>
      <trkpt lat="48.09975" lon="-3.84938">
        <ele>97.6</ele>
        <time>2023-04-05T10:28:33Z</time>
      </trkpt>
      <trkpt lat="48.0998" lon="-3.8494">
        <ele>97.5</ele>
        <time>2023-04-05T10:28:34Z</time>
      </trkpt>
      <trkpt lat="48.09984" lon="-3.84941">
        <ele>97.5</ele>
        <time>2023-04-05T10:28:35Z</time>
      </trkpt>
      <trkpt lat="48.09988" lon="-3.84941">
        <ele>97.5</ele>
        <time>2023-04-05T10:28:36Z</time>
      </trkpt>
      <trkpt lat="48.09992" lon="-3.84941">
        <ele>97.5</ele>
        <time>2023-04-05T10:28:37Z</time>
      </trkpt>
      <trkpt lat="48.09996" lon="-3.84942">
        <ele>97.5</ele>
        <time>2023-04-05T10:28:38Z</time>
      </trkpt>
      <trkpt lat="48.10002" lon="-3.84943">
        <ele>97.6</ele>
        <time>2023-04-05T10:28:39Z</time>
      </trkpt>
      <trkpt lat="48.10005" lon="-3.84943">
        <ele>97.6</ele>
        <time>2023-04-05T10:28:40Z</time>
      </trkpt>
      <trkpt lat="48.1001" lon="-3.84945">
        <ele>97.6</ele>
        <time>2023-04-05T10:28:41Z</time>
      </trkpt>
      <trkpt lat="48.10015" lon="-3.84947">
        <ele>97.6</ele>
        <time>2023-04-05T10:28:42Z</time>
      </trkpt>
      <trkpt lat="48.10018" lon="-3.84947">
        <ele>97.6</ele>
        <time>2023-04-05T10:28:43Z</time>
      </trkpt>
      <trkpt lat="48.10024" lon="-3.8495">
        <ele>97.7</ele>
        <time>2023-04-05T10:28:44Z</time>
      </trkpt>
      <trkpt lat="48.10032" lon="-3.84953">
        <ele>97.8</ele>
        <time>2023-04-05T10:28:46Z</time>
      </trkpt>
      <trkpt lat="48.10035" lon="-3.84954">
        <ele>97.9</ele>
        <time>2023-04-05T10:28:47Z</time>
      </trkpt>
      <trkpt lat="48.10039" lon="-3.84955">
        <ele>97.9</ele>
        <time>2023-04-05T10:28:48Z</time>
      </trkpt>
      <trkpt lat="48.10044" lon="-3.84956">
        <ele>98</ele>
        <time>2023-04-05T10:28:50Z</time>
      </trkpt>
      <trkpt lat="48.10047" lon="-3.84958">
        <ele>98.1</ele>
        <time>2023-04-05T10:28:51Z</time>
      </trkpt>
      <trkpt lat="48.10054" lon="-3.84961">
        <ele>98.3</ele>
        <time>2023-04-05T10:28:52Z</time>
      </trkpt>
      <trkpt lat="48.10058" lon="-3.84962">
        <ele>98.4</ele>
        <time>2023-04-05T10:28:53Z</time>
      </trkpt>
      <trkpt lat="48.10061" lon="-3.84963">
        <ele>98.4</ele>
        <time>2023-04-05T10:28:54Z</time>
      </trkpt>
      <trkpt lat="48.10067" lon="-3.84965">
        <ele>98.5</ele>
        <time>2023-04-05T10:28:56Z</time>
      </trkpt>
      <trkpt lat="48.1007" lon="-3.84966">
        <ele>98.5</ele>
        <time>2023-04-05T10:28:58Z</time>
      </trkpt>
      <trkpt lat="48.10074" lon="-3.84968">
        <ele>98.6</ele>
        <time>2023-04-05T10:28:59Z</time>
      </trkpt>
      <trkpt lat="48.10078" lon="-3.84972">
        <ele>98.6</ele>
        <time>2023-04-05T10:29:00Z</time>
      </trkpt>
      <trkpt lat="48.10082" lon="-3.84974">
        <ele>98.7</ele>
        <time>2023-04-05T10:29:02Z</time>
      </trkpt>
      <trkpt lat="48.10085" lon="-3.84975">
        <ele>98.8</ele>
        <time>2023-04-05T10:29:03Z</time>
      </trkpt>
      <trkpt lat="48.10091" lon="-3.84975">
        <ele>98.9</ele>
        <time>2023-04-05T10:29:04Z</time>
      </trkpt>
      <trkpt lat="48.10094" lon="-3.84976">
        <ele>98.9</ele>
        <time>2023-04-05T10:29:05Z</time>
      </trkpt>
      <trkpt lat="48.10098" lon="-3.84979">
        <ele>98.9</ele>
        <time>2023-04-05T10:29:07Z</time>
      </trkpt>
      <trkpt lat="48.10101" lon="-3.84982">
        <ele>99</ele>
        <time>2023-04-05T10:29:08Z</time>
      </trkpt>
      <trkpt lat="48.10102" lon="-3.84984">
        <ele>99</ele>
        <time>2023-04-05T10:29:09Z</time>
      </trkpt>
      <trkpt lat="48.10103" lon="-3.84984">
        <ele>99</ele>
        <time>2023-04-05T10:29:10Z</time>
      </trkpt>
      <trkpt lat="48.10103" lon="-3.84985">
        <ele>99</ele>
        <time>2023-04-05T10:29:11Z</time>
      </trkpt>
      <trkpt lat="48.10104" lon="-3.84985">
        <ele>99</ele>
        <time>2023-04-05T10:29:12Z</time>
      </trkpt>
      <trkpt lat="48.10105" lon="-3.84985">
        <ele>99</ele>
        <time>2023-04-05T10:29:14Z</time>
      </trkpt>
      <trkpt lat="48.10106" lon="-3.84986">
        <ele>99</ele>
        <time>2023-04-05T10:29:15Z</time>
      </trkpt>
      <trkpt lat="48.10106" lon="-3.84986">
        <ele>99</ele>
        <time>2023-04-05T10:29:16Z</time>
      </trkpt>
      <trkpt lat="48.10107" lon="-3.84987">
        <ele>99</ele>
        <time>2023-04-05T10:29:17Z</time>
      </trkpt>
      <trkpt lat="48.10108" lon="-3.84987">
        <ele>99</ele>
        <time>2023-04-05T10:29:18Z</time>
      </trkpt>
      <trkpt lat="48.10108" lon="-3.84987">
        <ele>99</ele>
        <time>2023-04-05T10:29:19Z</time>
      </trkpt>
      <trkpt lat="48.10109" lon="-3.84988">
        <ele>99</ele>
        <time>2023-04-05T10:29:20Z</time>
      </trkpt>
      <trkpt lat="48.1011" lon="-3.84988">
        <ele>99</ele>
        <time>2023-04-05T10:29:45Z</time>
      </trkpt>
      <trkpt lat="48.1011" lon="-3.84988">
        <ele>99</ele>
        <time>2023-04-05T10:29:46Z</time>
      </trkpt>
      <trkpt lat="48.10111" lon="-3.84989">
        <ele>99</ele>
        <time>2023-04-05T10:29:47Z</time>
      </trkpt>
      <trkpt lat="48.10114" lon="-3.8499">
        <ele>99.1</ele>
        <time>2023-04-05T10:29:48Z</time>
      </trkpt>
      <trkpt lat="48.10117" lon="-3.84992">
        <ele>99.1</ele>
        <time>2023-04-05T10:29:49Z</time>
      </trkpt>
      <trkpt lat="48.1012" lon="-3.84995">
        <ele>99.1</ele>
        <time>2023-04-05T10:29:50Z</time>
      </trkpt>
      <trkpt lat="48.10122" lon="-3.84997">
        <ele>99.2</ele>
        <time>2023-04-05T10:29:51Z</time>
      </trkpt>
      <trkpt lat="48.10126" lon="-3.84999">
        <ele>99.2</ele>
        <time>2023-04-05T10:29:52Z</time>
      </trkpt>
      <trkpt lat="48.10129" lon="-3.85002">
        <ele>99.3</ele>
        <time>2023-04-05T10:29:53Z</time>
      </trkpt>
      <trkpt lat="48.10132" lon="-3.85005">
        <ele>99.4</ele>
        <time>2023-04-05T10:29:54Z</time>
      </trkpt>
      <trkpt lat="48.10136" lon="-3.85007">
        <ele>99.4</ele>
        <time>2023-04-05T10:29:55Z</time>
      </trkpt>
      <trkpt lat="48.10139" lon="-3.85009">
        <ele>99.5</ele>
        <time>2023-04-05T10:29:56Z</time>
      </trkpt>
      <trkpt lat="48.10142" lon="-3.85011">
        <ele>99.6</ele>
        <time>2023-04-05T10:29:57Z</time>
      </trkpt>
      <trkpt lat="48.10145" lon="-3.85013">
        <ele>99.6</ele>
        <time>2023-04-05T10:29:58Z</time>
      </trkpt>
      <trkpt lat="48.10148" lon="-3.85015">
        <ele>99.7</ele>
        <time>2023-04-05T10:29:59Z</time>
      </trkpt>
      <trkpt lat="48.10152" lon="-3.85018">
        <ele>99.7</ele>
        <time>2023-04-05T10:30:00Z</time>
      </trkpt>
      <trkpt lat="48.10156" lon="-3.8502">
        <ele>99.7</ele>
        <time>2023-04-05T10:30:01Z</time>
      </trkpt>
      <trkpt lat="48.10159" lon="-3.85022">
        <ele>99.7</ele>
        <time>2023-04-05T10:30:02Z</time>
      </trkpt>
      <trkpt lat="48.10163" lon="-3.85024">
        <ele>99.8</ele>
        <time>2023-04-05T10:30:03Z</time>
      </trkpt>
      <trkpt lat="48.10167" lon="-3.85026">
        <ele>99.8</ele>
        <time>2023-04-05T10:30:04Z</time>
      </trkpt>
      <trkpt lat="48.10171" lon="-3.85029">
        <ele>99.9</ele>
        <time>2023-04-05T10:30:05Z</time>
      </trkpt>
      <trkpt lat="48.10174" lon="-3.85031">
        <ele>99.9</ele>
        <time>2023-04-05T10:30:06Z</time>
      </trkpt>
      <trkpt lat="48.10178" lon="-3.85034">
        <ele>100</ele>
        <time>2023-04-05T10:30:07Z</time>
      </trkpt>
      <trkpt lat="48.10182" lon="-3.85037">
        <ele>100</ele>
        <time>2023-04-05T10:30:08Z</time>
      </trkpt>
      <trkpt lat="48.10185" lon="-3.85039">
        <ele>100.1</ele>
        <time>2023-04-05T10:30:09Z</time>
      </trkpt>
      <trkpt lat="48.10189" lon="-3.85042">
        <ele>100.1</ele>
        <time>2023-04-05T10:30:10Z</time>
      </trkpt>
      <trkpt lat="48.10193" lon="-3.85044">
        <ele>100.2</ele>
        <time>2023-04-05T10:30:11Z</time>
      </trkpt>
      <trkpt lat="48.10196" lon="-3.85047">
        <ele>100.3</ele>
        <time>2023-04-05T10:30:12Z</time>
      </trkpt>
      <trkpt lat="48.102" lon="-3.85049">
        <ele>100.3</ele>
        <time>2023-04-05T10:30:13Z</time>
      </trkpt>
      <trkpt lat="48.10204" lon="-3.85051">
        <ele>100.3</ele>
        <time>2023-04-05T10:30:14Z</time>
      </trkpt>
      <trkpt lat="48.10207" lon="-3.85054">
        <ele>100.3</ele>
        <time>2023-04-05T10:30:15Z</time>
      </trkpt>
      <trkpt lat="48.10211" lon="-3.85057">
        <ele>100.3</ele>
        <time>2023-04-05T10:30:16Z</time>
      </trkpt>
      <trkpt lat="48.10215" lon="-3.8506">
        <ele>100.3</ele>
        <time>2023-04-05T10:30:17Z</time>
      </trkpt>
      <trkpt lat="48.10218" lon="-3.85062">
        <ele>100.3</ele>
        <time>2023-04-05T10:30:18Z</time>
      </trkpt>
      <trkpt lat="48.10222" lon="-3.85065">
        <ele>100.3</ele>
        <time>2023-04-05T10:30:19Z</time>
      </trkpt>
      <trkpt lat="48.10226" lon="-3.85068">
        <ele>100.3</ele>
        <time>2023-04-05T10:30:20Z</time>
      </trkpt>
      <trkpt lat="48.10229" lon="-3.8507">
        <ele>100.3</ele>
        <time>2023-04-05T10:30:21Z</time>
      </trkpt>
      <trkpt lat="48.10233" lon="-3.85073">
        <ele>100.4</ele>
        <time>2023-04-05T10:30:22Z</time>
      </trkpt>
      <trkpt lat="48.10237" lon="-3.85076">
        <ele>100.4</ele>
        <time>2023-04-05T10:30:23Z</time>
      </trkpt>
      <trkpt lat="48.10241" lon="-3.85078">
        <ele>100.5</ele>
        <time>2023-04-05T10:30:24Z</time>
      </trkpt>
      <trkpt lat="48.10246" lon="-3.85083">
        <ele>100.6</ele>
        <time>2023-04-05T10:30:25Z</time>
      </trkpt>
      <trkpt lat="48.10251" lon="-3.85086">
        <ele>100.6</ele>
        <time>2023-04-05T10:30:27Z</time>
      </trkpt>
      <trkpt lat="48.10255" lon="-3.85088">
        <ele>100.7</ele>
        <time>2023-04-05T10:30:28Z</time>
      </trkpt>
      <trkpt lat="48.10258" lon="-3.8509">
        <ele>100.7</ele>
        <time>2023-04-05T10:30:29Z</time>
      </trkpt>
      <trkpt lat="48.10262" lon="-3.85093">
        <ele>100.8</ele>
        <time>2023-04-05T10:30:30Z</time>
      </trkpt>
      <trkpt lat="48.10266" lon="-3.85096">
        <ele>100.8</ele>
        <time>2023-04-05T10:30:31Z</time>
      </trkpt>
      <trkpt lat="48.10269" lon="-3.85099">
        <ele>100.8</ele>
        <time>2023-04-05T10:30:32Z</time>
      </trkpt>
      <trkpt lat="48.10272" lon="-3.85102">
        <ele>100.8</ele>
        <time>2023-04-05T10:30:33Z</time>
      </trkpt>
      <trkpt lat="48.10276" lon="-3.85105">
        <ele>100.8</ele>
        <time>2023-04-05T10:30:34Z</time>
      </trkpt>
      <trkpt lat="48.1028" lon="-3.85108">
        <ele>100.8</ele>
        <time>2023-04-05T10:30:35Z</time>
      </trkpt>
      <trkpt lat="48.10283" lon="-3.8511">
        <ele>100.8</ele>
        <time>2023-04-05T10:30:36Z</time>
      </trkpt>
      <trkpt lat="48.10288" lon="-3.85113">
        <ele>100.9</ele>
        <time>2023-04-05T10:30:37Z</time>
      </trkpt>
      <trkpt lat="48.10291" lon="-3.85115">
        <ele>100.9</ele>
        <time>2023-04-05T10:30:38Z</time>
      </trkpt>
      <trkpt lat="48.10295" lon="-3.85118">
        <ele>101</ele>
        <time>2023-04-05T10:30:39Z</time>
      </trkpt>
      <trkpt lat="48.10298" lon="-3.8512">
        <ele>101.1</ele>
        <time>2023-04-05T10:30:40Z</time>
      </trkpt>
      <trkpt lat="48.10302" lon="-3.85123">
        <ele>101.2</ele>
        <time>2023-04-05T10:30:41Z</time>
      </trkpt>
      <trkpt lat="48.10305" lon="-3.85125">
        <ele>101.3</ele>
        <time>2023-04-05T10:30:42Z</time>
      </trkpt>
      <trkpt lat="48.10308" lon="-3.85127">
        <ele>101.4</ele>
        <time>2023-04-05T10:30:43Z</time>
      </trkpt>
      <trkpt lat="48.10312" lon="-3.8513">
        <ele>101.5</ele>
        <time>2023-04-05T10:30:44Z</time>
      </trkpt>
      <trkpt lat="48.10316" lon="-3.85133">
        <ele>101.6</ele>
        <time>2023-04-05T10:30:45Z</time>
      </trkpt>
      <trkpt lat="48.10319" lon="-3.85135">
        <ele>101.7</ele>
        <time>2023-04-05T10:30:46Z</time>
      </trkpt>
      <trkpt lat="48.10323" lon="-3.85138">
        <ele>101.7</ele>
        <time>2023-04-05T10:30:47Z</time>
      </trkpt>
      <trkpt lat="48.10326" lon="-3.85141">
        <ele>101.8</ele>
        <time>2023-04-05T10:30:48Z</time>
      </trkpt>
      <trkpt lat="48.1033" lon="-3.85144">
        <ele>101.8</ele>
        <time>2023-04-05T10:30:49Z</time>
      </trkpt>
      <trkpt lat="48.10334" lon="-3.85147">
        <ele>101.8</ele>
        <time>2023-04-05T10:30:50Z</time>
      </trkpt>
      <trkpt lat="48.10337" lon="-3.8515">
        <ele>101.9</ele>
        <time>2023-04-05T10:30:51Z</time>
      </trkpt>
      <trkpt lat="48.10341" lon="-3.85153">
        <ele>101.9</ele>
        <time>2023-04-05T10:30:52Z</time>
      </trkpt>
      <trkpt lat="48.10345" lon="-3.85155">
        <ele>102</ele>
        <time>2023-04-05T10:30:53Z</time>
      </trkpt>
      <trkpt lat="48.10349" lon="-3.85157">
        <ele>102.1</ele>
        <time>2023-04-05T10:30:54Z</time>
      </trkpt>
      <trkpt lat="48.10352" lon="-3.85159">
        <ele>102.1</ele>
        <time>2023-04-05T10:30:55Z</time>
      </trkpt>
      <trkpt lat="48.10355" lon="-3.85162">
        <ele>102.2</ele>
        <time>2023-04-05T10:30:56Z</time>
      </trkpt>
      <trkpt lat="48.10359" lon="-3.85165">
        <ele>102.3</ele>
        <time>2023-04-05T10:30:57Z</time>
      </trkpt>
      <trkpt lat="48.10363" lon="-3.85167">
        <ele>102.4</ele>
        <time>2023-04-05T10:30:58Z</time>
      </trkpt>
      <trkpt lat="48.10366" lon="-3.8517">
        <ele>102.5</ele>
        <time>2023-04-05T10:30:59Z</time>
      </trkpt>
      <trkpt lat="48.1037" lon="-3.85172">
        <ele>102.6</ele>
        <time>2023-04-05T10:31:00Z</time>
      </trkpt>
      <trkpt lat="48.10374" lon="-3.85174">
        <ele>102.7</ele>
        <time>2023-04-05T10:31:01Z</time>
      </trkpt>
      <trkpt lat="48.10377" lon="-3.85177">
        <ele>102.8</ele>
        <time>2023-04-05T10:31:02Z</time>
      </trkpt>
      <trkpt lat="48.10382" lon="-3.85181">
        <ele>102.9</ele>
        <time>2023-04-05T10:31:03Z</time>
      </trkpt>
      <trkpt lat="48.10385" lon="-3.85184">
        <ele>103</ele>
        <time>2023-04-05T10:31:05Z</time>
      </trkpt>
      <trkpt lat="48.10388" lon="-3.85187">
        <ele>103.1</ele>
        <time>2023-04-05T10:31:06Z</time>
      </trkpt>
      <trkpt lat="48.10391" lon="-3.8519">
        <ele>103.2</ele>
        <time>2023-04-05T10:31:07Z</time>
      </trkpt>
      <trkpt lat="48.10394" lon="-3.85193">
        <ele>103.3</ele>
        <time>2023-04-05T10:31:08Z</time>
      </trkpt>
      <trkpt lat="48.10397" lon="-3.85196">
        <ele>103.4</ele>
        <time>2023-04-05T10:31:09Z</time>
      </trkpt>
      <trkpt lat="48.10403" lon="-3.85203">
        <ele>103.6</ele>
        <time>2023-04-05T10:31:10Z</time>
      </trkpt>
      <trkpt lat="48.10405" lon="-3.85207">
        <ele>103.7</ele>
        <time>2023-04-05T10:31:11Z</time>
      </trkpt>
      <trkpt lat="48.10408" lon="-3.85211">
        <ele>103.8</ele>
        <time>2023-04-05T10:31:12Z</time>
      </trkpt>
      <trkpt lat="48.10413" lon="-3.85219">
        <ele>104</ele>
        <time>2023-04-05T10:31:14Z</time>
      </trkpt>
      <trkpt lat="48.10418" lon="-3.85227">
        <ele>104.1</ele>
        <time>2023-04-05T10:31:16Z</time>
      </trkpt>
      <trkpt lat="48.10421" lon="-3.85231">
        <ele>104.1</ele>
        <time>2023-04-05T10:31:18Z</time>
      </trkpt>
      <trkpt lat="48.10424" lon="-3.85234">
        <ele>104.2</ele>
        <time>2023-04-05T10:31:19Z</time>
      </trkpt>
      <trkpt lat="48.10427" lon="-3.85238">
        <ele>104.4</ele>
        <time>2023-04-05T10:31:20Z</time>
      </trkpt>
      <trkpt lat="48.1043" lon="-3.85242">
        <ele>104.5</ele>
        <time>2023-04-05T10:31:21Z</time>
      </trkpt>
      <trkpt lat="48.10432" lon="-3.85246">
        <ele>104.6</ele>
        <time>2023-04-05T10:31:22Z</time>
      </trkpt>
      <trkpt lat="48.10433" lon="-3.85251">
        <ele>104.7</ele>
        <time>2023-04-05T10:31:23Z</time>
      </trkpt>
      <trkpt lat="48.10434" lon="-3.85255">
        <ele>104.8</ele>
        <time>2023-04-05T10:31:24Z</time>
      </trkpt>
      <trkpt lat="48.10435" lon="-3.8526">
        <ele>104.9</ele>
        <time>2023-04-05T10:31:25Z</time>
      </trkpt>
      <trkpt lat="48.10437" lon="-3.85264">
        <ele>105</ele>
        <time>2023-04-05T10:31:26Z</time>
      </trkpt>
      <trkpt lat="48.10439" lon="-3.85269">
        <ele>105.1</ele>
        <time>2023-04-05T10:31:27Z</time>
      </trkpt>
      <trkpt lat="48.10441" lon="-3.85273">
        <ele>105.2</ele>
        <time>2023-04-05T10:31:28Z</time>
      </trkpt>
      <trkpt lat="48.10443" lon="-3.85278">
        <ele>105.3</ele>
        <time>2023-04-05T10:31:29Z</time>
      </trkpt>
      <trkpt lat="48.10445" lon="-3.85283">
        <ele>105.4</ele>
        <time>2023-04-05T10:31:30Z</time>
      </trkpt>
      <trkpt lat="48.10446" lon="-3.85288">
        <ele>105.5</ele>
        <time>2023-04-05T10:31:31Z</time>
      </trkpt>
      <trkpt lat="48.10448" lon="-3.85294">
        <ele>105.6</ele>
        <time>2023-04-05T10:31:32Z</time>
      </trkpt>
      <trkpt lat="48.10449" lon="-3.85299">
        <ele>105.7</ele>
        <time>2023-04-05T10:31:33Z</time>
      </trkpt>
      <trkpt lat="48.10451" lon="-3.85304">
        <ele>105.9</ele>
        <time>2023-04-05T10:31:34Z</time>
      </trkpt>
      <trkpt lat="48.10452" lon="-3.85309">
        <ele>106</ele>
        <time>2023-04-05T10:31:35Z</time>
      </trkpt>
      <trkpt lat="48.10453" lon="-3.85314">
        <ele>106.1</ele>
        <time>2023-04-05T10:31:36Z</time>
      </trkpt>
      <trkpt lat="48.10455" lon="-3.85319">
        <ele>106.2</ele>
        <time>2023-04-05T10:31:37Z</time>
      </trkpt>
      <trkpt lat="48.10456" lon="-3.85324">
        <ele>106.3</ele>
        <time>2023-04-05T10:31:38Z</time>
      </trkpt>
      <trkpt lat="48.10458" lon="-3.8533">
        <ele>106.5</ele>
        <time>2023-04-05T10:31:39Z</time>
      </trkpt>
      <trkpt lat="48.10459" lon="-3.85335">
        <ele>106.6</ele>
        <time>2023-04-05T10:31:40Z</time>
      </trkpt>
      <trkpt lat="48.10461" lon="-3.85341">
        <ele>106.7</ele>
        <time>2023-04-05T10:31:41Z</time>
      </trkpt>
      <trkpt lat="48.10462" lon="-3.85348">
        <ele>106.9</ele>
        <time>2023-04-05T10:31:42Z</time>
      </trkpt>
      <trkpt lat="48.10463" lon="-3.85353">
        <ele>107</ele>
        <time>2023-04-05T10:31:43Z</time>
      </trkpt>
      <trkpt lat="48.10465" lon="-3.85359">
        <ele>107.1</ele>
        <time>2023-04-05T10:31:44Z</time>
      </trkpt>
      <trkpt lat="48.10466" lon="-3.85364">
        <ele>107.2</ele>
        <time>2023-04-05T10:31:45Z</time>
      </trkpt>
      <trkpt lat="48.10467" lon="-3.85369">
        <ele>107.3</ele>
        <time>2023-04-05T10:31:46Z</time>
      </trkpt>
      <trkpt lat="48.10469" lon="-3.85374">
        <ele>107.4</ele>
        <time>2023-04-05T10:31:47Z</time>
      </trkpt>
      <trkpt lat="48.1047" lon="-3.8538">
        <ele>107.6</ele>
        <time>2023-04-05T10:31:48Z</time>
      </trkpt>
      <trkpt lat="48.10472" lon="-3.85385">
        <ele>107.7</ele>
        <time>2023-04-05T10:31:49Z</time>
      </trkpt>
      <trkpt lat="48.10473" lon="-3.85391">
        <ele>107.8</ele>
        <time>2023-04-05T10:31:50Z</time>
      </trkpt>
      <trkpt lat="48.10475" lon="-3.85396">
        <ele>107.9</ele>
        <time>2023-04-05T10:31:51Z</time>
      </trkpt>
      <trkpt lat="48.10476" lon="-3.85401">
        <ele>108</ele>
        <time>2023-04-05T10:31:52Z</time>
      </trkpt>
      <trkpt lat="48.10478" lon="-3.85406">
        <ele>108.1</ele>
        <time>2023-04-05T10:31:53Z</time>
      </trkpt>
      <trkpt lat="48.1048" lon="-3.85411">
        <ele>108.3</ele>
        <time>2023-04-05T10:31:54Z</time>
      </trkpt>
      <trkpt lat="48.10481" lon="-3.85417">
        <ele>108.4</ele>
        <time>2023-04-05T10:31:55Z</time>
      </trkpt>
      <trkpt lat="48.10483" lon="-3.85422">
        <ele>108.5</ele>
        <time>2023-04-05T10:31:56Z</time>
      </trkpt>
      <trkpt lat="48.10485" lon="-3.85427">
        <ele>108.6</ele>
        <time>2023-04-05T10:31:57Z</time>
      </trkpt>
      <trkpt lat="48.10487" lon="-3.85431">
        <ele>108.7</ele>
        <time>2023-04-05T10:31:58Z</time>
      </trkpt>
      <trkpt lat="48.10489" lon="-3.85437">
        <ele>108.8</ele>
        <time>2023-04-05T10:31:59Z</time>
      </trkpt>
      <trkpt lat="48.10491" lon="-3.85441">
        <ele>108.9</ele>
        <time>2023-04-05T10:32:00Z</time>
      </trkpt>
      <trkpt lat="48.10494" lon="-3.85448">
        <ele>109.1</ele>
        <time>2023-04-05T10:32:01Z</time>
      </trkpt>
      <trkpt lat="48.10496" lon="-3.85452">
        <ele>109.2</ele>
        <time>2023-04-05T10:32:02Z</time>
      </trkpt>
      <trkpt lat="48.10498" lon="-3.85456">
        <ele>109.3</ele>
        <time>2023-04-05T10:32:03Z</time>
      </trkpt>
      <trkpt lat="48.105" lon="-3.8546">
        <ele>109.4</ele>
        <time>2023-04-05T10:32:04Z</time>
      </trkpt>
      <trkpt lat="48.10502" lon="-3.85465">
        <ele>109.5</ele>
        <time>2023-04-05T10:32:05Z</time>
      </trkpt>
      <trkpt lat="48.10505" lon="-3.85469">
        <ele>109.6</ele>
        <time>2023-04-05T10:32:06Z</time>
      </trkpt>
      <trkpt lat="48.1051" lon="-3.85478">
        <ele>109.8</ele>
        <time>2023-04-05T10:32:07Z</time>
      </trkpt>
      <trkpt lat="48.10512" lon="-3.85481">
        <ele>110</ele>
        <time>2023-04-05T10:32:08Z</time>
      </trkpt>
      <trkpt lat="48.10513" lon="-3.85482">
        <ele>110</ele>
        <time>2023-04-05T10:32:09Z</time>
      </trkpt>
      <trkpt lat="48.10516" lon="-3.85487">
        <ele>110.1</ele>
        <time>2023-04-05T10:32:10Z</time>
      </trkpt>
      <trkpt lat="48.1052" lon="-3.85493">
        <ele>110.3</ele>
        <time>2023-04-05T10:32:11Z</time>
      </trkpt>
      <trkpt lat="48.10522" lon="-3.85497">
        <ele>110.4</ele>
        <time>2023-04-05T10:32:12Z</time>
      </trkpt>
      <trkpt lat="48.10524" lon="-3.855">
        <ele>110.5</ele>
        <time>2023-04-05T10:32:13Z</time>
      </trkpt>
      <trkpt lat="48.10527" lon="-3.85504">
        <ele>110.6</ele>
        <time>2023-04-05T10:32:14Z</time>
      </trkpt>
      <trkpt lat="48.1053" lon="-3.85508">
        <ele>110.7</ele>
        <time>2023-04-05T10:32:15Z</time>
      </trkpt>
      <trkpt lat="48.10534" lon="-3.85513">
        <ele>110.9</ele>
        <time>2023-04-05T10:32:16Z</time>
      </trkpt>
      <trkpt lat="48.10536" lon="-3.85516">
        <ele>111</ele>
        <time>2023-04-05T10:32:17Z</time>
      </trkpt>
      <trkpt lat="48.10539" lon="-3.85519">
        <ele>111.1</ele>
        <time>2023-04-05T10:32:18Z</time>
      </trkpt>
      <trkpt lat="48.10542" lon="-3.85522">
        <ele>111.3</ele>
        <time>2023-04-05T10:32:19Z</time>
      </trkpt>
      <trkpt lat="48.10545" lon="-3.85526">
        <ele>111.4</ele>
        <time>2023-04-05T10:32:20Z</time>
      </trkpt>
      <trkpt lat="48.10548" lon="-3.85529">
        <ele>111.6</ele>
        <time>2023-04-05T10:32:21Z</time>
      </trkpt>
      <trkpt lat="48.10551" lon="-3.85532">
        <ele>111.7</ele>
        <time>2023-04-05T10:32:22Z</time>
      </trkpt>
      <trkpt lat="48.10554" lon="-3.85535">
        <ele>111.8</ele>
        <time>2023-04-05T10:32:23Z</time>
      </trkpt>
      <trkpt lat="48.10557" lon="-3.85538">
        <ele>111.9</ele>
        <time>2023-04-05T10:32:24Z</time>
      </trkpt>
      <trkpt lat="48.1056" lon="-3.85541">
        <ele>112</ele>
        <time>2023-04-05T10:32:25Z</time>
      </trkpt>
      <trkpt lat="48.10563" lon="-3.85544">
        <ele>112.1</ele>
        <time>2023-04-05T10:32:26Z</time>
      </trkpt>
      <trkpt lat="48.10567" lon="-3.85546">
        <ele>112.2</ele>
        <time>2023-04-05T10:32:27Z</time>
      </trkpt>
      <trkpt lat="48.1057" lon="-3.85549">
        <ele>112.2</ele>
        <time>2023-04-05T10:32:28Z</time>
      </trkpt>
      <trkpt lat="48.10573" lon="-3.85552">
        <ele>112.3</ele>
        <time>2023-04-05T10:32:29Z</time>
      </trkpt>
      <trkpt lat="48.10576" lon="-3.85554">
        <ele>112.4</ele>
        <time>2023-04-05T10:32:30Z</time>
      </trkpt>
      <trkpt lat="48.10579" lon="-3.85557">
        <ele>112.5</ele>
        <time>2023-04-05T10:32:31Z</time>
      </trkpt>
      <trkpt lat="48.10583" lon="-3.85559">
        <ele>112.6</ele>
        <time>2023-04-05T10:32:32Z</time>
      </trkpt>
      <trkpt lat="48.10586" lon="-3.85562">
        <ele>112.7</ele>
        <time>2023-04-05T10:32:33Z</time>
      </trkpt>
      <trkpt lat="48.10589" lon="-3.85564">
        <ele>112.8</ele>
        <time>2023-04-05T10:32:34Z</time>
      </trkpt>
      <trkpt lat="48.10592" lon="-3.85567">
        <ele>112.9</ele>
        <time>2023-04-05T10:32:35Z</time>
      </trkpt>
      <trkpt lat="48.10596" lon="-3.85569">
        <ele>113</ele>
        <time>2023-04-05T10:32:36Z</time>
      </trkpt>
      <trkpt lat="48.106" lon="-3.85571">
        <ele>113.1</ele>
        <time>2023-04-05T10:32:37Z</time>
      </trkpt>
      <trkpt lat="48.10605" lon="-3.85573">
        <ele>113.2</ele>
        <time>2023-04-05T10:32:38Z</time>
      </trkpt>
      <trkpt lat="48.10608" lon="-3.85575">
        <ele>113.3</ele>
        <time>2023-04-05T10:32:39Z</time>
      </trkpt>
      <trkpt lat="48.10611" lon="-3.85576">
        <ele>113.5</ele>
        <time>2023-04-05T10:32:40Z</time>
      </trkpt>
      <trkpt lat="48.10614" lon="-3.85577">
        <ele>113.6</ele>
        <time>2023-04-05T10:32:41Z</time>
      </trkpt>
      <trkpt lat="48.10617" lon="-3.85578">
        <ele>113.7</ele>
        <time>2023-04-05T10:32:42Z</time>
      </trkpt>
      <trkpt lat="48.10623" lon="-3.8558">
        <ele>113.9</ele>
        <time>2023-04-05T10:32:43Z</time>
      </trkpt>
      <trkpt lat="48.10626" lon="-3.85581">
        <ele>114</ele>
        <time>2023-04-05T10:32:44Z</time>
      </trkpt>
      <trkpt lat="48.10629" lon="-3.85582">
        <ele>114.2</ele>
        <time>2023-04-05T10:32:45Z</time>
      </trkpt>
      <trkpt lat="48.10632" lon="-3.85584">
        <ele>114.3</ele>
        <time>2023-04-05T10:32:46Z</time>
      </trkpt>
      <trkpt lat="48.10637" lon="-3.85584">
        <ele>114.5</ele>
        <time>2023-04-05T10:32:47Z</time>
      </trkpt>
      <trkpt lat="48.10638" lon="-3.85585">
        <ele>114.6</ele>
        <time>2023-04-05T10:32:48Z</time>
      </trkpt>
      <trkpt lat="48.10641" lon="-3.85586">
        <ele>114.8</ele>
        <time>2023-04-05T10:32:49Z</time>
      </trkpt>
      <trkpt lat="48.10644" lon="-3.85587">
        <ele>115</ele>
        <time>2023-04-05T10:32:50Z</time>
        <extensions>
          <visugpx:TrkExtension xmlns:visugpx="https://www.visugpx.com/editgpx/">
            <visugpx:node>1</visugpx:node>
            </visugpx:TrkExtension>
        </extensions>
      </trkpt>
      <trkpt lat="48.1065" lon="-3.85587">
        <ele>115.1</ele>
        <time>2023-04-05T10:38:35Z</time>
      </trkpt>
      <trkpt lat="48.10652" lon="-3.85572">
        <ele>114.3</ele>
        <time>2023-04-05T10:38:36Z</time>
      </trkpt>
      <trkpt lat="48.10654" lon="-3.85557">
        <ele>113.3</ele>
        <time>2023-04-05T10:38:37Z</time>
      </trkpt>
      <trkpt lat="48.10656" lon="-3.85541">
        <ele>112.4</ele>
        <time>2023-04-05T10:38:38Z</time>
      </trkpt>
      <trkpt lat="48.10658" lon="-3.85525">
        <ele>111.4</ele>
        <time>2023-04-05T10:38:39Z</time>
      </trkpt>
      <trkpt lat="48.1066" lon="-3.85508">
        <ele>110.5</ele>
        <time>2023-04-05T10:38:40Z</time>
      </trkpt>
      <trkpt lat="48.10663" lon="-3.85492">
        <ele>109.5</ele>
        <time>2023-04-05T10:38:41Z</time>
      </trkpt>
      <trkpt lat="48.10665" lon="-3.85475">
        <ele>108.5</ele>
        <time>2023-04-05T10:38:42Z</time>
      </trkpt>
      <trkpt lat="48.10668" lon="-3.85459">
        <ele>107.6</ele>
        <time>2023-04-05T10:38:43Z</time>
      </trkpt>
      <trkpt lat="48.10671" lon="-3.85442">
        <ele>106.7</ele>
        <time>2023-04-05T10:38:44Z</time>
      </trkpt>
      <trkpt lat="48.10674" lon="-3.85425">
        <ele>105.9</ele>
        <time>2023-04-05T10:38:45Z</time>
      </trkpt>
      <trkpt lat="48.10676" lon="-3.85408">
        <ele>105.2</ele>
        <time>2023-04-05T10:38:46Z</time>
      </trkpt>
      <trkpt lat="48.10678" lon="-3.85391">
        <ele>104.5</ele>
        <time>2023-04-05T10:38:47Z</time>
      </trkpt>
      <trkpt lat="48.10679" lon="-3.85374">
        <ele>103.8</ele>
        <time>2023-04-05T10:38:48Z</time>
      </trkpt>
      <trkpt lat="48.10681" lon="-3.85357">
        <ele>103.2</ele>
        <time>2023-04-05T10:38:49Z</time>
      </trkpt>
      <trkpt lat="48.10682" lon="-3.8534">
        <ele>102.6</ele>
        <time>2023-04-05T10:38:50Z</time>
      </trkpt>
      <trkpt lat="48.10683" lon="-3.85323">
        <ele>102.2</ele>
        <time>2023-04-05T10:38:51Z</time>
      </trkpt>
      <trkpt lat="48.10685" lon="-3.85307">
        <ele>101.9</ele>
        <time>2023-04-05T10:38:52Z</time>
      </trkpt>
      <trkpt lat="48.10687" lon="-3.85291">
        <ele>101.7</ele>
        <time>2023-04-05T10:38:53Z</time>
      </trkpt>
      <trkpt lat="48.10689" lon="-3.85275">
        <ele>101.6</ele>
        <time>2023-04-05T10:38:54Z</time>
      </trkpt>
      <trkpt lat="48.10692" lon="-3.85261">
        <ele>101.5</ele>
        <time>2023-04-05T10:38:55Z</time>
      </trkpt>
      <trkpt lat="48.10696" lon="-3.85247">
        <ele>101.5</ele>
        <time>2023-04-05T10:38:56Z</time>
      </trkpt>
      <trkpt lat="48.107" lon="-3.85234">
        <ele>101.6</ele>
        <time>2023-04-05T10:38:57Z</time>
      </trkpt>
      <trkpt lat="48.10704" lon="-3.85221">
        <ele>101.7</ele>
        <time>2023-04-05T10:38:58Z</time>
      </trkpt>
      <trkpt lat="48.10707" lon="-3.85209">
        <ele>102</ele>
        <time>2023-04-05T10:38:59Z</time>
      </trkpt>
      <trkpt lat="48.10711" lon="-3.85197">
        <ele>102.3</ele>
        <time>2023-04-05T10:39:00Z</time>
      </trkpt>
      <trkpt lat="48.10714" lon="-3.85187">
        <ele>102.6</ele>
        <time>2023-04-05T10:39:01Z</time>
      </trkpt>
      <trkpt lat="48.10717" lon="-3.85177">
        <ele>103</ele>
        <time>2023-04-05T10:39:02Z</time>
      </trkpt>
      <trkpt lat="48.1072" lon="-3.85167">
        <ele>103.3</ele>
        <time>2023-04-05T10:39:03Z</time>
      </trkpt>
      <trkpt lat="48.10722" lon="-3.85157">
        <ele>103.6</ele>
        <time>2023-04-05T10:39:04Z</time>
      </trkpt>
      <trkpt lat="48.10724" lon="-3.85148">
        <ele>104</ele>
        <time>2023-04-05T10:39:05Z</time>
      </trkpt>
      <trkpt lat="48.10727" lon="-3.8514">
        <ele>104.3</ele>
        <time>2023-04-05T10:39:06Z</time>
      </trkpt>
      <trkpt lat="48.10729" lon="-3.85131">
        <ele>104.6</ele>
        <time>2023-04-05T10:39:07Z</time>
      </trkpt>
      <trkpt lat="48.10732" lon="-3.85123">
        <ele>104.9</ele>
        <time>2023-04-05T10:39:08Z</time>
      </trkpt>
      <trkpt lat="48.10734" lon="-3.85114">
        <ele>105.3</ele>
        <time>2023-04-05T10:39:09Z</time>
      </trkpt>
      <trkpt lat="48.10736" lon="-3.85107">
        <ele>105.6</ele>
        <time>2023-04-05T10:39:10Z</time>
      </trkpt>
      <trkpt lat="48.10738" lon="-3.851">
        <ele>105.9</ele>
        <time>2023-04-05T10:39:11Z</time>
      </trkpt>
      <trkpt lat="48.1074" lon="-3.85092">
        <ele>106.2</ele>
        <time>2023-04-05T10:39:12Z</time>
      </trkpt>
      <trkpt lat="48.10742" lon="-3.85085">
        <ele>106.5</ele>
        <time>2023-04-05T10:39:13Z</time>
      </trkpt>
      <trkpt lat="48.10744" lon="-3.85079">
        <ele>106.8</ele>
        <time>2023-04-05T10:39:14Z</time>
      </trkpt>
      <trkpt lat="48.10746" lon="-3.85072">
        <ele>107.1</ele>
        <time>2023-04-05T10:39:15Z</time>
      </trkpt>
      <trkpt lat="48.10748" lon="-3.85066">
        <ele>107.4</ele>
        <time>2023-04-05T10:39:16Z</time>
      </trkpt>
      <trkpt lat="48.1075" lon="-3.8506">
        <ele>107.6</ele>
        <time>2023-04-05T10:39:17Z</time>
      </trkpt>
      <trkpt lat="48.10751" lon="-3.85055">
        <ele>107.8</ele>
        <time>2023-04-05T10:39:18Z</time>
      </trkpt>
      <trkpt lat="48.10753" lon="-3.85049">
        <ele>108.1</ele>
        <time>2023-04-05T10:39:19Z</time>
      </trkpt>
      <trkpt lat="48.10754" lon="-3.85044">
        <ele>108.3</ele>
        <time>2023-04-05T10:39:20Z</time>
      </trkpt>
      <trkpt lat="48.10756" lon="-3.85038">
        <ele>108.6</ele>
        <time>2023-04-05T10:39:21Z</time>
      </trkpt>
      <trkpt lat="48.10758" lon="-3.85031">
        <ele>108.9</ele>
        <time>2023-04-05T10:39:22Z</time>
      </trkpt>
      <trkpt lat="48.10759" lon="-3.85026">
        <ele>109.1</ele>
        <time>2023-04-05T10:39:23Z</time>
      </trkpt>
      <trkpt lat="48.10761" lon="-3.85019">
        <ele>109.4</ele>
        <time>2023-04-05T10:39:24Z</time>
      </trkpt>
      <trkpt lat="48.10763" lon="-3.85012">
        <ele>109.8</ele>
        <time>2023-04-05T10:39:25Z</time>
      </trkpt>
      <trkpt lat="48.10765" lon="-3.85004">
        <ele>110.1</ele>
        <time>2023-04-05T10:39:27Z</time>
      </trkpt>
      <trkpt lat="48.10767" lon="-3.84999">
        <ele>110.4</ele>
        <time>2023-04-05T10:39:28Z</time>
      </trkpt>
      <trkpt lat="48.1077" lon="-3.8499">
        <ele>110.9</ele>
        <time>2023-04-05T10:39:29Z</time>
      </trkpt>
      <trkpt lat="48.10772" lon="-3.84985">
        <ele>111.1</ele>
        <time>2023-04-05T10:39:30Z</time>
      </trkpt>
      <trkpt lat="48.10773" lon="-3.84978">
        <ele>111.4</ele>
        <time>2023-04-05T10:39:32Z</time>
      </trkpt>
      <trkpt lat="48.10775" lon="-3.84973">
        <ele>111.7</ele>
        <time>2023-04-05T10:39:33Z</time>
      </trkpt>
      <trkpt lat="48.10776" lon="-3.84968">
        <ele>111.9</ele>
        <time>2023-04-05T10:39:34Z</time>
      </trkpt>
      <trkpt lat="48.10777" lon="-3.84963">
        <ele>112.1</ele>
        <time>2023-04-05T10:39:35Z</time>
      </trkpt>
      <trkpt lat="48.10779" lon="-3.84958">
        <ele>112.4</ele>
        <time>2023-04-05T10:39:36Z</time>
      </trkpt>
      <trkpt lat="48.10781" lon="-3.84953">
        <ele>112.6</ele>
        <time>2023-04-05T10:39:37Z</time>
      </trkpt>
      <trkpt lat="48.10782" lon="-3.84949">
        <ele>112.9</ele>
        <time>2023-04-05T10:39:38Z</time>
      </trkpt>
      <trkpt lat="48.10783" lon="-3.84944">
        <ele>113.1</ele>
        <time>2023-04-05T10:39:39Z</time>
      </trkpt>
      <trkpt lat="48.10784" lon="-3.8494">
        <ele>113.3</ele>
        <time>2023-04-05T10:39:40Z</time>
      </trkpt>
      <trkpt lat="48.10786" lon="-3.84935">
        <ele>113.5</ele>
        <time>2023-04-05T10:39:41Z</time>
      </trkpt>
      <trkpt lat="48.10787" lon="-3.84931">
        <ele>113.7</ele>
        <time>2023-04-05T10:39:42Z</time>
      </trkpt>
      <trkpt lat="48.10788" lon="-3.84926">
        <ele>114</ele>
        <time>2023-04-05T10:39:43Z</time>
      </trkpt>
      <trkpt lat="48.1079" lon="-3.84922">
        <ele>114.2</ele>
        <time>2023-04-05T10:39:44Z</time>
      </trkpt>
      <trkpt lat="48.10791" lon="-3.84918">
        <ele>114.4</ele>
        <time>2023-04-05T10:39:45Z</time>
      </trkpt>
      <trkpt lat="48.10792" lon="-3.84913">
        <ele>114.6</ele>
        <time>2023-04-05T10:39:46Z</time>
      </trkpt>
      <trkpt lat="48.10793" lon="-3.8491">
        <ele>114.8</ele>
        <time>2023-04-05T10:39:47Z</time>
      </trkpt>
      <trkpt lat="48.10795" lon="-3.84905">
        <ele>115</ele>
        <time>2023-04-05T10:39:48Z</time>
      </trkpt>
      <trkpt lat="48.10796" lon="-3.84901">
        <ele>115.2</ele>
        <time>2023-04-05T10:39:49Z</time>
      </trkpt>
      <trkpt lat="48.10799" lon="-3.84892">
        <ele>115.7</ele>
        <time>2023-04-05T10:39:50Z</time>
      </trkpt>
      <trkpt lat="48.10801" lon="-3.84887">
        <ele>115.9</ele>
        <time>2023-04-05T10:39:52Z</time>
      </trkpt>
      <trkpt lat="48.10802" lon="-3.84883">
        <ele>116.1</ele>
        <time>2023-04-05T10:39:53Z</time>
      </trkpt>
      <trkpt lat="48.10803" lon="-3.84878">
        <ele>116.4</ele>
        <time>2023-04-05T10:39:54Z</time>
      </trkpt>
      <trkpt lat="48.10805" lon="-3.84873">
        <ele>116.6</ele>
        <time>2023-04-05T10:39:55Z</time>
      </trkpt>
      <trkpt lat="48.10807" lon="-3.84865">
        <ele>117</ele>
        <time>2023-04-05T10:39:56Z</time>
      </trkpt>
      <trkpt lat="48.1081" lon="-3.84856">
        <ele>117.4</ele>
        <time>2023-04-05T10:39:58Z</time>
      </trkpt>
      <trkpt lat="48.10812" lon="-3.84851">
        <ele>117.7</ele>
        <time>2023-04-05T10:40:00Z</time>
      </trkpt>
      <trkpt lat="48.10813" lon="-3.84846">
        <ele>117.9</ele>
        <time>2023-04-05T10:40:01Z</time>
      </trkpt>
      <trkpt lat="48.10814" lon="-3.84841">
        <ele>118.1</ele>
        <time>2023-04-05T10:40:02Z</time>
      </trkpt>
      <trkpt lat="48.10815" lon="-3.84837">
        <ele>118.3</ele>
        <time>2023-04-05T10:40:03Z</time>
      </trkpt>
      <trkpt lat="48.10815" lon="-3.84831">
        <ele>118.5</ele>
        <time>2023-04-05T10:40:04Z</time>
      </trkpt>
      <trkpt lat="48.10815" lon="-3.84825">
        <ele>118.7</ele>
        <time>2023-04-05T10:40:05Z</time>
      </trkpt>
      <trkpt lat="48.10815" lon="-3.8482">
        <ele>119</ele>
        <time>2023-04-05T10:40:06Z</time>
      </trkpt>
      <trkpt lat="48.10816" lon="-3.84814">
        <ele>119.2</ele>
        <time>2023-04-05T10:40:07Z</time>
      </trkpt>
      <trkpt lat="48.10816" lon="-3.84809">
        <ele>119.4</ele>
        <time>2023-04-05T10:40:08Z</time>
      </trkpt>
      <trkpt lat="48.10817" lon="-3.84804">
        <ele>119.6</ele>
        <time>2023-04-05T10:40:09Z</time>
      </trkpt>
      <trkpt lat="48.10817" lon="-3.84799">
        <ele>119.9</ele>
        <time>2023-04-05T10:40:10Z</time>
      </trkpt>
      <trkpt lat="48.10818" lon="-3.84794">
        <ele>120.1</ele>
        <time>2023-04-05T10:40:11Z</time>
      </trkpt>
      <trkpt lat="48.10819" lon="-3.84788">
        <ele>120.3</ele>
        <time>2023-04-05T10:40:12Z</time>
      </trkpt>
      <trkpt lat="48.10819" lon="-3.84784">
        <ele>120.5</ele>
        <time>2023-04-05T10:40:13Z</time>
      </trkpt>
      <trkpt lat="48.1082" lon="-3.84779">
        <ele>120.7</ele>
        <time>2023-04-05T10:40:14Z</time>
      </trkpt>
      <trkpt lat="48.10821" lon="-3.84774">
        <ele>120.9</ele>
        <time>2023-04-05T10:40:15Z</time>
      </trkpt>
      <trkpt lat="48.10821" lon="-3.84769">
        <ele>121.1</ele>
        <time>2023-04-05T10:40:16Z</time>
      </trkpt>
      <trkpt lat="48.10822" lon="-3.84764">
        <ele>121.3</ele>
        <time>2023-04-05T10:40:17Z</time>
      </trkpt>
      <trkpt lat="48.10823" lon="-3.84759">
        <ele>121.5</ele>
        <time>2023-04-05T10:40:18Z</time>
      </trkpt>
      <trkpt lat="48.10823" lon="-3.84754">
        <ele>121.7</ele>
        <time>2023-04-05T10:40:19Z</time>
      </trkpt>
      <trkpt lat="48.10824" lon="-3.84749">
        <ele>122</ele>
        <time>2023-04-05T10:40:20Z</time>
      </trkpt>
      <trkpt lat="48.10825" lon="-3.84745">
        <ele>122.1</ele>
        <time>2023-04-05T10:40:21Z</time>
      </trkpt>
      <trkpt lat="48.10826" lon="-3.84739">
        <ele>122.4</ele>
        <time>2023-04-05T10:40:22Z</time>
      </trkpt>
      <trkpt lat="48.10827" lon="-3.84734">
        <ele>122.5</ele>
        <time>2023-04-05T10:40:23Z</time>
      </trkpt>
      <trkpt lat="48.10827" lon="-3.8473">
        <ele>122.7</ele>
        <time>2023-04-05T10:40:24Z</time>
      </trkpt>
      <trkpt lat="48.10828" lon="-3.84725">
        <ele>122.9</ele>
        <time>2023-04-05T10:40:25Z</time>
      </trkpt>
      <trkpt lat="48.10829" lon="-3.84716">
        <ele>123.1</ele>
        <time>2023-04-05T10:40:27Z</time>
      </trkpt>
      <trkpt lat="48.1083" lon="-3.84712">
        <ele>123.3</ele>
        <time>2023-04-05T10:40:28Z</time>
      </trkpt>
      <trkpt lat="48.10832" lon="-3.84705">
        <ele>123.5</ele>
        <time>2023-04-05T10:40:29Z</time>
      </trkpt>
      <trkpt lat="48.10834" lon="-3.84697">
        <ele>123.8</ele>
        <time>2023-04-05T10:40:31Z</time>
      </trkpt>
      <trkpt lat="48.10835" lon="-3.84687">
        <ele>124.1</ele>
        <time>2023-04-05T10:40:32Z</time>
      </trkpt>
      <trkpt lat="48.10837" lon="-3.84677">
        <ele>124.4</ele>
        <time>2023-04-05T10:40:34Z</time>
      </trkpt>
      <trkpt lat="48.10839" lon="-3.84667">
        <ele>124.6</ele>
        <time>2023-04-05T10:40:36Z</time>
      </trkpt>
      <trkpt lat="48.1084" lon="-3.84663">
        <ele>124.7</ele>
        <time>2023-04-05T10:40:37Z</time>
      </trkpt>
      <trkpt lat="48.10842" lon="-3.84653">
        <ele>124.8</ele>
        <time>2023-04-05T10:40:39Z</time>
      </trkpt>
      <trkpt lat="48.10845" lon="-3.84641">
        <ele>124.9</ele>
        <time>2023-04-05T10:40:41Z</time>
      </trkpt>
      <trkpt lat="48.10846" lon="-3.84636">
        <ele>124.9</ele>
        <time>2023-04-05T10:40:42Z</time>
      </trkpt>
      <trkpt lat="48.10848" lon="-3.84627">
        <ele>124.9</ele>
        <time>2023-04-05T10:40:44Z</time>
      </trkpt>
      <trkpt lat="48.10849" lon="-3.8462">
        <ele>124.9</ele>
        <time>2023-04-05T10:40:45Z</time>
      </trkpt>
      <trkpt lat="48.10851" lon="-3.84613">
        <ele>124.8</ele>
        <time>2023-04-05T10:40:46Z</time>
      </trkpt>
      <trkpt lat="48.10852" lon="-3.84606">
        <ele>124.7</ele>
        <time>2023-04-05T10:40:47Z</time>
      </trkpt>
      <trkpt lat="48.10854" lon="-3.84598">
        <ele>124.6</ele>
        <time>2023-04-05T10:40:48Z</time>
      </trkpt>
      <trkpt lat="48.10856" lon="-3.84589">
        <ele>124.4</ele>
        <time>2023-04-05T10:40:49Z</time>
      </trkpt>
      <trkpt lat="48.10858" lon="-3.84581">
        <ele>124.3</ele>
        <time>2023-04-05T10:40:50Z</time>
      </trkpt>
      <trkpt lat="48.10859" lon="-3.84572">
        <ele>124.1</ele>
        <time>2023-04-05T10:40:51Z</time>
      </trkpt>
      <trkpt lat="48.10861" lon="-3.84562">
        <ele>123.9</ele>
        <time>2023-04-05T10:40:52Z</time>
      </trkpt>
      <trkpt lat="48.10863" lon="-3.84553">
        <ele>123.6</ele>
        <time>2023-04-05T10:40:53Z</time>
      </trkpt>
      <trkpt lat="48.10865" lon="-3.84543">
        <ele>123.3</ele>
        <time>2023-04-05T10:40:54Z</time>
      </trkpt>
      <trkpt lat="48.10866" lon="-3.84533">
        <ele>123.1</ele>
        <time>2023-04-05T10:40:55Z</time>
      </trkpt>
      <trkpt lat="48.10867" lon="-3.84523">
        <ele>122.7</ele>
        <time>2023-04-05T10:40:56Z</time>
      </trkpt>
      <trkpt lat="48.10869" lon="-3.84512">
        <ele>122.4</ele>
        <time>2023-04-05T10:40:57Z</time>
      </trkpt>
      <trkpt lat="48.10871" lon="-3.84501">
        <ele>122</ele>
        <time>2023-04-05T10:40:58Z</time>
      </trkpt>
      <trkpt lat="48.10873" lon="-3.8449">
        <ele>121.7</ele>
        <time>2023-04-05T10:40:59Z</time>
      </trkpt>
      <trkpt lat="48.10875" lon="-3.84478">
        <ele>121.3</ele>
        <time>2023-04-05T10:41:00Z</time>
      </trkpt>
      <trkpt lat="48.10876" lon="-3.84467">
        <ele>121</ele>
        <time>2023-04-05T10:41:01Z</time>
      </trkpt>
      <trkpt lat="48.10879" lon="-3.84455">
        <ele>120.7</ele>
        <time>2023-04-05T10:41:02Z</time>
      </trkpt>
      <trkpt lat="48.10881" lon="-3.84444">
        <ele>120.4</ele>
        <time>2023-04-05T10:41:03Z</time>
      </trkpt>
      <trkpt lat="48.10882" lon="-3.84432">
        <ele>120.1</ele>
        <time>2023-04-05T10:41:04Z</time>
      </trkpt>
      <trkpt lat="48.10884" lon="-3.84419">
        <ele>119.9</ele>
        <time>2023-04-05T10:41:05Z</time>
      </trkpt>
      <trkpt lat="48.10886" lon="-3.84407">
        <ele>119.6</ele>
        <time>2023-04-05T10:41:06Z</time>
      </trkpt>
      <trkpt lat="48.10889" lon="-3.84395">
        <ele>119.4</ele>
        <time>2023-04-05T10:41:07Z</time>
      </trkpt>
      <trkpt lat="48.10891" lon="-3.84383">
        <ele>119.3</ele>
        <time>2023-04-05T10:41:08Z</time>
      </trkpt>
      <trkpt lat="48.10894" lon="-3.84371">
        <ele>119.2</ele>
        <time>2023-04-05T10:41:09Z</time>
      </trkpt>
      <trkpt lat="48.10896" lon="-3.8436">
        <ele>119.2</ele>
        <time>2023-04-05T10:41:10Z</time>
      </trkpt>
      <trkpt lat="48.10899" lon="-3.84349">
        <ele>119.2</ele>
        <time>2023-04-05T10:41:11Z</time>
      </trkpt>
      <trkpt lat="48.10901" lon="-3.84338">
        <ele>119.2</ele>
        <time>2023-04-05T10:41:12Z</time>
      </trkpt>
      <trkpt lat="48.10902" lon="-3.84327">
        <ele>119.3</ele>
        <time>2023-04-05T10:41:13Z</time>
      </trkpt>
      <trkpt lat="48.10904" lon="-3.84317">
        <ele>119.5</ele>
        <time>2023-04-05T10:41:14Z</time>
      </trkpt>
      <trkpt lat="48.10905" lon="-3.84307">
        <ele>119.6</ele>
        <time>2023-04-05T10:41:15Z</time>
      </trkpt>
      <trkpt lat="48.10906" lon="-3.84297">
        <ele>119.8</ele>
        <time>2023-04-05T10:41:16Z</time>
      </trkpt>
      <trkpt lat="48.10908" lon="-3.84288">
        <ele>120</ele>
        <time>2023-04-05T10:41:17Z</time>
      </trkpt>
      <trkpt lat="48.10909" lon="-3.84279">
        <ele>120.2</ele>
        <time>2023-04-05T10:41:18Z</time>
      </trkpt>
      <trkpt lat="48.1091" lon="-3.84271">
        <ele>120.4</ele>
        <time>2023-04-05T10:41:19Z</time>
      </trkpt>
      <trkpt lat="48.10911" lon="-3.84262">
        <ele>120.6</ele>
        <time>2023-04-05T10:41:20Z</time>
      </trkpt>
      <trkpt lat="48.10912" lon="-3.84254">
        <ele>120.8</ele>
        <time>2023-04-05T10:41:21Z</time>
      </trkpt>
      <trkpt lat="48.10913" lon="-3.84246">
        <ele>121</ele>
        <time>2023-04-05T10:41:22Z</time>
      </trkpt>
      <trkpt lat="48.10914" lon="-3.84238">
        <ele>121.1</ele>
        <time>2023-04-05T10:41:23Z</time>
      </trkpt>
      <trkpt lat="48.10915" lon="-3.8423">
        <ele>121.3</ele>
        <time>2023-04-05T10:41:24Z</time>
      </trkpt>
      <trkpt lat="48.10916" lon="-3.84222">
        <ele>121.5</ele>
        <time>2023-04-05T10:41:25Z</time>
      </trkpt>
      <trkpt lat="48.10918" lon="-3.84214">
        <ele>121.6</ele>
        <time>2023-04-05T10:41:26Z</time>
      </trkpt>
      <trkpt lat="48.10919" lon="-3.84207">
        <ele>121.8</ele>
        <time>2023-04-05T10:41:27Z</time>
      </trkpt>
      <trkpt lat="48.1092" lon="-3.842">
        <ele>121.9</ele>
        <time>2023-04-05T10:41:28Z</time>
      </trkpt>
      <trkpt lat="48.10921" lon="-3.84192">
        <ele>122</ele>
        <time>2023-04-05T10:41:29Z</time>
      </trkpt>
      <trkpt lat="48.10922" lon="-3.84184">
        <ele>122.1</ele>
        <time>2023-04-05T10:41:30Z</time>
      </trkpt>
      <trkpt lat="48.10923" lon="-3.84177">
        <ele>122.2</ele>
        <time>2023-04-05T10:41:31Z</time>
      </trkpt>
      <trkpt lat="48.10924" lon="-3.84169">
        <ele>122.2</ele>
        <time>2023-04-05T10:41:32Z</time>
      </trkpt>
      <trkpt lat="48.10925" lon="-3.84162">
        <ele>122.3</ele>
        <time>2023-04-05T10:41:33Z</time>
      </trkpt>
      <trkpt lat="48.10926" lon="-3.84154">
        <ele>122.4</ele>
        <time>2023-04-05T10:41:34Z</time>
      </trkpt>
      <trkpt lat="48.10927" lon="-3.84146">
        <ele>122.4</ele>
        <time>2023-04-05T10:41:35Z</time>
      </trkpt>
      <trkpt lat="48.10928" lon="-3.84138">
        <ele>122.4</ele>
        <time>2023-04-05T10:41:36Z</time>
      </trkpt>
      <trkpt lat="48.10929" lon="-3.8413">
        <ele>122.5</ele>
        <time>2023-04-05T10:41:37Z</time>
      </trkpt>
      <trkpt lat="48.1093" lon="-3.84122">
        <ele>122.5</ele>
        <time>2023-04-05T10:41:38Z</time>
      </trkpt>
      <trkpt lat="48.10931" lon="-3.84114">
        <ele>122.5</ele>
        <time>2023-04-05T10:41:39Z</time>
      </trkpt>
      <trkpt lat="48.10932" lon="-3.84105">
        <ele>122.5</ele>
        <time>2023-04-05T10:41:40Z</time>
      </trkpt>
      <trkpt lat="48.10933" lon="-3.84097">
        <ele>122.4</ele>
        <time>2023-04-05T10:41:41Z</time>
      </trkpt>
      <trkpt lat="48.10934" lon="-3.84088">
        <ele>122.3</ele>
        <time>2023-04-05T10:41:42Z</time>
      </trkpt>
      <trkpt lat="48.10935" lon="-3.84079">
        <ele>122.2</ele>
        <time>2023-04-05T10:41:43Z</time>
      </trkpt>
      <trkpt lat="48.10936" lon="-3.8407">
        <ele>122.1</ele>
        <time>2023-04-05T10:41:44Z</time>
      </trkpt>
      <trkpt lat="48.10937" lon="-3.84061">
        <ele>122</ele>
        <time>2023-04-05T10:41:45Z</time>
      </trkpt>
      <trkpt lat="48.10938" lon="-3.84052">
        <ele>121.9</ele>
        <time>2023-04-05T10:41:46Z</time>
      </trkpt>
      <trkpt lat="48.10939" lon="-3.84043">
        <ele>121.8</ele>
        <time>2023-04-05T10:41:47Z</time>
      </trkpt>
      <trkpt lat="48.10939" lon="-3.84034">
        <ele>121.8</ele>
        <time>2023-04-05T10:41:48Z</time>
      </trkpt>
      <trkpt lat="48.10939" lon="-3.84025">
        <ele>121.7</ele>
        <time>2023-04-05T10:41:49Z</time>
      </trkpt>
      <trkpt lat="48.1094" lon="-3.84017">
        <ele>121.7</ele>
        <time>2023-04-05T10:41:50Z</time>
      </trkpt>
      <trkpt lat="48.10941" lon="-3.84008">
        <ele>121.6</ele>
        <time>2023-04-05T10:41:51Z</time>
      </trkpt>
      <trkpt lat="48.10942" lon="-3.83999">
        <ele>121.6</ele>
        <time>2023-04-05T10:41:52Z</time>
      </trkpt>
      <trkpt lat="48.10942" lon="-3.8399">
        <ele>121.6</ele>
        <time>2023-04-05T10:41:53Z</time>
      </trkpt>
      <trkpt lat="48.10943" lon="-3.83981">
        <ele>121.5</ele>
        <time>2023-04-05T10:41:54Z</time>
      </trkpt>
      <trkpt lat="48.10944" lon="-3.83973">
        <ele>121.5</ele>
        <time>2023-04-05T10:41:55Z</time>
      </trkpt>
      <trkpt lat="48.10945" lon="-3.83964">
        <ele>121.5</ele>
        <time>2023-04-05T10:41:56Z</time>
      </trkpt>
      <trkpt lat="48.10946" lon="-3.83955">
        <ele>121.5</ele>
        <time>2023-04-05T10:41:57Z</time>
      </trkpt>
      <trkpt lat="48.10946" lon="-3.83947">
        <ele>121.6</ele>
        <time>2023-04-05T10:41:58Z</time>
      </trkpt>
      <trkpt lat="48.10946" lon="-3.83938">
        <ele>121.7</ele>
        <time>2023-04-05T10:41:59Z</time>
      </trkpt>
      <trkpt lat="48.10947" lon="-3.83929">
        <ele>121.7</ele>
        <time>2023-04-05T10:42:00Z</time>
      </trkpt>
      <trkpt lat="48.10948" lon="-3.83921">
        <ele>121.8</ele>
        <time>2023-04-05T10:42:01Z</time>
      </trkpt>
      <trkpt lat="48.10949" lon="-3.83913">
        <ele>121.9</ele>
        <time>2023-04-05T10:42:02Z</time>
      </trkpt>
      <trkpt lat="48.10949" lon="-3.83905">
        <ele>122</ele>
        <time>2023-04-05T10:42:03Z</time>
      </trkpt>
      <trkpt lat="48.1095" lon="-3.83897">
        <ele>122.1</ele>
        <time>2023-04-05T10:42:04Z</time>
      </trkpt>
      <trkpt lat="48.1095" lon="-3.83889">
        <ele>122.2</ele>
        <time>2023-04-05T10:42:05Z</time>
      </trkpt>
      <trkpt lat="48.10951" lon="-3.8388">
        <ele>122.4</ele>
        <time>2023-04-05T10:42:06Z</time>
      </trkpt>
      <trkpt lat="48.10952" lon="-3.83872">
        <ele>122.5</ele>
        <time>2023-04-05T10:42:07Z</time>
      </trkpt>
      <trkpt lat="48.10952" lon="-3.83864">
        <ele>122.6</ele>
        <time>2023-04-05T10:42:08Z</time>
      </trkpt>
      <trkpt lat="48.10953" lon="-3.83855">
        <ele>122.7</ele>
        <time>2023-04-05T10:42:09Z</time>
      </trkpt>
      <trkpt lat="48.10954" lon="-3.83848">
        <ele>122.9</ele>
        <time>2023-04-05T10:42:10Z</time>
      </trkpt>
      <trkpt lat="48.10954" lon="-3.83839">
        <ele>123</ele>
        <time>2023-04-05T10:42:11Z</time>
      </trkpt>
      <trkpt lat="48.10955" lon="-3.83832">
        <ele>123.2</ele>
        <time>2023-04-05T10:42:12Z</time>
      </trkpt>
      <trkpt lat="48.10955" lon="-3.83824">
        <ele>123.4</ele>
        <time>2023-04-05T10:42:13Z</time>
      </trkpt>
      <trkpt lat="48.10956" lon="-3.83816">
        <ele>123.5</ele>
        <time>2023-04-05T10:42:14Z</time>
      </trkpt>
      <trkpt lat="48.10956" lon="-3.83809">
        <ele>123.7</ele>
        <time>2023-04-05T10:42:15Z</time>
      </trkpt>
      <trkpt lat="48.10957" lon="-3.83802">
        <ele>123.9</ele>
        <time>2023-04-05T10:42:16Z</time>
      </trkpt>
      <trkpt lat="48.10957" lon="-3.83795">
        <ele>124</ele>
        <time>2023-04-05T10:42:17Z</time>
      </trkpt>
      <trkpt lat="48.10958" lon="-3.83787">
        <ele>124.2</ele>
        <time>2023-04-05T10:42:18Z</time>
      </trkpt>
      <trkpt lat="48.10958" lon="-3.8378">
        <ele>124.3</ele>
        <time>2023-04-05T10:42:19Z</time>
      </trkpt>
      <trkpt lat="48.10959" lon="-3.83773">
        <ele>124.5</ele>
        <time>2023-04-05T10:42:20Z</time>
      </trkpt>
      <trkpt lat="48.10959" lon="-3.83766">
        <ele>124.6</ele>
        <time>2023-04-05T10:42:21Z</time>
      </trkpt>
      <trkpt lat="48.1096" lon="-3.83759">
        <ele>124.8</ele>
        <time>2023-04-05T10:42:22Z</time>
      </trkpt>
      <trkpt lat="48.1096" lon="-3.83751">
        <ele>124.9</ele>
        <time>2023-04-05T10:42:23Z</time>
      </trkpt>
      <trkpt lat="48.10961" lon="-3.83744">
        <ele>125.1</ele>
        <time>2023-04-05T10:42:24Z</time>
      </trkpt>
      <trkpt lat="48.10961" lon="-3.83736">
        <ele>125.3</ele>
        <time>2023-04-05T10:42:25Z</time>
      </trkpt>
      <trkpt lat="48.10962" lon="-3.8373">
        <ele>125.4</ele>
        <time>2023-04-05T10:42:26Z</time>
      </trkpt>
      <trkpt lat="48.10963" lon="-3.83723">
        <ele>125.6</ele>
        <time>2023-04-05T10:42:27Z</time>
      </trkpt>
      <trkpt lat="48.10963" lon="-3.83716">
        <ele>125.7</ele>
        <time>2023-04-05T10:42:28Z</time>
      </trkpt>
      <trkpt lat="48.10964" lon="-3.83708">
        <ele>125.9</ele>
        <time>2023-04-05T10:42:29Z</time>
      </trkpt>
      <trkpt lat="48.10964" lon="-3.83701">
        <ele>126</ele>
        <time>2023-04-05T10:42:30Z</time>
      </trkpt>
      <trkpt lat="48.10964" lon="-3.83694">
        <ele>126.1</ele>
        <time>2023-04-05T10:42:31Z</time>
      </trkpt>
      <trkpt lat="48.10964" lon="-3.83687">
        <ele>126.2</ele>
        <time>2023-04-05T10:42:32Z</time>
      </trkpt>
      <trkpt lat="48.10964" lon="-3.83679">
        <ele>126.3</ele>
        <time>2023-04-05T10:42:33Z</time>
      </trkpt>
      <trkpt lat="48.10965" lon="-3.83672">
        <ele>126.3</ele>
        <time>2023-04-05T10:42:34Z</time>
      </trkpt>
      <trkpt lat="48.10965" lon="-3.83664">
        <ele>126.3</ele>
        <time>2023-04-05T10:42:35Z</time>
      </trkpt>
      <trkpt lat="48.10966" lon="-3.83657">
        <ele>126.3</ele>
        <time>2023-04-05T10:42:36Z</time>
      </trkpt>
      <trkpt lat="48.10966" lon="-3.8365">
        <ele>126.3</ele>
        <time>2023-04-05T10:42:37Z</time>
      </trkpt>
      <trkpt lat="48.10967" lon="-3.83643">
        <ele>126.2</ele>
        <time>2023-04-05T10:42:38Z</time>
      </trkpt>
      <trkpt lat="48.10968" lon="-3.83636">
        <ele>126</ele>
        <time>2023-04-05T10:42:39Z</time>
      </trkpt>
      <trkpt lat="48.10969" lon="-3.83629">
        <ele>125.9</ele>
        <time>2023-04-05T10:42:40Z</time>
      </trkpt>
      <trkpt lat="48.1097" lon="-3.83622">
        <ele>125.6</ele>
        <time>2023-04-05T10:42:41Z</time>
      </trkpt>
      <trkpt lat="48.10971" lon="-3.83614">
        <ele>125.4</ele>
        <time>2023-04-05T10:42:42Z</time>
      </trkpt>
      <trkpt lat="48.10973" lon="-3.83606">
        <ele>125.1</ele>
        <time>2023-04-05T10:42:43Z</time>
      </trkpt>
      <trkpt lat="48.10976" lon="-3.83598">
        <ele>124.8</ele>
        <time>2023-04-05T10:42:44Z</time>
      </trkpt>
      <trkpt lat="48.1098" lon="-3.8359">
        <ele>124.5</ele>
        <time>2023-04-05T10:42:45Z</time>
      </trkpt>
      <trkpt lat="48.10983" lon="-3.83581">
        <ele>124.1</ele>
        <time>2023-04-05T10:42:46Z</time>
      </trkpt>
      <trkpt lat="48.10987" lon="-3.83572">
        <ele>123.8</ele>
        <time>2023-04-05T10:42:47Z</time>
      </trkpt>
      <trkpt lat="48.10991" lon="-3.83562">
        <ele>123.4</ele>
        <time>2023-04-05T10:42:48Z</time>
      </trkpt>
      <trkpt lat="48.10995" lon="-3.83553">
        <ele>123</ele>
        <time>2023-04-05T10:42:49Z</time>
      </trkpt>
      <trkpt lat="48.10999" lon="-3.83543">
        <ele>122.5</ele>
        <time>2023-04-05T10:42:50Z</time>
      </trkpt>
      <trkpt lat="48.11003" lon="-3.83533">
        <ele>122</ele>
        <time>2023-04-05T10:42:51Z</time>
      </trkpt>
      <trkpt lat="48.11007" lon="-3.83522">
        <ele>121.6</ele>
        <time>2023-04-05T10:42:52Z</time>
      </trkpt>
      <trkpt lat="48.11012" lon="-3.83511">
        <ele>121</ele>
        <time>2023-04-05T10:42:53Z</time>
      </trkpt>
      <trkpt lat="48.11017" lon="-3.83499">
        <ele>120.5</ele>
        <time>2023-04-05T10:42:54Z</time>
      </trkpt>
      <trkpt lat="48.11022" lon="-3.83488">
        <ele>119.9</ele>
        <time>2023-04-05T10:42:55Z</time>
      </trkpt>
      <trkpt lat="48.11027" lon="-3.83476">
        <ele>119.2</ele>
        <time>2023-04-05T10:42:56Z</time>
      </trkpt>
      <trkpt lat="48.11031" lon="-3.83464">
        <ele>118.5</ele>
        <time>2023-04-05T10:42:57Z</time>
      </trkpt>
      <trkpt lat="48.11036" lon="-3.83451">
        <ele>117.8</ele>
        <time>2023-04-05T10:42:58Z</time>
      </trkpt>
      <trkpt lat="48.11042" lon="-3.83439">
        <ele>117</ele>
        <time>2023-04-05T10:42:59Z</time>
      </trkpt>
      <trkpt lat="48.11047" lon="-3.83426">
        <ele>116.2</ele>
        <time>2023-04-05T10:43:00Z</time>
      </trkpt>
      <trkpt lat="48.11052" lon="-3.83414">
        <ele>115.4</ele>
        <time>2023-04-05T10:43:01Z</time>
      </trkpt>
      <trkpt lat="48.11058" lon="-3.83401">
        <ele>114.6</ele>
        <time>2023-04-05T10:43:02Z</time>
      </trkpt>
      <trkpt lat="48.11064" lon="-3.83389">
        <ele>114</ele>
        <time>2023-04-05T10:43:03Z</time>
      </trkpt>
      <trkpt lat="48.11071" lon="-3.83377">
        <ele>113.3</ele>
        <time>2023-04-05T10:43:04Z</time>
      </trkpt>
      <trkpt lat="48.11077" lon="-3.83365">
        <ele>112.7</ele>
        <time>2023-04-05T10:43:05Z</time>
      </trkpt>
      <trkpt lat="48.11085" lon="-3.83354">
        <ele>112.1</ele>
        <time>2023-04-05T10:43:06Z</time>
      </trkpt>
      <trkpt lat="48.11092" lon="-3.83343">
        <ele>111.6</ele>
        <time>2023-04-05T10:43:07Z</time>
      </trkpt>
      <trkpt lat="48.11099" lon="-3.83331">
        <ele>111.2</ele>
        <time>2023-04-05T10:43:08Z</time>
      </trkpt>
      <trkpt lat="48.11106" lon="-3.8332">
        <ele>110.9</ele>
        <time>2023-04-05T10:43:09Z</time>
      </trkpt>
      <trkpt lat="48.11114" lon="-3.83309">
        <ele>110.6</ele>
        <time>2023-04-05T10:43:10Z</time>
      </trkpt>
      <trkpt lat="48.11121" lon="-3.83299">
        <ele>110.4</ele>
        <time>2023-04-05T10:43:11Z</time>
      </trkpt>
      <trkpt lat="48.11128" lon="-3.83289">
        <ele>110.3</ele>
        <time>2023-04-05T10:43:12Z</time>
      </trkpt>
      <trkpt lat="48.11135" lon="-3.83279">
        <ele>110.2</ele>
        <time>2023-04-05T10:43:13Z</time>
      </trkpt>
      <trkpt lat="48.11141" lon="-3.83269">
        <ele>110</ele>
        <time>2023-04-05T10:43:14Z</time>
      </trkpt>
      <trkpt lat="48.11147" lon="-3.83259">
        <ele>110</ele>
        <time>2023-04-05T10:43:15Z</time>
      </trkpt>
      <trkpt lat="48.11152" lon="-3.83248">
        <ele>109.9</ele>
        <time>2023-04-05T10:43:16Z</time>
      </trkpt>
      <trkpt lat="48.11157" lon="-3.83236">
        <ele>109.9</ele>
        <time>2023-04-05T10:43:17Z</time>
      </trkpt>
      <trkpt lat="48.11159" lon="-3.83224">
        <ele>110</ele>
        <time>2023-04-05T10:43:18Z</time>
      </trkpt>
      <trkpt lat="48.1116" lon="-3.83211">
        <ele>110.1</ele>
        <time>2023-04-05T10:43:19Z</time>
      </trkpt>
      <trkpt lat="48.1116" lon="-3.83199">
        <ele>110.2</ele>
        <time>2023-04-05T10:43:20Z</time>
      </trkpt>
      <trkpt lat="48.1116" lon="-3.83188">
        <ele>110.4</ele>
        <time>2023-04-05T10:43:21Z</time>
      </trkpt>
      <trkpt lat="48.1116" lon="-3.83177">
        <ele>110.6</ele>
        <time>2023-04-05T10:43:22Z</time>
      </trkpt>
      <trkpt lat="48.11161" lon="-3.83167">
        <ele>110.7</ele>
        <time>2023-04-05T10:43:23Z</time>
      </trkpt>
      <trkpt lat="48.11161" lon="-3.83156">
        <ele>110.9</ele>
        <time>2023-04-05T10:43:24Z</time>
      </trkpt>
      <trkpt lat="48.11161" lon="-3.83147">
        <ele>111.1</ele>
        <time>2023-04-05T10:43:25Z</time>
      </trkpt>
      <trkpt lat="48.11161" lon="-3.83137">
        <ele>111.4</ele>
        <time>2023-04-05T10:43:26Z</time>
      </trkpt>
      <trkpt lat="48.11161" lon="-3.83128">
        <ele>111.7</ele>
        <time>2023-04-05T10:43:27Z</time>
      </trkpt>
      <trkpt lat="48.11161" lon="-3.83119">
        <ele>112</ele>
        <time>2023-04-05T10:43:28Z</time>
      </trkpt>
      <trkpt lat="48.11161" lon="-3.8311">
        <ele>112.3</ele>
        <time>2023-04-05T10:43:29Z</time>
      </trkpt>
      <trkpt lat="48.1116" lon="-3.83103">
        <ele>112.6</ele>
        <time>2023-04-05T10:43:30Z</time>
      </trkpt>
      <trkpt lat="48.1116" lon="-3.83095">
        <ele>112.8</ele>
        <time>2023-04-05T10:43:31Z</time>
      </trkpt>
      <trkpt lat="48.1116" lon="-3.83087">
        <ele>113.1</ele>
        <time>2023-04-05T10:43:32Z</time>
      </trkpt>
      <trkpt lat="48.1116" lon="-3.8308">
        <ele>113.4</ele>
        <time>2023-04-05T10:43:33Z</time>
      </trkpt>
      <trkpt lat="48.11161" lon="-3.83073">
        <ele>113.7</ele>
        <time>2023-04-05T10:43:34Z</time>
      </trkpt>
      <trkpt lat="48.11161" lon="-3.83065">
        <ele>113.9</ele>
        <time>2023-04-05T10:43:35Z</time>
      </trkpt>
      <trkpt lat="48.1116" lon="-3.83058">
        <ele>114.2</ele>
        <time>2023-04-05T10:43:36Z</time>
      </trkpt>
      <trkpt lat="48.1116" lon="-3.83051">
        <ele>114.5</ele>
        <time>2023-04-05T10:43:37Z</time>
      </trkpt>
      <trkpt lat="48.11161" lon="-3.83044">
        <ele>114.7</ele>
        <time>2023-04-05T10:43:38Z</time>
      </trkpt>
      <trkpt lat="48.11161" lon="-3.83041">
        <ele>114.8</ele>
        <time>2023-04-05T10:43:39Z</time>
      </trkpt>
      <trkpt lat="48.11161" lon="-3.83035">
        <ele>115</ele>
        <time>2023-04-05T10:43:40Z</time>
      </trkpt>
      <trkpt lat="48.11162" lon="-3.83027">
        <ele>115.3</ele>
        <time>2023-04-05T10:43:41Z</time>
      </trkpt>
      <trkpt lat="48.11162" lon="-3.83021">
        <ele>115.5</ele>
        <time>2023-04-05T10:43:42Z</time>
      </trkpt>
      <trkpt lat="48.11162" lon="-3.83015">
        <ele>115.6</ele>
        <time>2023-04-05T10:43:43Z</time>
      </trkpt>
      <trkpt lat="48.11162" lon="-3.8301">
        <ele>115.8</ele>
        <time>2023-04-05T10:43:44Z</time>
      </trkpt>
      <trkpt lat="48.11161" lon="-3.83005">
        <ele>115.9</ele>
        <time>2023-04-05T10:43:45Z</time>
      </trkpt>
      <trkpt lat="48.11161" lon="-3.82995">
        <ele>116.2</ele>
        <time>2023-04-05T10:43:46Z</time>
      </trkpt>
      <trkpt lat="48.11161" lon="-3.82984">
        <ele>116.6</ele>
        <time>2023-04-05T10:43:47Z</time>
      </trkpt>
      <trkpt lat="48.11161" lon="-3.82977">
        <ele>116.8</ele>
        <time>2023-04-05T10:43:48Z</time>
      </trkpt>
      <trkpt lat="48.11161" lon="-3.82965">
        <ele>117.2</ele>
        <time>2023-04-05T10:43:50Z</time>
      </trkpt>
      <trkpt lat="48.11161" lon="-3.82958">
        <ele>117.5</ele>
        <time>2023-04-05T10:43:51Z</time>
      </trkpt>
      <trkpt lat="48.11161" lon="-3.82951">
        <ele>117.7</ele>
        <time>2023-04-05T10:43:53Z</time>
      </trkpt>
      <trkpt lat="48.11161" lon="-3.82944">
        <ele>117.9</ele>
        <time>2023-04-05T10:43:54Z</time>
      </trkpt>
      <trkpt lat="48.11161" lon="-3.82938">
        <ele>118.1</ele>
        <time>2023-04-05T10:43:55Z</time>
      </trkpt>
      <trkpt lat="48.1116" lon="-3.82926">
        <ele>118.4</ele>
        <time>2023-04-05T10:43:56Z</time>
      </trkpt>
      <trkpt lat="48.1116" lon="-3.8292">
        <ele>118.5</ele>
        <time>2023-04-05T10:43:57Z</time>
      </trkpt>
      <trkpt lat="48.1116" lon="-3.82911">
        <ele>118.7</ele>
        <time>2023-04-05T10:43:59Z</time>
      </trkpt>
      <trkpt lat="48.1116" lon="-3.82905">
        <ele>118.8</ele>
        <time>2023-04-05T10:44:00Z</time>
      </trkpt>
      <trkpt lat="48.1116" lon="-3.82898">
        <ele>118.9</ele>
        <time>2023-04-05T10:44:01Z</time>
      </trkpt>
      <trkpt lat="48.1116" lon="-3.82892">
        <ele>118.9</ele>
        <time>2023-04-05T10:44:02Z</time>
      </trkpt>
      <trkpt lat="48.1116" lon="-3.8288">
        <ele>119</ele>
        <time>2023-04-05T10:44:03Z</time>
      </trkpt>
      <trkpt lat="48.1116" lon="-3.82873">
        <ele>119</ele>
        <time>2023-04-05T10:44:05Z</time>
      </trkpt>
      <trkpt lat="48.1116" lon="-3.82865">
        <ele>119</ele>
        <time>2023-04-05T10:44:06Z</time>
      </trkpt>
      <trkpt lat="48.1116" lon="-3.82858">
        <ele>119</ele>
        <time>2023-04-05T10:44:07Z</time>
      </trkpt>
      <trkpt lat="48.1116" lon="-3.82851">
        <ele>118.9</ele>
        <time>2023-04-05T10:44:08Z</time>
      </trkpt>
      <trkpt lat="48.1116" lon="-3.82843">
        <ele>118.9</ele>
        <time>2023-04-05T10:44:09Z</time>
      </trkpt>
      <trkpt lat="48.1116" lon="-3.82835">
        <ele>118.9</ele>
        <time>2023-04-05T10:44:10Z</time>
      </trkpt>
      <trkpt lat="48.1116" lon="-3.82827">
        <ele>118.8</ele>
        <time>2023-04-05T10:44:11Z</time>
      </trkpt>
      <trkpt lat="48.1116" lon="-3.82819">
        <ele>118.6</ele>
        <time>2023-04-05T10:44:12Z</time>
      </trkpt>
      <trkpt lat="48.1116" lon="-3.8281">
        <ele>118.5</ele>
        <time>2023-04-05T10:44:13Z</time>
      </trkpt>
      <trkpt lat="48.1116" lon="-3.828">
        <ele>118.3</ele>
        <time>2023-04-05T10:44:14Z</time>
      </trkpt>
      <trkpt lat="48.1116" lon="-3.82791">
        <ele>118.1</ele>
        <time>2023-04-05T10:44:15Z</time>
      </trkpt>
      <trkpt lat="48.1116" lon="-3.82781">
        <ele>117.8</ele>
        <time>2023-04-05T10:44:16Z</time>
      </trkpt>
      <trkpt lat="48.1116" lon="-3.8277">
        <ele>117.5</ele>
        <time>2023-04-05T10:44:17Z</time>
      </trkpt>
      <trkpt lat="48.1116" lon="-3.8276">
        <ele>117.2</ele>
        <time>2023-04-05T10:44:18Z</time>
      </trkpt>
      <trkpt lat="48.1116" lon="-3.82749">
        <ele>116.9</ele>
        <time>2023-04-05T10:44:19Z</time>
      </trkpt>
      <trkpt lat="48.1116" lon="-3.82738">
        <ele>116.6</ele>
        <time>2023-04-05T10:44:20Z</time>
      </trkpt>
      <trkpt lat="48.1116" lon="-3.82727">
        <ele>116.3</ele>
        <time>2023-04-05T10:44:21Z</time>
      </trkpt>
      <trkpt lat="48.1116" lon="-3.82716">
        <ele>116</ele>
        <time>2023-04-05T10:44:22Z</time>
      </trkpt>
      <trkpt lat="48.1116" lon="-3.82704">
        <ele>115.7</ele>
        <time>2023-04-05T10:44:23Z</time>
      </trkpt>
      <trkpt lat="48.1116" lon="-3.82692">
        <ele>115.2</ele>
        <time>2023-04-05T10:44:24Z</time>
      </trkpt>
      <trkpt lat="48.1116" lon="-3.8268">
        <ele>114.8</ele>
        <time>2023-04-05T10:44:25Z</time>
      </trkpt>
      <trkpt lat="48.1116" lon="-3.82667">
        <ele>114.4</ele>
        <time>2023-04-05T10:44:26Z</time>
      </trkpt>
      <trkpt lat="48.1116" lon="-3.82656">
        <ele>114</ele>
        <time>2023-04-05T10:44:27Z</time>
      </trkpt>
      <trkpt lat="48.11161" lon="-3.82643">
        <ele>113.6</ele>
        <time>2023-04-05T10:44:28Z</time>
      </trkpt>
      <trkpt lat="48.11161" lon="-3.82631">
        <ele>113.3</ele>
        <time>2023-04-05T10:44:29Z</time>
      </trkpt>
      <trkpt lat="48.11161" lon="-3.82619">
        <ele>113</ele>
        <time>2023-04-05T10:44:30Z</time>
      </trkpt>
      <trkpt lat="48.1116" lon="-3.82607">
        <ele>112.8</ele>
        <time>2023-04-05T10:44:31Z</time>
      </trkpt>
      <trkpt lat="48.1116" lon="-3.82595">
        <ele>112.7</ele>
        <time>2023-04-05T10:44:32Z</time>
      </trkpt>
      <trkpt lat="48.1116" lon="-3.82583">
        <ele>112.6</ele>
        <time>2023-04-05T10:44:33Z</time>
      </trkpt>
      <trkpt lat="48.11159" lon="-3.82572">
        <ele>112.5</ele>
        <time>2023-04-05T10:44:34Z</time>
      </trkpt>
      <trkpt lat="48.11159" lon="-3.82562">
        <ele>112.6</ele>
        <time>2023-04-05T10:44:35Z</time>
      </trkpt>
      <trkpt lat="48.11159" lon="-3.82552">
        <ele>112.7</ele>
        <time>2023-04-05T10:44:36Z</time>
      </trkpt>
      <trkpt lat="48.1116" lon="-3.82542">
        <ele>112.9</ele>
        <time>2023-04-05T10:44:37Z</time>
      </trkpt>
      <trkpt lat="48.1116" lon="-3.82533">
        <ele>113.1</ele>
        <time>2023-04-05T10:44:38Z</time>
      </trkpt>
      <trkpt lat="48.11161" lon="-3.82525">
        <ele>113.4</ele>
        <time>2023-04-05T10:44:39Z</time>
      </trkpt>
      <trkpt lat="48.11161" lon="-3.82517">
        <ele>113.7</ele>
        <time>2023-04-05T10:44:40Z</time>
      </trkpt>
      <trkpt lat="48.11162" lon="-3.8251">
        <ele>114</ele>
        <time>2023-04-05T10:44:41Z</time>
      </trkpt>
      <trkpt lat="48.11163" lon="-3.82504">
        <ele>114.2</ele>
        <time>2023-04-05T10:44:42Z</time>
      </trkpt>
      <trkpt lat="48.11164" lon="-3.825">
        <ele>114.4</ele>
        <time>2023-04-05T10:44:43Z</time>
      </trkpt>
      <trkpt lat="48.11166" lon="-3.82495">
        <ele>114.7</ele>
        <time>2023-04-05T10:44:44Z</time>
      </trkpt>
      <trkpt lat="48.11167" lon="-3.8249">
        <ele>115</ele>
        <time>2023-04-05T10:44:45Z</time>
      </trkpt>
      <trkpt lat="48.11168" lon="-3.82484">
        <ele>115.2</ele>
        <time>2023-04-05T10:44:46Z</time>
      </trkpt>
      <trkpt lat="48.1117" lon="-3.82478">
        <ele>115.6</ele>
        <time>2023-04-05T10:44:47Z</time>
      </trkpt>
      <trkpt lat="48.11171" lon="-3.82474">
        <ele>115.8</ele>
        <time>2023-04-05T10:44:48Z</time>
      </trkpt>
      <trkpt lat="48.11173" lon="-3.82465">
        <ele>116.3</ele>
        <time>2023-04-05T10:44:49Z</time>
      </trkpt>
      <trkpt lat="48.11173" lon="-3.8246">
        <ele>116.6</ele>
        <time>2023-04-05T10:44:51Z</time>
      </trkpt>
      <trkpt lat="48.11176" lon="-3.82452">
        <ele>117.1</ele>
        <time>2023-04-05T10:44:52Z</time>
      </trkpt>
      <trkpt lat="48.11179" lon="-3.82443">
        <ele>117.6</ele>
        <time>2023-04-05T10:44:53Z</time>
      </trkpt>
      <trkpt lat="48.11179" lon="-3.82438">
        <ele>117.8</ele>
        <time>2023-04-05T10:44:54Z</time>
      </trkpt>
      <trkpt lat="48.1118" lon="-3.82433">
        <ele>118.1</ele>
        <time>2023-04-05T10:44:56Z</time>
      </trkpt>
      <trkpt lat="48.11181" lon="-3.82428">
        <ele>118.4</ele>
        <time>2023-04-05T10:44:57Z</time>
      </trkpt>
      <trkpt lat="48.11182" lon="-3.82423">
        <ele>118.6</ele>
        <time>2023-04-05T10:44:58Z</time>
      </trkpt>
      <trkpt lat="48.11183" lon="-3.82418">
        <ele>118.9</ele>
        <time>2023-04-05T10:44:59Z</time>
      </trkpt>
      <trkpt lat="48.11185" lon="-3.8241">
        <ele>119.4</ele>
        <time>2023-04-05T10:45:00Z</time>
      </trkpt>
      <trkpt lat="48.11187" lon="-3.824">
        <ele>119.8</ele>
        <time>2023-04-05T10:45:02Z</time>
      </trkpt>
      <trkpt lat="48.11188" lon="-3.82395">
        <ele>120</ele>
        <time>2023-04-05T10:45:03Z</time>
      </trkpt>
      <trkpt lat="48.11188" lon="-3.8239">
        <ele>120.3</ele>
        <time>2023-04-05T10:45:04Z</time>
      </trkpt>
      <trkpt lat="48.1119" lon="-3.8238">
        <ele>120.7</ele>
        <time>2023-04-05T10:45:06Z</time>
      </trkpt>
      <trkpt lat="48.11191" lon="-3.82375">
        <ele>120.8</ele>
        <time>2023-04-05T10:45:07Z</time>
      </trkpt>
      <trkpt lat="48.11192" lon="-3.8237">
        <ele>121</ele>
        <time>2023-04-05T10:45:08Z</time>
      </trkpt>
      <trkpt lat="48.11193" lon="-3.82365">
        <ele>121.2</ele>
        <time>2023-04-05T10:45:09Z</time>
      </trkpt>
      <trkpt lat="48.11194" lon="-3.8236">
        <ele>121.4</ele>
        <time>2023-04-05T10:45:11Z</time>
      </trkpt>
      <trkpt lat="48.11194" lon="-3.82354">
        <ele>121.6</ele>
        <time>2023-04-05T10:45:12Z</time>
      </trkpt>
      <trkpt lat="48.11194" lon="-3.8235">
        <ele>121.7</ele>
        <time>2023-04-05T10:45:13Z</time>
      </trkpt>
      <trkpt lat="48.11194" lon="-3.82345">
        <ele>121.9</ele>
        <time>2023-04-05T10:45:14Z</time>
      </trkpt>
      <trkpt lat="48.11195" lon="-3.82341">
        <ele>122.1</ele>
        <time>2023-04-05T10:45:15Z</time>
      </trkpt>
      <trkpt lat="48.11195" lon="-3.82335">
        <ele>122.2</ele>
        <time>2023-04-05T10:45:16Z</time>
      </trkpt>
      <trkpt lat="48.11196" lon="-3.82331">
        <ele>122.4</ele>
        <time>2023-04-05T10:45:17Z</time>
      </trkpt>
      <trkpt lat="48.11196" lon="-3.82326">
        <ele>122.6</ele>
        <time>2023-04-05T10:45:18Z</time>
      </trkpt>
      <trkpt lat="48.11196" lon="-3.82321">
        <ele>122.7</ele>
        <time>2023-04-05T10:45:19Z</time>
      </trkpt>
      <trkpt lat="48.11196" lon="-3.82316">
        <ele>122.9</ele>
        <time>2023-04-05T10:45:20Z</time>
      </trkpt>
      <trkpt lat="48.11196" lon="-3.82311">
        <ele>123.1</ele>
        <time>2023-04-05T10:45:21Z</time>
      </trkpt>
      <trkpt lat="48.11196" lon="-3.82307">
        <ele>123.3</ele>
        <time>2023-04-05T10:45:22Z</time>
      </trkpt>
      <trkpt lat="48.11197" lon="-3.82301">
        <ele>123.5</ele>
        <time>2023-04-05T10:45:23Z</time>
      </trkpt>
      <trkpt lat="48.11197" lon="-3.82296">
        <ele>123.6</ele>
        <time>2023-04-05T10:45:24Z</time>
      </trkpt>
      <trkpt lat="48.11198" lon="-3.82291">
        <ele>123.8</ele>
        <time>2023-04-05T10:45:25Z</time>
      </trkpt>
      <trkpt lat="48.11197" lon="-3.82285">
        <ele>124</ele>
        <time>2023-04-05T10:45:26Z</time>
      </trkpt>
      <trkpt lat="48.11197" lon="-3.82281">
        <ele>124.1</ele>
        <time>2023-04-05T10:45:27Z</time>
      </trkpt>
      <trkpt lat="48.11198" lon="-3.82276">
        <ele>124.3</ele>
        <time>2023-04-05T10:45:28Z</time>
      </trkpt>
      <trkpt lat="48.11198" lon="-3.82271">
        <ele>124.5</ele>
        <time>2023-04-05T10:45:29Z</time>
      </trkpt>
      <trkpt lat="48.11198" lon="-3.82267">
        <ele>124.6</ele>
        <time>2023-04-05T10:45:30Z</time>
      </trkpt>
      <trkpt lat="48.11199" lon="-3.82262">
        <ele>124.8</ele>
        <time>2023-04-05T10:45:31Z</time>
      </trkpt>
      <trkpt lat="48.11199" lon="-3.82257">
        <ele>124.9</ele>
        <time>2023-04-05T10:45:32Z</time>
      </trkpt>
      <trkpt lat="48.112" lon="-3.82252">
        <ele>125.1</ele>
        <time>2023-04-05T10:45:33Z</time>
      </trkpt>
      <trkpt lat="48.112" lon="-3.82247">
        <ele>125.2</ele>
        <time>2023-04-05T10:45:34Z</time>
      </trkpt>
      <trkpt lat="48.112" lon="-3.82243">
        <ele>125.4</ele>
        <time>2023-04-05T10:45:35Z</time>
      </trkpt>
      <trkpt lat="48.112" lon="-3.82237">
        <ele>125.5</ele>
        <time>2023-04-05T10:45:36Z</time>
      </trkpt>
      <trkpt lat="48.11201" lon="-3.82232">
        <ele>125.7</ele>
        <time>2023-04-05T10:45:37Z</time>
      </trkpt>
      <trkpt lat="48.11202" lon="-3.8222">
        <ele>126</ele>
        <time>2023-04-05T10:45:39Z</time>
      </trkpt>
      <trkpt lat="48.11202" lon="-3.82213">
        <ele>126.2</ele>
        <time>2023-04-05T10:45:40Z</time>
      </trkpt>
      <trkpt lat="48.11202" lon="-3.82209">
        <ele>126.4</ele>
        <time>2023-04-05T10:45:41Z</time>
      </trkpt>
      <trkpt lat="48.11203" lon="-3.82203">
        <ele>126.5</ele>
        <time>2023-04-05T10:45:43Z</time>
      </trkpt>
      <trkpt lat="48.11204" lon="-3.82198">
        <ele>126.6</ele>
        <time>2023-04-05T10:45:44Z</time>
      </trkpt>
      <trkpt lat="48.11204" lon="-3.82193">
        <ele>126.8</ele>
        <time>2023-04-05T10:45:45Z</time>
      </trkpt>
      <trkpt lat="48.11204" lon="-3.82188">
        <ele>126.9</ele>
        <time>2023-04-05T10:45:46Z</time>
      </trkpt>
      <trkpt lat="48.11205" lon="-3.82183">
        <ele>127</ele>
        <time>2023-04-05T10:45:47Z</time>
      </trkpt>
      <trkpt lat="48.11205" lon="-3.82177">
        <ele>127.1</ele>
        <time>2023-04-05T10:45:48Z</time>
      </trkpt>
      <trkpt lat="48.11205" lon="-3.82172">
        <ele>127.2</ele>
        <time>2023-04-05T10:45:49Z</time>
      </trkpt>
      <trkpt lat="48.11206" lon="-3.82167">
        <ele>127.3</ele>
        <time>2023-04-05T10:45:50Z</time>
      </trkpt>
      <trkpt lat="48.11206" lon="-3.82161">
        <ele>127.3</ele>
        <time>2023-04-05T10:45:51Z</time>
      </trkpt>
      <trkpt lat="48.11206" lon="-3.82156">
        <ele>127.4</ele>
        <time>2023-04-05T10:45:52Z</time>
      </trkpt>
      <trkpt lat="48.11207" lon="-3.8215">
        <ele>127.5</ele>
        <time>2023-04-05T10:45:53Z</time>
      </trkpt>
      <trkpt lat="48.11208" lon="-3.82144">
        <ele>127.5</ele>
        <time>2023-04-05T10:45:54Z</time>
      </trkpt>
      <trkpt lat="48.11208" lon="-3.82138">
        <ele>127.6</ele>
        <time>2023-04-05T10:45:55Z</time>
      </trkpt>
      <trkpt lat="48.11208" lon="-3.82133">
        <ele>127.7</ele>
        <time>2023-04-05T10:45:56Z</time>
      </trkpt>
      <trkpt lat="48.11209" lon="-3.82127">
        <ele>127.7</ele>
        <time>2023-04-05T10:45:57Z</time>
      </trkpt>
      <trkpt lat="48.11209" lon="-3.8212">
        <ele>127.7</ele>
        <time>2023-04-05T10:45:58Z</time>
      </trkpt>
      <trkpt lat="48.1121" lon="-3.82115">
        <ele>127.8</ele>
        <time>2023-04-05T10:45:59Z</time>
      </trkpt>
      <trkpt lat="48.1121" lon="-3.82108">
        <ele>127.8</ele>
        <time>2023-04-05T10:46:00Z</time>
      </trkpt>
      <trkpt lat="48.1121" lon="-3.82103">
        <ele>127.8</ele>
        <time>2023-04-05T10:46:01Z</time>
      </trkpt>
      <trkpt lat="48.1121" lon="-3.82095">
        <ele>127.8</ele>
        <time>2023-04-05T10:46:02Z</time>
      </trkpt>
      <trkpt lat="48.1121" lon="-3.8209">
        <ele>127.8</ele>
        <time>2023-04-05T10:46:03Z</time>
      </trkpt>
      <trkpt lat="48.11211" lon="-3.82083">
        <ele>127.8</ele>
        <time>2023-04-05T10:46:04Z</time>
      </trkpt>
      <trkpt lat="48.11211" lon="-3.82075">
        <ele>127.8</ele>
        <time>2023-04-05T10:46:05Z</time>
      </trkpt>
      <trkpt lat="48.11212" lon="-3.82068">
        <ele>127.8</ele>
        <time>2023-04-05T10:46:06Z</time>
      </trkpt>
      <trkpt lat="48.11214" lon="-3.82061">
        <ele>127.9</ele>
        <time>2023-04-05T10:46:07Z</time>
      </trkpt>
      <trkpt lat="48.11215" lon="-3.82054">
        <ele>128</ele>
        <time>2023-04-05T10:46:08Z</time>
      </trkpt>
      <trkpt lat="48.11218" lon="-3.82047">
        <ele>128.1</ele>
        <time>2023-04-05T10:46:09Z</time>
      </trkpt>
      <trkpt lat="48.1122" lon="-3.82041">
        <ele>128.2</ele>
        <time>2023-04-05T10:46:10Z</time>
      </trkpt>
      <trkpt lat="48.11222" lon="-3.82035">
        <ele>128.3</ele>
        <time>2023-04-05T10:46:11Z</time>
      </trkpt>
      <trkpt lat="48.11225" lon="-3.82029">
        <ele>128.4</ele>
        <time>2023-04-05T10:46:12Z</time>
      </trkpt>
      <trkpt lat="48.11228" lon="-3.82023">
        <ele>128.5</ele>
        <time>2023-04-05T10:46:13Z</time>
      </trkpt>
      <trkpt lat="48.11231" lon="-3.82018">
        <ele>128.6</ele>
        <time>2023-04-05T10:46:14Z</time>
      </trkpt>
      <trkpt lat="48.11234" lon="-3.82013">
        <ele>128.8</ele>
        <time>2023-04-05T10:46:15Z</time>
      </trkpt>
      <trkpt lat="48.11237" lon="-3.82008">
        <ele>128.9</ele>
        <time>2023-04-05T10:46:16Z</time>
      </trkpt>
      <trkpt lat="48.1124" lon="-3.82002">
        <ele>129</ele>
        <time>2023-04-05T10:46:17Z</time>
      </trkpt>
      <trkpt lat="48.11243" lon="-3.81996">
        <ele>129.2</ele>
        <time>2023-04-05T10:46:18Z</time>
      </trkpt>
      <trkpt lat="48.11246" lon="-3.8199">
        <ele>129.3</ele>
        <time>2023-04-05T10:46:19Z</time>
      </trkpt>
      <trkpt lat="48.11248" lon="-3.81984">
        <ele>129.5</ele>
        <time>2023-04-05T10:46:20Z</time>
      </trkpt>
      <trkpt lat="48.11251" lon="-3.81978">
        <ele>129.6</ele>
        <time>2023-04-05T10:46:21Z</time>
      </trkpt>
      <trkpt lat="48.11254" lon="-3.81972">
        <ele>129.8</ele>
        <time>2023-04-05T10:46:22Z</time>
      </trkpt>
      <trkpt lat="48.11257" lon="-3.81966">
        <ele>129.9</ele>
        <time>2023-04-05T10:46:23Z</time>
      </trkpt>
      <trkpt lat="48.1126" lon="-3.81961">
        <ele>130.1</ele>
        <time>2023-04-05T10:46:24Z</time>
      </trkpt>
      <trkpt lat="48.11263" lon="-3.81955">
        <ele>130.2</ele>
        <time>2023-04-05T10:46:25Z</time>
      </trkpt>
      <trkpt lat="48.11266" lon="-3.8195">
        <ele>130.4</ele>
        <time>2023-04-05T10:46:26Z</time>
      </trkpt>
      <trkpt lat="48.11269" lon="-3.81944">
        <ele>130.6</ele>
        <time>2023-04-05T10:46:27Z</time>
      </trkpt>
      <trkpt lat="48.11272" lon="-3.81939">
        <ele>130.7</ele>
        <time>2023-04-05T10:46:28Z</time>
      </trkpt>
      <trkpt lat="48.11274" lon="-3.81933">
        <ele>130.9</ele>
        <time>2023-04-05T10:46:29Z</time>
      </trkpt>
      <trkpt lat="48.11277" lon="-3.81927">
        <ele>131</ele>
        <time>2023-04-05T10:46:30Z</time>
      </trkpt>
      <trkpt lat="48.1128" lon="-3.81922">
        <ele>131.1</ele>
        <time>2023-04-05T10:46:31Z</time>
      </trkpt>
      <trkpt lat="48.11282" lon="-3.81916">
        <ele>131.3</ele>
        <time>2023-04-05T10:46:32Z</time>
      </trkpt>
      <trkpt lat="48.11285" lon="-3.81911">
        <ele>131.4</ele>
        <time>2023-04-05T10:46:33Z</time>
      </trkpt>
      <trkpt lat="48.11288" lon="-3.81905">
        <ele>131.5</ele>
        <time>2023-04-05T10:46:34Z</time>
      </trkpt>
      <trkpt lat="48.11291" lon="-3.81899">
        <ele>131.6</ele>
        <time>2023-04-05T10:46:35Z</time>
      </trkpt>
      <trkpt lat="48.11294" lon="-3.81894">
        <ele>131.6</ele>
        <time>2023-04-05T10:46:36Z</time>
      </trkpt>
      <trkpt lat="48.11296" lon="-3.81888">
        <ele>131.7</ele>
        <time>2023-04-05T10:46:37Z</time>
      </trkpt>
      <trkpt lat="48.11299" lon="-3.81883">
        <ele>131.8</ele>
        <time>2023-04-05T10:46:38Z</time>
      </trkpt>
      <trkpt lat="48.11301" lon="-3.81877">
        <ele>131.9</ele>
        <time>2023-04-05T10:46:39Z</time>
      </trkpt>
      <trkpt lat="48.11304" lon="-3.81871">
        <ele>132</ele>
        <time>2023-04-05T10:46:40Z</time>
      </trkpt>
      <trkpt lat="48.11306" lon="-3.81865">
        <ele>132.1</ele>
        <time>2023-04-05T10:46:41Z</time>
      </trkpt>
      <trkpt lat="48.11308" lon="-3.8186">
        <ele>132.1</ele>
        <time>2023-04-05T10:46:42Z</time>
      </trkpt>
      <trkpt lat="48.11311" lon="-3.81854">
        <ele>132.2</ele>
        <time>2023-04-05T10:46:43Z</time>
      </trkpt>
      <trkpt lat="48.11313" lon="-3.81847">
        <ele>132.2</ele>
        <time>2023-04-05T10:46:44Z</time>
      </trkpt>
      <trkpt lat="48.11316" lon="-3.81841">
        <ele>132.2</ele>
        <time>2023-04-05T10:46:45Z</time>
      </trkpt>
      <trkpt lat="48.11318" lon="-3.81835">
        <ele>132.3</ele>
        <time>2023-04-05T10:46:46Z</time>
      </trkpt>
      <trkpt lat="48.1132" lon="-3.81828">
        <ele>132.3</ele>
        <time>2023-04-05T10:46:47Z</time>
      </trkpt>
      <trkpt lat="48.11322" lon="-3.81822">
        <ele>132.4</ele>
        <time>2023-04-05T10:46:48Z</time>
      </trkpt>
      <trkpt lat="48.11324" lon="-3.81815">
        <ele>132.4</ele>
        <time>2023-04-05T10:46:49Z</time>
      </trkpt>
      <trkpt lat="48.11326" lon="-3.81808">
        <ele>132.4</ele>
        <time>2023-04-05T10:46:50Z</time>
      </trkpt>
      <trkpt lat="48.11327" lon="-3.81801">
        <ele>132.4</ele>
        <time>2023-04-05T10:46:51Z</time>
      </trkpt>
      <trkpt lat="48.11329" lon="-3.81794">
        <ele>132.4</ele>
        <time>2023-04-05T10:46:52Z</time>
      </trkpt>
      <trkpt lat="48.11331" lon="-3.81787">
        <ele>132.4</ele>
        <time>2023-04-05T10:46:53Z</time>
      </trkpt>
      <trkpt lat="48.11332" lon="-3.81779">
        <ele>132.3</ele>
        <time>2023-04-05T10:46:54Z</time>
      </trkpt>
      <trkpt lat="48.11334" lon="-3.81772">
        <ele>132.3</ele>
        <time>2023-04-05T10:46:55Z</time>
      </trkpt>
      <trkpt lat="48.11336" lon="-3.81765">
        <ele>132.3</ele>
        <time>2023-04-05T10:46:56Z</time>
      </trkpt>
      <trkpt lat="48.11338" lon="-3.81758">
        <ele>132.2</ele>
        <time>2023-04-05T10:46:57Z</time>
      </trkpt>
      <trkpt lat="48.1134" lon="-3.8175">
        <ele>132.2</ele>
        <time>2023-04-05T10:46:58Z</time>
      </trkpt>
      <trkpt lat="48.11342" lon="-3.81742">
        <ele>132.2</ele>
        <time>2023-04-05T10:46:59Z</time>
      </trkpt>
      <trkpt lat="48.11344" lon="-3.81735">
        <ele>132.1</ele>
        <time>2023-04-05T10:47:00Z</time>
      </trkpt>
      <trkpt lat="48.11346" lon="-3.81727">
        <ele>132.1</ele>
        <time>2023-04-05T10:47:01Z</time>
      </trkpt>
      <trkpt lat="48.11348" lon="-3.81719">
        <ele>132</ele>
        <time>2023-04-05T10:47:02Z</time>
      </trkpt>
      <trkpt lat="48.1135" lon="-3.81711">
        <ele>131.9</ele>
        <time>2023-04-05T10:47:03Z</time>
      </trkpt>
      <trkpt lat="48.11352" lon="-3.81703">
        <ele>131.9</ele>
        <time>2023-04-05T10:47:04Z</time>
      </trkpt>
      <trkpt lat="48.11354" lon="-3.81695">
        <ele>131.8</ele>
        <time>2023-04-05T10:47:05Z</time>
      </trkpt>
      <trkpt lat="48.11356" lon="-3.81687">
        <ele>131.7</ele>
        <time>2023-04-05T10:47:06Z</time>
      </trkpt>
      <trkpt lat="48.11358" lon="-3.81679">
        <ele>131.6</ele>
        <time>2023-04-05T10:47:07Z</time>
      </trkpt>
      <trkpt lat="48.11361" lon="-3.81671">
        <ele>131.5</ele>
        <time>2023-04-05T10:47:08Z</time>
      </trkpt>
      <trkpt lat="48.11363" lon="-3.81663">
        <ele>131.4</ele>
        <time>2023-04-05T10:47:09Z</time>
      </trkpt>
      <trkpt lat="48.11365" lon="-3.81655">
        <ele>131.3</ele>
        <time>2023-04-05T10:47:10Z</time>
      </trkpt>
      <trkpt lat="48.11368" lon="-3.81646">
        <ele>131.1</ele>
        <time>2023-04-05T10:47:11Z</time>
      </trkpt>
      <trkpt lat="48.1137" lon="-3.81638">
        <ele>131</ele>
        <time>2023-04-05T10:47:12Z</time>
      </trkpt>
      <trkpt lat="48.11373" lon="-3.8163">
        <ele>130.9</ele>
        <time>2023-04-05T10:47:13Z</time>
      </trkpt>
      <trkpt lat="48.11376" lon="-3.81622">
        <ele>130.9</ele>
        <time>2023-04-05T10:47:14Z</time>
      </trkpt>
      <trkpt lat="48.11379" lon="-3.81614">
        <ele>130.8</ele>
        <time>2023-04-05T10:47:15Z</time>
      </trkpt>
      <trkpt lat="48.11382" lon="-3.81606">
        <ele>130.7</ele>
        <time>2023-04-05T10:47:16Z</time>
      </trkpt>
      <trkpt lat="48.11385" lon="-3.81598">
        <ele>130.7</ele>
        <time>2023-04-05T10:47:17Z</time>
      </trkpt>
      <trkpt lat="48.11389" lon="-3.81591">
        <ele>130.6</ele>
        <time>2023-04-05T10:47:18Z</time>
      </trkpt>
      <trkpt lat="48.11393" lon="-3.81584">
        <ele>130.5</ele>
        <time>2023-04-05T10:47:19Z</time>
      </trkpt>
      <trkpt lat="48.11397" lon="-3.81577">
        <ele>130.5</ele>
        <time>2023-04-05T10:47:20Z</time>
      </trkpt>
      <trkpt lat="48.11401" lon="-3.8157">
        <ele>130.4</ele>
        <time>2023-04-05T10:47:21Z</time>
      </trkpt>
      <trkpt lat="48.11405" lon="-3.81563">
        <ele>130.4</ele>
        <time>2023-04-05T10:47:22Z</time>
      </trkpt>
      <trkpt lat="48.11409" lon="-3.81556">
        <ele>130.3</ele>
        <time>2023-04-05T10:47:23Z</time>
      </trkpt>
      <trkpt lat="48.11413" lon="-3.8155">
        <ele>130.3</ele>
        <time>2023-04-05T10:47:24Z</time>
      </trkpt>
      <trkpt lat="48.11417" lon="-3.81543">
        <ele>130.2</ele>
        <time>2023-04-05T10:47:25Z</time>
      </trkpt>
      <trkpt lat="48.11421" lon="-3.81536">
        <ele>130.1</ele>
        <time>2023-04-05T10:47:26Z</time>
      </trkpt>
      <trkpt lat="48.11425" lon="-3.81529">
        <ele>130.1</ele>
        <time>2023-04-05T10:47:27Z</time>
      </trkpt>
      <trkpt lat="48.11429" lon="-3.81522">
        <ele>130</ele>
        <time>2023-04-05T10:47:28Z</time>
      </trkpt>
      <trkpt lat="48.11433" lon="-3.81514">
        <ele>129.9</ele>
        <time>2023-04-05T10:47:29Z</time>
      </trkpt>
      <trkpt lat="48.11437" lon="-3.81507">
        <ele>129.8</ele>
        <time>2023-04-05T10:47:30Z</time>
      </trkpt>
      <trkpt lat="48.11441" lon="-3.81499">
        <ele>129.7</ele>
        <time>2023-04-05T10:47:31Z</time>
      </trkpt>
      <trkpt lat="48.11445" lon="-3.81491">
        <ele>129.7</ele>
        <time>2023-04-05T10:47:32Z</time>
      </trkpt>
      <trkpt lat="48.11449" lon="-3.81483">
        <ele>129.6</ele>
        <time>2023-04-05T10:47:33Z</time>
      </trkpt>
      <trkpt lat="48.11453" lon="-3.81475">
        <ele>129.5</ele>
        <time>2023-04-05T10:47:34Z</time>
      </trkpt>
      <trkpt lat="48.11457" lon="-3.81467">
        <ele>129.4</ele>
        <time>2023-04-05T10:47:35Z</time>
      </trkpt>
      <trkpt lat="48.1146" lon="-3.81458">
        <ele>129.3</ele>
        <time>2023-04-05T10:47:36Z</time>
      </trkpt>
      <trkpt lat="48.11463" lon="-3.8145">
        <ele>129.2</ele>
        <time>2023-04-05T10:47:37Z</time>
      </trkpt>
      <trkpt lat="48.11466" lon="-3.81441">
        <ele>129.1</ele>
        <time>2023-04-05T10:47:38Z</time>
      </trkpt>
      <trkpt lat="48.11469" lon="-3.81432">
        <ele>129.1</ele>
        <time>2023-04-05T10:47:39Z</time>
      </trkpt>
      <trkpt lat="48.11472" lon="-3.81423">
        <ele>129.1</ele>
        <time>2023-04-05T10:47:40Z</time>
      </trkpt>
      <trkpt lat="48.11476" lon="-3.81414">
        <ele>129</ele>
        <time>2023-04-05T10:47:41Z</time>
      </trkpt>
      <trkpt lat="48.11478" lon="-3.81405">
        <ele>129</ele>
        <time>2023-04-05T10:47:42Z</time>
      </trkpt>
      <trkpt lat="48.11481" lon="-3.81396">
        <ele>129</ele>
        <time>2023-04-05T10:47:43Z</time>
      </trkpt>
      <trkpt lat="48.11484" lon="-3.81387">
        <ele>129.1</ele>
        <time>2023-04-05T10:47:44Z</time>
      </trkpt>
      <trkpt lat="48.11487" lon="-3.81378">
        <ele>129.1</ele>
        <time>2023-04-05T10:47:45Z</time>
      </trkpt>
      <trkpt lat="48.11489" lon="-3.81369">
        <ele>129.2</ele>
        <time>2023-04-05T10:47:46Z</time>
      </trkpt>
      <trkpt lat="48.11491" lon="-3.8136">
        <ele>129.3</ele>
        <time>2023-04-05T10:47:47Z</time>
      </trkpt>
      <trkpt lat="48.11493" lon="-3.81351">
        <ele>129.4</ele>
        <time>2023-04-05T10:47:48Z</time>
      </trkpt>
      <trkpt lat="48.11495" lon="-3.81342">
        <ele>129.5</ele>
        <time>2023-04-05T10:47:49Z</time>
      </trkpt>
      <trkpt lat="48.11497" lon="-3.81333">
        <ele>129.7</ele>
        <time>2023-04-05T10:47:50Z</time>
      </trkpt>
      <trkpt lat="48.11499" lon="-3.81325">
        <ele>129.8</ele>
        <time>2023-04-05T10:47:51Z</time>
      </trkpt>
      <trkpt lat="48.11501" lon="-3.81316">
        <ele>130</ele>
        <time>2023-04-05T10:47:52Z</time>
      </trkpt>
      <trkpt lat="48.11502" lon="-3.81308">
        <ele>130.2</ele>
        <time>2023-04-05T10:47:53Z</time>
      </trkpt>
      <trkpt lat="48.11504" lon="-3.813">
        <ele>130.4</ele>
        <time>2023-04-05T10:47:54Z</time>
      </trkpt>
      <trkpt lat="48.11505" lon="-3.81292">
        <ele>130.6</ele>
        <time>2023-04-05T10:47:55Z</time>
      </trkpt>
      <trkpt lat="48.11506" lon="-3.81284">
        <ele>130.8</ele>
        <time>2023-04-05T10:47:56Z</time>
      </trkpt>
      <trkpt lat="48.11507" lon="-3.81276">
        <ele>131</ele>
        <time>2023-04-05T10:47:57Z</time>
      </trkpt>
      <trkpt lat="48.11507" lon="-3.81269">
        <ele>131.2</ele>
        <time>2023-04-05T10:47:58Z</time>
      </trkpt>
      <trkpt lat="48.11507" lon="-3.81261">
        <ele>131.5</ele>
        <time>2023-04-05T10:47:59Z</time>
      </trkpt>
      <trkpt lat="48.11508" lon="-3.81254">
        <ele>131.8</ele>
        <time>2023-04-05T10:48:00Z</time>
      </trkpt>
      <trkpt lat="48.11508" lon="-3.81248">
        <ele>132</ele>
        <time>2023-04-05T10:48:01Z</time>
      </trkpt>
      <trkpt lat="48.11509" lon="-3.81242">
        <ele>132.2</ele>
        <time>2023-04-05T10:48:02Z</time>
      </trkpt>
      <trkpt lat="48.11509" lon="-3.81236">
        <ele>132.4</ele>
        <time>2023-04-05T10:48:03Z</time>
      </trkpt>
      <trkpt lat="48.11509" lon="-3.8123">
        <ele>132.6</ele>
        <time>2023-04-05T10:48:04Z</time>
      </trkpt>
      <trkpt lat="48.1151" lon="-3.81226">
        <ele>132.8</ele>
        <time>2023-04-05T10:48:05Z</time>
      </trkpt>
      <trkpt lat="48.1151" lon="-3.81219">
        <ele>133</ele>
        <time>2023-04-05T10:48:06Z</time>
      </trkpt>
      <trkpt lat="48.1151" lon="-3.81212">
        <ele>133.2</ele>
        <time>2023-04-05T10:48:07Z</time>
      </trkpt>
      <trkpt lat="48.11511" lon="-3.81206">
        <ele>133.4</ele>
        <time>2023-04-05T10:48:08Z</time>
      </trkpt>
      <trkpt lat="48.11511" lon="-3.812">
        <ele>133.7</ele>
        <time>2023-04-05T10:48:09Z</time>
      </trkpt>
      <trkpt lat="48.11512" lon="-3.81193">
        <ele>133.9</ele>
        <time>2023-04-05T10:48:10Z</time>
      </trkpt>
      <trkpt lat="48.11512" lon="-3.81189">
        <ele>134.1</ele>
        <time>2023-04-05T10:48:11Z</time>
      </trkpt>
      <trkpt lat="48.11513" lon="-3.81184">
        <ele>134.3</ele>
        <time>2023-04-05T10:48:12Z</time>
      </trkpt>
      <trkpt lat="48.11514" lon="-3.81178">
        <ele>134.5</ele>
        <time>2023-04-05T10:48:13Z</time>
      </trkpt>
      <trkpt lat="48.11514" lon="-3.81173">
        <ele>134.7</ele>
        <time>2023-04-05T10:48:14Z</time>
      </trkpt>
      <trkpt lat="48.11515" lon="-3.81167">
        <ele>134.9</ele>
        <time>2023-04-05T10:48:15Z</time>
      </trkpt>
      <trkpt lat="48.11516" lon="-3.81162">
        <ele>135.1</ele>
        <time>2023-04-05T10:48:16Z</time>
      </trkpt>
      <trkpt lat="48.11517" lon="-3.81156">
        <ele>135.3</ele>
        <time>2023-04-05T10:48:17Z</time>
      </trkpt>
      <trkpt lat="48.11519" lon="-3.81151">
        <ele>135.5</ele>
        <time>2023-04-05T10:48:18Z</time>
      </trkpt>
      <trkpt lat="48.1152" lon="-3.81147">
        <ele>135.7</ele>
        <time>2023-04-05T10:48:19Z</time>
      </trkpt>
      <trkpt lat="48.11521" lon="-3.8114">
        <ele>136</ele>
        <time>2023-04-05T10:48:20Z</time>
      </trkpt>
      <trkpt lat="48.11522" lon="-3.81134">
        <ele>136.2</ele>
        <time>2023-04-05T10:48:21Z</time>
      </trkpt>
      <trkpt lat="48.11524" lon="-3.81129">
        <ele>136.3</ele>
        <time>2023-04-05T10:48:22Z</time>
      </trkpt>
      <trkpt lat="48.11525" lon="-3.81123">
        <ele>136.5</ele>
        <time>2023-04-05T10:48:23Z</time>
      </trkpt>
      <trkpt lat="48.11527" lon="-3.81117">
        <ele>136.6</ele>
        <time>2023-04-05T10:48:24Z</time>
      </trkpt>
      <trkpt lat="48.11528" lon="-3.81112">
        <ele>136.7</ele>
        <time>2023-04-05T10:48:25Z</time>
      </trkpt>
      <trkpt lat="48.1153" lon="-3.81106">
        <ele>136.9</ele>
        <time>2023-04-05T10:48:26Z</time>
      </trkpt>
      <trkpt lat="48.11531" lon="-3.81101">
        <ele>137</ele>
        <time>2023-04-05T10:48:27Z</time>
      </trkpt>
      <trkpt lat="48.11533" lon="-3.81095">
        <ele>137.1</ele>
        <time>2023-04-05T10:48:28Z</time>
      </trkpt>
      <trkpt lat="48.11534" lon="-3.8109">
        <ele>137.3</ele>
        <time>2023-04-05T10:48:29Z</time>
      </trkpt>
      <trkpt lat="48.11536" lon="-3.81084">
        <ele>137.4</ele>
        <time>2023-04-05T10:48:30Z</time>
      </trkpt>
      <trkpt lat="48.11537" lon="-3.81078">
        <ele>137.5</ele>
        <time>2023-04-05T10:48:31Z</time>
      </trkpt>
      <trkpt lat="48.11539" lon="-3.81072">
        <ele>137.7</ele>
        <time>2023-04-05T10:48:32Z</time>
      </trkpt>
      <trkpt lat="48.1154" lon="-3.81066">
        <ele>137.8</ele>
        <time>2023-04-05T10:48:33Z</time>
      </trkpt>
      <trkpt lat="48.11541" lon="-3.81061">
        <ele>137.9</ele>
        <time>2023-04-05T10:48:34Z</time>
      </trkpt>
      <trkpt lat="48.11543" lon="-3.81054">
        <ele>138</ele>
        <time>2023-04-05T10:48:35Z</time>
      </trkpt>
      <trkpt lat="48.11545" lon="-3.81048">
        <ele>138.1</ele>
        <time>2023-04-05T10:48:36Z</time>
      </trkpt>
      <trkpt lat="48.11546" lon="-3.81042">
        <ele>138.2</ele>
        <time>2023-04-05T10:48:37Z</time>
      </trkpt>
      <trkpt lat="48.11548" lon="-3.81036">
        <ele>138.3</ele>
        <time>2023-04-05T10:48:38Z</time>
      </trkpt>
      <trkpt lat="48.1155" lon="-3.8103">
        <ele>138.4</ele>
        <time>2023-04-05T10:48:39Z</time>
      </trkpt>
      <trkpt lat="48.11552" lon="-3.81025">
        <ele>138.4</ele>
        <time>2023-04-05T10:48:40Z</time>
      </trkpt>
      <trkpt lat="48.11554" lon="-3.81019">
        <ele>138.5</ele>
        <time>2023-04-05T10:48:41Z</time>
      </trkpt>
      <trkpt lat="48.11555" lon="-3.81013">
        <ele>138.6</ele>
        <time>2023-04-05T10:48:42Z</time>
      </trkpt>
      <trkpt lat="48.11557" lon="-3.81008">
        <ele>138.6</ele>
        <time>2023-04-05T10:48:43Z</time>
      </trkpt>
      <trkpt lat="48.11559" lon="-3.81002">
        <ele>138.6</ele>
        <time>2023-04-05T10:48:44Z</time>
      </trkpt>
      <trkpt lat="48.11561" lon="-3.80996">
        <ele>138.6</ele>
        <time>2023-04-05T10:48:45Z</time>
      </trkpt>
      <trkpt lat="48.11562" lon="-3.80991">
        <ele>138.6</ele>
        <time>2023-04-05T10:48:46Z</time>
      </trkpt>
      <trkpt lat="48.11564" lon="-3.80985">
        <ele>138.6</ele>
        <time>2023-04-05T10:48:47Z</time>
      </trkpt>
      <trkpt lat="48.11565" lon="-3.80979">
        <ele>138.6</ele>
        <time>2023-04-05T10:48:48Z</time>
      </trkpt>
      <trkpt lat="48.11568" lon="-3.80972">
        <ele>138.6</ele>
        <time>2023-04-05T10:48:49Z</time>
      </trkpt>
      <trkpt lat="48.11569" lon="-3.80965">
        <ele>138.5</ele>
        <time>2023-04-05T10:48:50Z</time>
      </trkpt>
      <trkpt lat="48.11571" lon="-3.80958">
        <ele>138.5</ele>
        <time>2023-04-05T10:48:51Z</time>
      </trkpt>
      <trkpt lat="48.11573" lon="-3.80951">
        <ele>138.4</ele>
        <time>2023-04-05T10:48:52Z</time>
      </trkpt>
      <trkpt lat="48.11576" lon="-3.80944">
        <ele>138.4</ele>
        <time>2023-04-05T10:48:53Z</time>
      </trkpt>
      <trkpt lat="48.11579" lon="-3.80937">
        <ele>138.3</ele>
        <time>2023-04-05T10:48:54Z</time>
      </trkpt>
      <trkpt lat="48.11583" lon="-3.80932">
        <ele>138.2</ele>
        <time>2023-04-05T10:48:55Z</time>
      </trkpt>
      <trkpt lat="48.11588" lon="-3.8093">
        <ele>138.1</ele>
        <time>2023-04-05T10:48:56Z</time>
      </trkpt>
      <trkpt lat="48.11594" lon="-3.8093">
        <ele>138.1</ele>
        <time>2023-04-05T10:48:57Z</time>
      </trkpt>
      <trkpt lat="48.11599" lon="-3.80933">
        <ele>138.1</ele>
        <time>2023-04-05T10:48:58Z</time>
      </trkpt>
      <trkpt lat="48.11604" lon="-3.80937">
        <ele>138.1</ele>
        <time>2023-04-05T10:48:59Z</time>
      </trkpt>
      <trkpt lat="48.11609" lon="-3.80942">
        <ele>138.1</ele>
        <time>2023-04-05T10:49:00Z</time>
      </trkpt>
      <trkpt lat="48.11614" lon="-3.80946">
        <ele>138.2</ele>
        <time>2023-04-05T10:49:01Z</time>
      </trkpt>
      <trkpt lat="48.11618" lon="-3.8095">
        <ele>138.2</ele>
        <time>2023-04-05T10:49:02Z</time>
      </trkpt>
      <trkpt lat="48.11622" lon="-3.80954">
        <ele>138.3</ele>
        <time>2023-04-05T10:49:03Z</time>
      </trkpt>
      <trkpt lat="48.11627" lon="-3.80958">
        <ele>138.4</ele>
        <time>2023-04-05T10:49:04Z</time>
      </trkpt>
      <trkpt lat="48.11631" lon="-3.80962">
        <ele>138.5</ele>
        <time>2023-04-05T10:49:05Z</time>
      </trkpt>
      <trkpt lat="48.11635" lon="-3.80967">
        <ele>138.5</ele>
        <time>2023-04-05T10:49:06Z</time>
      </trkpt>
      <trkpt lat="48.1164" lon="-3.80971">
        <ele>138.6</ele>
        <time>2023-04-05T10:49:07Z</time>
      </trkpt>
      <trkpt lat="48.11644" lon="-3.80975">
        <ele>138.6</ele>
        <time>2023-04-05T10:49:08Z</time>
      </trkpt>
      <trkpt lat="48.11648" lon="-3.80978">
        <ele>138.7</ele>
        <time>2023-04-05T10:49:09Z</time>
      </trkpt>
      <trkpt lat="48.11652" lon="-3.8098">
        <ele>138.7</ele>
        <time>2023-04-05T10:49:10Z</time>
      </trkpt>
      <trkpt lat="48.11656" lon="-3.80982">
        <ele>138.8</ele>
        <time>2023-04-05T10:49:11Z</time>
      </trkpt>
      <trkpt lat="48.11661" lon="-3.80984">
        <ele>138.9</ele>
        <time>2023-04-05T10:49:12Z</time>
      </trkpt>
      <trkpt lat="48.11666" lon="-3.80986">
        <ele>138.9</ele>
        <time>2023-04-05T10:49:13Z</time>
      </trkpt>
      <trkpt lat="48.1167" lon="-3.80988">
        <ele>139</ele>
        <time>2023-04-05T10:49:14Z</time>
      </trkpt>
      <trkpt lat="48.11675" lon="-3.80991">
        <ele>139</ele>
        <time>2023-04-05T10:49:15Z</time>
      </trkpt>
      <trkpt lat="48.1168" lon="-3.80994">
        <ele>139.1</ele>
        <time>2023-04-05T10:49:16Z</time>
      </trkpt>
      <trkpt lat="48.11684" lon="-3.80997">
        <ele>139.2</ele>
        <time>2023-04-05T10:49:17Z</time>
      </trkpt>
      <trkpt lat="48.11688" lon="-3.80999">
        <ele>139.3</ele>
        <time>2023-04-05T10:49:18Z</time>
      </trkpt>
      <trkpt lat="48.11691" lon="-3.80999">
        <ele>139.3</ele>
        <time>2023-04-05T10:49:19Z</time>
      </trkpt>
      <trkpt lat="48.11694" lon="-3.81001">
        <ele>139.4</ele>
        <time>2023-04-05T10:49:20Z</time>
      </trkpt>
      <trkpt lat="48.11698" lon="-3.81004">
        <ele>139.5</ele>
        <time>2023-04-05T10:49:21Z</time>
      </trkpt>
      <trkpt lat="48.11701" lon="-3.81006">
        <ele>139.6</ele>
        <time>2023-04-05T10:49:22Z</time>
      </trkpt>
      <trkpt lat="48.11704" lon="-3.81008">
        <ele>139.6</ele>
        <time>2023-04-05T10:49:23Z</time>
      </trkpt>
      <trkpt lat="48.11707" lon="-3.8101">
        <ele>139.7</ele>
        <time>2023-04-05T10:49:24Z</time>
      </trkpt>
      <trkpt lat="48.11712" lon="-3.81013">
        <ele>139.8</ele>
        <time>2023-04-05T10:49:25Z</time>
      </trkpt>
      <trkpt lat="48.11715" lon="-3.81014">
        <ele>139.8</ele>
        <time>2023-04-05T10:49:26Z</time>
      </trkpt>
      <trkpt lat="48.11721" lon="-3.81018">
        <ele>139.9</ele>
        <time>2023-04-05T10:49:28Z</time>
      </trkpt>
      <trkpt lat="48.11725" lon="-3.8102">
        <ele>139.9</ele>
        <time>2023-04-05T10:49:30Z</time>
      </trkpt>
      <trkpt lat="48.11728" lon="-3.81022">
        <ele>139.9</ele>
        <time>2023-04-05T10:49:31Z</time>
      </trkpt>
      <trkpt lat="48.11732" lon="-3.81024">
        <ele>139.9</ele>
        <time>2023-04-05T10:49:32Z</time>
      </trkpt>
      <trkpt lat="48.11735" lon="-3.81026">
        <ele>139.8</ele>
        <time>2023-04-05T10:49:33Z</time>
      </trkpt>
      <trkpt lat="48.11738" lon="-3.81028">
        <ele>139.8</ele>
        <time>2023-04-05T10:49:34Z</time>
      </trkpt>
      <trkpt lat="48.11742" lon="-3.8103">
        <ele>139.7</ele>
        <time>2023-04-05T10:49:35Z</time>
      </trkpt>
      <trkpt lat="48.11749" lon="-3.81035">
        <ele>139.6</ele>
        <time>2023-04-05T10:49:36Z</time>
      </trkpt>
      <trkpt lat="48.11754" lon="-3.81037">
        <ele>139.5</ele>
        <time>2023-04-05T10:49:38Z</time>
      </trkpt>
      <trkpt lat="48.11758" lon="-3.81039">
        <ele>139.4</ele>
        <time>2023-04-05T10:49:39Z</time>
      </trkpt>
      <trkpt lat="48.11761" lon="-3.81041">
        <ele>139.3</ele>
        <time>2023-04-05T10:49:40Z</time>
      </trkpt>
      <trkpt lat="48.11763" lon="-3.81043">
        <ele>139.2</ele>
        <time>2023-04-05T10:49:41Z</time>
      </trkpt>
      <trkpt lat="48.11764" lon="-3.81044">
        <ele>139.2</ele>
        <time>2023-04-05T10:49:42Z</time>
      </trkpt>
      <trkpt lat="48.11761" lon="-3.81046">
        <ele>139.1</ele>
        <time>2023-04-05T10:49:43Z</time>
      </trkpt>
      <trkpt lat="48.11759" lon="-3.81047">
        <ele>139.1</ele>
        <time>2023-04-05T10:49:44Z</time>
      </trkpt>
      <trkpt lat="48.11758" lon="-3.81045">
        <ele>139</ele>
        <time>2023-04-05T10:49:45Z</time>
      </trkpt>
      <trkpt lat="48.11756" lon="-3.81042">
        <ele>138.9</ele>
        <time>2023-04-05T10:49:47Z</time>
      </trkpt>
      <trkpt lat="48.11756" lon="-3.8104">
        <ele>138.9</ele>
        <time>2023-04-05T10:49:48Z</time>
      </trkpt>
      <trkpt lat="48.11754" lon="-3.81036">
        <ele>138.8</ele>
        <time>2023-04-05T10:49:49Z</time>
      </trkpt>
      <trkpt lat="48.11754" lon="-3.81035">
        <ele>138.8</ele>
        <time>2023-04-05T10:49:50Z</time>
      </trkpt>
      <trkpt lat="48.11754" lon="-3.81031">
        <ele>138.7</ele>
        <time>2023-04-05T10:49:51Z</time>
      </trkpt>
      <trkpt lat="48.11754" lon="-3.8103">
        <ele>138.7</ele>
        <time>2023-04-05T10:49:52Z</time>
      </trkpt>
      <trkpt lat="48.11755" lon="-3.81029">
        <ele>138.6</ele>
        <time>2023-04-05T10:49:53Z</time>
      </trkpt>
      <trkpt lat="48.11754" lon="-3.8103">
        <ele>138.6</ele>
        <time>2023-04-05T10:49:54Z</time>
      </trkpt>
      <trkpt lat="48.11754" lon="-3.81031">
        <ele>138.6</ele>
        <time>2023-04-05T10:49:55Z</time>
      </trkpt>
      <trkpt lat="48.11754" lon="-3.81032">
        <ele>138.6</ele>
        <time>2023-04-05T10:49:56Z</time>
      </trkpt>
      <trkpt lat="48.11754" lon="-3.81033">
        <ele>138.6</ele>
        <time>2023-04-05T10:49:57Z</time>
      </trkpt>
      <trkpt lat="48.11754" lon="-3.81033">
        <ele>138.6</ele>
        <time>2023-04-05T10:49:58Z</time>
      </trkpt>
      <trkpt lat="48.11754" lon="-3.81034">
        <ele>138.6</ele>
        <time>2023-04-05T10:49:59Z</time>
      </trkpt>
      <trkpt lat="48.11754" lon="-3.81035">
        <ele>138.6</ele>
        <time>2023-04-05T10:50:01Z</time>
      </trkpt>
      <trkpt lat="48.11754" lon="-3.81036">
        <ele>138.5</ele>
        <time>2023-04-05T10:50:02Z</time>
      </trkpt>
      <trkpt lat="48.11754" lon="-3.81037">
        <ele>138.5</ele>
        <time>2023-04-05T10:50:03Z</time>
      </trkpt>
      <trkpt lat="48.11754" lon="-3.81038">
        <ele>138.5</ele>
        <time>2023-04-05T10:50:04Z</time>
      </trkpt>
      <trkpt lat="48.11754" lon="-3.81038">
        <ele>138.5</ele>
        <time>2023-04-05T10:50:41Z</time>
      </trkpt>
      <trkpt lat="48.11754" lon="-3.81039">
        <ele>138.5</ele>
        <time>2023-04-05T10:50:42Z</time>
      </trkpt>
      <trkpt lat="48.11754" lon="-3.8104">
        <ele>138.5</ele>
        <time>2023-04-05T10:50:43Z</time>
      </trkpt>
      <trkpt lat="48.11755" lon="-3.81044">
        <ele>138.4</ele>
        <time>2023-04-05T10:50:44Z</time>
      </trkpt>
      <trkpt lat="48.11755" lon="-3.81046">
        <ele>138.4</ele>
        <time>2023-04-05T10:50:45Z</time>
      </trkpt>
      <trkpt lat="48.11758" lon="-3.81049">
        <ele>138.3</ele>
        <time>2023-04-05T10:50:46Z</time>
      </trkpt>
      <trkpt lat="48.11764" lon="-3.81049">
        <ele>138.3</ele>
        <time>2023-04-05T10:50:47Z</time>
      </trkpt>
      <trkpt lat="48.11768" lon="-3.8105">
        <ele>138.2</ele>
        <time>2023-04-05T10:50:48Z</time>
      </trkpt>
      <trkpt lat="48.11771" lon="-3.81052">
        <ele>138.2</ele>
        <time>2023-04-05T10:50:49Z</time>
      </trkpt>
      <trkpt lat="48.11774" lon="-3.81054">
        <ele>138.2</ele>
        <time>2023-04-05T10:50:50Z</time>
      </trkpt>
      <trkpt lat="48.11777" lon="-3.81056">
        <ele>138.2</ele>
        <time>2023-04-05T10:50:51Z</time>
      </trkpt>
      <trkpt lat="48.11778" lon="-3.81057">
        <ele>138.2</ele>
        <time>2023-04-05T10:50:52Z</time>
      </trkpt>
      <trkpt lat="48.11779" lon="-3.81057">
        <ele>138.2</ele>
        <time>2023-04-05T10:50:53Z</time>
      </trkpt>
      <trkpt lat="48.1178" lon="-3.81057">
        <ele>138.2</ele>
        <time>2023-04-05T10:50:54Z</time>
      </trkpt>
      <trkpt lat="48.11781" lon="-3.81057">
        <ele>138.2</ele>
        <time>2023-04-05T10:50:55Z</time>
      </trkpt>
      <trkpt lat="48.11785" lon="-3.81058">
        <ele>138.2</ele>
        <time>2023-04-05T10:50:56Z</time>
      </trkpt>
      <trkpt lat="48.11786" lon="-3.81059">
        <ele>138.2</ele>
        <time>2023-04-05T10:50:57Z</time>
      </trkpt>
      <trkpt lat="48.11789" lon="-3.81062">
        <ele>138.2</ele>
        <time>2023-04-05T10:50:58Z</time>
      </trkpt>
      <trkpt lat="48.11792" lon="-3.81063">
        <ele>138.2</ele>
        <time>2023-04-05T10:50:59Z</time>
      </trkpt>
      <trkpt lat="48.11795" lon="-3.81065">
        <ele>138.2</ele>
        <time>2023-04-05T10:51:00Z</time>
      </trkpt>
      <trkpt lat="48.11799" lon="-3.81067">
        <ele>138.3</ele>
        <time>2023-04-05T10:51:01Z</time>
      </trkpt>
      <trkpt lat="48.11802" lon="-3.81068">
        <ele>138.3</ele>
        <time>2023-04-05T10:51:02Z</time>
      </trkpt>
      <trkpt lat="48.11805" lon="-3.81069">
        <ele>138.3</ele>
        <time>2023-04-05T10:51:03Z</time>
      </trkpt>
      <trkpt lat="48.11808" lon="-3.8107">
        <ele>138.4</ele>
        <time>2023-04-05T10:51:04Z</time>
      </trkpt>
      <trkpt lat="48.11811" lon="-3.81071">
        <ele>138.4</ele>
        <time>2023-04-05T10:51:05Z</time>
      </trkpt>
      <trkpt lat="48.11813" lon="-3.81072">
        <ele>138.4</ele>
        <time>2023-04-05T10:51:06Z</time>
      </trkpt>
      <trkpt lat="48.11816" lon="-3.81073">
        <ele>138.5</ele>
        <time>2023-04-05T10:51:07Z</time>
      </trkpt>
      <trkpt lat="48.11817" lon="-3.81073">
        <ele>138.5</ele>
        <time>2023-04-05T10:51:08Z</time>
      </trkpt>
      <trkpt lat="48.11821" lon="-3.81074">
        <ele>138.5</ele>
        <time>2023-04-05T10:51:09Z</time>
      </trkpt>
      <trkpt lat="48.11822" lon="-3.81075">
        <ele>138.6</ele>
        <time>2023-04-05T10:51:10Z</time>
      </trkpt>
      <trkpt lat="48.11825" lon="-3.81076">
        <ele>138.6</ele>
        <time>2023-04-05T10:51:11Z</time>
      </trkpt>
      <trkpt lat="48.11826" lon="-3.81077">
        <ele>138.6</ele>
        <time>2023-04-05T10:51:12Z</time>
      </trkpt>
      <trkpt lat="48.11829" lon="-3.81078">
        <ele>138.7</ele>
        <time>2023-04-05T10:51:13Z</time>
      </trkpt>
      <trkpt lat="48.11832" lon="-3.81079">
        <ele>138.8</ele>
        <time>2023-04-05T10:51:14Z</time>
      </trkpt>
      <trkpt lat="48.11835" lon="-3.81079">
        <ele>138.8</ele>
        <time>2023-04-05T10:51:15Z</time>
      </trkpt>
      <trkpt lat="48.11838" lon="-3.8108">
        <ele>138.9</ele>
        <time>2023-04-05T10:51:16Z</time>
      </trkpt>
      <trkpt lat="48.11842" lon="-3.81081">
        <ele>139</ele>
        <time>2023-04-05T10:51:18Z</time>
      </trkpt>
      <trkpt lat="48.11846" lon="-3.81082">
        <ele>139.1</ele>
        <time>2023-04-05T10:51:19Z</time>
      </trkpt>
      <trkpt lat="48.11849" lon="-3.81082">
        <ele>139.1</ele>
        <time>2023-04-05T10:51:20Z</time>
      </trkpt>
      <trkpt lat="48.11852" lon="-3.81083">
        <ele>139.2</ele>
        <time>2023-04-05T10:51:21Z</time>
      </trkpt>
      <trkpt lat="48.11855" lon="-3.81084">
        <ele>139.2</ele>
        <time>2023-04-05T10:51:22Z</time>
      </trkpt>
      <trkpt lat="48.11857" lon="-3.81085">
        <ele>139.3</ele>
        <time>2023-04-05T10:51:23Z</time>
      </trkpt>
      <trkpt lat="48.1186" lon="-3.81085">
        <ele>139.3</ele>
        <time>2023-04-05T10:51:24Z</time>
      </trkpt>
      <trkpt lat="48.11863" lon="-3.81086">
        <ele>139.4</ele>
        <time>2023-04-05T10:51:25Z</time>
      </trkpt>
      <trkpt lat="48.11866" lon="-3.81086">
        <ele>139.4</ele>
        <time>2023-04-05T10:51:26Z</time>
      </trkpt>
      <trkpt lat="48.11869" lon="-3.81086">
        <ele>139.5</ele>
        <time>2023-04-05T10:51:27Z</time>
      </trkpt>
      <trkpt lat="48.11873" lon="-3.81088">
        <ele>139.5</ele>
        <time>2023-04-05T10:51:28Z</time>
      </trkpt>
      <trkpt lat="48.11875" lon="-3.81089">
        <ele>139.6</ele>
        <time>2023-04-05T10:51:29Z</time>
      </trkpt>
      <trkpt lat="48.11878" lon="-3.8109">
        <ele>139.7</ele>
        <time>2023-04-05T10:51:30Z</time>
      </trkpt>
      <trkpt lat="48.11882" lon="-3.81091">
        <ele>139.8</ele>
        <time>2023-04-05T10:51:31Z</time>
      </trkpt>
      <trkpt lat="48.11884" lon="-3.81091">
        <ele>139.8</ele>
        <time>2023-04-05T10:51:32Z</time>
      </trkpt>
      <trkpt lat="48.11887" lon="-3.81092">
        <ele>139.9</ele>
        <time>2023-04-05T10:51:33Z</time>
      </trkpt>
      <trkpt lat="48.1189" lon="-3.81094">
        <ele>140</ele>
        <time>2023-04-05T10:51:34Z</time>
      </trkpt>
      <trkpt lat="48.11893" lon="-3.81094">
        <ele>140.1</ele>
        <time>2023-04-05T10:51:35Z</time>
      </trkpt>
      <trkpt lat="48.11897" lon="-3.81095">
        <ele>140.2</ele>
        <time>2023-04-05T10:51:36Z</time>
      </trkpt>
      <trkpt lat="48.11902" lon="-3.81098">
        <ele>140.4</ele>
        <time>2023-04-05T10:51:38Z</time>
      </trkpt>
      <trkpt lat="48.11906" lon="-3.81099">
        <ele>140.5</ele>
        <time>2023-04-05T10:51:39Z</time>
      </trkpt>
      <trkpt lat="48.11911" lon="-3.81103">
        <ele>140.6</ele>
        <time>2023-04-05T10:51:40Z</time>
      </trkpt>
      <trkpt lat="48.11915" lon="-3.81105">
        <ele>140.7</ele>
        <time>2023-04-05T10:51:42Z</time>
      </trkpt>
      <trkpt lat="48.11917" lon="-3.81107">
        <ele>140.8</ele>
        <time>2023-04-05T10:51:43Z</time>
      </trkpt>
      <trkpt lat="48.11921" lon="-3.8111">
        <ele>140.9</ele>
        <time>2023-04-05T10:51:44Z</time>
      </trkpt>
      <trkpt lat="48.11924" lon="-3.81113">
        <ele>141</ele>
        <time>2023-04-05T10:51:45Z</time>
      </trkpt>
      <trkpt lat="48.11926" lon="-3.81115">
        <ele>141.1</ele>
        <time>2023-04-05T10:51:46Z</time>
      </trkpt>
      <trkpt lat="48.11931" lon="-3.81121">
        <ele>141.2</ele>
        <time>2023-04-05T10:51:47Z</time>
      </trkpt>
      <trkpt lat="48.11936" lon="-3.81126">
        <ele>141.4</ele>
        <time>2023-04-05T10:51:49Z</time>
      </trkpt>
      <trkpt lat="48.11939" lon="-3.81128">
        <ele>141.5</ele>
        <time>2023-04-05T10:51:50Z</time>
      </trkpt>
      <trkpt lat="48.11942" lon="-3.81131">
        <ele>141.5</ele>
        <time>2023-04-05T10:51:52Z</time>
      </trkpt>
      <trkpt lat="48.11945" lon="-3.81134">
        <ele>141.6</ele>
        <time>2023-04-05T10:51:53Z</time>
      </trkpt>
      <trkpt lat="48.11948" lon="-3.81137">
        <ele>141.7</ele>
        <time>2023-04-05T10:51:54Z</time>
      </trkpt>
      <trkpt lat="48.11952" lon="-3.81142">
        <ele>141.9</ele>
        <time>2023-04-05T10:51:55Z</time>
      </trkpt>
      <trkpt lat="48.11955" lon="-3.81146">
        <ele>142</ele>
        <time>2023-04-05T10:51:57Z</time>
      </trkpt>
      <trkpt lat="48.11957" lon="-3.81149">
        <ele>142.1</ele>
        <time>2023-04-05T10:51:58Z</time>
      </trkpt>
      <trkpt lat="48.1196" lon="-3.81152">
        <ele>142.1</ele>
        <time>2023-04-05T10:51:59Z</time>
      </trkpt>
      <trkpt lat="48.11962" lon="-3.81155">
        <ele>142.2</ele>
        <time>2023-04-05T10:52:00Z</time>
      </trkpt>
      <trkpt lat="48.11964" lon="-3.81158">
        <ele>142.3</ele>
        <time>2023-04-05T10:52:01Z</time>
      </trkpt>
      <trkpt lat="48.11966" lon="-3.81161">
        <ele>142.4</ele>
        <time>2023-04-05T10:52:02Z</time>
      </trkpt>
      <trkpt lat="48.11969" lon="-3.81165">
        <ele>142.5</ele>
        <time>2023-04-05T10:52:03Z</time>
      </trkpt>
      <trkpt lat="48.11969" lon="-3.81167">
        <ele>142.5</ele>
        <time>2023-04-05T10:52:04Z</time>
      </trkpt>
      <trkpt lat="48.11972" lon="-3.8117">
        <ele>142.6</ele>
        <time>2023-04-05T10:52:05Z</time>
      </trkpt>
      <trkpt lat="48.11975" lon="-3.81173">
        <ele>142.6</ele>
        <time>2023-04-05T10:52:06Z</time>
      </trkpt>
      <trkpt lat="48.11977" lon="-3.81176">
        <ele>142.7</ele>
        <time>2023-04-05T10:52:07Z</time>
      </trkpt>
      <trkpt lat="48.11979" lon="-3.8118">
        <ele>142.7</ele>
        <time>2023-04-05T10:52:08Z</time>
      </trkpt>
      <trkpt lat="48.11982" lon="-3.81184">
        <ele>142.8</ele>
        <time>2023-04-05T10:52:09Z</time>
      </trkpt>
      <trkpt lat="48.11984" lon="-3.81187">
        <ele>142.9</ele>
        <time>2023-04-05T10:52:10Z</time>
      </trkpt>
      <trkpt lat="48.11986" lon="-3.81191">
        <ele>143</ele>
        <time>2023-04-05T10:52:11Z</time>
      </trkpt>
      <trkpt lat="48.11989" lon="-3.81194">
        <ele>143</ele>
        <time>2023-04-05T10:52:12Z</time>
      </trkpt>
      <trkpt lat="48.11991" lon="-3.81197">
        <ele>143.1</ele>
        <time>2023-04-05T10:52:13Z</time>
      </trkpt>
      <trkpt lat="48.11994" lon="-3.812">
        <ele>143.2</ele>
        <time>2023-04-05T10:52:14Z</time>
      </trkpt>
      <trkpt lat="48.11996" lon="-3.81204">
        <ele>143.3</ele>
        <time>2023-04-05T10:52:15Z</time>
      </trkpt>
      <trkpt lat="48.11999" lon="-3.81208">
        <ele>143.4</ele>
        <time>2023-04-05T10:52:16Z</time>
      </trkpt>
      <trkpt lat="48.12001" lon="-3.8121">
        <ele>143.4</ele>
        <time>2023-04-05T10:52:17Z</time>
      </trkpt>
      <trkpt lat="48.12004" lon="-3.81213">
        <ele>143.5</ele>
        <time>2023-04-05T10:52:18Z</time>
      </trkpt>
      <trkpt lat="48.12007" lon="-3.81216">
        <ele>143.6</ele>
        <time>2023-04-05T10:52:19Z</time>
      </trkpt>
      <trkpt lat="48.12011" lon="-3.8122">
        <ele>143.7</ele>
        <time>2023-04-05T10:52:20Z</time>
      </trkpt>
      <trkpt lat="48.12015" lon="-3.81223">
        <ele>143.8</ele>
        <time>2023-04-05T10:52:22Z</time>
      </trkpt>
      <trkpt lat="48.1202" lon="-3.81228">
        <ele>144</ele>
        <time>2023-04-05T10:52:23Z</time>
      </trkpt>
      <trkpt lat="48.12027" lon="-3.81232">
        <ele>144.1</ele>
        <time>2023-04-05T10:52:25Z</time>
      </trkpt>
      <trkpt lat="48.1203" lon="-3.81234">
        <ele>144.2</ele>
        <time>2023-04-05T10:52:26Z</time>
      </trkpt>
      <trkpt lat="48.12037" lon="-3.81237">
        <ele>144.4</ele>
        <time>2023-04-05T10:52:28Z</time>
      </trkpt>
      <trkpt lat="48.1204" lon="-3.81238">
        <ele>144.6</ele>
        <time>2023-04-05T10:52:29Z</time>
      </trkpt>
      <trkpt lat="48.12044" lon="-3.8124">
        <ele>144.7</ele>
        <time>2023-04-05T10:52:31Z</time>
      </trkpt>
      <trkpt lat="48.12047" lon="-3.8124">
        <ele>144.8</ele>
        <time>2023-04-05T10:52:32Z</time>
      </trkpt>
      <trkpt lat="48.1205" lon="-3.81242">
        <ele>144.9</ele>
        <time>2023-04-05T10:52:33Z</time>
      </trkpt>
      <trkpt lat="48.12056" lon="-3.81244">
        <ele>145.1</ele>
        <time>2023-04-05T10:52:34Z</time>
      </trkpt>
      <trkpt lat="48.1206" lon="-3.81245">
        <ele>145.2</ele>
        <time>2023-04-05T10:52:36Z</time>
      </trkpt>
      <trkpt lat="48.12063" lon="-3.81246">
        <ele>145.3</ele>
        <time>2023-04-05T10:52:37Z</time>
      </trkpt>
      <trkpt lat="48.1207" lon="-3.81247">
        <ele>145.5</ele>
        <time>2023-04-05T10:52:38Z</time>
      </trkpt>
      <trkpt lat="48.12073" lon="-3.81248">
        <ele>145.6</ele>
        <time>2023-04-05T10:52:40Z</time>
      </trkpt>
      <trkpt lat="48.12076" lon="-3.81249">
        <ele>145.7</ele>
        <time>2023-04-05T10:52:41Z</time>
      </trkpt>
      <trkpt lat="48.1208" lon="-3.81251">
        <ele>145.9</ele>
        <time>2023-04-05T10:52:42Z</time>
      </trkpt>
      <trkpt lat="48.12083" lon="-3.81252">
        <ele>146</ele>
        <time>2023-04-05T10:52:43Z</time>
      </trkpt>
      <trkpt lat="48.12086" lon="-3.81253">
        <ele>146.1</ele>
        <time>2023-04-05T10:52:44Z</time>
      </trkpt>
      <trkpt lat="48.12089" lon="-3.81253">
        <ele>146.2</ele>
        <time>2023-04-05T10:52:45Z</time>
      </trkpt>
      <trkpt lat="48.12093" lon="-3.81253">
        <ele>146.3</ele>
        <time>2023-04-05T10:52:46Z</time>
      </trkpt>
      <trkpt lat="48.12096" lon="-3.81254">
        <ele>146.4</ele>
        <time>2023-04-05T10:52:47Z</time>
      </trkpt>
      <trkpt lat="48.12099" lon="-3.81255">
        <ele>146.6</ele>
        <time>2023-04-05T10:52:48Z</time>
      </trkpt>
      <trkpt lat="48.12102" lon="-3.81256">
        <ele>146.7</ele>
        <time>2023-04-05T10:52:49Z</time>
      </trkpt>
      <trkpt lat="48.12107" lon="-3.81258">
        <ele>146.9</ele>
        <time>2023-04-05T10:52:50Z</time>
      </trkpt>
      <trkpt lat="48.1211" lon="-3.81259">
        <ele>147</ele>
        <time>2023-04-05T10:52:51Z</time>
      </trkpt>
      <trkpt lat="48.12113" lon="-3.8126">
        <ele>147.1</ele>
        <time>2023-04-05T10:52:53Z</time>
      </trkpt>
      <trkpt lat="48.12117" lon="-3.81261">
        <ele>147.2</ele>
        <time>2023-04-05T10:52:54Z</time>
      </trkpt>
      <trkpt lat="48.1212" lon="-3.81262">
        <ele>147.3</ele>
        <time>2023-04-05T10:52:55Z</time>
      </trkpt>
      <trkpt lat="48.12123" lon="-3.81264">
        <ele>147.4</ele>
        <time>2023-04-05T10:52:56Z</time>
      </trkpt>
      <trkpt lat="48.12124" lon="-3.81265">
        <ele>147.5</ele>
        <time>2023-04-05T10:52:57Z</time>
      </trkpt>
      <trkpt lat="48.12127" lon="-3.81266">
        <ele>147.6</ele>
        <time>2023-04-05T10:52:58Z</time>
      </trkpt>
      <trkpt lat="48.12129" lon="-3.81266">
        <ele>147.6</ele>
        <time>2023-04-05T10:52:59Z</time>
      </trkpt>
      <trkpt lat="48.12131" lon="-3.81268">
        <ele>147.7</ele>
        <time>2023-04-05T10:53:00Z</time>
      </trkpt>
      <trkpt lat="48.12135" lon="-3.81269">
        <ele>147.9</ele>
        <time>2023-04-05T10:53:01Z</time>
      </trkpt>
      <trkpt lat="48.12138" lon="-3.81271">
        <ele>148</ele>
        <time>2023-04-05T10:53:02Z</time>
      </trkpt>
      <trkpt lat="48.12142" lon="-3.81272">
        <ele>148.2</ele>
        <time>2023-04-05T10:53:03Z</time>
      </trkpt>
      <trkpt lat="48.12147" lon="-3.81273">
        <ele>148.4</ele>
        <time>2023-04-05T10:53:05Z</time>
      </trkpt>
      <trkpt lat="48.12153" lon="-3.81276">
        <ele>148.6</ele>
        <time>2023-04-05T10:53:06Z</time>
      </trkpt>
      <trkpt lat="48.12157" lon="-3.81279">
        <ele>148.8</ele>
        <time>2023-04-05T10:53:08Z</time>
      </trkpt>
      <trkpt lat="48.12163" lon="-3.81281">
        <ele>149.1</ele>
        <time>2023-04-05T10:53:09Z</time>
      </trkpt>
      <trkpt lat="48.12167" lon="-3.81283">
        <ele>149.3</ele>
        <time>2023-04-05T10:53:11Z</time>
      </trkpt>
      <trkpt lat="48.1217" lon="-3.81284">
        <ele>149.4</ele>
        <time>2023-04-05T10:53:12Z</time>
      </trkpt>
      <trkpt lat="48.12173" lon="-3.81286">
        <ele>149.5</ele>
        <time>2023-04-05T10:53:13Z</time>
      </trkpt>
      <trkpt lat="48.12176" lon="-3.81288">
        <ele>149.7</ele>
        <time>2023-04-05T10:53:14Z</time>
      </trkpt>
      <trkpt lat="48.12179" lon="-3.81289">
        <ele>149.8</ele>
        <time>2023-04-05T10:53:15Z</time>
      </trkpt>
      <trkpt lat="48.12182" lon="-3.81291">
        <ele>150</ele>
        <time>2023-04-05T10:53:16Z</time>
      </trkpt>
      <trkpt lat="48.12185" lon="-3.81292">
        <ele>150.1</ele>
        <time>2023-04-05T10:53:17Z</time>
      </trkpt>
      <trkpt lat="48.12188" lon="-3.81294">
        <ele>150.3</ele>
        <time>2023-04-05T10:53:18Z</time>
      </trkpt>
      <trkpt lat="48.12191" lon="-3.81295">
        <ele>150.4</ele>
        <time>2023-04-05T10:53:19Z</time>
      </trkpt>
      <trkpt lat="48.12195" lon="-3.81297">
        <ele>150.6</ele>
        <time>2023-04-05T10:53:20Z</time>
      </trkpt>
      <trkpt lat="48.12201" lon="-3.813">
        <ele>151</ele>
        <time>2023-04-05T10:53:22Z</time>
      </trkpt>
      <trkpt lat="48.12208" lon="-3.81302">
        <ele>151.3</ele>
        <time>2023-04-05T10:53:24Z</time>
      </trkpt>
      <trkpt lat="48.12214" lon="-3.81305">
        <ele>151.5</ele>
        <time>2023-04-05T10:53:26Z</time>
      </trkpt>
      <trkpt lat="48.12217" lon="-3.81306">
        <ele>151.7</ele>
        <time>2023-04-05T10:53:28Z</time>
      </trkpt>
      <trkpt lat="48.1222" lon="-3.81306">
        <ele>151.8</ele>
        <time>2023-04-05T10:53:29Z</time>
      </trkpt>
      <trkpt lat="48.12224" lon="-3.81307">
        <ele>151.9</ele>
        <time>2023-04-05T10:53:30Z</time>
      </trkpt>
      <trkpt lat="48.12229" lon="-3.81309">
        <ele>152.2</ele>
        <time>2023-04-05T10:53:31Z</time>
      </trkpt>
      <trkpt lat="48.12235" lon="-3.8131">
        <ele>152.4</ele>
        <time>2023-04-05T10:53:33Z</time>
      </trkpt>
      <trkpt lat="48.12238" lon="-3.81311">
        <ele>152.5</ele>
        <time>2023-04-05T10:53:34Z</time>
      </trkpt>
      <trkpt lat="48.12241" lon="-3.81311">
        <ele>152.7</ele>
        <time>2023-04-05T10:53:36Z</time>
      </trkpt>
      <trkpt lat="48.12244" lon="-3.81311">
        <ele>152.9</ele>
        <time>2023-04-05T10:53:37Z</time>
      </trkpt>
      <trkpt lat="48.12248" lon="-3.81312">
        <ele>153</ele>
        <time>2023-04-05T10:53:38Z</time>
      </trkpt>
      <trkpt lat="48.1225" lon="-3.81313">
        <ele>153.1</ele>
        <time>2023-04-05T10:53:39Z</time>
      </trkpt>
      <trkpt lat="48.12253" lon="-3.81314">
        <ele>153.3</ele>
        <time>2023-04-05T10:53:40Z</time>
      </trkpt>
      <trkpt lat="48.12257" lon="-3.81314">
        <ele>153.4</ele>
        <time>2023-04-05T10:53:41Z</time>
      </trkpt>
      <trkpt lat="48.1226" lon="-3.81314">
        <ele>153.6</ele>
        <time>2023-04-05T10:53:42Z</time>
      </trkpt>
      <trkpt lat="48.12263" lon="-3.81314">
        <ele>153.7</ele>
        <time>2023-04-05T10:53:43Z</time>
      </trkpt>
      <trkpt lat="48.12266" lon="-3.81313">
        <ele>153.8</ele>
        <time>2023-04-05T10:53:44Z</time>
      </trkpt>
      <trkpt lat="48.1227" lon="-3.81312">
        <ele>154</ele>
        <time>2023-04-05T10:53:45Z</time>
      </trkpt>
      <trkpt lat="48.12274" lon="-3.81312">
        <ele>154.2</ele>
        <time>2023-04-05T10:53:46Z</time>
      </trkpt>
      <trkpt lat="48.12275" lon="-3.81312">
        <ele>154.2</ele>
        <time>2023-04-05T10:53:47Z</time>
      </trkpt>
      <trkpt lat="48.12279" lon="-3.81312">
        <ele>154.4</ele>
        <time>2023-04-05T10:53:48Z</time>
      </trkpt>
      <trkpt lat="48.1228" lon="-3.81312">
        <ele>154.4</ele>
        <time>2023-04-05T10:53:49Z</time>
      </trkpt>
      <trkpt lat="48.12284" lon="-3.81311">
        <ele>154.6</ele>
        <time>2023-04-05T10:53:50Z</time>
      </trkpt>
      <trkpt lat="48.12287" lon="-3.81311">
        <ele>154.7</ele>
        <time>2023-04-05T10:53:51Z</time>
      </trkpt>
      <trkpt lat="48.1229" lon="-3.81311">
        <ele>154.9</ele>
        <time>2023-04-05T10:53:52Z</time>
      </trkpt>
      <trkpt lat="48.12294" lon="-3.81312">
        <ele>155</ele>
        <time>2023-04-05T10:53:53Z</time>
      </trkpt>
      <trkpt lat="48.12297" lon="-3.81311">
        <ele>155.2</ele>
        <time>2023-04-05T10:53:54Z</time>
      </trkpt>
      <trkpt lat="48.123" lon="-3.81312">
        <ele>155.3</ele>
        <time>2023-04-05T10:53:55Z</time>
      </trkpt>
      <trkpt lat="48.12303" lon="-3.81312">
        <ele>155.4</ele>
        <time>2023-04-05T10:53:56Z</time>
      </trkpt>
      <trkpt lat="48.12306" lon="-3.81311">
        <ele>155.6</ele>
        <time>2023-04-05T10:53:57Z</time>
      </trkpt>
      <trkpt lat="48.12309" lon="-3.81311">
        <ele>155.7</ele>
        <time>2023-04-05T10:53:58Z</time>
      </trkpt>
      <trkpt lat="48.12312" lon="-3.81311">
        <ele>155.8</ele>
        <time>2023-04-05T10:53:59Z</time>
      </trkpt>
      <trkpt lat="48.12316" lon="-3.81311">
        <ele>156</ele>
        <time>2023-04-05T10:54:00Z</time>
      </trkpt>
      <trkpt lat="48.12317" lon="-3.81311">
        <ele>156.1</ele>
        <time>2023-04-05T10:54:01Z</time>
      </trkpt>
      <trkpt lat="48.12321" lon="-3.81311">
        <ele>156.3</ele>
        <time>2023-04-05T10:54:03Z</time>
      </trkpt>
      <trkpt lat="48.12324" lon="-3.81311">
        <ele>156.5</ele>
        <time>2023-04-05T10:54:04Z</time>
      </trkpt>
      <trkpt lat="48.12328" lon="-3.81311">
        <ele>156.7</ele>
        <time>2023-04-05T10:54:05Z</time>
      </trkpt>
      <trkpt lat="48.12329" lon="-3.81312">
        <ele>156.7</ele>
        <time>2023-04-05T10:54:06Z</time>
      </trkpt>
      <trkpt lat="48.12334" lon="-3.81311">
        <ele>157.1</ele>
        <time>2023-04-05T10:54:07Z</time>
      </trkpt>
      <trkpt lat="48.12339" lon="-3.81312">
        <ele>157.4</ele>
        <time>2023-04-05T10:54:09Z</time>
      </trkpt>
      <trkpt lat="48.1234" lon="-3.81312">
        <ele>157.5</ele>
        <time>2023-04-05T10:54:10Z</time>
      </trkpt>
      <trkpt lat="48.12342" lon="-3.81312">
        <ele>157.5</ele>
        <time>2023-04-05T10:54:11Z</time>
      </trkpt>
      <trkpt lat="48.12344" lon="-3.81313">
        <ele>157.7</ele>
        <time>2023-04-05T10:54:12Z</time>
      </trkpt>
      <trkpt lat="48.12346" lon="-3.81313">
        <ele>157.8</ele>
        <time>2023-04-05T10:54:13Z</time>
      </trkpt>
      <trkpt lat="48.12349" lon="-3.81313">
        <ele>158</ele>
        <time>2023-04-05T10:54:14Z</time>
      </trkpt>
      <trkpt lat="48.12351" lon="-3.81314">
        <ele>158.1</ele>
        <time>2023-04-05T10:54:15Z</time>
      </trkpt>
      <trkpt lat="48.12354" lon="-3.81314">
        <ele>158.3</ele>
        <time>2023-04-05T10:54:16Z</time>
      </trkpt>
      <trkpt lat="48.12358" lon="-3.81315">
        <ele>158.6</ele>
        <time>2023-04-05T10:54:18Z</time>
      </trkpt>
      <trkpt lat="48.12361" lon="-3.81315">
        <ele>158.8</ele>
        <time>2023-04-05T10:54:19Z</time>
      </trkpt>
      <trkpt lat="48.12365" lon="-3.81316">
        <ele>159.1</ele>
        <time>2023-04-05T10:54:21Z</time>
      </trkpt>
      <trkpt lat="48.12367" lon="-3.81317">
        <ele>159.2</ele>
        <time>2023-04-05T10:54:22Z</time>
      </trkpt>
      <trkpt lat="48.12369" lon="-3.81317">
        <ele>159.4</ele>
        <time>2023-04-05T10:54:23Z</time>
      </trkpt>
      <trkpt lat="48.12372" lon="-3.81318">
        <ele>159.6</ele>
        <time>2023-04-05T10:54:24Z</time>
      </trkpt>
      <trkpt lat="48.12373" lon="-3.81318">
        <ele>159.7</ele>
        <time>2023-04-05T10:54:25Z</time>
      </trkpt>
      <trkpt lat="48.12376" lon="-3.8132">
        <ele>159.9</ele>
        <time>2023-04-05T10:54:26Z</time>
      </trkpt>
      <trkpt lat="48.12377" lon="-3.8132">
        <ele>160</ele>
        <time>2023-04-05T10:54:27Z</time>
      </trkpt>
      <trkpt lat="48.1238" lon="-3.8132">
        <ele>160.3</ele>
        <time>2023-04-05T10:54:28Z</time>
      </trkpt>
      <trkpt lat="48.12381" lon="-3.81319">
        <ele>160.3</ele>
        <time>2023-04-05T10:54:29Z</time>
      </trkpt>
      <trkpt lat="48.12385" lon="-3.8132">
        <ele>160.6</ele>
        <time>2023-04-05T10:54:30Z</time>
      </trkpt>
      <trkpt lat="48.12386" lon="-3.8132">
        <ele>160.7</ele>
        <time>2023-04-05T10:54:31Z</time>
      </trkpt>
      <trkpt lat="48.12389" lon="-3.81321">
        <ele>160.9</ele>
        <time>2023-04-05T10:54:32Z</time>
      </trkpt>
      <trkpt lat="48.1239" lon="-3.81321">
        <ele>161</ele>
        <time>2023-04-05T10:54:33Z</time>
      </trkpt>
      <trkpt lat="48.12394" lon="-3.81323">
        <ele>161.3</ele>
        <time>2023-04-05T10:54:34Z</time>
      </trkpt>
      <trkpt lat="48.12395" lon="-3.81323">
        <ele>161.4</ele>
        <time>2023-04-05T10:54:35Z</time>
      </trkpt>
      <trkpt lat="48.12399" lon="-3.81324">
        <ele>161.7</ele>
        <time>2023-04-05T10:54:36Z</time>
      </trkpt>
      <trkpt lat="48.124" lon="-3.81324">
        <ele>161.8</ele>
        <time>2023-04-05T10:54:37Z</time>
      </trkpt>
      <trkpt lat="48.12403" lon="-3.81324">
        <ele>162</ele>
        <time>2023-04-05T10:54:38Z</time>
      </trkpt>
      <trkpt lat="48.12404" lon="-3.81324">
        <ele>162.1</ele>
        <time>2023-04-05T10:54:39Z</time>
      </trkpt>
      <trkpt lat="48.12408" lon="-3.81326">
        <ele>162.3</ele>
        <time>2023-04-05T10:54:40Z</time>
      </trkpt>
      <trkpt lat="48.12409" lon="-3.81326">
        <ele>162.4</ele>
        <time>2023-04-05T10:54:41Z</time>
      </trkpt>
      <trkpt lat="48.12412" lon="-3.81324">
        <ele>162.6</ele>
        <time>2023-04-05T10:54:42Z</time>
      </trkpt>
      <trkpt lat="48.12413" lon="-3.81323">
        <ele>162.7</ele>
        <time>2023-04-05T10:54:43Z</time>
      </trkpt>
      <trkpt lat="48.12416" lon="-3.81322">
        <ele>162.9</ele>
        <time>2023-04-05T10:54:44Z</time>
      </trkpt>
      <trkpt lat="48.12417" lon="-3.81321">
        <ele>163</ele>
        <time>2023-04-05T10:54:45Z</time>
      </trkpt>
      <trkpt lat="48.1242" lon="-3.8132">
        <ele>163.2</ele>
        <time>2023-04-05T10:54:46Z</time>
      </trkpt>
      <trkpt lat="48.12422" lon="-3.8132">
        <ele>163.3</ele>
        <time>2023-04-05T10:54:47Z</time>
      </trkpt>
      <trkpt lat="48.12425" lon="-3.81318">
        <ele>163.6</ele>
        <time>2023-04-05T10:54:48Z</time>
      </trkpt>
      <trkpt lat="48.12426" lon="-3.81317">
        <ele>163.7</ele>
        <time>2023-04-05T10:54:49Z</time>
      </trkpt>
      <trkpt lat="48.1243" lon="-3.81315">
        <ele>163.9</ele>
        <time>2023-04-05T10:54:50Z</time>
      </trkpt>
      <trkpt lat="48.12431" lon="-3.81314">
        <ele>163.9</ele>
        <time>2023-04-05T10:54:51Z</time>
      </trkpt>
      <trkpt lat="48.12434" lon="-3.8131">
        <ele>164.1</ele>
        <time>2023-04-05T10:54:52Z</time>
      </trkpt>
      <trkpt lat="48.12435" lon="-3.81309">
        <ele>164.2</ele>
        <time>2023-04-05T10:54:53Z</time>
      </trkpt>
      <trkpt lat="48.12438" lon="-3.81306">
        <ele>164.4</ele>
        <time>2023-04-05T10:54:54Z</time>
      </trkpt>
      <trkpt lat="48.1244" lon="-3.81304">
        <ele>164.4</ele>
        <time>2023-04-05T10:54:55Z</time>
      </trkpt>
      <trkpt lat="48.12442" lon="-3.81301">
        <ele>164.6</ele>
        <time>2023-04-05T10:54:56Z</time>
      </trkpt>
      <trkpt lat="48.12443" lon="-3.813">
        <ele>164.6</ele>
        <time>2023-04-05T10:54:57Z</time>
      </trkpt>
      <trkpt lat="48.12445" lon="-3.81296">
        <ele>164.7</ele>
        <time>2023-04-05T10:54:58Z</time>
      </trkpt>
      <trkpt lat="48.12447" lon="-3.81292">
        <ele>164.8</ele>
        <time>2023-04-05T10:54:59Z</time>
      </trkpt>
      <trkpt lat="48.12449" lon="-3.81288">
        <ele>164.9</ele>
        <time>2023-04-05T10:55:00Z</time>
      </trkpt>
      <trkpt lat="48.12449" lon="-3.81286">
        <ele>164.9</ele>
        <time>2023-04-05T10:55:01Z</time>
      </trkpt>
      <trkpt lat="48.12451" lon="-3.81283">
        <ele>165</ele>
        <time>2023-04-05T10:55:02Z</time>
      </trkpt>
      <trkpt lat="48.12453" lon="-3.81276">
        <ele>165.1</ele>
        <time>2023-04-05T10:55:04Z</time>
      </trkpt>
      <trkpt lat="48.12455" lon="-3.81272">
        <ele>165.2</ele>
        <time>2023-04-05T10:55:05Z</time>
      </trkpt>
      <trkpt lat="48.12456" lon="-3.81269">
        <ele>165.2</ele>
        <time>2023-04-05T10:55:06Z</time>
      </trkpt>
      <trkpt lat="48.12458" lon="-3.81264">
        <ele>165.3</ele>
        <time>2023-04-05T10:55:07Z</time>
      </trkpt>
      <trkpt lat="48.12459" lon="-3.81259">
        <ele>165.4</ele>
        <time>2023-04-05T10:55:08Z</time>
      </trkpt>
      <trkpt lat="48.1246" lon="-3.81257">
        <ele>165.4</ele>
        <time>2023-04-05T10:55:09Z</time>
      </trkpt>
      <trkpt lat="48.12462" lon="-3.81251">
        <ele>165.5</ele>
        <time>2023-04-05T10:55:10Z</time>
      </trkpt>
      <trkpt lat="48.12462" lon="-3.81249">
        <ele>165.5</ele>
        <time>2023-04-05T10:55:11Z</time>
      </trkpt>
      <trkpt lat="48.12464" lon="-3.81244">
        <ele>165.6</ele>
        <time>2023-04-05T10:55:12Z</time>
      </trkpt>
      <trkpt lat="48.12465" lon="-3.81243">
        <ele>165.7</ele>
        <time>2023-04-05T10:55:13Z</time>
      </trkpt>
      <trkpt lat="48.12467" lon="-3.81239">
        <ele>165.8</ele>
        <time>2023-04-05T10:55:14Z</time>
      </trkpt>
      <trkpt lat="48.12469" lon="-3.81235">
        <ele>165.9</ele>
        <time>2023-04-05T10:55:15Z</time>
      </trkpt>
      <trkpt lat="48.12471" lon="-3.81231">
        <ele>166</ele>
        <time>2023-04-05T10:55:16Z</time>
      </trkpt>
      <trkpt lat="48.12472" lon="-3.8123">
        <ele>166</ele>
        <time>2023-04-05T10:55:17Z</time>
      </trkpt>
      <trkpt lat="48.12474" lon="-3.81227">
        <ele>166.1</ele>
        <time>2023-04-05T10:55:18Z</time>
      </trkpt>
      <trkpt lat="48.12475" lon="-3.81223">
        <ele>166.2</ele>
        <time>2023-04-05T10:55:19Z</time>
      </trkpt>
      <trkpt lat="48.12477" lon="-3.8122">
        <ele>166.2</ele>
        <time>2023-04-05T10:55:20Z</time>
      </trkpt>
      <trkpt lat="48.12479" lon="-3.81214">
        <ele>166.3</ele>
        <time>2023-04-05T10:55:21Z</time>
      </trkpt>
      <trkpt lat="48.1248" lon="-3.81212">
        <ele>166.4</ele>
        <time>2023-04-05T10:55:22Z</time>
      </trkpt>
      <trkpt lat="48.12482" lon="-3.81209">
        <ele>166.4</ele>
        <time>2023-04-05T10:55:23Z</time>
      </trkpt>
      <trkpt lat="48.12484" lon="-3.81205">
        <ele>166.5</ele>
        <time>2023-04-05T10:55:24Z</time>
      </trkpt>
      <trkpt lat="48.12487" lon="-3.81202">
        <ele>166.5</ele>
        <time>2023-04-05T10:55:25Z</time>
      </trkpt>
      <trkpt lat="48.12489" lon="-3.81198">
        <ele>166.6</ele>
        <time>2023-04-05T10:55:26Z</time>
      </trkpt>
      <trkpt lat="48.12491" lon="-3.81195">
        <ele>166.6</ele>
        <time>2023-04-05T10:55:27Z</time>
      </trkpt>
      <trkpt lat="48.12493" lon="-3.81191">
        <ele>166.7</ele>
        <time>2023-04-05T10:55:28Z</time>
      </trkpt>
      <trkpt lat="48.12495" lon="-3.81187">
        <ele>166.7</ele>
        <time>2023-04-05T10:55:29Z</time>
      </trkpt>
      <trkpt lat="48.12497" lon="-3.81183">
        <ele>166.8</ele>
        <time>2023-04-05T10:55:30Z</time>
      </trkpt>
      <trkpt lat="48.12499" lon="-3.81178">
        <ele>166.8</ele>
        <time>2023-04-05T10:55:31Z</time>
      </trkpt>
      <trkpt lat="48.12501" lon="-3.81173">
        <ele>166.8</ele>
        <time>2023-04-05T10:55:32Z</time>
      </trkpt>
      <trkpt lat="48.12502" lon="-3.81168">
        <ele>166.9</ele>
        <time>2023-04-05T10:55:33Z</time>
      </trkpt>
      <trkpt lat="48.12503" lon="-3.81163">
        <ele>166.9</ele>
        <time>2023-04-05T10:55:34Z</time>
      </trkpt>
      <trkpt lat="48.12505" lon="-3.81157">
        <ele>166.9</ele>
        <time>2023-04-05T10:55:35Z</time>
      </trkpt>
      <trkpt lat="48.12506" lon="-3.81151">
        <ele>166.9</ele>
        <time>2023-04-05T10:55:36Z</time>
      </trkpt>
      <trkpt lat="48.12507" lon="-3.81145">
        <ele>166.9</ele>
        <time>2023-04-05T10:55:37Z</time>
      </trkpt>
      <trkpt lat="48.12508" lon="-3.81139">
        <ele>166.9</ele>
        <time>2023-04-05T10:55:38Z</time>
      </trkpt>
      <trkpt lat="48.12508" lon="-3.81132">
        <ele>166.8</ele>
        <time>2023-04-05T10:55:39Z</time>
      </trkpt>
      <trkpt lat="48.12508" lon="-3.81126">
        <ele>166.7</ele>
        <time>2023-04-05T10:55:40Z</time>
      </trkpt>
      <trkpt lat="48.12507" lon="-3.81117">
        <ele>166.6</ele>
        <time>2023-04-05T10:55:42Z</time>
      </trkpt>
      <trkpt lat="48.12508" lon="-3.8111">
        <ele>166.5</ele>
        <time>2023-04-05T10:55:43Z</time>
      </trkpt>
      <trkpt lat="48.12512" lon="-3.811">
        <ele>166.9</ele>
        <time>2023-04-05T10:55:44Z</time>
      </trkpt>
      <trkpt lat="48.1252" lon="-3.81093">
        <ele>167.6</ele>
        <time>2023-04-05T10:55:46Z</time>
      </trkpt>
      <trkpt lat="48.12524" lon="-3.81091">
        <ele>168</ele>
        <time>2023-04-05T10:55:48Z</time>
      </trkpt>
      <trkpt lat="48.12527" lon="-3.8109">
        <ele>168.2</ele>
        <time>2023-04-05T10:55:49Z</time>
      </trkpt>
      <trkpt lat="48.1253" lon="-3.8109">
        <ele>168.5</ele>
        <time>2023-04-05T10:55:50Z</time>
      </trkpt>
      <trkpt lat="48.12533" lon="-3.81088">
        <ele>168.9</ele>
        <time>2023-04-05T10:55:51Z</time>
      </trkpt>
      <trkpt lat="48.12534" lon="-3.81087">
        <ele>169</ele>
        <time>2023-04-05T10:55:52Z</time>
      </trkpt>
      <trkpt lat="48.12538" lon="-3.81085">
        <ele>169.5</ele>
        <time>2023-04-05T10:55:53Z</time>
      </trkpt>
      <trkpt lat="48.12539" lon="-3.81084">
        <ele>169.6</ele>
        <time>2023-04-05T10:55:54Z</time>
      </trkpt>
      <trkpt lat="48.12542" lon="-3.81082">
        <ele>169.9</ele>
        <time>2023-04-05T10:55:55Z</time>
      </trkpt>
      <trkpt lat="48.12545" lon="-3.81081">
        <ele>170.4</ele>
        <time>2023-04-05T10:55:56Z</time>
      </trkpt>
      <trkpt lat="48.12546" lon="-3.8108">
        <ele>170.5</ele>
        <time>2023-04-05T10:55:57Z</time>
      </trkpt>
      <trkpt lat="48.1255" lon="-3.81078">
        <ele>170.9</ele>
        <time>2023-04-05T10:55:58Z</time>
      </trkpt>
      <trkpt lat="48.1255" lon="-3.81078">
        <ele>171</ele>
        <time>2023-04-05T10:55:59Z</time>
      </trkpt>
      <trkpt lat="48.12554" lon="-3.81076">
        <ele>171.4</ele>
        <time>2023-04-05T10:56:00Z</time>
      </trkpt>
      <trkpt lat="48.12555" lon="-3.81076">
        <ele>171.5</ele>
        <time>2023-04-05T10:56:01Z</time>
      </trkpt>
      <trkpt lat="48.12556" lon="-3.81075">
        <ele>171.7</ele>
        <time>2023-04-05T10:56:02Z</time>
      </trkpt>
      <trkpt lat="48.12558" lon="-3.81074">
        <ele>171.9</ele>
        <time>2023-04-05T10:56:03Z</time>
      </trkpt>
      <trkpt lat="48.12561" lon="-3.81072">
        <ele>172.3</ele>
        <time>2023-04-05T10:56:04Z</time>
      </trkpt>
      <trkpt lat="48.12562" lon="-3.81071">
        <ele>172.4</ele>
        <time>2023-04-05T10:56:05Z</time>
      </trkpt>
      <trkpt lat="48.12566" lon="-3.81068">
        <ele>172.9</ele>
        <time>2023-04-05T10:56:06Z</time>
      </trkpt>
      <trkpt lat="48.12569" lon="-3.81066">
        <ele>173.3</ele>
        <time>2023-04-05T10:56:08Z</time>
      </trkpt>
      <trkpt lat="48.1257" lon="-3.81066">
        <ele>173.4</ele>
        <time>2023-04-05T10:56:09Z</time>
      </trkpt>
      <trkpt lat="48.12573" lon="-3.81064">
        <ele>173.8</ele>
        <time>2023-04-05T10:56:10Z</time>
      </trkpt>
      <trkpt lat="48.12574" lon="-3.81064">
        <ele>173.9</ele>
        <time>2023-04-05T10:56:11Z</time>
      </trkpt>
      <trkpt lat="48.12578" lon="-3.8106">
        <ele>174.4</ele>
        <time>2023-04-05T10:56:12Z</time>
      </trkpt>
      <trkpt lat="48.12581" lon="-3.81058">
        <ele>174.8</ele>
        <time>2023-04-05T10:56:14Z</time>
      </trkpt>
      <trkpt lat="48.12584" lon="-3.81056">
        <ele>175.1</ele>
        <time>2023-04-05T10:56:15Z</time>
      </trkpt>
      <trkpt lat="48.12585" lon="-3.81057">
        <ele>175.2</ele>
        <time>2023-04-05T10:56:16Z</time>
      </trkpt>
      <trkpt lat="48.12587" lon="-3.81057">
        <ele>175.4</ele>
        <time>2023-04-05T10:56:18Z</time>
      </trkpt>
      <trkpt lat="48.1259" lon="-3.81056">
        <ele>175.7</ele>
        <time>2023-04-05T10:56:19Z</time>
      </trkpt>
      <trkpt lat="48.12593" lon="-3.81056">
        <ele>176</ele>
        <time>2023-04-05T10:56:20Z</time>
      </trkpt>
      <trkpt lat="48.12594" lon="-3.81056">
        <ele>176</ele>
        <time>2023-04-05T10:56:21Z</time>
      </trkpt>
      <trkpt lat="48.12595" lon="-3.81056">
        <ele>176.1</ele>
        <time>2023-04-05T10:56:22Z</time>
      </trkpt>
      <trkpt lat="48.12597" lon="-3.81057">
        <ele>176.3</ele>
        <time>2023-04-05T10:56:23Z</time>
      </trkpt>
      <trkpt lat="48.12598" lon="-3.81057">
        <ele>176.4</ele>
        <time>2023-04-05T10:56:24Z</time>
      </trkpt>
      <trkpt lat="48.12599" lon="-3.81058">
        <ele>176.5</ele>
        <time>2023-04-05T10:56:25Z</time>
      </trkpt>
      <trkpt lat="48.12602" lon="-3.81057">
        <ele>176.8</ele>
        <time>2023-04-05T10:56:27Z</time>
      </trkpt>
      <trkpt lat="48.12604" lon="-3.81057">
        <ele>176.9</ele>
        <time>2023-04-05T10:56:28Z</time>
      </trkpt>
      <trkpt lat="48.12606" lon="-3.81058">
        <ele>177.1</ele>
        <time>2023-04-05T10:56:30Z</time>
      </trkpt>
      <trkpt lat="48.12609" lon="-3.81058">
        <ele>177.5</ele>
        <time>2023-04-05T10:56:31Z</time>
      </trkpt>
      <trkpt lat="48.12611" lon="-3.81058">
        <ele>177.6</ele>
        <time>2023-04-05T10:56:32Z</time>
      </trkpt>
      <trkpt lat="48.12613" lon="-3.81058">
        <ele>177.9</ele>
        <time>2023-04-05T10:56:33Z</time>
      </trkpt>
      <trkpt lat="48.12614" lon="-3.81058">
        <ele>178</ele>
        <time>2023-04-05T10:56:34Z</time>
      </trkpt>
      <trkpt lat="48.12615" lon="-3.81058">
        <ele>178.1</ele>
        <time>2023-04-05T10:56:35Z</time>
      </trkpt>
      <trkpt lat="48.12619" lon="-3.8106">
        <ele>178.6</ele>
        <time>2023-04-05T10:56:36Z</time>
      </trkpt>
      <trkpt lat="48.12621" lon="-3.8106">
        <ele>178.8</ele>
        <time>2023-04-05T10:56:37Z</time>
      </trkpt>
      <trkpt lat="48.12622" lon="-3.81062">
        <ele>179.1</ele>
        <time>2023-04-05T10:56:39Z</time>
      </trkpt>
      <trkpt lat="48.12624" lon="-3.81063">
        <ele>179.4</ele>
        <time>2023-04-05T10:56:40Z</time>
      </trkpt>
      <trkpt lat="48.12625" lon="-3.81064">
        <ele>179.6</ele>
        <time>2023-04-05T10:56:41Z</time>
      </trkpt>
      <trkpt lat="48.12627" lon="-3.81064">
        <ele>179.9</ele>
        <time>2023-04-05T10:56:42Z</time>
      </trkpt>
      <trkpt lat="48.12629" lon="-3.81065">
        <ele>180.2</ele>
        <time>2023-04-05T10:56:43Z</time>
      </trkpt>
      <trkpt lat="48.1263" lon="-3.81065">
        <ele>180.5</ele>
        <time>2023-04-05T10:56:44Z</time>
      </trkpt>
      <trkpt lat="48.12631" lon="-3.81066">
        <ele>180.8</ele>
        <time>2023-04-05T10:56:45Z</time>
      </trkpt>
      <trkpt lat="48.12633" lon="-3.81066">
        <ele>181.1</ele>
        <time>2023-04-05T10:56:46Z</time>
      </trkpt>
      <trkpt lat="48.12633" lon="-3.81067">
        <ele>181.2</ele>
        <time>2023-04-05T10:56:47Z</time>
      </trkpt>
      <trkpt lat="48.12633" lon="-3.81068">
        <ele>181.3</ele>
        <time>2023-04-05T10:56:48Z</time>
      </trkpt>
      <trkpt lat="48.12634" lon="-3.81068">
        <ele>181.4</ele>
        <time>2023-04-05T10:56:49Z</time>
      </trkpt>
      <trkpt lat="48.12634" lon="-3.81069">
        <ele>181.5</ele>
        <time>2023-04-05T10:56:50Z</time>
      </trkpt>
      <trkpt lat="48.12634" lon="-3.81069">
        <ele>181.6</ele>
        <time>2023-04-05T10:56:51Z</time>
      </trkpt>
      <trkpt lat="48.12635" lon="-3.8107">
        <ele>181.7</ele>
        <time>2023-04-05T10:56:52Z</time>
      </trkpt>
      <trkpt lat="48.12635" lon="-3.8107">
        <ele>181.9</ele>
        <time>2023-04-05T10:56:53Z</time>
      </trkpt>
      <trkpt lat="48.12636" lon="-3.81071">
        <ele>182</ele>
        <time>2023-04-05T10:56:54Z</time>
      </trkpt>
      <trkpt lat="48.12636" lon="-3.81071">
        <ele>182.1</ele>
        <time>2023-04-05T10:56:55Z</time>
      </trkpt>
      <trkpt lat="48.12636" lon="-3.81072">
        <ele>182.2</ele>
        <time>2023-04-05T10:56:56Z</time>
      </trkpt>
      <trkpt lat="48.12637" lon="-3.81073">
        <ele>182.6</ele>
        <time>2023-04-05T10:57:25Z</time>
      </trkpt>
      <trkpt lat="48.12637" lon="-3.81073">
        <ele>182.7</ele>
        <time>2023-04-05T10:57:26Z</time>
      </trkpt>
      <trkpt lat="48.12638" lon="-3.81074">
        <ele>182.7</ele>
        <time>2023-04-05T10:57:28Z</time>
      </trkpt>
      <trkpt lat="48.12638" lon="-3.81074">
        <ele>182.8</ele>
        <time>2023-04-05T10:57:29Z</time>
      </trkpt>
      <trkpt lat="48.12645" lon="-3.81075">
        <ele>183.7</ele>
        <time>2023-04-05T10:57:31Z</time>
      </trkpt>
      <trkpt lat="48.12649" lon="-3.81076">
        <ele>184.3</ele>
        <time>2023-04-05T10:57:33Z</time>
      </trkpt>
      <trkpt lat="48.12653" lon="-3.81077">
        <ele>184.8</ele>
        <time>2023-04-05T10:57:34Z</time>
      </trkpt>
      <trkpt lat="48.12654" lon="-3.81077">
        <ele>185</ele>
        <time>2023-04-05T10:57:35Z</time>
      </trkpt>
      <trkpt lat="48.12657" lon="-3.81078">
        <ele>185.4</ele>
        <time>2023-04-05T10:57:36Z</time>
      </trkpt>
      <trkpt lat="48.12658" lon="-3.81079">
        <ele>185.6</ele>
        <time>2023-04-05T10:57:37Z</time>
      </trkpt>
      <trkpt lat="48.1266" lon="-3.8108">
        <ele>185.8</ele>
        <time>2023-04-05T10:57:38Z</time>
      </trkpt>
      <trkpt lat="48.12662" lon="-3.81081">
        <ele>186.1</ele>
        <time>2023-04-05T10:57:39Z</time>
      </trkpt>
      <trkpt lat="48.12664" lon="-3.81082">
        <ele>186.4</ele>
        <time>2023-04-05T10:57:40Z</time>
      </trkpt>
      <trkpt lat="48.12664" lon="-3.81082">
        <ele>186.5</ele>
        <time>2023-04-05T10:57:41Z</time>
      </trkpt>
      <trkpt lat="48.12665" lon="-3.81083">
        <ele>186.6</ele>
        <time>2023-04-05T10:57:42Z</time>
      </trkpt>
      <trkpt lat="48.12668" lon="-3.81084">
        <ele>187</ele>
        <time>2023-04-05T10:57:43Z</time>
      </trkpt>
      <trkpt lat="48.12669" lon="-3.81084">
        <ele>187.1</ele>
        <time>2023-04-05T10:57:44Z</time>
      </trkpt>
      <trkpt lat="48.1267" lon="-3.81084">
        <ele>187.3</ele>
        <time>2023-04-05T10:57:45Z</time>
      </trkpt>
      <trkpt lat="48.12672" lon="-3.81085">
        <ele>187.5</ele>
        <time>2023-04-05T10:57:46Z</time>
      </trkpt>
      <trkpt lat="48.12674" lon="-3.81086">
        <ele>187.8</ele>
        <time>2023-04-05T10:57:47Z</time>
      </trkpt>
      <trkpt lat="48.12675" lon="-3.81087">
        <ele>188</ele>
        <time>2023-04-05T10:57:48Z</time>
      </trkpt>
      <trkpt lat="48.12676" lon="-3.81088">
        <ele>188.2</ele>
        <time>2023-04-05T10:57:49Z</time>
      </trkpt>
      <trkpt lat="48.12678" lon="-3.81089">
        <ele>188.4</ele>
        <time>2023-04-05T10:57:50Z</time>
      </trkpt>
      <trkpt lat="48.12679" lon="-3.81089">
        <ele>188.6</ele>
        <time>2023-04-05T10:57:51Z</time>
      </trkpt>
      <trkpt lat="48.12681" lon="-3.8109">
        <ele>188.8</ele>
        <time>2023-04-05T10:57:52Z</time>
      </trkpt>
      <trkpt lat="48.12683" lon="-3.81091">
        <ele>189.2</ele>
        <time>2023-04-05T10:57:53Z</time>
      </trkpt>
      <trkpt lat="48.12684" lon="-3.81091">
        <ele>189.3</ele>
        <time>2023-04-05T10:57:54Z</time>
      </trkpt>
      <trkpt lat="48.12685" lon="-3.81092">
        <ele>189.5</ele>
        <time>2023-04-05T10:57:55Z</time>
      </trkpt>
      <trkpt lat="48.12686" lon="-3.81093">
        <ele>189.8</ele>
        <time>2023-04-05T10:57:56Z</time>
      </trkpt>
      <trkpt lat="48.12688" lon="-3.81093">
        <ele>190.1</ele>
        <time>2023-04-05T10:57:57Z</time>
      </trkpt>
      <trkpt lat="48.12689" lon="-3.81092">
        <ele>190.4</ele>
        <time>2023-04-05T10:57:58Z</time>
      </trkpt>
      <trkpt lat="48.12691" lon="-3.81088">
        <ele>190.5</ele>
        <time>2023-04-05T10:57:59Z</time>
      </trkpt>
      <trkpt lat="48.12691" lon="-3.81086">
        <ele>190.3</ele>
        <time>2023-04-05T10:58:00Z</time>
      </trkpt>
      <trkpt lat="48.12692" lon="-3.81082">
        <ele>189.9</ele>
        <time>2023-04-05T10:58:01Z</time>
      </trkpt>
      <trkpt lat="48.12693" lon="-3.81081">
        <ele>189.7</ele>
        <time>2023-04-05T10:58:03Z</time>
      </trkpt>
      <trkpt lat="48.12693" lon="-3.81079">
        <ele>189.6</ele>
        <time>2023-04-05T10:58:04Z</time>
      </trkpt>
      <trkpt lat="48.12694" lon="-3.81078">
        <ele>189.4</ele>
        <time>2023-04-05T10:58:05Z</time>
      </trkpt>
      <trkpt lat="48.12695" lon="-3.81077">
        <ele>189.2</ele>
        <time>2023-04-05T10:58:06Z</time>
      </trkpt>
      <trkpt lat="48.12696" lon="-3.81075">
        <ele>189</ele>
        <time>2023-04-05T10:58:07Z</time>
      </trkpt>
      <trkpt lat="48.12697" lon="-3.81074">
        <ele>188.8</ele>
        <time>2023-04-05T10:58:08Z</time>
      </trkpt>
      <trkpt lat="48.12698" lon="-3.81072">
        <ele>188.7</ele>
        <time>2023-04-05T10:58:09Z</time>
      </trkpt>
      <trkpt lat="48.12699" lon="-3.81071">
        <ele>188.4</ele>
        <time>2023-04-05T10:58:10Z</time>
      </trkpt>
      <trkpt lat="48.12701" lon="-3.8107">
        <ele>188.2</ele>
        <time>2023-04-05T10:58:11Z</time>
      </trkpt>
      <trkpt lat="48.12702" lon="-3.81068">
        <ele>188.1</ele>
        <time>2023-04-05T10:58:12Z</time>
      </trkpt>
      <trkpt lat="48.12703" lon="-3.81067">
        <ele>187.9</ele>
        <time>2023-04-05T10:58:13Z</time>
      </trkpt>
      <trkpt lat="48.12704" lon="-3.81066">
        <ele>187.8</ele>
        <time>2023-04-05T10:58:14Z</time>
      </trkpt>
      <trkpt lat="48.12705" lon="-3.81065">
        <ele>187.7</ele>
        <time>2023-04-05T10:58:15Z</time>
      </trkpt>
      <trkpt lat="48.12706" lon="-3.81063">
        <ele>187.6</ele>
        <time>2023-04-05T10:58:16Z</time>
      </trkpt>
      <trkpt lat="48.12707" lon="-3.81061">
        <ele>187.5</ele>
        <time>2023-04-05T10:58:17Z</time>
      </trkpt>
      <trkpt lat="48.12708" lon="-3.81057">
        <ele>187.4</ele>
        <time>2023-04-05T10:58:18Z</time>
      </trkpt>
      <trkpt lat="48.12709" lon="-3.81056">
        <ele>187.4</ele>
        <time>2023-04-05T10:58:19Z</time>
      </trkpt>
      <trkpt lat="48.1271" lon="-3.81054">
        <ele>187.4</ele>
        <time>2023-04-05T10:58:20Z</time>
      </trkpt>
      <trkpt lat="48.12711" lon="-3.81053">
        <ele>187.4</ele>
        <time>2023-04-05T10:58:21Z</time>
      </trkpt>
      <trkpt lat="48.12712" lon="-3.81052">
        <ele>187.4</ele>
        <time>2023-04-05T10:58:22Z</time>
      </trkpt>
      <trkpt lat="48.12713" lon="-3.8105">
        <ele>187.5</ele>
        <time>2023-04-05T10:58:23Z</time>
      </trkpt>
      <trkpt lat="48.12714" lon="-3.81049">
        <ele>187.5</ele>
        <time>2023-04-05T10:58:24Z</time>
      </trkpt>
      <trkpt lat="48.12714" lon="-3.81047">
        <ele>187.6</ele>
        <time>2023-04-05T10:58:25Z</time>
      </trkpt>
      <trkpt lat="48.12715" lon="-3.81047">
        <ele>187.7</ele>
        <time>2023-04-05T10:58:26Z</time>
      </trkpt>
      <trkpt lat="48.12715" lon="-3.81045">
        <ele>187.8</ele>
        <time>2023-04-05T10:58:27Z</time>
      </trkpt>
      <trkpt lat="48.12716" lon="-3.81044">
        <ele>187.8</ele>
        <time>2023-04-05T10:58:28Z</time>
      </trkpt>
      <trkpt lat="48.12716" lon="-3.81043">
        <ele>187.9</ele>
        <time>2023-04-05T10:58:29Z</time>
      </trkpt>
      <trkpt lat="48.12719" lon="-3.81042">
        <ele>188.2</ele>
        <time>2023-04-05T10:58:30Z</time>
      </trkpt>
      <trkpt lat="48.12719" lon="-3.81041">
        <ele>188.3</ele>
        <time>2023-04-05T10:58:31Z</time>
      </trkpt>
      <trkpt lat="48.12721" lon="-3.81039">
        <ele>188.4</ele>
        <time>2023-04-05T10:58:32Z</time>
      </trkpt>
      <trkpt lat="48.12722" lon="-3.81038">
        <ele>188.6</ele>
        <time>2023-04-05T10:58:33Z</time>
      </trkpt>
      <trkpt lat="48.12723" lon="-3.81036">
        <ele>188.8</ele>
        <time>2023-04-05T10:58:34Z</time>
      </trkpt>
      <trkpt lat="48.12724" lon="-3.81034">
        <ele>189</ele>
        <time>2023-04-05T10:58:35Z</time>
      </trkpt>
      <trkpt lat="48.12725" lon="-3.81032">
        <ele>189.3</ele>
        <time>2023-04-05T10:58:36Z</time>
      </trkpt>
      <trkpt lat="48.12726" lon="-3.8103">
        <ele>189.5</ele>
        <time>2023-04-05T10:58:37Z</time>
      </trkpt>
      <trkpt lat="48.12728" lon="-3.81028">
        <ele>189.9</ele>
        <time>2023-04-05T10:58:39Z</time>
      </trkpt>
      <trkpt lat="48.1273" lon="-3.81026">
        <ele>190.1</ele>
        <time>2023-04-05T10:58:41Z</time>
      </trkpt>
      <trkpt lat="48.1273" lon="-3.81025">
        <ele>190.2</ele>
        <time>2023-04-05T10:58:42Z</time>
      </trkpt>
      <trkpt lat="48.12732" lon="-3.81023">
        <ele>190.5</ele>
        <time>2023-04-05T10:58:43Z</time>
      </trkpt>
      <trkpt lat="48.12733" lon="-3.81022">
        <ele>190.7</ele>
        <time>2023-04-05T10:58:44Z</time>
      </trkpt>
      <trkpt lat="48.12734" lon="-3.81021">
        <ele>190.8</ele>
        <time>2023-04-05T10:58:45Z</time>
      </trkpt>
      <trkpt lat="48.12736" lon="-3.8102">
        <ele>191.2</ele>
        <time>2023-04-05T10:58:47Z</time>
      </trkpt>
      <trkpt lat="48.12737" lon="-3.81018">
        <ele>191.4</ele>
        <time>2023-04-05T10:58:48Z</time>
      </trkpt>
      <trkpt lat="48.12738" lon="-3.81017">
        <ele>191.6</ele>
        <time>2023-04-05T10:58:49Z</time>
      </trkpt>
      <trkpt lat="48.12741" lon="-3.81013">
        <ele>192.2</ele>
        <time>2023-04-05T10:58:50Z</time>
      </trkpt>
      <trkpt lat="48.12741" lon="-3.81012">
        <ele>192.3</ele>
        <time>2023-04-05T10:58:51Z</time>
      </trkpt>
      <trkpt lat="48.12744" lon="-3.81009">
        <ele>192.7</ele>
        <time>2023-04-05T10:58:52Z</time>
      </trkpt>
      <trkpt lat="48.12745" lon="-3.81008">
        <ele>192.9</ele>
        <time>2023-04-05T10:58:54Z</time>
      </trkpt>
      <trkpt lat="48.12746" lon="-3.81007">
        <ele>193.1</ele>
        <time>2023-04-05T10:58:55Z</time>
      </trkpt>
      <trkpt lat="48.12747" lon="-3.81006">
        <ele>193.3</ele>
        <time>2023-04-05T10:58:56Z</time>
      </trkpt>
      <trkpt lat="48.12748" lon="-3.81005">
        <ele>193.4</ele>
        <time>2023-04-05T10:58:57Z</time>
      </trkpt>
      <trkpt lat="48.12749" lon="-3.81003">
        <ele>193.7</ele>
        <time>2023-04-05T10:58:58Z</time>
      </trkpt>
      <trkpt lat="48.1275" lon="-3.81002">
        <ele>193.8</ele>
        <time>2023-04-05T10:58:59Z</time>
      </trkpt>
      <trkpt lat="48.1275" lon="-3.81001">
        <ele>194</ele>
        <time>2023-04-05T10:59:00Z</time>
      </trkpt>
      <trkpt lat="48.12751" lon="-3.81">
        <ele>194.1</ele>
        <time>2023-04-05T10:59:01Z</time>
      </trkpt>
      <trkpt lat="48.12752" lon="-3.80999">
        <ele>194.3</ele>
        <time>2023-04-05T10:59:02Z</time>
      </trkpt>
      <trkpt lat="48.12753" lon="-3.80998">
        <ele>194.4</ele>
        <time>2023-04-05T10:59:03Z</time>
      </trkpt>
      <trkpt lat="48.12753" lon="-3.80997">
        <ele>194.5</ele>
        <time>2023-04-05T10:59:04Z</time>
      </trkpt>
      <trkpt lat="48.12754" lon="-3.80995">
        <ele>194.6</ele>
        <time>2023-04-05T10:59:05Z</time>
      </trkpt>
      <trkpt lat="48.12754" lon="-3.80994">
        <ele>194.8</ele>
        <time>2023-04-05T10:59:06Z</time>
      </trkpt>
      <trkpt lat="48.12755" lon="-3.80992">
        <ele>195</ele>
        <time>2023-04-05T10:59:07Z</time>
      </trkpt>
      <trkpt lat="48.12755" lon="-3.80991">
        <ele>195.1</ele>
        <time>2023-04-05T10:59:08Z</time>
      </trkpt>
      <trkpt lat="48.12755" lon="-3.8099">
        <ele>195.2</ele>
        <time>2023-04-05T10:59:09Z</time>
      </trkpt>
      <trkpt lat="48.12755" lon="-3.80989">
        <ele>195.3</ele>
        <time>2023-04-05T10:59:10Z</time>
      </trkpt>
      <trkpt lat="48.12755" lon="-3.80987">
        <ele>195.4</ele>
        <time>2023-04-05T10:59:11Z</time>
      </trkpt>
      <trkpt lat="48.12756" lon="-3.80986">
        <ele>195.5</ele>
        <time>2023-04-05T10:59:12Z</time>
      </trkpt>
      <trkpt lat="48.12756" lon="-3.80985">
        <ele>195.7</ele>
        <time>2023-04-05T10:59:13Z</time>
      </trkpt>
      <trkpt lat="48.12757" lon="-3.80983">
        <ele>195.8</ele>
        <time>2023-04-05T10:59:14Z</time>
      </trkpt>
      <trkpt lat="48.12758" lon="-3.80981">
        <ele>196</ele>
        <time>2023-04-05T10:59:15Z</time>
      </trkpt>
      <trkpt lat="48.1276" lon="-3.80978">
        <ele>196.4</ele>
        <time>2023-04-05T10:59:16Z</time>
      </trkpt>
      <trkpt lat="48.12761" lon="-3.80978">
        <ele>196.5</ele>
        <time>2023-04-05T10:59:17Z</time>
      </trkpt>
      <trkpt lat="48.12763" lon="-3.80974">
        <ele>196.9</ele>
        <time>2023-04-05T10:59:18Z</time>
      </trkpt>
      <trkpt lat="48.12763" lon="-3.80973">
        <ele>197</ele>
        <time>2023-04-05T10:59:19Z</time>
      </trkpt>
      <trkpt lat="48.12764" lon="-3.80972">
        <ele>197.1</ele>
        <time>2023-04-05T10:59:20Z</time>
      </trkpt>
      <trkpt lat="48.12765" lon="-3.80971">
        <ele>197.3</ele>
        <time>2023-04-05T10:59:21Z</time>
      </trkpt>
      <trkpt lat="48.12765" lon="-3.8097">
        <ele>197.4</ele>
        <time>2023-04-05T10:59:22Z</time>
      </trkpt>
      <trkpt lat="48.12767" lon="-3.80969">
        <ele>197.7</ele>
        <time>2023-04-05T10:59:23Z</time>
      </trkpt>
      <trkpt lat="48.12767" lon="-3.80968">
        <ele>197.8</ele>
        <time>2023-04-05T10:59:24Z</time>
      </trkpt>
      <trkpt lat="48.12768" lon="-3.80967">
        <ele>197.9</ele>
        <time>2023-04-05T10:59:25Z</time>
      </trkpt>
      <trkpt lat="48.12769" lon="-3.80966">
        <ele>198.1</ele>
        <time>2023-04-05T10:59:26Z</time>
      </trkpt>
      <trkpt lat="48.1277" lon="-3.80965">
        <ele>198.3</ele>
        <time>2023-04-05T10:59:27Z</time>
      </trkpt>
      <trkpt lat="48.1277" lon="-3.80964">
        <ele>198.3</ele>
        <time>2023-04-05T10:59:28Z</time>
      </trkpt>
      <trkpt lat="48.12771" lon="-3.80961">
        <ele>198.6</ele>
        <time>2023-04-05T10:59:29Z</time>
      </trkpt>
      <trkpt lat="48.12771" lon="-3.8096">
        <ele>198.8</ele>
        <time>2023-04-05T10:59:30Z</time>
      </trkpt>
      <trkpt lat="48.12772" lon="-3.80959">
        <ele>198.9</ele>
        <time>2023-04-05T10:59:31Z</time>
      </trkpt>
      <trkpt lat="48.12772" lon="-3.80957">
        <ele>199.1</ele>
        <time>2023-04-05T10:59:32Z</time>
      </trkpt>
      <trkpt lat="48.12773" lon="-3.80955">
        <ele>199.3</ele>
        <time>2023-04-05T10:59:33Z</time>
      </trkpt>
      <trkpt lat="48.12774" lon="-3.80955">
        <ele>199.4</ele>
        <time>2023-04-05T10:59:34Z</time>
      </trkpt>
      <trkpt lat="48.12775" lon="-3.80954">
        <ele>199.6</ele>
        <time>2023-04-05T10:59:35Z</time>
      </trkpt>
      <trkpt lat="48.12776" lon="-3.80953">
        <ele>199.8</ele>
        <time>2023-04-05T10:59:36Z</time>
      </trkpt>
      <trkpt lat="48.12777" lon="-3.80952">
        <ele>200</ele>
        <time>2023-04-05T10:59:37Z</time>
      </trkpt>
      <trkpt lat="48.12778" lon="-3.8095">
        <ele>200.3</ele>
        <time>2023-04-05T10:59:38Z</time>
      </trkpt>
      <trkpt lat="48.12779" lon="-3.80948">
        <ele>200.5</ele>
        <time>2023-04-05T10:59:39Z</time>
      </trkpt>
      <trkpt lat="48.1278" lon="-3.80946">
        <ele>200.8</ele>
        <time>2023-04-05T10:59:40Z</time>
      </trkpt>
      <trkpt lat="48.12781" lon="-3.80945">
        <ele>201</ele>
        <time>2023-04-05T10:59:41Z</time>
      </trkpt>
      <trkpt lat="48.12782" lon="-3.80945">
        <ele>201.1</ele>
        <time>2023-04-05T10:59:42Z</time>
      </trkpt>
      <trkpt lat="48.12783" lon="-3.80943">
        <ele>201.3</ele>
        <time>2023-04-05T10:59:43Z</time>
      </trkpt>
      <trkpt lat="48.12783" lon="-3.80941">
        <ele>201.5</ele>
        <time>2023-04-05T10:59:44Z</time>
      </trkpt>
      <trkpt lat="48.12784" lon="-3.8094">
        <ele>201.6</ele>
        <time>2023-04-05T10:59:45Z</time>
      </trkpt>
      <trkpt lat="48.12784" lon="-3.80939">
        <ele>201.7</ele>
        <time>2023-04-05T10:59:46Z</time>
      </trkpt>
      <trkpt lat="48.12785" lon="-3.80938">
        <ele>201.8</ele>
        <time>2023-04-05T10:59:47Z</time>
      </trkpt>
      <trkpt lat="48.12785" lon="-3.80936">
        <ele>202.1</ele>
        <time>2023-04-05T10:59:48Z</time>
      </trkpt>
      <trkpt lat="48.12786" lon="-3.80935">
        <ele>202.2</ele>
        <time>2023-04-05T10:59:49Z</time>
      </trkpt>
      <trkpt lat="48.12786" lon="-3.80934">
        <ele>202.3</ele>
        <time>2023-04-05T10:59:50Z</time>
      </trkpt>
      <trkpt lat="48.12786" lon="-3.80933">
        <ele>202.4</ele>
        <time>2023-04-05T10:59:51Z</time>
      </trkpt>
      <trkpt lat="48.12787" lon="-3.80931">
        <ele>202.6</ele>
        <time>2023-04-05T10:59:52Z</time>
      </trkpt>
      <trkpt lat="48.12788" lon="-3.8093">
        <ele>202.8</ele>
        <time>2023-04-05T10:59:53Z</time>
      </trkpt>
      <trkpt lat="48.12789" lon="-3.80928">
        <ele>203</ele>
        <time>2023-04-05T10:59:54Z</time>
      </trkpt>
      <trkpt lat="48.1279" lon="-3.80926">
        <ele>203.2</ele>
        <time>2023-04-05T10:59:55Z</time>
      </trkpt>
      <trkpt lat="48.12791" lon="-3.80924">
        <ele>203.3</ele>
        <time>2023-04-05T10:59:56Z</time>
      </trkpt>
      <trkpt lat="48.12792" lon="-3.80923">
        <ele>203.5</ele>
        <time>2023-04-05T10:59:57Z</time>
      </trkpt>
      <trkpt lat="48.12794" lon="-3.80919">
        <ele>203.9</ele>
        <time>2023-04-05T10:59:58Z</time>
      </trkpt>
      <trkpt lat="48.12794" lon="-3.80918">
        <ele>204</ele>
        <time>2023-04-05T10:59:59Z</time>
      </trkpt>
      <trkpt lat="48.12796" lon="-3.80915">
        <ele>204.4</ele>
        <time>2023-04-05T11:00:00Z</time>
      </trkpt>
      <trkpt lat="48.12797" lon="-3.80914">
        <ele>204.5</ele>
        <time>2023-04-05T11:00:01Z</time>
      </trkpt>
      <trkpt lat="48.12798" lon="-3.80912">
        <ele>204.7</ele>
        <time>2023-04-05T11:00:02Z</time>
      </trkpt>
      <trkpt lat="48.12799" lon="-3.8091">
        <ele>204.9</ele>
        <time>2023-04-05T11:00:03Z</time>
      </trkpt>
      <trkpt lat="48.128" lon="-3.80908">
        <ele>205.1</ele>
        <time>2023-04-05T11:00:04Z</time>
      </trkpt>
      <trkpt lat="48.12802" lon="-3.80906">
        <ele>205.3</ele>
        <time>2023-04-05T11:00:05Z</time>
      </trkpt>
      <trkpt lat="48.12803" lon="-3.80905">
        <ele>205.5</ele>
        <time>2023-04-05T11:00:06Z</time>
      </trkpt>
      <trkpt lat="48.12805" lon="-3.80904">
        <ele>205.7</ele>
        <time>2023-04-05T11:00:07Z</time>
      </trkpt>
      <trkpt lat="48.12806" lon="-3.80903">
        <ele>205.8</ele>
        <time>2023-04-05T11:00:08Z</time>
      </trkpt>
      <trkpt lat="48.12808" lon="-3.80901">
        <ele>206.1</ele>
        <time>2023-04-05T11:00:10Z</time>
      </trkpt>
      <trkpt lat="48.12809" lon="-3.809">
        <ele>206.2</ele>
        <time>2023-04-05T11:00:11Z</time>
      </trkpt>
      <trkpt lat="48.1281" lon="-3.809">
        <ele>206.4</ele>
        <time>2023-04-05T11:00:12Z</time>
      </trkpt>
      <trkpt lat="48.12811" lon="-3.80899">
        <ele>206.5</ele>
        <time>2023-04-05T11:00:13Z</time>
      </trkpt>
      <trkpt lat="48.12813" lon="-3.80897">
        <ele>206.7</ele>
        <time>2023-04-05T11:00:14Z</time>
      </trkpt>
      <trkpt lat="48.12813" lon="-3.80896">
        <ele>206.8</ele>
        <time>2023-04-05T11:00:15Z</time>
      </trkpt>
      <trkpt lat="48.12814" lon="-3.80895">
        <ele>206.9</ele>
        <time>2023-04-05T11:00:17Z</time>
      </trkpt>
      <trkpt lat="48.12815" lon="-3.80895">
        <ele>207.1</ele>
        <time>2023-04-05T11:00:18Z</time>
      </trkpt>
      <trkpt lat="48.12817" lon="-3.80894">
        <ele>207.2</ele>
        <time>2023-04-05T11:00:19Z</time>
      </trkpt>
      <trkpt lat="48.12819" lon="-3.80893">
        <ele>207.5</ele>
        <time>2023-04-05T11:00:20Z</time>
      </trkpt>
      <trkpt lat="48.1282" lon="-3.80892">
        <ele>207.6</ele>
        <time>2023-04-05T11:00:21Z</time>
      </trkpt>
      <trkpt lat="48.12823" lon="-3.80888">
        <ele>208</ele>
        <time>2023-04-05T11:00:23Z</time>
      </trkpt>
      <trkpt lat="48.12825" lon="-3.80884">
        <ele>208.4</ele>
        <time>2023-04-05T11:00:25Z</time>
      </trkpt>
      <trkpt lat="48.12825" lon="-3.80883">
        <ele>208.5</ele>
        <time>2023-04-05T11:00:27Z</time>
      </trkpt>
      <trkpt lat="48.12826" lon="-3.80882">
        <ele>208.6</ele>
        <time>2023-04-05T11:00:28Z</time>
      </trkpt>
      <trkpt lat="48.12827" lon="-3.8088">
        <ele>208.7</ele>
        <time>2023-04-05T11:00:29Z</time>
      </trkpt>
      <trkpt lat="48.12828" lon="-3.80878">
        <ele>208.9</ele>
        <time>2023-04-05T11:00:30Z</time>
      </trkpt>
      <trkpt lat="48.12829" lon="-3.80876">
        <ele>209.1</ele>
        <time>2023-04-05T11:00:31Z</time>
      </trkpt>
      <trkpt lat="48.12829" lon="-3.80874">
        <ele>209.2</ele>
        <time>2023-04-05T11:00:32Z</time>
      </trkpt>
      <trkpt lat="48.1283" lon="-3.80873">
        <ele>209.4</ele>
        <time>2023-04-05T11:00:33Z</time>
      </trkpt>
      <trkpt lat="48.1283" lon="-3.80872">
        <ele>209.4</ele>
        <time>2023-04-05T11:00:34Z</time>
      </trkpt>
      <trkpt lat="48.12832" lon="-3.80867">
        <ele>209.8</ele>
        <time>2023-04-05T11:00:35Z</time>
      </trkpt>
      <trkpt lat="48.12833" lon="-3.80865">
        <ele>210</ele>
        <time>2023-04-05T11:00:36Z</time>
      </trkpt>
      <trkpt lat="48.12834" lon="-3.80863">
        <ele>210.2</ele>
        <time>2023-04-05T11:00:38Z</time>
      </trkpt>
      <trkpt lat="48.12835" lon="-3.80861">
        <ele>210.3</ele>
        <time>2023-04-05T11:00:39Z</time>
      </trkpt>
      <trkpt lat="48.12836" lon="-3.8086">
        <ele>210.4</ele>
        <time>2023-04-05T11:00:40Z</time>
      </trkpt>
      <trkpt lat="48.12837" lon="-3.80858">
        <ele>210.6</ele>
        <time>2023-04-05T11:00:41Z</time>
      </trkpt>
      <trkpt lat="48.12838" lon="-3.80856">
        <ele>210.7</ele>
        <time>2023-04-05T11:00:42Z</time>
      </trkpt>
      <trkpt lat="48.12839" lon="-3.80854">
        <ele>210.8</ele>
        <time>2023-04-05T11:00:43Z</time>
      </trkpt>
      <trkpt lat="48.12839" lon="-3.80852">
        <ele>211</ele>
        <time>2023-04-05T11:00:44Z</time>
      </trkpt>
      <trkpt lat="48.1284" lon="-3.80848">
        <ele>211.2</ele>
        <time>2023-04-05T11:00:45Z</time>
      </trkpt>
      <trkpt lat="48.1284" lon="-3.80846">
        <ele>211.2</ele>
        <time>2023-04-05T11:00:46Z</time>
      </trkpt>
      <trkpt lat="48.12842" lon="-3.80843">
        <ele>211.4</ele>
        <time>2023-04-05T11:00:47Z</time>
      </trkpt>
      <trkpt lat="48.12842" lon="-3.80842">
        <ele>211.5</ele>
        <time>2023-04-05T11:00:48Z</time>
      </trkpt>
      <trkpt lat="48.12844" lon="-3.80838">
        <ele>211.7</ele>
        <time>2023-04-05T11:00:49Z</time>
      </trkpt>
      <trkpt lat="48.12844" lon="-3.80837">
        <ele>211.7</ele>
        <time>2023-04-05T11:00:50Z</time>
      </trkpt>
      <trkpt lat="48.12847" lon="-3.80832">
        <ele>211.9</ele>
        <time>2023-04-05T11:00:51Z</time>
      </trkpt>
      <trkpt lat="48.12848" lon="-3.80829">
        <ele>212.1</ele>
        <time>2023-04-05T11:00:53Z</time>
      </trkpt>
      <trkpt lat="48.12848" lon="-3.80827">
        <ele>212.1</ele>
        <time>2023-04-05T11:00:54Z</time>
      </trkpt>
      <trkpt lat="48.12848" lon="-3.80824">
        <ele>212.2</ele>
        <time>2023-04-05T11:00:55Z</time>
      </trkpt>
      <trkpt lat="48.12849" lon="-3.80822">
        <ele>212.3</ele>
        <time>2023-04-05T11:00:56Z</time>
      </trkpt>
      <trkpt lat="48.1285" lon="-3.8082">
        <ele>212.4</ele>
        <time>2023-04-05T11:00:57Z</time>
      </trkpt>
      <trkpt lat="48.12851" lon="-3.80817">
        <ele>212.5</ele>
        <time>2023-04-05T11:00:58Z</time>
      </trkpt>
      <trkpt lat="48.12852" lon="-3.80813">
        <ele>212.6</ele>
        <time>2023-04-05T11:00:59Z</time>
      </trkpt>
      <trkpt lat="48.12853" lon="-3.80811">
        <ele>212.7</ele>
        <time>2023-04-05T11:01:00Z</time>
      </trkpt>
      <trkpt lat="48.12854" lon="-3.80806">
        <ele>212.8</ele>
        <time>2023-04-05T11:01:01Z</time>
      </trkpt>
      <trkpt lat="48.12854" lon="-3.80805">
        <ele>212.9</ele>
        <time>2023-04-05T11:01:02Z</time>
      </trkpt>
      <trkpt lat="48.12855" lon="-3.80801">
        <ele>213</ele>
        <time>2023-04-05T11:01:03Z</time>
      </trkpt>
      <trkpt lat="48.12856" lon="-3.80799">
        <ele>213</ele>
        <time>2023-04-05T11:01:04Z</time>
      </trkpt>
      <trkpt lat="48.12857" lon="-3.80795">
        <ele>213.1</ele>
        <time>2023-04-05T11:01:05Z</time>
      </trkpt>
      <trkpt lat="48.12857" lon="-3.80793">
        <ele>213.2</ele>
        <time>2023-04-05T11:01:06Z</time>
      </trkpt>
      <trkpt lat="48.12858" lon="-3.80789">
        <ele>213.2</ele>
        <time>2023-04-05T11:01:07Z</time>
      </trkpt>
      <trkpt lat="48.1286" lon="-3.80784">
        <ele>213.3</ele>
        <time>2023-04-05T11:01:09Z</time>
      </trkpt>
      <trkpt lat="48.12861" lon="-3.80783">
        <ele>213.4</ele>
        <time>2023-04-05T11:01:10Z</time>
      </trkpt>
      <trkpt lat="48.12862" lon="-3.80781">
        <ele>213.4</ele>
        <time>2023-04-05T11:01:11Z</time>
      </trkpt>
      <trkpt lat="48.12862" lon="-3.80779">
        <ele>213.5</ele>
        <time>2023-04-05T11:01:12Z</time>
      </trkpt>
      <trkpt lat="48.12864" lon="-3.80775">
        <ele>213.5</ele>
        <time>2023-04-05T11:01:13Z</time>
      </trkpt>
      <trkpt lat="48.12865" lon="-3.80774">
        <ele>213.6</ele>
        <time>2023-04-05T11:01:14Z</time>
      </trkpt>
      <trkpt lat="48.12865" lon="-3.80771">
        <ele>213.6</ele>
        <time>2023-04-05T11:01:15Z</time>
      </trkpt>
      <trkpt lat="48.12866" lon="-3.80769">
        <ele>213.6</ele>
        <time>2023-04-05T11:01:16Z</time>
      </trkpt>
      <trkpt lat="48.12867" lon="-3.80767">
        <ele>213.7</ele>
        <time>2023-04-05T11:01:17Z</time>
      </trkpt>
      <trkpt lat="48.12867" lon="-3.80767">
        <ele>213.7</ele>
        <time>2023-04-05T11:01:18Z</time>
      </trkpt>
      <trkpt lat="48.12867" lon="-3.80766">
        <ele>213.7</ele>
        <time>2023-04-05T11:01:19Z</time>
      </trkpt>
      <trkpt lat="48.12867" lon="-3.80766">
        <ele>213.7</ele>
        <time>2023-04-05T11:01:20Z</time>
      </trkpt>
      <trkpt lat="48.12868" lon="-3.80765">
        <ele>213.7</ele>
        <time>2023-04-05T11:01:21Z</time>
      </trkpt>
      <trkpt lat="48.12868" lon="-3.80765">
        <ele>213.7</ele>
        <time>2023-04-05T11:01:22Z</time>
      </trkpt>
      <trkpt lat="48.12868" lon="-3.80764">
        <ele>213.7</ele>
        <time>2023-04-05T11:01:23Z</time>
      </trkpt>
      <trkpt lat="48.12868" lon="-3.80764">
        <ele>213.7</ele>
        <time>2023-04-05T11:01:24Z</time>
      </trkpt>
      <trkpt lat="48.12868" lon="-3.80763">
        <ele>213.8</ele>
        <time>2023-04-05T11:01:25Z</time>
      </trkpt>
      <trkpt lat="48.12869" lon="-3.80763">
        <ele>213.8</ele>
        <time>2023-04-05T11:01:26Z</time>
      </trkpt>
      <trkpt lat="48.12869" lon="-3.80762">
        <ele>213.8</ele>
        <time>2023-04-05T11:01:27Z</time>
      </trkpt>
      <trkpt lat="48.12869" lon="-3.80762">
        <ele>213.8</ele>
        <time>2023-04-05T11:01:28Z</time>
      </trkpt>
      <trkpt lat="48.12869" lon="-3.80761">
        <ele>213.8</ele>
        <time>2023-04-05T11:02:02Z</time>
      </trkpt>
      <trkpt lat="48.12869" lon="-3.8076">
        <ele>213.8</ele>
        <time>2023-04-05T11:02:03Z</time>
      </trkpt>
      <trkpt lat="48.1287" lon="-3.8076">
        <ele>213.8</ele>
        <time>2023-04-05T11:02:04Z</time>
      </trkpt>
      <trkpt lat="48.12871" lon="-3.80758">
        <ele>213.9</ele>
        <time>2023-04-05T11:02:05Z</time>
      </trkpt>
      <trkpt lat="48.12872" lon="-3.80756">
        <ele>213.9</ele>
        <time>2023-04-05T11:02:06Z</time>
      </trkpt>
      <trkpt lat="48.12873" lon="-3.80754">
        <ele>214</ele>
        <time>2023-04-05T11:02:07Z</time>
      </trkpt>
      <trkpt lat="48.12875" lon="-3.80752">
        <ele>214.1</ele>
        <time>2023-04-05T11:02:09Z</time>
      </trkpt>
      <trkpt lat="48.12876" lon="-3.8075">
        <ele>214.1</ele>
        <time>2023-04-05T11:02:10Z</time>
      </trkpt>
      <trkpt lat="48.12877" lon="-3.80748">
        <ele>214.2</ele>
        <time>2023-04-05T11:02:11Z</time>
      </trkpt>
      <trkpt lat="48.12878" lon="-3.80746">
        <ele>214.3</ele>
        <time>2023-04-05T11:02:12Z</time>
      </trkpt>
      <trkpt lat="48.12879" lon="-3.80744">
        <ele>214.3</ele>
        <time>2023-04-05T11:02:13Z</time>
      </trkpt>
      <trkpt lat="48.12881" lon="-3.80742">
        <ele>214.4</ele>
        <time>2023-04-05T11:02:14Z</time>
      </trkpt>
      <trkpt lat="48.12881" lon="-3.80741">
        <ele>214.5</ele>
        <time>2023-04-05T11:02:15Z</time>
      </trkpt>
      <trkpt lat="48.12882" lon="-3.80738">
        <ele>214.6</ele>
        <time>2023-04-05T11:02:16Z</time>
      </trkpt>
      <trkpt lat="48.12883" lon="-3.80737">
        <ele>214.6</ele>
        <time>2023-04-05T11:02:17Z</time>
      </trkpt>
      <trkpt lat="48.12885" lon="-3.80734">
        <ele>214.8</ele>
        <time>2023-04-05T11:02:18Z</time>
      </trkpt>
      <trkpt lat="48.12886" lon="-3.80733">
        <ele>214.9</ele>
        <time>2023-04-05T11:02:19Z</time>
      </trkpt>
      <trkpt lat="48.12888" lon="-3.80729">
        <ele>215.1</ele>
        <time>2023-04-05T11:02:21Z</time>
      </trkpt>
      <trkpt lat="48.1289" lon="-3.80727">
        <ele>215.2</ele>
        <time>2023-04-05T11:02:22Z</time>
      </trkpt>
      <trkpt lat="48.12891" lon="-3.80725">
        <ele>215.3</ele>
        <time>2023-04-05T11:02:23Z</time>
      </trkpt>
      <trkpt lat="48.12892" lon="-3.80723">
        <ele>215.4</ele>
        <time>2023-04-05T11:02:24Z</time>
      </trkpt>
      <trkpt lat="48.12893" lon="-3.80722">
        <ele>215.5</ele>
        <time>2023-04-05T11:02:25Z</time>
      </trkpt>
      <trkpt lat="48.12895" lon="-3.80719">
        <ele>215.8</ele>
        <time>2023-04-05T11:02:26Z</time>
      </trkpt>
      <trkpt lat="48.12896" lon="-3.80718">
        <ele>215.8</ele>
        <time>2023-04-05T11:02:27Z</time>
      </trkpt>
      <trkpt lat="48.12898" lon="-3.80715">
        <ele>216.1</ele>
        <time>2023-04-05T11:02:28Z</time>
      </trkpt>
      <trkpt lat="48.12899" lon="-3.80714">
        <ele>216.1</ele>
        <time>2023-04-05T11:02:29Z</time>
      </trkpt>
      <trkpt lat="48.129" lon="-3.80712">
        <ele>216.3</ele>
        <time>2023-04-05T11:02:30Z</time>
      </trkpt>
      <trkpt lat="48.12901" lon="-3.8071">
        <ele>216.4</ele>
        <time>2023-04-05T11:02:31Z</time>
      </trkpt>
      <trkpt lat="48.12901" lon="-3.80709">
        <ele>216.5</ele>
        <time>2023-04-05T11:02:32Z</time>
      </trkpt>
      <trkpt lat="48.12903" lon="-3.80707">
        <ele>216.6</ele>
        <time>2023-04-05T11:02:33Z</time>
      </trkpt>
      <trkpt lat="48.12904" lon="-3.80705">
        <ele>216.8</ele>
        <time>2023-04-05T11:02:34Z</time>
      </trkpt>
      <trkpt lat="48.12905" lon="-3.80703">
        <ele>216.9</ele>
        <time>2023-04-05T11:02:35Z</time>
      </trkpt>
      <trkpt lat="48.12906" lon="-3.80702">
        <ele>217</ele>
        <time>2023-04-05T11:02:36Z</time>
      </trkpt>
      <trkpt lat="48.12907" lon="-3.807">
        <ele>217.2</ele>
        <time>2023-04-05T11:02:37Z</time>
      </trkpt>
      <trkpt lat="48.12908" lon="-3.80698">
        <ele>217.3</ele>
        <time>2023-04-05T11:02:38Z</time>
      </trkpt>
      <trkpt lat="48.12909" lon="-3.80696">
        <ele>217.4</ele>
        <time>2023-04-05T11:02:39Z</time>
      </trkpt>
      <trkpt lat="48.1291" lon="-3.80694">
        <ele>217.6</ele>
        <time>2023-04-05T11:02:40Z</time>
      </trkpt>
      <trkpt lat="48.12912" lon="-3.8069">
        <ele>217.9</ele>
        <time>2023-04-05T11:02:42Z</time>
      </trkpt>
      <trkpt lat="48.12914" lon="-3.80688">
        <ele>218.1</ele>
        <time>2023-04-05T11:02:43Z</time>
      </trkpt>
      <trkpt lat="48.12915" lon="-3.80686">
        <ele>218.3</ele>
        <time>2023-04-05T11:02:45Z</time>
      </trkpt>
      <trkpt lat="48.12916" lon="-3.80684">
        <ele>218.4</ele>
        <time>2023-04-05T11:02:46Z</time>
      </trkpt>
      <trkpt lat="48.12917" lon="-3.80682">
        <ele>218.6</ele>
        <time>2023-04-05T11:02:47Z</time>
      </trkpt>
      <trkpt lat="48.12918" lon="-3.80681">
        <ele>218.7</ele>
        <time>2023-04-05T11:02:48Z</time>
      </trkpt>
      <trkpt lat="48.12919" lon="-3.80679">
        <ele>218.9</ele>
        <time>2023-04-05T11:02:49Z</time>
      </trkpt>
      <trkpt lat="48.12922" lon="-3.80676">
        <ele>219.2</ele>
        <time>2023-04-05T11:02:50Z</time>
      </trkpt>
      <trkpt lat="48.12924" lon="-3.80673">
        <ele>219.5</ele>
        <time>2023-04-05T11:02:52Z</time>
      </trkpt>
      <trkpt lat="48.12924" lon="-3.80672">
        <ele>219.6</ele>
        <time>2023-04-05T11:02:53Z</time>
      </trkpt>
      <trkpt lat="48.12925" lon="-3.80671">
        <ele>219.7</ele>
        <time>2023-04-05T11:02:54Z</time>
      </trkpt>
      <trkpt lat="48.12926" lon="-3.8067">
        <ele>219.9</ele>
        <time>2023-04-05T11:02:55Z</time>
      </trkpt>
      <trkpt lat="48.12928" lon="-3.80667">
        <ele>220.1</ele>
        <time>2023-04-05T11:02:56Z</time>
      </trkpt>
      <trkpt lat="48.12928" lon="-3.80666">
        <ele>220.2</ele>
        <time>2023-04-05T11:02:57Z</time>
      </trkpt>
      <trkpt lat="48.12929" lon="-3.80666">
        <ele>220.3</ele>
        <time>2023-04-05T11:02:58Z</time>
      </trkpt>
      <trkpt lat="48.1293" lon="-3.80664">
        <ele>220.5</ele>
        <time>2023-04-05T11:02:59Z</time>
      </trkpt>
      <trkpt lat="48.12932" lon="-3.8066">
        <ele>220.9</ele>
        <time>2023-04-05T11:03:00Z</time>
      </trkpt>
      <trkpt lat="48.12934" lon="-3.80656">
        <ele>221.2</ele>
        <time>2023-04-05T11:03:02Z</time>
      </trkpt>
      <trkpt lat="48.12937" lon="-3.80653">
        <ele>221.7</ele>
        <time>2023-04-05T11:03:04Z</time>
      </trkpt>
      <trkpt lat="48.12938" lon="-3.80651">
        <ele>221.8</ele>
        <time>2023-04-05T11:03:06Z</time>
      </trkpt>
      <trkpt lat="48.12939" lon="-3.80649">
        <ele>222</ele>
        <time>2023-04-05T11:03:07Z</time>
      </trkpt>
      <trkpt lat="48.1294" lon="-3.80648">
        <ele>222.2</ele>
        <time>2023-04-05T11:03:08Z</time>
      </trkpt>
      <trkpt lat="48.12941" lon="-3.80646">
        <ele>222.3</ele>
        <time>2023-04-05T11:03:09Z</time>
      </trkpt>
      <trkpt lat="48.12942" lon="-3.80645">
        <ele>222.4</ele>
        <time>2023-04-05T11:03:10Z</time>
      </trkpt>
      <trkpt lat="48.12944" lon="-3.80642">
        <ele>222.7</ele>
        <time>2023-04-05T11:03:11Z</time>
      </trkpt>
      <trkpt lat="48.12946" lon="-3.8064">
        <ele>222.9</ele>
        <time>2023-04-05T11:03:12Z</time>
      </trkpt>
      <trkpt lat="48.12947" lon="-3.80638">
        <ele>223</ele>
        <time>2023-04-05T11:03:13Z</time>
      </trkpt>
      <trkpt lat="48.12949" lon="-3.80636">
        <ele>223.3</ele>
        <time>2023-04-05T11:03:15Z</time>
      </trkpt>
      <trkpt lat="48.12949" lon="-3.80635">
        <ele>223.4</ele>
        <time>2023-04-05T11:03:16Z</time>
      </trkpt>
      <trkpt lat="48.1295" lon="-3.80633">
        <ele>223.5</ele>
        <time>2023-04-05T11:03:17Z</time>
      </trkpt>
      <trkpt lat="48.12951" lon="-3.80632">
        <ele>223.6</ele>
        <time>2023-04-05T11:03:18Z</time>
      </trkpt>
      <trkpt lat="48.12952" lon="-3.80631">
        <ele>223.8</ele>
        <time>2023-04-05T11:03:19Z</time>
      </trkpt>
      <trkpt lat="48.12953" lon="-3.8063">
        <ele>223.9</ele>
        <time>2023-04-05T11:03:20Z</time>
      </trkpt>
      <trkpt lat="48.12954" lon="-3.80628">
        <ele>224</ele>
        <time>2023-04-05T11:03:21Z</time>
      </trkpt>
      <trkpt lat="48.12955" lon="-3.80626">
        <ele>224.2</ele>
        <time>2023-04-05T11:03:22Z</time>
      </trkpt>
      <trkpt lat="48.12956" lon="-3.80624">
        <ele>224.4</ele>
        <time>2023-04-05T11:03:23Z</time>
      </trkpt>
      <trkpt lat="48.12957" lon="-3.80623">
        <ele>224.5</ele>
        <time>2023-04-05T11:03:24Z</time>
      </trkpt>
      <trkpt lat="48.12958" lon="-3.80623">
        <ele>224.6</ele>
        <time>2023-04-05T11:03:25Z</time>
      </trkpt>
      <trkpt lat="48.1296" lon="-3.8062">
        <ele>224.9</ele>
        <time>2023-04-05T11:03:26Z</time>
      </trkpt>
      <trkpt lat="48.12961" lon="-3.80618">
        <ele>225</ele>
        <time>2023-04-05T11:03:28Z</time>
      </trkpt>
      <trkpt lat="48.12962" lon="-3.80617">
        <ele>225.2</ele>
        <time>2023-04-05T11:03:29Z</time>
      </trkpt>
      <trkpt lat="48.12963" lon="-3.80615">
        <ele>225.4</ele>
        <time>2023-04-05T11:03:30Z</time>
      </trkpt>
      <trkpt lat="48.12965" lon="-3.80613">
        <ele>225.6</ele>
        <time>2023-04-05T11:03:32Z</time>
      </trkpt>
      <trkpt lat="48.12966" lon="-3.80612">
        <ele>225.7</ele>
        <time>2023-04-05T11:03:33Z</time>
      </trkpt>
      <trkpt lat="48.12967" lon="-3.8061">
        <ele>225.9</ele>
        <time>2023-04-05T11:03:34Z</time>
      </trkpt>
      <trkpt lat="48.12968" lon="-3.80609">
        <ele>226</ele>
        <time>2023-04-05T11:03:35Z</time>
      </trkpt>
      <trkpt lat="48.12969" lon="-3.80606">
        <ele>226.2</ele>
        <time>2023-04-05T11:03:36Z</time>
      </trkpt>
      <trkpt lat="48.1297" lon="-3.80605">
        <ele>226.3</ele>
        <time>2023-04-05T11:03:37Z</time>
      </trkpt>
      <trkpt lat="48.12971" lon="-3.80604">
        <ele>226.4</ele>
        <time>2023-04-05T11:03:38Z</time>
      </trkpt>
      <trkpt lat="48.12972" lon="-3.80603">
        <ele>226.5</ele>
        <time>2023-04-05T11:03:39Z</time>
      </trkpt>
      <trkpt lat="48.12973" lon="-3.80601">
        <ele>226.6</ele>
        <time>2023-04-05T11:03:40Z</time>
      </trkpt>
      <trkpt lat="48.12974" lon="-3.806">
        <ele>226.8</ele>
        <time>2023-04-05T11:03:41Z</time>
      </trkpt>
      <trkpt lat="48.12974" lon="-3.806">
        <ele>226.8</ele>
        <time>2023-04-05T11:03:42Z</time>
      </trkpt>
      <trkpt lat="48.12974" lon="-3.806">
        <ele>226.8</ele>
        <time>2023-04-05T11:03:43Z</time>
      </trkpt>
      <trkpt lat="48.12974" lon="-3.806">
        <ele>226.9</ele>
        <time>2023-04-05T11:03:44Z</time>
      </trkpt>
      <trkpt lat="48.12974" lon="-3.806">
        <ele>226.9</ele>
        <time>2023-04-05T11:03:45Z</time>
      </trkpt>
      <trkpt lat="48.12975" lon="-3.80599">
        <ele>226.9</ele>
        <time>2023-04-05T11:03:46Z</time>
      </trkpt>
      <trkpt lat="48.12975" lon="-3.80598">
        <ele>227</ele>
        <time>2023-04-05T11:03:47Z</time>
      </trkpt>
      <trkpt lat="48.12975" lon="-3.80597">
        <ele>227.1</ele>
        <time>2023-04-05T11:03:48Z</time>
      </trkpt>
      <trkpt lat="48.12975" lon="-3.80597">
        <ele>227.1</ele>
        <time>2023-04-05T11:03:49Z</time>
      </trkpt>
      <trkpt lat="48.12975" lon="-3.80597">
        <ele>227.1</ele>
        <time>2023-04-05T11:03:50Z</time>
      </trkpt>
      <trkpt lat="48.12976" lon="-3.80596">
        <ele>227.2</ele>
        <time>2023-04-05T11:03:51Z</time>
      </trkpt>
      <trkpt lat="48.12976" lon="-3.80596">
        <ele>227.2</ele>
        <time>2023-04-05T11:03:52Z</time>
      </trkpt>
      <trkpt lat="48.12976" lon="-3.80596">
        <ele>227.2</ele>
        <time>2023-04-05T11:03:54Z</time>
      </trkpt>
      <trkpt lat="48.12976" lon="-3.80594">
        <ele>227.3</ele>
        <time>2023-04-05T11:03:55Z</time>
      </trkpt>
      <trkpt lat="48.12977" lon="-3.80594">
        <ele>227.3</ele>
        <time>2023-04-05T11:03:56Z</time>
      </trkpt>
      <trkpt lat="48.12977" lon="-3.80594">
        <ele>227.4</ele>
        <time>2023-04-05T11:03:58Z</time>
      </trkpt>
      <trkpt lat="48.12977" lon="-3.80594">
        <ele>227.4</ele>
        <time>2023-04-05T11:03:59Z</time>
      </trkpt>
      <trkpt lat="48.12977" lon="-3.80595">
        <ele>227.4</ele>
        <time>2023-04-05T11:04:00Z</time>
      </trkpt>
      <trkpt lat="48.12977" lon="-3.80595">
        <ele>227.4</ele>
        <time>2023-04-05T11:04:02Z</time>
      </trkpt>
      <trkpt lat="48.12977" lon="-3.80595">
        <ele>227.4</ele>
        <time>2023-04-05T11:04:03Z</time>
      </trkpt>
      <trkpt lat="48.12977" lon="-3.80595">
        <ele>227.4</ele>
        <time>2023-04-05T11:04:04Z</time>
      </trkpt>
      <trkpt lat="48.12977" lon="-3.80595">
        <ele>227.4</ele>
        <time>2023-04-05T11:04:05Z</time>
      </trkpt>
      <trkpt lat="48.12976" lon="-3.80595">
        <ele>227.5</ele>
        <time>2023-04-05T11:04:39Z</time>
      </trkpt>
      <trkpt lat="48.12976" lon="-3.80595">
        <ele>227.5</ele>
        <time>2023-04-05T11:04:40Z</time>
      </trkpt>
      <trkpt lat="48.12976" lon="-3.80595">
        <ele>227.5</ele>
        <time>2023-04-05T11:04:41Z</time>
      </trkpt>
      <trkpt lat="48.12976" lon="-3.80595">
        <ele>227.5</ele>
        <time>2023-04-05T11:04:42Z</time>
      </trkpt>
      <trkpt lat="48.12976" lon="-3.80595">
        <ele>227.6</ele>
        <time>2023-04-05T11:04:43Z</time>
      </trkpt>
      <trkpt lat="48.12976" lon="-3.80594">
        <ele>227.6</ele>
        <time>2023-04-05T11:04:44Z</time>
      </trkpt>
      <trkpt lat="48.12976" lon="-3.80594">
        <ele>227.6</ele>
        <time>2023-04-05T11:04:45Z</time>
      </trkpt>
      <trkpt lat="48.12976" lon="-3.80594">
        <ele>227.6</ele>
        <time>2023-04-05T11:04:46Z</time>
      </trkpt>
      <trkpt lat="48.12976" lon="-3.80594">
        <ele>227.6</ele>
        <time>2023-04-05T11:04:47Z</time>
      </trkpt>
      <trkpt lat="48.12976" lon="-3.80594">
        <ele>227.6</ele>
        <time>2023-04-05T11:04:48Z</time>
      </trkpt>
      <trkpt lat="48.12976" lon="-3.80594">
        <ele>227.6</ele>
        <time>2023-04-05T11:04:49Z</time>
      </trkpt>
      <trkpt lat="48.12976" lon="-3.80594">
        <ele>227.6</ele>
        <time>2023-04-05T11:04:50Z</time>
      </trkpt>
      <trkpt lat="48.12976" lon="-3.80594">
        <ele>227.6</ele>
        <time>2023-04-05T11:04:51Z</time>
      </trkpt>
      <trkpt lat="48.12979" lon="-3.80594">
        <ele>227.9</ele>
        <time>2023-04-05T11:06:55Z</time>
      </trkpt>
      <trkpt lat="48.12979" lon="-3.80594">
        <ele>227.9</ele>
        <time>2023-04-05T11:06:56Z</time>
      </trkpt>
      <trkpt lat="48.12979" lon="-3.80594">
        <ele>227.9</ele>
        <time>2023-04-05T11:06:57Z</time>
      </trkpt>
      <trkpt lat="48.12981" lon="-3.80593">
        <ele>228.1</ele>
        <time>2023-04-05T11:06:58Z</time>
      </trkpt>
      <trkpt lat="48.12984" lon="-3.80591">
        <ele>228.5</ele>
        <time>2023-04-05T11:07:00Z</time>
      </trkpt>
      <trkpt lat="48.12987" lon="-3.80588">
        <ele>228.9</ele>
        <time>2023-04-05T11:07:01Z</time>
      </trkpt>
      <trkpt lat="48.12988" lon="-3.80587">
        <ele>229.1</ele>
        <time>2023-04-05T11:07:02Z</time>
      </trkpt>
      <trkpt lat="48.12991" lon="-3.80585">
        <ele>229.4</ele>
        <time>2023-04-05T11:07:04Z</time>
      </trkpt>
      <trkpt lat="48.12992" lon="-3.80584">
        <ele>229.6</ele>
        <time>2023-04-05T11:07:06Z</time>
      </trkpt>
      <trkpt lat="48.12993" lon="-3.80582">
        <ele>229.7</ele>
        <time>2023-04-05T11:07:07Z</time>
      </trkpt>
      <trkpt lat="48.12995" lon="-3.80582">
        <ele>229.9</ele>
        <time>2023-04-05T11:07:08Z</time>
      </trkpt>
      <trkpt lat="48.12996" lon="-3.80581">
        <ele>230.1</ele>
        <time>2023-04-05T11:07:09Z</time>
      </trkpt>
      <trkpt lat="48.12999" lon="-3.80578">
        <ele>230.4</ele>
        <time>2023-04-05T11:07:10Z</time>
      </trkpt>
      <trkpt lat="48.13" lon="-3.80576">
        <ele>230.6</ele>
        <time>2023-04-05T11:07:12Z</time>
      </trkpt>
      <trkpt lat="48.13002" lon="-3.80575">
        <ele>230.8</ele>
        <time>2023-04-05T11:07:13Z</time>
      </trkpt>
      <trkpt lat="48.13003" lon="-3.80574">
        <ele>231</ele>
        <time>2023-04-05T11:07:14Z</time>
      </trkpt>
      <trkpt lat="48.13005" lon="-3.80572">
        <ele>231.1</ele>
        <time>2023-04-05T11:07:15Z</time>
      </trkpt>
      <trkpt lat="48.13006" lon="-3.8057">
        <ele>231.3</ele>
        <time>2023-04-05T11:07:16Z</time>
      </trkpt>
      <trkpt lat="48.13008" lon="-3.80568">
        <ele>231.6</ele>
        <time>2023-04-05T11:07:17Z</time>
      </trkpt>
      <trkpt lat="48.13011" lon="-3.80566">
        <ele>231.9</ele>
        <time>2023-04-05T11:07:19Z</time>
      </trkpt>
      <trkpt lat="48.13012" lon="-3.80565">
        <ele>231.9</ele>
        <time>2023-04-05T11:07:20Z</time>
      </trkpt>
      <trkpt lat="48.13014" lon="-3.80563">
        <ele>232.2</ele>
        <time>2023-04-05T11:07:21Z</time>
      </trkpt>
      <trkpt lat="48.13016" lon="-3.80562">
        <ele>232.3</ele>
        <time>2023-04-05T11:07:22Z</time>
      </trkpt>
      <trkpt lat="48.13018" lon="-3.80559">
        <ele>232.6</ele>
        <time>2023-04-05T11:07:24Z</time>
      </trkpt>
      <trkpt lat="48.1302" lon="-3.80557">
        <ele>232.8</ele>
        <time>2023-04-05T11:07:26Z</time>
      </trkpt>
      <trkpt lat="48.13021" lon="-3.80556">
        <ele>232.9</ele>
        <time>2023-04-05T11:07:27Z</time>
      </trkpt>
      <trkpt lat="48.13023" lon="-3.80554">
        <ele>233</ele>
        <time>2023-04-05T11:07:28Z</time>
      </trkpt>
      <trkpt lat="48.13026" lon="-3.80551">
        <ele>233.3</ele>
        <time>2023-04-05T11:07:29Z</time>
      </trkpt>
      <trkpt lat="48.13028" lon="-3.80549">
        <ele>233.5</ele>
        <time>2023-04-05T11:07:30Z</time>
      </trkpt>
      <trkpt lat="48.1303" lon="-3.80547">
        <ele>233.7</ele>
        <time>2023-04-05T11:07:32Z</time>
      </trkpt>
      <trkpt lat="48.13032" lon="-3.80546">
        <ele>233.8</ele>
        <time>2023-04-05T11:07:33Z</time>
      </trkpt>
      <trkpt lat="48.13033" lon="-3.80545">
        <ele>233.9</ele>
        <time>2023-04-05T11:07:34Z</time>
      </trkpt>
      <trkpt lat="48.13035" lon="-3.80543">
        <ele>234.1</ele>
        <time>2023-04-05T11:07:35Z</time>
      </trkpt>
      <trkpt lat="48.13036" lon="-3.80543">
        <ele>234.2</ele>
        <time>2023-04-05T11:07:36Z</time>
      </trkpt>
      <trkpt lat="48.13037" lon="-3.80541">
        <ele>234.3</ele>
        <time>2023-04-05T11:07:37Z</time>
      </trkpt>
      <trkpt lat="48.13039" lon="-3.8054">
        <ele>234.4</ele>
        <time>2023-04-05T11:07:38Z</time>
      </trkpt>
      <trkpt lat="48.1304" lon="-3.80539">
        <ele>234.5</ele>
        <time>2023-04-05T11:07:39Z</time>
      </trkpt>
      <trkpt lat="48.13041" lon="-3.80537">
        <ele>234.6</ele>
        <time>2023-04-05T11:07:40Z</time>
      </trkpt>
      <trkpt lat="48.13044" lon="-3.80534">
        <ele>234.8</ele>
        <time>2023-04-05T11:07:41Z</time>
      </trkpt>
      <trkpt lat="48.13046" lon="-3.80532">
        <ele>234.9</ele>
        <time>2023-04-05T11:07:43Z</time>
      </trkpt>
      <trkpt lat="48.13047" lon="-3.80531">
        <ele>235</ele>
        <time>2023-04-05T11:07:44Z</time>
      </trkpt>
      <trkpt lat="48.1305" lon="-3.80529">
        <ele>235.2</ele>
        <time>2023-04-05T11:07:45Z</time>
      </trkpt>
      <trkpt lat="48.1305" lon="-3.80528">
        <ele>235.2</ele>
        <time>2023-04-05T11:07:46Z</time>
      </trkpt>
      <trkpt lat="48.13052" lon="-3.80527">
        <ele>235.3</ele>
        <time>2023-04-05T11:07:47Z</time>
      </trkpt>
      <trkpt lat="48.13053" lon="-3.80526">
        <ele>235.4</ele>
        <time>2023-04-05T11:07:48Z</time>
      </trkpt>
      <trkpt lat="48.13055" lon="-3.80525">
        <ele>235.5</ele>
        <time>2023-04-05T11:07:49Z</time>
      </trkpt>
      <trkpt lat="48.13057" lon="-3.80524">
        <ele>235.6</ele>
        <time>2023-04-05T11:07:50Z</time>
      </trkpt>
      <trkpt lat="48.13059" lon="-3.80521">
        <ele>235.7</ele>
        <time>2023-04-05T11:07:51Z</time>
      </trkpt>
      <trkpt lat="48.1306" lon="-3.8052">
        <ele>235.8</ele>
        <time>2023-04-05T11:07:52Z</time>
      </trkpt>
      <trkpt lat="48.13062" lon="-3.80516">
        <ele>236</ele>
        <time>2023-04-05T11:07:53Z</time>
      </trkpt>
      <trkpt lat="48.13065" lon="-3.80515">
        <ele>236.1</ele>
        <time>2023-04-05T11:07:55Z</time>
      </trkpt>
      <trkpt lat="48.13066" lon="-3.80514">
        <ele>236.2</ele>
        <time>2023-04-05T11:07:56Z</time>
      </trkpt>
      <trkpt lat="48.13069" lon="-3.80512">
        <ele>236.3</ele>
        <time>2023-04-05T11:07:57Z</time>
      </trkpt>
      <trkpt lat="48.1307" lon="-3.80512">
        <ele>236.4</ele>
        <time>2023-04-05T11:07:58Z</time>
      </trkpt>
      <trkpt lat="48.13073" lon="-3.80513">
        <ele>236.6</ele>
        <time>2023-04-05T11:07:59Z</time>
      </trkpt>
      <trkpt lat="48.13074" lon="-3.80513">
        <ele>236.6</ele>
        <time>2023-04-05T11:08:00Z</time>
      </trkpt>
      <trkpt lat="48.13078" lon="-3.80514">
        <ele>236.8</ele>
        <time>2023-04-05T11:08:01Z</time>
      </trkpt>
      <trkpt lat="48.13079" lon="-3.80514">
        <ele>236.9</ele>
        <time>2023-04-05T11:08:02Z</time>
      </trkpt>
      <trkpt lat="48.13081" lon="-3.80517">
        <ele>237</ele>
        <time>2023-04-05T11:08:03Z</time>
      </trkpt>
      <trkpt lat="48.13083" lon="-3.80518">
        <ele>237.1</ele>
        <time>2023-04-05T11:08:05Z</time>
      </trkpt>
      <trkpt lat="48.13084" lon="-3.80519">
        <ele>237.2</ele>
        <time>2023-04-05T11:08:06Z</time>
      </trkpt>
      <trkpt lat="48.13087" lon="-3.80522">
        <ele>237.5</ele>
        <time>2023-04-05T11:08:07Z</time>
      </trkpt>
      <trkpt lat="48.1309" lon="-3.80524">
        <ele>237.7</ele>
        <time>2023-04-05T11:08:09Z</time>
      </trkpt>
      <trkpt lat="48.1309" lon="-3.80525">
        <ele>237.8</ele>
        <time>2023-04-05T11:08:10Z</time>
      </trkpt>
      <trkpt lat="48.13092" lon="-3.80526">
        <ele>237.9</ele>
        <time>2023-04-05T11:08:11Z</time>
      </trkpt>
      <trkpt lat="48.13093" lon="-3.80527">
        <ele>238</ele>
        <time>2023-04-05T11:08:12Z</time>
      </trkpt>
      <trkpt lat="48.13094" lon="-3.80529">
        <ele>238.1</ele>
        <time>2023-04-05T11:08:13Z</time>
      </trkpt>
      <trkpt lat="48.13096" lon="-3.80529">
        <ele>238.2</ele>
        <time>2023-04-05T11:08:14Z</time>
      </trkpt>
      <trkpt lat="48.13097" lon="-3.80529">
        <ele>238.3</ele>
        <time>2023-04-05T11:08:15Z</time>
      </trkpt>
      <trkpt lat="48.131" lon="-3.80531">
        <ele>238.6</ele>
        <time>2023-04-05T11:08:16Z</time>
      </trkpt>
      <trkpt lat="48.13101" lon="-3.80533">
        <ele>238.7</ele>
        <time>2023-04-05T11:08:17Z</time>
      </trkpt>
      <trkpt lat="48.13103" lon="-3.80534">
        <ele>238.9</ele>
        <time>2023-04-05T11:08:19Z</time>
      </trkpt>
      <trkpt lat="48.13105" lon="-3.80535">
        <ele>239.1</ele>
        <time>2023-04-05T11:08:20Z</time>
      </trkpt>
      <trkpt lat="48.13107" lon="-3.80536">
        <ele>239.3</ele>
        <time>2023-04-05T11:08:22Z</time>
      </trkpt>
      <trkpt lat="48.13108" lon="-3.80537">
        <ele>239.4</ele>
        <time>2023-04-05T11:08:23Z</time>
      </trkpt>
      <trkpt lat="48.13109" lon="-3.80537">
        <ele>239.5</ele>
        <time>2023-04-05T11:08:24Z</time>
      </trkpt>
      <trkpt lat="48.13111" lon="-3.80537">
        <ele>239.6</ele>
        <time>2023-04-05T11:08:25Z</time>
      </trkpt>
      <trkpt lat="48.13113" lon="-3.80539">
        <ele>239.8</ele>
        <time>2023-04-05T11:08:26Z</time>
      </trkpt>
      <trkpt lat="48.13114" lon="-3.80539">
        <ele>239.9</ele>
        <time>2023-04-05T11:08:27Z</time>
      </trkpt>
      <trkpt lat="48.13115" lon="-3.80541">
        <ele>240</ele>
        <time>2023-04-05T11:08:28Z</time>
      </trkpt>
      <trkpt lat="48.13117" lon="-3.80542">
        <ele>240.2</ele>
        <time>2023-04-05T11:08:29Z</time>
      </trkpt>
      <trkpt lat="48.1312" lon="-3.80543">
        <ele>240.4</ele>
        <time>2023-04-05T11:08:30Z</time>
      </trkpt>
      <trkpt lat="48.1312" lon="-3.80544">
        <ele>240.5</ele>
        <time>2023-04-05T11:08:31Z</time>
      </trkpt>
      <trkpt lat="48.13122" lon="-3.80545">
        <ele>240.6</ele>
        <time>2023-04-05T11:08:32Z</time>
      </trkpt>
      <trkpt lat="48.13123" lon="-3.80545">
        <ele>240.7</ele>
        <time>2023-04-05T11:08:33Z</time>
      </trkpt>
      <trkpt lat="48.13124" lon="-3.80546">
        <ele>240.8</ele>
        <time>2023-04-05T11:08:34Z</time>
      </trkpt>
      <trkpt lat="48.13124" lon="-3.80547">
        <ele>240.9</ele>
        <time>2023-04-05T11:08:35Z</time>
      </trkpt>
      <trkpt lat="48.13124" lon="-3.80547">
        <ele>240.9</ele>
        <time>2023-04-05T11:08:36Z</time>
      </trkpt>
      <trkpt lat="48.13123" lon="-3.80547">
        <ele>240.9</ele>
        <time>2023-04-05T11:08:37Z</time>
      </trkpt>
      <trkpt lat="48.13123" lon="-3.80546">
        <ele>240.9</ele>
        <time>2023-04-05T11:08:38Z</time>
      </trkpt>
      <trkpt lat="48.13123" lon="-3.80546">
        <ele>240.9</ele>
        <time>2023-04-05T11:08:39Z</time>
      </trkpt>
      <trkpt lat="48.13124" lon="-3.80546">
        <ele>240.9</ele>
        <time>2023-04-05T11:08:41Z</time>
      </trkpt>
      <trkpt lat="48.13124" lon="-3.80546">
        <ele>240.9</ele>
        <time>2023-04-05T11:08:42Z</time>
      </trkpt>
      <trkpt lat="48.13124" lon="-3.80546">
        <ele>240.9</ele>
        <time>2023-04-05T11:08:43Z</time>
      </trkpt>
      <trkpt lat="48.13124" lon="-3.80546">
        <ele>240.9</ele>
        <time>2023-04-05T11:08:44Z</time>
      </trkpt>
      <trkpt lat="48.13124" lon="-3.80546">
        <ele>241</ele>
        <time>2023-04-05T11:08:46Z</time>
      </trkpt>
      <trkpt lat="48.13127" lon="-3.80549">
        <ele>241.2</ele>
        <time>2023-04-05T11:08:52Z</time>
      </trkpt>
      <trkpt lat="48.13128" lon="-3.8055">
        <ele>241.4</ele>
        <time>2023-04-05T11:08:53Z</time>
      </trkpt>
      <trkpt lat="48.1313" lon="-3.80551">
        <ele>241.6</ele>
        <time>2023-04-05T11:08:54Z</time>
      </trkpt>
      <trkpt lat="48.13131" lon="-3.80552">
        <ele>241.7</ele>
        <time>2023-04-05T11:08:55Z</time>
      </trkpt>
      <trkpt lat="48.13134" lon="-3.80553">
        <ele>242</ele>
        <time>2023-04-05T11:08:57Z</time>
      </trkpt>
      <trkpt lat="48.13136" lon="-3.80555">
        <ele>242.2</ele>
        <time>2023-04-05T11:08:58Z</time>
      </trkpt>
      <trkpt lat="48.13137" lon="-3.80556">
        <ele>242.3</ele>
        <time>2023-04-05T11:08:59Z</time>
      </trkpt>
      <trkpt lat="48.13138" lon="-3.80558">
        <ele>242.5</ele>
        <time>2023-04-05T11:09:00Z</time>
      </trkpt>
      <trkpt lat="48.1314" lon="-3.80559">
        <ele>242.6</ele>
        <time>2023-04-05T11:09:01Z</time>
      </trkpt>
      <trkpt lat="48.13141" lon="-3.8056">
        <ele>242.8</ele>
        <time>2023-04-05T11:09:02Z</time>
      </trkpt>
      <trkpt lat="48.13142" lon="-3.80561">
        <ele>242.8</ele>
        <time>2023-04-05T11:09:03Z</time>
      </trkpt>
      <trkpt lat="48.13143" lon="-3.80561">
        <ele>242.9</ele>
        <time>2023-04-05T11:09:04Z</time>
      </trkpt>
      <trkpt lat="48.13145" lon="-3.80562">
        <ele>243.1</ele>
        <time>2023-04-05T11:09:05Z</time>
      </trkpt>
      <trkpt lat="48.13146" lon="-3.80563">
        <ele>243.2</ele>
        <time>2023-04-05T11:09:06Z</time>
      </trkpt>
      <trkpt lat="48.13147" lon="-3.80564">
        <ele>243.3</ele>
        <time>2023-04-05T11:09:07Z</time>
      </trkpt>
      <trkpt lat="48.13149" lon="-3.80566">
        <ele>243.5</ele>
        <time>2023-04-05T11:09:08Z</time>
      </trkpt>
      <trkpt lat="48.1315" lon="-3.80567">
        <ele>243.6</ele>
        <time>2023-04-05T11:09:09Z</time>
      </trkpt>
      <trkpt lat="48.13151" lon="-3.80568">
        <ele>243.7</ele>
        <time>2023-04-05T11:09:10Z</time>
      </trkpt>
      <trkpt lat="48.13152" lon="-3.80569">
        <ele>243.8</ele>
        <time>2023-04-05T11:09:11Z</time>
      </trkpt>
      <trkpt lat="48.13154" lon="-3.8057">
        <ele>244</ele>
        <time>2023-04-05T11:09:12Z</time>
      </trkpt>
      <trkpt lat="48.13156" lon="-3.80573">
        <ele>244.2</ele>
        <time>2023-04-05T11:09:13Z</time>
      </trkpt>
      <trkpt lat="48.13157" lon="-3.80573">
        <ele>244.3</ele>
        <time>2023-04-05T11:09:14Z</time>
      </trkpt>
      <trkpt lat="48.13158" lon="-3.80574">
        <ele>244.4</ele>
        <time>2023-04-05T11:09:15Z</time>
      </trkpt>
      <trkpt lat="48.13159" lon="-3.80576">
        <ele>244.6</ele>
        <time>2023-04-05T11:09:16Z</time>
      </trkpt>
      <trkpt lat="48.13162" lon="-3.80578">
        <ele>244.8</ele>
        <time>2023-04-05T11:09:17Z</time>
      </trkpt>
      <trkpt lat="48.13162" lon="-3.80579">
        <ele>244.9</ele>
        <time>2023-04-05T11:09:18Z</time>
      </trkpt>
      <trkpt lat="48.13164" lon="-3.8058">
        <ele>245</ele>
        <time>2023-04-05T11:09:19Z</time>
      </trkpt>
      <trkpt lat="48.13165" lon="-3.80582">
        <ele>245.1</ele>
        <time>2023-04-05T11:09:20Z</time>
      </trkpt>
      <trkpt lat="48.13166" lon="-3.80583">
        <ele>245.3</ele>
        <time>2023-04-05T11:09:21Z</time>
      </trkpt>
      <trkpt lat="48.13168" lon="-3.80584">
        <ele>245.4</ele>
        <time>2023-04-05T11:09:22Z</time>
      </trkpt>
      <trkpt lat="48.13169" lon="-3.80585">
        <ele>245.5</ele>
        <time>2023-04-05T11:09:23Z</time>
      </trkpt>
      <trkpt lat="48.13171" lon="-3.80586">
        <ele>245.7</ele>
        <time>2023-04-05T11:09:24Z</time>
      </trkpt>
      <trkpt lat="48.13173" lon="-3.80589">
        <ele>245.9</ele>
        <time>2023-04-05T11:09:25Z</time>
      </trkpt>
      <trkpt lat="48.13174" lon="-3.8059">
        <ele>245.9</ele>
        <time>2023-04-05T11:09:26Z</time>
      </trkpt>
      <trkpt lat="48.13175" lon="-3.80591">
        <ele>246</ele>
        <time>2023-04-05T11:09:27Z</time>
      </trkpt>
      <trkpt lat="48.13177" lon="-3.80592">
        <ele>246.2</ele>
        <time>2023-04-05T11:09:28Z</time>
      </trkpt>
      <trkpt lat="48.1318" lon="-3.80591">
        <ele>246.4</ele>
        <time>2023-04-05T11:09:29Z</time>
      </trkpt>
      <trkpt lat="48.13181" lon="-3.80591">
        <ele>246.4</ele>
        <time>2023-04-05T11:09:30Z</time>
      </trkpt>
      <trkpt lat="48.13184" lon="-3.80588">
        <ele>246.6</ele>
        <time>2023-04-05T11:09:31Z</time>
      </trkpt>
      <trkpt lat="48.13184" lon="-3.80587">
        <ele>246.7</ele>
        <time>2023-04-05T11:09:32Z</time>
      </trkpt>
      <trkpt lat="48.13186" lon="-3.80584">
        <ele>246.8</ele>
        <time>2023-04-05T11:09:33Z</time>
      </trkpt>
      <trkpt lat="48.13186" lon="-3.80583">
        <ele>246.8</ele>
        <time>2023-04-05T11:09:34Z</time>
      </trkpt>
      <trkpt lat="48.13187" lon="-3.80579">
        <ele>247</ele>
        <time>2023-04-05T11:09:35Z</time>
      </trkpt>
      <trkpt lat="48.13187" lon="-3.80577">
        <ele>247</ele>
        <time>2023-04-05T11:09:36Z</time>
      </trkpt>
      <trkpt lat="48.13188" lon="-3.80573">
        <ele>247.1</ele>
        <time>2023-04-05T11:09:37Z</time>
      </trkpt>
      <trkpt lat="48.13189" lon="-3.80572">
        <ele>247.2</ele>
        <time>2023-04-05T11:09:38Z</time>
      </trkpt>
      <trkpt lat="48.13191" lon="-3.80568">
        <ele>247.2</ele>
        <time>2023-04-05T11:09:39Z</time>
      </trkpt>
      <trkpt lat="48.13192" lon="-3.80567">
        <ele>247.3</ele>
        <time>2023-04-05T11:09:40Z</time>
      </trkpt>
      <trkpt lat="48.13194" lon="-3.80562">
        <ele>247.3</ele>
        <time>2023-04-05T11:09:41Z</time>
      </trkpt>
      <trkpt lat="48.13194" lon="-3.80561">
        <ele>247.3</ele>
        <time>2023-04-05T11:09:42Z</time>
      </trkpt>
      <trkpt lat="48.13195" lon="-3.80559">
        <ele>247.4</ele>
        <time>2023-04-05T11:09:43Z</time>
      </trkpt>
      <trkpt lat="48.13196" lon="-3.80557">
        <ele>247.4</ele>
        <time>2023-04-05T11:09:44Z</time>
      </trkpt>
      <trkpt lat="48.13198" lon="-3.80553">
        <ele>247.4</ele>
        <time>2023-04-05T11:09:45Z</time>
      </trkpt>
      <trkpt lat="48.13199" lon="-3.80552">
        <ele>247.4</ele>
        <time>2023-04-05T11:09:46Z</time>
      </trkpt>
      <trkpt lat="48.132" lon="-3.80548">
        <ele>247.5</ele>
        <time>2023-04-05T11:09:47Z</time>
      </trkpt>
      <trkpt lat="48.132" lon="-3.80547">
        <ele>247.5</ele>
        <time>2023-04-05T11:09:48Z</time>
      </trkpt>
      <trkpt lat="48.13201" lon="-3.80546">
        <ele>247.5</ele>
        <time>2023-04-05T11:09:49Z</time>
      </trkpt>
      <trkpt lat="48.13202" lon="-3.80543">
        <ele>247.5</ele>
        <time>2023-04-05T11:09:50Z</time>
      </trkpt>
      <trkpt lat="48.13204" lon="-3.80539">
        <ele>247.5</ele>
        <time>2023-04-05T11:09:51Z</time>
      </trkpt>
      <trkpt lat="48.13205" lon="-3.80535">
        <ele>247.5</ele>
        <time>2023-04-05T11:09:52Z</time>
      </trkpt>
      <trkpt lat="48.13206" lon="-3.80532">
        <ele>247.5</ele>
        <time>2023-04-05T11:09:53Z</time>
      </trkpt>
      <trkpt lat="48.13209" lon="-3.80525">
        <ele>247.6</ele>
        <time>2023-04-05T11:09:55Z</time>
      </trkpt>
      <trkpt lat="48.1321" lon="-3.80523">
        <ele>247.6</ele>
        <time>2023-04-05T11:09:56Z</time>
      </trkpt>
      <trkpt lat="48.13211" lon="-3.80521">
        <ele>247.7</ele>
        <time>2023-04-05T11:09:58Z</time>
      </trkpt>
      <trkpt lat="48.13212" lon="-3.80519">
        <ele>247.7</ele>
        <time>2023-04-05T11:09:59Z</time>
      </trkpt>
      <trkpt lat="48.13214" lon="-3.80514">
        <ele>247.8</ele>
        <time>2023-04-05T11:10:00Z</time>
      </trkpt>
      <trkpt lat="48.13215" lon="-3.80512">
        <ele>247.9</ele>
        <time>2023-04-05T11:10:01Z</time>
      </trkpt>
      <trkpt lat="48.13216" lon="-3.80508">
        <ele>248</ele>
        <time>2023-04-05T11:10:03Z</time>
      </trkpt>
      <trkpt lat="48.13218" lon="-3.80505">
        <ele>248.1</ele>
        <time>2023-04-05T11:10:04Z</time>
      </trkpt>
      <trkpt lat="48.13219" lon="-3.80504">
        <ele>248.1</ele>
        <time>2023-04-05T11:10:05Z</time>
      </trkpt>
      <trkpt lat="48.13221" lon="-3.805">
        <ele>248.3</ele>
        <time>2023-04-05T11:10:06Z</time>
      </trkpt>
      <trkpt lat="48.13221" lon="-3.80499">
        <ele>248.3</ele>
        <time>2023-04-05T11:10:07Z</time>
      </trkpt>
      <trkpt lat="48.13223" lon="-3.80494">
        <ele>248.5</ele>
        <time>2023-04-05T11:10:08Z</time>
      </trkpt>
      <trkpt lat="48.13224" lon="-3.80491">
        <ele>248.6</ele>
        <time>2023-04-05T11:10:09Z</time>
      </trkpt>
      <trkpt lat="48.13225" lon="-3.80487">
        <ele>248.7</ele>
        <time>2023-04-05T11:10:11Z</time>
      </trkpt>
      <trkpt lat="48.13228" lon="-3.80486">
        <ele>248.4</ele>
        <time>2023-04-05T11:10:12Z</time>
      </trkpt>
      <trkpt lat="48.1323" lon="-3.80486">
        <ele>248.3</ele>
        <time>2023-04-05T11:10:14Z</time>
      </trkpt>
      <trkpt lat="48.13231" lon="-3.80488">
        <ele>248.3</ele>
        <time>2023-04-05T11:10:15Z</time>
      </trkpt>
      <trkpt lat="48.13233" lon="-3.80491">
        <ele>248.2</ele>
        <time>2023-04-05T11:10:16Z</time>
      </trkpt>
      <trkpt lat="48.13234" lon="-3.80492">
        <ele>248.2</ele>
        <time>2023-04-05T11:10:17Z</time>
      </trkpt>
      <trkpt lat="48.13235" lon="-3.80494">
        <ele>248.2</ele>
        <time>2023-04-05T11:10:18Z</time>
      </trkpt>
      <trkpt lat="48.13236" lon="-3.80495">
        <ele>248.1</ele>
        <time>2023-04-05T11:10:19Z</time>
      </trkpt>
      <trkpt lat="48.13239" lon="-3.80499">
        <ele>248</ele>
        <time>2023-04-05T11:10:20Z</time>
      </trkpt>
      <trkpt lat="48.1324" lon="-3.805">
        <ele>248</ele>
        <time>2023-04-05T11:10:21Z</time>
      </trkpt>
      <trkpt lat="48.13243" lon="-3.80502">
        <ele>247.9</ele>
        <time>2023-04-05T11:10:22Z</time>
      </trkpt>
      <trkpt lat="48.13244" lon="-3.80502">
        <ele>247.9</ele>
        <time>2023-04-05T11:10:23Z</time>
      </trkpt>
      <trkpt lat="48.13247" lon="-3.80504">
        <ele>247.8</ele>
        <time>2023-04-05T11:10:24Z</time>
      </trkpt>
      <trkpt lat="48.13248" lon="-3.80505">
        <ele>247.8</ele>
        <time>2023-04-05T11:10:25Z</time>
      </trkpt>
      <trkpt lat="48.13252" lon="-3.80506">
        <ele>247.7</ele>
        <time>2023-04-05T11:10:26Z</time>
      </trkpt>
      <trkpt lat="48.13253" lon="-3.80507">
        <ele>247.7</ele>
        <time>2023-04-05T11:10:27Z</time>
      </trkpt>
      <trkpt lat="48.13257" lon="-3.80508">
        <ele>247.6</ele>
        <time>2023-04-05T11:10:28Z</time>
      </trkpt>
      <trkpt lat="48.13258" lon="-3.80508">
        <ele>247.6</ele>
        <time>2023-04-05T11:10:29Z</time>
      </trkpt>
      <trkpt lat="48.1326" lon="-3.80509">
        <ele>247.5</ele>
        <time>2023-04-05T11:10:30Z</time>
      </trkpt>
      <trkpt lat="48.13261" lon="-3.8051">
        <ele>247.5</ele>
        <time>2023-04-05T11:10:31Z</time>
      </trkpt>
      <trkpt lat="48.13264" lon="-3.80511">
        <ele>247.4</ele>
        <time>2023-04-05T11:10:32Z</time>
      </trkpt>
      <trkpt lat="48.13265" lon="-3.80512">
        <ele>247.4</ele>
        <time>2023-04-05T11:10:33Z</time>
      </trkpt>
      <trkpt lat="48.1327" lon="-3.80514">
        <ele>247.2</ele>
        <time>2023-04-05T11:10:34Z</time>
      </trkpt>
      <trkpt lat="48.13274" lon="-3.80515">
        <ele>247</ele>
        <time>2023-04-05T11:10:36Z</time>
      </trkpt>
      <trkpt lat="48.13275" lon="-3.80516">
        <ele>246.9</ele>
        <time>2023-04-05T11:10:37Z</time>
      </trkpt>
      <trkpt lat="48.13277" lon="-3.80517">
        <ele>246.9</ele>
        <time>2023-04-05T11:10:38Z</time>
      </trkpt>
      <trkpt lat="48.13281" lon="-3.80517">
        <ele>246.7</ele>
        <time>2023-04-05T11:10:39Z</time>
      </trkpt>
      <trkpt lat="48.13282" lon="-3.80517">
        <ele>246.6</ele>
        <time>2023-04-05T11:10:40Z</time>
      </trkpt>
      <trkpt lat="48.13285" lon="-3.80517">
        <ele>246.5</ele>
        <time>2023-04-05T11:10:41Z</time>
      </trkpt>
      <trkpt lat="48.13288" lon="-3.80519">
        <ele>246.3</ele>
        <time>2023-04-05T11:10:42Z</time>
      </trkpt>
      <trkpt lat="48.1329" lon="-3.80519">
        <ele>246.2</ele>
        <time>2023-04-05T11:10:43Z</time>
      </trkpt>
      <trkpt lat="48.13294" lon="-3.80521">
        <ele>246.1</ele>
        <time>2023-04-05T11:10:45Z</time>
      </trkpt>
      <trkpt lat="48.13297" lon="-3.80522">
        <ele>245.9</ele>
        <time>2023-04-05T11:10:47Z</time>
      </trkpt>
      <trkpt lat="48.13297" lon="-3.80522">
        <ele>245.9</ele>
        <time>2023-04-05T11:10:48Z</time>
      </trkpt>
      <trkpt lat="48.13297" lon="-3.80522">
        <ele>245.9</ele>
        <time>2023-04-05T11:10:49Z</time>
      </trkpt>
      <trkpt lat="48.13297" lon="-3.80522">
        <ele>245.9</ele>
        <time>2023-04-05T11:10:50Z</time>
      </trkpt>
      <trkpt lat="48.13296" lon="-3.80522">
        <ele>245.9</ele>
        <time>2023-04-05T11:10:51Z</time>
      </trkpt>
      <trkpt lat="48.13296" lon="-3.80522">
        <ele>245.9</ele>
        <time>2023-04-05T11:10:52Z</time>
      </trkpt>
      <trkpt lat="48.13296" lon="-3.80522">
        <ele>245.9</ele>
        <time>2023-04-05T11:10:53Z</time>
      </trkpt>
      <trkpt lat="48.13296" lon="-3.80522">
        <ele>245.9</ele>
        <time>2023-04-05T11:10:54Z</time>
      </trkpt>
      <trkpt lat="48.13296" lon="-3.80522">
        <ele>245.8</ele>
        <time>2023-04-05T11:10:55Z</time>
      </trkpt>
      <trkpt lat="48.13296" lon="-3.80522">
        <ele>245.8</ele>
        <time>2023-04-05T11:10:56Z</time>
      </trkpt>
      <trkpt lat="48.13296" lon="-3.80522">
        <ele>245.8</ele>
        <time>2023-04-05T11:10:57Z</time>
      </trkpt>
      <trkpt lat="48.13296" lon="-3.80522">
        <ele>245.8</ele>
        <time>2023-04-05T11:10:58Z</time>
      </trkpt>
      <trkpt lat="48.13294" lon="-3.80523">
        <ele>245.7</ele>
        <time>2023-04-05T11:11:17Z</time>
      </trkpt>
      <trkpt lat="48.13294" lon="-3.80523">
        <ele>245.7</ele>
        <time>2023-04-05T11:11:18Z</time>
      </trkpt>
      <trkpt lat="48.13294" lon="-3.80524">
        <ele>245.7</ele>
        <time>2023-04-05T11:11:19Z</time>
      </trkpt>
      <trkpt lat="48.13293" lon="-3.80524">
        <ele>245.7</ele>
        <time>2023-04-05T11:11:20Z</time>
      </trkpt>
      <trkpt lat="48.13294" lon="-3.80525">
        <ele>245.7</ele>
        <time>2023-04-05T11:11:21Z</time>
      </trkpt>
      <trkpt lat="48.13294" lon="-3.80525">
        <ele>245.7</ele>
        <time>2023-04-05T11:11:22Z</time>
      </trkpt>
      <trkpt lat="48.13294" lon="-3.80527">
        <ele>245.6</ele>
        <time>2023-04-05T11:11:23Z</time>
      </trkpt>
      <trkpt lat="48.13295" lon="-3.80528">
        <ele>245.6</ele>
        <time>2023-04-05T11:11:24Z</time>
      </trkpt>
      <trkpt lat="48.13295" lon="-3.8053">
        <ele>245.5</ele>
        <time>2023-04-05T11:11:25Z</time>
      </trkpt>
      <trkpt lat="48.13296" lon="-3.80533">
        <ele>245.5</ele>
        <time>2023-04-05T11:11:26Z</time>
      </trkpt>
      <trkpt lat="48.13298" lon="-3.80532">
        <ele>245.4</ele>
        <time>2023-04-05T11:11:27Z</time>
      </trkpt>
      <trkpt lat="48.13299" lon="-3.80533">
        <ele>245.4</ele>
        <time>2023-04-05T11:11:28Z</time>
      </trkpt>
      <trkpt lat="48.13302" lon="-3.80535">
        <ele>245.3</ele>
        <time>2023-04-05T11:11:29Z</time>
      </trkpt>
      <trkpt lat="48.13303" lon="-3.80535">
        <ele>245.2</ele>
        <time>2023-04-05T11:11:30Z</time>
      </trkpt>
      <trkpt lat="48.13309" lon="-3.80537">
        <ele>245.1</ele>
        <time>2023-04-05T11:11:31Z</time>
      </trkpt>
      <trkpt lat="48.13314" lon="-3.80536">
        <ele>245</ele>
        <time>2023-04-05T11:11:32Z</time>
      </trkpt>
      <trkpt lat="48.13316" lon="-3.80535">
        <ele>245</ele>
        <time>2023-04-05T11:11:33Z</time>
      </trkpt>
      <trkpt lat="48.13321" lon="-3.80534">
        <ele>244.9</ele>
        <time>2023-04-05T11:11:34Z</time>
      </trkpt>
      <trkpt lat="48.13325" lon="-3.80534">
        <ele>244.8</ele>
        <time>2023-04-05T11:11:35Z</time>
      </trkpt>
      <trkpt lat="48.13328" lon="-3.80534">
        <ele>244.7</ele>
        <time>2023-04-05T11:11:36Z</time>
      </trkpt>
      <trkpt lat="48.13332" lon="-3.80534">
        <ele>244.6</ele>
        <time>2023-04-05T11:11:38Z</time>
      </trkpt>
      <trkpt lat="48.13335" lon="-3.80534">
        <ele>244.6</ele>
        <time>2023-04-05T11:11:39Z</time>
      </trkpt>
      <trkpt lat="48.1334" lon="-3.80535">
        <ele>244.5</ele>
        <time>2023-04-05T11:11:40Z</time>
      </trkpt>
      <trkpt lat="48.13345" lon="-3.80536">
        <ele>244.4</ele>
        <time>2023-04-05T11:11:42Z</time>
      </trkpt>
      <trkpt lat="48.13348" lon="-3.80537">
        <ele>244.3</ele>
        <time>2023-04-05T11:11:44Z</time>
      </trkpt>
      <trkpt lat="48.13349" lon="-3.80537">
        <ele>244.3</ele>
        <time>2023-04-05T11:11:45Z</time>
      </trkpt>
      <trkpt lat="48.13351" lon="-3.80538">
        <ele>244.3</ele>
        <time>2023-04-05T11:11:46Z</time>
      </trkpt>
      <trkpt lat="48.13353" lon="-3.80538">
        <ele>244.2</ele>
        <time>2023-04-05T11:11:47Z</time>
      </trkpt>
      <trkpt lat="48.13354" lon="-3.80539">
        <ele>244.2</ele>
        <time>2023-04-05T11:11:48Z</time>
      </trkpt>
      <trkpt lat="48.13356" lon="-3.80539">
        <ele>244.2</ele>
        <time>2023-04-05T11:11:49Z</time>
      </trkpt>
      <trkpt lat="48.13356" lon="-3.8054">
        <ele>244.2</ele>
        <time>2023-04-05T11:11:50Z</time>
      </trkpt>
      <trkpt lat="48.13356" lon="-3.8054">
        <ele>244.1</ele>
        <time>2023-04-05T11:11:51Z</time>
      </trkpt>
      <trkpt lat="48.13356" lon="-3.8054">
        <ele>244.1</ele>
        <time>2023-04-05T11:11:52Z</time>
      </trkpt>
      <trkpt lat="48.13356" lon="-3.8054">
        <ele>244.1</ele>
        <time>2023-04-05T11:11:53Z</time>
      </trkpt>
      <trkpt lat="48.13356" lon="-3.80541">
        <ele>244.1</ele>
        <time>2023-04-05T11:11:54Z</time>
      </trkpt>
      <trkpt lat="48.13356" lon="-3.80541">
        <ele>244.1</ele>
        <time>2023-04-05T11:11:55Z</time>
      </trkpt>
      <trkpt lat="48.13355" lon="-3.80541">
        <ele>244.1</ele>
        <time>2023-04-05T11:11:56Z</time>
      </trkpt>
      <trkpt lat="48.13355" lon="-3.80541">
        <ele>244.1</ele>
        <time>2023-04-05T11:11:57Z</time>
      </trkpt>
      <trkpt lat="48.13355" lon="-3.80541">
        <ele>244.1</ele>
        <time>2023-04-05T11:11:58Z</time>
      </trkpt>
      <trkpt lat="48.13355" lon="-3.80541">
        <ele>244.1</ele>
        <time>2023-04-05T11:11:59Z</time>
      </trkpt>
      <trkpt lat="48.13355" lon="-3.8054">
        <ele>244.1</ele>
        <time>2023-04-05T11:12:00Z</time>
      </trkpt>
      <trkpt lat="48.13358" lon="-3.80539">
        <ele>244</ele>
        <time>2023-04-05T11:12:22Z</time>
      </trkpt>
      <trkpt lat="48.13359" lon="-3.8054">
        <ele>244</ele>
        <time>2023-04-05T11:12:23Z</time>
      </trkpt>
      <trkpt lat="48.13361" lon="-3.80541">
        <ele>243.9</ele>
        <time>2023-04-05T11:12:24Z</time>
      </trkpt>
      <trkpt lat="48.13362" lon="-3.80541">
        <ele>243.8</ele>
        <time>2023-04-05T11:12:25Z</time>
      </trkpt>
      <trkpt lat="48.13364" lon="-3.80541">
        <ele>243.8</ele>
        <time>2023-04-05T11:12:26Z</time>
      </trkpt>
      <trkpt lat="48.13367" lon="-3.80542">
        <ele>243.6</ele>
        <time>2023-04-05T11:12:27Z</time>
      </trkpt>
      <trkpt lat="48.13368" lon="-3.80543">
        <ele>243.6</ele>
        <time>2023-04-05T11:12:28Z</time>
      </trkpt>
      <trkpt lat="48.13371" lon="-3.80544">
        <ele>243.5</ele>
        <time>2023-04-05T11:12:29Z</time>
      </trkpt>
      <trkpt lat="48.13373" lon="-3.80544">
        <ele>243.4</ele>
        <time>2023-04-05T11:12:30Z</time>
      </trkpt>
      <trkpt lat="48.13376" lon="-3.80545">
        <ele>243.3</ele>
        <time>2023-04-05T11:12:32Z</time>
      </trkpt>
      <trkpt lat="48.13377" lon="-3.80545">
        <ele>243.3</ele>
        <time>2023-04-05T11:12:33Z</time>
      </trkpt>
      <trkpt lat="48.1338" lon="-3.80546">
        <ele>243.2</ele>
        <time>2023-04-05T11:12:34Z</time>
      </trkpt>
      <trkpt lat="48.13381" lon="-3.80546">
        <ele>243.2</ele>
        <time>2023-04-05T11:12:35Z</time>
      </trkpt>
      <trkpt lat="48.13385" lon="-3.80548">
        <ele>243</ele>
        <time>2023-04-05T11:12:36Z</time>
      </trkpt>
      <trkpt lat="48.13387" lon="-3.80548">
        <ele>243</ele>
        <time>2023-04-05T11:12:37Z</time>
      </trkpt>
      <trkpt lat="48.1339" lon="-3.80549">
        <ele>242.8</ele>
        <time>2023-04-05T11:12:39Z</time>
      </trkpt>
      <trkpt lat="48.13394" lon="-3.8055">
        <ele>242.7</ele>
        <time>2023-04-05T11:12:40Z</time>
      </trkpt>
      <trkpt lat="48.13397" lon="-3.80549">
        <ele>242.6</ele>
        <time>2023-04-05T11:12:41Z</time>
      </trkpt>
      <trkpt lat="48.13398" lon="-3.80548">
        <ele>242.5</ele>
        <time>2023-04-05T11:12:42Z</time>
      </trkpt>
      <trkpt lat="48.13401" lon="-3.80546">
        <ele>242.4</ele>
        <time>2023-04-05T11:12:43Z</time>
      </trkpt>
      <trkpt lat="48.13407" lon="-3.80542">
        <ele>242.2</ele>
        <time>2023-04-05T11:12:44Z</time>
      </trkpt>
      <trkpt lat="48.1341" lon="-3.8054">
        <ele>242.1</ele>
        <time>2023-04-05T11:12:45Z</time>
      </trkpt>
      <trkpt lat="48.13413" lon="-3.80539">
        <ele>241.9</ele>
        <time>2023-04-05T11:12:46Z</time>
      </trkpt>
      <trkpt lat="48.13416" lon="-3.80537">
        <ele>241.8</ele>
        <time>2023-04-05T11:12:48Z</time>
      </trkpt>
      <trkpt lat="48.13419" lon="-3.80535">
        <ele>241.7</ele>
        <time>2023-04-05T11:12:49Z</time>
      </trkpt>
      <trkpt lat="48.13422" lon="-3.80533">
        <ele>241.6</ele>
        <time>2023-04-05T11:12:50Z</time>
      </trkpt>
      <trkpt lat="48.13424" lon="-3.80531">
        <ele>241.5</ele>
        <time>2023-04-05T11:12:51Z</time>
      </trkpt>
      <trkpt lat="48.13425" lon="-3.80531">
        <ele>241.5</ele>
        <time>2023-04-05T11:12:52Z</time>
      </trkpt>
      <trkpt lat="48.13429" lon="-3.80529">
        <ele>241.4</ele>
        <time>2023-04-05T11:12:53Z</time>
      </trkpt>
      <trkpt lat="48.13434" lon="-3.80524">
        <ele>241.2</ele>
        <time>2023-04-05T11:12:54Z</time>
      </trkpt>
      <trkpt lat="48.1344" lon="-3.8052">
        <ele>241.1</ele>
        <time>2023-04-05T11:12:56Z</time>
      </trkpt>
      <trkpt lat="48.13442" lon="-3.80518">
        <ele>241</ele>
        <time>2023-04-05T11:12:58Z</time>
      </trkpt>
      <trkpt lat="48.13443" lon="-3.80518">
        <ele>241</ele>
        <time>2023-04-05T11:12:59Z</time>
      </trkpt>
      <trkpt lat="48.13445" lon="-3.80517">
        <ele>241</ele>
        <time>2023-04-05T11:13:00Z</time>
      </trkpt>
      <trkpt lat="48.13448" lon="-3.80517">
        <ele>240.9</ele>
        <time>2023-04-05T11:13:01Z</time>
      </trkpt>
      <trkpt lat="48.13449" lon="-3.80516">
        <ele>240.9</ele>
        <time>2023-04-05T11:13:02Z</time>
      </trkpt>
      <trkpt lat="48.13452" lon="-3.80515">
        <ele>240.9</ele>
        <time>2023-04-05T11:13:03Z</time>
      </trkpt>
      <trkpt lat="48.13453" lon="-3.80515">
        <ele>240.9</ele>
        <time>2023-04-05T11:13:04Z</time>
      </trkpt>
      <trkpt lat="48.13457" lon="-3.80513">
        <ele>240.8</ele>
        <time>2023-04-05T11:13:05Z</time>
      </trkpt>
      <trkpt lat="48.13457" lon="-3.80512">
        <ele>240.8</ele>
        <time>2023-04-05T11:13:06Z</time>
      </trkpt>
      <trkpt lat="48.13459" lon="-3.80512">
        <ele>240.8</ele>
        <time>2023-04-05T11:13:07Z</time>
      </trkpt>
      <trkpt lat="48.1346" lon="-3.80512">
        <ele>240.7</ele>
        <time>2023-04-05T11:13:08Z</time>
      </trkpt>
      <trkpt lat="48.13461" lon="-3.80512">
        <ele>240.7</ele>
        <time>2023-04-05T11:13:09Z</time>
      </trkpt>
      <trkpt lat="48.13463" lon="-3.80511">
        <ele>240.7</ele>
        <time>2023-04-05T11:13:10Z</time>
      </trkpt>
      <trkpt lat="48.13464" lon="-3.8051">
        <ele>240.6</ele>
        <time>2023-04-05T11:13:11Z</time>
      </trkpt>
      <trkpt lat="48.13465" lon="-3.80508">
        <ele>240.6</ele>
        <time>2023-04-05T11:13:12Z</time>
      </trkpt>
      <trkpt lat="48.13466" lon="-3.80507">
        <ele>240.6</ele>
        <time>2023-04-05T11:13:13Z</time>
      </trkpt>
      <trkpt lat="48.13468" lon="-3.80505">
        <ele>240.5</ele>
        <time>2023-04-05T11:13:14Z</time>
      </trkpt>
      <trkpt lat="48.13469" lon="-3.80504">
        <ele>240.5</ele>
        <time>2023-04-05T11:13:15Z</time>
      </trkpt>
      <trkpt lat="48.13472" lon="-3.80505">
        <ele>240.5</ele>
        <time>2023-04-05T11:13:16Z</time>
      </trkpt>
      <trkpt lat="48.13472" lon="-3.80505">
        <ele>240.4</ele>
        <time>2023-04-05T11:13:17Z</time>
      </trkpt>
      <trkpt lat="48.13474" lon="-3.80505">
        <ele>240.4</ele>
        <time>2023-04-05T11:13:18Z</time>
      </trkpt>
      <trkpt lat="48.13476" lon="-3.80504">
        <ele>240.4</ele>
        <time>2023-04-05T11:13:19Z</time>
      </trkpt>
      <trkpt lat="48.1348" lon="-3.80504">
        <ele>240.3</ele>
        <time>2023-04-05T11:13:20Z</time>
      </trkpt>
      <trkpt lat="48.13483" lon="-3.80504">
        <ele>240.2</ele>
        <time>2023-04-05T11:13:21Z</time>
      </trkpt>
      <trkpt lat="48.13487" lon="-3.80504">
        <ele>240.1</ele>
        <time>2023-04-05T11:13:22Z</time>
      </trkpt>
      <trkpt lat="48.13491" lon="-3.80504">
        <ele>240</ele>
        <time>2023-04-05T11:13:23Z</time>
      </trkpt>
      <trkpt lat="48.13494" lon="-3.80504">
        <ele>240</ele>
        <time>2023-04-05T11:13:24Z</time>
      </trkpt>
      <trkpt lat="48.13495" lon="-3.80504">
        <ele>239.9</ele>
        <time>2023-04-05T11:13:25Z</time>
      </trkpt>
      <trkpt lat="48.13499" lon="-3.80502">
        <ele>239.9</ele>
        <time>2023-04-05T11:13:26Z</time>
      </trkpt>
      <trkpt lat="48.13503" lon="-3.80499">
        <ele>239.8</ele>
        <time>2023-04-05T11:13:27Z</time>
      </trkpt>
      <trkpt lat="48.13508" lon="-3.80497">
        <ele>239.7</ele>
        <time>2023-04-05T11:13:28Z</time>
      </trkpt>
      <trkpt lat="48.13511" lon="-3.80495">
        <ele>239.7</ele>
        <time>2023-04-05T11:13:29Z</time>
      </trkpt>
      <trkpt lat="48.13515" lon="-3.80492">
        <ele>239.6</ele>
        <time>2023-04-05T11:13:30Z</time>
      </trkpt>
      <trkpt lat="48.13518" lon="-3.8049">
        <ele>239.5</ele>
        <time>2023-04-05T11:13:31Z</time>
      </trkpt>
      <trkpt lat="48.13523" lon="-3.80485">
        <ele>239.5</ele>
        <time>2023-04-05T11:13:33Z</time>
      </trkpt>
      <trkpt lat="48.13529" lon="-3.8048">
        <ele>239.4</ele>
        <time>2023-04-05T11:13:34Z</time>
      </trkpt>
      <trkpt lat="48.13533" lon="-3.80476">
        <ele>239.3</ele>
        <time>2023-04-05T11:13:36Z</time>
      </trkpt>
      <trkpt lat="48.13538" lon="-3.80472">
        <ele>239.2</ele>
        <time>2023-04-05T11:13:37Z</time>
      </trkpt>
      <trkpt lat="48.13542" lon="-3.80469">
        <ele>239.2</ele>
        <time>2023-04-05T11:13:38Z</time>
      </trkpt>
      <trkpt lat="48.13545" lon="-3.80466">
        <ele>239.1</ele>
        <time>2023-04-05T11:13:39Z</time>
      </trkpt>
      <trkpt lat="48.13549" lon="-3.80463">
        <ele>239.1</ele>
        <time>2023-04-05T11:13:40Z</time>
      </trkpt>
      <trkpt lat="48.13554" lon="-3.80453">
        <ele>239</ele>
        <time>2023-04-05T11:13:41Z</time>
      </trkpt>
      <trkpt lat="48.13555" lon="-3.80449">
        <ele>239</ele>
        <time>2023-04-05T11:13:42Z</time>
      </trkpt>
      <trkpt lat="48.13558" lon="-3.80443">
        <ele>238.9</ele>
        <time>2023-04-05T11:13:44Z</time>
      </trkpt>
      <trkpt lat="48.13561" lon="-3.80439">
        <ele>238.8</ele>
        <time>2023-04-05T11:13:45Z</time>
      </trkpt>
      <trkpt lat="48.13563" lon="-3.80436">
        <ele>238.7</ele>
        <time>2023-04-05T11:13:46Z</time>
      </trkpt>
      <trkpt lat="48.13566" lon="-3.80432">
        <ele>238.6</ele>
        <time>2023-04-05T11:13:47Z</time>
      </trkpt>
      <trkpt lat="48.13569" lon="-3.80429">
        <ele>238.6</ele>
        <time>2023-04-05T11:13:48Z</time>
      </trkpt>
      <trkpt lat="48.13572" lon="-3.80425">
        <ele>238.5</ele>
        <time>2023-04-05T11:13:49Z</time>
      </trkpt>
      <trkpt lat="48.13575" lon="-3.80421">
        <ele>238.3</ele>
        <time>2023-04-05T11:13:50Z</time>
      </trkpt>
      <trkpt lat="48.13577" lon="-3.80419">
        <ele>238.3</ele>
        <time>2023-04-05T11:13:51Z</time>
      </trkpt>
      <trkpt lat="48.1358" lon="-3.80415">
        <ele>238.2</ele>
        <time>2023-04-05T11:13:52Z</time>
      </trkpt>
      <trkpt lat="48.13583" lon="-3.80411">
        <ele>238.1</ele>
        <time>2023-04-05T11:13:53Z</time>
      </trkpt>
      <trkpt lat="48.13585" lon="-3.80408">
        <ele>238</ele>
        <time>2023-04-05T11:13:54Z</time>
      </trkpt>
      <trkpt lat="48.13587" lon="-3.80404">
        <ele>237.9</ele>
        <time>2023-04-05T11:13:55Z</time>
      </trkpt>
      <trkpt lat="48.13589" lon="-3.80401">
        <ele>237.9</ele>
        <time>2023-04-05T11:13:56Z</time>
      </trkpt>
      <trkpt lat="48.13591" lon="-3.80397">
        <ele>237.8</ele>
        <time>2023-04-05T11:13:57Z</time>
      </trkpt>
      <trkpt lat="48.13592" lon="-3.80395">
        <ele>237.8</ele>
        <time>2023-04-05T11:13:58Z</time>
      </trkpt>
      <trkpt lat="48.13595" lon="-3.8039">
        <ele>237.7</ele>
        <time>2023-04-05T11:13:59Z</time>
      </trkpt>
      <trkpt lat="48.13598" lon="-3.80386">
        <ele>237.7</ele>
        <time>2023-04-05T11:14:00Z</time>
      </trkpt>
      <trkpt lat="48.136" lon="-3.80383">
        <ele>237.6</ele>
        <time>2023-04-05T11:14:01Z</time>
      </trkpt>
      <trkpt lat="48.13604" lon="-3.80378">
        <ele>237.6</ele>
        <time>2023-04-05T11:14:02Z</time>
      </trkpt>
      <trkpt lat="48.13606" lon="-3.80376">
        <ele>237.6</ele>
        <time>2023-04-05T11:14:03Z</time>
      </trkpt>
      <trkpt lat="48.13609" lon="-3.80373">
        <ele>237.5</ele>
        <time>2023-04-05T11:14:04Z</time>
      </trkpt>
      <trkpt lat="48.13612" lon="-3.80371">
        <ele>237.5</ele>
        <time>2023-04-05T11:14:05Z</time>
      </trkpt>
      <trkpt lat="48.13615" lon="-3.80368">
        <ele>237.4</ele>
        <time>2023-04-05T11:14:06Z</time>
      </trkpt>
      <trkpt lat="48.13616" lon="-3.80366">
        <ele>237.4</ele>
        <time>2023-04-05T11:14:07Z</time>
      </trkpt>
      <trkpt lat="48.13621" lon="-3.80363">
        <ele>237.4</ele>
        <time>2023-04-05T11:14:08Z</time>
      </trkpt>
      <trkpt lat="48.13625" lon="-3.8036">
        <ele>237.3</ele>
        <time>2023-04-05T11:14:09Z</time>
      </trkpt>
      <trkpt lat="48.13626" lon="-3.80357">
        <ele>237.3</ele>
        <time>2023-04-05T11:14:10Z</time>
      </trkpt>
      <trkpt lat="48.1363" lon="-3.80353">
        <ele>237.2</ele>
        <time>2023-04-05T11:14:11Z</time>
      </trkpt>
      <trkpt lat="48.13634" lon="-3.8035">
        <ele>237.1</ele>
        <time>2023-04-05T11:14:12Z</time>
      </trkpt>
      <trkpt lat="48.13639" lon="-3.80347">
        <ele>237.1</ele>
        <time>2023-04-05T11:14:13Z</time>
      </trkpt>
      <trkpt lat="48.13643" lon="-3.80343">
        <ele>237</ele>
        <time>2023-04-05T11:14:14Z</time>
      </trkpt>
      <trkpt lat="48.13646" lon="-3.8034">
        <ele>237</ele>
        <time>2023-04-05T11:14:15Z</time>
      </trkpt>
      <trkpt lat="48.13649" lon="-3.80338">
        <ele>236.9</ele>
        <time>2023-04-05T11:14:16Z</time>
      </trkpt>
      <trkpt lat="48.13653" lon="-3.80333">
        <ele>236.9</ele>
        <time>2023-04-05T11:14:17Z</time>
      </trkpt>
      <trkpt lat="48.13656" lon="-3.80328">
        <ele>236.8</ele>
        <time>2023-04-05T11:14:18Z</time>
      </trkpt>
      <trkpt lat="48.13662" lon="-3.8032">
        <ele>236.7</ele>
        <time>2023-04-05T11:14:20Z</time>
      </trkpt>
      <trkpt lat="48.13662" lon="-3.80318">
        <ele>236.7</ele>
        <time>2023-04-05T11:14:21Z</time>
      </trkpt>
      <trkpt lat="48.13668" lon="-3.80312">
        <ele>236.6</ele>
        <time>2023-04-05T11:14:23Z</time>
      </trkpt>
      <trkpt lat="48.13673" lon="-3.80311">
        <ele>236.6</ele>
        <time>2023-04-05T11:14:24Z</time>
      </trkpt>
      <trkpt lat="48.13681" lon="-3.80309">
        <ele>236.5</ele>
        <time>2023-04-05T11:14:26Z</time>
      </trkpt>
      <trkpt lat="48.13686" lon="-3.80308">
        <ele>236.4</ele>
        <time>2023-04-05T11:14:28Z</time>
      </trkpt>
      <trkpt lat="48.13689" lon="-3.80307">
        <ele>236.4</ele>
        <time>2023-04-05T11:14:29Z</time>
      </trkpt>
      <trkpt lat="48.13692" lon="-3.80305">
        <ele>236.3</ele>
        <time>2023-04-05T11:14:30Z</time>
      </trkpt>
      <trkpt lat="48.13695" lon="-3.80304">
        <ele>236.3</ele>
        <time>2023-04-05T11:14:31Z</time>
      </trkpt>
      <trkpt lat="48.13698" lon="-3.80304">
        <ele>236.3</ele>
        <time>2023-04-05T11:14:32Z</time>
      </trkpt>
      <trkpt lat="48.13701" lon="-3.80304">
        <ele>236.3</ele>
        <time>2023-04-05T11:14:33Z</time>
      </trkpt>
      <trkpt lat="48.13704" lon="-3.80303">
        <ele>236.3</ele>
        <time>2023-04-05T11:14:34Z</time>
      </trkpt>
      <trkpt lat="48.13707" lon="-3.80303">
        <ele>236.3</ele>
        <time>2023-04-05T11:14:35Z</time>
      </trkpt>
      <trkpt lat="48.13711" lon="-3.80303">
        <ele>236.2</ele>
        <time>2023-04-05T11:14:36Z</time>
      </trkpt>
      <trkpt lat="48.13715" lon="-3.80303">
        <ele>236.2</ele>
        <time>2023-04-05T11:14:37Z</time>
      </trkpt>
      <trkpt lat="48.13719" lon="-3.80303">
        <ele>236.2</ele>
        <time>2023-04-05T11:14:38Z</time>
      </trkpt>
      <trkpt lat="48.13722" lon="-3.80303">
        <ele>236.2</ele>
        <time>2023-04-05T11:14:39Z</time>
      </trkpt>
      <trkpt lat="48.13726" lon="-3.80303">
        <ele>236.2</ele>
        <time>2023-04-05T11:14:40Z</time>
      </trkpt>
      <trkpt lat="48.13731" lon="-3.80302">
        <ele>236.1</ele>
        <time>2023-04-05T11:14:41Z</time>
      </trkpt>
      <trkpt lat="48.13735" lon="-3.80302">
        <ele>236.1</ele>
        <time>2023-04-05T11:14:42Z</time>
      </trkpt>
      <trkpt lat="48.13739" lon="-3.80301">
        <ele>236</ele>
        <time>2023-04-05T11:14:43Z</time>
      </trkpt>
      <trkpt lat="48.13743" lon="-3.80301">
        <ele>236</ele>
        <time>2023-04-05T11:14:44Z</time>
      </trkpt>
      <trkpt lat="48.13747" lon="-3.803">
        <ele>236</ele>
        <time>2023-04-05T11:14:45Z</time>
      </trkpt>
      <trkpt lat="48.13751" lon="-3.80299">
        <ele>235.9</ele>
        <time>2023-04-05T11:14:46Z</time>
      </trkpt>
      <trkpt lat="48.13754" lon="-3.80298">
        <ele>235.9</ele>
        <time>2023-04-05T11:14:47Z</time>
      </trkpt>
      <trkpt lat="48.13757" lon="-3.80297">
        <ele>235.8</ele>
        <time>2023-04-05T11:14:48Z</time>
      </trkpt>
      <trkpt lat="48.13762" lon="-3.80296">
        <ele>235.8</ele>
        <time>2023-04-05T11:14:49Z</time>
      </trkpt>
      <trkpt lat="48.13765" lon="-3.80296">
        <ele>235.7</ele>
        <time>2023-04-05T11:14:50Z</time>
      </trkpt>
      <trkpt lat="48.13769" lon="-3.80296">
        <ele>235.7</ele>
        <time>2023-04-05T11:14:51Z</time>
      </trkpt>
      <trkpt lat="48.13772" lon="-3.80296">
        <ele>235.6</ele>
        <time>2023-04-05T11:14:52Z</time>
      </trkpt>
      <trkpt lat="48.13775" lon="-3.80295">
        <ele>235.5</ele>
        <time>2023-04-05T11:14:53Z</time>
      </trkpt>
      <trkpt lat="48.13776" lon="-3.80295">
        <ele>235.5</ele>
        <time>2023-04-05T11:14:54Z</time>
      </trkpt>
      <trkpt lat="48.13776" lon="-3.80295">
        <ele>235.5</ele>
        <time>2023-04-05T11:14:55Z</time>
      </trkpt>
      <trkpt lat="48.13777" lon="-3.80295">
        <ele>235.5</ele>
        <time>2023-04-05T11:14:56Z</time>
      </trkpt>
      <trkpt lat="48.13777" lon="-3.80296">
        <ele>235.5</ele>
        <time>2023-04-05T11:14:57Z</time>
      </trkpt>
      <trkpt lat="48.13777" lon="-3.80296">
        <ele>235.5</ele>
        <time>2023-04-05T11:14:58Z</time>
      </trkpt>
      <trkpt lat="48.13777" lon="-3.80296">
        <ele>235.5</ele>
        <time>2023-04-05T11:14:59Z</time>
      </trkpt>
      <trkpt lat="48.13777" lon="-3.80296">
        <ele>235.5</ele>
        <time>2023-04-05T11:15:00Z</time>
      </trkpt>
      <trkpt lat="48.13777" lon="-3.80296">
        <ele>235.5</ele>
        <time>2023-04-05T11:15:01Z</time>
      </trkpt>
      <trkpt lat="48.13777" lon="-3.80296">
        <ele>235.5</ele>
        <time>2023-04-05T11:15:02Z</time>
      </trkpt>
      <trkpt lat="48.13778" lon="-3.80296">
        <ele>235.5</ele>
        <time>2023-04-05T11:15:03Z</time>
      </trkpt>
      <trkpt lat="48.13778" lon="-3.80296">
        <ele>235.5</ele>
        <time>2023-04-05T11:15:04Z</time>
      </trkpt>
      <trkpt lat="48.13779" lon="-3.80296">
        <ele>235.5</ele>
        <time>2023-04-05T11:15:05Z</time>
      </trkpt>
      <trkpt lat="48.13779" lon="-3.80296">
        <ele>235.4</ele>
        <time>2023-04-05T11:15:06Z</time>
      </trkpt>
      <trkpt lat="48.1378" lon="-3.80296">
        <ele>235.4</ele>
        <time>2023-04-05T11:15:07Z</time>
      </trkpt>
      <trkpt lat="48.1378" lon="-3.80296">
        <ele>235.4</ele>
        <time>2023-04-05T11:15:08Z</time>
      </trkpt>
      <trkpt lat="48.13781" lon="-3.80296">
        <ele>235.4</ele>
        <time>2023-04-05T11:15:09Z</time>
      </trkpt>
      <trkpt lat="48.13782" lon="-3.80296">
        <ele>235.4</ele>
        <time>2023-04-05T11:15:10Z</time>
      </trkpt>
      <trkpt lat="48.13782" lon="-3.80297">
        <ele>235.4</ele>
        <time>2023-04-05T11:15:11Z</time>
      </trkpt>
      <trkpt lat="48.13783" lon="-3.80297">
        <ele>235.4</ele>
        <time>2023-04-05T11:15:12Z</time>
      </trkpt>
      <trkpt lat="48.13786" lon="-3.80297">
        <ele>235.3</ele>
        <time>2023-04-05T11:15:13Z</time>
      </trkpt>
      <trkpt lat="48.1379" lon="-3.80296">
        <ele>235.3</ele>
        <time>2023-04-05T11:15:14Z</time>
      </trkpt>
      <trkpt lat="48.13791" lon="-3.80296">
        <ele>235.3</ele>
        <time>2023-04-05T11:15:15Z</time>
      </trkpt>
      <trkpt lat="48.13794" lon="-3.80296">
        <ele>235.2</ele>
        <time>2023-04-05T11:15:16Z</time>
      </trkpt>
      <trkpt lat="48.13795" lon="-3.80296">
        <ele>235.2</ele>
        <time>2023-04-05T11:15:17Z</time>
      </trkpt>
      <trkpt lat="48.13795" lon="-3.80296">
        <ele>235.2</ele>
        <time>2023-04-05T11:15:18Z</time>
      </trkpt>
      <trkpt lat="48.13795" lon="-3.80295">
        <ele>235.2</ele>
        <time>2023-04-05T11:15:19Z</time>
      </trkpt>
      <trkpt lat="48.13795" lon="-3.80295">
        <ele>235.2</ele>
        <time>2023-04-05T11:15:20Z</time>
      </trkpt>
      <trkpt lat="48.13795" lon="-3.80295">
        <ele>235.2</ele>
        <time>2023-04-05T11:15:21Z</time>
      </trkpt>
      <trkpt lat="48.13795" lon="-3.80295">
        <ele>235.2</ele>
        <time>2023-04-05T11:15:22Z</time>
      </trkpt>
      <trkpt lat="48.13795" lon="-3.80295">
        <ele>235.2</ele>
        <time>2023-04-05T11:15:23Z</time>
      </trkpt>
      <trkpt lat="48.13796" lon="-3.80295">
        <ele>235.2</ele>
        <time>2023-04-05T11:15:24Z</time>
      </trkpt>
      <trkpt lat="48.13796" lon="-3.80295">
        <ele>235.2</ele>
        <time>2023-04-05T11:15:25Z</time>
      </trkpt>
      <trkpt lat="48.13796" lon="-3.80295">
        <ele>235.2</ele>
        <time>2023-04-05T11:15:26Z</time>
      </trkpt>
      <trkpt lat="48.13796" lon="-3.80295">
        <ele>235.2</ele>
        <time>2023-04-05T11:15:27Z</time>
      </trkpt>
      <trkpt lat="48.13796" lon="-3.80294">
        <ele>235.2</ele>
        <time>2023-04-05T11:15:28Z</time>
      </trkpt>
      <trkpt lat="48.13798" lon="-3.80294">
        <ele>235.2</ele>
        <time>2023-04-05T11:15:44Z</time>
      </trkpt>
      <trkpt lat="48.138" lon="-3.80293">
        <ele>235.2</ele>
        <time>2023-04-05T11:15:45Z</time>
      </trkpt>
      <trkpt lat="48.13801" lon="-3.80292">
        <ele>235.2</ele>
        <time>2023-04-05T11:15:46Z</time>
      </trkpt>
      <trkpt lat="48.13801" lon="-3.80294">
        <ele>235.2</ele>
        <time>2023-04-05T11:15:47Z</time>
      </trkpt>
      <trkpt lat="48.13803" lon="-3.80294">
        <ele>235.1</ele>
        <time>2023-04-05T11:15:48Z</time>
      </trkpt>
      <trkpt lat="48.13807" lon="-3.80293">
        <ele>235.1</ele>
        <time>2023-04-05T11:15:49Z</time>
      </trkpt>
      <trkpt lat="48.13811" lon="-3.80292">
        <ele>235.1</ele>
        <time>2023-04-05T11:15:50Z</time>
      </trkpt>
      <trkpt lat="48.13814" lon="-3.80291">
        <ele>235</ele>
        <time>2023-04-05T11:15:51Z</time>
      </trkpt>
      <trkpt lat="48.13816" lon="-3.8029">
        <ele>235</ele>
        <time>2023-04-05T11:15:52Z</time>
      </trkpt>
      <trkpt lat="48.13822" lon="-3.8029">
        <ele>235</ele>
        <time>2023-04-05T11:15:54Z</time>
      </trkpt>
      <trkpt lat="48.13825" lon="-3.8029">
        <ele>234.9</ele>
        <time>2023-04-05T11:15:55Z</time>
      </trkpt>
      <trkpt lat="48.13827" lon="-3.80289">
        <ele>234.9</ele>
        <time>2023-04-05T11:15:56Z</time>
      </trkpt>
      <trkpt lat="48.13831" lon="-3.80288">
        <ele>234.9</ele>
        <time>2023-04-05T11:15:57Z</time>
      </trkpt>
      <trkpt lat="48.13837" lon="-3.80286">
        <ele>234.8</ele>
        <time>2023-04-05T11:15:58Z</time>
      </trkpt>
      <trkpt lat="48.13844" lon="-3.80285">
        <ele>234.8</ele>
        <time>2023-04-05T11:16:00Z</time>
      </trkpt>
      <trkpt lat="48.13847" lon="-3.80285">
        <ele>234.7</ele>
        <time>2023-04-05T11:16:01Z</time>
      </trkpt>
      <trkpt lat="48.1385" lon="-3.80285">
        <ele>234.7</ele>
        <time>2023-04-05T11:16:02Z</time>
      </trkpt>
      <trkpt lat="48.13854" lon="-3.80285">
        <ele>234.7</ele>
        <time>2023-04-05T11:16:04Z</time>
      </trkpt>
      <trkpt lat="48.13857" lon="-3.80284">
        <ele>234.7</ele>
        <time>2023-04-05T11:16:05Z</time>
      </trkpt>
      <trkpt lat="48.13865" lon="-3.80283">
        <ele>234.7</ele>
        <time>2023-04-05T11:16:06Z</time>
      </trkpt>
      <trkpt lat="48.13869" lon="-3.80282">
        <ele>234.7</ele>
        <time>2023-04-05T11:16:07Z</time>
      </trkpt>
      <trkpt lat="48.13873" lon="-3.80281">
        <ele>234.7</ele>
        <time>2023-04-05T11:16:09Z</time>
      </trkpt>
      <trkpt lat="48.13877" lon="-3.80282">
        <ele>234.7</ele>
        <time>2023-04-05T11:16:10Z</time>
      </trkpt>
      <trkpt lat="48.1388" lon="-3.80281">
        <ele>234.7</ele>
        <time>2023-04-05T11:16:11Z</time>
      </trkpt>
      <trkpt lat="48.13888" lon="-3.80279">
        <ele>234.7</ele>
        <time>2023-04-05T11:16:12Z</time>
      </trkpt>
      <trkpt lat="48.13893" lon="-3.80279">
        <ele>234.6</ele>
        <time>2023-04-05T11:16:13Z</time>
      </trkpt>
      <trkpt lat="48.13896" lon="-3.80279">
        <ele>234.6</ele>
        <time>2023-04-05T11:16:15Z</time>
      </trkpt>
      <trkpt lat="48.13898" lon="-3.80276">
        <ele>234.6</ele>
        <time>2023-04-05T11:16:16Z</time>
      </trkpt>
      <trkpt lat="48.13901" lon="-3.80268">
        <ele>234.5</ele>
        <time>2023-04-05T11:16:17Z</time>
      </trkpt>
      <trkpt lat="48.13899" lon="-3.80262">
        <ele>234.5</ele>
        <time>2023-04-05T11:16:19Z</time>
      </trkpt>
      <trkpt lat="48.13896" lon="-3.80257">
        <ele>234.4</ele>
        <time>2023-04-05T11:16:20Z</time>
      </trkpt>
      <trkpt lat="48.13894" lon="-3.80251">
        <ele>234.4</ele>
        <time>2023-04-05T11:16:21Z</time>
      </trkpt>
      <trkpt lat="48.13892" lon="-3.80244">
        <ele>234.3</ele>
        <time>2023-04-05T11:16:22Z</time>
      </trkpt>
      <trkpt lat="48.1389" lon="-3.80236">
        <ele>234.2</ele>
        <time>2023-04-05T11:16:23Z</time>
      </trkpt>
      <trkpt lat="48.13888" lon="-3.8023">
        <ele>234.2</ele>
        <time>2023-04-05T11:16:24Z</time>
      </trkpt>
      <trkpt lat="48.13886" lon="-3.80224">
        <ele>234.1</ele>
        <time>2023-04-05T11:16:25Z</time>
      </trkpt>
      <trkpt lat="48.13884" lon="-3.80216">
        <ele>234</ele>
        <time>2023-04-05T11:16:26Z</time>
      </trkpt>
      <trkpt lat="48.13881" lon="-3.80209">
        <ele>233.9</ele>
        <time>2023-04-05T11:16:27Z</time>
      </trkpt>
      <trkpt lat="48.13879" lon="-3.80202">
        <ele>233.9</ele>
        <time>2023-04-05T11:16:28Z</time>
      </trkpt>
      <trkpt lat="48.13876" lon="-3.80194">
        <ele>233.8</ele>
        <time>2023-04-05T11:16:29Z</time>
      </trkpt>
      <trkpt lat="48.13874" lon="-3.80186">
        <ele>233.7</ele>
        <time>2023-04-05T11:16:30Z</time>
      </trkpt>
      <trkpt lat="48.13872" lon="-3.80178">
        <ele>233.7</ele>
        <time>2023-04-05T11:16:31Z</time>
      </trkpt>
      <trkpt lat="48.13869" lon="-3.8017">
        <ele>233.6</ele>
        <time>2023-04-05T11:16:32Z</time>
      </trkpt>
      <trkpt lat="48.13867" lon="-3.80162">
        <ele>233.5</ele>
        <time>2023-04-05T11:16:33Z</time>
      </trkpt>
      <trkpt lat="48.13865" lon="-3.80154">
        <ele>233.5</ele>
        <time>2023-04-05T11:16:34Z</time>
      </trkpt>
      <trkpt lat="48.13862" lon="-3.80146">
        <ele>233.4</ele>
        <time>2023-04-05T11:16:35Z</time>
      </trkpt>
      <trkpt lat="48.1386" lon="-3.80138">
        <ele>233.3</ele>
        <time>2023-04-05T11:16:36Z</time>
      </trkpt>
      <trkpt lat="48.13857" lon="-3.8013">
        <ele>233.3</ele>
        <time>2023-04-05T11:16:37Z</time>
      </trkpt>
      <trkpt lat="48.13855" lon="-3.80121">
        <ele>233.2</ele>
        <time>2023-04-05T11:16:38Z</time>
      </trkpt>
      <trkpt lat="48.13853" lon="-3.80112">
        <ele>233.2</ele>
        <time>2023-04-05T11:16:39Z</time>
      </trkpt>
      <trkpt lat="48.1385" lon="-3.80104">
        <ele>233.2</ele>
        <time>2023-04-05T11:16:40Z</time>
      </trkpt>
      <trkpt lat="48.13848" lon="-3.80095">
        <ele>233.1</ele>
        <time>2023-04-05T11:16:41Z</time>
      </trkpt>
      <trkpt lat="48.13846" lon="-3.80087">
        <ele>233.1</ele>
        <time>2023-04-05T11:16:42Z</time>
      </trkpt>
      <trkpt lat="48.13844" lon="-3.80078">
        <ele>233</ele>
        <time>2023-04-05T11:16:43Z</time>
      </trkpt>
      <trkpt lat="48.13841" lon="-3.8007">
        <ele>233</ele>
        <time>2023-04-05T11:16:44Z</time>
      </trkpt>
      <trkpt lat="48.13839" lon="-3.80061">
        <ele>233</ele>
        <time>2023-04-05T11:16:45Z</time>
      </trkpt>
      <trkpt lat="48.13837" lon="-3.80052">
        <ele>232.9</ele>
        <time>2023-04-05T11:16:46Z</time>
      </trkpt>
      <trkpt lat="48.13835" lon="-3.80043">
        <ele>232.9</ele>
        <time>2023-04-05T11:16:47Z</time>
      </trkpt>
      <trkpt lat="48.13833" lon="-3.80033">
        <ele>232.9</ele>
        <time>2023-04-05T11:16:48Z</time>
      </trkpt>
      <trkpt lat="48.13831" lon="-3.80024">
        <ele>232.8</ele>
        <time>2023-04-05T11:16:49Z</time>
      </trkpt>
      <trkpt lat="48.13829" lon="-3.80014">
        <ele>232.7</ele>
        <time>2023-04-05T11:16:50Z</time>
      </trkpt>
      <trkpt lat="48.13827" lon="-3.80005">
        <ele>232.7</ele>
        <time>2023-04-05T11:16:51Z</time>
      </trkpt>
      <trkpt lat="48.13825" lon="-3.79995">
        <ele>232.6</ele>
        <time>2023-04-05T11:16:52Z</time>
      </trkpt>
      <trkpt lat="48.13824" lon="-3.79985">
        <ele>232.6</ele>
        <time>2023-04-05T11:16:53Z</time>
      </trkpt>
      <trkpt lat="48.13822" lon="-3.79975">
        <ele>232.5</ele>
        <time>2023-04-05T11:16:54Z</time>
      </trkpt>
      <trkpt lat="48.1382" lon="-3.79966">
        <ele>232.5</ele>
        <time>2023-04-05T11:16:55Z</time>
      </trkpt>
      <trkpt lat="48.13818" lon="-3.79955">
        <ele>232.4</ele>
        <time>2023-04-05T11:16:56Z</time>
      </trkpt>
      <trkpt lat="48.13816" lon="-3.79946">
        <ele>232.4</ele>
        <time>2023-04-05T11:16:57Z</time>
      </trkpt>
      <trkpt lat="48.13814" lon="-3.79936">
        <ele>232.4</ele>
        <time>2023-04-05T11:16:58Z</time>
      </trkpt>
      <trkpt lat="48.13812" lon="-3.79927">
        <ele>232.4</ele>
        <time>2023-04-05T11:16:59Z</time>
      </trkpt>
      <trkpt lat="48.1381" lon="-3.79917">
        <ele>232.4</ele>
        <time>2023-04-05T11:17:00Z</time>
      </trkpt>
      <trkpt lat="48.13808" lon="-3.79907">
        <ele>232.4</ele>
        <time>2023-04-05T11:17:01Z</time>
      </trkpt>
      <trkpt lat="48.13807" lon="-3.79897">
        <ele>232.4</ele>
        <time>2023-04-05T11:17:02Z</time>
      </trkpt>
      <trkpt lat="48.13805" lon="-3.79888">
        <ele>232.4</ele>
        <time>2023-04-05T11:17:03Z</time>
      </trkpt>
      <trkpt lat="48.13803" lon="-3.79878">
        <ele>232.4</ele>
        <time>2023-04-05T11:17:04Z</time>
      </trkpt>
      <trkpt lat="48.13801" lon="-3.79869">
        <ele>232.4</ele>
        <time>2023-04-05T11:17:05Z</time>
      </trkpt>
      <trkpt lat="48.13799" lon="-3.7986">
        <ele>232.4</ele>
        <time>2023-04-05T11:17:06Z</time>
      </trkpt>
      <trkpt lat="48.13797" lon="-3.79851">
        <ele>232.4</ele>
        <time>2023-04-05T11:17:07Z</time>
      </trkpt>
      <trkpt lat="48.13796" lon="-3.79842">
        <ele>232.4</ele>
        <time>2023-04-05T11:17:08Z</time>
      </trkpt>
      <trkpt lat="48.13795" lon="-3.79833">
        <ele>232.4</ele>
        <time>2023-04-05T11:17:09Z</time>
      </trkpt>
      <trkpt lat="48.13793" lon="-3.79824">
        <ele>232.4</ele>
        <time>2023-04-05T11:17:10Z</time>
      </trkpt>
      <trkpt lat="48.13792" lon="-3.79814">
        <ele>232.4</ele>
        <time>2023-04-05T11:17:11Z</time>
      </trkpt>
      <trkpt lat="48.1379" lon="-3.79805">
        <ele>232.4</ele>
        <time>2023-04-05T11:17:12Z</time>
      </trkpt>
      <trkpt lat="48.13789" lon="-3.79796">
        <ele>232.4</ele>
        <time>2023-04-05T11:17:13Z</time>
      </trkpt>
      <trkpt lat="48.13788" lon="-3.79787">
        <ele>232.4</ele>
        <time>2023-04-05T11:17:14Z</time>
      </trkpt>
      <trkpt lat="48.13787" lon="-3.79777">
        <ele>232.4</ele>
        <time>2023-04-05T11:17:15Z</time>
      </trkpt>
      <trkpt lat="48.13786" lon="-3.79768">
        <ele>232.4</ele>
        <time>2023-04-05T11:17:16Z</time>
      </trkpt>
      <trkpt lat="48.13785" lon="-3.79759">
        <ele>232.4</ele>
        <time>2023-04-05T11:17:17Z</time>
      </trkpt>
      <trkpt lat="48.13785" lon="-3.79749">
        <ele>232.4</ele>
        <time>2023-04-05T11:17:18Z</time>
      </trkpt>
      <trkpt lat="48.13784" lon="-3.7974">
        <ele>232.4</ele>
        <time>2023-04-05T11:17:19Z</time>
      </trkpt>
      <trkpt lat="48.13784" lon="-3.7973">
        <ele>232.4</ele>
        <time>2023-04-05T11:17:20Z</time>
      </trkpt>
      <trkpt lat="48.13783" lon="-3.7972">
        <ele>232.4</ele>
        <time>2023-04-05T11:17:21Z</time>
      </trkpt>
      <trkpt lat="48.13783" lon="-3.79711">
        <ele>232.4</ele>
        <time>2023-04-05T11:17:22Z</time>
      </trkpt>
      <trkpt lat="48.13784" lon="-3.79701">
        <ele>232.4</ele>
        <time>2023-04-05T11:17:23Z</time>
      </trkpt>
      <trkpt lat="48.13784" lon="-3.79691">
        <ele>232.4</ele>
        <time>2023-04-05T11:17:24Z</time>
      </trkpt>
      <trkpt lat="48.13784" lon="-3.79682">
        <ele>232.4</ele>
        <time>2023-04-05T11:17:25Z</time>
      </trkpt>
      <trkpt lat="48.13784" lon="-3.79672">
        <ele>232.3</ele>
        <time>2023-04-05T11:17:26Z</time>
      </trkpt>
      <trkpt lat="48.13785" lon="-3.79663">
        <ele>232.3</ele>
        <time>2023-04-05T11:17:27Z</time>
      </trkpt>
      <trkpt lat="48.13786" lon="-3.79653">
        <ele>232.3</ele>
        <time>2023-04-05T11:17:28Z</time>
      </trkpt>
      <trkpt lat="48.13786" lon="-3.79644">
        <ele>232.2</ele>
        <time>2023-04-05T11:17:29Z</time>
      </trkpt>
      <trkpt lat="48.13787" lon="-3.79634">
        <ele>232.2</ele>
        <time>2023-04-05T11:17:30Z</time>
      </trkpt>
      <trkpt lat="48.13788" lon="-3.79625">
        <ele>232.2</ele>
        <time>2023-04-05T11:17:31Z</time>
      </trkpt>
      <trkpt lat="48.13789" lon="-3.79615">
        <ele>232.2</ele>
        <time>2023-04-05T11:17:32Z</time>
      </trkpt>
      <trkpt lat="48.13791" lon="-3.79606">
        <ele>232.2</ele>
        <time>2023-04-05T11:17:33Z</time>
      </trkpt>
      <trkpt lat="48.13792" lon="-3.79597">
        <ele>232.2</ele>
        <time>2023-04-05T11:17:34Z</time>
      </trkpt>
      <trkpt lat="48.13794" lon="-3.79587">
        <ele>232.2</ele>
        <time>2023-04-05T11:17:35Z</time>
      </trkpt>
      <trkpt lat="48.13796" lon="-3.79578">
        <ele>232.2</ele>
        <time>2023-04-05T11:17:36Z</time>
      </trkpt>
      <trkpt lat="48.13797" lon="-3.79569">
        <ele>232.1</ele>
        <time>2023-04-05T11:17:37Z</time>
      </trkpt>
      <trkpt lat="48.13799" lon="-3.79559">
        <ele>232.1</ele>
        <time>2023-04-05T11:17:38Z</time>
      </trkpt>
      <trkpt lat="48.138" lon="-3.7955">
        <ele>232.1</ele>
        <time>2023-04-05T11:17:39Z</time>
      </trkpt>
      <trkpt lat="48.13802" lon="-3.79541">
        <ele>232.1</ele>
        <time>2023-04-05T11:17:40Z</time>
      </trkpt>
      <trkpt lat="48.13804" lon="-3.79531">
        <ele>232.1</ele>
        <time>2023-04-05T11:17:41Z</time>
      </trkpt>
      <trkpt lat="48.13805" lon="-3.79522">
        <ele>232.1</ele>
        <time>2023-04-05T11:17:42Z</time>
      </trkpt>
      <trkpt lat="48.13807" lon="-3.79513">
        <ele>232.1</ele>
        <time>2023-04-05T11:17:43Z</time>
      </trkpt>
      <trkpt lat="48.13809" lon="-3.79504">
        <ele>232.1</ele>
        <time>2023-04-05T11:17:44Z</time>
      </trkpt>
      <trkpt lat="48.13811" lon="-3.79495">
        <ele>232</ele>
        <time>2023-04-05T11:17:45Z</time>
      </trkpt>
      <trkpt lat="48.13812" lon="-3.79485">
        <ele>232</ele>
        <time>2023-04-05T11:17:46Z</time>
      </trkpt>
      <trkpt lat="48.13814" lon="-3.79476">
        <ele>231.9</ele>
        <time>2023-04-05T11:17:47Z</time>
      </trkpt>
      <trkpt lat="48.13816" lon="-3.79467">
        <ele>231.9</ele>
        <time>2023-04-05T11:17:48Z</time>
      </trkpt>
      <trkpt lat="48.13818" lon="-3.79458">
        <ele>231.8</ele>
        <time>2023-04-05T11:17:49Z</time>
      </trkpt>
      <trkpt lat="48.1382" lon="-3.79449">
        <ele>231.8</ele>
        <time>2023-04-05T11:17:50Z</time>
      </trkpt>
      <trkpt lat="48.13821" lon="-3.79439">
        <ele>231.7</ele>
        <time>2023-04-05T11:17:51Z</time>
      </trkpt>
      <trkpt lat="48.13823" lon="-3.7943">
        <ele>231.7</ele>
        <time>2023-04-05T11:17:52Z</time>
      </trkpt>
      <trkpt lat="48.13825" lon="-3.79421">
        <ele>231.7</ele>
        <time>2023-04-05T11:17:53Z</time>
      </trkpt>
      <trkpt lat="48.13827" lon="-3.79411">
        <ele>231.7</ele>
        <time>2023-04-05T11:17:54Z</time>
      </trkpt>
      <trkpt lat="48.13829" lon="-3.79402">
        <ele>231.7</ele>
        <time>2023-04-05T11:17:55Z</time>
      </trkpt>
      <trkpt lat="48.1383" lon="-3.79393">
        <ele>231.7</ele>
        <time>2023-04-05T11:17:56Z</time>
      </trkpt>
      <trkpt lat="48.13831" lon="-3.79383">
        <ele>231.7</ele>
        <time>2023-04-05T11:17:57Z</time>
      </trkpt>
      <trkpt lat="48.13832" lon="-3.79374">
        <ele>231.7</ele>
        <time>2023-04-05T11:17:58Z</time>
      </trkpt>
      <trkpt lat="48.13833" lon="-3.79365">
        <ele>231.7</ele>
        <time>2023-04-05T11:17:59Z</time>
      </trkpt>
      <trkpt lat="48.13835" lon="-3.79356">
        <ele>231.7</ele>
        <time>2023-04-05T11:18:00Z</time>
      </trkpt>
      <trkpt lat="48.13836" lon="-3.79346">
        <ele>231.8</ele>
        <time>2023-04-05T11:18:01Z</time>
      </trkpt>
      <trkpt lat="48.13837" lon="-3.79337">
        <ele>231.8</ele>
        <time>2023-04-05T11:18:02Z</time>
      </trkpt>
      <trkpt lat="48.13838" lon="-3.79327">
        <ele>231.8</ele>
        <time>2023-04-05T11:18:03Z</time>
      </trkpt>
      <trkpt lat="48.13838" lon="-3.79318">
        <ele>231.8</ele>
        <time>2023-04-05T11:18:04Z</time>
      </trkpt>
      <trkpt lat="48.13839" lon="-3.79308">
        <ele>231.8</ele>
        <time>2023-04-05T11:18:05Z</time>
      </trkpt>
      <trkpt lat="48.13839" lon="-3.79298">
        <ele>231.9</ele>
        <time>2023-04-05T11:18:06Z</time>
      </trkpt>
      <trkpt lat="48.13839" lon="-3.79288">
        <ele>231.9</ele>
        <time>2023-04-05T11:18:07Z</time>
      </trkpt>
      <trkpt lat="48.1384" lon="-3.79279">
        <ele>231.9</ele>
        <time>2023-04-05T11:18:08Z</time>
      </trkpt>
      <trkpt lat="48.1384" lon="-3.79269">
        <ele>231.9</ele>
        <time>2023-04-05T11:18:09Z</time>
      </trkpt>
      <trkpt lat="48.1384" lon="-3.79259">
        <ele>231.9</ele>
        <time>2023-04-05T11:18:10Z</time>
      </trkpt>
      <trkpt lat="48.1384" lon="-3.79249">
        <ele>231.9</ele>
        <time>2023-04-05T11:18:11Z</time>
      </trkpt>
      <trkpt lat="48.1384" lon="-3.7924">
        <ele>231.9</ele>
        <time>2023-04-05T11:18:12Z</time>
      </trkpt>
      <trkpt lat="48.1384" lon="-3.7923">
        <ele>231.9</ele>
        <time>2023-04-05T11:18:13Z</time>
      </trkpt>
      <trkpt lat="48.1384" lon="-3.79221">
        <ele>231.9</ele>
        <time>2023-04-05T11:18:14Z</time>
      </trkpt>
      <trkpt lat="48.1384" lon="-3.79211">
        <ele>231.9</ele>
        <time>2023-04-05T11:18:15Z</time>
      </trkpt>
      <trkpt lat="48.13841" lon="-3.79202">
        <ele>231.9</ele>
        <time>2023-04-05T11:18:16Z</time>
      </trkpt>
      <trkpt lat="48.13841" lon="-3.79193">
        <ele>231.9</ele>
        <time>2023-04-05T11:18:17Z</time>
      </trkpt>
      <trkpt lat="48.13841" lon="-3.79184">
        <ele>231.9</ele>
        <time>2023-04-05T11:18:18Z</time>
      </trkpt>
      <trkpt lat="48.13841" lon="-3.79175">
        <ele>232</ele>
        <time>2023-04-05T11:18:19Z</time>
      </trkpt>
      <trkpt lat="48.13842" lon="-3.79166">
        <ele>232</ele>
        <time>2023-04-05T11:18:20Z</time>
      </trkpt>
      <trkpt lat="48.13842" lon="-3.79157">
        <ele>232</ele>
        <time>2023-04-05T11:18:21Z</time>
      </trkpt>
      <trkpt lat="48.13842" lon="-3.79147">
        <ele>232.1</ele>
        <time>2023-04-05T11:18:22Z</time>
      </trkpt>
      <trkpt lat="48.13842" lon="-3.79138">
        <ele>232.1</ele>
        <time>2023-04-05T11:18:23Z</time>
      </trkpt>
      <trkpt lat="48.13842" lon="-3.79129">
        <ele>232.2</ele>
        <time>2023-04-05T11:18:24Z</time>
      </trkpt>
      <trkpt lat="48.13843" lon="-3.7912">
        <ele>232.2</ele>
        <time>2023-04-05T11:18:25Z</time>
      </trkpt>
      <trkpt lat="48.13843" lon="-3.79112">
        <ele>232.1</ele>
        <time>2023-04-05T11:18:26Z</time>
      </trkpt>
      <trkpt lat="48.13844" lon="-3.79103">
        <ele>232.1</ele>
        <time>2023-04-05T11:18:27Z</time>
      </trkpt>
      <trkpt lat="48.13844" lon="-3.79094">
        <ele>232.1</ele>
        <time>2023-04-05T11:18:28Z</time>
      </trkpt>
      <trkpt lat="48.13844" lon="-3.79085">
        <ele>232.1</ele>
        <time>2023-04-05T11:18:29Z</time>
      </trkpt>
      <trkpt lat="48.13845" lon="-3.79076">
        <ele>232</ele>
        <time>2023-04-05T11:18:30Z</time>
      </trkpt>
      <trkpt lat="48.13845" lon="-3.79067">
        <ele>232</ele>
        <time>2023-04-05T11:18:31Z</time>
      </trkpt>
      <trkpt lat="48.13845" lon="-3.79058">
        <ele>232</ele>
        <time>2023-04-05T11:18:32Z</time>
      </trkpt>
      <trkpt lat="48.13845" lon="-3.79049">
        <ele>232</ele>
        <time>2023-04-05T11:18:33Z</time>
      </trkpt>
      <trkpt lat="48.13845" lon="-3.79039">
        <ele>232</ele>
        <time>2023-04-05T11:18:34Z</time>
      </trkpt>
      <trkpt lat="48.13845" lon="-3.79031">
        <ele>232.1</ele>
        <time>2023-04-05T11:18:35Z</time>
      </trkpt>
      <trkpt lat="48.13846" lon="-3.79022">
        <ele>232.1</ele>
        <time>2023-04-05T11:18:36Z</time>
      </trkpt>
      <trkpt lat="48.13846" lon="-3.79014">
        <ele>232.1</ele>
        <time>2023-04-05T11:18:37Z</time>
      </trkpt>
      <trkpt lat="48.13846" lon="-3.79005">
        <ele>232.1</ele>
        <time>2023-04-05T11:18:38Z</time>
      </trkpt>
      <trkpt lat="48.13846" lon="-3.78997">
        <ele>232.1</ele>
        <time>2023-04-05T11:18:39Z</time>
      </trkpt>
      <trkpt lat="48.13845" lon="-3.78988">
        <ele>232.1</ele>
        <time>2023-04-05T11:18:40Z</time>
      </trkpt>
      <trkpt lat="48.13846" lon="-3.78979">
        <ele>232.1</ele>
        <time>2023-04-05T11:18:41Z</time>
      </trkpt>
      <trkpt lat="48.13846" lon="-3.7897">
        <ele>232</ele>
        <time>2023-04-05T11:18:42Z</time>
      </trkpt>
      <trkpt lat="48.13846" lon="-3.78961">
        <ele>232</ele>
        <time>2023-04-05T11:18:43Z</time>
      </trkpt>
      <trkpt lat="48.13846" lon="-3.78952">
        <ele>232</ele>
        <time>2023-04-05T11:18:44Z</time>
      </trkpt>
      <trkpt lat="48.13846" lon="-3.78943">
        <ele>232</ele>
        <time>2023-04-05T11:18:45Z</time>
      </trkpt>
      <trkpt lat="48.13846" lon="-3.78934">
        <ele>232</ele>
        <time>2023-04-05T11:18:46Z</time>
      </trkpt>
      <trkpt lat="48.13846" lon="-3.78926">
        <ele>231.9</ele>
        <time>2023-04-05T11:18:47Z</time>
      </trkpt>
      <trkpt lat="48.13846" lon="-3.78917">
        <ele>231.9</ele>
        <time>2023-04-05T11:18:48Z</time>
      </trkpt>
      <trkpt lat="48.13846" lon="-3.78908">
        <ele>231.8</ele>
        <time>2023-04-05T11:18:49Z</time>
      </trkpt>
      <trkpt lat="48.13846" lon="-3.78899">
        <ele>231.8</ele>
        <time>2023-04-05T11:18:50Z</time>
      </trkpt>
      <trkpt lat="48.13846" lon="-3.78889">
        <ele>231.7</ele>
        <time>2023-04-05T11:18:51Z</time>
      </trkpt>
      <trkpt lat="48.13846" lon="-3.7888">
        <ele>231.6</ele>
        <time>2023-04-05T11:18:52Z</time>
      </trkpt>
      <trkpt lat="48.13846" lon="-3.7887">
        <ele>231.6</ele>
        <time>2023-04-05T11:18:53Z</time>
      </trkpt>
      <trkpt lat="48.13846" lon="-3.7886">
        <ele>231.5</ele>
        <time>2023-04-05T11:18:54Z</time>
      </trkpt>
      <trkpt lat="48.13846" lon="-3.78851">
        <ele>231.5</ele>
        <time>2023-04-05T11:18:55Z</time>
      </trkpt>
      <trkpt lat="48.13845" lon="-3.78841">
        <ele>231.4</ele>
        <time>2023-04-05T11:18:56Z</time>
      </trkpt>
      <trkpt lat="48.13844" lon="-3.78831">
        <ele>231.4</ele>
        <time>2023-04-05T11:18:57Z</time>
      </trkpt>
      <trkpt lat="48.13843" lon="-3.78821">
        <ele>231.4</ele>
        <time>2023-04-05T11:18:58Z</time>
      </trkpt>
      <trkpt lat="48.13842" lon="-3.78812">
        <ele>231.3</ele>
        <time>2023-04-05T11:18:59Z</time>
      </trkpt>
      <trkpt lat="48.13841" lon="-3.78802">
        <ele>231.3</ele>
        <time>2023-04-05T11:19:00Z</time>
      </trkpt>
      <trkpt lat="48.13839" lon="-3.78792">
        <ele>231.2</ele>
        <time>2023-04-05T11:19:01Z</time>
      </trkpt>
      <trkpt lat="48.13838" lon="-3.78782">
        <ele>231.1</ele>
        <time>2023-04-05T11:19:02Z</time>
      </trkpt>
      <trkpt lat="48.13836" lon="-3.78772">
        <ele>231.1</ele>
        <time>2023-04-05T11:19:03Z</time>
      </trkpt>
      <trkpt lat="48.13834" lon="-3.78762">
        <ele>231</ele>
        <time>2023-04-05T11:19:04Z</time>
      </trkpt>
      <trkpt lat="48.13832" lon="-3.78752">
        <ele>231</ele>
        <time>2023-04-05T11:19:05Z</time>
      </trkpt>
      <trkpt lat="48.1383" lon="-3.78742">
        <ele>230.9</ele>
        <time>2023-04-05T11:19:06Z</time>
      </trkpt>
      <trkpt lat="48.13827" lon="-3.78733">
        <ele>230.9</ele>
        <time>2023-04-05T11:19:07Z</time>
      </trkpt>
      <trkpt lat="48.13825" lon="-3.78723">
        <ele>230.8</ele>
        <time>2023-04-05T11:19:08Z</time>
      </trkpt>
      <trkpt lat="48.13822" lon="-3.78713">
        <ele>230.7</ele>
        <time>2023-04-05T11:19:09Z</time>
      </trkpt>
      <trkpt lat="48.1382" lon="-3.78704">
        <ele>230.6</ele>
        <time>2023-04-05T11:19:10Z</time>
      </trkpt>
      <trkpt lat="48.13817" lon="-3.78694">
        <ele>230.5</ele>
        <time>2023-04-05T11:19:11Z</time>
      </trkpt>
      <trkpt lat="48.13815" lon="-3.78685">
        <ele>230.3</ele>
        <time>2023-04-05T11:19:12Z</time>
      </trkpt>
      <trkpt lat="48.13812" lon="-3.78675">
        <ele>230.2</ele>
        <time>2023-04-05T11:19:13Z</time>
      </trkpt>
      <trkpt lat="48.13809" lon="-3.78665">
        <ele>230</ele>
        <time>2023-04-05T11:19:14Z</time>
      </trkpt>
      <trkpt lat="48.13806" lon="-3.78655">
        <ele>229.8</ele>
        <time>2023-04-05T11:19:15Z</time>
      </trkpt>
      <trkpt lat="48.13803" lon="-3.78646">
        <ele>229.6</ele>
        <time>2023-04-05T11:19:16Z</time>
      </trkpt>
      <trkpt lat="48.13799" lon="-3.78636">
        <ele>229.4</ele>
        <time>2023-04-05T11:19:17Z</time>
      </trkpt>
      <trkpt lat="48.13796" lon="-3.78626">
        <ele>229.2</ele>
        <time>2023-04-05T11:19:18Z</time>
      </trkpt>
      <trkpt lat="48.13793" lon="-3.78616">
        <ele>228.9</ele>
        <time>2023-04-05T11:19:19Z</time>
      </trkpt>
      <trkpt lat="48.13789" lon="-3.78605">
        <ele>228.7</ele>
        <time>2023-04-05T11:19:20Z</time>
      </trkpt>
      <trkpt lat="48.13786" lon="-3.78595">
        <ele>228.5</ele>
        <time>2023-04-05T11:19:21Z</time>
      </trkpt>
      <trkpt lat="48.13782" lon="-3.78584">
        <ele>228.2</ele>
        <time>2023-04-05T11:19:22Z</time>
      </trkpt>
      <trkpt lat="48.13778" lon="-3.78573">
        <ele>228</ele>
        <time>2023-04-05T11:19:23Z</time>
      </trkpt>
      <trkpt lat="48.13775" lon="-3.78563">
        <ele>227.7</ele>
        <time>2023-04-05T11:19:24Z</time>
      </trkpt>
      <trkpt lat="48.13771" lon="-3.78552">
        <ele>227.5</ele>
        <time>2023-04-05T11:19:25Z</time>
      </trkpt>
      <trkpt lat="48.13768" lon="-3.7854">
        <ele>227.3</ele>
        <time>2023-04-05T11:19:26Z</time>
      </trkpt>
      <trkpt lat="48.13765" lon="-3.78529">
        <ele>227.1</ele>
        <time>2023-04-05T11:19:27Z</time>
      </trkpt>
      <trkpt lat="48.13763" lon="-3.78517">
        <ele>226.8</ele>
        <time>2023-04-05T11:19:28Z</time>
      </trkpt>
      <trkpt lat="48.13761" lon="-3.78505">
        <ele>226.6</ele>
        <time>2023-04-05T11:19:29Z</time>
      </trkpt>
      <trkpt lat="48.1376" lon="-3.78493">
        <ele>226.4</ele>
        <time>2023-04-05T11:19:30Z</time>
      </trkpt>
      <trkpt lat="48.13759" lon="-3.78481">
        <ele>226.2</ele>
        <time>2023-04-05T11:19:31Z</time>
      </trkpt>
      <trkpt lat="48.13758" lon="-3.78469">
        <ele>226</ele>
        <time>2023-04-05T11:19:32Z</time>
      </trkpt>
      <trkpt lat="48.13758" lon="-3.78457">
        <ele>225.8</ele>
        <time>2023-04-05T11:19:33Z</time>
      </trkpt>
      <trkpt lat="48.13759" lon="-3.78444">
        <ele>225.6</ele>
        <time>2023-04-05T11:19:34Z</time>
      </trkpt>
      <trkpt lat="48.1376" lon="-3.78432">
        <ele>225.5</ele>
        <time>2023-04-05T11:19:35Z</time>
      </trkpt>
      <trkpt lat="48.13762" lon="-3.7842">
        <ele>225.3</ele>
        <time>2023-04-05T11:19:36Z</time>
      </trkpt>
      <trkpt lat="48.13764" lon="-3.78409">
        <ele>225.2</ele>
        <time>2023-04-05T11:19:37Z</time>
      </trkpt>
      <trkpt lat="48.13766" lon="-3.78397">
        <ele>225.1</ele>
        <time>2023-04-05T11:19:38Z</time>
      </trkpt>
      <trkpt lat="48.13769" lon="-3.78385">
        <ele>225.1</ele>
        <time>2023-04-05T11:19:39Z</time>
      </trkpt>
      <trkpt lat="48.13772" lon="-3.78374">
        <ele>225</ele>
        <time>2023-04-05T11:19:40Z</time>
      </trkpt>
      <trkpt lat="48.13775" lon="-3.78362">
        <ele>225</ele>
        <time>2023-04-05T11:19:41Z</time>
      </trkpt>
      <trkpt lat="48.13777" lon="-3.78351">
        <ele>225</ele>
        <time>2023-04-05T11:19:42Z</time>
      </trkpt>
      <trkpt lat="48.1378" lon="-3.78339">
        <ele>225</ele>
        <time>2023-04-05T11:19:43Z</time>
      </trkpt>
      <trkpt lat="48.13782" lon="-3.78328">
        <ele>225</ele>
        <time>2023-04-05T11:19:44Z</time>
      </trkpt>
      <trkpt lat="48.13785" lon="-3.78317">
        <ele>225</ele>
        <time>2023-04-05T11:19:45Z</time>
      </trkpt>
      <trkpt lat="48.13788" lon="-3.78306">
        <ele>225.1</ele>
        <time>2023-04-05T11:19:46Z</time>
      </trkpt>
      <trkpt lat="48.1379" lon="-3.78295">
        <ele>225.1</ele>
        <time>2023-04-05T11:19:47Z</time>
      </trkpt>
      <trkpt lat="48.13793" lon="-3.78283">
        <ele>225.1</ele>
        <time>2023-04-05T11:19:48Z</time>
      </trkpt>
      <trkpt lat="48.13795" lon="-3.78273">
        <ele>225.1</ele>
        <time>2023-04-05T11:19:49Z</time>
      </trkpt>
      <trkpt lat="48.13798" lon="-3.78263">
        <ele>225.2</ele>
        <time>2023-04-05T11:19:50Z</time>
      </trkpt>
      <trkpt lat="48.138" lon="-3.78253">
        <ele>225.2</ele>
        <time>2023-04-05T11:19:51Z</time>
      </trkpt>
      <trkpt lat="48.13803" lon="-3.78243">
        <ele>225.2</ele>
        <time>2023-04-05T11:19:52Z</time>
      </trkpt>
      <trkpt lat="48.13805" lon="-3.78233">
        <ele>225.3</ele>
        <time>2023-04-05T11:19:53Z</time>
      </trkpt>
      <trkpt lat="48.13808" lon="-3.78223">
        <ele>225.4</ele>
        <time>2023-04-05T11:19:54Z</time>
      </trkpt>
      <trkpt lat="48.1381" lon="-3.78213">
        <ele>225.5</ele>
        <time>2023-04-05T11:19:55Z</time>
      </trkpt>
      <trkpt lat="48.13812" lon="-3.78203">
        <ele>225.5</ele>
        <time>2023-04-05T11:19:56Z</time>
      </trkpt>
      <trkpt lat="48.13815" lon="-3.78193">
        <ele>225.5</ele>
        <time>2023-04-05T11:19:57Z</time>
      </trkpt>
      <trkpt lat="48.13817" lon="-3.78183">
        <ele>225.6</ele>
        <time>2023-04-05T11:19:58Z</time>
      </trkpt>
      <trkpt lat="48.1382" lon="-3.78174">
        <ele>225.6</ele>
        <time>2023-04-05T11:19:59Z</time>
      </trkpt>
      <trkpt lat="48.13822" lon="-3.78164">
        <ele>225.7</ele>
        <time>2023-04-05T11:20:00Z</time>
      </trkpt>
      <trkpt lat="48.13825" lon="-3.78154">
        <ele>225.8</ele>
        <time>2023-04-05T11:20:01Z</time>
      </trkpt>
      <trkpt lat="48.13827" lon="-3.78144">
        <ele>225.8</ele>
        <time>2023-04-05T11:20:02Z</time>
      </trkpt>
      <trkpt lat="48.13829" lon="-3.78134">
        <ele>225.9</ele>
        <time>2023-04-05T11:20:03Z</time>
      </trkpt>
      <trkpt lat="48.13832" lon="-3.78124">
        <ele>225.9</ele>
        <time>2023-04-05T11:20:04Z</time>
      </trkpt>
      <trkpt lat="48.13834" lon="-3.78115">
        <ele>225.9</ele>
        <time>2023-04-05T11:20:05Z</time>
      </trkpt>
      <trkpt lat="48.13836" lon="-3.78105">
        <ele>225.9</ele>
        <time>2023-04-05T11:20:06Z</time>
      </trkpt>
      <trkpt lat="48.13838" lon="-3.78096">
        <ele>225.9</ele>
        <time>2023-04-05T11:20:07Z</time>
      </trkpt>
      <trkpt lat="48.1384" lon="-3.78087">
        <ele>226</ele>
        <time>2023-04-05T11:20:08Z</time>
      </trkpt>
      <trkpt lat="48.13842" lon="-3.78077">
        <ele>226</ele>
        <time>2023-04-05T11:20:09Z</time>
      </trkpt>
      <trkpt lat="48.13844" lon="-3.78068">
        <ele>226</ele>
        <time>2023-04-05T11:20:10Z</time>
      </trkpt>
      <trkpt lat="48.13846" lon="-3.78058">
        <ele>226</ele>
        <time>2023-04-05T11:20:11Z</time>
      </trkpt>
      <trkpt lat="48.13848" lon="-3.78048">
        <ele>226.1</ele>
        <time>2023-04-05T11:20:12Z</time>
      </trkpt>
      <trkpt lat="48.1385" lon="-3.78038">
        <ele>226.1</ele>
        <time>2023-04-05T11:20:13Z</time>
      </trkpt>
      <trkpt lat="48.13851" lon="-3.78028">
        <ele>226.1</ele>
        <time>2023-04-05T11:20:14Z</time>
      </trkpt>
      <trkpt lat="48.13852" lon="-3.78018">
        <ele>226.1</ele>
        <time>2023-04-05T11:20:15Z</time>
      </trkpt>
      <trkpt lat="48.13854" lon="-3.78009">
        <ele>226.1</ele>
        <time>2023-04-05T11:20:16Z</time>
      </trkpt>
      <trkpt lat="48.13855" lon="-3.77999">
        <ele>226.2</ele>
        <time>2023-04-05T11:20:17Z</time>
      </trkpt>
      <trkpt lat="48.13855" lon="-3.7799">
        <ele>226.2</ele>
        <time>2023-04-05T11:20:18Z</time>
      </trkpt>
      <trkpt lat="48.13856" lon="-3.7798">
        <ele>226.2</ele>
        <time>2023-04-05T11:20:19Z</time>
      </trkpt>
      <trkpt lat="48.13856" lon="-3.77971">
        <ele>226.2</ele>
        <time>2023-04-05T11:20:20Z</time>
      </trkpt>
      <trkpt lat="48.13857" lon="-3.77962">
        <ele>226.2</ele>
        <time>2023-04-05T11:20:21Z</time>
      </trkpt>
      <trkpt lat="48.13857" lon="-3.77952">
        <ele>226.2</ele>
        <time>2023-04-05T11:20:22Z</time>
      </trkpt>
      <trkpt lat="48.13858" lon="-3.77943">
        <ele>226.2</ele>
        <time>2023-04-05T11:20:23Z</time>
      </trkpt>
      <trkpt lat="48.13859" lon="-3.77934">
        <ele>226.2</ele>
        <time>2023-04-05T11:20:24Z</time>
      </trkpt>
      <trkpt lat="48.1386" lon="-3.77925">
        <ele>226.3</ele>
        <time>2023-04-05T11:20:25Z</time>
      </trkpt>
      <trkpt lat="48.1386" lon="-3.77915">
        <ele>226.2</ele>
        <time>2023-04-05T11:20:26Z</time>
      </trkpt>
      <trkpt lat="48.1386" lon="-3.77906">
        <ele>226.1</ele>
        <time>2023-04-05T11:20:27Z</time>
      </trkpt>
      <trkpt lat="48.13861" lon="-3.77897">
        <ele>226.1</ele>
        <time>2023-04-05T11:20:28Z</time>
      </trkpt>
      <trkpt lat="48.13861" lon="-3.77887">
        <ele>226.2</ele>
        <time>2023-04-05T11:20:29Z</time>
      </trkpt>
      <trkpt lat="48.13862" lon="-3.77879">
        <ele>226.3</ele>
        <time>2023-04-05T11:20:30Z</time>
      </trkpt>
      <trkpt lat="48.13862" lon="-3.7787">
        <ele>226.3</ele>
        <time>2023-04-05T11:20:31Z</time>
      </trkpt>
      <trkpt lat="48.13863" lon="-3.77861">
        <ele>226.4</ele>
        <time>2023-04-05T11:20:32Z</time>
      </trkpt>
      <trkpt lat="48.13863" lon="-3.77852">
        <ele>226.5</ele>
        <time>2023-04-05T11:20:33Z</time>
      </trkpt>
      <trkpt lat="48.13864" lon="-3.77844">
        <ele>226.6</ele>
        <time>2023-04-05T11:20:34Z</time>
      </trkpt>
      <trkpt lat="48.13864" lon="-3.77835">
        <ele>226.7</ele>
        <time>2023-04-05T11:20:35Z</time>
      </trkpt>
      <trkpt lat="48.13864" lon="-3.77826">
        <ele>226.8</ele>
        <time>2023-04-05T11:20:36Z</time>
      </trkpt>
      <trkpt lat="48.13864" lon="-3.77818">
        <ele>226.8</ele>
        <time>2023-04-05T11:20:37Z</time>
      </trkpt>
      <trkpt lat="48.13865" lon="-3.77809">
        <ele>226.9</ele>
        <time>2023-04-05T11:20:38Z</time>
      </trkpt>
      <trkpt lat="48.13865" lon="-3.77802">
        <ele>227</ele>
        <time>2023-04-05T11:20:39Z</time>
      </trkpt>
      <trkpt lat="48.13865" lon="-3.77794">
        <ele>227</ele>
        <time>2023-04-05T11:20:40Z</time>
      </trkpt>
      <trkpt lat="48.13866" lon="-3.77787">
        <ele>227.1</ele>
        <time>2023-04-05T11:20:41Z</time>
      </trkpt>
      <trkpt lat="48.13866" lon="-3.77779">
        <ele>227.2</ele>
        <time>2023-04-05T11:20:42Z</time>
      </trkpt>
      <trkpt lat="48.13867" lon="-3.77772">
        <ele>227.3</ele>
        <time>2023-04-05T11:20:43Z</time>
      </trkpt>
      <trkpt lat="48.13867" lon="-3.77766">
        <ele>227.4</ele>
        <time>2023-04-05T11:20:44Z</time>
      </trkpt>
      <trkpt lat="48.13867" lon="-3.7776">
        <ele>227.4</ele>
        <time>2023-04-05T11:20:45Z</time>
      </trkpt>
      <trkpt lat="48.13868" lon="-3.77756">
        <ele>227.5</ele>
        <time>2023-04-05T11:20:46Z</time>
      </trkpt>
      <trkpt lat="48.13869" lon="-3.77749">
        <ele>227.6</ele>
        <time>2023-04-05T11:20:47Z</time>
      </trkpt>
      <trkpt lat="48.13871" lon="-3.77745">
        <ele>227.6</ele>
        <time>2023-04-05T11:20:48Z</time>
      </trkpt>
      <trkpt lat="48.13873" lon="-3.77741">
        <ele>227.7</ele>
        <time>2023-04-05T11:20:49Z</time>
      </trkpt>
      <trkpt lat="48.13873" lon="-3.7774">
        <ele>227.7</ele>
        <time>2023-04-05T11:20:50Z</time>
      </trkpt>
      <trkpt lat="48.13874" lon="-3.77737">
        <ele>227.7</ele>
        <time>2023-04-05T11:20:51Z</time>
      </trkpt>
      <trkpt lat="48.13875" lon="-3.77737">
        <ele>227.7</ele>
        <time>2023-04-05T11:20:53Z</time>
      </trkpt>
      <trkpt lat="48.13875" lon="-3.77738">
        <ele>227.7</ele>
        <time>2023-04-05T11:20:54Z</time>
      </trkpt>
      <trkpt lat="48.13875" lon="-3.77738">
        <ele>227.7</ele>
        <time>2023-04-05T11:20:55Z</time>
      </trkpt>
      <trkpt lat="48.13875" lon="-3.77738">
        <ele>227.7</ele>
        <time>2023-04-05T11:20:56Z</time>
      </trkpt>
      <trkpt lat="48.13875" lon="-3.77737">
        <ele>227.7</ele>
        <time>2023-04-05T11:20:57Z</time>
      </trkpt>
      <trkpt lat="48.13875" lon="-3.77738">
        <ele>227.7</ele>
        <time>2023-04-05T11:20:58Z</time>
      </trkpt>
      <trkpt lat="48.13875" lon="-3.77738">
        <ele>227.7</ele>
        <time>2023-04-05T11:20:59Z</time>
      </trkpt>
      <trkpt lat="48.13875" lon="-3.77737">
        <ele>227.7</ele>
        <time>2023-04-05T11:21:00Z</time>
      </trkpt>
      <trkpt lat="48.13875" lon="-3.77737">
        <ele>227.7</ele>
        <time>2023-04-05T11:21:01Z</time>
      </trkpt>
      <trkpt lat="48.13876" lon="-3.77738">
        <ele>227.7</ele>
        <time>2023-04-05T11:21:02Z</time>
      </trkpt>
      <trkpt lat="48.13875" lon="-3.77739">
        <ele>227.8</ele>
        <time>2023-04-05T11:21:03Z</time>
      </trkpt>
      <trkpt lat="48.13875" lon="-3.7774">
        <ele>227.8</ele>
        <time>2023-04-05T11:21:04Z</time>
      </trkpt>
      <trkpt lat="48.13873" lon="-3.77743">
        <ele>227.8</ele>
        <time>2023-04-05T11:21:05Z</time>
      </trkpt>
      <trkpt lat="48.13872" lon="-3.77745">
        <ele>227.8</ele>
        <time>2023-04-05T11:21:07Z</time>
      </trkpt>
      <trkpt lat="48.13872" lon="-3.77746">
        <ele>227.8</ele>
        <time>2023-04-05T11:21:08Z</time>
      </trkpt>
      <trkpt lat="48.13872" lon="-3.77747">
        <ele>227.8</ele>
        <time>2023-04-05T11:21:09Z</time>
      </trkpt>
      <trkpt lat="48.13872" lon="-3.77748">
        <ele>227.9</ele>
        <time>2023-04-05T11:21:10Z</time>
      </trkpt>
      <trkpt lat="48.13873" lon="-3.77748">
        <ele>227.9</ele>
        <time>2023-04-05T11:21:11Z</time>
      </trkpt>
      <trkpt lat="48.13873" lon="-3.77748">
        <ele>227.9</ele>
        <time>2023-04-05T11:21:12Z</time>
      </trkpt>
      <trkpt lat="48.13873" lon="-3.77748">
        <ele>227.9</ele>
        <time>2023-04-05T11:21:14Z</time>
      </trkpt>
      <trkpt lat="48.13873" lon="-3.77748">
        <ele>227.9</ele>
        <time>2023-04-05T11:21:15Z</time>
      </trkpt>
      <trkpt lat="48.13874" lon="-3.77748">
        <ele>227.9</ele>
        <time>2023-04-05T11:21:16Z</time>
      </trkpt>
      <trkpt lat="48.13874" lon="-3.77748">
        <ele>227.9</ele>
        <time>2023-04-05T11:21:18Z</time>
      </trkpt>
      <trkpt lat="48.13874" lon="-3.7774">
        <ele>227.9</ele>
        <time>2023-04-05T11:21:39Z</time>
      </trkpt>
      <trkpt lat="48.13874" lon="-3.77739">
        <ele>228</ele>
        <time>2023-04-05T11:21:40Z</time>
      </trkpt>
      <trkpt lat="48.13875" lon="-3.77737">
        <ele>228</ele>
        <time>2023-04-05T11:21:42Z</time>
      </trkpt>
      <trkpt lat="48.13875" lon="-3.77737">
        <ele>228</ele>
        <time>2023-04-05T11:21:43Z</time>
      </trkpt>
      <trkpt lat="48.13875" lon="-3.77737">
        <ele>228</ele>
        <time>2023-04-05T11:21:44Z</time>
      </trkpt>
      <trkpt lat="48.13875" lon="-3.77737">
        <ele>228</ele>
        <time>2023-04-05T11:21:45Z</time>
      </trkpt>
      <trkpt lat="48.13874" lon="-3.77737">
        <ele>228</ele>
        <time>2023-04-05T11:21:46Z</time>
      </trkpt>
      <trkpt lat="48.13874" lon="-3.77737">
        <ele>228</ele>
        <time>2023-04-05T11:21:47Z</time>
      </trkpt>
      <trkpt lat="48.13874" lon="-3.77737">
        <ele>228</ele>
        <time>2023-04-05T11:21:48Z</time>
      </trkpt>
      <trkpt lat="48.13874" lon="-3.77737">
        <ele>228</ele>
        <time>2023-04-05T11:21:49Z</time>
      </trkpt>
      <trkpt lat="48.13874" lon="-3.77737">
        <ele>228</ele>
        <time>2023-04-05T11:21:50Z</time>
      </trkpt>
      <trkpt lat="48.13874" lon="-3.77738">
        <ele>228</ele>
        <time>2023-04-05T11:21:51Z</time>
      </trkpt>
      <trkpt lat="48.13874" lon="-3.77738">
        <ele>228</ele>
        <time>2023-04-05T11:21:52Z</time>
      </trkpt>
      <trkpt lat="48.13874" lon="-3.77738">
        <ele>228</ele>
        <time>2023-04-05T11:21:53Z</time>
      </trkpt>
      <trkpt lat="48.13873" lon="-3.77736">
        <ele>228.1</ele>
        <time>2023-04-05T11:22:04Z</time>
      </trkpt>
      <trkpt lat="48.13872" lon="-3.77735">
        <ele>228.1</ele>
        <time>2023-04-05T11:22:05Z</time>
      </trkpt>
      <trkpt lat="48.13872" lon="-3.77735">
        <ele>228.1</ele>
        <time>2023-04-05T11:22:06Z</time>
      </trkpt>
      <trkpt lat="48.13871" lon="-3.77734">
        <ele>228.1</ele>
        <time>2023-04-05T11:22:07Z</time>
      </trkpt>
      <trkpt lat="48.1387" lon="-3.77733">
        <ele>228.1</ele>
        <time>2023-04-05T11:22:08Z</time>
      </trkpt>
      <trkpt lat="48.13869" lon="-3.77731">
        <ele>228.1</ele>
        <time>2023-04-05T11:22:09Z</time>
      </trkpt>
      <trkpt lat="48.13868" lon="-3.77729">
        <ele>228.2</ele>
        <time>2023-04-05T11:22:10Z</time>
      </trkpt>
      <trkpt lat="48.13868" lon="-3.77725">
        <ele>228.2</ele>
        <time>2023-04-05T11:22:11Z</time>
      </trkpt>
      <trkpt lat="48.13868" lon="-3.77723">
        <ele>228.2</ele>
        <time>2023-04-05T11:22:12Z</time>
      </trkpt>
      <trkpt lat="48.13868" lon="-3.77719">
        <ele>228.3</ele>
        <time>2023-04-05T11:22:13Z</time>
      </trkpt>
      <trkpt lat="48.13868" lon="-3.77714">
        <ele>228.3</ele>
        <time>2023-04-05T11:22:14Z</time>
      </trkpt>
      <trkpt lat="48.13868" lon="-3.77709">
        <ele>228.4</ele>
        <time>2023-04-05T11:22:15Z</time>
      </trkpt>
      <trkpt lat="48.13869" lon="-3.77703">
        <ele>228.5</ele>
        <time>2023-04-05T11:22:16Z</time>
      </trkpt>
      <trkpt lat="48.13869" lon="-3.77698">
        <ele>228.5</ele>
        <time>2023-04-05T11:22:17Z</time>
      </trkpt>
      <trkpt lat="48.1387" lon="-3.77692">
        <ele>228.6</ele>
        <time>2023-04-05T11:22:18Z</time>
      </trkpt>
      <trkpt lat="48.1387" lon="-3.77687">
        <ele>228.6</ele>
        <time>2023-04-05T11:22:19Z</time>
      </trkpt>
      <trkpt lat="48.13871" lon="-3.77681">
        <ele>228.7</ele>
        <time>2023-04-05T11:22:20Z</time>
      </trkpt>
      <trkpt lat="48.13871" lon="-3.77676">
        <ele>228.8</ele>
        <time>2023-04-05T11:22:21Z</time>
      </trkpt>
      <trkpt lat="48.13871" lon="-3.7767">
        <ele>228.9</ele>
        <time>2023-04-05T11:22:22Z</time>
      </trkpt>
      <trkpt lat="48.13871" lon="-3.77663">
        <ele>228.9</ele>
        <time>2023-04-05T11:22:23Z</time>
      </trkpt>
      <trkpt lat="48.13872" lon="-3.77659">
        <ele>229</ele>
        <time>2023-04-05T11:22:24Z</time>
      </trkpt>
      <trkpt lat="48.13871" lon="-3.77653">
        <ele>229.1</ele>
        <time>2023-04-05T11:22:25Z</time>
      </trkpt>
      <trkpt lat="48.13871" lon="-3.77647">
        <ele>229.2</ele>
        <time>2023-04-05T11:22:26Z</time>
      </trkpt>
      <trkpt lat="48.13872" lon="-3.77639">
        <ele>229.3</ele>
        <time>2023-04-05T11:22:27Z</time>
      </trkpt>
      <trkpt lat="48.13873" lon="-3.77633">
        <ele>229.4</ele>
        <time>2023-04-05T11:22:28Z</time>
      </trkpt>
      <trkpt lat="48.13873" lon="-3.77627">
        <ele>229.5</ele>
        <time>2023-04-05T11:22:29Z</time>
      </trkpt>
      <trkpt lat="48.13872" lon="-3.77621">
        <ele>229.6</ele>
        <time>2023-04-05T11:22:30Z</time>
      </trkpt>
      <trkpt lat="48.13873" lon="-3.77614">
        <ele>229.7</ele>
        <time>2023-04-05T11:22:31Z</time>
      </trkpt>
      <trkpt lat="48.13873" lon="-3.77607">
        <ele>229.8</ele>
        <time>2023-04-05T11:22:32Z</time>
      </trkpt>
      <trkpt lat="48.13873" lon="-3.776">
        <ele>229.9</ele>
        <time>2023-04-05T11:22:33Z</time>
      </trkpt>
      <trkpt lat="48.13874" lon="-3.77593">
        <ele>229.9</ele>
        <time>2023-04-05T11:22:34Z</time>
      </trkpt>
      <trkpt lat="48.13874" lon="-3.77585">
        <ele>230</ele>
        <time>2023-04-05T11:22:35Z</time>
      </trkpt>
      <trkpt lat="48.13874" lon="-3.77578">
        <ele>230</ele>
        <time>2023-04-05T11:22:36Z</time>
      </trkpt>
      <trkpt lat="48.13875" lon="-3.77571">
        <ele>230.1</ele>
        <time>2023-04-05T11:22:37Z</time>
      </trkpt>
      <trkpt lat="48.13875" lon="-3.77563">
        <ele>230.2</ele>
        <time>2023-04-05T11:22:38Z</time>
      </trkpt>
      <trkpt lat="48.13875" lon="-3.77555">
        <ele>230.2</ele>
        <time>2023-04-05T11:22:39Z</time>
      </trkpt>
      <trkpt lat="48.13875" lon="-3.77548">
        <ele>230.2</ele>
        <time>2023-04-05T11:22:40Z</time>
      </trkpt>
      <trkpt lat="48.13875" lon="-3.7754">
        <ele>230.3</ele>
        <time>2023-04-05T11:22:41Z</time>
      </trkpt>
      <trkpt lat="48.13876" lon="-3.77532">
        <ele>230.3</ele>
        <time>2023-04-05T11:22:42Z</time>
      </trkpt>
      <trkpt lat="48.13876" lon="-3.77524">
        <ele>230.4</ele>
        <time>2023-04-05T11:22:43Z</time>
      </trkpt>
      <trkpt lat="48.13876" lon="-3.77516">
        <ele>230.4</ele>
        <time>2023-04-05T11:22:44Z</time>
      </trkpt>
      <trkpt lat="48.13876" lon="-3.77507">
        <ele>230.4</ele>
        <time>2023-04-05T11:22:45Z</time>
      </trkpt>
      <trkpt lat="48.13877" lon="-3.77499">
        <ele>230.4</ele>
        <time>2023-04-05T11:22:46Z</time>
      </trkpt>
      <trkpt lat="48.13877" lon="-3.7749">
        <ele>230.4</ele>
        <time>2023-04-05T11:22:47Z</time>
      </trkpt>
      <trkpt lat="48.13877" lon="-3.77482">
        <ele>230.4</ele>
        <time>2023-04-05T11:22:48Z</time>
      </trkpt>
      <trkpt lat="48.13878" lon="-3.77473">
        <ele>230.4</ele>
        <time>2023-04-05T11:22:49Z</time>
      </trkpt>
      <trkpt lat="48.13878" lon="-3.77465">
        <ele>230.4</ele>
        <time>2023-04-05T11:22:50Z</time>
      </trkpt>
      <trkpt lat="48.13879" lon="-3.77456">
        <ele>230.4</ele>
        <time>2023-04-05T11:22:51Z</time>
      </trkpt>
      <trkpt lat="48.13879" lon="-3.77448">
        <ele>230.4</ele>
        <time>2023-04-05T11:22:52Z</time>
      </trkpt>
      <trkpt lat="48.13879" lon="-3.77439">
        <ele>230.5</ele>
        <time>2023-04-05T11:22:53Z</time>
      </trkpt>
      <trkpt lat="48.1388" lon="-3.7743">
        <ele>230.5</ele>
        <time>2023-04-05T11:22:54Z</time>
      </trkpt>
      <trkpt lat="48.1388" lon="-3.77422">
        <ele>230.5</ele>
        <time>2023-04-05T11:22:55Z</time>
      </trkpt>
      <trkpt lat="48.13881" lon="-3.77413">
        <ele>230.5</ele>
        <time>2023-04-05T11:22:56Z</time>
      </trkpt>
      <trkpt lat="48.13881" lon="-3.77404">
        <ele>230.5</ele>
        <time>2023-04-05T11:22:57Z</time>
      </trkpt>
      <trkpt lat="48.13881" lon="-3.77395">
        <ele>230.5</ele>
        <time>2023-04-05T11:22:58Z</time>
      </trkpt>
      <trkpt lat="48.13881" lon="-3.77386">
        <ele>230.5</ele>
        <time>2023-04-05T11:22:59Z</time>
      </trkpt>
      <trkpt lat="48.13882" lon="-3.77377">
        <ele>230.5</ele>
        <time>2023-04-05T11:23:00Z</time>
      </trkpt>
      <trkpt lat="48.13882" lon="-3.77369">
        <ele>230.5</ele>
        <time>2023-04-05T11:23:01Z</time>
      </trkpt>
      <trkpt lat="48.13882" lon="-3.7736">
        <ele>230.5</ele>
        <time>2023-04-05T11:23:02Z</time>
      </trkpt>
      <trkpt lat="48.13883" lon="-3.77352">
        <ele>230.5</ele>
        <time>2023-04-05T11:23:03Z</time>
      </trkpt>
      <trkpt lat="48.13884" lon="-3.77343">
        <ele>230.5</ele>
        <time>2023-04-05T11:23:04Z</time>
      </trkpt>
      <trkpt lat="48.13884" lon="-3.77334">
        <ele>230.5</ele>
        <time>2023-04-05T11:23:05Z</time>
      </trkpt>
      <trkpt lat="48.13885" lon="-3.77325">
        <ele>230.5</ele>
        <time>2023-04-05T11:23:06Z</time>
      </trkpt>
      <trkpt lat="48.13886" lon="-3.77316">
        <ele>230.5</ele>
        <time>2023-04-05T11:23:07Z</time>
      </trkpt>
      <trkpt lat="48.13887" lon="-3.77307">
        <ele>230.5</ele>
        <time>2023-04-05T11:23:08Z</time>
      </trkpt>
      <trkpt lat="48.13888" lon="-3.77297">
        <ele>230.5</ele>
        <time>2023-04-05T11:23:09Z</time>
      </trkpt>
      <trkpt lat="48.1389" lon="-3.77288">
        <ele>230.5</ele>
        <time>2023-04-05T11:23:10Z</time>
      </trkpt>
      <trkpt lat="48.13892" lon="-3.77279">
        <ele>230.5</ele>
        <time>2023-04-05T11:23:11Z</time>
      </trkpt>
      <trkpt lat="48.13894" lon="-3.7727">
        <ele>230.4</ele>
        <time>2023-04-05T11:23:12Z</time>
      </trkpt>
      <trkpt lat="48.13895" lon="-3.77261">
        <ele>230.3</ele>
        <time>2023-04-05T11:23:13Z</time>
      </trkpt>
      <trkpt lat="48.13896" lon="-3.77251">
        <ele>230.2</ele>
        <time>2023-04-05T11:23:14Z</time>
      </trkpt>
      <trkpt lat="48.13897" lon="-3.77241">
        <ele>230</ele>
        <time>2023-04-05T11:23:15Z</time>
      </trkpt>
      <trkpt lat="48.13899" lon="-3.77232">
        <ele>229.9</ele>
        <time>2023-04-05T11:23:16Z</time>
      </trkpt>
      <trkpt lat="48.13901" lon="-3.77222">
        <ele>229.7</ele>
        <time>2023-04-05T11:23:17Z</time>
      </trkpt>
      <trkpt lat="48.13902" lon="-3.77213">
        <ele>229.6</ele>
        <time>2023-04-05T11:23:18Z</time>
      </trkpt>
      <trkpt lat="48.13905" lon="-3.77203">
        <ele>229.5</ele>
        <time>2023-04-05T11:23:19Z</time>
      </trkpt>
      <trkpt lat="48.13908" lon="-3.77195">
        <ele>229.4</ele>
        <time>2023-04-05T11:23:20Z</time>
      </trkpt>
      <trkpt lat="48.1391" lon="-3.77185">
        <ele>229.3</ele>
        <time>2023-04-05T11:23:21Z</time>
      </trkpt>
      <trkpt lat="48.13912" lon="-3.77176">
        <ele>229.2</ele>
        <time>2023-04-05T11:23:22Z</time>
      </trkpt>
      <trkpt lat="48.13915" lon="-3.77167">
        <ele>229</ele>
        <time>2023-04-05T11:23:23Z</time>
      </trkpt>
      <trkpt lat="48.13916" lon="-3.77157">
        <ele>228.9</ele>
        <time>2023-04-05T11:23:24Z</time>
      </trkpt>
      <trkpt lat="48.13917" lon="-3.77147">
        <ele>228.8</ele>
        <time>2023-04-05T11:23:25Z</time>
      </trkpt>
      <trkpt lat="48.13918" lon="-3.77138">
        <ele>228.6</ele>
        <time>2023-04-05T11:23:26Z</time>
      </trkpt>
      <trkpt lat="48.13919" lon="-3.77128">
        <ele>228.5</ele>
        <time>2023-04-05T11:23:27Z</time>
      </trkpt>
      <trkpt lat="48.13921" lon="-3.77117">
        <ele>228.3</ele>
        <time>2023-04-05T11:23:28Z</time>
      </trkpt>
      <trkpt lat="48.13923" lon="-3.77107">
        <ele>228</ele>
        <time>2023-04-05T11:23:29Z</time>
      </trkpt>
      <trkpt lat="48.13924" lon="-3.77097">
        <ele>227.8</ele>
        <time>2023-04-05T11:23:30Z</time>
      </trkpt>
      <trkpt lat="48.13926" lon="-3.77086">
        <ele>227.6</ele>
        <time>2023-04-05T11:23:31Z</time>
      </trkpt>
      <trkpt lat="48.13927" lon="-3.77076">
        <ele>227.4</ele>
        <time>2023-04-05T11:23:32Z</time>
      </trkpt>
      <trkpt lat="48.13928" lon="-3.77065">
        <ele>227.2</ele>
        <time>2023-04-05T11:23:33Z</time>
      </trkpt>
      <trkpt lat="48.13929" lon="-3.77055">
        <ele>226.9</ele>
        <time>2023-04-05T11:23:34Z</time>
      </trkpt>
      <trkpt lat="48.1393" lon="-3.77043">
        <ele>226.6</ele>
        <time>2023-04-05T11:23:35Z</time>
      </trkpt>
      <trkpt lat="48.13932" lon="-3.77032">
        <ele>226.3</ele>
        <time>2023-04-05T11:23:36Z</time>
      </trkpt>
      <trkpt lat="48.13934" lon="-3.77021">
        <ele>226</ele>
        <time>2023-04-05T11:23:37Z</time>
      </trkpt>
      <trkpt lat="48.13936" lon="-3.7701">
        <ele>225.6</ele>
        <time>2023-04-05T11:23:38Z</time>
      </trkpt>
      <trkpt lat="48.13938" lon="-3.76999">
        <ele>225.3</ele>
        <time>2023-04-05T11:23:39Z</time>
      </trkpt>
      <trkpt lat="48.13941" lon="-3.76988">
        <ele>224.9</ele>
        <time>2023-04-05T11:23:40Z</time>
      </trkpt>
      <trkpt lat="48.13942" lon="-3.76976">
        <ele>224.5</ele>
        <time>2023-04-05T11:23:41Z</time>
      </trkpt>
      <trkpt lat="48.13945" lon="-3.76963">
        <ele>224.1</ele>
        <time>2023-04-05T11:23:42Z</time>
      </trkpt>
      <trkpt lat="48.13947" lon="-3.76952">
        <ele>223.8</ele>
        <time>2023-04-05T11:23:43Z</time>
      </trkpt>
      <trkpt lat="48.13951" lon="-3.7694">
        <ele>223.3</ele>
        <time>2023-04-05T11:23:44Z</time>
      </trkpt>
      <trkpt lat="48.13954" lon="-3.76927">
        <ele>222.9</ele>
        <time>2023-04-05T11:23:45Z</time>
      </trkpt>
      <trkpt lat="48.13957" lon="-3.76915">
        <ele>222.4</ele>
        <time>2023-04-05T11:23:46Z</time>
      </trkpt>
      <trkpt lat="48.13961" lon="-3.76902">
        <ele>221.8</ele>
        <time>2023-04-05T11:23:47Z</time>
      </trkpt>
      <trkpt lat="48.13966" lon="-3.76889">
        <ele>221.3</ele>
        <time>2023-04-05T11:23:48Z</time>
      </trkpt>
      <trkpt lat="48.13971" lon="-3.76875">
        <ele>220.7</ele>
        <time>2023-04-05T11:23:49Z</time>
      </trkpt>
      <trkpt lat="48.13977" lon="-3.76863">
        <ele>220.1</ele>
        <time>2023-04-05T11:23:50Z</time>
      </trkpt>
      <trkpt lat="48.13982" lon="-3.7685">
        <ele>219.4</ele>
        <time>2023-04-05T11:23:51Z</time>
      </trkpt>
      <trkpt lat="48.13988" lon="-3.76836">
        <ele>218.7</ele>
        <time>2023-04-05T11:23:52Z</time>
      </trkpt>
      <trkpt lat="48.13993" lon="-3.76823">
        <ele>218</ele>
        <time>2023-04-05T11:23:53Z</time>
      </trkpt>
      <trkpt lat="48.13998" lon="-3.7681">
        <ele>217.3</ele>
        <time>2023-04-05T11:23:54Z</time>
      </trkpt>
      <trkpt lat="48.14003" lon="-3.76796">
        <ele>216.7</ele>
        <time>2023-04-05T11:23:55Z</time>
      </trkpt>
      <trkpt lat="48.14008" lon="-3.76782">
        <ele>215.9</ele>
        <time>2023-04-05T11:23:56Z</time>
      </trkpt>
      <trkpt lat="48.14012" lon="-3.76767">
        <ele>215.1</ele>
        <time>2023-04-05T11:23:57Z</time>
      </trkpt>
      <trkpt lat="48.14017" lon="-3.76752">
        <ele>214.3</ele>
        <time>2023-04-05T11:23:58Z</time>
      </trkpt>
      <trkpt lat="48.14021" lon="-3.76736">
        <ele>213.5</ele>
        <time>2023-04-05T11:23:59Z</time>
      </trkpt>
      <trkpt lat="48.14025" lon="-3.76719">
        <ele>212.6</ele>
        <time>2023-04-05T11:24:00Z</time>
      </trkpt>
      <trkpt lat="48.14028" lon="-3.76702">
        <ele>211.8</ele>
        <time>2023-04-05T11:24:01Z</time>
      </trkpt>
      <trkpt lat="48.14031" lon="-3.76685">
        <ele>210.9</ele>
        <time>2023-04-05T11:24:02Z</time>
      </trkpt>
      <trkpt lat="48.14034" lon="-3.76667">
        <ele>210.2</ele>
        <time>2023-04-05T11:24:03Z</time>
      </trkpt>
      <trkpt lat="48.14037" lon="-3.7665">
        <ele>209.4</ele>
        <time>2023-04-05T11:24:04Z</time>
      </trkpt>
      <trkpt lat="48.14041" lon="-3.76634">
        <ele>208.8</ele>
        <time>2023-04-05T11:24:05Z</time>
      </trkpt>
      <trkpt lat="48.14046" lon="-3.76618">
        <ele>208.2</ele>
        <time>2023-04-05T11:24:06Z</time>
      </trkpt>
      <trkpt lat="48.14052" lon="-3.76601">
        <ele>207.6</ele>
        <time>2023-04-05T11:24:07Z</time>
      </trkpt>
      <trkpt lat="48.14058" lon="-3.76587">
        <ele>207.1</ele>
        <time>2023-04-05T11:24:08Z</time>
      </trkpt>
      <trkpt lat="48.14064" lon="-3.76573">
        <ele>206.7</ele>
        <time>2023-04-05T11:24:09Z</time>
      </trkpt>
      <trkpt lat="48.14071" lon="-3.76559">
        <ele>206.3</ele>
        <time>2023-04-05T11:24:10Z</time>
      </trkpt>
      <trkpt lat="48.14076" lon="-3.76545">
        <ele>206</ele>
        <time>2023-04-05T11:24:11Z</time>
      </trkpt>
      <trkpt lat="48.14082" lon="-3.76531">
        <ele>205.7</ele>
        <time>2023-04-05T11:24:12Z</time>
      </trkpt>
      <trkpt lat="48.14087" lon="-3.76517">
        <ele>205.5</ele>
        <time>2023-04-05T11:24:13Z</time>
      </trkpt>
      <trkpt lat="48.14091" lon="-3.76504">
        <ele>205.4</ele>
        <time>2023-04-05T11:24:14Z</time>
      </trkpt>
      <trkpt lat="48.14095" lon="-3.7649">
        <ele>205.4</ele>
        <time>2023-04-05T11:24:15Z</time>
      </trkpt>
      <trkpt lat="48.14098" lon="-3.76477">
        <ele>205.4</ele>
        <time>2023-04-05T11:24:16Z</time>
      </trkpt>
      <trkpt lat="48.141" lon="-3.76463">
        <ele>205.5</ele>
        <time>2023-04-05T11:24:17Z</time>
      </trkpt>
      <trkpt lat="48.14103" lon="-3.7645">
        <ele>205.5</ele>
        <time>2023-04-05T11:24:18Z</time>
      </trkpt>
      <trkpt lat="48.14105" lon="-3.76437">
        <ele>205.6</ele>
        <time>2023-04-05T11:24:19Z</time>
      </trkpt>
      <trkpt lat="48.14106" lon="-3.76425">
        <ele>205.6</ele>
        <time>2023-04-05T11:24:20Z</time>
      </trkpt>
      <trkpt lat="48.14107" lon="-3.76413">
        <ele>205.7</ele>
        <time>2023-04-05T11:24:21Z</time>
      </trkpt>
      <trkpt lat="48.14108" lon="-3.76401">
        <ele>205.7</ele>
        <time>2023-04-05T11:24:22Z</time>
      </trkpt>
      <trkpt lat="48.14108" lon="-3.76389">
        <ele>205.9</ele>
        <time>2023-04-05T11:24:23Z</time>
      </trkpt>
      <trkpt lat="48.14109" lon="-3.76377">
        <ele>206</ele>
        <time>2023-04-05T11:24:24Z</time>
      </trkpt>
      <trkpt lat="48.14109" lon="-3.76366">
        <ele>206.2</ele>
        <time>2023-04-05T11:24:25Z</time>
      </trkpt>
      <trkpt lat="48.14109" lon="-3.76354">
        <ele>206.3</ele>
        <time>2023-04-05T11:24:26Z</time>
      </trkpt>
      <trkpt lat="48.14109" lon="-3.76344">
        <ele>206.5</ele>
        <time>2023-04-05T11:24:27Z</time>
      </trkpt>
      <trkpt lat="48.14109" lon="-3.76333">
        <ele>206.7</ele>
        <time>2023-04-05T11:24:28Z</time>
      </trkpt>
      <trkpt lat="48.14109" lon="-3.76322">
        <ele>206.8</ele>
        <time>2023-04-05T11:24:29Z</time>
      </trkpt>
      <trkpt lat="48.1411" lon="-3.76311">
        <ele>207</ele>
        <time>2023-04-05T11:24:30Z</time>
      </trkpt>
      <trkpt lat="48.1411" lon="-3.76301">
        <ele>207.1</ele>
        <time>2023-04-05T11:24:31Z</time>
      </trkpt>
      <trkpt lat="48.1411" lon="-3.76291">
        <ele>207.3</ele>
        <time>2023-04-05T11:24:32Z</time>
      </trkpt>
      <trkpt lat="48.1411" lon="-3.76281">
        <ele>207.4</ele>
        <time>2023-04-05T11:24:33Z</time>
      </trkpt>
      <trkpt lat="48.1411" lon="-3.76271">
        <ele>207.5</ele>
        <time>2023-04-05T11:24:34Z</time>
      </trkpt>
      <trkpt lat="48.14111" lon="-3.76261">
        <ele>207.7</ele>
        <time>2023-04-05T11:24:35Z</time>
      </trkpt>
      <trkpt lat="48.14111" lon="-3.7625">
        <ele>207.8</ele>
        <time>2023-04-05T11:24:36Z</time>
      </trkpt>
      <trkpt lat="48.14111" lon="-3.7624">
        <ele>208</ele>
        <time>2023-04-05T11:24:37Z</time>
      </trkpt>
      <trkpt lat="48.14111" lon="-3.76231">
        <ele>208.1</ele>
        <time>2023-04-05T11:24:38Z</time>
      </trkpt>
      <trkpt lat="48.14111" lon="-3.7622">
        <ele>208.3</ele>
        <time>2023-04-05T11:24:39Z</time>
      </trkpt>
      <trkpt lat="48.14111" lon="-3.7621">
        <ele>208.5</ele>
        <time>2023-04-05T11:24:40Z</time>
      </trkpt>
      <trkpt lat="48.14111" lon="-3.76201">
        <ele>208.6</ele>
        <time>2023-04-05T11:24:41Z</time>
      </trkpt>
      <trkpt lat="48.14112" lon="-3.76191">
        <ele>208.8</ele>
        <time>2023-04-05T11:24:42Z</time>
      </trkpt>
      <trkpt lat="48.14112" lon="-3.76182">
        <ele>209</ele>
        <time>2023-04-05T11:24:43Z</time>
      </trkpt>
      <trkpt lat="48.14112" lon="-3.76173">
        <ele>209.2</ele>
        <time>2023-04-05T11:24:44Z</time>
      </trkpt>
      <trkpt lat="48.14112" lon="-3.76163">
        <ele>209.5</ele>
        <time>2023-04-05T11:24:45Z</time>
      </trkpt>
      <trkpt lat="48.14113" lon="-3.76155">
        <ele>209.7</ele>
        <time>2023-04-05T11:24:46Z</time>
      </trkpt>
      <trkpt lat="48.14113" lon="-3.76146">
        <ele>209.9</ele>
        <time>2023-04-05T11:24:47Z</time>
      </trkpt>
      <trkpt lat="48.14114" lon="-3.76137">
        <ele>210.2</ele>
        <time>2023-04-05T11:24:48Z</time>
      </trkpt>
      <trkpt lat="48.14114" lon="-3.76129">
        <ele>210.4</ele>
        <time>2023-04-05T11:24:49Z</time>
      </trkpt>
      <trkpt lat="48.14114" lon="-3.76121">
        <ele>210.6</ele>
        <time>2023-04-05T11:24:50Z</time>
      </trkpt>
      <trkpt lat="48.14114" lon="-3.76113">
        <ele>210.8</ele>
        <time>2023-04-05T11:24:51Z</time>
      </trkpt>
      <trkpt lat="48.14114" lon="-3.76105">
        <ele>211.1</ele>
        <time>2023-04-05T11:24:52Z</time>
      </trkpt>
      <trkpt lat="48.14114" lon="-3.76097">
        <ele>211.3</ele>
        <time>2023-04-05T11:24:53Z</time>
      </trkpt>
      <trkpt lat="48.14114" lon="-3.7609">
        <ele>211.6</ele>
        <time>2023-04-05T11:24:54Z</time>
      </trkpt>
      <trkpt lat="48.14114" lon="-3.76082">
        <ele>211.9</ele>
        <time>2023-04-05T11:24:55Z</time>
      </trkpt>
      <trkpt lat="48.14114" lon="-3.76075">
        <ele>212</ele>
        <time>2023-04-05T11:24:56Z</time>
      </trkpt>
      <trkpt lat="48.14114" lon="-3.76067">
        <ele>212.2</ele>
        <time>2023-04-05T11:24:57Z</time>
      </trkpt>
      <trkpt lat="48.14115" lon="-3.7606">
        <ele>212.3</ele>
        <time>2023-04-05T11:24:58Z</time>
      </trkpt>
      <trkpt lat="48.14115" lon="-3.76053">
        <ele>212.5</ele>
        <time>2023-04-05T11:24:59Z</time>
      </trkpt>
      <trkpt lat="48.14116" lon="-3.76046">
        <ele>212.6</ele>
        <time>2023-04-05T11:25:00Z</time>
      </trkpt>
      <trkpt lat="48.14117" lon="-3.76039">
        <ele>212.8</ele>
        <time>2023-04-05T11:25:01Z</time>
      </trkpt>
      <trkpt lat="48.14118" lon="-3.76032">
        <ele>212.9</ele>
        <time>2023-04-05T11:25:02Z</time>
      </trkpt>
      <trkpt lat="48.14118" lon="-3.76025">
        <ele>213.1</ele>
        <time>2023-04-05T11:25:03Z</time>
      </trkpt>
      <trkpt lat="48.14119" lon="-3.76018">
        <ele>213.2</ele>
        <time>2023-04-05T11:25:04Z</time>
      </trkpt>
      <trkpt lat="48.1412" lon="-3.76011">
        <ele>213.4</ele>
        <time>2023-04-05T11:25:05Z</time>
      </trkpt>
      <trkpt lat="48.14121" lon="-3.76004">
        <ele>213.5</ele>
        <time>2023-04-05T11:25:06Z</time>
      </trkpt>
      <trkpt lat="48.14121" lon="-3.76">
        <ele>213.6</ele>
        <time>2023-04-05T11:25:07Z</time>
      </trkpt>
      <trkpt lat="48.14122" lon="-3.75993">
        <ele>213.8</ele>
        <time>2023-04-05T11:25:08Z</time>
      </trkpt>
      <trkpt lat="48.14122" lon="-3.75986">
        <ele>214</ele>
        <time>2023-04-05T11:25:09Z</time>
      </trkpt>
      <trkpt lat="48.14123" lon="-3.75981">
        <ele>214.1</ele>
        <time>2023-04-05T11:25:10Z</time>
      </trkpt>
      <trkpt lat="48.14124" lon="-3.75975">
        <ele>214.3</ele>
        <time>2023-04-05T11:25:11Z</time>
      </trkpt>
      <trkpt lat="48.14125" lon="-3.75971">
        <ele>214.4</ele>
        <time>2023-04-05T11:25:12Z</time>
      </trkpt>
      <trkpt lat="48.14126" lon="-3.75962">
        <ele>214.7</ele>
        <time>2023-04-05T11:25:13Z</time>
      </trkpt>
      <trkpt lat="48.14128" lon="-3.75954">
        <ele>215</ele>
        <time>2023-04-05T11:25:15Z</time>
      </trkpt>
      <trkpt lat="48.14129" lon="-3.75948">
        <ele>215.2</ele>
        <time>2023-04-05T11:25:16Z</time>
      </trkpt>
      <trkpt lat="48.14129" lon="-3.75943">
        <ele>215.3</ele>
        <time>2023-04-05T11:25:17Z</time>
      </trkpt>
      <trkpt lat="48.1413" lon="-3.75938">
        <ele>215.5</ele>
        <time>2023-04-05T11:25:18Z</time>
      </trkpt>
      <trkpt lat="48.1413" lon="-3.75933">
        <ele>215.7</ele>
        <time>2023-04-05T11:25:19Z</time>
      </trkpt>
      <trkpt lat="48.14132" lon="-3.75923">
        <ele>216</ele>
        <time>2023-04-05T11:25:20Z</time>
      </trkpt>
      <trkpt lat="48.14133" lon="-3.75917">
        <ele>216.3</ele>
        <time>2023-04-05T11:25:22Z</time>
      </trkpt>
      <trkpt lat="48.14134" lon="-3.75913">
        <ele>216.4</ele>
        <time>2023-04-05T11:25:23Z</time>
      </trkpt>
      <trkpt lat="48.14134" lon="-3.75909">
        <ele>216.6</ele>
        <time>2023-04-05T11:25:24Z</time>
      </trkpt>
      <trkpt lat="48.14135" lon="-3.75904">
        <ele>216.8</ele>
        <time>2023-04-05T11:25:25Z</time>
      </trkpt>
      <trkpt lat="48.14135" lon="-3.75899">
        <ele>216.9</ele>
        <time>2023-04-05T11:25:26Z</time>
      </trkpt>
      <trkpt lat="48.14136" lon="-3.75894">
        <ele>217.1</ele>
        <time>2023-04-05T11:25:27Z</time>
      </trkpt>
      <trkpt lat="48.14137" lon="-3.7589">
        <ele>217.3</ele>
        <time>2023-04-05T11:25:28Z</time>
      </trkpt>
      <trkpt lat="48.14137" lon="-3.75885">
        <ele>217.5</ele>
        <time>2023-04-05T11:25:29Z</time>
      </trkpt>
      <trkpt lat="48.14138" lon="-3.75881">
        <ele>217.7</ele>
        <time>2023-04-05T11:25:30Z</time>
      </trkpt>
      <trkpt lat="48.14139" lon="-3.75872">
        <ele>218</ele>
        <time>2023-04-05T11:25:31Z</time>
      </trkpt>
      <trkpt lat="48.1414" lon="-3.75866">
        <ele>218.3</ele>
        <time>2023-04-05T11:25:33Z</time>
      </trkpt>
      <trkpt lat="48.14141" lon="-3.75861">
        <ele>218.5</ele>
        <time>2023-04-05T11:25:34Z</time>
      </trkpt>
      <trkpt lat="48.14142" lon="-3.75852">
        <ele>218.9</ele>
        <time>2023-04-05T11:25:35Z</time>
      </trkpt>
      <trkpt lat="48.14143" lon="-3.75847">
        <ele>219.1</ele>
        <time>2023-04-05T11:25:37Z</time>
      </trkpt>
      <trkpt lat="48.14144" lon="-3.75842">
        <ele>219.3</ele>
        <time>2023-04-05T11:25:38Z</time>
      </trkpt>
      <trkpt lat="48.14145" lon="-3.75838">
        <ele>219.5</ele>
        <time>2023-04-05T11:25:39Z</time>
      </trkpt>
      <trkpt lat="48.14146" lon="-3.75833">
        <ele>219.7</ele>
        <time>2023-04-05T11:25:40Z</time>
      </trkpt>
      <trkpt lat="48.14147" lon="-3.75829">
        <ele>219.9</ele>
        <time>2023-04-05T11:25:41Z</time>
      </trkpt>
      <trkpt lat="48.14148" lon="-3.75825">
        <ele>220.1</ele>
        <time>2023-04-05T11:25:42Z</time>
      </trkpt>
      <trkpt lat="48.14148" lon="-3.75821">
        <ele>220.3</ele>
        <time>2023-04-05T11:25:43Z</time>
      </trkpt>
      <trkpt lat="48.14149" lon="-3.75816">
        <ele>220.5</ele>
        <time>2023-04-05T11:25:44Z</time>
      </trkpt>
      <trkpt lat="48.1415" lon="-3.75811">
        <ele>220.7</ele>
        <time>2023-04-05T11:25:45Z</time>
      </trkpt>
      <trkpt lat="48.14151" lon="-3.75807">
        <ele>220.8</ele>
        <time>2023-04-05T11:25:46Z</time>
      </trkpt>
      <trkpt lat="48.14151" lon="-3.75801">
        <ele>221.1</ele>
        <time>2023-04-05T11:25:47Z</time>
      </trkpt>
      <trkpt lat="48.14152" lon="-3.75799">
        <ele>221.2</ele>
        <time>2023-04-05T11:25:48Z</time>
      </trkpt>
      <trkpt lat="48.14152" lon="-3.75795">
        <ele>221.4</ele>
        <time>2023-04-05T11:25:49Z</time>
      </trkpt>
      <trkpt lat="48.14153" lon="-3.7579">
        <ele>221.6</ele>
        <time>2023-04-05T11:25:50Z</time>
      </trkpt>
      <trkpt lat="48.14153" lon="-3.75786">
        <ele>221.8</ele>
        <time>2023-04-05T11:25:51Z</time>
      </trkpt>
      <trkpt lat="48.14154" lon="-3.75781">
        <ele>222</ele>
        <time>2023-04-05T11:25:52Z</time>
      </trkpt>
      <trkpt lat="48.14155" lon="-3.75777">
        <ele>222.2</ele>
        <time>2023-04-05T11:25:53Z</time>
      </trkpt>
      <trkpt lat="48.14156" lon="-3.75773">
        <ele>222.4</ele>
        <time>2023-04-05T11:25:54Z</time>
      </trkpt>
      <trkpt lat="48.14156" lon="-3.75768">
        <ele>222.6</ele>
        <time>2023-04-05T11:25:55Z</time>
      </trkpt>
      <trkpt lat="48.14157" lon="-3.75764">
        <ele>222.8</ele>
        <time>2023-04-05T11:25:56Z</time>
      </trkpt>
      <trkpt lat="48.14158" lon="-3.7576">
        <ele>223</ele>
        <time>2023-04-05T11:25:57Z</time>
      </trkpt>
      <trkpt lat="48.14159" lon="-3.75756">
        <ele>223.2</ele>
        <time>2023-04-05T11:25:58Z</time>
      </trkpt>
      <trkpt lat="48.1416" lon="-3.75751">
        <ele>223.4</ele>
        <time>2023-04-05T11:25:59Z</time>
      </trkpt>
      <trkpt lat="48.14161" lon="-3.75747">
        <ele>223.6</ele>
        <time>2023-04-05T11:26:00Z</time>
      </trkpt>
      <trkpt lat="48.14162" lon="-3.75743">
        <ele>223.8</ele>
        <time>2023-04-05T11:26:01Z</time>
      </trkpt>
      <trkpt lat="48.14162" lon="-3.75739">
        <ele>224</ele>
        <time>2023-04-05T11:26:02Z</time>
      </trkpt>
      <trkpt lat="48.14163" lon="-3.75735">
        <ele>224.2</ele>
        <time>2023-04-05T11:26:03Z</time>
      </trkpt>
      <trkpt lat="48.14163" lon="-3.7573">
        <ele>224.4</ele>
        <time>2023-04-05T11:26:04Z</time>
      </trkpt>
      <trkpt lat="48.14164" lon="-3.75726">
        <ele>224.6</ele>
        <time>2023-04-05T11:26:05Z</time>
      </trkpt>
      <trkpt lat="48.14165" lon="-3.75722">
        <ele>224.8</ele>
        <time>2023-04-05T11:26:06Z</time>
      </trkpt>
      <trkpt lat="48.14166" lon="-3.75717">
        <ele>224.9</ele>
        <time>2023-04-05T11:26:07Z</time>
      </trkpt>
      <trkpt lat="48.14167" lon="-3.75712">
        <ele>225.2</ele>
        <time>2023-04-05T11:26:08Z</time>
      </trkpt>
      <trkpt lat="48.14168" lon="-3.75709">
        <ele>225.3</ele>
        <time>2023-04-05T11:26:09Z</time>
      </trkpt>
      <trkpt lat="48.14169" lon="-3.75705">
        <ele>225.5</ele>
        <time>2023-04-05T11:26:10Z</time>
      </trkpt>
      <trkpt lat="48.1417" lon="-3.75701">
        <ele>225.7</ele>
        <time>2023-04-05T11:26:11Z</time>
      </trkpt>
      <trkpt lat="48.14171" lon="-3.75696">
        <ele>225.9</ele>
        <time>2023-04-05T11:26:12Z</time>
      </trkpt>
      <trkpt lat="48.14172" lon="-3.75692">
        <ele>226.1</ele>
        <time>2023-04-05T11:26:13Z</time>
      </trkpt>
      <trkpt lat="48.14173" lon="-3.75688">
        <ele>226.2</ele>
        <time>2023-04-05T11:26:14Z</time>
      </trkpt>
      <trkpt lat="48.14174" lon="-3.75683">
        <ele>226.4</ele>
        <time>2023-04-05T11:26:15Z</time>
      </trkpt>
      <trkpt lat="48.14175" lon="-3.75679">
        <ele>226.6</ele>
        <time>2023-04-05T11:26:16Z</time>
      </trkpt>
      <trkpt lat="48.14176" lon="-3.75674">
        <ele>226.8</ele>
        <time>2023-04-05T11:26:17Z</time>
      </trkpt>
      <trkpt lat="48.14177" lon="-3.7567">
        <ele>226.9</ele>
        <time>2023-04-05T11:26:18Z</time>
      </trkpt>
      <trkpt lat="48.14179" lon="-3.75667">
        <ele>227.1</ele>
        <time>2023-04-05T11:26:19Z</time>
      </trkpt>
      <trkpt lat="48.1418" lon="-3.75663">
        <ele>227.2</ele>
        <time>2023-04-05T11:26:20Z</time>
      </trkpt>
      <trkpt lat="48.14181" lon="-3.75658">
        <ele>227.4</ele>
        <time>2023-04-05T11:26:21Z</time>
      </trkpt>
      <trkpt lat="48.14182" lon="-3.75654">
        <ele>227.5</ele>
        <time>2023-04-05T11:26:22Z</time>
      </trkpt>
      <trkpt lat="48.14184" lon="-3.75649">
        <ele>227.7</ele>
        <time>2023-04-05T11:26:23Z</time>
      </trkpt>
      <trkpt lat="48.14186" lon="-3.75645">
        <ele>227.8</ele>
        <time>2023-04-05T11:26:24Z</time>
      </trkpt>
      <trkpt lat="48.14187" lon="-3.7564">
        <ele>228</ele>
        <time>2023-04-05T11:26:25Z</time>
      </trkpt>
      <trkpt lat="48.14189" lon="-3.75636">
        <ele>228.1</ele>
        <time>2023-04-05T11:26:26Z</time>
      </trkpt>
      <trkpt lat="48.1419" lon="-3.75631">
        <ele>228.3</ele>
        <time>2023-04-05T11:26:27Z</time>
      </trkpt>
      <trkpt lat="48.14191" lon="-3.75627">
        <ele>228.4</ele>
        <time>2023-04-05T11:26:28Z</time>
      </trkpt>
      <trkpt lat="48.14193" lon="-3.75623">
        <ele>228.6</ele>
        <time>2023-04-05T11:26:29Z</time>
      </trkpt>
      <trkpt lat="48.14194" lon="-3.75619">
        <ele>228.7</ele>
        <time>2023-04-05T11:26:30Z</time>
      </trkpt>
      <trkpt lat="48.14196" lon="-3.75614">
        <ele>228.8</ele>
        <time>2023-04-05T11:26:31Z</time>
      </trkpt>
      <trkpt lat="48.14197" lon="-3.7561">
        <ele>228.9</ele>
        <time>2023-04-05T11:26:32Z</time>
      </trkpt>
      <trkpt lat="48.14199" lon="-3.75606">
        <ele>229.1</ele>
        <time>2023-04-05T11:26:33Z</time>
      </trkpt>
      <trkpt lat="48.142" lon="-3.75601">
        <ele>229.2</ele>
        <time>2023-04-05T11:26:34Z</time>
      </trkpt>
      <trkpt lat="48.14202" lon="-3.75596">
        <ele>229.3</ele>
        <time>2023-04-05T11:26:35Z</time>
      </trkpt>
      <trkpt lat="48.14203" lon="-3.75592">
        <ele>229.4</ele>
        <time>2023-04-05T11:26:36Z</time>
      </trkpt>
      <trkpt lat="48.14205" lon="-3.75588">
        <ele>229.6</ele>
        <time>2023-04-05T11:26:37Z</time>
      </trkpt>
      <trkpt lat="48.14206" lon="-3.75583">
        <ele>229.7</ele>
        <time>2023-04-05T11:26:38Z</time>
      </trkpt>
      <trkpt lat="48.14208" lon="-3.75578">
        <ele>229.8</ele>
        <time>2023-04-05T11:26:39Z</time>
      </trkpt>
      <trkpt lat="48.14209" lon="-3.75573">
        <ele>229.9</ele>
        <time>2023-04-05T11:26:40Z</time>
      </trkpt>
      <trkpt lat="48.14211" lon="-3.75569">
        <ele>230</ele>
        <time>2023-04-05T11:26:41Z</time>
      </trkpt>
      <trkpt lat="48.14213" lon="-3.75564">
        <ele>230.2</ele>
        <time>2023-04-05T11:26:42Z</time>
      </trkpt>
      <trkpt lat="48.14214" lon="-3.7556">
        <ele>230.3</ele>
        <time>2023-04-05T11:26:43Z</time>
      </trkpt>
      <trkpt lat="48.14216" lon="-3.75555">
        <ele>230.4</ele>
        <time>2023-04-05T11:26:44Z</time>
      </trkpt>
      <trkpt lat="48.14217" lon="-3.75551">
        <ele>230.6</ele>
        <time>2023-04-05T11:26:45Z</time>
      </trkpt>
      <trkpt lat="48.14219" lon="-3.75548">
        <ele>230.7</ele>
        <time>2023-04-05T11:26:46Z</time>
      </trkpt>
      <trkpt lat="48.14221" lon="-3.75543">
        <ele>230.9</ele>
        <time>2023-04-05T11:26:47Z</time>
      </trkpt>
      <trkpt lat="48.14222" lon="-3.75539">
        <ele>231.1</ele>
        <time>2023-04-05T11:26:48Z</time>
      </trkpt>
      <trkpt lat="48.14223" lon="-3.75534">
        <ele>231.3</ele>
        <time>2023-04-05T11:26:49Z</time>
      </trkpt>
      <trkpt lat="48.14226" lon="-3.75524">
        <ele>231.7</ele>
        <time>2023-04-05T11:26:51Z</time>
      </trkpt>
      <trkpt lat="48.14228" lon="-3.75519">
        <ele>232</ele>
        <time>2023-04-05T11:26:53Z</time>
      </trkpt>
      <trkpt lat="48.1423" lon="-3.75514">
        <ele>232.1</ele>
        <time>2023-04-05T11:26:54Z</time>
      </trkpt>
      <trkpt lat="48.14232" lon="-3.75509">
        <ele>232.3</ele>
        <time>2023-04-05T11:26:55Z</time>
      </trkpt>
      <trkpt lat="48.14233" lon="-3.75505">
        <ele>232.5</ele>
        <time>2023-04-05T11:26:56Z</time>
      </trkpt>
      <trkpt lat="48.14235" lon="-3.755">
        <ele>232.7</ele>
        <time>2023-04-05T11:26:57Z</time>
      </trkpt>
      <trkpt lat="48.14236" lon="-3.75496">
        <ele>232.8</ele>
        <time>2023-04-05T11:26:58Z</time>
      </trkpt>
      <trkpt lat="48.14238" lon="-3.75491">
        <ele>232.9</ele>
        <time>2023-04-05T11:26:59Z</time>
      </trkpt>
      <trkpt lat="48.14239" lon="-3.75486">
        <ele>233</ele>
        <time>2023-04-05T11:27:00Z</time>
      </trkpt>
      <trkpt lat="48.14241" lon="-3.75481">
        <ele>233.1</ele>
        <time>2023-04-05T11:27:01Z</time>
      </trkpt>
      <trkpt lat="48.14242" lon="-3.75476">
        <ele>233.3</ele>
        <time>2023-04-05T11:27:02Z</time>
      </trkpt>
      <trkpt lat="48.14244" lon="-3.75471">
        <ele>233.4</ele>
        <time>2023-04-05T11:27:03Z</time>
      </trkpt>
      <trkpt lat="48.14245" lon="-3.75466">
        <ele>233.5</ele>
        <time>2023-04-05T11:27:04Z</time>
      </trkpt>
      <trkpt lat="48.14247" lon="-3.75462">
        <ele>233.6</ele>
        <time>2023-04-05T11:27:05Z</time>
      </trkpt>
      <trkpt lat="48.14249" lon="-3.75456">
        <ele>233.8</ele>
        <time>2023-04-05T11:27:06Z</time>
      </trkpt>
      <trkpt lat="48.1425" lon="-3.75451">
        <ele>233.9</ele>
        <time>2023-04-05T11:27:07Z</time>
      </trkpt>
      <trkpt lat="48.14252" lon="-3.75447">
        <ele>234</ele>
        <time>2023-04-05T11:27:08Z</time>
      </trkpt>
      <trkpt lat="48.14253" lon="-3.75442">
        <ele>234.1</ele>
        <time>2023-04-05T11:27:09Z</time>
      </trkpt>
      <trkpt lat="48.14256" lon="-3.75435">
        <ele>234.3</ele>
        <time>2023-04-05T11:27:10Z</time>
      </trkpt>
      <trkpt lat="48.14258" lon="-3.75426">
        <ele>234.5</ele>
        <time>2023-04-05T11:27:12Z</time>
      </trkpt>
      <trkpt lat="48.1426" lon="-3.7542">
        <ele>234.6</ele>
        <time>2023-04-05T11:27:14Z</time>
      </trkpt>
      <trkpt lat="48.14262" lon="-3.75416">
        <ele>234.7</ele>
        <time>2023-04-05T11:27:15Z</time>
      </trkpt>
      <trkpt lat="48.14263" lon="-3.75411">
        <ele>234.8</ele>
        <time>2023-04-05T11:27:16Z</time>
      </trkpt>
      <trkpt lat="48.14265" lon="-3.75406">
        <ele>234.9</ele>
        <time>2023-04-05T11:27:17Z</time>
      </trkpt>
      <trkpt lat="48.14266" lon="-3.75401">
        <ele>235</ele>
        <time>2023-04-05T11:27:18Z</time>
      </trkpt>
      <trkpt lat="48.14268" lon="-3.75396">
        <ele>235.1</ele>
        <time>2023-04-05T11:27:19Z</time>
      </trkpt>
      <trkpt lat="48.14269" lon="-3.75391">
        <ele>235.2</ele>
        <time>2023-04-05T11:27:20Z</time>
      </trkpt>
      <trkpt lat="48.14273" lon="-3.75382">
        <ele>235.3</ele>
        <time>2023-04-05T11:27:21Z</time>
      </trkpt>
      <trkpt lat="48.14275" lon="-3.75376">
        <ele>235.4</ele>
        <time>2023-04-05T11:27:23Z</time>
      </trkpt>
      <trkpt lat="48.14277" lon="-3.75371">
        <ele>235.5</ele>
        <time>2023-04-05T11:27:24Z</time>
      </trkpt>
      <trkpt lat="48.1428" lon="-3.75362">
        <ele>235.6</ele>
        <time>2023-04-05T11:27:25Z</time>
      </trkpt>
      <trkpt lat="48.14283" lon="-3.75351">
        <ele>235.8</ele>
        <time>2023-04-05T11:27:27Z</time>
      </trkpt>
      <trkpt lat="48.14285" lon="-3.75345">
        <ele>235.9</ele>
        <time>2023-04-05T11:27:29Z</time>
      </trkpt>
      <trkpt lat="48.14287" lon="-3.7534">
        <ele>236</ele>
        <time>2023-04-05T11:27:30Z</time>
      </trkpt>
      <trkpt lat="48.14288" lon="-3.75335">
        <ele>236</ele>
        <time>2023-04-05T11:27:31Z</time>
      </trkpt>
      <trkpt lat="48.1429" lon="-3.75329">
        <ele>236.1</ele>
        <time>2023-04-05T11:27:32Z</time>
      </trkpt>
      <trkpt lat="48.14291" lon="-3.75324">
        <ele>236.2</ele>
        <time>2023-04-05T11:27:33Z</time>
      </trkpt>
      <trkpt lat="48.14293" lon="-3.75319">
        <ele>236.3</ele>
        <time>2023-04-05T11:27:34Z</time>
      </trkpt>
      <trkpt lat="48.14295" lon="-3.75309">
        <ele>236.4</ele>
        <time>2023-04-05T11:27:35Z</time>
      </trkpt>
      <trkpt lat="48.14297" lon="-3.75303">
        <ele>236.5</ele>
        <time>2023-04-05T11:27:37Z</time>
      </trkpt>
      <trkpt lat="48.14298" lon="-3.75297">
        <ele>236.6</ele>
        <time>2023-04-05T11:27:38Z</time>
      </trkpt>
      <trkpt lat="48.143" lon="-3.75292">
        <ele>236.7</ele>
        <time>2023-04-05T11:27:39Z</time>
      </trkpt>
      <trkpt lat="48.14301" lon="-3.75287">
        <ele>236.8</ele>
        <time>2023-04-05T11:27:40Z</time>
      </trkpt>
      <trkpt lat="48.14302" lon="-3.75282">
        <ele>236.8</ele>
        <time>2023-04-05T11:27:41Z</time>
      </trkpt>
      <trkpt lat="48.14303" lon="-3.75276">
        <ele>236.9</ele>
        <time>2023-04-05T11:27:42Z</time>
      </trkpt>
      <trkpt lat="48.14304" lon="-3.75272">
        <ele>237</ele>
        <time>2023-04-05T11:27:43Z</time>
      </trkpt>
      <trkpt lat="48.14305" lon="-3.75267">
        <ele>237.1</ele>
        <time>2023-04-05T11:27:44Z</time>
      </trkpt>
      <trkpt lat="48.14306" lon="-3.75262">
        <ele>237.2</ele>
        <time>2023-04-05T11:27:45Z</time>
      </trkpt>
      <trkpt lat="48.14307" lon="-3.75256">
        <ele>237.2</ele>
        <time>2023-04-05T11:27:46Z</time>
      </trkpt>
      <trkpt lat="48.14309" lon="-3.75251">
        <ele>237.3</ele>
        <time>2023-04-05T11:27:47Z</time>
      </trkpt>
      <trkpt lat="48.14311" lon="-3.75241">
        <ele>237.4</ele>
        <time>2023-04-05T11:27:48Z</time>
      </trkpt>
      <trkpt lat="48.14312" lon="-3.75234">
        <ele>237.4</ele>
        <time>2023-04-05T11:27:50Z</time>
      </trkpt>
      <trkpt lat="48.14313" lon="-3.75228">
        <ele>237.5</ele>
        <time>2023-04-05T11:27:51Z</time>
      </trkpt>
      <trkpt lat="48.14315" lon="-3.75222">
        <ele>237.5</ele>
        <time>2023-04-05T11:27:52Z</time>
      </trkpt>
      <trkpt lat="48.14316" lon="-3.75216">
        <ele>237.5</ele>
        <time>2023-04-05T11:27:53Z</time>
      </trkpt>
      <trkpt lat="48.14317" lon="-3.7521">
        <ele>237.5</ele>
        <time>2023-04-05T11:27:54Z</time>
      </trkpt>
      <trkpt lat="48.14318" lon="-3.75204">
        <ele>237.5</ele>
        <time>2023-04-05T11:27:55Z</time>
      </trkpt>
      <trkpt lat="48.14319" lon="-3.75197">
        <ele>237.5</ele>
        <time>2023-04-05T11:27:56Z</time>
      </trkpt>
      <trkpt lat="48.14321" lon="-3.75189">
        <ele>237.5</ele>
        <time>2023-04-05T11:27:57Z</time>
      </trkpt>
      <trkpt lat="48.14322" lon="-3.75182">
        <ele>237.5</ele>
        <time>2023-04-05T11:27:58Z</time>
      </trkpt>
      <trkpt lat="48.14323" lon="-3.75176">
        <ele>237.5</ele>
        <time>2023-04-05T11:27:59Z</time>
      </trkpt>
      <trkpt lat="48.14324" lon="-3.75169">
        <ele>237.5</ele>
        <time>2023-04-05T11:28:00Z</time>
      </trkpt>
      <trkpt lat="48.14326" lon="-3.75163">
        <ele>237.5</ele>
        <time>2023-04-05T11:28:01Z</time>
      </trkpt>
      <trkpt lat="48.14327" lon="-3.75156">
        <ele>237.6</ele>
        <time>2023-04-05T11:28:02Z</time>
      </trkpt>
      <trkpt lat="48.14329" lon="-3.7515">
        <ele>237.6</ele>
        <time>2023-04-05T11:28:03Z</time>
      </trkpt>
      <trkpt lat="48.1433" lon="-3.75143">
        <ele>237.7</ele>
        <time>2023-04-05T11:28:04Z</time>
      </trkpt>
      <trkpt lat="48.14331" lon="-3.75137">
        <ele>237.7</ele>
        <time>2023-04-05T11:28:05Z</time>
      </trkpt>
      <trkpt lat="48.14333" lon="-3.7513">
        <ele>237.8</ele>
        <time>2023-04-05T11:28:06Z</time>
      </trkpt>
      <trkpt lat="48.14334" lon="-3.75124">
        <ele>237.8</ele>
        <time>2023-04-05T11:28:07Z</time>
      </trkpt>
      <trkpt lat="48.14336" lon="-3.75117">
        <ele>237.9</ele>
        <time>2023-04-05T11:28:08Z</time>
      </trkpt>
      <trkpt lat="48.14337" lon="-3.75111">
        <ele>237.9</ele>
        <time>2023-04-05T11:28:09Z</time>
      </trkpt>
      <trkpt lat="48.14338" lon="-3.75104">
        <ele>237.9</ele>
        <time>2023-04-05T11:28:10Z</time>
      </trkpt>
      <trkpt lat="48.1434" lon="-3.75097">
        <ele>237.9</ele>
        <time>2023-04-05T11:28:11Z</time>
      </trkpt>
      <trkpt lat="48.14341" lon="-3.7509">
        <ele>238</ele>
        <time>2023-04-05T11:28:12Z</time>
      </trkpt>
      <trkpt lat="48.14343" lon="-3.75084">
        <ele>238</ele>
        <time>2023-04-05T11:28:13Z</time>
      </trkpt>
      <trkpt lat="48.14344" lon="-3.75077">
        <ele>238</ele>
        <time>2023-04-05T11:28:14Z</time>
      </trkpt>
      <trkpt lat="48.14345" lon="-3.7507">
        <ele>238</ele>
        <time>2023-04-05T11:28:15Z</time>
      </trkpt>
      <trkpt lat="48.14346" lon="-3.75063">
        <ele>238</ele>
        <time>2023-04-05T11:28:16Z</time>
      </trkpt>
      <trkpt lat="48.14348" lon="-3.75057">
        <ele>238.1</ele>
        <time>2023-04-05T11:28:17Z</time>
      </trkpt>
      <trkpt lat="48.14349" lon="-3.7505">
        <ele>238.1</ele>
        <time>2023-04-05T11:28:18Z</time>
      </trkpt>
      <trkpt lat="48.1435" lon="-3.75044">
        <ele>238.1</ele>
        <time>2023-04-05T11:28:19Z</time>
      </trkpt>
      <trkpt lat="48.14352" lon="-3.75037">
        <ele>238</ele>
        <time>2023-04-05T11:28:20Z</time>
      </trkpt>
      <trkpt lat="48.14353" lon="-3.7503">
        <ele>238</ele>
        <time>2023-04-05T11:28:21Z</time>
      </trkpt>
      <trkpt lat="48.14354" lon="-3.75023">
        <ele>238</ele>
        <time>2023-04-05T11:28:22Z</time>
      </trkpt>
      <trkpt lat="48.14355" lon="-3.75015">
        <ele>237.9</ele>
        <time>2023-04-05T11:28:23Z</time>
      </trkpt>
      <trkpt lat="48.14356" lon="-3.75008">
        <ele>237.9</ele>
        <time>2023-04-05T11:28:24Z</time>
      </trkpt>
      <trkpt lat="48.14357" lon="-3.75001">
        <ele>237.8</ele>
        <time>2023-04-05T11:28:25Z</time>
      </trkpt>
      <trkpt lat="48.14358" lon="-3.74993">
        <ele>237.8</ele>
        <time>2023-04-05T11:28:26Z</time>
      </trkpt>
      <trkpt lat="48.14359" lon="-3.74985">
        <ele>237.8</ele>
        <time>2023-04-05T11:28:27Z</time>
      </trkpt>
      <trkpt lat="48.1436" lon="-3.74978">
        <ele>237.7</ele>
        <time>2023-04-05T11:28:28Z</time>
      </trkpt>
      <trkpt lat="48.14361" lon="-3.7497">
        <ele>237.7</ele>
        <time>2023-04-05T11:28:29Z</time>
      </trkpt>
      <trkpt lat="48.14362" lon="-3.74962">
        <ele>237.7</ele>
        <time>2023-04-05T11:28:30Z</time>
      </trkpt>
      <trkpt lat="48.14363" lon="-3.74954">
        <ele>237.6</ele>
        <time>2023-04-05T11:28:31Z</time>
      </trkpt>
      <trkpt lat="48.14364" lon="-3.74946">
        <ele>237.6</ele>
        <time>2023-04-05T11:28:32Z</time>
      </trkpt>
      <trkpt lat="48.14365" lon="-3.74938">
        <ele>237.6</ele>
        <time>2023-04-05T11:28:33Z</time>
      </trkpt>
      <trkpt lat="48.14366" lon="-3.74931">
        <ele>237.5</ele>
        <time>2023-04-05T11:28:34Z</time>
      </trkpt>
      <trkpt lat="48.14367" lon="-3.74923">
        <ele>237.5</ele>
        <time>2023-04-05T11:28:35Z</time>
      </trkpt>
      <trkpt lat="48.14369" lon="-3.74915">
        <ele>237.5</ele>
        <time>2023-04-05T11:28:36Z</time>
      </trkpt>
      <trkpt lat="48.1437" lon="-3.74907">
        <ele>237.5</ele>
        <time>2023-04-05T11:28:37Z</time>
      </trkpt>
      <trkpt lat="48.1437" lon="-3.74899">
        <ele>237.4</ele>
        <time>2023-04-05T11:28:38Z</time>
      </trkpt>
      <trkpt lat="48.14371" lon="-3.74891">
        <ele>237.4</ele>
        <time>2023-04-05T11:28:39Z</time>
      </trkpt>
      <trkpt lat="48.14372" lon="-3.74883">
        <ele>237.4</ele>
        <time>2023-04-05T11:28:40Z</time>
      </trkpt>
      <trkpt lat="48.14373" lon="-3.74875">
        <ele>237.3</ele>
        <time>2023-04-05T11:28:41Z</time>
      </trkpt>
      <trkpt lat="48.14374" lon="-3.74868">
        <ele>237.3</ele>
        <time>2023-04-05T11:28:42Z</time>
      </trkpt>
      <trkpt lat="48.14374" lon="-3.7486">
        <ele>237.2</ele>
        <time>2023-04-05T11:28:43Z</time>
      </trkpt>
      <trkpt lat="48.14375" lon="-3.74851">
        <ele>237.2</ele>
        <time>2023-04-05T11:28:44Z</time>
      </trkpt>
      <trkpt lat="48.14375" lon="-3.74843">
        <ele>237.1</ele>
        <time>2023-04-05T11:28:45Z</time>
      </trkpt>
      <trkpt lat="48.14375" lon="-3.74835">
        <ele>237.1</ele>
        <time>2023-04-05T11:28:46Z</time>
      </trkpt>
      <trkpt lat="48.14376" lon="-3.74827">
        <ele>237</ele>
        <time>2023-04-05T11:28:47Z</time>
      </trkpt>
      <trkpt lat="48.14376" lon="-3.74818">
        <ele>236.9</ele>
        <time>2023-04-05T11:28:48Z</time>
      </trkpt>
      <trkpt lat="48.14377" lon="-3.7481">
        <ele>236.9</ele>
        <time>2023-04-05T11:28:49Z</time>
      </trkpt>
      <trkpt lat="48.14377" lon="-3.74801">
        <ele>236.8</ele>
        <time>2023-04-05T11:28:50Z</time>
      </trkpt>
      <trkpt lat="48.14378" lon="-3.74793">
        <ele>236.8</ele>
        <time>2023-04-05T11:28:51Z</time>
      </trkpt>
      <trkpt lat="48.14379" lon="-3.74785">
        <ele>236.7</ele>
        <time>2023-04-05T11:28:52Z</time>
      </trkpt>
      <trkpt lat="48.1438" lon="-3.74776">
        <ele>236.7</ele>
        <time>2023-04-05T11:28:53Z</time>
      </trkpt>
      <trkpt lat="48.1438" lon="-3.74767">
        <ele>236.6</ele>
        <time>2023-04-05T11:28:54Z</time>
      </trkpt>
      <trkpt lat="48.1438" lon="-3.74758">
        <ele>236.5</ele>
        <time>2023-04-05T11:28:55Z</time>
      </trkpt>
      <trkpt lat="48.14381" lon="-3.74749">
        <ele>236.5</ele>
        <time>2023-04-05T11:28:56Z</time>
      </trkpt>
      <trkpt lat="48.14381" lon="-3.7474">
        <ele>236.4</ele>
        <time>2023-04-05T11:28:57Z</time>
      </trkpt>
      <trkpt lat="48.14382" lon="-3.74731">
        <ele>236.3</ele>
        <time>2023-04-05T11:28:58Z</time>
      </trkpt>
      <trkpt lat="48.14382" lon="-3.74722">
        <ele>236.3</ele>
        <time>2023-04-05T11:28:59Z</time>
      </trkpt>
      <trkpt lat="48.14383" lon="-3.74713">
        <ele>236.2</ele>
        <time>2023-04-05T11:29:00Z</time>
      </trkpt>
      <trkpt lat="48.14384" lon="-3.74703">
        <ele>236.2</ele>
        <time>2023-04-05T11:29:01Z</time>
      </trkpt>
      <trkpt lat="48.14384" lon="-3.74694">
        <ele>236.2</ele>
        <time>2023-04-05T11:29:02Z</time>
      </trkpt>
      <trkpt lat="48.14385" lon="-3.74685">
        <ele>236.2</ele>
        <time>2023-04-05T11:29:03Z</time>
      </trkpt>
      <trkpt lat="48.14386" lon="-3.74675">
        <ele>236.1</ele>
        <time>2023-04-05T11:29:04Z</time>
      </trkpt>
      <trkpt lat="48.14386" lon="-3.74666">
        <ele>236.1</ele>
        <time>2023-04-05T11:29:05Z</time>
      </trkpt>
      <trkpt lat="48.14387" lon="-3.74656">
        <ele>236.1</ele>
        <time>2023-04-05T11:29:06Z</time>
      </trkpt>
      <trkpt lat="48.14388" lon="-3.74647">
        <ele>236.1</ele>
        <time>2023-04-05T11:29:07Z</time>
      </trkpt>
      <trkpt lat="48.14388" lon="-3.74638">
        <ele>236.1</ele>
        <time>2023-04-05T11:29:08Z</time>
      </trkpt>
      <trkpt lat="48.14389" lon="-3.74628">
        <ele>236.1</ele>
        <time>2023-04-05T11:29:09Z</time>
      </trkpt>
      <trkpt lat="48.1439" lon="-3.74619">
        <ele>236.1</ele>
        <time>2023-04-05T11:29:10Z</time>
      </trkpt>
      <trkpt lat="48.14391" lon="-3.7461">
        <ele>236.1</ele>
        <time>2023-04-05T11:29:11Z</time>
      </trkpt>
      <trkpt lat="48.14391" lon="-3.74601">
        <ele>236.1</ele>
        <time>2023-04-05T11:29:12Z</time>
      </trkpt>
      <trkpt lat="48.14391" lon="-3.74592">
        <ele>236</ele>
        <time>2023-04-05T11:29:13Z</time>
      </trkpt>
      <trkpt lat="48.14392" lon="-3.74582">
        <ele>236</ele>
        <time>2023-04-05T11:29:14Z</time>
      </trkpt>
      <trkpt lat="48.14392" lon="-3.74573">
        <ele>235.9</ele>
        <time>2023-04-05T11:29:15Z</time>
      </trkpt>
      <trkpt lat="48.14392" lon="-3.74564">
        <ele>235.9</ele>
        <time>2023-04-05T11:29:16Z</time>
      </trkpt>
      <trkpt lat="48.14393" lon="-3.74554">
        <ele>235.8</ele>
        <time>2023-04-05T11:29:17Z</time>
      </trkpt>
      <trkpt lat="48.14393" lon="-3.74544">
        <ele>235.7</ele>
        <time>2023-04-05T11:29:18Z</time>
      </trkpt>
      <trkpt lat="48.14394" lon="-3.74535">
        <ele>235.7</ele>
        <time>2023-04-05T11:29:19Z</time>
      </trkpt>
      <trkpt lat="48.14394" lon="-3.74525">
        <ele>235.6</ele>
        <time>2023-04-05T11:29:20Z</time>
      </trkpt>
      <trkpt lat="48.14394" lon="-3.74515">
        <ele>235.5</ele>
        <time>2023-04-05T11:29:21Z</time>
      </trkpt>
      <trkpt lat="48.14395" lon="-3.74505">
        <ele>235.4</ele>
        <time>2023-04-05T11:29:22Z</time>
      </trkpt>
      <trkpt lat="48.14395" lon="-3.74495">
        <ele>235.4</ele>
        <time>2023-04-05T11:29:23Z</time>
      </trkpt>
      <trkpt lat="48.14395" lon="-3.74485">
        <ele>235.4</ele>
        <time>2023-04-05T11:29:24Z</time>
      </trkpt>
      <trkpt lat="48.14395" lon="-3.74475">
        <ele>235.3</ele>
        <time>2023-04-05T11:29:25Z</time>
      </trkpt>
      <trkpt lat="48.14394" lon="-3.74466">
        <ele>235.3</ele>
        <time>2023-04-05T11:29:26Z</time>
      </trkpt>
      <trkpt lat="48.14394" lon="-3.74456">
        <ele>235.3</ele>
        <time>2023-04-05T11:29:27Z</time>
      </trkpt>
      <trkpt lat="48.14394" lon="-3.74446">
        <ele>235.3</ele>
        <time>2023-04-05T11:29:28Z</time>
      </trkpt>
      <trkpt lat="48.14393" lon="-3.74436">
        <ele>235.3</ele>
        <time>2023-04-05T11:29:29Z</time>
      </trkpt>
      <trkpt lat="48.14392" lon="-3.74427">
        <ele>235.3</ele>
        <time>2023-04-05T11:29:30Z</time>
      </trkpt>
      <trkpt lat="48.14391" lon="-3.74418">
        <ele>235.3</ele>
        <time>2023-04-05T11:29:31Z</time>
      </trkpt>
      <trkpt lat="48.1439" lon="-3.74408">
        <ele>235.3</ele>
        <time>2023-04-05T11:29:32Z</time>
      </trkpt>
      <trkpt lat="48.14389" lon="-3.74399">
        <ele>235.3</ele>
        <time>2023-04-05T11:29:33Z</time>
      </trkpt>
      <trkpt lat="48.14387" lon="-3.7439">
        <ele>235.3</ele>
        <time>2023-04-05T11:29:34Z</time>
      </trkpt>
      <trkpt lat="48.14386" lon="-3.74381">
        <ele>235.4</ele>
        <time>2023-04-05T11:29:35Z</time>
      </trkpt>
      <trkpt lat="48.14384" lon="-3.74372">
        <ele>235.4</ele>
        <time>2023-04-05T11:29:36Z</time>
      </trkpt>
      <trkpt lat="48.14382" lon="-3.74363">
        <ele>235.4</ele>
        <time>2023-04-05T11:29:37Z</time>
      </trkpt>
      <trkpt lat="48.1438" lon="-3.74354">
        <ele>235.5</ele>
        <time>2023-04-05T11:29:38Z</time>
      </trkpt>
      <trkpt lat="48.14379" lon="-3.74345">
        <ele>235.5</ele>
        <time>2023-04-05T11:29:39Z</time>
      </trkpt>
      <trkpt lat="48.14377" lon="-3.74336">
        <ele>235.6</ele>
        <time>2023-04-05T11:29:40Z</time>
      </trkpt>
      <trkpt lat="48.14375" lon="-3.74328">
        <ele>235.6</ele>
        <time>2023-04-05T11:29:41Z</time>
      </trkpt>
      <trkpt lat="48.14374" lon="-3.74319">
        <ele>235.6</ele>
        <time>2023-04-05T11:29:42Z</time>
      </trkpt>
      <trkpt lat="48.14372" lon="-3.7431">
        <ele>235.5</ele>
        <time>2023-04-05T11:29:43Z</time>
      </trkpt>
      <trkpt lat="48.1437" lon="-3.74302">
        <ele>235.5</ele>
        <time>2023-04-05T11:29:44Z</time>
      </trkpt>
      <trkpt lat="48.14369" lon="-3.74293">
        <ele>235.5</ele>
        <time>2023-04-05T11:29:45Z</time>
      </trkpt>
      <trkpt lat="48.14368" lon="-3.74285">
        <ele>235.5</ele>
        <time>2023-04-05T11:29:46Z</time>
      </trkpt>
      <trkpt lat="48.14366" lon="-3.74276">
        <ele>235.6</ele>
        <time>2023-04-05T11:29:47Z</time>
      </trkpt>
      <trkpt lat="48.14365" lon="-3.74268">
        <ele>235.6</ele>
        <time>2023-04-05T11:29:48Z</time>
      </trkpt>
      <trkpt lat="48.14363" lon="-3.7426">
        <ele>235.7</ele>
        <time>2023-04-05T11:29:49Z</time>
      </trkpt>
      <trkpt lat="48.14361" lon="-3.74252">
        <ele>235.8</ele>
        <time>2023-04-05T11:29:50Z</time>
      </trkpt>
      <trkpt lat="48.14359" lon="-3.74243">
        <ele>235.9</ele>
        <time>2023-04-05T11:29:51Z</time>
      </trkpt>
      <trkpt lat="48.14358" lon="-3.74235">
        <ele>236</ele>
        <time>2023-04-05T11:29:52Z</time>
      </trkpt>
      <trkpt lat="48.14357" lon="-3.74228">
        <ele>236.1</ele>
        <time>2023-04-05T11:29:53Z</time>
      </trkpt>
      <trkpt lat="48.14356" lon="-3.7422">
        <ele>236.3</ele>
        <time>2023-04-05T11:29:54Z</time>
      </trkpt>
      <trkpt lat="48.14354" lon="-3.74213">
        <ele>236.4</ele>
        <time>2023-04-05T11:29:55Z</time>
      </trkpt>
      <trkpt lat="48.14353" lon="-3.74206">
        <ele>236.6</ele>
        <time>2023-04-05T11:29:56Z</time>
      </trkpt>
      <trkpt lat="48.14351" lon="-3.74199">
        <ele>236.8</ele>
        <time>2023-04-05T11:29:57Z</time>
      </trkpt>
      <trkpt lat="48.1435" lon="-3.74192">
        <ele>236.9</ele>
        <time>2023-04-05T11:29:58Z</time>
      </trkpt>
      <trkpt lat="48.14349" lon="-3.74186">
        <ele>237.1</ele>
        <time>2023-04-05T11:29:59Z</time>
      </trkpt>
      <trkpt lat="48.14349" lon="-3.74181">
        <ele>237.2</ele>
        <time>2023-04-05T11:30:00Z</time>
      </trkpt>
      <trkpt lat="48.14348" lon="-3.74177">
        <ele>237.3</ele>
        <time>2023-04-05T11:30:01Z</time>
      </trkpt>
      <trkpt lat="48.14346" lon="-3.74171">
        <ele>237.5</ele>
        <time>2023-04-05T11:30:02Z</time>
      </trkpt>
      <trkpt lat="48.14345" lon="-3.74165">
        <ele>237.7</ele>
        <time>2023-04-05T11:30:03Z</time>
      </trkpt>
      <trkpt lat="48.14344" lon="-3.74159">
        <ele>237.9</ele>
        <time>2023-04-05T11:30:04Z</time>
      </trkpt>
      <trkpt lat="48.14343" lon="-3.74152">
        <ele>238</ele>
        <time>2023-04-05T11:30:05Z</time>
      </trkpt>
      <trkpt lat="48.14341" lon="-3.74143">
        <ele>238.3</ele>
        <time>2023-04-05T11:30:06Z</time>
      </trkpt>
      <trkpt lat="48.14341" lon="-3.74137">
        <ele>238.5</ele>
        <time>2023-04-05T11:30:07Z</time>
      </trkpt>
      <trkpt lat="48.14341" lon="-3.74133">
        <ele>238.6</ele>
        <time>2023-04-05T11:30:08Z</time>
      </trkpt>
      <trkpt lat="48.14339" lon="-3.74127">
        <ele>238.7</ele>
        <time>2023-04-05T11:30:09Z</time>
      </trkpt>
      <trkpt lat="48.14336" lon="-3.74115">
        <ele>239.1</ele>
        <time>2023-04-05T11:30:11Z</time>
      </trkpt>
      <trkpt lat="48.14335" lon="-3.74108">
        <ele>239.3</ele>
        <time>2023-04-05T11:30:13Z</time>
      </trkpt>
      <trkpt lat="48.14332" lon="-3.74097">
        <ele>239.5</ele>
        <time>2023-04-05T11:30:14Z</time>
      </trkpt>
      <trkpt lat="48.14331" lon="-3.74091">
        <ele>239.7</ele>
        <time>2023-04-05T11:30:16Z</time>
      </trkpt>
      <trkpt lat="48.14329" lon="-3.74085">
        <ele>239.8</ele>
        <time>2023-04-05T11:30:17Z</time>
      </trkpt>
      <trkpt lat="48.14328" lon="-3.7408">
        <ele>240</ele>
        <time>2023-04-05T11:30:18Z</time>
      </trkpt>
      <trkpt lat="48.14327" lon="-3.74074">
        <ele>240.1</ele>
        <time>2023-04-05T11:30:19Z</time>
      </trkpt>
      <trkpt lat="48.14326" lon="-3.74068">
        <ele>240.3</ele>
        <time>2023-04-05T11:30:20Z</time>
      </trkpt>
      <trkpt lat="48.14325" lon="-3.74062">
        <ele>240.4</ele>
        <time>2023-04-05T11:30:21Z</time>
      </trkpt>
      <trkpt lat="48.14324" lon="-3.74056">
        <ele>240.6</ele>
        <time>2023-04-05T11:30:22Z</time>
      </trkpt>
      <trkpt lat="48.14323" lon="-3.7405">
        <ele>240.7</ele>
        <time>2023-04-05T11:30:23Z</time>
      </trkpt>
      <trkpt lat="48.14322" lon="-3.74045">
        <ele>240.9</ele>
        <time>2023-04-05T11:30:24Z</time>
      </trkpt>
      <trkpt lat="48.1432" lon="-3.74034">
        <ele>241.1</ele>
        <time>2023-04-05T11:30:25Z</time>
      </trkpt>
      <trkpt lat="48.14318" lon="-3.74026">
        <ele>241.3</ele>
        <time>2023-04-05T11:30:27Z</time>
      </trkpt>
      <trkpt lat="48.14317" lon="-3.74021">
        <ele>241.4</ele>
        <time>2023-04-05T11:30:28Z</time>
      </trkpt>
      <trkpt lat="48.14316" lon="-3.74015">
        <ele>241.6</ele>
        <time>2023-04-05T11:30:29Z</time>
      </trkpt>
      <trkpt lat="48.14315" lon="-3.7401">
        <ele>241.7</ele>
        <time>2023-04-05T11:30:30Z</time>
      </trkpt>
      <trkpt lat="48.14314" lon="-3.74005">
        <ele>241.8</ele>
        <time>2023-04-05T11:30:31Z</time>
      </trkpt>
      <trkpt lat="48.14312" lon="-3.73999">
        <ele>242</ele>
        <time>2023-04-05T11:30:32Z</time>
      </trkpt>
      <trkpt lat="48.14311" lon="-3.73994">
        <ele>242.1</ele>
        <time>2023-04-05T11:30:33Z</time>
      </trkpt>
      <trkpt lat="48.1431" lon="-3.73988">
        <ele>242.3</ele>
        <time>2023-04-05T11:30:34Z</time>
      </trkpt>
      <trkpt lat="48.14309" lon="-3.73982">
        <ele>242.4</ele>
        <time>2023-04-05T11:30:35Z</time>
      </trkpt>
      <trkpt lat="48.14307" lon="-3.73977">
        <ele>242.6</ele>
        <time>2023-04-05T11:30:36Z</time>
      </trkpt>
      <trkpt lat="48.14306" lon="-3.7397">
        <ele>242.7</ele>
        <time>2023-04-05T11:30:37Z</time>
      </trkpt>
      <trkpt lat="48.14305" lon="-3.73965">
        <ele>242.9</ele>
        <time>2023-04-05T11:30:38Z</time>
      </trkpt>
      <trkpt lat="48.14303" lon="-3.73959">
        <ele>243</ele>
        <time>2023-04-05T11:30:39Z</time>
      </trkpt>
      <trkpt lat="48.14301" lon="-3.73946">
        <ele>243.3</ele>
        <time>2023-04-05T11:30:41Z</time>
      </trkpt>
      <trkpt lat="48.14299" lon="-3.7394">
        <ele>243.4</ele>
        <time>2023-04-05T11:30:42Z</time>
      </trkpt>
      <trkpt lat="48.14297" lon="-3.73929">
        <ele>243.6</ele>
        <time>2023-04-05T11:30:44Z</time>
      </trkpt>
      <trkpt lat="48.14296" lon="-3.73922">
        <ele>243.7</ele>
        <time>2023-04-05T11:30:46Z</time>
      </trkpt>
      <trkpt lat="48.14295" lon="-3.73917">
        <ele>243.8</ele>
        <time>2023-04-05T11:30:47Z</time>
      </trkpt>
      <trkpt lat="48.14294" lon="-3.73911">
        <ele>243.9</ele>
        <time>2023-04-05T11:30:48Z</time>
      </trkpt>
      <trkpt lat="48.14293" lon="-3.73906">
        <ele>244</ele>
        <time>2023-04-05T11:30:49Z</time>
      </trkpt>
      <trkpt lat="48.14292" lon="-3.73901">
        <ele>244.1</ele>
        <time>2023-04-05T11:30:50Z</time>
      </trkpt>
      <trkpt lat="48.14291" lon="-3.73895">
        <ele>244.2</ele>
        <time>2023-04-05T11:30:51Z</time>
      </trkpt>
      <trkpt lat="48.1429" lon="-3.7389">
        <ele>244.3</ele>
        <time>2023-04-05T11:30:52Z</time>
      </trkpt>
      <trkpt lat="48.14288" lon="-3.73884">
        <ele>244.4</ele>
        <time>2023-04-05T11:30:53Z</time>
      </trkpt>
      <trkpt lat="48.14287" lon="-3.73878">
        <ele>244.5</ele>
        <time>2023-04-05T11:30:54Z</time>
      </trkpt>
      <trkpt lat="48.14286" lon="-3.73868">
        <ele>244.7</ele>
        <time>2023-04-05T11:30:55Z</time>
      </trkpt>
      <trkpt lat="48.14284" lon="-3.73862">
        <ele>244.7</ele>
        <time>2023-04-05T11:30:57Z</time>
      </trkpt>
      <trkpt lat="48.14283" lon="-3.73851">
        <ele>244.9</ele>
        <time>2023-04-05T11:30:58Z</time>
      </trkpt>
      <trkpt lat="48.14281" lon="-3.73844">
        <ele>244.9</ele>
        <time>2023-04-05T11:31:00Z</time>
      </trkpt>
      <trkpt lat="48.14279" lon="-3.73833">
        <ele>245</ele>
        <time>2023-04-05T11:31:01Z</time>
      </trkpt>
      <trkpt lat="48.14278" lon="-3.73826">
        <ele>245.1</ele>
        <time>2023-04-05T11:31:03Z</time>
      </trkpt>
      <trkpt lat="48.14277" lon="-3.73821">
        <ele>245.1</ele>
        <time>2023-04-05T11:31:04Z</time>
      </trkpt>
      <trkpt lat="48.14275" lon="-3.7381">
        <ele>245.1</ele>
        <time>2023-04-05T11:31:05Z</time>
      </trkpt>
      <trkpt lat="48.14273" lon="-3.73798">
        <ele>245.1</ele>
        <time>2023-04-05T11:31:07Z</time>
      </trkpt>
      <trkpt lat="48.14272" lon="-3.73791">
        <ele>245.1</ele>
        <time>2023-04-05T11:31:09Z</time>
      </trkpt>
      <trkpt lat="48.14271" lon="-3.73785">
        <ele>245.1</ele>
        <time>2023-04-05T11:31:10Z</time>
      </trkpt>
      <trkpt lat="48.1427" lon="-3.73779">
        <ele>245.1</ele>
        <time>2023-04-05T11:31:11Z</time>
      </trkpt>
      <trkpt lat="48.14269" lon="-3.73772">
        <ele>245</ele>
        <time>2023-04-05T11:31:12Z</time>
      </trkpt>
      <trkpt lat="48.14268" lon="-3.73765">
        <ele>245</ele>
        <time>2023-04-05T11:31:13Z</time>
      </trkpt>
      <trkpt lat="48.14267" lon="-3.73757">
        <ele>244.9</ele>
        <time>2023-04-05T11:31:14Z</time>
      </trkpt>
      <trkpt lat="48.14266" lon="-3.7375">
        <ele>244.9</ele>
        <time>2023-04-05T11:31:15Z</time>
      </trkpt>
      <trkpt lat="48.14265" lon="-3.73743">
        <ele>244.8</ele>
        <time>2023-04-05T11:31:16Z</time>
      </trkpt>
      <trkpt lat="48.14264" lon="-3.73736">
        <ele>244.8</ele>
        <time>2023-04-05T11:31:17Z</time>
      </trkpt>
      <trkpt lat="48.14263" lon="-3.73729">
        <ele>244.7</ele>
        <time>2023-04-05T11:31:18Z</time>
      </trkpt>
      <trkpt lat="48.14262" lon="-3.73721">
        <ele>244.7</ele>
        <time>2023-04-05T11:31:19Z</time>
      </trkpt>
      <trkpt lat="48.14261" lon="-3.73714">
        <ele>244.6</ele>
        <time>2023-04-05T11:31:20Z</time>
      </trkpt>
      <trkpt lat="48.1426" lon="-3.73706">
        <ele>244.6</ele>
        <time>2023-04-05T11:31:21Z</time>
      </trkpt>
      <trkpt lat="48.1426" lon="-3.73698">
        <ele>244.5</ele>
        <time>2023-04-05T11:31:22Z</time>
      </trkpt>
      <trkpt lat="48.14259" lon="-3.73689">
        <ele>244.5</ele>
        <time>2023-04-05T11:31:23Z</time>
      </trkpt>
      <trkpt lat="48.14258" lon="-3.73681">
        <ele>244.4</ele>
        <time>2023-04-05T11:31:24Z</time>
      </trkpt>
      <trkpt lat="48.14258" lon="-3.73673">
        <ele>244.3</ele>
        <time>2023-04-05T11:31:25Z</time>
      </trkpt>
      <trkpt lat="48.14257" lon="-3.73665">
        <ele>244.3</ele>
        <time>2023-04-05T11:31:26Z</time>
      </trkpt>
      <trkpt lat="48.14257" lon="-3.73657">
        <ele>244.2</ele>
        <time>2023-04-05T11:31:27Z</time>
      </trkpt>
      <trkpt lat="48.14256" lon="-3.73649">
        <ele>244.1</ele>
        <time>2023-04-05T11:31:28Z</time>
      </trkpt>
      <trkpt lat="48.14256" lon="-3.7364">
        <ele>244.1</ele>
        <time>2023-04-05T11:31:29Z</time>
      </trkpt>
      <trkpt lat="48.14255" lon="-3.73632">
        <ele>244</ele>
        <time>2023-04-05T11:31:30Z</time>
      </trkpt>
      <trkpt lat="48.14255" lon="-3.73623">
        <ele>243.9</ele>
        <time>2023-04-05T11:31:31Z</time>
      </trkpt>
      <trkpt lat="48.14255" lon="-3.73615">
        <ele>243.8</ele>
        <time>2023-04-05T11:31:32Z</time>
      </trkpt>
      <trkpt lat="48.14255" lon="-3.73607">
        <ele>243.8</ele>
        <time>2023-04-05T11:31:33Z</time>
      </trkpt>
      <trkpt lat="48.14255" lon="-3.73598">
        <ele>243.7</ele>
        <time>2023-04-05T11:31:34Z</time>
      </trkpt>
      <trkpt lat="48.14255" lon="-3.7359">
        <ele>243.6</ele>
        <time>2023-04-05T11:31:35Z</time>
      </trkpt>
      <trkpt lat="48.14255" lon="-3.73581">
        <ele>243.6</ele>
        <time>2023-04-05T11:31:36Z</time>
      </trkpt>
      <trkpt lat="48.14255" lon="-3.73573">
        <ele>243.5</ele>
        <time>2023-04-05T11:31:37Z</time>
      </trkpt>
      <trkpt lat="48.14255" lon="-3.73564">
        <ele>243.4</ele>
        <time>2023-04-05T11:31:38Z</time>
      </trkpt>
      <trkpt lat="48.14255" lon="-3.73556">
        <ele>243.4</ele>
        <time>2023-04-05T11:31:39Z</time>
      </trkpt>
      <trkpt lat="48.14256" lon="-3.73547">
        <ele>243.4</ele>
        <time>2023-04-05T11:31:40Z</time>
      </trkpt>
      <trkpt lat="48.14256" lon="-3.73539">
        <ele>243.3</ele>
        <time>2023-04-05T11:31:41Z</time>
      </trkpt>
      <trkpt lat="48.14256" lon="-3.7353">
        <ele>243.3</ele>
        <time>2023-04-05T11:31:42Z</time>
      </trkpt>
      <trkpt lat="48.14256" lon="-3.73522">
        <ele>243.2</ele>
        <time>2023-04-05T11:31:43Z</time>
      </trkpt>
      <trkpt lat="48.14256" lon="-3.73513">
        <ele>243.2</ele>
        <time>2023-04-05T11:31:44Z</time>
      </trkpt>
      <trkpt lat="48.14256" lon="-3.73504">
        <ele>243.1</ele>
        <time>2023-04-05T11:31:45Z</time>
      </trkpt>
      <trkpt lat="48.14256" lon="-3.73496">
        <ele>243.1</ele>
        <time>2023-04-05T11:31:46Z</time>
      </trkpt>
      <trkpt lat="48.14256" lon="-3.73487">
        <ele>243</ele>
        <time>2023-04-05T11:31:47Z</time>
      </trkpt>
      <trkpt lat="48.14256" lon="-3.73478">
        <ele>242.9</ele>
        <time>2023-04-05T11:31:48Z</time>
      </trkpt>
      <trkpt lat="48.14256" lon="-3.73469">
        <ele>242.9</ele>
        <time>2023-04-05T11:31:49Z</time>
      </trkpt>
      <trkpt lat="48.14256" lon="-3.7346">
        <ele>242.8</ele>
        <time>2023-04-05T11:31:50Z</time>
      </trkpt>
      <trkpt lat="48.14256" lon="-3.73451">
        <ele>242.8</ele>
        <time>2023-04-05T11:31:51Z</time>
      </trkpt>
      <trkpt lat="48.14256" lon="-3.73442">
        <ele>242.8</ele>
        <time>2023-04-05T11:31:52Z</time>
      </trkpt>
      <trkpt lat="48.14257" lon="-3.73433">
        <ele>242.8</ele>
        <time>2023-04-05T11:31:53Z</time>
      </trkpt>
      <trkpt lat="48.14257" lon="-3.73425">
        <ele>242.7</ele>
        <time>2023-04-05T11:31:54Z</time>
      </trkpt>
      <trkpt lat="48.14257" lon="-3.73416">
        <ele>242.7</ele>
        <time>2023-04-05T11:31:55Z</time>
      </trkpt>
      <trkpt lat="48.14256" lon="-3.73407">
        <ele>242.7</ele>
        <time>2023-04-05T11:31:56Z</time>
      </trkpt>
      <trkpt lat="48.14256" lon="-3.73399">
        <ele>242.6</ele>
        <time>2023-04-05T11:31:57Z</time>
      </trkpt>
      <trkpt lat="48.14256" lon="-3.73391">
        <ele>242.6</ele>
        <time>2023-04-05T11:31:58Z</time>
      </trkpt>
      <trkpt lat="48.14255" lon="-3.73383">
        <ele>242.6</ele>
        <time>2023-04-05T11:31:59Z</time>
      </trkpt>
      <trkpt lat="48.14255" lon="-3.73375">
        <ele>242.6</ele>
        <time>2023-04-05T11:32:00Z</time>
      </trkpt>
      <trkpt lat="48.14254" lon="-3.73367">
        <ele>242.6</ele>
        <time>2023-04-05T11:32:01Z</time>
      </trkpt>
      <trkpt lat="48.14254" lon="-3.73359">
        <ele>242.5</ele>
        <time>2023-04-05T11:32:02Z</time>
      </trkpt>
      <trkpt lat="48.14252" lon="-3.73352">
        <ele>242.4</ele>
        <time>2023-04-05T11:32:03Z</time>
      </trkpt>
      <trkpt lat="48.1425" lon="-3.73344">
        <ele>242.4</ele>
        <time>2023-04-05T11:32:04Z</time>
      </trkpt>
      <trkpt lat="48.14249" lon="-3.73336">
        <ele>242.3</ele>
        <time>2023-04-05T11:32:05Z</time>
      </trkpt>
      <trkpt lat="48.14247" lon="-3.73329">
        <ele>242.1</ele>
        <time>2023-04-05T11:32:06Z</time>
      </trkpt>
      <trkpt lat="48.14246" lon="-3.73321">
        <ele>242</ele>
        <time>2023-04-05T11:32:07Z</time>
      </trkpt>
      <trkpt lat="48.14246" lon="-3.73313">
        <ele>241.9</ele>
        <time>2023-04-05T11:32:08Z</time>
      </trkpt>
      <trkpt lat="48.14247" lon="-3.73305">
        <ele>242</ele>
        <time>2023-04-05T11:32:09Z</time>
      </trkpt>
      <trkpt lat="48.14249" lon="-3.73297">
        <ele>242.1</ele>
        <time>2023-04-05T11:32:10Z</time>
      </trkpt>
      <trkpt lat="48.14252" lon="-3.73291">
        <ele>242.3</ele>
        <time>2023-04-05T11:32:11Z</time>
      </trkpt>
      <trkpt lat="48.14255" lon="-3.73285">
        <ele>242.4</ele>
        <time>2023-04-05T11:32:12Z</time>
      </trkpt>
      <trkpt lat="48.14258" lon="-3.7328">
        <ele>242.5</ele>
        <time>2023-04-05T11:32:13Z</time>
      </trkpt>
      <trkpt lat="48.14261" lon="-3.73276">
        <ele>242.6</ele>
        <time>2023-04-05T11:32:14Z</time>
      </trkpt>
      <trkpt lat="48.14265" lon="-3.73272">
        <ele>242.8</ele>
        <time>2023-04-05T11:32:15Z</time>
      </trkpt>
      <trkpt lat="48.14266" lon="-3.7327">
        <ele>242.9</ele>
        <time>2023-04-05T11:32:16Z</time>
      </trkpt>
      <trkpt lat="48.14268" lon="-3.73267">
        <ele>243</ele>
        <time>2023-04-05T11:32:17Z</time>
      </trkpt>
      <trkpt lat="48.14271" lon="-3.73264">
        <ele>243.2</ele>
        <time>2023-04-05T11:32:18Z</time>
      </trkpt>
      <trkpt lat="48.14274" lon="-3.73262">
        <ele>243.3</ele>
        <time>2023-04-05T11:32:19Z</time>
      </trkpt>
      <trkpt lat="48.14277" lon="-3.73259">
        <ele>243.5</ele>
        <time>2023-04-05T11:32:20Z</time>
      </trkpt>
      <trkpt lat="48.14282" lon="-3.73254">
        <ele>243.8</ele>
        <time>2023-04-05T11:32:21Z</time>
      </trkpt>
      <trkpt lat="48.14282" lon="-3.73255">
        <ele>243.9</ele>
        <time>2023-04-05T11:32:22Z</time>
      </trkpt>
      <trkpt lat="48.14289" lon="-3.73246">
        <ele>244.5</ele>
        <time>2023-04-05T11:32:24Z</time>
      </trkpt>
      <trkpt lat="48.14293" lon="-3.73242">
        <ele>244.8</ele>
        <time>2023-04-05T11:32:25Z</time>
      </trkpt>
      <trkpt lat="48.14297" lon="-3.73236">
        <ele>245.2</ele>
        <time>2023-04-05T11:32:27Z</time>
      </trkpt>
      <trkpt lat="48.143" lon="-3.73233">
        <ele>245.5</ele>
        <time>2023-04-05T11:32:29Z</time>
      </trkpt>
      <trkpt lat="48.14303" lon="-3.7323">
        <ele>245.7</ele>
        <time>2023-04-05T11:32:30Z</time>
      </trkpt>
      <trkpt lat="48.14306" lon="-3.73227">
        <ele>246</ele>
        <time>2023-04-05T11:32:31Z</time>
      </trkpt>
      <trkpt lat="48.14308" lon="-3.73224">
        <ele>246.3</ele>
        <time>2023-04-05T11:32:32Z</time>
      </trkpt>
      <trkpt lat="48.14311" lon="-3.73221">
        <ele>246.5</ele>
        <time>2023-04-05T11:32:33Z</time>
      </trkpt>
      <trkpt lat="48.14314" lon="-3.73217">
        <ele>246.9</ele>
        <time>2023-04-05T11:32:34Z</time>
      </trkpt>
      <trkpt lat="48.14316" lon="-3.73216">
        <ele>247.1</ele>
        <time>2023-04-05T11:32:35Z</time>
      </trkpt>
      <trkpt lat="48.14319" lon="-3.73213">
        <ele>247.4</ele>
        <time>2023-04-05T11:32:36Z</time>
      </trkpt>
      <trkpt lat="48.14321" lon="-3.73211">
        <ele>247.6</ele>
        <time>2023-04-05T11:32:37Z</time>
      </trkpt>
      <trkpt lat="48.14324" lon="-3.73208">
        <ele>248</ele>
        <time>2023-04-05T11:32:38Z</time>
      </trkpt>
      <trkpt lat="48.14325" lon="-3.73206">
        <ele>248.1</ele>
        <time>2023-04-05T11:32:39Z</time>
      </trkpt>
      <trkpt lat="48.14328" lon="-3.73203">
        <ele>248.4</ele>
        <time>2023-04-05T11:32:40Z</time>
      </trkpt>
      <trkpt lat="48.14331" lon="-3.732">
        <ele>248.7</ele>
        <time>2023-04-05T11:32:41Z</time>
      </trkpt>
      <trkpt lat="48.14333" lon="-3.73198">
        <ele>249</ele>
        <time>2023-04-05T11:32:42Z</time>
      </trkpt>
      <trkpt lat="48.14336" lon="-3.73195">
        <ele>249.2</ele>
        <time>2023-04-05T11:32:43Z</time>
      </trkpt>
      <trkpt lat="48.1434" lon="-3.73191">
        <ele>249.7</ele>
        <time>2023-04-05T11:32:44Z</time>
      </trkpt>
      <trkpt lat="48.14343" lon="-3.73188">
        <ele>250</ele>
        <time>2023-04-05T11:32:46Z</time>
      </trkpt>
      <trkpt lat="48.14345" lon="-3.73185">
        <ele>250.3</ele>
        <time>2023-04-05T11:32:47Z</time>
      </trkpt>
      <trkpt lat="48.14348" lon="-3.73183">
        <ele>250.5</ele>
        <time>2023-04-05T11:32:48Z</time>
      </trkpt>
      <trkpt lat="48.1435" lon="-3.7318">
        <ele>250.8</ele>
        <time>2023-04-05T11:32:49Z</time>
      </trkpt>
      <trkpt lat="48.14353" lon="-3.73178">
        <ele>251.1</ele>
        <time>2023-04-05T11:32:50Z</time>
      </trkpt>
      <trkpt lat="48.14356" lon="-3.73176">
        <ele>251.3</ele>
        <time>2023-04-05T11:32:51Z</time>
      </trkpt>
      <trkpt lat="48.14359" lon="-3.73172">
        <ele>251.7</ele>
        <time>2023-04-05T11:32:52Z</time>
      </trkpt>
      <trkpt lat="48.1436" lon="-3.73171">
        <ele>251.8</ele>
        <time>2023-04-05T11:32:53Z</time>
      </trkpt>
      <trkpt lat="48.14362" lon="-3.73168">
        <ele>252.1</ele>
        <time>2023-04-05T11:32:54Z</time>
      </trkpt>
      <trkpt lat="48.14365" lon="-3.73165">
        <ele>252.3</ele>
        <time>2023-04-05T11:32:55Z</time>
      </trkpt>
      <trkpt lat="48.14369" lon="-3.7316">
        <ele>252.8</ele>
        <time>2023-04-05T11:32:56Z</time>
      </trkpt>
      <trkpt lat="48.14372" lon="-3.73157">
        <ele>253</ele>
        <time>2023-04-05T11:32:58Z</time>
      </trkpt>
      <trkpt lat="48.14374" lon="-3.73155">
        <ele>253.3</ele>
        <time>2023-04-05T11:32:59Z</time>
      </trkpt>
      <trkpt lat="48.14376" lon="-3.73152">
        <ele>253.5</ele>
        <time>2023-04-05T11:33:00Z</time>
      </trkpt>
      <trkpt lat="48.14379" lon="-3.73149">
        <ele>253.8</ele>
        <time>2023-04-05T11:33:01Z</time>
      </trkpt>
      <trkpt lat="48.14383" lon="-3.73146">
        <ele>254.1</ele>
        <time>2023-04-05T11:33:02Z</time>
      </trkpt>
      <trkpt lat="48.14384" lon="-3.73145">
        <ele>254.2</ele>
        <time>2023-04-05T11:33:03Z</time>
      </trkpt>
      <trkpt lat="48.14386" lon="-3.73142">
        <ele>254.4</ele>
        <time>2023-04-05T11:33:04Z</time>
      </trkpt>
      <trkpt lat="48.1439" lon="-3.73138">
        <ele>254.8</ele>
        <time>2023-04-05T11:33:05Z</time>
      </trkpt>
      <trkpt lat="48.14394" lon="-3.73134">
        <ele>255.1</ele>
        <time>2023-04-05T11:33:07Z</time>
      </trkpt>
      <trkpt lat="48.14397" lon="-3.7313">
        <ele>255.4</ele>
        <time>2023-04-05T11:33:08Z</time>
      </trkpt>
      <trkpt lat="48.144" lon="-3.73127">
        <ele>255.7</ele>
        <time>2023-04-05T11:33:09Z</time>
      </trkpt>
      <trkpt lat="48.14405" lon="-3.73122">
        <ele>256</ele>
        <time>2023-04-05T11:33:11Z</time>
      </trkpt>
      <trkpt lat="48.14408" lon="-3.7312">
        <ele>256.2</ele>
        <time>2023-04-05T11:33:13Z</time>
      </trkpt>
      <trkpt lat="48.1441" lon="-3.73117">
        <ele>256.4</ele>
        <time>2023-04-05T11:33:14Z</time>
      </trkpt>
      <trkpt lat="48.14413" lon="-3.73113">
        <ele>256.7</ele>
        <time>2023-04-05T11:33:15Z</time>
      </trkpt>
      <trkpt lat="48.14415" lon="-3.73112">
        <ele>256.8</ele>
        <time>2023-04-05T11:33:16Z</time>
      </trkpt>
      <trkpt lat="48.14419" lon="-3.73107">
        <ele>257.1</ele>
        <time>2023-04-05T11:33:17Z</time>
      </trkpt>
      <trkpt lat="48.14421" lon="-3.73104">
        <ele>257.3</ele>
        <time>2023-04-05T11:33:19Z</time>
      </trkpt>
      <trkpt lat="48.14424" lon="-3.73101">
        <ele>257.6</ele>
        <time>2023-04-05T11:33:20Z</time>
      </trkpt>
      <trkpt lat="48.14427" lon="-3.73099">
        <ele>257.7</ele>
        <time>2023-04-05T11:33:21Z</time>
      </trkpt>
      <trkpt lat="48.14429" lon="-3.73096">
        <ele>257.9</ele>
        <time>2023-04-05T11:33:22Z</time>
      </trkpt>
      <trkpt lat="48.14432" lon="-3.73094">
        <ele>258.1</ele>
        <time>2023-04-05T11:33:23Z</time>
      </trkpt>
      <trkpt lat="48.14435" lon="-3.73091">
        <ele>258.4</ele>
        <time>2023-04-05T11:33:24Z</time>
      </trkpt>
      <trkpt lat="48.14437" lon="-3.73088">
        <ele>258.5</ele>
        <time>2023-04-05T11:33:25Z</time>
      </trkpt>
      <trkpt lat="48.14439" lon="-3.73085">
        <ele>258.7</ele>
        <time>2023-04-05T11:33:26Z</time>
      </trkpt>
      <trkpt lat="48.14442" lon="-3.73083">
        <ele>258.9</ele>
        <time>2023-04-05T11:33:27Z</time>
      </trkpt>
      <trkpt lat="48.14444" lon="-3.7308">
        <ele>259.1</ele>
        <time>2023-04-05T11:33:28Z</time>
      </trkpt>
      <trkpt lat="48.14446" lon="-3.73077">
        <ele>259.3</ele>
        <time>2023-04-05T11:33:29Z</time>
      </trkpt>
      <trkpt lat="48.14449" lon="-3.73074">
        <ele>259.5</ele>
        <time>2023-04-05T11:33:30Z</time>
      </trkpt>
      <trkpt lat="48.14452" lon="-3.73072">
        <ele>259.6</ele>
        <time>2023-04-05T11:33:31Z</time>
      </trkpt>
      <trkpt lat="48.14457" lon="-3.73067">
        <ele>260</ele>
        <time>2023-04-05T11:33:32Z</time>
      </trkpt>
      <trkpt lat="48.1446" lon="-3.73064">
        <ele>260.2</ele>
        <time>2023-04-05T11:33:34Z</time>
      </trkpt>
      <trkpt lat="48.14462" lon="-3.73062">
        <ele>260.3</ele>
        <time>2023-04-05T11:33:35Z</time>
      </trkpt>
      <trkpt lat="48.14465" lon="-3.73059">
        <ele>260.5</ele>
        <time>2023-04-05T11:33:36Z</time>
      </trkpt>
      <trkpt lat="48.14467" lon="-3.73056">
        <ele>260.7</ele>
        <time>2023-04-05T11:33:37Z</time>
      </trkpt>
      <trkpt lat="48.1447" lon="-3.73054">
        <ele>260.8</ele>
        <time>2023-04-05T11:33:38Z</time>
      </trkpt>
      <trkpt lat="48.14473" lon="-3.73051">
        <ele>261</ele>
        <time>2023-04-05T11:33:39Z</time>
      </trkpt>
      <trkpt lat="48.14475" lon="-3.73048">
        <ele>261.1</ele>
        <time>2023-04-05T11:33:40Z</time>
      </trkpt>
      <trkpt lat="48.14477" lon="-3.73045">
        <ele>261.2</ele>
        <time>2023-04-05T11:33:41Z</time>
      </trkpt>
      <trkpt lat="48.14481" lon="-3.73041">
        <ele>261.3</ele>
        <time>2023-04-05T11:33:42Z</time>
      </trkpt>
      <trkpt lat="48.14482" lon="-3.7304">
        <ele>261.4</ele>
        <time>2023-04-05T11:33:43Z</time>
      </trkpt>
      <trkpt lat="48.14485" lon="-3.73036">
        <ele>261.5</ele>
        <time>2023-04-05T11:33:44Z</time>
      </trkpt>
      <trkpt lat="48.14488" lon="-3.73034">
        <ele>261.5</ele>
        <time>2023-04-05T11:33:45Z</time>
      </trkpt>
      <trkpt lat="48.1449" lon="-3.73031">
        <ele>261.6</ele>
        <time>2023-04-05T11:33:46Z</time>
      </trkpt>
      <trkpt lat="48.14493" lon="-3.73028">
        <ele>261.6</ele>
        <time>2023-04-05T11:33:47Z</time>
      </trkpt>
      <trkpt lat="48.14497" lon="-3.73025">
        <ele>261.7</ele>
        <time>2023-04-05T11:33:48Z</time>
      </trkpt>
      <trkpt lat="48.14501" lon="-3.7302">
        <ele>261.7</ele>
        <time>2023-04-05T11:33:49Z</time>
      </trkpt>
      <trkpt lat="48.14503" lon="-3.73017">
        <ele>261.8</ele>
        <time>2023-04-05T11:33:50Z</time>
      </trkpt>
      <trkpt lat="48.14506" lon="-3.73014">
        <ele>261.8</ele>
        <time>2023-04-05T11:33:51Z</time>
      </trkpt>
      <trkpt lat="48.14512" lon="-3.73008">
        <ele>261.8</ele>
        <time>2023-04-05T11:33:53Z</time>
      </trkpt>
      <trkpt lat="48.14515" lon="-3.73006">
        <ele>261.8</ele>
        <time>2023-04-05T11:33:54Z</time>
      </trkpt>
      <trkpt lat="48.14518" lon="-3.73002">
        <ele>261.7</ele>
        <time>2023-04-05T11:33:55Z</time>
      </trkpt>
      <trkpt lat="48.14521" lon="-3.72998">
        <ele>261.7</ele>
        <time>2023-04-05T11:33:57Z</time>
      </trkpt>
      <trkpt lat="48.14524" lon="-3.72995">
        <ele>261.6</ele>
        <time>2023-04-05T11:33:58Z</time>
      </trkpt>
      <trkpt lat="48.14528" lon="-3.72992">
        <ele>261.6</ele>
        <time>2023-04-05T11:33:59Z</time>
      </trkpt>
      <trkpt lat="48.14531" lon="-3.72989">
        <ele>261.5</ele>
        <time>2023-04-05T11:34:00Z</time>
      </trkpt>
      <trkpt lat="48.14534" lon="-3.72985">
        <ele>261.4</ele>
        <time>2023-04-05T11:34:01Z</time>
      </trkpt>
      <trkpt lat="48.14538" lon="-3.72981">
        <ele>261.3</ele>
        <time>2023-04-05T11:34:02Z</time>
      </trkpt>
      <trkpt lat="48.14542" lon="-3.72977">
        <ele>261.2</ele>
        <time>2023-04-05T11:34:03Z</time>
      </trkpt>
      <trkpt lat="48.14545" lon="-3.72972">
        <ele>261.1</ele>
        <time>2023-04-05T11:34:04Z</time>
      </trkpt>
      <trkpt lat="48.14549" lon="-3.72968">
        <ele>261</ele>
        <time>2023-04-05T11:34:05Z</time>
      </trkpt>
      <trkpt lat="48.14553" lon="-3.72963">
        <ele>260.9</ele>
        <time>2023-04-05T11:34:06Z</time>
      </trkpt>
      <trkpt lat="48.14556" lon="-3.72958">
        <ele>260.8</ele>
        <time>2023-04-05T11:34:07Z</time>
      </trkpt>
      <trkpt lat="48.1456" lon="-3.72952">
        <ele>260.7</ele>
        <time>2023-04-05T11:34:08Z</time>
      </trkpt>
      <trkpt lat="48.14563" lon="-3.72947">
        <ele>260.7</ele>
        <time>2023-04-05T11:34:09Z</time>
      </trkpt>
      <trkpt lat="48.14567" lon="-3.72941">
        <ele>260.6</ele>
        <time>2023-04-05T11:34:10Z</time>
      </trkpt>
      <trkpt lat="48.1457" lon="-3.72936">
        <ele>260.6</ele>
        <time>2023-04-05T11:34:11Z</time>
      </trkpt>
      <trkpt lat="48.14573" lon="-3.7293">
        <ele>260.5</ele>
        <time>2023-04-05T11:34:12Z</time>
      </trkpt>
      <trkpt lat="48.14576" lon="-3.72924">
        <ele>260.6</ele>
        <time>2023-04-05T11:34:13Z</time>
      </trkpt>
      <trkpt lat="48.14579" lon="-3.72918">
        <ele>260.6</ele>
        <time>2023-04-05T11:34:14Z</time>
      </trkpt>
      <trkpt lat="48.14582" lon="-3.72911">
        <ele>260.7</ele>
        <time>2023-04-05T11:34:15Z</time>
      </trkpt>
      <trkpt lat="48.14585" lon="-3.72905">
        <ele>260.7</ele>
        <time>2023-04-05T11:34:16Z</time>
      </trkpt>
      <trkpt lat="48.14587" lon="-3.72898">
        <ele>260.8</ele>
        <time>2023-04-05T11:34:17Z</time>
      </trkpt>
      <trkpt lat="48.14587" lon="-3.7289">
        <ele>261</ele>
        <time>2023-04-05T11:34:18Z</time>
      </trkpt>
      <trkpt lat="48.14585" lon="-3.72882">
        <ele>261</ele>
        <time>2023-04-05T11:34:19Z</time>
      </trkpt>
      <trkpt lat="48.14583" lon="-3.72876">
        <ele>261.1</ele>
        <time>2023-04-05T11:34:20Z</time>
      </trkpt>
      <trkpt lat="48.1458" lon="-3.72871">
        <ele>261.1</ele>
        <time>2023-04-05T11:34:21Z</time>
      </trkpt>
      <trkpt lat="48.14577" lon="-3.72866">
        <ele>261.1</ele>
        <time>2023-04-05T11:34:22Z</time>
      </trkpt>
      <trkpt lat="48.14576" lon="-3.72864">
        <ele>261.1</ele>
        <time>2023-04-05T11:34:23Z</time>
      </trkpt>
      <trkpt lat="48.14574" lon="-3.72861">
        <ele>261.2</ele>
        <time>2023-04-05T11:34:24Z</time>
      </trkpt>
      <trkpt lat="48.14572" lon="-3.72857">
        <ele>261.2</ele>
        <time>2023-04-05T11:34:25Z</time>
      </trkpt>
      <trkpt lat="48.1457" lon="-3.72853">
        <ele>261.3</ele>
        <time>2023-04-05T11:34:26Z</time>
      </trkpt>
      <trkpt lat="48.14567" lon="-3.72847">
        <ele>261.4</ele>
        <time>2023-04-05T11:34:27Z</time>
      </trkpt>
      <trkpt lat="48.14567" lon="-3.72845">
        <ele>261.4</ele>
        <time>2023-04-05T11:34:28Z</time>
      </trkpt>
      <trkpt lat="48.14564" lon="-3.72839">
        <ele>261.6</ele>
        <time>2023-04-05T11:34:30Z</time>
      </trkpt>
      <trkpt lat="48.14562" lon="-3.72836">
        <ele>261.7</ele>
        <time>2023-04-05T11:34:31Z</time>
      </trkpt>
      <trkpt lat="48.1456" lon="-3.72832">
        <ele>261.8</ele>
        <time>2023-04-05T11:34:32Z</time>
      </trkpt>
      <trkpt lat="48.14559" lon="-3.72829">
        <ele>261.9</ele>
        <time>2023-04-05T11:34:33Z</time>
      </trkpt>
      <trkpt lat="48.14557" lon="-3.72825">
        <ele>262.1</ele>
        <time>2023-04-05T11:34:34Z</time>
      </trkpt>
      <trkpt lat="48.14555" lon="-3.72822">
        <ele>262.2</ele>
        <time>2023-04-05T11:34:35Z</time>
      </trkpt>
      <trkpt lat="48.14554" lon="-3.72818">
        <ele>262.4</ele>
        <time>2023-04-05T11:34:36Z</time>
      </trkpt>
      <trkpt lat="48.1455" lon="-3.72813">
        <ele>262.6</ele>
        <time>2023-04-05T11:34:37Z</time>
      </trkpt>
      <trkpt lat="48.14548" lon="-3.72811">
        <ele>262.8</ele>
        <time>2023-04-05T11:34:38Z</time>
      </trkpt>
      <trkpt lat="48.14544" lon="-3.72809">
        <ele>263</ele>
        <time>2023-04-05T11:34:40Z</time>
      </trkpt>
      <trkpt lat="48.1454" lon="-3.72811">
        <ele>263</ele>
        <time>2023-04-05T11:34:42Z</time>
      </trkpt>
      <trkpt lat="48.14538" lon="-3.72813">
        <ele>263</ele>
        <time>2023-04-05T11:34:43Z</time>
      </trkpt>
      <trkpt lat="48.14535" lon="-3.72814">
        <ele>263</ele>
        <time>2023-04-05T11:34:44Z</time>
      </trkpt>
      <trkpt lat="48.14531" lon="-3.72816">
        <ele>263</ele>
        <time>2023-04-05T11:34:45Z</time>
      </trkpt>
      <trkpt lat="48.1453" lon="-3.72816">
        <ele>263</ele>
        <time>2023-04-05T11:34:46Z</time>
      </trkpt>
      <trkpt lat="48.14525" lon="-3.72817">
        <ele>262.9</ele>
        <time>2023-04-05T11:34:47Z</time>
      </trkpt>
      <trkpt lat="48.1452" lon="-3.72819">
        <ele>262.8</ele>
        <time>2023-04-05T11:34:49Z</time>
      </trkpt>
      <trkpt lat="48.14519" lon="-3.72819">
        <ele>262.8</ele>
        <time>2023-04-05T11:34:50Z</time>
      </trkpt>
      <trkpt lat="48.14517" lon="-3.72819">
        <ele>262.8</ele>
        <time>2023-04-05T11:34:51Z</time>
      </trkpt>
      <trkpt lat="48.14513" lon="-3.7282">
        <ele>262.6</ele>
        <time>2023-04-05T11:34:52Z</time>
      </trkpt>
      <trkpt lat="48.1451" lon="-3.7282">
        <ele>262.6</ele>
        <time>2023-04-05T11:34:54Z</time>
      </trkpt>
      <trkpt lat="48.14508" lon="-3.7282">
        <ele>262.6</ele>
        <time>2023-04-05T11:34:55Z</time>
      </trkpt>
      <trkpt lat="48.14507" lon="-3.7282">
        <ele>262.6</ele>
        <time>2023-04-05T11:34:56Z</time>
      </trkpt>
      <trkpt lat="48.14506" lon="-3.7282">
        <ele>262.6</ele>
        <time>2023-04-05T11:34:57Z</time>
      </trkpt>
      <trkpt lat="48.14506" lon="-3.7282">
        <ele>262.6</ele>
        <time>2023-04-05T11:34:58Z</time>
      </trkpt>
      <trkpt lat="48.14506" lon="-3.72821">
        <ele>262.6</ele>
        <time>2023-04-05T11:34:59Z</time>
      </trkpt>
      <trkpt lat="48.14506" lon="-3.72821">
        <ele>262.6</ele>
        <time>2023-04-05T11:35:00Z</time>
      </trkpt>
      <trkpt lat="48.14506" lon="-3.72822">
        <ele>262.7</ele>
        <time>2023-04-05T11:35:01Z</time>
      </trkpt>
      <trkpt lat="48.14505" lon="-3.72823">
        <ele>262.7</ele>
        <time>2023-04-05T11:35:02Z</time>
      </trkpt>
      <trkpt lat="48.14505" lon="-3.72824">
        <ele>262.7</ele>
        <time>2023-04-05T11:35:03Z</time>
      </trkpt>
      <trkpt lat="48.14504" lon="-3.72823">
        <ele>262.7</ele>
        <time>2023-04-05T11:35:04Z</time>
      </trkpt>
      <trkpt lat="48.14504" lon="-3.72823">
        <ele>262.7</ele>
        <time>2023-04-05T11:35:05Z</time>
      </trkpt>
      <trkpt lat="48.14504" lon="-3.72823">
        <ele>262.7</ele>
        <time>2023-04-05T11:35:06Z</time>
      </trkpt>
      <trkpt lat="48.14504" lon="-3.72823">
        <ele>262.7</ele>
        <time>2023-04-05T11:35:07Z</time>
      </trkpt>
      <trkpt lat="48.14504" lon="-3.72823">
        <ele>262.7</ele>
        <time>2023-04-05T11:35:08Z</time>
      </trkpt>
      <trkpt lat="48.14504" lon="-3.72823">
        <ele>262.7</ele>
        <time>2023-04-05T11:35:09Z</time>
      </trkpt>
      <trkpt lat="48.14504" lon="-3.72823">
        <ele>262.7</ele>
        <time>2023-04-05T11:35:10Z</time>
      </trkpt>
      <trkpt lat="48.14504" lon="-3.72823">
        <ele>262.7</ele>
        <time>2023-04-05T11:35:11Z</time>
      </trkpt>
      <trkpt lat="48.14504" lon="-3.72823">
        <ele>262.7</ele>
        <time>2023-04-05T11:35:12Z</time>
      </trkpt>
      <trkpt lat="48.14504" lon="-3.72823">
        <ele>262.7</ele>
        <time>2023-04-05T11:35:13Z</time>
      </trkpt>
      <trkpt lat="48.14504" lon="-3.72823">
        <ele>262.7</ele>
        <time>2023-04-05T11:35:14Z</time>
      </trkpt>
      <trkpt lat="48.14506" lon="-3.7282">
        <ele>262.8</ele>
        <time>2023-04-05T11:35:37Z</time>
      </trkpt>
      <trkpt lat="48.14506" lon="-3.7282">
        <ele>262.8</ele>
        <time>2023-04-05T11:35:38Z</time>
      </trkpt>
      <trkpt lat="48.14505" lon="-3.72819">
        <ele>262.8</ele>
        <time>2023-04-05T11:35:40Z</time>
      </trkpt>
      <trkpt lat="48.14505" lon="-3.7282">
        <ele>262.8</ele>
        <time>2023-04-05T11:35:41Z</time>
      </trkpt>
      <trkpt lat="48.14505" lon="-3.7282">
        <ele>262.8</ele>
        <time>2023-04-05T11:35:42Z</time>
      </trkpt>
      <trkpt lat="48.14505" lon="-3.7282">
        <ele>262.8</ele>
        <time>2023-04-05T11:35:43Z</time>
      </trkpt>
      <trkpt lat="48.14505" lon="-3.7282">
        <ele>262.8</ele>
        <time>2023-04-05T11:35:44Z</time>
      </trkpt>
      <trkpt lat="48.14505" lon="-3.7282">
        <ele>262.8</ele>
        <time>2023-04-05T11:35:45Z</time>
      </trkpt>
      <trkpt lat="48.14504" lon="-3.7282">
        <ele>262.8</ele>
        <time>2023-04-05T11:35:46Z</time>
      </trkpt>
      <trkpt lat="48.14504" lon="-3.72821">
        <ele>262.8</ele>
        <time>2023-04-05T11:35:47Z</time>
      </trkpt>
      <trkpt lat="48.14503" lon="-3.72822">
        <ele>262.8</ele>
        <time>2023-04-05T11:35:48Z</time>
      </trkpt>
      <trkpt lat="48.14503" lon="-3.72822">
        <ele>262.8</ele>
        <time>2023-04-05T11:35:49Z</time>
      </trkpt>
      <trkpt lat="48.14504" lon="-3.72822">
        <ele>262.8</ele>
        <time>2023-04-05T11:35:50Z</time>
      </trkpt>
      <trkpt lat="48.14504" lon="-3.72821">
        <ele>262.8</ele>
        <time>2023-04-05T11:35:51Z</time>
      </trkpt>
      <trkpt lat="48.14505" lon="-3.72821">
        <ele>262.8</ele>
        <time>2023-04-05T11:35:52Z</time>
      </trkpt>
      <trkpt lat="48.14505" lon="-3.72821">
        <ele>262.8</ele>
        <time>2023-04-05T11:35:53Z</time>
      </trkpt>
      <trkpt lat="48.14506" lon="-3.7282">
        <ele>262.8</ele>
        <time>2023-04-05T11:35:54Z</time>
      </trkpt>
      <trkpt lat="48.14506" lon="-3.7282">
        <ele>262.8</ele>
        <time>2023-04-05T11:35:55Z</time>
      </trkpt>
      <trkpt lat="48.14506" lon="-3.72819">
        <ele>262.9</ele>
        <time>2023-04-05T11:35:56Z</time>
      </trkpt>
      <trkpt lat="48.14507" lon="-3.72819">
        <ele>262.9</ele>
        <time>2023-04-05T11:35:57Z</time>
      </trkpt>
      <trkpt lat="48.14507" lon="-3.72818">
        <ele>262.9</ele>
        <time>2023-04-05T11:35:58Z</time>
      </trkpt>
      <trkpt lat="48.14508" lon="-3.72818">
        <ele>262.9</ele>
        <time>2023-04-05T11:35:59Z</time>
      </trkpt>
      <trkpt lat="48.14508" lon="-3.72817">
        <ele>262.9</ele>
        <time>2023-04-05T11:36:00Z</time>
      </trkpt>
      <trkpt lat="48.14509" lon="-3.72817">
        <ele>262.9</ele>
        <time>2023-04-05T11:36:31Z</time>
      </trkpt>
      <trkpt lat="48.14509" lon="-3.72817">
        <ele>262.9</ele>
        <time>2023-04-05T11:36:32Z</time>
      </trkpt>
      <trkpt lat="48.14509" lon="-3.72816">
        <ele>262.9</ele>
        <time>2023-04-05T11:36:34Z</time>
      </trkpt>
      <trkpt lat="48.1451" lon="-3.72816">
        <ele>262.9</ele>
        <time>2023-04-05T11:36:35Z</time>
      </trkpt>
      <trkpt lat="48.14514" lon="-3.72815">
        <ele>262.9</ele>
        <time>2023-04-05T11:36:36Z</time>
      </trkpt>
      <trkpt lat="48.14515" lon="-3.72816">
        <ele>262.9</ele>
        <time>2023-04-05T11:36:37Z</time>
      </trkpt>
      <trkpt lat="48.14519" lon="-3.72816">
        <ele>263</ele>
        <time>2023-04-05T11:36:38Z</time>
      </trkpt>
      <trkpt lat="48.14522" lon="-3.72817">
        <ele>263</ele>
        <time>2023-04-05T11:36:39Z</time>
      </trkpt>
      <trkpt lat="48.14525" lon="-3.72816">
        <ele>263</ele>
        <time>2023-04-05T11:36:40Z</time>
      </trkpt>
      <trkpt lat="48.14528" lon="-3.72815">
        <ele>263</ele>
        <time>2023-04-05T11:36:41Z</time>
      </trkpt>
      <trkpt lat="48.14531" lon="-3.72814">
        <ele>263</ele>
        <time>2023-04-05T11:36:42Z</time>
      </trkpt>
      <trkpt lat="48.14535" lon="-3.72812">
        <ele>263</ele>
        <time>2023-04-05T11:36:43Z</time>
      </trkpt>
      <trkpt lat="48.14536" lon="-3.72812">
        <ele>263</ele>
        <time>2023-04-05T11:36:44Z</time>
      </trkpt>
      <trkpt lat="48.14539" lon="-3.7281">
        <ele>263</ele>
        <time>2023-04-05T11:36:45Z</time>
      </trkpt>
      <trkpt lat="48.14541" lon="-3.72808">
        <ele>263</ele>
        <time>2023-04-05T11:36:46Z</time>
      </trkpt>
      <trkpt lat="48.14544" lon="-3.72804">
        <ele>263</ele>
        <time>2023-04-05T11:36:47Z</time>
      </trkpt>
      <trkpt lat="48.14544" lon="-3.72799">
        <ele>263.1</ele>
        <time>2023-04-05T11:36:48Z</time>
      </trkpt>
      <trkpt lat="48.14544" lon="-3.72793">
        <ele>263.2</ele>
        <time>2023-04-05T11:36:49Z</time>
      </trkpt>
      <trkpt lat="48.14543" lon="-3.72788">
        <ele>263.3</ele>
        <time>2023-04-05T11:36:50Z</time>
      </trkpt>
      <trkpt lat="48.14542" lon="-3.72783">
        <ele>263.4</ele>
        <time>2023-04-05T11:36:51Z</time>
      </trkpt>
      <trkpt lat="48.14541" lon="-3.72778">
        <ele>263.5</ele>
        <time>2023-04-05T11:36:52Z</time>
      </trkpt>
      <trkpt lat="48.1454" lon="-3.72772">
        <ele>263.7</ele>
        <time>2023-04-05T11:36:53Z</time>
      </trkpt>
      <trkpt lat="48.1454" lon="-3.7277">
        <ele>263.8</ele>
        <time>2023-04-05T11:36:54Z</time>
      </trkpt>
      <trkpt lat="48.14539" lon="-3.72766">
        <ele>264</ele>
        <time>2023-04-05T11:36:55Z</time>
      </trkpt>
      <trkpt lat="48.14538" lon="-3.7276">
        <ele>264.3</ele>
        <time>2023-04-05T11:36:56Z</time>
      </trkpt>
      <trkpt lat="48.14538" lon="-3.72753">
        <ele>264.6</ele>
        <time>2023-04-05T11:36:58Z</time>
      </trkpt>
      <trkpt lat="48.14538" lon="-3.72751">
        <ele>264.8</ele>
        <time>2023-04-05T11:36:59Z</time>
      </trkpt>
      <trkpt lat="48.14538" lon="-3.72749">
        <ele>264.9</ele>
        <time>2023-04-05T11:37:00Z</time>
      </trkpt>
      <trkpt lat="48.14537" lon="-3.72744">
        <ele>265.2</ele>
        <time>2023-04-05T11:37:01Z</time>
      </trkpt>
      <trkpt lat="48.14537" lon="-3.72742">
        <ele>265.3</ele>
        <time>2023-04-05T11:37:02Z</time>
      </trkpt>
      <trkpt lat="48.14537" lon="-3.72738">
        <ele>265.7</ele>
        <time>2023-04-05T11:37:03Z</time>
      </trkpt>
      <trkpt lat="48.14537" lon="-3.72736">
        <ele>265.8</ele>
        <time>2023-04-05T11:37:04Z</time>
      </trkpt>
      <trkpt lat="48.14537" lon="-3.72731">
        <ele>266.2</ele>
        <time>2023-04-05T11:37:05Z</time>
      </trkpt>
      <trkpt lat="48.14537" lon="-3.72729">
        <ele>266.4</ele>
        <time>2023-04-05T11:37:06Z</time>
      </trkpt>
      <trkpt lat="48.14537" lon="-3.72724">
        <ele>266.8</ele>
        <time>2023-04-05T11:37:07Z</time>
      </trkpt>
      <trkpt lat="48.14536" lon="-3.72723">
        <ele>266.9</ele>
        <time>2023-04-05T11:37:08Z</time>
      </trkpt>
      <trkpt lat="48.14536" lon="-3.72717">
        <ele>267.4</ele>
        <time>2023-04-05T11:37:09Z</time>
      </trkpt>
      <trkpt lat="48.14536" lon="-3.72713">
        <ele>267.7</ele>
        <time>2023-04-05T11:37:10Z</time>
      </trkpt>
      <trkpt lat="48.14536" lon="-3.72709">
        <ele>268</ele>
        <time>2023-04-05T11:37:12Z</time>
      </trkpt>
      <trkpt lat="48.14535" lon="-3.72704">
        <ele>268.4</ele>
        <time>2023-04-05T11:37:13Z</time>
      </trkpt>
      <trkpt lat="48.14535" lon="-3.72702">
        <ele>268.5</ele>
        <time>2023-04-05T11:37:14Z</time>
      </trkpt>
      <trkpt lat="48.14535" lon="-3.72697">
        <ele>268.9</ele>
        <time>2023-04-05T11:37:15Z</time>
      </trkpt>
      <trkpt lat="48.14535" lon="-3.72695">
        <ele>269</ele>
        <time>2023-04-05T11:37:16Z</time>
      </trkpt>
      <trkpt lat="48.14535" lon="-3.72689">
        <ele>269.4</ele>
        <time>2023-04-05T11:37:18Z</time>
      </trkpt>
      <trkpt lat="48.14535" lon="-3.72685">
        <ele>269.7</ele>
        <time>2023-04-05T11:37:19Z</time>
      </trkpt>
      <trkpt lat="48.14534" lon="-3.72683">
        <ele>269.8</ele>
        <time>2023-04-05T11:37:20Z</time>
      </trkpt>
      <trkpt lat="48.14534" lon="-3.72679">
        <ele>270.1</ele>
        <time>2023-04-05T11:37:21Z</time>
      </trkpt>
      <trkpt lat="48.14534" lon="-3.72677">
        <ele>270.2</ele>
        <time>2023-04-05T11:37:22Z</time>
      </trkpt>
      <trkpt lat="48.14534" lon="-3.72673">
        <ele>270.4</ele>
        <time>2023-04-05T11:37:23Z</time>
      </trkpt>
      <trkpt lat="48.14534" lon="-3.72671">
        <ele>270.5</ele>
        <time>2023-04-05T11:37:24Z</time>
      </trkpt>
      <trkpt lat="48.14534" lon="-3.72666">
        <ele>270.7</ele>
        <time>2023-04-05T11:37:25Z</time>
      </trkpt>
      <trkpt lat="48.14534" lon="-3.72665">
        <ele>270.8</ele>
        <time>2023-04-05T11:37:26Z</time>
      </trkpt>
      <trkpt lat="48.14534" lon="-3.72661">
        <ele>271</ele>
        <time>2023-04-05T11:37:27Z</time>
      </trkpt>
      <trkpt lat="48.14534" lon="-3.72659">
        <ele>271.1</ele>
        <time>2023-04-05T11:37:28Z</time>
      </trkpt>
      <trkpt lat="48.14532" lon="-3.72654">
        <ele>271.3</ele>
        <time>2023-04-05T11:37:29Z</time>
      </trkpt>
      <trkpt lat="48.14532" lon="-3.72653">
        <ele>271.4</ele>
        <time>2023-04-05T11:37:30Z</time>
      </trkpt>
      <trkpt lat="48.1453" lon="-3.72648">
        <ele>271.6</ele>
        <time>2023-04-05T11:37:31Z</time>
      </trkpt>
      <trkpt lat="48.1453" lon="-3.72647">
        <ele>271.7</ele>
        <time>2023-04-05T11:37:32Z</time>
      </trkpt>
      <trkpt lat="48.14528" lon="-3.72643">
        <ele>271.8</ele>
        <time>2023-04-05T11:37:33Z</time>
      </trkpt>
      <trkpt lat="48.14527" lon="-3.72641">
        <ele>271.9</ele>
        <time>2023-04-05T11:37:34Z</time>
      </trkpt>
      <trkpt lat="48.14526" lon="-3.72637">
        <ele>272</ele>
        <time>2023-04-05T11:37:35Z</time>
      </trkpt>
      <trkpt lat="48.14526" lon="-3.72636">
        <ele>272.1</ele>
        <time>2023-04-05T11:37:36Z</time>
      </trkpt>
      <trkpt lat="48.14523" lon="-3.72631">
        <ele>272.3</ele>
        <time>2023-04-05T11:37:37Z</time>
      </trkpt>
      <trkpt lat="48.14521" lon="-3.72626">
        <ele>272.4</ele>
        <time>2023-04-05T11:37:39Z</time>
      </trkpt>
      <trkpt lat="48.1452" lon="-3.72625">
        <ele>272.5</ele>
        <time>2023-04-05T11:37:40Z</time>
      </trkpt>
      <trkpt lat="48.14517" lon="-3.72621">
        <ele>272.6</ele>
        <time>2023-04-05T11:37:41Z</time>
      </trkpt>
      <trkpt lat="48.14517" lon="-3.7262">
        <ele>272.6</ele>
        <time>2023-04-05T11:37:42Z</time>
      </trkpt>
      <trkpt lat="48.14515" lon="-3.72616">
        <ele>272.7</ele>
        <time>2023-04-05T11:37:43Z</time>
      </trkpt>
      <trkpt lat="48.14514" lon="-3.72614">
        <ele>272.7</ele>
        <time>2023-04-05T11:37:44Z</time>
      </trkpt>
      <trkpt lat="48.14512" lon="-3.7261">
        <ele>272.7</ele>
        <time>2023-04-05T11:37:45Z</time>
      </trkpt>
      <trkpt lat="48.14511" lon="-3.72609">
        <ele>272.8</ele>
        <time>2023-04-05T11:37:46Z</time>
      </trkpt>
      <trkpt lat="48.14509" lon="-3.72605">
        <ele>272.8</ele>
        <time>2023-04-05T11:37:47Z</time>
      </trkpt>
      <trkpt lat="48.14508" lon="-3.72604">
        <ele>272.7</ele>
        <time>2023-04-05T11:37:48Z</time>
      </trkpt>
      <trkpt lat="48.14506" lon="-3.72598">
        <ele>272.7</ele>
        <time>2023-04-05T11:37:49Z</time>
      </trkpt>
      <trkpt lat="48.14503" lon="-3.72594">
        <ele>272.6</ele>
        <time>2023-04-05T11:37:51Z</time>
      </trkpt>
      <trkpt lat="48.14503" lon="-3.72593">
        <ele>272.6</ele>
        <time>2023-04-05T11:37:52Z</time>
      </trkpt>
      <trkpt lat="48.14501" lon="-3.72588">
        <ele>272.4</ele>
        <time>2023-04-05T11:37:53Z</time>
      </trkpt>
      <trkpt lat="48.145" lon="-3.72587">
        <ele>272.4</ele>
        <time>2023-04-05T11:37:54Z</time>
      </trkpt>
      <trkpt lat="48.14497" lon="-3.72581">
        <ele>272.1</ele>
        <time>2023-04-05T11:37:55Z</time>
      </trkpt>
      <trkpt lat="48.14495" lon="-3.72578">
        <ele>272</ele>
        <time>2023-04-05T11:37:56Z</time>
      </trkpt>
      <trkpt lat="48.14494" lon="-3.72574">
        <ele>271.7</ele>
        <time>2023-04-05T11:37:58Z</time>
      </trkpt>
      <trkpt lat="48.14492" lon="-3.72571">
        <ele>271.5</ele>
        <time>2023-04-05T11:37:59Z</time>
      </trkpt>
      <trkpt lat="48.14489" lon="-3.72567">
        <ele>271.2</ele>
        <time>2023-04-05T11:38:00Z</time>
      </trkpt>
      <trkpt lat="48.14487" lon="-3.72563">
        <ele>270.8</ele>
        <time>2023-04-05T11:38:01Z</time>
      </trkpt>
      <trkpt lat="48.14485" lon="-3.72558">
        <ele>270.5</ele>
        <time>2023-04-05T11:38:02Z</time>
      </trkpt>
      <trkpt lat="48.14482" lon="-3.72554">
        <ele>270.1</ele>
        <time>2023-04-05T11:38:03Z</time>
      </trkpt>
      <trkpt lat="48.14481" lon="-3.72551">
        <ele>269.9</ele>
        <time>2023-04-05T11:38:04Z</time>
      </trkpt>
      <trkpt lat="48.14481" lon="-3.72551">
        <ele>269.9</ele>
        <time>2023-04-05T11:38:05Z</time>
      </trkpt>
      <trkpt lat="48.14481" lon="-3.7255">
        <ele>269.8</ele>
        <time>2023-04-05T11:38:06Z</time>
      </trkpt>
      <trkpt lat="48.1448" lon="-3.7255">
        <ele>269.8</ele>
        <time>2023-04-05T11:38:07Z</time>
      </trkpt>
      <trkpt lat="48.1448" lon="-3.72549">
        <ele>269.7</ele>
        <time>2023-04-05T11:38:08Z</time>
      </trkpt>
      <trkpt lat="48.1448" lon="-3.72549">
        <ele>269.7</ele>
        <time>2023-04-05T11:38:09Z</time>
      </trkpt>
      <trkpt lat="48.1448" lon="-3.72548">
        <ele>269.7</ele>
        <time>2023-04-05T11:38:10Z</time>
      </trkpt>
      <trkpt lat="48.14479" lon="-3.72548">
        <ele>269.6</ele>
        <time>2023-04-05T11:38:11Z</time>
      </trkpt>
      <trkpt lat="48.14479" lon="-3.72547">
        <ele>269.6</ele>
        <time>2023-04-05T11:38:12Z</time>
      </trkpt>
      <trkpt lat="48.14479" lon="-3.72547">
        <ele>269.5</ele>
        <time>2023-04-05T11:38:13Z</time>
      </trkpt>
      <trkpt lat="48.14479" lon="-3.72546">
        <ele>269.5</ele>
        <time>2023-04-05T11:38:14Z</time>
      </trkpt>
      <trkpt lat="48.14478" lon="-3.72546">
        <ele>269.4</ele>
        <time>2023-04-05T11:38:15Z</time>
      </trkpt>
      <trkpt lat="48.14478" lon="-3.72545">
        <ele>269.4</ele>
        <time>2023-04-05T11:38:24Z</time>
      </trkpt>
      <trkpt lat="48.14478" lon="-3.72545">
        <ele>269.4</ele>
        <time>2023-04-05T11:38:25Z</time>
      </trkpt>
      <trkpt lat="48.14478" lon="-3.72544">
        <ele>269.3</ele>
        <time>2023-04-05T11:38:26Z</time>
      </trkpt>
      <trkpt lat="48.14476" lon="-3.7254">
        <ele>269</ele>
        <time>2023-04-05T11:38:27Z</time>
      </trkpt>
      <trkpt lat="48.14472" lon="-3.72533">
        <ele>268.4</ele>
        <time>2023-04-05T11:38:28Z</time>
      </trkpt>
      <trkpt lat="48.14467" lon="-3.7252">
        <ele>267.5</ele>
        <time>2023-04-05T11:38:30Z</time>
      </trkpt>
      <trkpt lat="48.14466" lon="-3.72512">
        <ele>267.1</ele>
        <time>2023-04-05T11:38:31Z</time>
      </trkpt>
      <trkpt lat="48.14465" lon="-3.72503">
        <ele>266.8</ele>
        <time>2023-04-05T11:38:32Z</time>
      </trkpt>
      <trkpt lat="48.14466" lon="-3.72494">
        <ele>266.5</ele>
        <time>2023-04-05T11:38:33Z</time>
      </trkpt>
      <trkpt lat="48.14467" lon="-3.72486">
        <ele>266.3</ele>
        <time>2023-04-05T11:38:34Z</time>
      </trkpt>
      <trkpt lat="48.14468" lon="-3.72478">
        <ele>266.2</ele>
        <time>2023-04-05T11:38:35Z</time>
      </trkpt>
      <trkpt lat="48.14469" lon="-3.72471">
        <ele>266.1</ele>
        <time>2023-04-05T11:38:36Z</time>
      </trkpt>
      <trkpt lat="48.14471" lon="-3.72464">
        <ele>266.1</ele>
        <time>2023-04-05T11:38:37Z</time>
      </trkpt>
      <trkpt lat="48.14472" lon="-3.72457">
        <ele>266</ele>
        <time>2023-04-05T11:38:38Z</time>
      </trkpt>
      <trkpt lat="48.14473" lon="-3.7245">
        <ele>265.9</ele>
        <time>2023-04-05T11:38:39Z</time>
      </trkpt>
      <trkpt lat="48.14474" lon="-3.72444">
        <ele>265.9</ele>
        <time>2023-04-05T11:38:40Z</time>
      </trkpt>
      <trkpt lat="48.14475" lon="-3.7244">
        <ele>265.8</ele>
        <time>2023-04-05T11:38:41Z</time>
      </trkpt>
      <trkpt lat="48.14476" lon="-3.72432">
        <ele>265.8</ele>
        <time>2023-04-05T11:38:42Z</time>
      </trkpt>
      <trkpt lat="48.14477" lon="-3.72427">
        <ele>265.7</ele>
        <time>2023-04-05T11:38:43Z</time>
      </trkpt>
      <trkpt lat="48.14478" lon="-3.7242">
        <ele>265.7</ele>
        <time>2023-04-05T11:38:44Z</time>
      </trkpt>
      <trkpt lat="48.14478" lon="-3.72415">
        <ele>265.6</ele>
        <time>2023-04-05T11:38:45Z</time>
      </trkpt>
      <trkpt lat="48.14481" lon="-3.72406">
        <ele>265.8</ele>
        <time>2023-04-05T11:38:46Z</time>
      </trkpt>
      <trkpt lat="48.14484" lon="-3.72402">
        <ele>265.8</ele>
        <time>2023-04-05T11:38:47Z</time>
      </trkpt>
      <trkpt lat="48.14486" lon="-3.72399">
        <ele>265.9</ele>
        <time>2023-04-05T11:38:49Z</time>
      </trkpt>
      <trkpt lat="48.14486" lon="-3.72392">
        <ele>265.9</ele>
        <time>2023-04-05T11:38:50Z</time>
      </trkpt>
      <trkpt lat="48.14486" lon="-3.72389">
        <ele>265.9</ele>
        <time>2023-04-05T11:38:51Z</time>
      </trkpt>
      <trkpt lat="48.14485" lon="-3.72381">
        <ele>266</ele>
        <time>2023-04-05T11:38:53Z</time>
      </trkpt>
      <trkpt lat="48.14485" lon="-3.72373">
        <ele>266.1</ele>
        <time>2023-04-05T11:38:55Z</time>
      </trkpt>
      <trkpt lat="48.14485" lon="-3.72368">
        <ele>266.1</ele>
        <time>2023-04-05T11:38:57Z</time>
      </trkpt>
      <trkpt lat="48.14486" lon="-3.72364">
        <ele>266.1</ele>
        <time>2023-04-05T11:38:58Z</time>
      </trkpt>
      <trkpt lat="48.14488" lon="-3.72363">
        <ele>266.2</ele>
        <time>2023-04-05T11:39:00Z</time>
      </trkpt>
      <trkpt lat="48.14491" lon="-3.72367">
        <ele>266.2</ele>
        <time>2023-04-05T11:39:01Z</time>
      </trkpt>
      <trkpt lat="48.1449" lon="-3.72372">
        <ele>266.2</ele>
        <time>2023-04-05T11:39:03Z</time>
      </trkpt>
      <trkpt lat="48.14489" lon="-3.72373">
        <ele>266.3</ele>
        <time>2023-04-05T11:39:04Z</time>
      </trkpt>
      <trkpt lat="48.14488" lon="-3.72375">
        <ele>266.3</ele>
        <time>2023-04-05T11:39:05Z</time>
      </trkpt>
      <trkpt lat="48.14487" lon="-3.72379">
        <ele>266.3</ele>
        <time>2023-04-05T11:39:06Z</time>
      </trkpt>
      <trkpt lat="48.14487" lon="-3.72381">
        <ele>266.3</ele>
        <time>2023-04-05T11:39:07Z</time>
      </trkpt>
      <trkpt lat="48.14486" lon="-3.72383">
        <ele>266.3</ele>
        <time>2023-04-05T11:39:08Z</time>
      </trkpt>
      <trkpt lat="48.14485" lon="-3.72384">
        <ele>266.4</ele>
        <time>2023-04-05T11:39:09Z</time>
      </trkpt>
      <trkpt lat="48.14484" lon="-3.72383">
        <ele>266.4</ele>
        <time>2023-04-05T11:39:10Z</time>
      </trkpt>
      <trkpt lat="48.14484" lon="-3.72383">
        <ele>266.4</ele>
        <time>2023-04-05T11:39:11Z</time>
      </trkpt>
      <trkpt lat="48.14484" lon="-3.72383">
        <ele>266.4</ele>
        <time>2023-04-05T11:39:12Z</time>
      </trkpt>
      <trkpt lat="48.14483" lon="-3.72383">
        <ele>266.4</ele>
        <time>2023-04-05T11:39:13Z</time>
      </trkpt>
      <trkpt lat="48.14483" lon="-3.72382">
        <ele>266.4</ele>
        <time>2023-04-05T11:39:14Z</time>
      </trkpt>
      <trkpt lat="48.14483" lon="-3.72381">
        <ele>266.4</ele>
        <time>2023-04-05T11:39:15Z</time>
      </trkpt>
      <trkpt lat="48.14483" lon="-3.7238">
        <ele>266.4</ele>
        <time>2023-04-05T11:39:16Z</time>
      </trkpt>
      <trkpt lat="48.14483" lon="-3.7238">
        <ele>266.4</ele>
        <time>2023-04-05T11:39:17Z</time>
      </trkpt>
      <trkpt lat="48.14483" lon="-3.7238">
        <ele>266.4</ele>
        <time>2023-04-05T11:39:18Z</time>
      </trkpt>
      <trkpt lat="48.14483" lon="-3.7238">
        <ele>266.4</ele>
        <time>2023-04-05T11:39:19Z</time>
      </trkpt>
      <trkpt lat="48.14483" lon="-3.72381">
        <ele>266.4</ele>
        <time>2023-04-05T11:39:20Z</time>
      </trkpt>
      <trkpt lat="48.14483" lon="-3.72382">
        <ele>266.4</ele>
        <time>2023-04-05T11:39:21Z</time>
      </trkpt>
      <trkpt lat="48.14483" lon="-3.72383">
        <ele>266.4</ele>
        <time>2023-04-05T11:39:22Z</time>
      </trkpt>
      <trkpt lat="48.14483" lon="-3.72384">
        <ele>266.4</ele>
        <time>2023-04-05T11:39:23Z</time>
      </trkpt>
      <trkpt lat="48.14483" lon="-3.72384">
        <ele>266.4</ele>
        <time>2023-04-05T11:39:24Z</time>
      </trkpt>
      <trkpt lat="48.14483" lon="-3.72385">
        <ele>266.5</ele>
        <time>2023-04-05T11:39:25Z</time>
      </trkpt>
      <trkpt lat="48.14484" lon="-3.72389">
        <ele>266.5</ele>
        <time>2023-04-05T11:39:26Z</time>
      </trkpt>
      <trkpt lat="48.14484" lon="-3.7239">
        <ele>266.5</ele>
        <time>2023-04-05T11:39:27Z</time>
      </trkpt>
      <trkpt lat="48.14484" lon="-3.72392">
        <ele>266.5</ele>
        <time>2023-04-05T11:39:28Z</time>
      </trkpt>
      <trkpt lat="48.14483" lon="-3.72392">
        <ele>266.5</ele>
        <time>2023-04-05T11:39:29Z</time>
      </trkpt>
      <trkpt lat="48.14483" lon="-3.72391">
        <ele>266.5</ele>
        <time>2023-04-05T11:39:30Z</time>
      </trkpt>
      <trkpt lat="48.14483" lon="-3.7239">
        <ele>266.5</ele>
        <time>2023-04-05T11:39:31Z</time>
      </trkpt>
      <trkpt lat="48.14483" lon="-3.7239">
        <ele>266.5</ele>
        <time>2023-04-05T11:39:32Z</time>
      </trkpt>
      <trkpt lat="48.14483" lon="-3.72389">
        <ele>266.5</ele>
        <time>2023-04-05T11:39:33Z</time>
      </trkpt>
      <trkpt lat="48.14483" lon="-3.7239">
        <ele>266.5</ele>
        <time>2023-04-05T11:39:34Z</time>
      </trkpt>
      <trkpt lat="48.14483" lon="-3.7239">
        <ele>266.5</ele>
        <time>2023-04-05T11:39:35Z</time>
      </trkpt>
      <trkpt lat="48.14483" lon="-3.72391">
        <ele>266.5</ele>
        <time>2023-04-05T11:39:36Z</time>
      </trkpt>
      <trkpt lat="48.14483" lon="-3.72392">
        <ele>266.5</ele>
        <time>2023-04-05T11:39:37Z</time>
      </trkpt>
      <trkpt lat="48.14483" lon="-3.72393">
        <ele>266.6</ele>
        <time>2023-04-05T11:39:38Z</time>
      </trkpt>
      <trkpt lat="48.14481" lon="-3.72392">
        <ele>266.6</ele>
        <time>2023-04-05T11:39:48Z</time>
      </trkpt>
      <trkpt lat="48.14479" lon="-3.72391">
        <ele>266.6</ele>
        <time>2023-04-05T11:39:49Z</time>
      </trkpt>
      <trkpt lat="48.14478" lon="-3.72389">
        <ele>266.6</ele>
        <time>2023-04-05T11:39:50Z</time>
      </trkpt>
      <trkpt lat="48.14477" lon="-3.72387">
        <ele>266.6</ele>
        <time>2023-04-05T11:39:51Z</time>
      </trkpt>
      <trkpt lat="48.14477" lon="-3.72385">
        <ele>266.7</ele>
        <time>2023-04-05T11:39:52Z</time>
      </trkpt>
      <trkpt lat="48.14475" lon="-3.72383">
        <ele>266.7</ele>
        <time>2023-04-05T11:39:53Z</time>
      </trkpt>
      <trkpt lat="48.14474" lon="-3.72381">
        <ele>266.7</ele>
        <time>2023-04-05T11:39:54Z</time>
      </trkpt>
      <trkpt lat="48.14473" lon="-3.72381">
        <ele>266.7</ele>
        <time>2023-04-05T11:39:55Z</time>
      </trkpt>
      <trkpt lat="48.14472" lon="-3.72381">
        <ele>266.7</ele>
        <time>2023-04-05T11:39:56Z</time>
      </trkpt>
      <trkpt lat="48.14469" lon="-3.72383">
        <ele>266.8</ele>
        <time>2023-04-05T11:39:57Z</time>
      </trkpt>
      <trkpt lat="48.14468" lon="-3.72384">
        <ele>266.8</ele>
        <time>2023-04-05T11:39:58Z</time>
      </trkpt>
      <trkpt lat="48.14468" lon="-3.72385">
        <ele>266.8</ele>
        <time>2023-04-05T11:39:59Z</time>
      </trkpt>
      <trkpt lat="48.14467" lon="-3.72386">
        <ele>266.8</ele>
        <time>2023-04-05T11:40:00Z</time>
      </trkpt>
      <trkpt lat="48.14466" lon="-3.72387">
        <ele>266.8</ele>
        <time>2023-04-05T11:40:01Z</time>
      </trkpt>
      <trkpt lat="48.14465" lon="-3.72388">
        <ele>266.8</ele>
        <time>2023-04-05T11:40:02Z</time>
      </trkpt>
      <trkpt lat="48.14463" lon="-3.72388">
        <ele>266.9</ele>
        <time>2023-04-05T11:40:03Z</time>
      </trkpt>
      <trkpt lat="48.14462" lon="-3.72388">
        <ele>266.9</ele>
        <time>2023-04-05T11:40:04Z</time>
      </trkpt>
      <trkpt lat="48.1446" lon="-3.72388">
        <ele>266.9</ele>
        <time>2023-04-05T11:40:06Z</time>
      </trkpt>
      <trkpt lat="48.14459" lon="-3.72387">
        <ele>266.9</ele>
        <time>2023-04-05T11:40:07Z</time>
      </trkpt>
      <trkpt lat="48.14458" lon="-3.72385">
        <ele>266.9</ele>
        <time>2023-04-05T11:40:08Z</time>
      </trkpt>
      <trkpt lat="48.14459" lon="-3.72385">
        <ele>266.9</ele>
        <time>2023-04-05T11:40:09Z</time>
      </trkpt>
      <trkpt lat="48.14459" lon="-3.72385">
        <ele>267</ele>
        <time>2023-04-05T11:40:10Z</time>
      </trkpt>
      <trkpt lat="48.1446" lon="-3.72385">
        <ele>267</ele>
        <time>2023-04-05T11:40:11Z</time>
      </trkpt>
      <trkpt lat="48.1446" lon="-3.72385">
        <ele>267</ele>
        <time>2023-04-05T11:40:12Z</time>
      </trkpt>
      <trkpt lat="48.14462" lon="-3.72385">
        <ele>267</ele>
        <time>2023-04-05T11:40:13Z</time>
      </trkpt>
      <trkpt lat="48.14463" lon="-3.72384">
        <ele>267</ele>
        <time>2023-04-05T11:40:14Z</time>
      </trkpt>
      <trkpt lat="48.14465" lon="-3.72383">
        <ele>267</ele>
        <time>2023-04-05T11:40:15Z</time>
      </trkpt>
      <trkpt lat="48.14466" lon="-3.72383">
        <ele>267.1</ele>
        <time>2023-04-05T11:40:16Z</time>
      </trkpt>
      <trkpt lat="48.14468" lon="-3.72382">
        <ele>267.1</ele>
        <time>2023-04-05T11:40:17Z</time>
      </trkpt>
      <trkpt lat="48.1447" lon="-3.72382">
        <ele>267.1</ele>
        <time>2023-04-05T11:40:18Z</time>
      </trkpt>
      <trkpt lat="48.14471" lon="-3.72382">
        <ele>267.1</ele>
        <time>2023-04-05T11:40:19Z</time>
      </trkpt>
      <trkpt lat="48.14472" lon="-3.72381">
        <ele>267.1</ele>
        <time>2023-04-05T11:40:20Z</time>
      </trkpt>
      <trkpt lat="48.14473" lon="-3.72381">
        <ele>267.1</ele>
        <time>2023-04-05T11:40:21Z</time>
      </trkpt>
      <trkpt lat="48.14474" lon="-3.72381">
        <ele>267.2</ele>
        <time>2023-04-05T11:40:22Z</time>
      </trkpt>
      <trkpt lat="48.14476" lon="-3.72381">
        <ele>267.2</ele>
        <time>2023-04-05T11:40:23Z</time>
      </trkpt>
      <trkpt lat="48.14477" lon="-3.72381">
        <ele>267.2</ele>
        <time>2023-04-05T11:40:24Z</time>
      </trkpt>
      <trkpt lat="48.14478" lon="-3.72381">
        <ele>267.2</ele>
        <time>2023-04-05T11:40:25Z</time>
      </trkpt>
      <trkpt lat="48.14479" lon="-3.72381">
        <ele>267.2</ele>
        <time>2023-04-05T11:40:26Z</time>
      </trkpt>
      <trkpt lat="48.1448" lon="-3.72381">
        <ele>267.2</ele>
        <time>2023-04-05T11:40:27Z</time>
      </trkpt>
      <trkpt lat="48.14481" lon="-3.72381">
        <ele>267.2</ele>
        <time>2023-04-05T11:40:28Z</time>
      </trkpt>
      <trkpt lat="48.14482" lon="-3.7238">
        <ele>267.3</ele>
        <time>2023-04-05T11:40:29Z</time>
      </trkpt>
      <trkpt lat="48.14484" lon="-3.7238">
        <ele>267.3</ele>
        <time>2023-04-05T11:40:31Z</time>
      </trkpt>
      <trkpt lat="48.14484" lon="-3.7238">
        <ele>267.3</ele>
        <time>2023-04-05T11:40:32Z</time>
      </trkpt>
      <trkpt lat="48.14485" lon="-3.72379">
        <ele>267.3</ele>
        <time>2023-04-05T11:40:33Z</time>
      </trkpt>
      <trkpt lat="48.14485" lon="-3.72379">
        <ele>267.3</ele>
        <time>2023-04-05T11:40:34Z</time>
      </trkpt>
      <trkpt lat="48.14485" lon="-3.72379">
        <ele>267.3</ele>
        <time>2023-04-05T11:40:35Z</time>
      </trkpt>
      <trkpt lat="48.14484" lon="-3.72378">
        <ele>267.3</ele>
        <time>2023-04-05T11:40:36Z</time>
      </trkpt>
      <trkpt lat="48.14484" lon="-3.72378">
        <ele>267.3</ele>
        <time>2023-04-05T11:40:37Z</time>
      </trkpt>
      <trkpt lat="48.14484" lon="-3.72378">
        <ele>267.3</ele>
        <time>2023-04-05T11:40:38Z</time>
      </trkpt>
      <trkpt lat="48.14484" lon="-3.72378">
        <ele>267.3</ele>
        <time>2023-04-05T11:40:39Z</time>
      </trkpt>
      <trkpt lat="48.14484" lon="-3.72378">
        <ele>267.3</ele>
        <time>2023-04-05T11:40:40Z</time>
      </trkpt>
      <trkpt lat="48.14484" lon="-3.72377">
        <ele>267.3</ele>
        <time>2023-04-05T11:40:41Z</time>
      </trkpt>
      <trkpt lat="48.14484" lon="-3.72377">
        <ele>267.3</ele>
        <time>2023-04-05T11:40:42Z</time>
      </trkpt>
      <trkpt lat="48.14485" lon="-3.72376">
        <ele>267.3</ele>
        <time>2023-04-05T11:40:43Z</time>
      </trkpt>
      <trkpt lat="48.14485" lon="-3.72375">
        <ele>267.4</ele>
        <time>2023-04-05T11:40:44Z</time>
      </trkpt>
      <trkpt lat="48.14486" lon="-3.72374">
        <ele>267.4</ele>
        <time>2023-04-05T11:40:45Z</time>
      </trkpt>
      <trkpt lat="48.14488" lon="-3.72371">
        <ele>267.4</ele>
        <time>2023-04-05T11:40:46Z</time>
      </trkpt>
      <trkpt lat="48.14488" lon="-3.72367">
        <ele>267.4</ele>
        <time>2023-04-05T11:40:47Z</time>
      </trkpt>
      <trkpt lat="48.14488" lon="-3.72365">
        <ele>267.5</ele>
        <time>2023-04-05T11:40:48Z</time>
      </trkpt>
      <trkpt lat="48.14489" lon="-3.72361">
        <ele>267.5</ele>
        <time>2023-04-05T11:40:49Z</time>
      </trkpt>
      <trkpt lat="48.14489" lon="-3.72356">
        <ele>267.5</ele>
        <time>2023-04-05T11:40:50Z</time>
      </trkpt>
      <trkpt lat="48.1449" lon="-3.72352">
        <ele>267.5</ele>
        <time>2023-04-05T11:40:51Z</time>
      </trkpt>
      <trkpt lat="48.1449" lon="-3.72347">
        <ele>267.6</ele>
        <time>2023-04-05T11:40:52Z</time>
      </trkpt>
      <trkpt lat="48.1449" lon="-3.72341">
        <ele>267.6</ele>
        <time>2023-04-05T11:40:53Z</time>
      </trkpt>
      <trkpt lat="48.1449" lon="-3.72336">
        <ele>267.7</ele>
        <time>2023-04-05T11:40:54Z</time>
      </trkpt>
      <trkpt lat="48.14491" lon="-3.72331">
        <ele>267.7</ele>
        <time>2023-04-05T11:40:55Z</time>
      </trkpt>
      <trkpt lat="48.14492" lon="-3.72326">
        <ele>267.6</ele>
        <time>2023-04-05T11:40:56Z</time>
      </trkpt>
      <trkpt lat="48.14493" lon="-3.72321">
        <ele>267.6</ele>
        <time>2023-04-05T11:40:57Z</time>
      </trkpt>
      <trkpt lat="48.14494" lon="-3.72316">
        <ele>267.5</ele>
        <time>2023-04-05T11:40:58Z</time>
      </trkpt>
      <trkpt lat="48.14494" lon="-3.72314">
        <ele>267.4</ele>
        <time>2023-04-05T11:40:59Z</time>
      </trkpt>
      <trkpt lat="48.14494" lon="-3.72305">
        <ele>267.2</ele>
        <time>2023-04-05T11:41:01Z</time>
      </trkpt>
      <trkpt lat="48.14494" lon="-3.72292">
        <ele>266.7</ele>
        <time>2023-04-05T11:41:03Z</time>
      </trkpt>
      <trkpt lat="48.14494" lon="-3.72285">
        <ele>266.5</ele>
        <time>2023-04-05T11:41:05Z</time>
      </trkpt>
      <trkpt lat="48.14494" lon="-3.7228">
        <ele>266.3</ele>
        <time>2023-04-05T11:41:06Z</time>
      </trkpt>
      <trkpt lat="48.14494" lon="-3.72274">
        <ele>266.2</ele>
        <time>2023-04-05T11:41:07Z</time>
      </trkpt>
      <trkpt lat="48.14494" lon="-3.72263">
        <ele>265.9</ele>
        <time>2023-04-05T11:41:08Z</time>
      </trkpt>
      <trkpt lat="48.14495" lon="-3.72256">
        <ele>265.7</ele>
        <time>2023-04-05T11:41:10Z</time>
      </trkpt>
      <trkpt lat="48.14494" lon="-3.72252">
        <ele>265.6</ele>
        <time>2023-04-05T11:41:11Z</time>
      </trkpt>
      <trkpt lat="48.14495" lon="-3.72249">
        <ele>265.6</ele>
        <time>2023-04-05T11:41:13Z</time>
      </trkpt>
      <trkpt lat="48.14495" lon="-3.72247">
        <ele>265.5</ele>
        <time>2023-04-05T11:41:14Z</time>
      </trkpt>
      <trkpt lat="48.14495" lon="-3.72246">
        <ele>265.5</ele>
        <time>2023-04-05T11:41:15Z</time>
      </trkpt>
      <trkpt lat="48.14495" lon="-3.72247">
        <ele>265.5</ele>
        <time>2023-04-05T11:41:16Z</time>
      </trkpt>
      <trkpt lat="48.14495" lon="-3.72246">
        <ele>265.5</ele>
        <time>2023-04-05T11:41:17Z</time>
      </trkpt>
      <trkpt lat="48.14495" lon="-3.72246">
        <ele>265.5</ele>
        <time>2023-04-05T11:41:19Z</time>
      </trkpt>
      <trkpt lat="48.14495" lon="-3.72247">
        <ele>265.5</ele>
        <time>2023-04-05T11:41:20Z</time>
      </trkpt>
      <trkpt lat="48.14495" lon="-3.72247">
        <ele>265.5</ele>
        <time>2023-04-05T11:41:21Z</time>
      </trkpt>
      <trkpt lat="48.14495" lon="-3.72247">
        <ele>265.5</ele>
        <time>2023-04-05T11:41:22Z</time>
      </trkpt>
      <trkpt lat="48.14495" lon="-3.72247">
        <ele>265.5</ele>
        <time>2023-04-05T11:41:23Z</time>
      </trkpt>
      <trkpt lat="48.14495" lon="-3.72247">
        <ele>265.5</ele>
        <time>2023-04-05T11:41:24Z</time>
      </trkpt>
      <trkpt lat="48.14495" lon="-3.72247">
        <ele>265.5</ele>
        <time>2023-04-05T11:41:26Z</time>
      </trkpt>
      <trkpt lat="48.14495" lon="-3.72242">
        <ele>265.3</ele>
        <time>2023-04-05T11:41:48Z</time>
      </trkpt>
      <trkpt lat="48.14496" lon="-3.72241">
        <ele>265.3</ele>
        <time>2023-04-05T11:41:49Z</time>
      </trkpt>
      <trkpt lat="48.14497" lon="-3.72238">
        <ele>265.2</ele>
        <time>2023-04-05T11:41:50Z</time>
      </trkpt>
      <trkpt lat="48.14498" lon="-3.72233">
        <ele>265</ele>
        <time>2023-04-05T11:41:52Z</time>
      </trkpt>
      <trkpt lat="48.14499" lon="-3.72229">
        <ele>264.9</ele>
        <time>2023-04-05T11:41:53Z</time>
      </trkpt>
      <trkpt lat="48.145" lon="-3.72224">
        <ele>264.7</ele>
        <time>2023-04-05T11:41:54Z</time>
      </trkpt>
      <trkpt lat="48.14501" lon="-3.72219">
        <ele>264.6</ele>
        <time>2023-04-05T11:41:55Z</time>
      </trkpt>
      <trkpt lat="48.14501" lon="-3.72214">
        <ele>264.4</ele>
        <time>2023-04-05T11:41:56Z</time>
      </trkpt>
      <trkpt lat="48.14502" lon="-3.72212">
        <ele>264.4</ele>
        <time>2023-04-05T11:41:57Z</time>
      </trkpt>
      <trkpt lat="48.14503" lon="-3.72201">
        <ele>264.1</ele>
        <time>2023-04-05T11:41:58Z</time>
      </trkpt>
      <trkpt lat="48.14504" lon="-3.72192">
        <ele>263.8</ele>
        <time>2023-04-05T11:42:00Z</time>
      </trkpt>
      <trkpt lat="48.14505" lon="-3.72186">
        <ele>263.7</ele>
        <time>2023-04-05T11:42:02Z</time>
      </trkpt>
      <trkpt lat="48.14506" lon="-3.72182">
        <ele>263.6</ele>
        <time>2023-04-05T11:42:03Z</time>
      </trkpt>
      <trkpt lat="48.14507" lon="-3.72177">
        <ele>263.6</ele>
        <time>2023-04-05T11:42:04Z</time>
      </trkpt>
      <trkpt lat="48.14508" lon="-3.72172">
        <ele>263.5</ele>
        <time>2023-04-05T11:42:05Z</time>
      </trkpt>
      <trkpt lat="48.14509" lon="-3.72167">
        <ele>263.4</ele>
        <time>2023-04-05T11:42:06Z</time>
      </trkpt>
      <trkpt lat="48.14511" lon="-3.72161">
        <ele>263.2</ele>
        <time>2023-04-05T11:42:07Z</time>
      </trkpt>
      <trkpt lat="48.14512" lon="-3.72155">
        <ele>263.1</ele>
        <time>2023-04-05T11:42:08Z</time>
      </trkpt>
      <trkpt lat="48.14513" lon="-3.72149">
        <ele>263</ele>
        <time>2023-04-05T11:42:09Z</time>
      </trkpt>
      <trkpt lat="48.14514" lon="-3.72144">
        <ele>262.9</ele>
        <time>2023-04-05T11:42:10Z</time>
      </trkpt>
      <trkpt lat="48.14515" lon="-3.72138">
        <ele>262.9</ele>
        <time>2023-04-05T11:42:11Z</time>
      </trkpt>
      <trkpt lat="48.14515" lon="-3.72133">
        <ele>262.9</ele>
        <time>2023-04-05T11:42:12Z</time>
      </trkpt>
      <trkpt lat="48.14515" lon="-3.7213">
        <ele>262.9</ele>
        <time>2023-04-05T11:42:13Z</time>
      </trkpt>
      <trkpt lat="48.14515" lon="-3.72128">
        <ele>262.9</ele>
        <time>2023-04-05T11:42:14Z</time>
      </trkpt>
      <trkpt lat="48.14514" lon="-3.72127">
        <ele>262.9</ele>
        <time>2023-04-05T11:42:15Z</time>
      </trkpt>
      <trkpt lat="48.14513" lon="-3.72125">
        <ele>262.9</ele>
        <time>2023-04-05T11:42:16Z</time>
      </trkpt>
      <trkpt lat="48.14513" lon="-3.72122">
        <ele>262.9</ele>
        <time>2023-04-05T11:42:17Z</time>
      </trkpt>
      <trkpt lat="48.14512" lon="-3.7212">
        <ele>263</ele>
        <time>2023-04-05T11:42:18Z</time>
      </trkpt>
      <trkpt lat="48.14511" lon="-3.72115">
        <ele>263</ele>
        <time>2023-04-05T11:42:19Z</time>
      </trkpt>
      <trkpt lat="48.14511" lon="-3.72114">
        <ele>263</ele>
        <time>2023-04-05T11:42:20Z</time>
      </trkpt>
      <trkpt lat="48.14511" lon="-3.72112">
        <ele>263</ele>
        <time>2023-04-05T11:42:21Z</time>
      </trkpt>
      <trkpt lat="48.14511" lon="-3.72109">
        <ele>263.1</ele>
        <time>2023-04-05T11:42:22Z</time>
      </trkpt>
      <trkpt lat="48.14511" lon="-3.72107">
        <ele>263.1</ele>
        <time>2023-04-05T11:42:23Z</time>
      </trkpt>
      <trkpt lat="48.1451" lon="-3.72105">
        <ele>263.1</ele>
        <time>2023-04-05T11:42:24Z</time>
      </trkpt>
      <trkpt lat="48.1451" lon="-3.72101">
        <ele>263.1</ele>
        <time>2023-04-05T11:42:25Z</time>
      </trkpt>
      <trkpt lat="48.14509" lon="-3.721">
        <ele>263.1</ele>
        <time>2023-04-05T11:42:26Z</time>
      </trkpt>
      <trkpt lat="48.14508" lon="-3.72093">
        <ele>263.2</ele>
        <time>2023-04-05T11:42:28Z</time>
      </trkpt>
      <trkpt lat="48.14507" lon="-3.7209">
        <ele>263.1</ele>
        <time>2023-04-05T11:42:29Z</time>
      </trkpt>
      <trkpt lat="48.14507" lon="-3.72087">
        <ele>263.1</ele>
        <time>2023-04-05T11:42:30Z</time>
      </trkpt>
      <trkpt lat="48.14507" lon="-3.72082">
        <ele>263.1</ele>
        <time>2023-04-05T11:42:31Z</time>
      </trkpt>
      <trkpt lat="48.14506" lon="-3.72074">
        <ele>263.1</ele>
        <time>2023-04-05T11:42:32Z</time>
      </trkpt>
      <trkpt lat="48.14506" lon="-3.72069">
        <ele>263.1</ele>
        <time>2023-04-05T11:42:34Z</time>
      </trkpt>
      <trkpt lat="48.14506" lon="-3.72065">
        <ele>263</ele>
        <time>2023-04-05T11:42:35Z</time>
      </trkpt>
      <trkpt lat="48.14507" lon="-3.72061">
        <ele>263</ele>
        <time>2023-04-05T11:42:36Z</time>
      </trkpt>
      <trkpt lat="48.14508" lon="-3.72056">
        <ele>263</ele>
        <time>2023-04-05T11:42:37Z</time>
      </trkpt>
      <trkpt lat="48.1451" lon="-3.72052">
        <ele>263</ele>
        <time>2023-04-05T11:42:38Z</time>
      </trkpt>
      <trkpt lat="48.14511" lon="-3.72048">
        <ele>262.9</ele>
        <time>2023-04-05T11:42:39Z</time>
      </trkpt>
      <trkpt lat="48.14512" lon="-3.72044">
        <ele>262.9</ele>
        <time>2023-04-05T11:42:40Z</time>
      </trkpt>
      <trkpt lat="48.14513" lon="-3.7204">
        <ele>262.9</ele>
        <time>2023-04-05T11:42:41Z</time>
      </trkpt>
      <trkpt lat="48.14515" lon="-3.72035">
        <ele>262.8</ele>
        <time>2023-04-05T11:42:42Z</time>
      </trkpt>
      <trkpt lat="48.14518" lon="-3.72031">
        <ele>262.7</ele>
        <time>2023-04-05T11:42:43Z</time>
      </trkpt>
      <trkpt lat="48.14521" lon="-3.72027">
        <ele>262.6</ele>
        <time>2023-04-05T11:42:44Z</time>
      </trkpt>
      <trkpt lat="48.14525" lon="-3.72022">
        <ele>262.5</ele>
        <time>2023-04-05T11:42:45Z</time>
      </trkpt>
      <trkpt lat="48.14528" lon="-3.72017">
        <ele>262.4</ele>
        <time>2023-04-05T11:42:47Z</time>
      </trkpt>
      <trkpt lat="48.14531" lon="-3.72014">
        <ele>262.3</ele>
        <time>2023-04-05T11:42:48Z</time>
      </trkpt>
      <trkpt lat="48.14536" lon="-3.72008">
        <ele>262.1</ele>
        <time>2023-04-05T11:42:49Z</time>
      </trkpt>
      <trkpt lat="48.14539" lon="-3.72005">
        <ele>262</ele>
        <time>2023-04-05T11:42:51Z</time>
      </trkpt>
      <trkpt lat="48.14542" lon="-3.72002">
        <ele>261.9</ele>
        <time>2023-04-05T11:42:52Z</time>
      </trkpt>
      <trkpt lat="48.14545" lon="-3.71999">
        <ele>261.8</ele>
        <time>2023-04-05T11:42:53Z</time>
      </trkpt>
      <trkpt lat="48.14546" lon="-3.71997">
        <ele>261.7</ele>
        <time>2023-04-05T11:42:54Z</time>
      </trkpt>
      <trkpt lat="48.14549" lon="-3.71995">
        <ele>261.6</ele>
        <time>2023-04-05T11:42:55Z</time>
      </trkpt>
      <trkpt lat="48.14552" lon="-3.71995">
        <ele>261.4</ele>
        <time>2023-04-05T11:42:57Z</time>
      </trkpt>
      <trkpt lat="48.14556" lon="-3.71995">
        <ele>261.3</ele>
        <time>2023-04-05T11:42:58Z</time>
      </trkpt>
      <trkpt lat="48.14557" lon="-3.71995">
        <ele>261.2</ele>
        <time>2023-04-05T11:42:59Z</time>
      </trkpt>
      <trkpt lat="48.1456" lon="-3.71993">
        <ele>261.1</ele>
        <time>2023-04-05T11:43:00Z</time>
      </trkpt>
      <trkpt lat="48.14561" lon="-3.71989">
        <ele>261</ele>
        <time>2023-04-05T11:43:01Z</time>
      </trkpt>
      <trkpt lat="48.14563" lon="-3.71985">
        <ele>260.9</ele>
        <time>2023-04-05T11:43:02Z</time>
      </trkpt>
      <trkpt lat="48.14563" lon="-3.7198">
        <ele>260.8</ele>
        <time>2023-04-05T11:43:03Z</time>
      </trkpt>
      <trkpt lat="48.14564" lon="-3.71972">
        <ele>260.5</ele>
        <time>2023-04-05T11:43:04Z</time>
      </trkpt>
      <trkpt lat="48.14566" lon="-3.71956">
        <ele>260.1</ele>
        <time>2023-04-05T11:43:05Z</time>
      </trkpt>
      <trkpt lat="48.14568" lon="-3.71947">
        <ele>259.9</ele>
        <time>2023-04-05T11:43:06Z</time>
      </trkpt>
      <trkpt lat="48.14569" lon="-3.71939">
        <ele>259.8</ele>
        <time>2023-04-05T11:43:07Z</time>
      </trkpt>
      <trkpt lat="48.14569" lon="-3.71933">
        <ele>259.7</ele>
        <time>2023-04-05T11:43:08Z</time>
      </trkpt>
      <trkpt lat="48.14571" lon="-3.71928">
        <ele>259.5</ele>
        <time>2023-04-05T11:43:09Z</time>
      </trkpt>
      <trkpt lat="48.14573" lon="-3.71919">
        <ele>259.3</ele>
        <time>2023-04-05T11:43:10Z</time>
      </trkpt>
      <trkpt lat="48.14575" lon="-3.71915">
        <ele>259.2</ele>
        <time>2023-04-05T11:43:11Z</time>
      </trkpt>
      <trkpt lat="48.14577" lon="-3.71907">
        <ele>259</ele>
        <time>2023-04-05T11:43:12Z</time>
      </trkpt>
      <trkpt lat="48.14581" lon="-3.71895">
        <ele>258.6</ele>
        <time>2023-04-05T11:43:14Z</time>
      </trkpt>
      <trkpt lat="48.14583" lon="-3.7189">
        <ele>258.5</ele>
        <time>2023-04-05T11:43:16Z</time>
      </trkpt>
      <trkpt lat="48.14584" lon="-3.71887">
        <ele>258.4</ele>
        <time>2023-04-05T11:43:17Z</time>
      </trkpt>
      <trkpt lat="48.14587" lon="-3.71883">
        <ele>258.2</ele>
        <time>2023-04-05T11:43:18Z</time>
      </trkpt>
      <trkpt lat="48.14588" lon="-3.71882">
        <ele>258.2</ele>
        <time>2023-04-05T11:43:19Z</time>
      </trkpt>
      <trkpt lat="48.14589" lon="-3.71879">
        <ele>258.1</ele>
        <time>2023-04-05T11:43:20Z</time>
      </trkpt>
      <trkpt lat="48.14591" lon="-3.71874">
        <ele>257.9</ele>
        <time>2023-04-05T11:43:21Z</time>
      </trkpt>
      <trkpt lat="48.14593" lon="-3.71871">
        <ele>257.8</ele>
        <time>2023-04-05T11:43:22Z</time>
      </trkpt>
      <trkpt lat="48.14595" lon="-3.71867">
        <ele>257.7</ele>
        <time>2023-04-05T11:43:23Z</time>
      </trkpt>
      <trkpt lat="48.14603" lon="-3.71863">
        <ele>257.5</ele>
        <time>2023-04-05T11:43:24Z</time>
      </trkpt>
      <trkpt lat="48.14608" lon="-3.71858">
        <ele>257.4</ele>
        <time>2023-04-05T11:43:25Z</time>
      </trkpt>
      <trkpt lat="48.14611" lon="-3.71854">
        <ele>257.3</ele>
        <time>2023-04-05T11:43:26Z</time>
      </trkpt>
      <trkpt lat="48.14613" lon="-3.7185">
        <ele>257.2</ele>
        <time>2023-04-05T11:43:27Z</time>
      </trkpt>
      <trkpt lat="48.14615" lon="-3.71846">
        <ele>257.1</ele>
        <time>2023-04-05T11:43:28Z</time>
      </trkpt>
      <trkpt lat="48.14617" lon="-3.71842">
        <ele>257</ele>
        <time>2023-04-05T11:43:29Z</time>
      </trkpt>
      <trkpt lat="48.1462" lon="-3.71836">
        <ele>256.8</ele>
        <time>2023-04-05T11:43:30Z</time>
      </trkpt>
      <trkpt lat="48.14623" lon="-3.7183">
        <ele>256.6</ele>
        <time>2023-04-05T11:43:31Z</time>
      </trkpt>
      <trkpt lat="48.14626" lon="-3.71826">
        <ele>256.5</ele>
        <time>2023-04-05T11:43:32Z</time>
      </trkpt>
      <trkpt lat="48.14629" lon="-3.71822">
        <ele>256.3</ele>
        <time>2023-04-05T11:43:34Z</time>
      </trkpt>
      <trkpt lat="48.14632" lon="-3.71818">
        <ele>256.1</ele>
        <time>2023-04-05T11:43:35Z</time>
      </trkpt>
      <trkpt lat="48.14637" lon="-3.71813">
        <ele>255.8</ele>
        <time>2023-04-05T11:43:36Z</time>
      </trkpt>
      <trkpt lat="48.14641" lon="-3.71808">
        <ele>255.5</ele>
        <time>2023-04-05T11:43:37Z</time>
      </trkpt>
      <trkpt lat="48.14643" lon="-3.71805">
        <ele>255.4</ele>
        <time>2023-04-05T11:43:38Z</time>
      </trkpt>
      <trkpt lat="48.14646" lon="-3.718">
        <ele>255.2</ele>
        <time>2023-04-05T11:43:39Z</time>
      </trkpt>
      <trkpt lat="48.14649" lon="-3.71796">
        <ele>254.9</ele>
        <time>2023-04-05T11:43:40Z</time>
      </trkpt>
      <trkpt lat="48.14651" lon="-3.71792">
        <ele>254.7</ele>
        <time>2023-04-05T11:43:41Z</time>
      </trkpt>
      <trkpt lat="48.14655" lon="-3.71787">
        <ele>254.4</ele>
        <time>2023-04-05T11:43:43Z</time>
      </trkpt>
      <trkpt lat="48.14658" lon="-3.71783">
        <ele>254.2</ele>
        <time>2023-04-05T11:43:44Z</time>
      </trkpt>
      <trkpt lat="48.14661" lon="-3.71781">
        <ele>254</ele>
        <time>2023-04-05T11:43:45Z</time>
      </trkpt>
      <trkpt lat="48.14665" lon="-3.7178">
        <ele>253.8</ele>
        <time>2023-04-05T11:43:46Z</time>
      </trkpt>
      <trkpt lat="48.14667" lon="-3.7178">
        <ele>253.6</ele>
        <time>2023-04-05T11:43:47Z</time>
      </trkpt>
      <trkpt lat="48.14671" lon="-3.7178">
        <ele>253.3</ele>
        <time>2023-04-05T11:43:48Z</time>
      </trkpt>
      <trkpt lat="48.14674" lon="-3.71782">
        <ele>253</ele>
        <time>2023-04-05T11:43:49Z</time>
      </trkpt>
      <trkpt lat="48.14677" lon="-3.71786">
        <ele>252.6</ele>
        <time>2023-04-05T11:43:50Z</time>
      </trkpt>
      <trkpt lat="48.1468" lon="-3.71795">
        <ele>251.9</ele>
        <time>2023-04-05T11:43:51Z</time>
      </trkpt>
      <trkpt lat="48.14683" lon="-3.71803">
        <ele>251.2</ele>
        <time>2023-04-05T11:43:53Z</time>
      </trkpt>
      <trkpt lat="48.14684" lon="-3.71807">
        <ele>250.8</ele>
        <time>2023-04-05T11:43:54Z</time>
      </trkpt>
      <trkpt lat="48.14686" lon="-3.71814">
        <ele>250.2</ele>
        <time>2023-04-05T11:43:56Z</time>
      </trkpt>
      <trkpt lat="48.14687" lon="-3.71816">
        <ele>250.1</ele>
        <time>2023-04-05T11:43:57Z</time>
      </trkpt>
      <trkpt lat="48.14688" lon="-3.71819">
        <ele>249.8</ele>
        <time>2023-04-05T11:43:58Z</time>
      </trkpt>
      <trkpt lat="48.14689" lon="-3.71824">
        <ele>249.4</ele>
        <time>2023-04-05T11:43:59Z</time>
      </trkpt>
      <trkpt lat="48.1469" lon="-3.71826">
        <ele>249.2</ele>
        <time>2023-04-05T11:44:00Z</time>
      </trkpt>
      <trkpt lat="48.14692" lon="-3.71831">
        <ele>248.8</ele>
        <time>2023-04-05T11:44:01Z</time>
      </trkpt>
      <trkpt lat="48.14693" lon="-3.71835">
        <ele>248.5</ele>
        <time>2023-04-05T11:44:02Z</time>
      </trkpt>
      <trkpt lat="48.14694" lon="-3.7184">
        <ele>248.2</ele>
        <time>2023-04-05T11:44:03Z</time>
      </trkpt>
      <trkpt lat="48.14696" lon="-3.71843">
        <ele>247.9</ele>
        <time>2023-04-05T11:44:04Z</time>
      </trkpt>
      <trkpt lat="48.14698" lon="-3.71848">
        <ele>247.4</ele>
        <time>2023-04-05T11:44:05Z</time>
      </trkpt>
      <trkpt lat="48.14698" lon="-3.7185">
        <ele>247.3</ele>
        <time>2023-04-05T11:44:06Z</time>
      </trkpt>
      <trkpt lat="48.147" lon="-3.71855">
        <ele>246.9</ele>
        <time>2023-04-05T11:44:07Z</time>
      </trkpt>
      <trkpt lat="48.147" lon="-3.71857">
        <ele>246.8</ele>
        <time>2023-04-05T11:44:08Z</time>
      </trkpt>
      <trkpt lat="48.14701" lon="-3.7186">
        <ele>246.1</ele>
        <time>2023-04-05T11:44:10Z</time>
      </trkpt>
      <trkpt lat="48.14702" lon="-3.7186">
        <ele>246.1</ele>
        <time>2023-04-05T11:44:11Z</time>
      </trkpt>
      <trkpt lat="48.14701" lon="-3.7186">
        <ele>246.1</ele>
        <time>2023-04-05T11:44:12Z</time>
      </trkpt>
      <trkpt lat="48.14701" lon="-3.7186">
        <ele>246.1</ele>
        <time>2023-04-05T11:44:13Z</time>
      </trkpt>
      <trkpt lat="48.14701" lon="-3.71861">
        <ele>246.1</ele>
        <time>2023-04-05T11:44:14Z</time>
      </trkpt>
      <trkpt lat="48.14703" lon="-3.71861">
        <ele>246.1</ele>
        <time>2023-04-05T11:44:16Z</time>
      </trkpt>
      <trkpt lat="48.14704" lon="-3.71861">
        <ele>246.2</ele>
        <time>2023-04-05T11:44:17Z</time>
      </trkpt>
      <trkpt lat="48.14705" lon="-3.71861">
        <ele>246.2</ele>
        <time>2023-04-05T11:44:19Z</time>
      </trkpt>
      <trkpt lat="48.14706" lon="-3.71859">
        <ele>246.2</ele>
        <time>2023-04-05T11:44:20Z</time>
      </trkpt>
      <trkpt lat="48.14707" lon="-3.71857">
        <ele>246.2</ele>
        <time>2023-04-05T11:44:21Z</time>
      </trkpt>
      <trkpt lat="48.14707" lon="-3.71851">
        <ele>246.3</ele>
        <time>2023-04-05T11:44:22Z</time>
      </trkpt>
      <trkpt lat="48.14707" lon="-3.71849">
        <ele>246.3</ele>
        <time>2023-04-05T11:44:23Z</time>
      </trkpt>
      <trkpt lat="48.14707" lon="-3.71846">
        <ele>246.3</ele>
        <time>2023-04-05T11:44:24Z</time>
      </trkpt>
      <trkpt lat="48.14706" lon="-3.71844">
        <ele>246.4</ele>
        <time>2023-04-05T11:44:26Z</time>
      </trkpt>
      <trkpt lat="48.14706" lon="-3.71842">
        <ele>246.4</ele>
        <time>2023-04-05T11:44:27Z</time>
      </trkpt>
      <trkpt lat="48.14706" lon="-3.71838">
        <ele>246.4</ele>
        <time>2023-04-05T11:44:28Z</time>
      </trkpt>
      <trkpt lat="48.14706" lon="-3.71836">
        <ele>246.4</ele>
        <time>2023-04-05T11:44:29Z</time>
      </trkpt>
      <trkpt lat="48.14706" lon="-3.71835">
        <ele>246.4</ele>
        <time>2023-04-05T11:44:30Z</time>
      </trkpt>
      <trkpt lat="48.14706" lon="-3.7183">
        <ele>246.5</ele>
        <time>2023-04-05T11:44:32Z</time>
      </trkpt>
      <trkpt lat="48.14706" lon="-3.71828">
        <ele>246.5</ele>
        <time>2023-04-05T11:44:33Z</time>
      </trkpt>
      <trkpt lat="48.14706" lon="-3.71826">
        <ele>246.5</ele>
        <time>2023-04-05T11:44:35Z</time>
      </trkpt>
      <trkpt lat="48.14706" lon="-3.71825">
        <ele>246.5</ele>
        <time>2023-04-05T11:44:36Z</time>
      </trkpt>
      <trkpt lat="48.14706" lon="-3.71825">
        <ele>246.5</ele>
        <time>2023-04-05T11:44:37Z</time>
      </trkpt>
      <trkpt lat="48.14706" lon="-3.71824">
        <ele>246.6</ele>
        <time>2023-04-05T11:44:38Z</time>
      </trkpt>
      <trkpt lat="48.14706" lon="-3.71823">
        <ele>246.6</ele>
        <time>2023-04-05T11:44:39Z</time>
      </trkpt>
      <trkpt lat="48.14707" lon="-3.71822">
        <ele>246.6</ele>
        <time>2023-04-05T11:44:40Z</time>
      </trkpt>
      <trkpt lat="48.14707" lon="-3.71821">
        <ele>246.6</ele>
        <time>2023-04-05T11:44:41Z</time>
      </trkpt>
      <trkpt lat="48.14707" lon="-3.71819">
        <ele>246.6</ele>
        <time>2023-04-05T11:44:42Z</time>
      </trkpt>
      <trkpt lat="48.14707" lon="-3.71818">
        <ele>246.6</ele>
        <time>2023-04-05T11:44:43Z</time>
      </trkpt>
      <trkpt lat="48.14707" lon="-3.71817">
        <ele>246.6</ele>
        <time>2023-04-05T11:44:44Z</time>
      </trkpt>
      <trkpt lat="48.14707" lon="-3.71816">
        <ele>246.6</ele>
        <time>2023-04-05T11:44:46Z</time>
      </trkpt>
      <trkpt lat="48.14708" lon="-3.71815">
        <ele>246.6</ele>
        <time>2023-04-05T11:44:47Z</time>
      </trkpt>
      <trkpt lat="48.14708" lon="-3.71814">
        <ele>246.6</ele>
        <time>2023-04-05T11:44:48Z</time>
      </trkpt>
      <trkpt lat="48.14708" lon="-3.71809">
        <ele>246.7</ele>
        <time>2023-04-05T11:44:49Z</time>
      </trkpt>
      <trkpt lat="48.14709" lon="-3.71807">
        <ele>246.7</ele>
        <time>2023-04-05T11:44:50Z</time>
      </trkpt>
      <trkpt lat="48.14709" lon="-3.71804">
        <ele>246.7</ele>
        <time>2023-04-05T11:44:51Z</time>
      </trkpt>
      <trkpt lat="48.1471" lon="-3.71801">
        <ele>246.8</ele>
        <time>2023-04-05T11:44:52Z</time>
      </trkpt>
      <trkpt lat="48.14711" lon="-3.71796">
        <ele>246.8</ele>
        <time>2023-04-05T11:44:54Z</time>
      </trkpt>
      <trkpt lat="48.14712" lon="-3.71792">
        <ele>246.9</ele>
        <time>2023-04-05T11:44:56Z</time>
      </trkpt>
      <trkpt lat="48.14712" lon="-3.7179">
        <ele>246.9</ele>
        <time>2023-04-05T11:44:57Z</time>
      </trkpt>
      <trkpt lat="48.14712" lon="-3.71787">
        <ele>246.9</ele>
        <time>2023-04-05T11:44:58Z</time>
      </trkpt>
      <trkpt lat="48.14712" lon="-3.71785">
        <ele>247</ele>
        <time>2023-04-05T11:44:59Z</time>
      </trkpt>
      <trkpt lat="48.14713" lon="-3.71782">
        <ele>247</ele>
        <time>2023-04-05T11:45:00Z</time>
      </trkpt>
      <trkpt lat="48.14713" lon="-3.71778">
        <ele>247</ele>
        <time>2023-04-05T11:45:01Z</time>
      </trkpt>
      <trkpt lat="48.14714" lon="-3.71776">
        <ele>247</ele>
        <time>2023-04-05T11:45:02Z</time>
      </trkpt>
      <trkpt lat="48.14714" lon="-3.71774">
        <ele>247.1</ele>
        <time>2023-04-05T11:45:03Z</time>
      </trkpt>
      <trkpt lat="48.14714" lon="-3.71772">
        <ele>247.1</ele>
        <time>2023-04-05T11:45:04Z</time>
      </trkpt>
      <trkpt lat="48.14715" lon="-3.71767">
        <ele>247.1</ele>
        <time>2023-04-05T11:45:05Z</time>
      </trkpt>
      <trkpt lat="48.14715" lon="-3.71765">
        <ele>247.2</ele>
        <time>2023-04-05T11:45:06Z</time>
      </trkpt>
      <trkpt lat="48.14716" lon="-3.7176">
        <ele>247.2</ele>
        <time>2023-04-05T11:45:07Z</time>
      </trkpt>
      <trkpt lat="48.14717" lon="-3.71758">
        <ele>247.2</ele>
        <time>2023-04-05T11:45:08Z</time>
      </trkpt>
      <trkpt lat="48.14718" lon="-3.71754">
        <ele>247.3</ele>
        <time>2023-04-05T11:45:09Z</time>
      </trkpt>
      <trkpt lat="48.14719" lon="-3.71749">
        <ele>247.3</ele>
        <time>2023-04-05T11:45:10Z</time>
      </trkpt>
      <trkpt lat="48.1472" lon="-3.71747">
        <ele>247.3</ele>
        <time>2023-04-05T11:45:11Z</time>
      </trkpt>
      <trkpt lat="48.14721" lon="-3.71742">
        <ele>247.4</ele>
        <time>2023-04-05T11:45:12Z</time>
      </trkpt>
      <trkpt lat="48.14721" lon="-3.71741">
        <ele>247.4</ele>
        <time>2023-04-05T11:45:13Z</time>
      </trkpt>
      <trkpt lat="48.14722" lon="-3.71736">
        <ele>247.5</ele>
        <time>2023-04-05T11:45:14Z</time>
      </trkpt>
      <trkpt lat="48.14722" lon="-3.71734">
        <ele>247.5</ele>
        <time>2023-04-05T11:45:15Z</time>
      </trkpt>
      <trkpt lat="48.14723" lon="-3.71731">
        <ele>247.5</ele>
        <time>2023-04-05T11:45:16Z</time>
      </trkpt>
      <trkpt lat="48.14723" lon="-3.71729">
        <ele>247.5</ele>
        <time>2023-04-05T11:45:17Z</time>
      </trkpt>
      <trkpt lat="48.14723" lon="-3.71726">
        <ele>247.6</ele>
        <time>2023-04-05T11:45:18Z</time>
      </trkpt>
      <trkpt lat="48.14724" lon="-3.71724">
        <ele>247.6</ele>
        <time>2023-04-05T11:45:19Z</time>
      </trkpt>
      <trkpt lat="48.14724" lon="-3.71723">
        <ele>247.6</ele>
        <time>2023-04-05T11:45:20Z</time>
      </trkpt>
      <trkpt lat="48.14724" lon="-3.71723">
        <ele>247.6</ele>
        <time>2023-04-05T11:45:21Z</time>
      </trkpt>
      <trkpt lat="48.14724" lon="-3.71723">
        <ele>247.6</ele>
        <time>2023-04-05T11:45:22Z</time>
      </trkpt>
      <trkpt lat="48.14724" lon="-3.71723">
        <ele>247.6</ele>
        <time>2023-04-05T11:45:23Z</time>
      </trkpt>
      <trkpt lat="48.14724" lon="-3.71723">
        <ele>247.6</ele>
        <time>2023-04-05T11:45:24Z</time>
      </trkpt>
      <trkpt lat="48.14724" lon="-3.71723">
        <ele>247.6</ele>
        <time>2023-04-05T11:45:25Z</time>
      </trkpt>
      <trkpt lat="48.14724" lon="-3.71723">
        <ele>247.6</ele>
        <time>2023-04-05T11:45:26Z</time>
      </trkpt>
      <trkpt lat="48.14724" lon="-3.71723">
        <ele>247.6</ele>
        <time>2023-04-05T11:45:27Z</time>
      </trkpt>
      <trkpt lat="48.14724" lon="-3.71723">
        <ele>247.6</ele>
        <time>2023-04-05T11:45:28Z</time>
      </trkpt>
      <trkpt lat="48.14724" lon="-3.71723">
        <ele>247.6</ele>
        <time>2023-04-05T11:45:29Z</time>
      </trkpt>
      <trkpt lat="48.14724" lon="-3.71723">
        <ele>247.6</ele>
        <time>2023-04-05T11:45:30Z</time>
      </trkpt>
      <trkpt lat="48.14724" lon="-3.71723">
        <ele>247.6</ele>
        <time>2023-04-05T11:45:31Z</time>
      </trkpt>
      <trkpt lat="48.14727" lon="-3.71722">
        <ele>247.7</ele>
        <time>2023-04-05T11:46:05Z</time>
      </trkpt>
      <trkpt lat="48.14728" lon="-3.7172">
        <ele>247.7</ele>
        <time>2023-04-05T11:46:06Z</time>
      </trkpt>
      <trkpt lat="48.14729" lon="-3.71718">
        <ele>247.7</ele>
        <time>2023-04-05T11:46:08Z</time>
      </trkpt>
      <trkpt lat="48.14729" lon="-3.71715">
        <ele>247.7</ele>
        <time>2023-04-05T11:46:09Z</time>
      </trkpt>
      <trkpt lat="48.14729" lon="-3.71713">
        <ele>247.8</ele>
        <time>2023-04-05T11:46:10Z</time>
      </trkpt>
      <trkpt lat="48.14729" lon="-3.7171">
        <ele>247.8</ele>
        <time>2023-04-05T11:46:11Z</time>
      </trkpt>
      <trkpt lat="48.14729" lon="-3.71708">
        <ele>247.8</ele>
        <time>2023-04-05T11:46:12Z</time>
      </trkpt>
      <trkpt lat="48.14729" lon="-3.71707">
        <ele>247.8</ele>
        <time>2023-04-05T11:46:13Z</time>
      </trkpt>
      <trkpt lat="48.1473" lon="-3.71704">
        <ele>247.8</ele>
        <time>2023-04-05T11:46:14Z</time>
      </trkpt>
      <trkpt lat="48.1473" lon="-3.71703">
        <ele>247.9</ele>
        <time>2023-04-05T11:46:15Z</time>
      </trkpt>
      <trkpt lat="48.1473" lon="-3.71702">
        <ele>247.9</ele>
        <time>2023-04-05T11:46:16Z</time>
      </trkpt>
      <trkpt lat="48.1473" lon="-3.717">
        <ele>247.9</ele>
        <time>2023-04-05T11:46:17Z</time>
      </trkpt>
      <trkpt lat="48.1473" lon="-3.71699">
        <ele>247.9</ele>
        <time>2023-04-05T11:46:18Z</time>
      </trkpt>
      <trkpt lat="48.14731" lon="-3.71696">
        <ele>247.9</ele>
        <time>2023-04-05T11:46:19Z</time>
      </trkpt>
      <trkpt lat="48.14731" lon="-3.71695">
        <ele>247.9</ele>
        <time>2023-04-05T11:46:20Z</time>
      </trkpt>
      <trkpt lat="48.14731" lon="-3.71693">
        <ele>248</ele>
        <time>2023-04-05T11:46:21Z</time>
      </trkpt>
      <trkpt lat="48.14732" lon="-3.71689">
        <ele>248</ele>
        <time>2023-04-05T11:46:22Z</time>
      </trkpt>
      <trkpt lat="48.14732" lon="-3.71687">
        <ele>248</ele>
        <time>2023-04-05T11:46:23Z</time>
      </trkpt>
      <trkpt lat="48.14732" lon="-3.71686">
        <ele>248</ele>
        <time>2023-04-05T11:46:25Z</time>
      </trkpt>
      <trkpt lat="48.14733" lon="-3.71685">
        <ele>248</ele>
        <time>2023-04-05T11:46:26Z</time>
      </trkpt>
      <trkpt lat="48.14733" lon="-3.71683">
        <ele>248.1</ele>
        <time>2023-04-05T11:46:27Z</time>
      </trkpt>
      <trkpt lat="48.14733" lon="-3.71682">
        <ele>248.1</ele>
        <time>2023-04-05T11:46:28Z</time>
      </trkpt>
      <trkpt lat="48.14735" lon="-3.71679">
        <ele>248.2</ele>
        <time>2023-04-05T11:46:29Z</time>
      </trkpt>
      <trkpt lat="48.14735" lon="-3.71678">
        <ele>248.2</ele>
        <time>2023-04-05T11:46:30Z</time>
      </trkpt>
      <trkpt lat="48.14736" lon="-3.71677">
        <ele>248.2</ele>
        <time>2023-04-05T11:46:31Z</time>
      </trkpt>
      <trkpt lat="48.14736" lon="-3.71675">
        <ele>248.2</ele>
        <time>2023-04-05T11:46:32Z</time>
      </trkpt>
      <trkpt lat="48.14737" lon="-3.71672">
        <ele>248.2</ele>
        <time>2023-04-05T11:46:33Z</time>
      </trkpt>
      <trkpt lat="48.14737" lon="-3.7167">
        <ele>248.3</ele>
        <time>2023-04-05T11:46:34Z</time>
      </trkpt>
      <trkpt lat="48.14737" lon="-3.71669">
        <ele>248.3</ele>
        <time>2023-04-05T11:46:35Z</time>
      </trkpt>
      <trkpt lat="48.14737" lon="-3.71668">
        <ele>248.3</ele>
        <time>2023-04-05T11:46:36Z</time>
      </trkpt>
      <trkpt lat="48.14738" lon="-3.71666">
        <ele>248.3</ele>
        <time>2023-04-05T11:46:37Z</time>
      </trkpt>
      <trkpt lat="48.14738" lon="-3.71664">
        <ele>248.3</ele>
        <time>2023-04-05T11:46:38Z</time>
      </trkpt>
      <trkpt lat="48.14738" lon="-3.71662">
        <ele>248.3</ele>
        <time>2023-04-05T11:46:39Z</time>
      </trkpt>
      <trkpt lat="48.14739" lon="-3.71661">
        <ele>248.3</ele>
        <time>2023-04-05T11:46:40Z</time>
      </trkpt>
      <trkpt lat="48.14739" lon="-3.7166">
        <ele>248.4</ele>
        <time>2023-04-05T11:46:41Z</time>
      </trkpt>
      <trkpt lat="48.14739" lon="-3.71659">
        <ele>248.4</ele>
        <time>2023-04-05T11:46:42Z</time>
      </trkpt>
      <trkpt lat="48.1474" lon="-3.71657">
        <ele>248.4</ele>
        <time>2023-04-05T11:46:43Z</time>
      </trkpt>
      <trkpt lat="48.1474" lon="-3.71655">
        <ele>248.4</ele>
        <time>2023-04-05T11:46:44Z</time>
      </trkpt>
      <trkpt lat="48.14741" lon="-3.71654">
        <ele>248.4</ele>
        <time>2023-04-05T11:46:45Z</time>
      </trkpt>
      <trkpt lat="48.14741" lon="-3.71652">
        <ele>248.4</ele>
        <time>2023-04-05T11:46:46Z</time>
      </trkpt>
      <trkpt lat="48.14741" lon="-3.71652">
        <ele>248.5</ele>
        <time>2023-04-05T11:46:47Z</time>
      </trkpt>
      <trkpt lat="48.14741" lon="-3.71651">
        <ele>248.5</ele>
        <time>2023-04-05T11:46:48Z</time>
      </trkpt>
      <trkpt lat="48.14741" lon="-3.71651">
        <ele>248.5</ele>
        <time>2023-04-05T11:46:49Z</time>
      </trkpt>
      <trkpt lat="48.14741" lon="-3.7165">
        <ele>248.5</ele>
        <time>2023-04-05T11:46:50Z</time>
      </trkpt>
      <trkpt lat="48.14741" lon="-3.7165">
        <ele>248.5</ele>
        <time>2023-04-05T11:46:51Z</time>
      </trkpt>
      <trkpt lat="48.14741" lon="-3.71649">
        <ele>248.5</ele>
        <time>2023-04-05T11:46:52Z</time>
      </trkpt>
      <trkpt lat="48.14741" lon="-3.71648">
        <ele>248.5</ele>
        <time>2023-04-05T11:46:53Z</time>
      </trkpt>
      <trkpt lat="48.14741" lon="-3.71647">
        <ele>248.5</ele>
        <time>2023-04-05T11:46:54Z</time>
      </trkpt>
      <trkpt lat="48.14741" lon="-3.71647">
        <ele>248.5</ele>
        <time>2023-04-05T11:46:55Z</time>
      </trkpt>
      <trkpt lat="48.14741" lon="-3.71647">
        <ele>248.5</ele>
        <time>2023-04-05T11:46:56Z</time>
      </trkpt>
      <trkpt lat="48.14741" lon="-3.71646">
        <ele>248.5</ele>
        <time>2023-04-05T11:46:57Z</time>
      </trkpt>
      <trkpt lat="48.1474" lon="-3.71646">
        <ele>248.5</ele>
        <time>2023-04-05T11:46:58Z</time>
      </trkpt>
      <trkpt lat="48.1474" lon="-3.71646">
        <ele>248.5</ele>
        <time>2023-04-05T11:46:59Z</time>
      </trkpt>
      <trkpt lat="48.1474" lon="-3.71646">
        <ele>248.5</ele>
        <time>2023-04-05T11:47:00Z</time>
      </trkpt>
      <trkpt lat="48.1474" lon="-3.71645">
        <ele>248.5</ele>
        <time>2023-04-05T11:47:01Z</time>
      </trkpt>
      <trkpt lat="48.1474" lon="-3.71644">
        <ele>248.5</ele>
        <time>2023-04-05T11:47:02Z</time>
      </trkpt>
      <trkpt lat="48.1474" lon="-3.71643">
        <ele>248.5</ele>
        <time>2023-04-05T11:47:03Z</time>
      </trkpt>
      <trkpt lat="48.1474" lon="-3.71643">
        <ele>248.6</ele>
        <time>2023-04-05T11:47:04Z</time>
      </trkpt>
      <trkpt lat="48.1474" lon="-3.71643">
        <ele>248.6</ele>
        <time>2023-04-05T11:47:05Z</time>
      </trkpt>
      <trkpt lat="48.1474" lon="-3.71643">
        <ele>248.6</ele>
        <time>2023-04-05T11:47:06Z</time>
      </trkpt>
      <trkpt lat="48.1474" lon="-3.71643">
        <ele>248.6</ele>
        <time>2023-04-05T11:47:07Z</time>
      </trkpt>
      <trkpt lat="48.1474" lon="-3.71643">
        <ele>248.6</ele>
        <time>2023-04-05T11:47:08Z</time>
      </trkpt>
      <trkpt lat="48.1474" lon="-3.71642">
        <ele>248.6</ele>
        <time>2023-04-05T11:47:09Z</time>
        <extensions>
          <visugpx:TrkExtension xmlns:visugpx="https://www.visugpx.com/editgpx/">
            <visugpx:node>2</visugpx:node>
            </visugpx:TrkExtension>
        </extensions>
      </trkpt>
      <trkpt lat="48.1474" lon="-3.71631">
        <ele>249.1</ele>
        <time>2023-04-05T11:47:46Z</time>
        <extensions>
          <visugpx:TrkExtension xmlns:visugpx="https://www.visugpx.com/editgpx/">
            <visugpx:node>3</visugpx:node>
            </visugpx:TrkExtension>
        </extensions>
      </trkpt>
      <trkpt lat="48.1474" lon="-3.71628">
        <ele>249.1</ele>
        <time>2023-04-05T11:47:47Z</time>
      </trkpt>
      <trkpt lat="48.1474" lon="-3.71626">
        <ele>249.1</ele>
        <time>2023-04-05T11:47:48Z</time>
      </trkpt>
      <trkpt lat="48.1474" lon="-3.71625">
        <ele>249.1</ele>
        <time>2023-04-05T11:47:49Z</time>
      </trkpt>
      <trkpt lat="48.1474" lon="-3.71623">
        <ele>249.1</ele>
        <time>2023-04-05T11:47:50Z</time>
      </trkpt>
      <trkpt lat="48.1474" lon="-3.71622">
        <ele>249.2</ele>
        <time>2023-04-05T11:47:51Z</time>
      </trkpt>
      <trkpt lat="48.1474" lon="-3.7162">
        <ele>249.2</ele>
        <time>2023-04-05T11:47:52Z</time>
      </trkpt>
      <trkpt lat="48.1474" lon="-3.71617">
        <ele>249.2</ele>
        <time>2023-04-05T11:47:53Z</time>
      </trkpt>
      <trkpt lat="48.1474" lon="-3.71615">
        <ele>249.2</ele>
        <time>2023-04-05T11:47:54Z</time>
      </trkpt>
      <trkpt lat="48.1474" lon="-3.71614">
        <ele>249.2</ele>
        <time>2023-04-05T11:47:55Z</time>
      </trkpt>
      <trkpt lat="48.1474" lon="-3.71613">
        <ele>249.3</ele>
        <time>2023-04-05T11:47:56Z</time>
      </trkpt>
      <trkpt lat="48.1474" lon="-3.71611">
        <ele>249.3</ele>
        <time>2023-04-05T11:47:57Z</time>
      </trkpt>
      <trkpt lat="48.14741" lon="-3.71609">
        <ele>249.3</ele>
        <time>2023-04-05T11:47:58Z</time>
      </trkpt>
      <trkpt lat="48.14741" lon="-3.71606">
        <ele>249.3</ele>
        <time>2023-04-05T11:47:59Z</time>
      </trkpt>
      <trkpt lat="48.14741" lon="-3.71605">
        <ele>249.3</ele>
        <time>2023-04-05T11:48:00Z</time>
      </trkpt>
      <trkpt lat="48.14742" lon="-3.71603">
        <ele>249.4</ele>
        <time>2023-04-05T11:48:01Z</time>
      </trkpt>
      <trkpt lat="48.14742" lon="-3.71602">
        <ele>249.4</ele>
        <time>2023-04-05T11:48:02Z</time>
      </trkpt>
      <trkpt lat="48.14742" lon="-3.716">
        <ele>249.4</ele>
        <time>2023-04-05T11:48:03Z</time>
      </trkpt>
      <trkpt lat="48.14742" lon="-3.71599">
        <ele>249.4</ele>
        <time>2023-04-05T11:48:04Z</time>
      </trkpt>
      <trkpt lat="48.14743" lon="-3.71597">
        <ele>249.4</ele>
        <time>2023-04-05T11:48:05Z</time>
      </trkpt>
      <trkpt lat="48.14743" lon="-3.71595">
        <ele>249.4</ele>
        <time>2023-04-05T11:48:06Z</time>
      </trkpt>
      <trkpt lat="48.14744" lon="-3.71592">
        <ele>249.5</ele>
        <time>2023-04-05T11:48:08Z</time>
      </trkpt>
      <trkpt lat="48.14744" lon="-3.7159">
        <ele>249.5</ele>
        <time>2023-04-05T11:48:09Z</time>
      </trkpt>
      <trkpt lat="48.14745" lon="-3.71587">
        <ele>249.5</ele>
        <time>2023-04-05T11:48:11Z</time>
      </trkpt>
      <trkpt lat="48.14745" lon="-3.71586">
        <ele>249.5</ele>
        <time>2023-04-05T11:48:12Z</time>
      </trkpt>
      <trkpt lat="48.14745" lon="-3.71585">
        <ele>249.5</ele>
        <time>2023-04-05T11:48:13Z</time>
      </trkpt>
      <trkpt lat="48.14745" lon="-3.71582">
        <ele>249.6</ele>
        <time>2023-04-05T11:48:14Z</time>
      </trkpt>
      <trkpt lat="48.14745" lon="-3.7158">
        <ele>249.6</ele>
        <time>2023-04-05T11:48:16Z</time>
      </trkpt>
      <trkpt lat="48.14745" lon="-3.71578">
        <ele>249.6</ele>
        <time>2023-04-05T11:48:17Z</time>
      </trkpt>
      <trkpt lat="48.14746" lon="-3.71576">
        <ele>249.6</ele>
        <time>2023-04-05T11:48:18Z</time>
      </trkpt>
      <trkpt lat="48.14746" lon="-3.71575">
        <ele>249.7</ele>
        <time>2023-04-05T11:48:19Z</time>
      </trkpt>
      <trkpt lat="48.14746" lon="-3.71572">
        <ele>249.7</ele>
        <time>2023-04-05T11:48:21Z</time>
      </trkpt>
      <trkpt lat="48.14747" lon="-3.7157">
        <ele>249.7</ele>
        <time>2023-04-05T11:48:22Z</time>
      </trkpt>
      <trkpt lat="48.14748" lon="-3.71567">
        <ele>249.7</ele>
        <time>2023-04-05T11:48:24Z</time>
      </trkpt>
      <trkpt lat="48.14749" lon="-3.71565">
        <ele>249.8</ele>
        <time>2023-04-05T11:48:26Z</time>
      </trkpt>
      <trkpt lat="48.14749" lon="-3.71564">
        <ele>249.8</ele>
        <time>2023-04-05T11:48:27Z</time>
      </trkpt>
      <trkpt lat="48.14749" lon="-3.7156">
        <ele>249.8</ele>
        <time>2023-04-05T11:48:28Z</time>
      </trkpt>
      <trkpt lat="48.1475" lon="-3.71559">
        <ele>249.8</ele>
        <time>2023-04-05T11:48:30Z</time>
      </trkpt>
      <trkpt lat="48.1475" lon="-3.71557">
        <ele>249.8</ele>
        <time>2023-04-05T11:48:31Z</time>
      </trkpt>
      <trkpt lat="48.14751" lon="-3.71556">
        <ele>249.9</ele>
        <time>2023-04-05T11:48:32Z</time>
      </trkpt>
      <trkpt lat="48.14751" lon="-3.71554">
        <ele>249.9</ele>
        <time>2023-04-05T11:48:33Z</time>
      </trkpt>
      <trkpt lat="48.14751" lon="-3.71553">
        <ele>249.9</ele>
        <time>2023-04-05T11:48:34Z</time>
      </trkpt>
      <trkpt lat="48.14751" lon="-3.71553">
        <ele>249.9</ele>
        <time>2023-04-05T11:48:35Z</time>
      </trkpt>
      <trkpt lat="48.1475" lon="-3.71553">
        <ele>249.9</ele>
        <time>2023-04-05T11:48:36Z</time>
      </trkpt>
      <trkpt lat="48.1475" lon="-3.71553">
        <ele>249.9</ele>
        <time>2023-04-05T11:48:37Z</time>
      </trkpt>
      <trkpt lat="48.1475" lon="-3.71553">
        <ele>249.9</ele>
        <time>2023-04-05T11:48:38Z</time>
      </trkpt>
      <trkpt lat="48.1475" lon="-3.71553">
        <ele>249.9</ele>
        <time>2023-04-05T11:48:39Z</time>
      </trkpt>
      <trkpt lat="48.1475" lon="-3.71553">
        <ele>249.9</ele>
        <time>2023-04-05T11:48:40Z</time>
      </trkpt>
      <trkpt lat="48.1475" lon="-3.71553">
        <ele>249.9</ele>
        <time>2023-04-05T11:48:41Z</time>
      </trkpt>
      <trkpt lat="48.1475" lon="-3.71552">
        <ele>249.9</ele>
        <time>2023-04-05T11:48:42Z</time>
      </trkpt>
      <trkpt lat="48.1475" lon="-3.71551">
        <ele>249.9</ele>
        <time>2023-04-05T11:48:43Z</time>
      </trkpt>
      <trkpt lat="48.1475" lon="-3.71548">
        <ele>250</ele>
        <time>2023-04-05T11:48:44Z</time>
      </trkpt>
      <trkpt lat="48.14751" lon="-3.71547">
        <ele>250</ele>
        <time>2023-04-05T11:48:45Z</time>
      </trkpt>
      <trkpt lat="48.14751" lon="-3.71545">
        <ele>250</ele>
        <time>2023-04-05T11:48:46Z</time>
      </trkpt>
      <trkpt lat="48.14752" lon="-3.71543">
        <ele>250</ele>
        <time>2023-04-05T11:48:47Z</time>
      </trkpt>
      <trkpt lat="48.14752" lon="-3.7154">
        <ele>250.1</ele>
        <time>2023-04-05T11:48:48Z</time>
      </trkpt>
      <trkpt lat="48.14753" lon="-3.71537">
        <ele>250.1</ele>
        <time>2023-04-05T11:48:49Z</time>
      </trkpt>
      <trkpt lat="48.14753" lon="-3.71535">
        <ele>250.1</ele>
        <time>2023-04-05T11:48:50Z</time>
      </trkpt>
      <trkpt lat="48.14753" lon="-3.71533">
        <ele>250.1</ele>
        <time>2023-04-05T11:48:51Z</time>
      </trkpt>
      <trkpt lat="48.14754" lon="-3.7153">
        <ele>250.2</ele>
        <time>2023-04-05T11:48:52Z</time>
      </trkpt>
      <trkpt lat="48.14754" lon="-3.71529">
        <ele>250.2</ele>
        <time>2023-04-05T11:48:53Z</time>
      </trkpt>
      <trkpt lat="48.14755" lon="-3.71526">
        <ele>250.2</ele>
        <time>2023-04-05T11:48:54Z</time>
      </trkpt>
      <trkpt lat="48.14756" lon="-3.71523">
        <ele>250.2</ele>
        <time>2023-04-05T11:48:55Z</time>
      </trkpt>
      <trkpt lat="48.14757" lon="-3.71521">
        <ele>250.3</ele>
        <time>2023-04-05T11:48:56Z</time>
      </trkpt>
      <trkpt lat="48.14758" lon="-3.71519">
        <ele>250.3</ele>
        <time>2023-04-05T11:48:57Z</time>
      </trkpt>
      <trkpt lat="48.14759" lon="-3.71518">
        <ele>250.3</ele>
        <time>2023-04-05T11:48:58Z</time>
      </trkpt>
      <trkpt lat="48.14759" lon="-3.71517">
        <ele>250.3</ele>
        <time>2023-04-05T11:48:59Z</time>
      </trkpt>
      <trkpt lat="48.14759" lon="-3.71516">
        <ele>250.3</ele>
        <time>2023-04-05T11:49:00Z</time>
      </trkpt>
      <trkpt lat="48.14759" lon="-3.71516">
        <ele>250.3</ele>
        <time>2023-04-05T11:49:01Z</time>
      </trkpt>
      <trkpt lat="48.14759" lon="-3.71516">
        <ele>250.3</ele>
        <time>2023-04-05T11:49:02Z</time>
      </trkpt>
      <trkpt lat="48.14759" lon="-3.71516">
        <ele>250.3</ele>
        <time>2023-04-05T11:49:03Z</time>
      </trkpt>
      <trkpt lat="48.14759" lon="-3.71516">
        <ele>250.3</ele>
        <time>2023-04-05T11:49:04Z</time>
      </trkpt>
      <trkpt lat="48.14759" lon="-3.71515">
        <ele>250.3</ele>
        <time>2023-04-05T11:49:05Z</time>
      </trkpt>
      <trkpt lat="48.1476" lon="-3.71513">
        <ele>250.4</ele>
        <time>2023-04-05T11:49:06Z</time>
      </trkpt>
      <trkpt lat="48.1476" lon="-3.71512">
        <ele>250.4</ele>
        <time>2023-04-05T11:49:08Z</time>
      </trkpt>
      <trkpt lat="48.14761" lon="-3.7151">
        <ele>250.4</ele>
        <time>2023-04-05T11:49:09Z</time>
      </trkpt>
      <trkpt lat="48.14761" lon="-3.71508">
        <ele>250.4</ele>
        <time>2023-04-05T11:49:10Z</time>
      </trkpt>
      <trkpt lat="48.14761" lon="-3.71508">
        <ele>250.4</ele>
        <time>2023-04-05T11:49:11Z</time>
      </trkpt>
      <trkpt lat="48.14762" lon="-3.71504">
        <ele>250.5</ele>
        <time>2023-04-05T11:49:12Z</time>
      </trkpt>
      <trkpt lat="48.14763" lon="-3.715">
        <ele>250.5</ele>
        <time>2023-04-05T11:49:13Z</time>
      </trkpt>
      <trkpt lat="48.14764" lon="-3.71498">
        <ele>250.5</ele>
        <time>2023-04-05T11:49:15Z</time>
      </trkpt>
      <trkpt lat="48.14764" lon="-3.71497">
        <ele>250.5</ele>
        <time>2023-04-05T11:49:16Z</time>
      </trkpt>
      <trkpt lat="48.14765" lon="-3.71495">
        <ele>250.6</ele>
        <time>2023-04-05T11:49:17Z</time>
      </trkpt>
      <trkpt lat="48.14765" lon="-3.71493">
        <ele>250.6</ele>
        <time>2023-04-05T11:49:18Z</time>
      </trkpt>
      <trkpt lat="48.14765" lon="-3.71492">
        <ele>250.6</ele>
        <time>2023-04-05T11:49:19Z</time>
      </trkpt>
      <trkpt lat="48.14766" lon="-3.7149">
        <ele>250.6</ele>
        <time>2023-04-05T11:49:20Z</time>
      </trkpt>
      <trkpt lat="48.14767" lon="-3.71486">
        <ele>250.7</ele>
        <time>2023-04-05T11:49:21Z</time>
      </trkpt>
      <trkpt lat="48.14767" lon="-3.71485">
        <ele>250.7</ele>
        <time>2023-04-05T11:49:23Z</time>
      </trkpt>
      <trkpt lat="48.14768" lon="-3.71482">
        <ele>250.7</ele>
        <time>2023-04-05T11:49:24Z</time>
      </trkpt>
      <trkpt lat="48.14768" lon="-3.7148">
        <ele>250.7</ele>
        <time>2023-04-05T11:49:26Z</time>
      </trkpt>
      <trkpt lat="48.14769" lon="-3.71478">
        <ele>250.7</ele>
        <time>2023-04-05T11:49:27Z</time>
      </trkpt>
      <trkpt lat="48.14769" lon="-3.71477">
        <ele>250.8</ele>
        <time>2023-04-05T11:49:28Z</time>
      </trkpt>
      <trkpt lat="48.14769" lon="-3.71476">
        <ele>250.8</ele>
        <time>2023-04-05T11:49:29Z</time>
      </trkpt>
      <trkpt lat="48.14769" lon="-3.71474">
        <ele>250.8</ele>
        <time>2023-04-05T11:49:30Z</time>
      </trkpt>
      <trkpt lat="48.1477" lon="-3.71473">
        <ele>250.8</ele>
        <time>2023-04-05T11:49:31Z</time>
      </trkpt>
      <trkpt lat="48.1477" lon="-3.71471">
        <ele>250.8</ele>
        <time>2023-04-05T11:49:32Z</time>
      </trkpt>
      <trkpt lat="48.14771" lon="-3.7147">
        <ele>250.8</ele>
        <time>2023-04-05T11:49:33Z</time>
      </trkpt>
      <trkpt lat="48.14771" lon="-3.71469">
        <ele>250.8</ele>
        <time>2023-04-05T11:49:34Z</time>
      </trkpt>
      <trkpt lat="48.14771" lon="-3.71468">
        <ele>250.9</ele>
        <time>2023-04-05T11:49:35Z</time>
      </trkpt>
      <trkpt lat="48.14771" lon="-3.71467">
        <ele>250.9</ele>
        <time>2023-04-05T11:49:36Z</time>
      </trkpt>
      <trkpt lat="48.14772" lon="-3.71466">
        <ele>250.9</ele>
        <time>2023-04-05T11:49:37Z</time>
      </trkpt>
      <trkpt lat="48.14772" lon="-3.71465">
        <ele>250.9</ele>
        <time>2023-04-05T11:49:38Z</time>
      </trkpt>
      <trkpt lat="48.14772" lon="-3.71464">
        <ele>250.9</ele>
        <time>2023-04-05T11:49:39Z</time>
      </trkpt>
      <trkpt lat="48.14773" lon="-3.71461">
        <ele>250.9</ele>
        <time>2023-04-05T11:49:41Z</time>
      </trkpt>
      <trkpt lat="48.14773" lon="-3.71459">
        <ele>251</ele>
        <time>2023-04-05T11:49:42Z</time>
      </trkpt>
      <trkpt lat="48.14773" lon="-3.71456">
        <ele>251</ele>
        <time>2023-04-05T11:49:43Z</time>
      </trkpt>
      <trkpt lat="48.14773" lon="-3.71454">
        <ele>251</ele>
        <time>2023-04-05T11:49:44Z</time>
      </trkpt>
      <trkpt lat="48.14773" lon="-3.71452">
        <ele>251</ele>
        <time>2023-04-05T11:49:45Z</time>
      </trkpt>
      <trkpt lat="48.14773" lon="-3.7145">
        <ele>251</ele>
        <time>2023-04-05T11:49:46Z</time>
      </trkpt>
      <trkpt lat="48.14773" lon="-3.71449">
        <ele>251.1</ele>
        <time>2023-04-05T11:49:47Z</time>
      </trkpt>
      <trkpt lat="48.14774" lon="-3.71448">
        <ele>251.1</ele>
        <time>2023-04-05T11:49:48Z</time>
      </trkpt>
      <trkpt lat="48.14774" lon="-3.71446">
        <ele>251.1</ele>
        <time>2023-04-05T11:49:49Z</time>
      </trkpt>
      <trkpt lat="48.14774" lon="-3.71443">
        <ele>251.1</ele>
        <time>2023-04-05T11:49:50Z</time>
      </trkpt>
      <trkpt lat="48.14774" lon="-3.71439">
        <ele>251.2</ele>
        <time>2023-04-05T11:49:51Z</time>
      </trkpt>
      <trkpt lat="48.14774" lon="-3.71437">
        <ele>251.2</ele>
        <time>2023-04-05T11:49:52Z</time>
      </trkpt>
      <trkpt lat="48.14774" lon="-3.71435">
        <ele>251.2</ele>
        <time>2023-04-05T11:49:53Z</time>
      </trkpt>
      <trkpt lat="48.14774" lon="-3.71433">
        <ele>251.2</ele>
        <time>2023-04-05T11:49:54Z</time>
      </trkpt>
      <trkpt lat="48.14775" lon="-3.71431">
        <ele>251.2</ele>
        <time>2023-04-05T11:49:55Z</time>
      </trkpt>
      <trkpt lat="48.14775" lon="-3.71431">
        <ele>251.2</ele>
        <time>2023-04-05T11:49:56Z</time>
      </trkpt>
      <trkpt lat="48.14775" lon="-3.71431">
        <ele>251.2</ele>
        <time>2023-04-05T11:49:57Z</time>
      </trkpt>
      <trkpt lat="48.14775" lon="-3.7143">
        <ele>251.3</ele>
        <time>2023-04-05T11:49:58Z</time>
      </trkpt>
      <trkpt lat="48.14775" lon="-3.7143">
        <ele>251.3</ele>
        <time>2023-04-05T11:49:59Z</time>
      </trkpt>
      <trkpt lat="48.14775" lon="-3.7143">
        <ele>251.3</ele>
        <time>2023-04-05T11:50:00Z</time>
      </trkpt>
      <trkpt lat="48.14775" lon="-3.71429">
        <ele>251.3</ele>
        <time>2023-04-05T11:50:01Z</time>
      </trkpt>
      <trkpt lat="48.14775" lon="-3.71429">
        <ele>251.3</ele>
        <time>2023-04-05T11:50:02Z</time>
      </trkpt>
      <trkpt lat="48.14775" lon="-3.71428">
        <ele>251.3</ele>
        <time>2023-04-05T11:50:03Z</time>
      </trkpt>
      <trkpt lat="48.14775" lon="-3.71427">
        <ele>251.3</ele>
        <time>2023-04-05T11:50:04Z</time>
      </trkpt>
      <trkpt lat="48.14775" lon="-3.71426">
        <ele>251.3</ele>
        <time>2023-04-05T11:50:05Z</time>
      </trkpt>
      <trkpt lat="48.14775" lon="-3.71424">
        <ele>251.6</ele>
        <time>2023-04-05T11:50:06Z</time>
      </trkpt>
      <trkpt lat="48.14774" lon="-3.71421">
        <ele>251.7</ele>
        <time>2023-04-05T11:50:07Z</time>
      </trkpt>
      <trkpt lat="48.14774" lon="-3.7142">
        <ele>251.7</ele>
        <time>2023-04-05T11:50:08Z</time>
      </trkpt>
      <trkpt lat="48.14774" lon="-3.71419">
        <ele>251.7</ele>
        <time>2023-04-05T11:50:09Z</time>
      </trkpt>
      <trkpt lat="48.14774" lon="-3.71418">
        <ele>251.8</ele>
        <time>2023-04-05T11:50:10Z</time>
      </trkpt>
      <trkpt lat="48.14774" lon="-3.71416">
        <ele>251.8</ele>
        <time>2023-04-05T11:50:11Z</time>
      </trkpt>
      <trkpt lat="48.14776" lon="-3.71414">
        <ele>251.9</ele>
        <time>2023-04-05T11:50:13Z</time>
      </trkpt>
      <trkpt lat="48.14779" lon="-3.71418">
        <ele>252</ele>
        <time>2023-04-05T11:50:14Z</time>
      </trkpt>
      <trkpt lat="48.1478" lon="-3.71421">
        <ele>252.1</ele>
        <time>2023-04-05T11:50:15Z</time>
      </trkpt>
      <trkpt lat="48.1478" lon="-3.71424">
        <ele>252.2</ele>
        <time>2023-04-05T11:50:16Z</time>
      </trkpt>
      <trkpt lat="48.14782" lon="-3.71427">
        <ele>252.3</ele>
        <time>2023-04-05T11:50:18Z</time>
      </trkpt>
      <trkpt lat="48.14782" lon="-3.71428">
        <ele>252.3</ele>
        <time>2023-04-05T11:50:19Z</time>
      </trkpt>
      <trkpt lat="48.14784" lon="-3.71432">
        <ele>252.4</ele>
        <time>2023-04-05T11:50:20Z</time>
      </trkpt>
      <trkpt lat="48.14785" lon="-3.71433">
        <ele>252.4</ele>
        <time>2023-04-05T11:50:21Z</time>
      </trkpt>
      <trkpt lat="48.14789" lon="-3.71437">
        <ele>252.6</ele>
        <time>2023-04-05T11:50:22Z</time>
      </trkpt>
      <trkpt lat="48.14791" lon="-3.71438">
        <ele>252.7</ele>
        <time>2023-04-05T11:50:23Z</time>
      </trkpt>
      <trkpt lat="48.14794" lon="-3.71439">
        <ele>252.8</ele>
        <time>2023-04-05T11:50:25Z</time>
      </trkpt>
      <trkpt lat="48.14796" lon="-3.7144">
        <ele>252.9</ele>
        <time>2023-04-05T11:50:26Z</time>
      </trkpt>
      <trkpt lat="48.14801" lon="-3.71443">
        <ele>253</ele>
        <time>2023-04-05T11:50:27Z</time>
      </trkpt>
      <trkpt lat="48.14803" lon="-3.71444">
        <ele>253.1</ele>
        <time>2023-04-05T11:50:28Z</time>
      </trkpt>
      <trkpt lat="48.14805" lon="-3.71446">
        <ele>253.1</ele>
        <time>2023-04-05T11:50:29Z</time>
      </trkpt>
      <trkpt lat="48.14809" lon="-3.71447">
        <ele>253.3</ele>
        <time>2023-04-05T11:50:31Z</time>
      </trkpt>
      <trkpt lat="48.14811" lon="-3.71448">
        <ele>253.3</ele>
        <time>2023-04-05T11:50:32Z</time>
      </trkpt>
      <trkpt lat="48.14812" lon="-3.71449">
        <ele>253.4</ele>
        <time>2023-04-05T11:50:33Z</time>
      </trkpt>
      <trkpt lat="48.14816" lon="-3.7145">
        <ele>253.5</ele>
        <time>2023-04-05T11:50:34Z</time>
      </trkpt>
      <trkpt lat="48.14817" lon="-3.71451">
        <ele>253.5</ele>
        <time>2023-04-05T11:50:35Z</time>
      </trkpt>
      <trkpt lat="48.1482" lon="-3.71453">
        <ele>253.6</ele>
        <time>2023-04-05T11:50:36Z</time>
      </trkpt>
      <trkpt lat="48.14821" lon="-3.71454">
        <ele>253.6</ele>
        <time>2023-04-05T11:50:37Z</time>
      </trkpt>
      <trkpt lat="48.14822" lon="-3.71455">
        <ele>253.7</ele>
        <time>2023-04-05T11:50:38Z</time>
      </trkpt>
      <trkpt lat="48.14824" lon="-3.71454">
        <ele>253.7</ele>
        <time>2023-04-05T11:50:39Z</time>
      </trkpt>
      <trkpt lat="48.14826" lon="-3.71455">
        <ele>253.8</ele>
        <time>2023-04-05T11:50:40Z</time>
      </trkpt>
      <trkpt lat="48.14827" lon="-3.71455">
        <ele>253.8</ele>
        <time>2023-04-05T11:50:41Z</time>
      </trkpt>
      <trkpt lat="48.1483" lon="-3.71457">
        <ele>253.9</ele>
        <time>2023-04-05T11:50:42Z</time>
      </trkpt>
      <trkpt lat="48.14831" lon="-3.71457">
        <ele>253.9</ele>
        <time>2023-04-05T11:50:43Z</time>
      </trkpt>
      <trkpt lat="48.14833" lon="-3.71459">
        <ele>253.9</ele>
        <time>2023-04-05T11:50:44Z</time>
      </trkpt>
      <trkpt lat="48.14834" lon="-3.71459">
        <ele>254</ele>
        <time>2023-04-05T11:50:45Z</time>
      </trkpt>
      <trkpt lat="48.14837" lon="-3.71461">
        <ele>254.1</ele>
        <time>2023-04-05T11:50:46Z</time>
      </trkpt>
      <trkpt lat="48.1484" lon="-3.71462">
        <ele>254.1</ele>
        <time>2023-04-05T11:50:47Z</time>
      </trkpt>
      <trkpt lat="48.14843" lon="-3.71463">
        <ele>254.2</ele>
        <time>2023-04-05T11:50:48Z</time>
      </trkpt>
      <trkpt lat="48.14848" lon="-3.71465">
        <ele>254.3</ele>
        <time>2023-04-05T11:50:50Z</time>
      </trkpt>
      <trkpt lat="48.1485" lon="-3.71466">
        <ele>254.4</ele>
        <time>2023-04-05T11:50:52Z</time>
      </trkpt>
      <trkpt lat="48.14853" lon="-3.71467">
        <ele>254.5</ele>
        <time>2023-04-05T11:50:53Z</time>
      </trkpt>
      <trkpt lat="48.14854" lon="-3.71467">
        <ele>254.5</ele>
        <time>2023-04-05T11:50:54Z</time>
      </trkpt>
      <trkpt lat="48.14859" lon="-3.71468">
        <ele>254.6</ele>
        <time>2023-04-05T11:50:55Z</time>
      </trkpt>
      <trkpt lat="48.14864" lon="-3.71469">
        <ele>254.7</ele>
        <time>2023-04-05T11:50:57Z</time>
      </trkpt>
      <trkpt lat="48.14868" lon="-3.71471">
        <ele>254.9</ele>
        <time>2023-04-05T11:50:59Z</time>
      </trkpt>
      <trkpt lat="48.1487" lon="-3.71473">
        <ele>254.9</ele>
        <time>2023-04-05T11:51:00Z</time>
      </trkpt>
      <trkpt lat="48.14875" lon="-3.71477">
        <ele>255</ele>
        <time>2023-04-05T11:51:02Z</time>
      </trkpt>
      <trkpt lat="48.14878" lon="-3.71479">
        <ele>255</ele>
        <time>2023-04-05T11:51:03Z</time>
      </trkpt>
      <trkpt lat="48.14881" lon="-3.71481">
        <ele>255.1</ele>
        <time>2023-04-05T11:51:05Z</time>
      </trkpt>
      <trkpt lat="48.14886" lon="-3.71483">
        <ele>255.1</ele>
        <time>2023-04-05T11:51:06Z</time>
      </trkpt>
      <trkpt lat="48.14889" lon="-3.7148">
        <ele>255.1</ele>
        <time>2023-04-05T11:51:07Z</time>
      </trkpt>
      <trkpt lat="48.1489" lon="-3.71474">
        <ele>255.2</ele>
        <time>2023-04-05T11:51:09Z</time>
      </trkpt>
      <trkpt lat="48.1489" lon="-3.71469">
        <ele>255.2</ele>
        <time>2023-04-05T11:51:10Z</time>
      </trkpt>
      <trkpt lat="48.1489" lon="-3.71468">
        <ele>255.2</ele>
        <time>2023-04-05T11:51:11Z</time>
      </trkpt>
      <trkpt lat="48.1489" lon="-3.71463">
        <ele>255.2</ele>
        <time>2023-04-05T11:51:12Z</time>
      </trkpt>
      <trkpt lat="48.1489" lon="-3.71461">
        <ele>255.3</ele>
        <time>2023-04-05T11:51:13Z</time>
      </trkpt>
      <trkpt lat="48.14891" lon="-3.71457">
        <ele>255.3</ele>
        <time>2023-04-05T11:51:14Z</time>
      </trkpt>
      <trkpt lat="48.14891" lon="-3.71455">
        <ele>255.3</ele>
        <time>2023-04-05T11:51:15Z</time>
      </trkpt>
      <trkpt lat="48.14892" lon="-3.71451">
        <ele>255.4</ele>
        <time>2023-04-05T11:51:16Z</time>
      </trkpt>
      <trkpt lat="48.14892" lon="-3.71449">
        <ele>255.4</ele>
        <time>2023-04-05T11:51:17Z</time>
      </trkpt>
      <trkpt lat="48.14892" lon="-3.71446">
        <ele>255.5</ele>
        <time>2023-04-05T11:51:18Z</time>
      </trkpt>
      <trkpt lat="48.14892" lon="-3.71444">
        <ele>255.5</ele>
        <time>2023-04-05T11:51:19Z</time>
      </trkpt>
      <trkpt lat="48.14892" lon="-3.71438">
        <ele>255.6</ele>
        <time>2023-04-05T11:51:20Z</time>
      </trkpt>
      <trkpt lat="48.14892" lon="-3.71436">
        <ele>255.6</ele>
        <time>2023-04-05T11:51:21Z</time>
      </trkpt>
      <trkpt lat="48.14892" lon="-3.71432">
        <ele>255.7</ele>
        <time>2023-04-05T11:51:22Z</time>
      </trkpt>
      <trkpt lat="48.14892" lon="-3.71431">
        <ele>255.7</ele>
        <time>2023-04-05T11:51:23Z</time>
      </trkpt>
      <trkpt lat="48.14892" lon="-3.71425">
        <ele>255.8</ele>
        <time>2023-04-05T11:51:24Z</time>
      </trkpt>
      <trkpt lat="48.14892" lon="-3.71423">
        <ele>255.9</ele>
        <time>2023-04-05T11:51:25Z</time>
      </trkpt>
      <trkpt lat="48.1489" lon="-3.71419">
        <ele>256</ele>
        <time>2023-04-05T11:51:26Z</time>
      </trkpt>
      <trkpt lat="48.14889" lon="-3.71418">
        <ele>256</ele>
        <time>2023-04-05T11:51:27Z</time>
      </trkpt>
      <trkpt lat="48.14889" lon="-3.71412">
        <ele>256.1</ele>
        <time>2023-04-05T11:51:28Z</time>
      </trkpt>
      <trkpt lat="48.14889" lon="-3.7141">
        <ele>256.2</ele>
        <time>2023-04-05T11:51:29Z</time>
      </trkpt>
      <trkpt lat="48.1489" lon="-3.71406">
        <ele>256.3</ele>
        <time>2023-04-05T11:51:30Z</time>
      </trkpt>
      <trkpt lat="48.1489" lon="-3.71404">
        <ele>256.3</ele>
        <time>2023-04-05T11:51:31Z</time>
      </trkpt>
      <trkpt lat="48.14889" lon="-3.71399">
        <ele>256.4</ele>
        <time>2023-04-05T11:51:32Z</time>
      </trkpt>
      <trkpt lat="48.14889" lon="-3.71397">
        <ele>256.5</ele>
        <time>2023-04-05T11:51:33Z</time>
      </trkpt>
      <trkpt lat="48.14889" lon="-3.71394">
        <ele>256.5</ele>
        <time>2023-04-05T11:51:34Z</time>
      </trkpt>
      <trkpt lat="48.14889" lon="-3.71392">
        <ele>256.6</ele>
        <time>2023-04-05T11:51:35Z</time>
      </trkpt>
      <trkpt lat="48.14889" lon="-3.71387">
        <ele>256.7</ele>
        <time>2023-04-05T11:51:36Z</time>
      </trkpt>
      <trkpt lat="48.14888" lon="-3.71384">
        <ele>256.8</ele>
        <time>2023-04-05T11:51:37Z</time>
      </trkpt>
      <trkpt lat="48.14889" lon="-3.71379">
        <ele>256.9</ele>
        <time>2023-04-05T11:51:38Z</time>
      </trkpt>
      <trkpt lat="48.14889" lon="-3.71378">
        <ele>256.9</ele>
        <time>2023-04-05T11:51:39Z</time>
      </trkpt>
      <trkpt lat="48.14891" lon="-3.71372">
        <ele>257.1</ele>
        <time>2023-04-05T11:51:41Z</time>
      </trkpt>
      <trkpt lat="48.14891" lon="-3.71368">
        <ele>257.2</ele>
        <time>2023-04-05T11:51:42Z</time>
      </trkpt>
      <trkpt lat="48.14891" lon="-3.71363">
        <ele>257.4</ele>
        <time>2023-04-05T11:51:43Z</time>
      </trkpt>
      <trkpt lat="48.14891" lon="-3.71361">
        <ele>257.4</ele>
        <time>2023-04-05T11:51:44Z</time>
      </trkpt>
      <trkpt lat="48.14891" lon="-3.7136">
        <ele>257.5</ele>
        <time>2023-04-05T11:51:45Z</time>
      </trkpt>
      <trkpt lat="48.1489" lon="-3.71359">
        <ele>257.5</ele>
        <time>2023-04-05T11:51:46Z</time>
      </trkpt>
      <trkpt lat="48.1489" lon="-3.71359">
        <ele>257.5</ele>
        <time>2023-04-05T11:51:47Z</time>
      </trkpt>
      <trkpt lat="48.1489" lon="-3.71359">
        <ele>257.5</ele>
        <time>2023-04-05T11:51:48Z</time>
      </trkpt>
      <trkpt lat="48.1489" lon="-3.71358">
        <ele>257.5</ele>
        <time>2023-04-05T11:51:49Z</time>
      </trkpt>
      <trkpt lat="48.1489" lon="-3.71357">
        <ele>257.6</ele>
        <time>2023-04-05T11:51:50Z</time>
      </trkpt>
      <trkpt lat="48.1489" lon="-3.71355">
        <ele>257.6</ele>
        <time>2023-04-05T11:51:51Z</time>
      </trkpt>
      <trkpt lat="48.1489" lon="-3.71354">
        <ele>257.6</ele>
        <time>2023-04-05T11:51:52Z</time>
      </trkpt>
      <trkpt lat="48.1489" lon="-3.71353">
        <ele>257.7</ele>
        <time>2023-04-05T11:51:53Z</time>
      </trkpt>
      <trkpt lat="48.1489" lon="-3.71352">
        <ele>257.7</ele>
        <time>2023-04-05T11:51:54Z</time>
      </trkpt>
      <trkpt lat="48.1489" lon="-3.71351">
        <ele>257.7</ele>
        <time>2023-04-05T11:51:55Z</time>
      </trkpt>
      <trkpt lat="48.1489" lon="-3.71349">
        <ele>257.8</ele>
        <time>2023-04-05T11:52:41Z</time>
      </trkpt>
      <trkpt lat="48.1489" lon="-3.71348">
        <ele>257.8</ele>
        <time>2023-04-05T11:52:42Z</time>
      </trkpt>
      <trkpt lat="48.1489" lon="-3.71347">
        <ele>257.8</ele>
        <time>2023-04-05T11:52:43Z</time>
      </trkpt>
      <trkpt lat="48.1489" lon="-3.71346">
        <ele>257.9</ele>
        <time>2023-04-05T11:52:44Z</time>
      </trkpt>
      <trkpt lat="48.14891" lon="-3.71339">
        <ele>258</ele>
        <time>2023-04-05T11:52:45Z</time>
      </trkpt>
      <trkpt lat="48.14891" lon="-3.71336">
        <ele>258.1</ele>
        <time>2023-04-05T11:52:46Z</time>
      </trkpt>
      <trkpt lat="48.14891" lon="-3.71336">
        <ele>258.1</ele>
        <time>2023-04-05T11:52:47Z</time>
      </trkpt>
      <trkpt lat="48.14893" lon="-3.71324">
        <ele>258.4</ele>
        <time>2023-04-05T11:52:49Z</time>
      </trkpt>
      <trkpt lat="48.14894" lon="-3.71318">
        <ele>258.6</ele>
        <time>2023-04-05T11:52:51Z</time>
      </trkpt>
      <trkpt lat="48.14895" lon="-3.71314">
        <ele>258.7</ele>
        <time>2023-04-05T11:52:52Z</time>
      </trkpt>
      <trkpt lat="48.14896" lon="-3.7131">
        <ele>258.7</ele>
        <time>2023-04-05T11:52:53Z</time>
      </trkpt>
      <trkpt lat="48.14899" lon="-3.71303">
        <ele>258.9</ele>
        <time>2023-04-05T11:52:54Z</time>
      </trkpt>
      <trkpt lat="48.14899" lon="-3.71299">
        <ele>259</ele>
        <time>2023-04-05T11:52:56Z</time>
      </trkpt>
      <trkpt lat="48.149" lon="-3.71293">
        <ele>259.1</ele>
        <time>2023-04-05T11:52:57Z</time>
      </trkpt>
      <trkpt lat="48.149" lon="-3.71291">
        <ele>259.1</ele>
        <time>2023-04-05T11:52:58Z</time>
      </trkpt>
      <trkpt lat="48.14901" lon="-3.71286">
        <ele>259.2</ele>
        <time>2023-04-05T11:52:59Z</time>
      </trkpt>
      <trkpt lat="48.14901" lon="-3.71285">
        <ele>259.2</ele>
        <time>2023-04-05T11:53:00Z</time>
      </trkpt>
      <trkpt lat="48.14902" lon="-3.71281">
        <ele>259.3</ele>
        <time>2023-04-05T11:53:01Z</time>
      </trkpt>
      <trkpt lat="48.14902" lon="-3.71279">
        <ele>259.3</ele>
        <time>2023-04-05T11:53:02Z</time>
      </trkpt>
      <trkpt lat="48.14902" lon="-3.71274">
        <ele>259.4</ele>
        <time>2023-04-05T11:53:03Z</time>
      </trkpt>
      <trkpt lat="48.14902" lon="-3.71273">
        <ele>259.4</ele>
        <time>2023-04-05T11:53:04Z</time>
      </trkpt>
      <trkpt lat="48.14903" lon="-3.71267">
        <ele>259.4</ele>
        <time>2023-04-05T11:53:05Z</time>
      </trkpt>
      <trkpt lat="48.14903" lon="-3.71266">
        <ele>259.5</ele>
        <time>2023-04-05T11:53:06Z</time>
      </trkpt>
      <trkpt lat="48.14903" lon="-3.7126">
        <ele>259.5</ele>
        <time>2023-04-05T11:53:07Z</time>
      </trkpt>
      <trkpt lat="48.14902" lon="-3.71259">
        <ele>259.6</ele>
        <time>2023-04-05T11:53:08Z</time>
      </trkpt>
      <trkpt lat="48.14903" lon="-3.71254">
        <ele>259.6</ele>
        <time>2023-04-05T11:53:09Z</time>
      </trkpt>
      <trkpt lat="48.14903" lon="-3.71252">
        <ele>259.6</ele>
        <time>2023-04-05T11:53:10Z</time>
      </trkpt>
      <trkpt lat="48.14904" lon="-3.71248">
        <ele>259.7</ele>
        <time>2023-04-05T11:53:11Z</time>
      </trkpt>
      <trkpt lat="48.14905" lon="-3.71244">
        <ele>259.7</ele>
        <time>2023-04-05T11:53:12Z</time>
      </trkpt>
      <trkpt lat="48.14906" lon="-3.71239">
        <ele>259.7</ele>
        <time>2023-04-05T11:53:13Z</time>
      </trkpt>
      <trkpt lat="48.14906" lon="-3.71237">
        <ele>259.7</ele>
        <time>2023-04-05T11:53:14Z</time>
      </trkpt>
      <trkpt lat="48.14907" lon="-3.71235">
        <ele>259.8</ele>
        <time>2023-04-05T11:53:15Z</time>
      </trkpt>
      <trkpt lat="48.14907" lon="-3.71232">
        <ele>259.8</ele>
        <time>2023-04-05T11:53:16Z</time>
      </trkpt>
      <trkpt lat="48.14907" lon="-3.71227">
        <ele>259.8</ele>
        <time>2023-04-05T11:53:17Z</time>
      </trkpt>
      <trkpt lat="48.14907" lon="-3.71226">
        <ele>259.8</ele>
        <time>2023-04-05T11:53:18Z</time>
      </trkpt>
      <trkpt lat="48.14907" lon="-3.71221">
        <ele>259.9</ele>
        <time>2023-04-05T11:53:19Z</time>
      </trkpt>
      <trkpt lat="48.14907" lon="-3.71219">
        <ele>259.9</ele>
        <time>2023-04-05T11:53:20Z</time>
      </trkpt>
      <trkpt lat="48.14907" lon="-3.71217">
        <ele>259.9</ele>
        <time>2023-04-05T11:53:21Z</time>
      </trkpt>
      <trkpt lat="48.14907" lon="-3.71214">
        <ele>259.9</ele>
        <time>2023-04-05T11:53:22Z</time>
      </trkpt>
      <trkpt lat="48.14907" lon="-3.7121">
        <ele>260</ele>
        <time>2023-04-05T11:53:23Z</time>
      </trkpt>
      <trkpt lat="48.14907" lon="-3.71209">
        <ele>260</ele>
        <time>2023-04-05T11:53:24Z</time>
      </trkpt>
      <trkpt lat="48.14905" lon="-3.71205">
        <ele>260</ele>
        <time>2023-04-05T11:53:25Z</time>
      </trkpt>
      <trkpt lat="48.14905" lon="-3.71203">
        <ele>260</ele>
        <time>2023-04-05T11:53:26Z</time>
      </trkpt>
      <trkpt lat="48.14906" lon="-3.71199">
        <ele>260.1</ele>
        <time>2023-04-05T11:53:27Z</time>
      </trkpt>
      <trkpt lat="48.14907" lon="-3.71197">
        <ele>260.1</ele>
        <time>2023-04-05T11:53:28Z</time>
      </trkpt>
      <trkpt lat="48.14908" lon="-3.71194">
        <ele>260.1</ele>
        <time>2023-04-05T11:53:29Z</time>
      </trkpt>
      <trkpt lat="48.14908" lon="-3.71189">
        <ele>260.2</ele>
        <time>2023-04-05T11:53:30Z</time>
      </trkpt>
      <trkpt lat="48.14908" lon="-3.71187">
        <ele>260.2</ele>
        <time>2023-04-05T11:53:31Z</time>
      </trkpt>
      <trkpt lat="48.14909" lon="-3.71181">
        <ele>260.3</ele>
        <time>2023-04-05T11:53:32Z</time>
      </trkpt>
      <trkpt lat="48.1491" lon="-3.71179">
        <ele>260.3</ele>
        <time>2023-04-05T11:53:33Z</time>
      </trkpt>
      <trkpt lat="48.1491" lon="-3.71176">
        <ele>260.3</ele>
        <time>2023-04-05T11:53:34Z</time>
      </trkpt>
      <trkpt lat="48.14911" lon="-3.71172">
        <ele>260.4</ele>
        <time>2023-04-05T11:53:36Z</time>
      </trkpt>
      <trkpt lat="48.14911" lon="-3.71166">
        <ele>260.4</ele>
        <time>2023-04-05T11:53:37Z</time>
      </trkpt>
      <trkpt lat="48.14912" lon="-3.71165">
        <ele>260.4</ele>
        <time>2023-04-05T11:53:38Z</time>
      </trkpt>
      <trkpt lat="48.14912" lon="-3.7116">
        <ele>260.4</ele>
        <time>2023-04-05T11:53:39Z</time>
      </trkpt>
      <trkpt lat="48.14912" lon="-3.71158">
        <ele>260.5</ele>
        <time>2023-04-05T11:53:40Z</time>
      </trkpt>
      <trkpt lat="48.14912" lon="-3.71152">
        <ele>260.5</ele>
        <time>2023-04-05T11:53:42Z</time>
      </trkpt>
      <trkpt lat="48.14912" lon="-3.71147">
        <ele>260.5</ele>
        <time>2023-04-05T11:53:43Z</time>
      </trkpt>
      <trkpt lat="48.14913" lon="-3.71144">
        <ele>260.5</ele>
        <time>2023-04-05T11:53:44Z</time>
      </trkpt>
      <trkpt lat="48.14913" lon="-3.7114">
        <ele>260.5</ele>
        <time>2023-04-05T11:53:45Z</time>
      </trkpt>
      <trkpt lat="48.14913" lon="-3.71135">
        <ele>260.5</ele>
        <time>2023-04-05T11:53:46Z</time>
      </trkpt>
      <trkpt lat="48.14913" lon="-3.71133">
        <ele>260.5</ele>
        <time>2023-04-05T11:53:47Z</time>
      </trkpt>
      <trkpt lat="48.14914" lon="-3.71126">
        <ele>260.6</ele>
        <time>2023-04-05T11:53:49Z</time>
      </trkpt>
      <trkpt lat="48.14915" lon="-3.71116">
        <ele>260.6</ele>
        <time>2023-04-05T11:53:51Z</time>
      </trkpt>
      <trkpt lat="48.14915" lon="-3.71113">
        <ele>260.6</ele>
        <time>2023-04-05T11:53:52Z</time>
      </trkpt>
      <trkpt lat="48.14916" lon="-3.71108">
        <ele>260.7</ele>
        <time>2023-04-05T11:53:54Z</time>
      </trkpt>
      <trkpt lat="48.14916" lon="-3.71102">
        <ele>260.7</ele>
        <time>2023-04-05T11:53:55Z</time>
      </trkpt>
      <trkpt lat="48.14917" lon="-3.711">
        <ele>260.7</ele>
        <time>2023-04-05T11:53:56Z</time>
      </trkpt>
      <trkpt lat="48.14918" lon="-3.71093">
        <ele>260.7</ele>
        <time>2023-04-05T11:53:57Z</time>
      </trkpt>
      <trkpt lat="48.14918" lon="-3.71089">
        <ele>260.8</ele>
        <time>2023-04-05T11:53:58Z</time>
      </trkpt>
      <trkpt lat="48.14919" lon="-3.71082">
        <ele>260.8</ele>
        <time>2023-04-05T11:54:00Z</time>
      </trkpt>
      <trkpt lat="48.14919" lon="-3.7108">
        <ele>260.8</ele>
        <time>2023-04-05T11:54:01Z</time>
      </trkpt>
      <trkpt lat="48.14919" lon="-3.71077">
        <ele>260.9</ele>
        <time>2023-04-05T11:54:02Z</time>
      </trkpt>
      <trkpt lat="48.1492" lon="-3.71073">
        <ele>260.9</ele>
        <time>2023-04-05T11:54:03Z</time>
      </trkpt>
      <trkpt lat="48.14921" lon="-3.71067">
        <ele>260.9</ele>
        <time>2023-04-05T11:54:04Z</time>
      </trkpt>
      <trkpt lat="48.14921" lon="-3.71065">
        <ele>260.9</ele>
        <time>2023-04-05T11:54:05Z</time>
      </trkpt>
      <trkpt lat="48.14923" lon="-3.7106">
        <ele>261</ele>
        <time>2023-04-05T11:54:06Z</time>
      </trkpt>
      <trkpt lat="48.14923" lon="-3.71059">
        <ele>261</ele>
        <time>2023-04-05T11:54:07Z</time>
      </trkpt>
      <trkpt lat="48.14924" lon="-3.71053">
        <ele>261</ele>
        <time>2023-04-05T11:54:08Z</time>
      </trkpt>
      <trkpt lat="48.14924" lon="-3.7105">
        <ele>261</ele>
        <time>2023-04-05T11:54:09Z</time>
      </trkpt>
      <trkpt lat="48.14925" lon="-3.71046">
        <ele>261.1</ele>
        <time>2023-04-05T11:54:10Z</time>
      </trkpt>
      <trkpt lat="48.14926" lon="-3.71042">
        <ele>261.1</ele>
        <time>2023-04-05T11:54:11Z</time>
      </trkpt>
      <trkpt lat="48.14927" lon="-3.71038">
        <ele>261.1</ele>
        <time>2023-04-05T11:54:12Z</time>
      </trkpt>
      <trkpt lat="48.14927" lon="-3.71033">
        <ele>261.1</ele>
        <time>2023-04-05T11:54:13Z</time>
      </trkpt>
      <trkpt lat="48.14928" lon="-3.71029">
        <ele>261.1</ele>
        <time>2023-04-05T11:54:14Z</time>
      </trkpt>
      <trkpt lat="48.14929" lon="-3.71024">
        <ele>261.2</ele>
        <time>2023-04-05T11:54:15Z</time>
      </trkpt>
      <trkpt lat="48.1493" lon="-3.7102">
        <ele>261.2</ele>
        <time>2023-04-05T11:54:16Z</time>
      </trkpt>
      <trkpt lat="48.14931" lon="-3.71015">
        <ele>261.2</ele>
        <time>2023-04-05T11:54:17Z</time>
      </trkpt>
      <trkpt lat="48.14931" lon="-3.71011">
        <ele>261.2</ele>
        <time>2023-04-05T11:54:18Z</time>
      </trkpt>
      <trkpt lat="48.14932" lon="-3.71006">
        <ele>261.3</ele>
        <time>2023-04-05T11:54:19Z</time>
      </trkpt>
      <trkpt lat="48.14933" lon="-3.71">
        <ele>261.3</ele>
        <time>2023-04-05T11:54:20Z</time>
      </trkpt>
      <trkpt lat="48.14933" lon="-3.70998">
        <ele>261.3</ele>
        <time>2023-04-05T11:54:21Z</time>
      </trkpt>
      <trkpt lat="48.14933" lon="-3.70994">
        <ele>261.4</ele>
        <time>2023-04-05T11:54:22Z</time>
      </trkpt>
      <trkpt lat="48.14933" lon="-3.70988">
        <ele>261.4</ele>
        <time>2023-04-05T11:54:23Z</time>
      </trkpt>
      <trkpt lat="48.14933" lon="-3.70986">
        <ele>261.4</ele>
        <time>2023-04-05T11:54:24Z</time>
      </trkpt>
      <trkpt lat="48.14934" lon="-3.7098">
        <ele>261.5</ele>
        <time>2023-04-05T11:54:25Z</time>
      </trkpt>
      <trkpt lat="48.14934" lon="-3.70978">
        <ele>261.5</ele>
        <time>2023-04-05T11:54:26Z</time>
      </trkpt>
      <trkpt lat="48.14935" lon="-3.70973">
        <ele>261.5</ele>
        <time>2023-04-05T11:54:27Z</time>
      </trkpt>
      <trkpt lat="48.14935" lon="-3.70972">
        <ele>261.5</ele>
        <time>2023-04-05T11:54:28Z</time>
      </trkpt>
      <trkpt lat="48.14937" lon="-3.70965">
        <ele>261.6</ele>
        <time>2023-04-05T11:54:29Z</time>
      </trkpt>
      <trkpt lat="48.14938" lon="-3.7096">
        <ele>261.6</ele>
        <time>2023-04-05T11:54:31Z</time>
      </trkpt>
      <trkpt lat="48.14939" lon="-3.70955">
        <ele>261.6</ele>
        <time>2023-04-05T11:54:32Z</time>
      </trkpt>
      <trkpt lat="48.14939" lon="-3.70951">
        <ele>261.7</ele>
        <time>2023-04-05T11:54:33Z</time>
      </trkpt>
      <trkpt lat="48.1494" lon="-3.70946">
        <ele>261.7</ele>
        <time>2023-04-05T11:54:34Z</time>
      </trkpt>
      <trkpt lat="48.1494" lon="-3.70944">
        <ele>261.7</ele>
        <time>2023-04-05T11:54:35Z</time>
      </trkpt>
      <trkpt lat="48.1494" lon="-3.70939">
        <ele>261.7</ele>
        <time>2023-04-05T11:54:36Z</time>
      </trkpt>
      <trkpt lat="48.1494" lon="-3.70937">
        <ele>261.7</ele>
        <time>2023-04-05T11:54:37Z</time>
      </trkpt>
      <trkpt lat="48.14941" lon="-3.70932">
        <ele>261.8</ele>
        <time>2023-04-05T11:54:38Z</time>
      </trkpt>
      <trkpt lat="48.14941" lon="-3.7093">
        <ele>261.8</ele>
        <time>2023-04-05T11:54:39Z</time>
      </trkpt>
      <trkpt lat="48.14942" lon="-3.70925">
        <ele>261.8</ele>
        <time>2023-04-05T11:54:40Z</time>
      </trkpt>
      <trkpt lat="48.14942" lon="-3.70923">
        <ele>261.8</ele>
        <time>2023-04-05T11:54:41Z</time>
      </trkpt>
      <trkpt lat="48.14943" lon="-3.70919">
        <ele>261.9</ele>
        <time>2023-04-05T11:54:42Z</time>
      </trkpt>
      <trkpt lat="48.14944" lon="-3.70915">
        <ele>261.9</ele>
        <time>2023-04-05T11:54:43Z</time>
      </trkpt>
      <trkpt lat="48.14945" lon="-3.70911">
        <ele>261.9</ele>
        <time>2023-04-05T11:54:44Z</time>
      </trkpt>
      <trkpt lat="48.14946" lon="-3.70907">
        <ele>261.9</ele>
        <time>2023-04-05T11:54:45Z</time>
      </trkpt>
      <trkpt lat="48.14948" lon="-3.70902">
        <ele>262</ele>
        <time>2023-04-05T11:54:46Z</time>
      </trkpt>
      <trkpt lat="48.14949" lon="-3.70896">
        <ele>262</ele>
        <time>2023-04-05T11:54:47Z</time>
      </trkpt>
      <trkpt lat="48.14949" lon="-3.70894">
        <ele>262</ele>
        <time>2023-04-05T11:54:48Z</time>
      </trkpt>
      <trkpt lat="48.1495" lon="-3.70891">
        <ele>262</ele>
        <time>2023-04-05T11:54:49Z</time>
      </trkpt>
      <trkpt lat="48.14952" lon="-3.70881">
        <ele>262.1</ele>
        <time>2023-04-05T11:54:51Z</time>
      </trkpt>
      <trkpt lat="48.14953" lon="-3.70878">
        <ele>262.1</ele>
        <time>2023-04-05T11:54:52Z</time>
      </trkpt>
      <trkpt lat="48.14954" lon="-3.70872">
        <ele>262.1</ele>
        <time>2023-04-05T11:54:54Z</time>
      </trkpt>
      <trkpt lat="48.14955" lon="-3.7087">
        <ele>262.1</ele>
        <time>2023-04-05T11:54:55Z</time>
      </trkpt>
      <trkpt lat="48.14955" lon="-3.70867">
        <ele>262.1</ele>
        <time>2023-04-05T11:54:56Z</time>
      </trkpt>
      <trkpt lat="48.14957" lon="-3.70861">
        <ele>262.1</ele>
        <time>2023-04-05T11:54:57Z</time>
      </trkpt>
      <trkpt lat="48.14957" lon="-3.70857">
        <ele>262.1</ele>
        <time>2023-04-05T11:54:58Z</time>
      </trkpt>
      <trkpt lat="48.14958" lon="-3.70853">
        <ele>262.1</ele>
        <time>2023-04-05T11:55:00Z</time>
      </trkpt>
      <trkpt lat="48.1496" lon="-3.70847">
        <ele>262.1</ele>
        <time>2023-04-05T11:55:01Z</time>
      </trkpt>
      <trkpt lat="48.14961" lon="-3.70842">
        <ele>262.1</ele>
        <time>2023-04-05T11:55:03Z</time>
      </trkpt>
      <trkpt lat="48.14961" lon="-3.7084">
        <ele>262.1</ele>
        <time>2023-04-05T11:55:04Z</time>
      </trkpt>
      <trkpt lat="48.14962" lon="-3.70835">
        <ele>262.1</ele>
        <time>2023-04-05T11:55:05Z</time>
      </trkpt>
      <trkpt lat="48.14962" lon="-3.70833">
        <ele>262.1</ele>
        <time>2023-04-05T11:55:06Z</time>
      </trkpt>
      <trkpt lat="48.14963" lon="-3.70828">
        <ele>262.2</ele>
        <time>2023-04-05T11:55:07Z</time>
      </trkpt>
      <trkpt lat="48.14963" lon="-3.70827">
        <ele>262.2</ele>
        <time>2023-04-05T11:55:08Z</time>
      </trkpt>
      <trkpt lat="48.14964" lon="-3.70821">
        <ele>262.2</ele>
        <time>2023-04-05T11:55:09Z</time>
      </trkpt>
      <trkpt lat="48.14964" lon="-3.70819">
        <ele>262.2</ele>
        <time>2023-04-05T11:55:10Z</time>
      </trkpt>
      <trkpt lat="48.14965" lon="-3.70816">
        <ele>262.2</ele>
        <time>2023-04-05T11:55:11Z</time>
      </trkpt>
      <trkpt lat="48.14966" lon="-3.7081">
        <ele>262.2</ele>
        <time>2023-04-05T11:55:12Z</time>
      </trkpt>
      <trkpt lat="48.14966" lon="-3.70808">
        <ele>262.2</ele>
        <time>2023-04-05T11:55:13Z</time>
      </trkpt>
      <trkpt lat="48.14967" lon="-3.70804">
        <ele>262.2</ele>
        <time>2023-04-05T11:55:14Z</time>
      </trkpt>
      <trkpt lat="48.14968" lon="-3.70799">
        <ele>262.2</ele>
        <time>2023-04-05T11:55:15Z</time>
      </trkpt>
      <trkpt lat="48.14968" lon="-3.70797">
        <ele>262.3</ele>
        <time>2023-04-05T11:55:16Z</time>
      </trkpt>
      <trkpt lat="48.14969" lon="-3.70793">
        <ele>262.3</ele>
        <time>2023-04-05T11:55:17Z</time>
      </trkpt>
      <trkpt lat="48.14969" lon="-3.70789">
        <ele>262.3</ele>
        <time>2023-04-05T11:55:18Z</time>
      </trkpt>
      <trkpt lat="48.1497" lon="-3.70783">
        <ele>262.3</ele>
        <time>2023-04-05T11:55:19Z</time>
      </trkpt>
      <trkpt lat="48.14971" lon="-3.7078">
        <ele>262.3</ele>
        <time>2023-04-05T11:55:20Z</time>
      </trkpt>
      <trkpt lat="48.14972" lon="-3.70776">
        <ele>262.3</ele>
        <time>2023-04-05T11:55:21Z</time>
      </trkpt>
      <trkpt lat="48.14973" lon="-3.70771">
        <ele>262.3</ele>
        <time>2023-04-05T11:55:22Z</time>
      </trkpt>
      <trkpt lat="48.14973" lon="-3.70769">
        <ele>262.3</ele>
        <time>2023-04-05T11:55:23Z</time>
      </trkpt>
      <trkpt lat="48.14975" lon="-3.70762">
        <ele>262.4</ele>
        <time>2023-04-05T11:55:24Z</time>
      </trkpt>
      <trkpt lat="48.14975" lon="-3.7076">
        <ele>262.4</ele>
        <time>2023-04-05T11:55:25Z</time>
      </trkpt>
      <trkpt lat="48.14975" lon="-3.70755">
        <ele>262.4</ele>
        <time>2023-04-05T11:55:26Z</time>
      </trkpt>
      <trkpt lat="48.14975" lon="-3.70753">
        <ele>262.4</ele>
        <time>2023-04-05T11:55:27Z</time>
      </trkpt>
      <trkpt lat="48.14976" lon="-3.70748">
        <ele>262.5</ele>
        <time>2023-04-05T11:55:28Z</time>
      </trkpt>
      <trkpt lat="48.14978" lon="-3.70744">
        <ele>262.5</ele>
        <time>2023-04-05T11:55:30Z</time>
      </trkpt>
      <trkpt lat="48.14979" lon="-3.70737">
        <ele>262.6</ele>
        <time>2023-04-05T11:55:31Z</time>
      </trkpt>
      <trkpt lat="48.14981" lon="-3.7073">
        <ele>262.6</ele>
        <time>2023-04-05T11:55:33Z</time>
      </trkpt>
      <trkpt lat="48.14983" lon="-3.70722">
        <ele>262.7</ele>
        <time>2023-04-05T11:55:35Z</time>
      </trkpt>
      <trkpt lat="48.14986" lon="-3.70716">
        <ele>262.7</ele>
        <time>2023-04-05T11:55:37Z</time>
      </trkpt>
      <trkpt lat="48.14987" lon="-3.70712">
        <ele>262.7</ele>
        <time>2023-04-05T11:55:39Z</time>
      </trkpt>
      <trkpt lat="48.14989" lon="-3.70705">
        <ele>262.7</ele>
        <time>2023-04-05T11:55:40Z</time>
      </trkpt>
      <trkpt lat="48.1499" lon="-3.70701">
        <ele>262.7</ele>
        <time>2023-04-05T11:55:41Z</time>
      </trkpt>
      <trkpt lat="48.14991" lon="-3.70697">
        <ele>262.7</ele>
        <time>2023-04-05T11:55:42Z</time>
      </trkpt>
      <trkpt lat="48.14992" lon="-3.70692">
        <ele>262.7</ele>
        <time>2023-04-05T11:55:44Z</time>
      </trkpt>
      <trkpt lat="48.14993" lon="-3.7069">
        <ele>262.7</ele>
        <time>2023-04-05T11:55:45Z</time>
      </trkpt>
      <trkpt lat="48.14994" lon="-3.70685">
        <ele>262.7</ele>
        <time>2023-04-05T11:55:46Z</time>
      </trkpt>
      <trkpt lat="48.14995" lon="-3.70678">
        <ele>262.7</ele>
        <time>2023-04-05T11:55:48Z</time>
      </trkpt>
      <trkpt lat="48.14995" lon="-3.70676">
        <ele>262.7</ele>
        <time>2023-04-05T11:55:49Z</time>
      </trkpt>
      <trkpt lat="48.14996" lon="-3.70674">
        <ele>262.7</ele>
        <time>2023-04-05T11:55:50Z</time>
      </trkpt>
      <trkpt lat="48.14997" lon="-3.70666">
        <ele>262.8</ele>
        <time>2023-04-05T11:55:51Z</time>
      </trkpt>
      <trkpt lat="48.14999" lon="-3.70662">
        <ele>262.8</ele>
        <time>2023-04-05T11:55:53Z</time>
      </trkpt>
      <trkpt lat="48.15001" lon="-3.70657">
        <ele>262.9</ele>
        <time>2023-04-05T11:55:54Z</time>
      </trkpt>
      <trkpt lat="48.15002" lon="-3.70655">
        <ele>262.9</ele>
        <time>2023-04-05T11:55:55Z</time>
      </trkpt>
      <trkpt lat="48.15003" lon="-3.7065">
        <ele>262.9</ele>
        <time>2023-04-05T11:55:56Z</time>
      </trkpt>
      <trkpt lat="48.15003" lon="-3.70648">
        <ele>262.9</ele>
        <time>2023-04-05T11:55:57Z</time>
      </trkpt>
      <trkpt lat="48.15004" lon="-3.70643">
        <ele>263</ele>
        <time>2023-04-05T11:55:58Z</time>
      </trkpt>
      <trkpt lat="48.15004" lon="-3.70641">
        <ele>263</ele>
        <time>2023-04-05T11:55:59Z</time>
      </trkpt>
      <trkpt lat="48.15005" lon="-3.70636">
        <ele>263.1</ele>
        <time>2023-04-05T11:56:00Z</time>
      </trkpt>
      <trkpt lat="48.15006" lon="-3.70631">
        <ele>263.1</ele>
        <time>2023-04-05T11:56:01Z</time>
      </trkpt>
      <trkpt lat="48.15007" lon="-3.70629">
        <ele>263.2</ele>
        <time>2023-04-05T11:56:02Z</time>
      </trkpt>
      <trkpt lat="48.15008" lon="-3.70623">
        <ele>263.2</ele>
        <time>2023-04-05T11:56:03Z</time>
      </trkpt>
      <trkpt lat="48.15008" lon="-3.70621">
        <ele>263.2</ele>
        <time>2023-04-05T11:56:04Z</time>
      </trkpt>
      <trkpt lat="48.15009" lon="-3.70616">
        <ele>263.3</ele>
        <time>2023-04-05T11:56:05Z</time>
      </trkpt>
      <trkpt lat="48.15009" lon="-3.70611">
        <ele>263.4</ele>
        <time>2023-04-05T11:56:06Z</time>
      </trkpt>
      <trkpt lat="48.15009" lon="-3.70605">
        <ele>263.4</ele>
        <time>2023-04-05T11:56:07Z</time>
      </trkpt>
      <trkpt lat="48.15009" lon="-3.70603">
        <ele>263.5</ele>
        <time>2023-04-05T11:56:08Z</time>
      </trkpt>
      <trkpt lat="48.15008" lon="-3.70599">
        <ele>263.5</ele>
        <time>2023-04-05T11:56:09Z</time>
      </trkpt>
      <trkpt lat="48.15008" lon="-3.70597">
        <ele>263.5</ele>
        <time>2023-04-05T11:56:10Z</time>
      </trkpt>
      <trkpt lat="48.15009" lon="-3.70593">
        <ele>263.6</ele>
        <time>2023-04-05T11:56:11Z</time>
      </trkpt>
      <trkpt lat="48.1501" lon="-3.70592">
        <ele>263.6</ele>
        <time>2023-04-05T11:56:12Z</time>
      </trkpt>
      <trkpt lat="48.15011" lon="-3.70588">
        <ele>263.7</ele>
        <time>2023-04-05T11:56:13Z</time>
      </trkpt>
      <trkpt lat="48.15011" lon="-3.70586">
        <ele>263.7</ele>
        <time>2023-04-05T11:56:14Z</time>
      </trkpt>
      <trkpt lat="48.15013" lon="-3.70583">
        <ele>263.8</ele>
        <time>2023-04-05T11:56:15Z</time>
      </trkpt>
      <trkpt lat="48.15014" lon="-3.70579">
        <ele>263.8</ele>
        <time>2023-04-05T11:56:16Z</time>
      </trkpt>
      <trkpt lat="48.15014" lon="-3.70574">
        <ele>263.9</ele>
        <time>2023-04-05T11:56:17Z</time>
      </trkpt>
      <trkpt lat="48.15014" lon="-3.70573">
        <ele>263.9</ele>
        <time>2023-04-05T11:56:18Z</time>
      </trkpt>
      <trkpt lat="48.15014" lon="-3.70567">
        <ele>264</ele>
        <time>2023-04-05T11:56:19Z</time>
      </trkpt>
      <trkpt lat="48.15014" lon="-3.70566">
        <ele>264</ele>
        <time>2023-04-05T11:56:20Z</time>
      </trkpt>
      <trkpt lat="48.15014" lon="-3.7056">
        <ele>264.1</ele>
        <time>2023-04-05T11:56:21Z</time>
      </trkpt>
      <trkpt lat="48.15013" lon="-3.70557">
        <ele>264.1</ele>
        <time>2023-04-05T11:56:22Z</time>
      </trkpt>
      <trkpt lat="48.15014" lon="-3.70553">
        <ele>264.1</ele>
        <time>2023-04-05T11:56:23Z</time>
      </trkpt>
      <trkpt lat="48.15013" lon="-3.70548">
        <ele>264.2</ele>
        <time>2023-04-05T11:56:24Z</time>
      </trkpt>
      <trkpt lat="48.15013" lon="-3.70546">
        <ele>264.2</ele>
        <time>2023-04-05T11:56:25Z</time>
      </trkpt>
      <trkpt lat="48.15014" lon="-3.70541">
        <ele>264.2</ele>
        <time>2023-04-05T11:56:26Z</time>
      </trkpt>
      <trkpt lat="48.15015" lon="-3.7054">
        <ele>264.1</ele>
        <time>2023-04-05T11:56:27Z</time>
      </trkpt>
      <trkpt lat="48.15017" lon="-3.70535">
        <ele>264.1</ele>
        <time>2023-04-05T11:56:28Z</time>
      </trkpt>
      <trkpt lat="48.15017" lon="-3.7053">
        <ele>264.1</ele>
        <time>2023-04-05T11:56:29Z</time>
      </trkpt>
      <trkpt lat="48.15016" lon="-3.70526">
        <ele>264.1</ele>
        <time>2023-04-05T11:56:30Z</time>
      </trkpt>
      <trkpt lat="48.15015" lon="-3.7052">
        <ele>264</ele>
        <time>2023-04-05T11:56:31Z</time>
      </trkpt>
      <trkpt lat="48.15015" lon="-3.70518">
        <ele>264</ele>
        <time>2023-04-05T11:56:32Z</time>
      </trkpt>
      <trkpt lat="48.15017" lon="-3.70514">
        <ele>264</ele>
        <time>2023-04-05T11:56:33Z</time>
      </trkpt>
      <trkpt lat="48.15018" lon="-3.70511">
        <ele>264</ele>
        <time>2023-04-05T11:56:34Z</time>
      </trkpt>
      <trkpt lat="48.1502" lon="-3.70506">
        <ele>264</ele>
        <time>2023-04-05T11:56:35Z</time>
      </trkpt>
      <trkpt lat="48.15021" lon="-3.70502">
        <ele>264</ele>
        <time>2023-04-05T11:56:36Z</time>
      </trkpt>
      <trkpt lat="48.15021" lon="-3.70498">
        <ele>264</ele>
        <time>2023-04-05T11:56:37Z</time>
      </trkpt>
      <trkpt lat="48.15021" lon="-3.70494">
        <ele>263.9</ele>
        <time>2023-04-05T11:56:38Z</time>
      </trkpt>
      <trkpt lat="48.15021" lon="-3.7049">
        <ele>263.9</ele>
        <time>2023-04-05T11:56:40Z</time>
      </trkpt>
      <trkpt lat="48.15021" lon="-3.70484">
        <ele>263.9</ele>
        <time>2023-04-05T11:56:41Z</time>
      </trkpt>
      <trkpt lat="48.1502" lon="-3.7048">
        <ele>263.9</ele>
        <time>2023-04-05T11:56:42Z</time>
      </trkpt>
      <trkpt lat="48.15021" lon="-3.70476">
        <ele>263.9</ele>
        <time>2023-04-05T11:56:44Z</time>
      </trkpt>
      <trkpt lat="48.15021" lon="-3.70472">
        <ele>263.9</ele>
        <time>2023-04-05T11:56:45Z</time>
      </trkpt>
      <trkpt lat="48.15021" lon="-3.7047">
        <ele>263.9</ele>
        <time>2023-04-05T11:56:46Z</time>
      </trkpt>
      <trkpt lat="48.15022" lon="-3.70465">
        <ele>263.8</ele>
        <time>2023-04-05T11:56:47Z</time>
      </trkpt>
      <trkpt lat="48.15022" lon="-3.70463">
        <ele>263.8</ele>
        <time>2023-04-05T11:56:48Z</time>
      </trkpt>
      <trkpt lat="48.15023" lon="-3.70457">
        <ele>263.7</ele>
        <time>2023-04-05T11:56:49Z</time>
      </trkpt>
      <trkpt lat="48.15023" lon="-3.70454">
        <ele>263.7</ele>
        <time>2023-04-05T11:56:50Z</time>
      </trkpt>
      <trkpt lat="48.15025" lon="-3.70445">
        <ele>263.6</ele>
        <time>2023-04-05T11:56:52Z</time>
      </trkpt>
      <trkpt lat="48.15026" lon="-3.70439">
        <ele>263.5</ele>
        <time>2023-04-05T11:56:54Z</time>
      </trkpt>
      <trkpt lat="48.15027" lon="-3.70436">
        <ele>263.5</ele>
        <time>2023-04-05T11:56:55Z</time>
      </trkpt>
      <trkpt lat="48.15027" lon="-3.70434">
        <ele>263.5</ele>
        <time>2023-04-05T11:56:56Z</time>
      </trkpt>
      <trkpt lat="48.15028" lon="-3.70428">
        <ele>263.4</ele>
        <time>2023-04-05T11:56:57Z</time>
      </trkpt>
      <trkpt lat="48.15029" lon="-3.70426">
        <ele>263.4</ele>
        <time>2023-04-05T11:56:58Z</time>
      </trkpt>
      <trkpt lat="48.1503" lon="-3.70423">
        <ele>263.4</ele>
        <time>2023-04-05T11:56:59Z</time>
      </trkpt>
      <trkpt lat="48.15031" lon="-3.70418">
        <ele>263.3</ele>
        <time>2023-04-05T11:57:00Z</time>
      </trkpt>
      <trkpt lat="48.15032" lon="-3.70414">
        <ele>263.3</ele>
        <time>2023-04-05T11:57:01Z</time>
      </trkpt>
      <trkpt lat="48.15034" lon="-3.70408">
        <ele>263.2</ele>
        <time>2023-04-05T11:57:02Z</time>
      </trkpt>
      <trkpt lat="48.15035" lon="-3.70402">
        <ele>263.1</ele>
        <time>2023-04-05T11:57:03Z</time>
      </trkpt>
      <trkpt lat="48.15035" lon="-3.70398">
        <ele>263.1</ele>
        <time>2023-04-05T11:57:04Z</time>
      </trkpt>
      <trkpt lat="48.15036" lon="-3.70394">
        <ele>263</ele>
        <time>2023-04-05T11:57:05Z</time>
      </trkpt>
      <trkpt lat="48.15038" lon="-3.7039">
        <ele>263</ele>
        <time>2023-04-05T11:57:06Z</time>
      </trkpt>
      <trkpt lat="48.15038" lon="-3.70385">
        <ele>262.9</ele>
        <time>2023-04-05T11:57:07Z</time>
      </trkpt>
      <trkpt lat="48.1504" lon="-3.70379">
        <ele>262.9</ele>
        <time>2023-04-05T11:57:08Z</time>
      </trkpt>
      <trkpt lat="48.15041" lon="-3.70373">
        <ele>262.8</ele>
        <time>2023-04-05T11:57:09Z</time>
      </trkpt>
      <trkpt lat="48.15042" lon="-3.70368">
        <ele>262.8</ele>
        <time>2023-04-05T11:57:11Z</time>
      </trkpt>
      <trkpt lat="48.15043" lon="-3.7036">
        <ele>262.8</ele>
        <time>2023-04-05T11:57:12Z</time>
      </trkpt>
      <trkpt lat="48.15043" lon="-3.70356">
        <ele>262.7</ele>
        <time>2023-04-05T11:57:13Z</time>
      </trkpt>
      <trkpt lat="48.15044" lon="-3.70351">
        <ele>262.7</ele>
        <time>2023-04-05T11:57:14Z</time>
      </trkpt>
      <trkpt lat="48.15045" lon="-3.70347">
        <ele>262.7</ele>
        <time>2023-04-05T11:57:15Z</time>
      </trkpt>
      <trkpt lat="48.15046" lon="-3.70341">
        <ele>262.6</ele>
        <time>2023-04-05T11:57:17Z</time>
      </trkpt>
      <trkpt lat="48.15047" lon="-3.70338">
        <ele>262.6</ele>
        <time>2023-04-05T11:57:19Z</time>
      </trkpt>
      <trkpt lat="48.15048" lon="-3.70333">
        <ele>262.6</ele>
        <time>2023-04-05T11:57:20Z</time>
      </trkpt>
      <trkpt lat="48.15052" lon="-3.70324">
        <ele>262.5</ele>
        <time>2023-04-05T11:57:21Z</time>
      </trkpt>
      <trkpt lat="48.15053" lon="-3.70319">
        <ele>262.4</ele>
        <time>2023-04-05T11:57:22Z</time>
      </trkpt>
      <trkpt lat="48.15054" lon="-3.7031">
        <ele>262.3</ele>
        <time>2023-04-05T11:57:24Z</time>
      </trkpt>
      <trkpt lat="48.15055" lon="-3.70307">
        <ele>262.3</ele>
        <time>2023-04-05T11:57:25Z</time>
      </trkpt>
      <trkpt lat="48.15056" lon="-3.70303">
        <ele>262.2</ele>
        <time>2023-04-05T11:57:26Z</time>
      </trkpt>
      <trkpt lat="48.15058" lon="-3.70298">
        <ele>262.1</ele>
        <time>2023-04-05T11:57:27Z</time>
      </trkpt>
      <trkpt lat="48.15059" lon="-3.70293">
        <ele>262</ele>
        <time>2023-04-05T11:57:28Z</time>
      </trkpt>
      <trkpt lat="48.15062" lon="-3.70283">
        <ele>261.9</ele>
        <time>2023-04-05T11:57:30Z</time>
      </trkpt>
      <trkpt lat="48.15064" lon="-3.70278">
        <ele>261.8</ele>
        <time>2023-04-05T11:57:31Z</time>
      </trkpt>
      <trkpt lat="48.15065" lon="-3.70273">
        <ele>261.7</ele>
        <time>2023-04-05T11:57:32Z</time>
      </trkpt>
      <trkpt lat="48.15068" lon="-3.70267">
        <ele>261.6</ele>
        <time>2023-04-05T11:57:34Z</time>
      </trkpt>
      <trkpt lat="48.15069" lon="-3.70262">
        <ele>261.6</ele>
        <time>2023-04-05T11:57:35Z</time>
      </trkpt>
      <trkpt lat="48.1507" lon="-3.70257">
        <ele>261.5</ele>
        <time>2023-04-05T11:57:36Z</time>
      </trkpt>
      <trkpt lat="48.15071" lon="-3.7025">
        <ele>261.4</ele>
        <time>2023-04-05T11:57:37Z</time>
      </trkpt>
      <trkpt lat="48.15071" lon="-3.70247">
        <ele>261.4</ele>
        <time>2023-04-05T11:57:38Z</time>
      </trkpt>
      <trkpt lat="48.15072" lon="-3.70242">
        <ele>261.3</ele>
        <time>2023-04-05T11:57:39Z</time>
      </trkpt>
      <trkpt lat="48.15073" lon="-3.70238">
        <ele>261.3</ele>
        <time>2023-04-05T11:57:40Z</time>
      </trkpt>
      <trkpt lat="48.15073" lon="-3.70233">
        <ele>261.2</ele>
        <time>2023-04-05T11:57:41Z</time>
      </trkpt>
      <trkpt lat="48.15074" lon="-3.70229">
        <ele>261.2</ele>
        <time>2023-04-05T11:57:42Z</time>
      </trkpt>
      <trkpt lat="48.15075" lon="-3.70225">
        <ele>261.1</ele>
        <time>2023-04-05T11:57:43Z</time>
      </trkpt>
      <trkpt lat="48.15076" lon="-3.7022">
        <ele>261.1</ele>
        <time>2023-04-05T11:57:44Z</time>
      </trkpt>
      <trkpt lat="48.15077" lon="-3.70217">
        <ele>261.1</ele>
        <time>2023-04-05T11:57:45Z</time>
      </trkpt>
      <trkpt lat="48.15078" lon="-3.70215">
        <ele>261.1</ele>
        <time>2023-04-05T11:57:46Z</time>
      </trkpt>
      <trkpt lat="48.15078" lon="-3.70214">
        <ele>261</ele>
        <time>2023-04-05T11:57:47Z</time>
      </trkpt>
      <trkpt lat="48.1508" lon="-3.70207">
        <ele>261</ele>
        <time>2023-04-05T11:57:48Z</time>
      </trkpt>
      <trkpt lat="48.15081" lon="-3.70203">
        <ele>261</ele>
        <time>2023-04-05T11:57:49Z</time>
      </trkpt>
      <trkpt lat="48.15081" lon="-3.70198">
        <ele>260.9</ele>
        <time>2023-04-05T11:57:51Z</time>
      </trkpt>
      <trkpt lat="48.15081" lon="-3.70196">
        <ele>260.9</ele>
        <time>2023-04-05T11:57:52Z</time>
      </trkpt>
      <trkpt lat="48.15083" lon="-3.7019">
        <ele>260.9</ele>
        <time>2023-04-05T11:57:53Z</time>
      </trkpt>
      <trkpt lat="48.15083" lon="-3.70188">
        <ele>260.9</ele>
        <time>2023-04-05T11:57:54Z</time>
      </trkpt>
      <trkpt lat="48.15086" lon="-3.70183">
        <ele>260.8</ele>
        <time>2023-04-05T11:57:55Z</time>
      </trkpt>
      <trkpt lat="48.15087" lon="-3.70181">
        <ele>260.8</ele>
        <time>2023-04-05T11:57:56Z</time>
      </trkpt>
      <trkpt lat="48.15088" lon="-3.70177">
        <ele>260.8</ele>
        <time>2023-04-05T11:57:57Z</time>
      </trkpt>
      <trkpt lat="48.15088" lon="-3.7017">
        <ele>260.7</ele>
        <time>2023-04-05T11:57:58Z</time>
      </trkpt>
      <trkpt lat="48.15087" lon="-3.70164">
        <ele>260.7</ele>
        <time>2023-04-05T11:58:00Z</time>
      </trkpt>
      <trkpt lat="48.15085" lon="-3.7016">
        <ele>260.7</ele>
        <time>2023-04-05T11:58:01Z</time>
      </trkpt>
      <trkpt lat="48.15084" lon="-3.70156">
        <ele>260.6</ele>
        <time>2023-04-05T11:58:02Z</time>
      </trkpt>
      <trkpt lat="48.15084" lon="-3.70155">
        <ele>260.6</ele>
        <time>2023-04-05T11:58:03Z</time>
      </trkpt>
      <trkpt lat="48.15086" lon="-3.7015">
        <ele>260.6</ele>
        <time>2023-04-05T11:58:04Z</time>
      </trkpt>
      <trkpt lat="48.15087" lon="-3.70148">
        <ele>260.6</ele>
        <time>2023-04-05T11:58:05Z</time>
      </trkpt>
      <trkpt lat="48.15088" lon="-3.70143">
        <ele>260.6</ele>
        <time>2023-04-05T11:58:06Z</time>
      </trkpt>
      <trkpt lat="48.15089" lon="-3.70138">
        <ele>260.6</ele>
        <time>2023-04-05T11:58:07Z</time>
      </trkpt>
      <trkpt lat="48.1509" lon="-3.70136">
        <ele>260.6</ele>
        <time>2023-04-05T11:58:08Z</time>
      </trkpt>
      <trkpt lat="48.1509" lon="-3.70132">
        <ele>260.5</ele>
        <time>2023-04-05T11:58:09Z</time>
      </trkpt>
      <trkpt lat="48.1509" lon="-3.70124">
        <ele>260.5</ele>
        <time>2023-04-05T11:58:10Z</time>
      </trkpt>
      <trkpt lat="48.1509" lon="-3.70118">
        <ele>260.5</ele>
        <time>2023-04-05T11:58:12Z</time>
      </trkpt>
      <trkpt lat="48.15091" lon="-3.70115">
        <ele>260.5</ele>
        <time>2023-04-05T11:58:13Z</time>
      </trkpt>
      <trkpt lat="48.15091" lon="-3.70113">
        <ele>260.4</ele>
        <time>2023-04-05T11:58:14Z</time>
      </trkpt>
      <trkpt lat="48.15092" lon="-3.70108">
        <ele>260.4</ele>
        <time>2023-04-05T11:58:15Z</time>
      </trkpt>
      <trkpt lat="48.15093" lon="-3.70103">
        <ele>260.4</ele>
        <time>2023-04-05T11:58:16Z</time>
      </trkpt>
      <trkpt lat="48.15095" lon="-3.70099">
        <ele>260.3</ele>
        <time>2023-04-05T11:58:17Z</time>
      </trkpt>
      <trkpt lat="48.15098" lon="-3.70093">
        <ele>260.3</ele>
        <time>2023-04-05T11:58:18Z</time>
      </trkpt>
      <trkpt lat="48.15099" lon="-3.70088">
        <ele>260.2</ele>
        <time>2023-04-05T11:58:19Z</time>
      </trkpt>
      <trkpt lat="48.151" lon="-3.70085">
        <ele>260.1</ele>
        <time>2023-04-05T11:58:20Z</time>
      </trkpt>
      <trkpt lat="48.15103" lon="-3.70083">
        <ele>260.1</ele>
        <time>2023-04-05T11:58:21Z</time>
      </trkpt>
      <trkpt lat="48.15107" lon="-3.70083">
        <ele>260</ele>
        <time>2023-04-05T11:58:22Z</time>
      </trkpt>
      <trkpt lat="48.15109" lon="-3.70084">
        <ele>260</ele>
        <time>2023-04-05T11:58:23Z</time>
      </trkpt>
      <trkpt lat="48.15112" lon="-3.70085">
        <ele>259.9</ele>
        <time>2023-04-05T11:58:24Z</time>
      </trkpt>
      <trkpt lat="48.15115" lon="-3.70083">
        <ele>259.8</ele>
        <time>2023-04-05T11:58:25Z</time>
      </trkpt>
      <trkpt lat="48.15117" lon="-3.70078">
        <ele>259.7</ele>
        <time>2023-04-05T11:58:26Z</time>
      </trkpt>
      <trkpt lat="48.15119" lon="-3.70073">
        <ele>259.6</ele>
        <time>2023-04-05T11:58:27Z</time>
      </trkpt>
      <trkpt lat="48.1512" lon="-3.70069">
        <ele>259.5</ele>
        <time>2023-04-05T11:58:28Z</time>
      </trkpt>
      <trkpt lat="48.15122" lon="-3.70065">
        <ele>259.4</ele>
        <time>2023-04-05T11:58:29Z</time>
      </trkpt>
      <trkpt lat="48.15124" lon="-3.7006">
        <ele>259.3</ele>
        <time>2023-04-05T11:58:30Z</time>
      </trkpt>
      <trkpt lat="48.15127" lon="-3.70053">
        <ele>259.1</ele>
        <time>2023-04-05T11:58:32Z</time>
      </trkpt>
      <trkpt lat="48.15128" lon="-3.70051">
        <ele>259.1</ele>
        <time>2023-04-05T11:58:33Z</time>
      </trkpt>
      <trkpt lat="48.15128" lon="-3.70049">
        <ele>259.1</ele>
        <time>2023-04-05T11:58:34Z</time>
      </trkpt>
      <trkpt lat="48.15129" lon="-3.70047">
        <ele>259</ele>
        <time>2023-04-05T11:58:35Z</time>
      </trkpt>
      <trkpt lat="48.1513" lon="-3.70045">
        <ele>259</ele>
        <time>2023-04-05T11:58:36Z</time>
      </trkpt>
      <trkpt lat="48.15132" lon="-3.70044">
        <ele>258.9</ele>
        <time>2023-04-05T11:58:37Z</time>
      </trkpt>
      <trkpt lat="48.15133" lon="-3.70041">
        <ele>258.9</ele>
        <time>2023-04-05T11:58:39Z</time>
      </trkpt>
      <trkpt lat="48.15134" lon="-3.70036">
        <ele>258.8</ele>
        <time>2023-04-05T11:58:40Z</time>
      </trkpt>
      <trkpt lat="48.15136" lon="-3.70028">
        <ele>258.7</ele>
        <time>2023-04-05T11:58:42Z</time>
      </trkpt>
      <trkpt lat="48.15137" lon="-3.70021">
        <ele>258.6</ele>
        <time>2023-04-05T11:58:44Z</time>
      </trkpt>
      <trkpt lat="48.15139" lon="-3.70013">
        <ele>258.5</ele>
        <time>2023-04-05T11:58:46Z</time>
      </trkpt>
      <trkpt lat="48.15141" lon="-3.70009">
        <ele>258.5</ele>
        <time>2023-04-05T11:58:48Z</time>
      </trkpt>
      <trkpt lat="48.15143" lon="-3.70003">
        <ele>258.4</ele>
        <time>2023-04-05T11:58:49Z</time>
      </trkpt>
      <trkpt lat="48.15143" lon="-3.70001">
        <ele>258.4</ele>
        <time>2023-04-05T11:58:50Z</time>
      </trkpt>
      <trkpt lat="48.15145" lon="-3.69996">
        <ele>258.3</ele>
        <time>2023-04-05T11:58:51Z</time>
      </trkpt>
      <trkpt lat="48.15147" lon="-3.69992">
        <ele>258.2</ele>
        <time>2023-04-05T11:58:52Z</time>
      </trkpt>
      <trkpt lat="48.15148" lon="-3.69988">
        <ele>258.2</ele>
        <time>2023-04-05T11:58:53Z</time>
      </trkpt>
      <trkpt lat="48.15148" lon="-3.69986">
        <ele>258.2</ele>
        <time>2023-04-05T11:58:54Z</time>
      </trkpt>
      <trkpt lat="48.15151" lon="-3.69983">
        <ele>258.1</ele>
        <time>2023-04-05T11:58:55Z</time>
      </trkpt>
      <trkpt lat="48.15152" lon="-3.69981">
        <ele>258.1</ele>
        <time>2023-04-05T11:58:56Z</time>
      </trkpt>
      <trkpt lat="48.15154" lon="-3.69976">
        <ele>258.1</ele>
        <time>2023-04-05T11:58:57Z</time>
      </trkpt>
      <trkpt lat="48.15155" lon="-3.69972">
        <ele>258</ele>
        <time>2023-04-05T11:58:58Z</time>
      </trkpt>
      <trkpt lat="48.15158" lon="-3.69968">
        <ele>258</ele>
        <time>2023-04-05T11:58:59Z</time>
      </trkpt>
      <trkpt lat="48.15159" lon="-3.69963">
        <ele>258</ele>
        <time>2023-04-05T11:59:00Z</time>
      </trkpt>
      <trkpt lat="48.15159" lon="-3.69961">
        <ele>258</ele>
        <time>2023-04-05T11:59:01Z</time>
      </trkpt>
      <trkpt lat="48.1516" lon="-3.69955">
        <ele>258</ele>
        <time>2023-04-05T11:59:02Z</time>
      </trkpt>
      <trkpt lat="48.15161" lon="-3.69953">
        <ele>258</ele>
        <time>2023-04-05T11:59:03Z</time>
      </trkpt>
      <trkpt lat="48.15164" lon="-3.69946">
        <ele>258</ele>
        <time>2023-04-05T11:59:04Z</time>
      </trkpt>
      <trkpt lat="48.15165" lon="-3.69943">
        <ele>258.1</ele>
        <time>2023-04-05T11:59:05Z</time>
      </trkpt>
      <trkpt lat="48.15166" lon="-3.69938">
        <ele>258.1</ele>
        <time>2023-04-05T11:59:07Z</time>
      </trkpt>
      <trkpt lat="48.15168" lon="-3.69933">
        <ele>258.1</ele>
        <time>2023-04-05T11:59:08Z</time>
      </trkpt>
      <trkpt lat="48.15168" lon="-3.6993">
        <ele>258.1</ele>
        <time>2023-04-05T11:59:09Z</time>
      </trkpt>
      <trkpt lat="48.15169" lon="-3.69924">
        <ele>258.2</ele>
        <time>2023-04-05T11:59:10Z</time>
      </trkpt>
      <trkpt lat="48.1517" lon="-3.69919">
        <ele>258.2</ele>
        <time>2023-04-05T11:59:12Z</time>
      </trkpt>
      <trkpt lat="48.1517" lon="-3.69915">
        <ele>258.2</ele>
        <time>2023-04-05T11:59:13Z</time>
      </trkpt>
      <trkpt lat="48.1517" lon="-3.69911">
        <ele>258.2</ele>
        <time>2023-04-05T11:59:14Z</time>
      </trkpt>
      <trkpt lat="48.1517" lon="-3.69909">
        <ele>258.2</ele>
        <time>2023-04-05T11:59:15Z</time>
      </trkpt>
      <trkpt lat="48.15172" lon="-3.69904">
        <ele>258.2</ele>
        <time>2023-04-05T11:59:16Z</time>
      </trkpt>
      <trkpt lat="48.15173" lon="-3.69902">
        <ele>258.2</ele>
        <time>2023-04-05T11:59:17Z</time>
      </trkpt>
      <trkpt lat="48.15175" lon="-3.69898">
        <ele>258.2</ele>
        <time>2023-04-05T11:59:18Z</time>
      </trkpt>
      <trkpt lat="48.15176" lon="-3.69893">
        <ele>258.1</ele>
        <time>2023-04-05T11:59:19Z</time>
      </trkpt>
      <trkpt lat="48.15176" lon="-3.69888">
        <ele>258.1</ele>
        <time>2023-04-05T11:59:20Z</time>
      </trkpt>
      <trkpt lat="48.15176" lon="-3.69882">
        <ele>258.1</ele>
        <time>2023-04-05T11:59:21Z</time>
      </trkpt>
      <trkpt lat="48.15176" lon="-3.6988">
        <ele>258.1</ele>
        <time>2023-04-05T11:59:22Z</time>
      </trkpt>
      <trkpt lat="48.15177" lon="-3.69874">
        <ele>258.1</ele>
        <time>2023-04-05T11:59:23Z</time>
      </trkpt>
      <trkpt lat="48.15178" lon="-3.69867">
        <ele>258.1</ele>
        <time>2023-04-05T11:59:24Z</time>
      </trkpt>
      <trkpt lat="48.15179" lon="-3.69862">
        <ele>258.1</ele>
        <time>2023-04-05T11:59:25Z</time>
      </trkpt>
      <trkpt lat="48.1518" lon="-3.69852">
        <ele>258.1</ele>
        <time>2023-04-05T11:59:27Z</time>
      </trkpt>
      <trkpt lat="48.15181" lon="-3.69846">
        <ele>258.1</ele>
        <time>2023-04-05T11:59:29Z</time>
      </trkpt>
      <trkpt lat="48.15182" lon="-3.69841">
        <ele>258.1</ele>
        <time>2023-04-05T11:59:30Z</time>
      </trkpt>
      <trkpt lat="48.15183" lon="-3.69837">
        <ele>258.1</ele>
        <time>2023-04-05T11:59:31Z</time>
      </trkpt>
      <trkpt lat="48.15185" lon="-3.69832">
        <ele>258.1</ele>
        <time>2023-04-05T11:59:32Z</time>
      </trkpt>
      <trkpt lat="48.15185" lon="-3.6983">
        <ele>258.1</ele>
        <time>2023-04-05T11:59:33Z</time>
      </trkpt>
      <trkpt lat="48.15186" lon="-3.69825">
        <ele>258.1</ele>
        <time>2023-04-05T11:59:34Z</time>
      </trkpt>
      <trkpt lat="48.15186" lon="-3.69824">
        <ele>258.1</ele>
        <time>2023-04-05T11:59:35Z</time>
      </trkpt>
      <trkpt lat="48.15186" lon="-3.69823">
        <ele>258.1</ele>
        <time>2023-04-05T11:59:36Z</time>
      </trkpt>
      <trkpt lat="48.15186" lon="-3.69822">
        <ele>258.1</ele>
        <time>2023-04-05T11:59:37Z</time>
      </trkpt>
      <trkpt lat="48.15187" lon="-3.69822">
        <ele>258.1</ele>
        <time>2023-04-05T11:59:38Z</time>
      </trkpt>
      <trkpt lat="48.15187" lon="-3.69821">
        <ele>258.1</ele>
        <time>2023-04-05T11:59:39Z</time>
      </trkpt>
      <trkpt lat="48.15187" lon="-3.6982">
        <ele>258.1</ele>
        <time>2023-04-05T11:59:40Z</time>
      </trkpt>
      <trkpt lat="48.15187" lon="-3.69819">
        <ele>258.1</ele>
        <time>2023-04-05T11:59:41Z</time>
      </trkpt>
      <trkpt lat="48.15187" lon="-3.69813">
        <ele>258.1</ele>
        <time>2023-04-05T11:59:42Z</time>
      </trkpt>
      <trkpt lat="48.15187" lon="-3.6981">
        <ele>258.1</ele>
        <time>2023-04-05T11:59:43Z</time>
      </trkpt>
      <trkpt lat="48.15187" lon="-3.69805">
        <ele>258.1</ele>
        <time>2023-04-05T11:59:44Z</time>
      </trkpt>
      <trkpt lat="48.15187" lon="-3.69804">
        <ele>258.1</ele>
        <time>2023-04-05T11:59:45Z</time>
      </trkpt>
      <trkpt lat="48.15187" lon="-3.69799">
        <ele>258.1</ele>
        <time>2023-04-05T11:59:46Z</time>
      </trkpt>
      <trkpt lat="48.15187" lon="-3.69798">
        <ele>258</ele>
        <time>2023-04-05T11:59:47Z</time>
      </trkpt>
      <trkpt lat="48.15186" lon="-3.69793">
        <ele>258</ele>
        <time>2023-04-05T11:59:48Z</time>
      </trkpt>
      <trkpt lat="48.15186" lon="-3.69792">
        <ele>258</ele>
        <time>2023-04-05T11:59:49Z</time>
      </trkpt>
      <trkpt lat="48.15186" lon="-3.69792">
        <ele>258</ele>
        <time>2023-04-05T11:59:50Z</time>
      </trkpt>
      <trkpt lat="48.15186" lon="-3.69792">
        <ele>258</ele>
        <time>2023-04-05T11:59:51Z</time>
      </trkpt>
      <trkpt lat="48.15186" lon="-3.69792">
        <ele>258</ele>
        <time>2023-04-05T11:59:52Z</time>
      </trkpt>
      <trkpt lat="48.15186" lon="-3.69791">
        <ele>258</ele>
        <time>2023-04-05T11:59:53Z</time>
      </trkpt>
      <trkpt lat="48.15186" lon="-3.69791">
        <ele>258</ele>
        <time>2023-04-05T11:59:54Z</time>
      </trkpt>
      <trkpt lat="48.15186" lon="-3.69791">
        <ele>258</ele>
        <time>2023-04-05T11:59:55Z</time>
      </trkpt>
      <trkpt lat="48.15185" lon="-3.69791">
        <ele>258</ele>
        <time>2023-04-05T11:59:56Z</time>
      </trkpt>
      <trkpt lat="48.15184" lon="-3.69791">
        <ele>258</ele>
        <time>2023-04-05T11:59:57Z</time>
      </trkpt>
      <trkpt lat="48.15184" lon="-3.69791">
        <ele>258</ele>
        <time>2023-04-05T11:59:58Z</time>
      </trkpt>
      <trkpt lat="48.15183" lon="-3.6979">
        <ele>258</ele>
        <time>2023-04-05T11:59:59Z</time>
      </trkpt>
      <trkpt lat="48.15182" lon="-3.69789">
        <ele>258</ele>
        <time>2023-04-05T12:00:00Z</time>
      </trkpt>
      <trkpt lat="48.15181" lon="-3.69789">
        <ele>258</ele>
        <time>2023-04-05T12:00:01Z</time>
      </trkpt>
      <trkpt lat="48.1518" lon="-3.69788">
        <ele>258</ele>
        <time>2023-04-05T12:00:02Z</time>
      </trkpt>
      <trkpt lat="48.15179" lon="-3.69788">
        <ele>258</ele>
        <time>2023-04-05T12:00:03Z</time>
      </trkpt>
      <trkpt lat="48.15178" lon="-3.69788">
        <ele>258</ele>
        <time>2023-04-05T12:00:04Z</time>
      </trkpt>
      <trkpt lat="48.15178" lon="-3.69788">
        <ele>258</ele>
        <time>2023-04-05T12:00:05Z</time>
      </trkpt>
      <trkpt lat="48.15177" lon="-3.69787">
        <ele>258</ele>
        <time>2023-04-05T12:00:06Z</time>
      </trkpt>
      <trkpt lat="48.15177" lon="-3.69787">
        <ele>258</ele>
        <time>2023-04-05T12:00:07Z</time>
      </trkpt>
      <trkpt lat="48.15176" lon="-3.69787">
        <ele>258</ele>
        <time>2023-04-05T12:00:08Z</time>
      </trkpt>
      <trkpt lat="48.15175" lon="-3.69787">
        <ele>258</ele>
        <time>2023-04-05T12:00:09Z</time>
      </trkpt>
      <trkpt lat="48.15173" lon="-3.69788">
        <ele>258</ele>
        <time>2023-04-05T12:00:10Z</time>
      </trkpt>
      <trkpt lat="48.15169" lon="-3.69788">
        <ele>258.1</ele>
        <time>2023-04-05T12:00:11Z</time>
      </trkpt>
      <trkpt lat="48.15168" lon="-3.69788">
        <ele>258.1</ele>
        <time>2023-04-05T12:00:12Z</time>
      </trkpt>
      <trkpt lat="48.15166" lon="-3.69785">
        <ele>258.1</ele>
        <time>2023-04-05T12:00:13Z</time>
      </trkpt>
      <trkpt lat="48.15163" lon="-3.69782">
        <ele>258.1</ele>
        <time>2023-04-05T12:00:14Z</time>
      </trkpt>
      <trkpt lat="48.15162" lon="-3.69782">
        <ele>258.1</ele>
        <time>2023-04-05T12:00:15Z</time>
      </trkpt>
      <trkpt lat="48.15157" lon="-3.69779">
        <ele>258.2</ele>
        <time>2023-04-05T12:00:16Z</time>
      </trkpt>
      <trkpt lat="48.15156" lon="-3.69778">
        <ele>258.2</ele>
        <time>2023-04-05T12:00:17Z</time>
      </trkpt>
      <trkpt lat="48.15152" lon="-3.69776">
        <ele>258.2</ele>
        <time>2023-04-05T12:00:19Z</time>
      </trkpt>
      <trkpt lat="48.15148" lon="-3.69774">
        <ele>258.2</ele>
        <time>2023-04-05T12:00:20Z</time>
      </trkpt>
      <trkpt lat="48.15147" lon="-3.69773">
        <ele>258.2</ele>
        <time>2023-04-05T12:00:21Z</time>
      </trkpt>
      <trkpt lat="48.15144" lon="-3.69771">
        <ele>258.3</ele>
        <time>2023-04-05T12:00:22Z</time>
      </trkpt>
      <trkpt lat="48.15143" lon="-3.69771">
        <ele>258.3</ele>
        <time>2023-04-05T12:00:23Z</time>
      </trkpt>
      <trkpt lat="48.1514" lon="-3.69769">
        <ele>258.3</ele>
        <time>2023-04-05T12:00:24Z</time>
      </trkpt>
      <trkpt lat="48.15139" lon="-3.69768">
        <ele>258.3</ele>
        <time>2023-04-05T12:00:25Z</time>
      </trkpt>
      <trkpt lat="48.15136" lon="-3.69767">
        <ele>258.3</ele>
        <time>2023-04-05T12:00:26Z</time>
      </trkpt>
      <trkpt lat="48.15134" lon="-3.69766">
        <ele>258.3</ele>
        <time>2023-04-05T12:00:27Z</time>
      </trkpt>
      <trkpt lat="48.15131" lon="-3.69765">
        <ele>258.3</ele>
        <time>2023-04-05T12:00:28Z</time>
      </trkpt>
      <trkpt lat="48.15129" lon="-3.69764">
        <ele>258.3</ele>
        <time>2023-04-05T12:00:29Z</time>
      </trkpt>
      <trkpt lat="48.15125" lon="-3.69762">
        <ele>258.2</ele>
        <time>2023-04-05T12:00:30Z</time>
      </trkpt>
      <trkpt lat="48.15122" lon="-3.69761">
        <ele>258.2</ele>
        <time>2023-04-05T12:00:32Z</time>
      </trkpt>
      <trkpt lat="48.15121" lon="-3.6976">
        <ele>258.2</ele>
        <time>2023-04-05T12:00:33Z</time>
      </trkpt>
      <trkpt lat="48.15117" lon="-3.69759">
        <ele>258.2</ele>
        <time>2023-04-05T12:00:34Z</time>
      </trkpt>
      <trkpt lat="48.15116" lon="-3.69758">
        <ele>258.2</ele>
        <time>2023-04-05T12:00:35Z</time>
      </trkpt>
      <trkpt lat="48.15113" lon="-3.69757">
        <ele>258.1</ele>
        <time>2023-04-05T12:00:36Z</time>
      </trkpt>
      <trkpt lat="48.15111" lon="-3.69757">
        <ele>258.1</ele>
        <time>2023-04-05T12:00:37Z</time>
      </trkpt>
      <trkpt lat="48.15108" lon="-3.69755">
        <ele>258</ele>
        <time>2023-04-05T12:00:38Z</time>
      </trkpt>
      <trkpt lat="48.15105" lon="-3.69754">
        <ele>258</ele>
        <time>2023-04-05T12:00:40Z</time>
      </trkpt>
      <trkpt lat="48.15104" lon="-3.69754">
        <ele>257.9</ele>
        <time>2023-04-05T12:00:41Z</time>
      </trkpt>
      <trkpt lat="48.15099" lon="-3.69752">
        <ele>257.8</ele>
        <time>2023-04-05T12:00:42Z</time>
      </trkpt>
      <trkpt lat="48.15097" lon="-3.69752">
        <ele>257.8</ele>
        <time>2023-04-05T12:00:43Z</time>
      </trkpt>
      <trkpt lat="48.15095" lon="-3.69751">
        <ele>257.7</ele>
        <time>2023-04-05T12:00:44Z</time>
      </trkpt>
      <trkpt lat="48.15092" lon="-3.69749">
        <ele>257.6</ele>
        <time>2023-04-05T12:00:46Z</time>
      </trkpt>
      <trkpt lat="48.15091" lon="-3.69749">
        <ele>257.6</ele>
        <time>2023-04-05T12:00:47Z</time>
      </trkpt>
      <trkpt lat="48.15087" lon="-3.69748">
        <ele>257.5</ele>
        <time>2023-04-05T12:00:48Z</time>
      </trkpt>
      <trkpt lat="48.15085" lon="-3.69747">
        <ele>257.5</ele>
        <time>2023-04-05T12:00:49Z</time>
      </trkpt>
      <trkpt lat="48.15083" lon="-3.69747">
        <ele>257.4</ele>
        <time>2023-04-05T12:00:50Z</time>
      </trkpt>
      <trkpt lat="48.1508" lon="-3.69745">
        <ele>257.4</ele>
        <time>2023-04-05T12:00:52Z</time>
      </trkpt>
      <trkpt lat="48.1508" lon="-3.69744">
        <ele>257.4</ele>
        <time>2023-04-05T12:00:53Z</time>
      </trkpt>
      <trkpt lat="48.15078" lon="-3.69739">
        <ele>257.3</ele>
        <time>2023-04-05T12:00:54Z</time>
      </trkpt>
      <trkpt lat="48.15078" lon="-3.69734">
        <ele>256.9</ele>
        <time>2023-04-05T12:00:56Z</time>
      </trkpt>
      <trkpt lat="48.15079" lon="-3.69732">
        <ele>256.9</ele>
        <time>2023-04-05T12:00:57Z</time>
      </trkpt>
      <trkpt lat="48.1508" lon="-3.69725">
        <ele>256.6</ele>
        <time>2023-04-05T12:00:58Z</time>
      </trkpt>
      <trkpt lat="48.1508" lon="-3.69719">
        <ele>256.4</ele>
        <time>2023-04-05T12:01:00Z</time>
      </trkpt>
      <trkpt lat="48.15083" lon="-3.69712">
        <ele>256.1</ele>
        <time>2023-04-05T12:01:02Z</time>
      </trkpt>
      <trkpt lat="48.15084" lon="-3.69708">
        <ele>256</ele>
        <time>2023-04-05T12:01:04Z</time>
      </trkpt>
      <trkpt lat="48.15085" lon="-3.69703">
        <ele>255.8</ele>
        <time>2023-04-05T12:01:05Z</time>
      </trkpt>
      <trkpt lat="48.15086" lon="-3.69699">
        <ele>255.7</ele>
        <time>2023-04-05T12:01:06Z</time>
      </trkpt>
      <trkpt lat="48.15087" lon="-3.69694">
        <ele>255.5</ele>
        <time>2023-04-05T12:01:07Z</time>
      </trkpt>
      <trkpt lat="48.15087" lon="-3.69692">
        <ele>255.4</ele>
        <time>2023-04-05T12:01:08Z</time>
      </trkpt>
      <trkpt lat="48.15089" lon="-3.69687">
        <ele>255.3</ele>
        <time>2023-04-05T12:01:09Z</time>
      </trkpt>
      <trkpt lat="48.15089" lon="-3.69686">
        <ele>255.2</ele>
        <time>2023-04-05T12:01:10Z</time>
      </trkpt>
      <trkpt lat="48.1509" lon="-3.69681">
        <ele>255.1</ele>
        <time>2023-04-05T12:01:11Z</time>
      </trkpt>
      <trkpt lat="48.15091" lon="-3.69679">
        <ele>255</ele>
        <time>2023-04-05T12:01:12Z</time>
      </trkpt>
      <trkpt lat="48.15092" lon="-3.69674">
        <ele>254.8</ele>
        <time>2023-04-05T12:01:13Z</time>
      </trkpt>
      <trkpt lat="48.15092" lon="-3.69672">
        <ele>254.8</ele>
        <time>2023-04-05T12:01:14Z</time>
      </trkpt>
      <trkpt lat="48.15093" lon="-3.69668">
        <ele>254.7</ele>
        <time>2023-04-05T12:01:15Z</time>
      </trkpt>
      <trkpt lat="48.15094" lon="-3.69663">
        <ele>254.5</ele>
        <time>2023-04-05T12:01:16Z</time>
      </trkpt>
      <trkpt lat="48.15095" lon="-3.69661">
        <ele>254.4</ele>
        <time>2023-04-05T12:01:17Z</time>
      </trkpt>
      <trkpt lat="48.15096" lon="-3.69656">
        <ele>254.3</ele>
        <time>2023-04-05T12:01:18Z</time>
      </trkpt>
      <trkpt lat="48.15097" lon="-3.69651">
        <ele>254.1</ele>
        <time>2023-04-05T12:01:19Z</time>
      </trkpt>
      <trkpt lat="48.15097" lon="-3.69649">
        <ele>254</ele>
        <time>2023-04-05T12:01:20Z</time>
      </trkpt>
      <trkpt lat="48.15098" lon="-3.69645">
        <ele>253.9</ele>
        <time>2023-04-05T12:01:21Z</time>
      </trkpt>
      <trkpt lat="48.15099" lon="-3.69641">
        <ele>253.7</ele>
        <time>2023-04-05T12:01:22Z</time>
      </trkpt>
      <trkpt lat="48.15101" lon="-3.69635">
        <ele>253.5</ele>
        <time>2023-04-05T12:01:23Z</time>
      </trkpt>
      <trkpt lat="48.15102" lon="-3.6963">
        <ele>253.3</ele>
        <time>2023-04-05T12:01:24Z</time>
      </trkpt>
      <trkpt lat="48.15104" lon="-3.69623">
        <ele>253.1</ele>
        <time>2023-04-05T12:01:26Z</time>
      </trkpt>
      <trkpt lat="48.15105" lon="-3.6962">
        <ele>252.9</ele>
        <time>2023-04-05T12:01:28Z</time>
      </trkpt>
      <trkpt lat="48.15107" lon="-3.69615">
        <ele>252.7</ele>
        <time>2023-04-05T12:01:29Z</time>
      </trkpt>
      <trkpt lat="48.15108" lon="-3.69611">
        <ele>252.6</ele>
        <time>2023-04-05T12:01:31Z</time>
      </trkpt>
      <trkpt lat="48.15109" lon="-3.6961">
        <ele>252.6</ele>
        <time>2023-04-05T12:01:32Z</time>
      </trkpt>
      <trkpt lat="48.15109" lon="-3.69608">
        <ele>252.5</ele>
        <time>2023-04-05T12:01:33Z</time>
      </trkpt>
      <trkpt lat="48.1511" lon="-3.69607">
        <ele>252.4</ele>
        <time>2023-04-05T12:01:34Z</time>
      </trkpt>
      <trkpt lat="48.15112" lon="-3.69602">
        <ele>252.2</ele>
        <time>2023-04-05T12:01:35Z</time>
      </trkpt>
      <trkpt lat="48.15114" lon="-3.69595">
        <ele>251.9</ele>
        <time>2023-04-05T12:01:37Z</time>
      </trkpt>
      <trkpt lat="48.15115" lon="-3.69591">
        <ele>251.8</ele>
        <time>2023-04-05T12:01:39Z</time>
      </trkpt>
      <trkpt lat="48.15117" lon="-3.69586">
        <ele>251.6</ele>
        <time>2023-04-05T12:01:40Z</time>
      </trkpt>
      <trkpt lat="48.15117" lon="-3.69581">
        <ele>251.4</ele>
        <time>2023-04-05T12:01:41Z</time>
      </trkpt>
      <trkpt lat="48.15118" lon="-3.69576">
        <ele>251.1</ele>
        <time>2023-04-05T12:01:42Z</time>
      </trkpt>
      <trkpt lat="48.15119" lon="-3.69571">
        <ele>250.9</ele>
        <time>2023-04-05T12:01:43Z</time>
      </trkpt>
      <trkpt lat="48.1512" lon="-3.69565">
        <ele>250.7</ele>
        <time>2023-04-05T12:01:44Z</time>
      </trkpt>
      <trkpt lat="48.15121" lon="-3.6956">
        <ele>250.5</ele>
        <time>2023-04-05T12:01:45Z</time>
      </trkpt>
      <trkpt lat="48.15122" lon="-3.69555">
        <ele>250.3</ele>
        <time>2023-04-05T12:01:46Z</time>
      </trkpt>
      <trkpt lat="48.15124" lon="-3.69549">
        <ele>250.1</ele>
        <time>2023-04-05T12:01:47Z</time>
      </trkpt>
      <trkpt lat="48.15125" lon="-3.69542">
        <ele>249.8</ele>
        <time>2023-04-05T12:01:48Z</time>
      </trkpt>
      <trkpt lat="48.15126" lon="-3.69533">
        <ele>249.5</ele>
        <time>2023-04-05T12:01:49Z</time>
      </trkpt>
      <trkpt lat="48.15127" lon="-3.69526">
        <ele>249.3</ele>
        <time>2023-04-05T12:01:50Z</time>
      </trkpt>
      <trkpt lat="48.15128" lon="-3.69521">
        <ele>249.1</ele>
        <time>2023-04-05T12:01:51Z</time>
      </trkpt>
      <trkpt lat="48.15128" lon="-3.69515">
        <ele>248.9</ele>
        <time>2023-04-05T12:01:52Z</time>
      </trkpt>
      <trkpt lat="48.15131" lon="-3.69507">
        <ele>248.7</ele>
        <time>2023-04-05T12:01:54Z</time>
      </trkpt>
      <trkpt lat="48.15132" lon="-3.69502">
        <ele>248.6</ele>
        <time>2023-04-05T12:01:55Z</time>
      </trkpt>
      <trkpt lat="48.15134" lon="-3.69498">
        <ele>248.5</ele>
        <time>2023-04-05T12:01:56Z</time>
      </trkpt>
      <trkpt lat="48.15136" lon="-3.69495">
        <ele>248.5</ele>
        <time>2023-04-05T12:01:57Z</time>
      </trkpt>
      <trkpt lat="48.15138" lon="-3.69492">
        <ele>248.5</ele>
        <time>2023-04-05T12:01:58Z</time>
      </trkpt>
      <trkpt lat="48.15142" lon="-3.69492">
        <ele>248.6</ele>
        <time>2023-04-05T12:01:59Z</time>
      </trkpt>
      <trkpt lat="48.15143" lon="-3.69493">
        <ele>248.7</ele>
        <time>2023-04-05T12:02:00Z</time>
      </trkpt>
      <trkpt lat="48.15147" lon="-3.69496">
        <ele>248.8</ele>
        <time>2023-04-05T12:02:01Z</time>
      </trkpt>
      <trkpt lat="48.15149" lon="-3.695">
        <ele>248.8</ele>
        <time>2023-04-05T12:02:02Z</time>
      </trkpt>
      <trkpt lat="48.15152" lon="-3.69503">
        <ele>248.9</ele>
        <time>2023-04-05T12:02:03Z</time>
      </trkpt>
      <trkpt lat="48.15154" lon="-3.69506">
        <ele>249</ele>
        <time>2023-04-05T12:02:04Z</time>
      </trkpt>
      <trkpt lat="48.15157" lon="-3.69509">
        <ele>249</ele>
        <time>2023-04-05T12:02:05Z</time>
      </trkpt>
      <trkpt lat="48.15159" lon="-3.69512">
        <ele>249</ele>
        <time>2023-04-05T12:02:06Z</time>
      </trkpt>
      <trkpt lat="48.15162" lon="-3.69515">
        <ele>249.1</ele>
        <time>2023-04-05T12:02:07Z</time>
      </trkpt>
      <trkpt lat="48.15164" lon="-3.69519">
        <ele>249.1</ele>
        <time>2023-04-05T12:02:08Z</time>
      </trkpt>
      <trkpt lat="48.15167" lon="-3.69523">
        <ele>249.1</ele>
        <time>2023-04-05T12:02:09Z</time>
      </trkpt>
      <trkpt lat="48.15169" lon="-3.69526">
        <ele>249.1</ele>
        <time>2023-04-05T12:02:10Z</time>
      </trkpt>
      <trkpt lat="48.15172" lon="-3.69529">
        <ele>249.1</ele>
        <time>2023-04-05T12:02:11Z</time>
      </trkpt>
      <trkpt lat="48.15174" lon="-3.69533">
        <ele>249.1</ele>
        <time>2023-04-05T12:02:12Z</time>
      </trkpt>
      <trkpt lat="48.15177" lon="-3.69537">
        <ele>249.1</ele>
        <time>2023-04-05T12:02:13Z</time>
      </trkpt>
      <trkpt lat="48.15179" lon="-3.69542">
        <ele>249</ele>
        <time>2023-04-05T12:02:14Z</time>
      </trkpt>
      <trkpt lat="48.15182" lon="-3.69546">
        <ele>248.9</ele>
        <time>2023-04-05T12:02:15Z</time>
      </trkpt>
      <trkpt lat="48.15184" lon="-3.69551">
        <ele>248.9</ele>
        <time>2023-04-05T12:02:16Z</time>
      </trkpt>
      <trkpt lat="48.15187" lon="-3.69555">
        <ele>248.8</ele>
        <time>2023-04-05T12:02:17Z</time>
      </trkpt>
      <trkpt lat="48.1519" lon="-3.69559">
        <ele>248.7</ele>
        <time>2023-04-05T12:02:18Z</time>
      </trkpt>
      <trkpt lat="48.15193" lon="-3.69563">
        <ele>248.6</ele>
        <time>2023-04-05T12:02:19Z</time>
      </trkpt>
      <trkpt lat="48.15195" lon="-3.69567">
        <ele>248.5</ele>
        <time>2023-04-05T12:02:20Z</time>
      </trkpt>
      <trkpt lat="48.15198" lon="-3.69571">
        <ele>248.4</ele>
        <time>2023-04-05T12:02:21Z</time>
      </trkpt>
      <trkpt lat="48.15201" lon="-3.69577">
        <ele>248.3</ele>
        <time>2023-04-05T12:02:22Z</time>
      </trkpt>
      <trkpt lat="48.15204" lon="-3.69581">
        <ele>248.2</ele>
        <time>2023-04-05T12:02:23Z</time>
      </trkpt>
      <trkpt lat="48.15206" lon="-3.69586">
        <ele>248.1</ele>
        <time>2023-04-05T12:02:24Z</time>
      </trkpt>
      <trkpt lat="48.1521" lon="-3.69592">
        <ele>248</ele>
        <time>2023-04-05T12:02:25Z</time>
      </trkpt>
      <trkpt lat="48.15213" lon="-3.69597">
        <ele>247.8</ele>
        <time>2023-04-05T12:02:26Z</time>
      </trkpt>
      <trkpt lat="48.15216" lon="-3.69603">
        <ele>247.6</ele>
        <time>2023-04-05T12:02:27Z</time>
      </trkpt>
      <trkpt lat="48.1522" lon="-3.69609">
        <ele>247.4</ele>
        <time>2023-04-05T12:02:28Z</time>
      </trkpt>
      <trkpt lat="48.15224" lon="-3.69615">
        <ele>247.3</ele>
        <time>2023-04-05T12:02:29Z</time>
      </trkpt>
      <trkpt lat="48.15228" lon="-3.69622">
        <ele>247.1</ele>
        <time>2023-04-05T12:02:30Z</time>
      </trkpt>
      <trkpt lat="48.15233" lon="-3.69628">
        <ele>246.9</ele>
        <time>2023-04-05T12:02:31Z</time>
      </trkpt>
      <trkpt lat="48.15236" lon="-3.69633">
        <ele>246.8</ele>
        <time>2023-04-05T12:02:32Z</time>
      </trkpt>
      <trkpt lat="48.15239" lon="-3.69635">
        <ele>246.8</ele>
        <time>2023-04-05T12:02:33Z</time>
      </trkpt>
      <trkpt lat="48.15242" lon="-3.69632">
        <ele>246.8</ele>
        <time>2023-04-05T12:02:34Z</time>
      </trkpt>
      <trkpt lat="48.15243" lon="-3.6963">
        <ele>246.8</ele>
        <time>2023-04-05T12:02:35Z</time>
      </trkpt>
      <trkpt lat="48.15243" lon="-3.69624">
        <ele>246.8</ele>
        <time>2023-04-05T12:02:36Z</time>
      </trkpt>
      <trkpt lat="48.15243" lon="-3.69622">
        <ele>246.8</ele>
        <time>2023-04-05T12:02:37Z</time>
      </trkpt>
      <trkpt lat="48.15243" lon="-3.69616">
        <ele>246.8</ele>
        <time>2023-04-05T12:02:38Z</time>
      </trkpt>
      <trkpt lat="48.15243" lon="-3.69613">
        <ele>246.8</ele>
        <time>2023-04-05T12:02:39Z</time>
      </trkpt>
      <trkpt lat="48.15243" lon="-3.69603">
        <ele>246.8</ele>
        <time>2023-04-05T12:02:41Z</time>
      </trkpt>
      <trkpt lat="48.15242" lon="-3.69601">
        <ele>246.9</ele>
        <time>2023-04-05T12:02:42Z</time>
      </trkpt>
      <trkpt lat="48.15241" lon="-3.69596">
        <ele>246.9</ele>
        <time>2023-04-05T12:02:43Z</time>
      </trkpt>
      <trkpt lat="48.1524" lon="-3.69592">
        <ele>247</ele>
        <time>2023-04-05T12:02:45Z</time>
      </trkpt>
      <trkpt lat="48.1524" lon="-3.69586">
        <ele>247.1</ele>
        <time>2023-04-05T12:02:46Z</time>
      </trkpt>
      <trkpt lat="48.1524" lon="-3.69583">
        <ele>247.2</ele>
        <time>2023-04-05T12:02:47Z</time>
      </trkpt>
      <trkpt lat="48.1524" lon="-3.69579">
        <ele>247.3</ele>
        <time>2023-04-05T12:02:49Z</time>
      </trkpt>
      <trkpt lat="48.15238" lon="-3.69574">
        <ele>247.4</ele>
        <time>2023-04-05T12:02:50Z</time>
      </trkpt>
      <trkpt lat="48.15237" lon="-3.69573">
        <ele>247.4</ele>
        <time>2023-04-05T12:02:51Z</time>
      </trkpt>
      <trkpt lat="48.15235" lon="-3.69566">
        <ele>247.4</ele>
        <time>2023-04-05T12:02:52Z</time>
      </trkpt>
      <trkpt lat="48.15234" lon="-3.69563">
        <ele>247.4</ele>
        <time>2023-04-05T12:02:54Z</time>
      </trkpt>
      <trkpt lat="48.15231" lon="-3.69557">
        <ele>247.3</ele>
        <time>2023-04-05T12:02:55Z</time>
      </trkpt>
      <trkpt lat="48.1523" lon="-3.6955">
        <ele>247.3</ele>
        <time>2023-04-05T12:02:57Z</time>
      </trkpt>
      <trkpt lat="48.15229" lon="-3.69547">
        <ele>247.3</ele>
        <time>2023-04-05T12:02:58Z</time>
      </trkpt>
      <trkpt lat="48.15229" lon="-3.69544">
        <ele>247.2</ele>
        <time>2023-04-05T12:02:59Z</time>
      </trkpt>
      <trkpt lat="48.15227" lon="-3.6954">
        <ele>247.2</ele>
        <time>2023-04-05T12:03:00Z</time>
      </trkpt>
      <trkpt lat="48.15225" lon="-3.69533">
        <ele>247.1</ele>
        <time>2023-04-05T12:03:01Z</time>
      </trkpt>
      <trkpt lat="48.15224" lon="-3.69529">
        <ele>247.1</ele>
        <time>2023-04-05T12:03:02Z</time>
      </trkpt>
      <trkpt lat="48.15223" lon="-3.69521">
        <ele>247</ele>
        <time>2023-04-05T12:03:04Z</time>
      </trkpt>
      <trkpt lat="48.15221" lon="-3.69515">
        <ele>246.8</ele>
        <time>2023-04-05T12:03:06Z</time>
      </trkpt>
      <trkpt lat="48.1522" lon="-3.69506">
        <ele>246.6</ele>
        <time>2023-04-05T12:03:07Z</time>
      </trkpt>
      <trkpt lat="48.15219" lon="-3.695">
        <ele>246.4</ele>
        <time>2023-04-05T12:03:09Z</time>
      </trkpt>
      <trkpt lat="48.15218" lon="-3.69491">
        <ele>246.2</ele>
        <time>2023-04-05T12:03:10Z</time>
      </trkpt>
      <trkpt lat="48.15217" lon="-3.69485">
        <ele>246</ele>
        <time>2023-04-05T12:03:12Z</time>
      </trkpt>
      <trkpt lat="48.15216" lon="-3.69479">
        <ele>245.8</ele>
        <time>2023-04-05T12:03:13Z</time>
      </trkpt>
      <trkpt lat="48.15215" lon="-3.69477">
        <ele>245.7</ele>
        <time>2023-04-05T12:03:14Z</time>
      </trkpt>
      <trkpt lat="48.15215" lon="-3.69472">
        <ele>245.6</ele>
        <time>2023-04-05T12:03:15Z</time>
      </trkpt>
      <trkpt lat="48.15214" lon="-3.69466">
        <ele>245.4</ele>
        <time>2023-04-05T12:03:16Z</time>
      </trkpt>
      <trkpt lat="48.15213" lon="-3.6946">
        <ele>245.2</ele>
        <time>2023-04-05T12:03:17Z</time>
      </trkpt>
      <trkpt lat="48.15211" lon="-3.69454">
        <ele>245</ele>
        <time>2023-04-05T12:03:18Z</time>
      </trkpt>
      <trkpt lat="48.15209" lon="-3.69448">
        <ele>244.8</ele>
        <time>2023-04-05T12:03:19Z</time>
      </trkpt>
      <trkpt lat="48.15208" lon="-3.69442">
        <ele>244.7</ele>
        <time>2023-04-05T12:03:20Z</time>
      </trkpt>
      <trkpt lat="48.15206" lon="-3.69436">
        <ele>244.5</ele>
        <time>2023-04-05T12:03:22Z</time>
      </trkpt>
      <trkpt lat="48.15205" lon="-3.69431">
        <ele>244.3</ele>
        <time>2023-04-05T12:03:23Z</time>
      </trkpt>
      <trkpt lat="48.15203" lon="-3.69425">
        <ele>244.1</ele>
        <time>2023-04-05T12:03:24Z</time>
      </trkpt>
      <trkpt lat="48.15201" lon="-3.69421">
        <ele>244</ele>
        <time>2023-04-05T12:03:25Z</time>
      </trkpt>
      <trkpt lat="48.15199" lon="-3.69416">
        <ele>243.8</ele>
        <time>2023-04-05T12:03:26Z</time>
      </trkpt>
      <trkpt lat="48.15198" lon="-3.69411">
        <ele>243.6</ele>
        <time>2023-04-05T12:03:27Z</time>
      </trkpt>
      <trkpt lat="48.15197" lon="-3.69405">
        <ele>243.4</ele>
        <time>2023-04-05T12:03:28Z</time>
      </trkpt>
      <trkpt lat="48.15196" lon="-3.69402">
        <ele>243.4</ele>
        <time>2023-04-05T12:03:29Z</time>
      </trkpt>
      <trkpt lat="48.15195" lon="-3.69399">
        <ele>243.3</ele>
        <time>2023-04-05T12:03:30Z</time>
      </trkpt>
      <trkpt lat="48.15195" lon="-3.69397">
        <ele>243.2</ele>
        <time>2023-04-05T12:03:31Z</time>
      </trkpt>
      <trkpt lat="48.15194" lon="-3.69393">
        <ele>243.1</ele>
        <time>2023-04-05T12:03:32Z</time>
      </trkpt>
      <trkpt lat="48.15192" lon="-3.69388">
        <ele>242.9</ele>
        <time>2023-04-05T12:03:33Z</time>
      </trkpt>
      <trkpt lat="48.15191" lon="-3.69383">
        <ele>242.7</ele>
        <time>2023-04-05T12:03:34Z</time>
      </trkpt>
      <trkpt lat="48.1519" lon="-3.69376">
        <ele>242.5</ele>
        <time>2023-04-05T12:03:35Z</time>
      </trkpt>
      <trkpt lat="48.15188" lon="-3.6937">
        <ele>242.2</ele>
        <time>2023-04-05T12:03:37Z</time>
      </trkpt>
      <trkpt lat="48.15187" lon="-3.69367">
        <ele>242.1</ele>
        <time>2023-04-05T12:03:38Z</time>
      </trkpt>
      <trkpt lat="48.15186" lon="-3.69365">
        <ele>242</ele>
        <time>2023-04-05T12:03:39Z</time>
      </trkpt>
      <trkpt lat="48.15185" lon="-3.6936">
        <ele>241.9</ele>
        <time>2023-04-05T12:03:40Z</time>
      </trkpt>
      <trkpt lat="48.15185" lon="-3.69358">
        <ele>241.8</ele>
        <time>2023-04-05T12:03:41Z</time>
      </trkpt>
      <trkpt lat="48.15184" lon="-3.69355">
        <ele>241.6</ele>
        <time>2023-04-05T12:03:42Z</time>
      </trkpt>
      <trkpt lat="48.15183" lon="-3.69351">
        <ele>241.5</ele>
        <time>2023-04-05T12:03:43Z</time>
      </trkpt>
      <trkpt lat="48.15182" lon="-3.69346">
        <ele>241.3</ele>
        <time>2023-04-05T12:03:44Z</time>
      </trkpt>
      <trkpt lat="48.15181" lon="-3.69337">
        <ele>241</ele>
        <time>2023-04-05T12:03:45Z</time>
      </trkpt>
      <trkpt lat="48.1518" lon="-3.69328">
        <ele>240.6</ele>
        <time>2023-04-05T12:03:47Z</time>
      </trkpt>
      <trkpt lat="48.1518" lon="-3.69322">
        <ele>240.3</ele>
        <time>2023-04-05T12:03:49Z</time>
      </trkpt>
      <trkpt lat="48.1518" lon="-3.69316">
        <ele>240.1</ele>
        <time>2023-04-05T12:03:50Z</time>
      </trkpt>
      <trkpt lat="48.15181" lon="-3.69306">
        <ele>239.7</ele>
        <time>2023-04-05T12:03:51Z</time>
      </trkpt>
      <trkpt lat="48.15183" lon="-3.693">
        <ele>239.5</ele>
        <time>2023-04-05T12:03:52Z</time>
      </trkpt>
      <trkpt lat="48.15185" lon="-3.69294">
        <ele>239.3</ele>
        <time>2023-04-05T12:03:54Z</time>
      </trkpt>
      <trkpt lat="48.15187" lon="-3.69287">
        <ele>239</ele>
        <time>2023-04-05T12:03:55Z</time>
      </trkpt>
      <trkpt lat="48.15189" lon="-3.69281">
        <ele>238.7</ele>
        <time>2023-04-05T12:03:56Z</time>
      </trkpt>
      <trkpt lat="48.1519" lon="-3.69277">
        <ele>238.6</ele>
        <time>2023-04-05T12:03:57Z</time>
      </trkpt>
      <trkpt lat="48.1519" lon="-3.69271">
        <ele>238.3</ele>
        <time>2023-04-05T12:03:58Z</time>
      </trkpt>
      <trkpt lat="48.15191" lon="-3.69269">
        <ele>238.2</ele>
        <time>2023-04-05T12:03:59Z</time>
      </trkpt>
      <trkpt lat="48.15191" lon="-3.69259">
        <ele>237.8</ele>
        <time>2023-04-05T12:04:01Z</time>
      </trkpt>
      <trkpt lat="48.15191" lon="-3.69254">
        <ele>237.6</ele>
        <time>2023-04-05T12:04:03Z</time>
      </trkpt>
      <trkpt lat="48.15191" lon="-3.69247">
        <ele>237.3</ele>
        <time>2023-04-05T12:04:04Z</time>
      </trkpt>
      <trkpt lat="48.15192" lon="-3.69241">
        <ele>237</ele>
        <time>2023-04-05T12:04:05Z</time>
      </trkpt>
      <trkpt lat="48.15193" lon="-3.69237">
        <ele>236.8</ele>
        <time>2023-04-05T12:04:06Z</time>
      </trkpt>
      <trkpt lat="48.15195" lon="-3.69232">
        <ele>236.6</ele>
        <time>2023-04-05T12:04:07Z</time>
      </trkpt>
      <trkpt lat="48.15198" lon="-3.69221">
        <ele>236.1</ele>
        <time>2023-04-05T12:04:08Z</time>
      </trkpt>
      <trkpt lat="48.152" lon="-3.69215">
        <ele>235.9</ele>
        <time>2023-04-05T12:04:10Z</time>
      </trkpt>
      <trkpt lat="48.152" lon="-3.69211">
        <ele>235.7</ele>
        <time>2023-04-05T12:04:11Z</time>
      </trkpt>
      <trkpt lat="48.15201" lon="-3.69207">
        <ele>235.6</ele>
        <time>2023-04-05T12:04:12Z</time>
      </trkpt>
      <trkpt lat="48.15202" lon="-3.69202">
        <ele>235.4</ele>
        <time>2023-04-05T12:04:13Z</time>
      </trkpt>
      <trkpt lat="48.15202" lon="-3.69201">
        <ele>235.4</ele>
        <time>2023-04-05T12:04:14Z</time>
      </trkpt>
      <trkpt lat="48.15202" lon="-3.69198">
        <ele>235.3</ele>
        <time>2023-04-05T12:04:15Z</time>
      </trkpt>
      <trkpt lat="48.15203" lon="-3.69196">
        <ele>235.2</ele>
        <time>2023-04-05T12:04:16Z</time>
      </trkpt>
      <trkpt lat="48.15203" lon="-3.69191">
        <ele>235.1</ele>
        <time>2023-04-05T12:04:17Z</time>
      </trkpt>
      <trkpt lat="48.15203" lon="-3.69186">
        <ele>234.9</ele>
        <time>2023-04-05T12:04:18Z</time>
      </trkpt>
      <trkpt lat="48.15202" lon="-3.69182">
        <ele>234.8</ele>
        <time>2023-04-05T12:04:19Z</time>
      </trkpt>
      <trkpt lat="48.15201" lon="-3.69176">
        <ele>234.6</ele>
        <time>2023-04-05T12:04:20Z</time>
      </trkpt>
      <trkpt lat="48.152" lon="-3.69171">
        <ele>234.4</ele>
        <time>2023-04-05T12:04:21Z</time>
      </trkpt>
      <trkpt lat="48.152" lon="-3.6917">
        <ele>234.3</ele>
        <time>2023-04-05T12:04:22Z</time>
      </trkpt>
      <trkpt lat="48.15201" lon="-3.69165">
        <ele>234.7</ele>
        <time>2023-04-05T12:04:23Z</time>
      </trkpt>
      <trkpt lat="48.15201" lon="-3.6916">
        <ele>234.9</ele>
        <time>2023-04-05T12:04:24Z</time>
      </trkpt>
      <trkpt lat="48.15201" lon="-3.69152">
        <ele>235.4</ele>
        <time>2023-04-05T12:04:25Z</time>
      </trkpt>
      <trkpt lat="48.15201" lon="-3.69147">
        <ele>235.6</ele>
        <time>2023-04-05T12:04:26Z</time>
      </trkpt>
      <trkpt lat="48.15201" lon="-3.69141">
        <ele>236</ele>
        <time>2023-04-05T12:04:27Z</time>
      </trkpt>
      <trkpt lat="48.152" lon="-3.69135">
        <ele>236.4</ele>
        <time>2023-04-05T12:04:28Z</time>
      </trkpt>
      <trkpt lat="48.15199" lon="-3.69126">
        <ele>237.1</ele>
        <time>2023-04-05T12:04:30Z</time>
      </trkpt>
      <trkpt lat="48.15199" lon="-3.69118">
        <ele>237.7</ele>
        <time>2023-04-05T12:04:31Z</time>
      </trkpt>
      <trkpt lat="48.15201" lon="-3.69111">
        <ele>238.2</ele>
        <time>2023-04-05T12:04:32Z</time>
      </trkpt>
      <trkpt lat="48.15201" lon="-3.69104">
        <ele>238.7</ele>
        <time>2023-04-05T12:04:33Z</time>
      </trkpt>
      <trkpt lat="48.152" lon="-3.691">
        <ele>239.2</ele>
        <time>2023-04-05T12:04:34Z</time>
      </trkpt>
      <trkpt lat="48.15198" lon="-3.69097">
        <ele>239.7</ele>
        <time>2023-04-05T12:04:35Z</time>
      </trkpt>
      <trkpt lat="48.15195" lon="-3.69096">
        <ele>239.7</ele>
        <time>2023-04-05T12:04:36Z</time>
      </trkpt>
      <trkpt lat="48.15194" lon="-3.69097">
        <ele>239.6</ele>
        <time>2023-04-05T12:04:37Z</time>
      </trkpt>
      <trkpt lat="48.15191" lon="-3.69099">
        <ele>239.6</ele>
        <time>2023-04-05T12:04:38Z</time>
      </trkpt>
      <trkpt lat="48.15188" lon="-3.69101">
        <ele>239.6</ele>
        <time>2023-04-05T12:04:39Z</time>
      </trkpt>
      <trkpt lat="48.15186" lon="-3.69102">
        <ele>239.5</ele>
        <time>2023-04-05T12:04:40Z</time>
      </trkpt>
      <trkpt lat="48.15184" lon="-3.69103">
        <ele>239.5</ele>
        <time>2023-04-05T12:04:41Z</time>
      </trkpt>
      <trkpt lat="48.1518" lon="-3.69104">
        <ele>239.4</ele>
        <time>2023-04-05T12:04:42Z</time>
      </trkpt>
      <trkpt lat="48.15176" lon="-3.69103">
        <ele>239.3</ele>
        <time>2023-04-05T12:04:43Z</time>
      </trkpt>
      <trkpt lat="48.15173" lon="-3.69101">
        <ele>239.3</ele>
        <time>2023-04-05T12:04:44Z</time>
      </trkpt>
      <trkpt lat="48.15171" lon="-3.69099">
        <ele>239.2</ele>
        <time>2023-04-05T12:04:45Z</time>
      </trkpt>
      <trkpt lat="48.15168" lon="-3.69097">
        <ele>239.2</ele>
        <time>2023-04-05T12:04:46Z</time>
      </trkpt>
      <trkpt lat="48.15165" lon="-3.69094">
        <ele>239.1</ele>
        <time>2023-04-05T12:04:47Z</time>
      </trkpt>
      <trkpt lat="48.15162" lon="-3.69089">
        <ele>239.1</ele>
        <time>2023-04-05T12:04:48Z</time>
      </trkpt>
      <trkpt lat="48.1516" lon="-3.69086">
        <ele>239</ele>
        <time>2023-04-05T12:04:49Z</time>
      </trkpt>
      <trkpt lat="48.15155" lon="-3.69078">
        <ele>238.9</ele>
        <time>2023-04-05T12:04:51Z</time>
      </trkpt>
      <trkpt lat="48.15151" lon="-3.69073">
        <ele>238.8</ele>
        <time>2023-04-05T12:04:53Z</time>
      </trkpt>
      <trkpt lat="48.15149" lon="-3.6907">
        <ele>238.8</ele>
        <time>2023-04-05T12:04:54Z</time>
      </trkpt>
      <trkpt lat="48.15146" lon="-3.69064">
        <ele>238.7</ele>
        <time>2023-04-05T12:04:55Z</time>
      </trkpt>
      <trkpt lat="48.15143" lon="-3.6906">
        <ele>238.6</ele>
        <time>2023-04-05T12:04:57Z</time>
      </trkpt>
      <trkpt lat="48.15138" lon="-3.69054">
        <ele>238.4</ele>
        <time>2023-04-05T12:04:58Z</time>
      </trkpt>
      <trkpt lat="48.15135" lon="-3.6905">
        <ele>238.3</ele>
        <time>2023-04-05T12:05:00Z</time>
      </trkpt>
      <trkpt lat="48.15132" lon="-3.69045">
        <ele>238.1</ele>
        <time>2023-04-05T12:05:01Z</time>
      </trkpt>
      <trkpt lat="48.15131" lon="-3.69044">
        <ele>238</ele>
        <time>2023-04-05T12:05:02Z</time>
      </trkpt>
      <trkpt lat="48.15128" lon="-3.69039">
        <ele>237.8</ele>
        <time>2023-04-05T12:05:03Z</time>
      </trkpt>
      <trkpt lat="48.15124" lon="-3.69035">
        <ele>237.6</ele>
        <time>2023-04-05T12:05:04Z</time>
      </trkpt>
      <trkpt lat="48.15121" lon="-3.69032">
        <ele>237.4</ele>
        <time>2023-04-05T12:05:05Z</time>
      </trkpt>
      <trkpt lat="48.15118" lon="-3.69029">
        <ele>237.2</ele>
        <time>2023-04-05T12:05:06Z</time>
      </trkpt>
      <trkpt lat="48.15115" lon="-3.69026">
        <ele>236.9</ele>
        <time>2023-04-05T12:05:07Z</time>
      </trkpt>
      <trkpt lat="48.15111" lon="-3.69023">
        <ele>236.6</ele>
        <time>2023-04-05T12:05:08Z</time>
      </trkpt>
      <trkpt lat="48.15106" lon="-3.6902">
        <ele>236.3</ele>
        <time>2023-04-05T12:05:09Z</time>
      </trkpt>
      <trkpt lat="48.15103" lon="-3.69018">
        <ele>236.1</ele>
        <time>2023-04-05T12:05:10Z</time>
      </trkpt>
      <trkpt lat="48.15099" lon="-3.69014">
        <ele>235.8</ele>
        <time>2023-04-05T12:05:11Z</time>
      </trkpt>
      <trkpt lat="48.15095" lon="-3.69011">
        <ele>235.6</ele>
        <time>2023-04-05T12:05:12Z</time>
      </trkpt>
      <trkpt lat="48.15088" lon="-3.6901">
        <ele>235.2</ele>
        <time>2023-04-05T12:05:13Z</time>
      </trkpt>
      <trkpt lat="48.15083" lon="-3.69009">
        <ele>234.9</ele>
        <time>2023-04-05T12:05:14Z</time>
      </trkpt>
      <trkpt lat="48.15078" lon="-3.69007">
        <ele>234.6</ele>
        <time>2023-04-05T12:05:15Z</time>
      </trkpt>
      <trkpt lat="48.15073" lon="-3.69005">
        <ele>234.2</ele>
        <time>2023-04-05T12:05:16Z</time>
      </trkpt>
      <trkpt lat="48.15068" lon="-3.69005">
        <ele>234</ele>
        <time>2023-04-05T12:05:17Z</time>
      </trkpt>
      <trkpt lat="48.15063" lon="-3.69005">
        <ele>233.6</ele>
        <time>2023-04-05T12:05:18Z</time>
      </trkpt>
      <trkpt lat="48.15057" lon="-3.69005">
        <ele>233.1</ele>
        <time>2023-04-05T12:05:19Z</time>
      </trkpt>
      <trkpt lat="48.15051" lon="-3.69006">
        <ele>232.7</ele>
        <time>2023-04-05T12:05:20Z</time>
      </trkpt>
      <trkpt lat="48.15047" lon="-3.69006">
        <ele>232.4</ele>
        <time>2023-04-05T12:05:21Z</time>
      </trkpt>
      <trkpt lat="48.15044" lon="-3.69006">
        <ele>232.1</ele>
        <time>2023-04-05T12:05:22Z</time>
      </trkpt>
      <trkpt lat="48.15034" lon="-3.6901">
        <ele>231.3</ele>
        <time>2023-04-05T12:05:24Z</time>
      </trkpt>
      <trkpt lat="48.15029" lon="-3.69012">
        <ele>230.9</ele>
        <time>2023-04-05T12:05:26Z</time>
      </trkpt>
      <trkpt lat="48.15025" lon="-3.69012">
        <ele>230.6</ele>
        <time>2023-04-05T12:05:27Z</time>
      </trkpt>
      <trkpt lat="48.15018" lon="-3.6901">
        <ele>230</ele>
        <time>2023-04-05T12:05:28Z</time>
      </trkpt>
      <trkpt lat="48.15011" lon="-3.69009">
        <ele>229.7</ele>
        <time>2023-04-05T12:05:30Z</time>
      </trkpt>
      <trkpt lat="48.15006" lon="-3.69009">
        <ele>229.5</ele>
        <time>2023-04-05T12:05:31Z</time>
      </trkpt>
      <trkpt lat="48.15001" lon="-3.6901">
        <ele>229.3</ele>
        <time>2023-04-05T12:05:32Z</time>
      </trkpt>
      <trkpt lat="48.14996" lon="-3.6901">
        <ele>229.1</ele>
        <time>2023-04-05T12:05:33Z</time>
      </trkpt>
      <trkpt lat="48.14991" lon="-3.6901">
        <ele>229</ele>
        <time>2023-04-05T12:05:34Z</time>
      </trkpt>
      <trkpt lat="48.14985" lon="-3.69009">
        <ele>228.9</ele>
        <time>2023-04-05T12:05:35Z</time>
      </trkpt>
      <trkpt lat="48.1498" lon="-3.69008">
        <ele>228.8</ele>
        <time>2023-04-05T12:05:36Z</time>
      </trkpt>
      <trkpt lat="48.14976" lon="-3.69004">
        <ele>228.8</ele>
        <time>2023-04-05T12:05:37Z</time>
      </trkpt>
      <trkpt lat="48.14973" lon="-3.68997">
        <ele>228.9</ele>
        <time>2023-04-05T12:05:38Z</time>
      </trkpt>
      <trkpt lat="48.14972" lon="-3.6899">
        <ele>228.9</ele>
        <time>2023-04-05T12:05:39Z</time>
      </trkpt>
      <trkpt lat="48.14972" lon="-3.68985">
        <ele>228.9</ele>
        <time>2023-04-05T12:05:40Z</time>
      </trkpt>
      <trkpt lat="48.14974" lon="-3.68982">
        <ele>228.9</ele>
        <time>2023-04-05T12:05:41Z</time>
      </trkpt>
      <trkpt lat="48.14975" lon="-3.6898">
        <ele>228.9</ele>
        <time>2023-04-05T12:05:42Z</time>
      </trkpt>
      <trkpt lat="48.14977" lon="-3.68977">
        <ele>229</ele>
        <time>2023-04-05T12:05:43Z</time>
      </trkpt>
      <trkpt lat="48.14981" lon="-3.68974">
        <ele>229</ele>
        <time>2023-04-05T12:05:44Z</time>
      </trkpt>
      <trkpt lat="48.14983" lon="-3.68971">
        <ele>229.1</ele>
        <time>2023-04-05T12:05:45Z</time>
      </trkpt>
      <trkpt lat="48.14985" lon="-3.68967">
        <ele>229.2</ele>
        <time>2023-04-05T12:05:46Z</time>
      </trkpt>
      <trkpt lat="48.14988" lon="-3.68964">
        <ele>229.3</ele>
        <time>2023-04-05T12:05:47Z</time>
      </trkpt>
      <trkpt lat="48.14991" lon="-3.6896">
        <ele>229.4</ele>
        <time>2023-04-05T12:05:48Z</time>
      </trkpt>
      <trkpt lat="48.14994" lon="-3.68954">
        <ele>229.5</ele>
        <time>2023-04-05T12:05:49Z</time>
      </trkpt>
      <trkpt lat="48.14996" lon="-3.68951">
        <ele>229.6</ele>
        <time>2023-04-05T12:05:50Z</time>
      </trkpt>
      <trkpt lat="48.14999" lon="-3.68946">
        <ele>229.7</ele>
        <time>2023-04-05T12:05:51Z</time>
      </trkpt>
      <trkpt lat="48.15002" lon="-3.68941">
        <ele>229.9</ele>
        <time>2023-04-05T12:05:53Z</time>
      </trkpt>
      <trkpt lat="48.15004" lon="-3.68937">
        <ele>230</ele>
        <time>2023-04-05T12:05:54Z</time>
      </trkpt>
      <trkpt lat="48.15009" lon="-3.6893">
        <ele>230.2</ele>
        <time>2023-04-05T12:05:55Z</time>
      </trkpt>
      <trkpt lat="48.15012" lon="-3.68925">
        <ele>230.4</ele>
        <time>2023-04-05T12:05:56Z</time>
      </trkpt>
      <trkpt lat="48.15014" lon="-3.68921">
        <ele>230.5</ele>
        <time>2023-04-05T12:05:58Z</time>
      </trkpt>
      <trkpt lat="48.15019" lon="-3.68914">
        <ele>230.7</ele>
        <time>2023-04-05T12:05:59Z</time>
      </trkpt>
      <trkpt lat="48.15021" lon="-3.68909">
        <ele>230.8</ele>
        <time>2023-04-05T12:06:01Z</time>
      </trkpt>
      <trkpt lat="48.15024" lon="-3.68904">
        <ele>231</ele>
        <time>2023-04-05T12:06:02Z</time>
      </trkpt>
      <trkpt lat="48.15027" lon="-3.689">
        <ele>231.1</ele>
        <time>2023-04-05T12:06:03Z</time>
      </trkpt>
      <trkpt lat="48.15032" lon="-3.68892">
        <ele>231.3</ele>
        <time>2023-04-05T12:06:04Z</time>
      </trkpt>
      <trkpt lat="48.15035" lon="-3.68887">
        <ele>231.4</ele>
        <time>2023-04-05T12:06:06Z</time>
      </trkpt>
      <trkpt lat="48.15037" lon="-3.68883">
        <ele>231.4</ele>
        <time>2023-04-05T12:06:07Z</time>
      </trkpt>
      <trkpt lat="48.15038" lon="-3.68878">
        <ele>231.5</ele>
        <time>2023-04-05T12:06:08Z</time>
      </trkpt>
      <trkpt lat="48.1504" lon="-3.68874">
        <ele>231.6</ele>
        <time>2023-04-05T12:06:09Z</time>
      </trkpt>
      <trkpt lat="48.15043" lon="-3.68869">
        <ele>231.7</ele>
        <time>2023-04-05T12:06:10Z</time>
      </trkpt>
      <trkpt lat="48.15045" lon="-3.68864">
        <ele>231.8</ele>
        <time>2023-04-05T12:06:11Z</time>
      </trkpt>
      <trkpt lat="48.15046" lon="-3.6886">
        <ele>231.9</ele>
        <time>2023-04-05T12:06:12Z</time>
      </trkpt>
      <trkpt lat="48.15048" lon="-3.68854">
        <ele>232</ele>
        <time>2023-04-05T12:06:13Z</time>
      </trkpt>
      <trkpt lat="48.1505" lon="-3.68849">
        <ele>232.1</ele>
        <time>2023-04-05T12:06:14Z</time>
      </trkpt>
      <trkpt lat="48.15051" lon="-3.68845">
        <ele>232.1</ele>
        <time>2023-04-05T12:06:15Z</time>
      </trkpt>
      <trkpt lat="48.15053" lon="-3.68839">
        <ele>232.2</ele>
        <time>2023-04-05T12:06:16Z</time>
      </trkpt>
      <trkpt lat="48.15055" lon="-3.68835">
        <ele>232.3</ele>
        <time>2023-04-05T12:06:17Z</time>
      </trkpt>
      <trkpt lat="48.15057" lon="-3.6883">
        <ele>232.4</ele>
        <time>2023-04-05T12:06:18Z</time>
      </trkpt>
      <trkpt lat="48.15059" lon="-3.68824">
        <ele>232.5</ele>
        <time>2023-04-05T12:06:19Z</time>
      </trkpt>
      <trkpt lat="48.1506" lon="-3.68819">
        <ele>232.5</ele>
        <time>2023-04-05T12:06:20Z</time>
      </trkpt>
      <trkpt lat="48.15061" lon="-3.68813">
        <ele>232.6</ele>
        <time>2023-04-05T12:06:21Z</time>
      </trkpt>
      <trkpt lat="48.15062" lon="-3.68807">
        <ele>232.6</ele>
        <time>2023-04-05T12:06:22Z</time>
      </trkpt>
      <trkpt lat="48.15064" lon="-3.68802">
        <ele>232.7</ele>
        <time>2023-04-05T12:06:23Z</time>
      </trkpt>
      <trkpt lat="48.15066" lon="-3.68796">
        <ele>232.7</ele>
        <time>2023-04-05T12:06:24Z</time>
      </trkpt>
      <trkpt lat="48.15068" lon="-3.68791">
        <ele>232.7</ele>
        <time>2023-04-05T12:06:25Z</time>
      </trkpt>
      <trkpt lat="48.1507" lon="-3.68786">
        <ele>232.7</ele>
        <time>2023-04-05T12:06:26Z</time>
      </trkpt>
      <trkpt lat="48.15072" lon="-3.68781">
        <ele>232.7</ele>
        <time>2023-04-05T12:06:27Z</time>
      </trkpt>
      <trkpt lat="48.15074" lon="-3.68775">
        <ele>232.7</ele>
        <time>2023-04-05T12:06:28Z</time>
      </trkpt>
      <trkpt lat="48.15076" lon="-3.68771">
        <ele>232.7</ele>
        <time>2023-04-05T12:06:29Z</time>
      </trkpt>
      <trkpt lat="48.15079" lon="-3.68766">
        <ele>232.6</ele>
        <time>2023-04-05T12:06:30Z</time>
      </trkpt>
      <trkpt lat="48.15081" lon="-3.68761">
        <ele>232.6</ele>
        <time>2023-04-05T12:06:31Z</time>
      </trkpt>
      <trkpt lat="48.15082" lon="-3.68755">
        <ele>232.6</ele>
        <time>2023-04-05T12:06:32Z</time>
      </trkpt>
      <trkpt lat="48.15084" lon="-3.68749">
        <ele>232.6</ele>
        <time>2023-04-05T12:06:33Z</time>
      </trkpt>
      <trkpt lat="48.15087" lon="-3.68743">
        <ele>232.6</ele>
        <time>2023-04-05T12:06:34Z</time>
      </trkpt>
      <trkpt lat="48.1509" lon="-3.68738">
        <ele>232.6</ele>
        <time>2023-04-05T12:06:35Z</time>
      </trkpt>
      <trkpt lat="48.15092" lon="-3.68732">
        <ele>232.5</ele>
        <time>2023-04-05T12:06:36Z</time>
      </trkpt>
      <trkpt lat="48.15095" lon="-3.68726">
        <ele>232.5</ele>
        <time>2023-04-05T12:06:37Z</time>
      </trkpt>
      <trkpt lat="48.15097" lon="-3.6872">
        <ele>232.5</ele>
        <time>2023-04-05T12:06:38Z</time>
      </trkpt>
      <trkpt lat="48.151" lon="-3.68713">
        <ele>232.5</ele>
        <time>2023-04-05T12:06:39Z</time>
      </trkpt>
      <trkpt lat="48.15102" lon="-3.68707">
        <ele>232.5</ele>
        <time>2023-04-05T12:06:40Z</time>
      </trkpt>
      <trkpt lat="48.15104" lon="-3.687">
        <ele>232.5</ele>
        <time>2023-04-05T12:06:41Z</time>
      </trkpt>
      <trkpt lat="48.15107" lon="-3.68694">
        <ele>232.5</ele>
        <time>2023-04-05T12:06:42Z</time>
      </trkpt>
      <trkpt lat="48.15109" lon="-3.68687">
        <ele>232.5</ele>
        <time>2023-04-05T12:06:43Z</time>
      </trkpt>
      <trkpt lat="48.15111" lon="-3.68681">
        <ele>232.5</ele>
        <time>2023-04-05T12:06:44Z</time>
      </trkpt>
      <trkpt lat="48.15114" lon="-3.68675">
        <ele>232.5</ele>
        <time>2023-04-05T12:06:45Z</time>
      </trkpt>
      <trkpt lat="48.15117" lon="-3.6867">
        <ele>232.5</ele>
        <time>2023-04-05T12:06:46Z</time>
      </trkpt>
      <trkpt lat="48.15119" lon="-3.68664">
        <ele>232.4</ele>
        <time>2023-04-05T12:06:47Z</time>
      </trkpt>
      <trkpt lat="48.15121" lon="-3.68657">
        <ele>232.4</ele>
        <time>2023-04-05T12:06:48Z</time>
      </trkpt>
      <trkpt lat="48.15124" lon="-3.68651">
        <ele>232.4</ele>
        <time>2023-04-05T12:06:49Z</time>
      </trkpt>
      <trkpt lat="48.15127" lon="-3.68645">
        <ele>232.5</ele>
        <time>2023-04-05T12:06:50Z</time>
      </trkpt>
      <trkpt lat="48.15129" lon="-3.68638">
        <ele>232.5</ele>
        <time>2023-04-05T12:06:51Z</time>
      </trkpt>
      <trkpt lat="48.15131" lon="-3.68632">
        <ele>232.5</ele>
        <time>2023-04-05T12:06:52Z</time>
      </trkpt>
      <trkpt lat="48.15134" lon="-3.68626">
        <ele>232.5</ele>
        <time>2023-04-05T12:06:53Z</time>
      </trkpt>
      <trkpt lat="48.15136" lon="-3.68619">
        <ele>232.6</ele>
        <time>2023-04-05T12:06:54Z</time>
      </trkpt>
      <trkpt lat="48.15139" lon="-3.68612">
        <ele>232.6</ele>
        <time>2023-04-05T12:06:55Z</time>
      </trkpt>
      <trkpt lat="48.1514" lon="-3.68605">
        <ele>232.8</ele>
        <time>2023-04-05T12:06:56Z</time>
      </trkpt>
      <trkpt lat="48.15141" lon="-3.68598">
        <ele>232.9</ele>
        <time>2023-04-05T12:06:57Z</time>
      </trkpt>
      <trkpt lat="48.15142" lon="-3.68592">
        <ele>233</ele>
        <time>2023-04-05T12:06:58Z</time>
      </trkpt>
      <trkpt lat="48.15143" lon="-3.68585">
        <ele>233</ele>
        <time>2023-04-05T12:06:59Z</time>
      </trkpt>
      <trkpt lat="48.15144" lon="-3.68579">
        <ele>233.1</ele>
        <time>2023-04-05T12:07:00Z</time>
      </trkpt>
      <trkpt lat="48.15145" lon="-3.68575">
        <ele>233.2</ele>
        <time>2023-04-05T12:07:01Z</time>
      </trkpt>
      <trkpt lat="48.15146" lon="-3.68567">
        <ele>233.3</ele>
        <time>2023-04-05T12:07:02Z</time>
      </trkpt>
      <trkpt lat="48.15148" lon="-3.6856">
        <ele>233.4</ele>
        <time>2023-04-05T12:07:03Z</time>
      </trkpt>
      <trkpt lat="48.15149" lon="-3.68553">
        <ele>233.4</ele>
        <time>2023-04-05T12:07:04Z</time>
      </trkpt>
      <trkpt lat="48.15149" lon="-3.68546">
        <ele>233.4</ele>
        <time>2023-04-05T12:07:05Z</time>
      </trkpt>
      <trkpt lat="48.1515" lon="-3.6854">
        <ele>233.4</ele>
        <time>2023-04-05T12:07:06Z</time>
      </trkpt>
      <trkpt lat="48.15151" lon="-3.68533">
        <ele>233.3</ele>
        <time>2023-04-05T12:07:07Z</time>
      </trkpt>
      <trkpt lat="48.15151" lon="-3.68529">
        <ele>233.3</ele>
        <time>2023-04-05T12:07:08Z</time>
      </trkpt>
      <trkpt lat="48.15152" lon="-3.6852">
        <ele>233.2</ele>
        <time>2023-04-05T12:07:09Z</time>
      </trkpt>
      <trkpt lat="48.15153" lon="-3.68513">
        <ele>233.1</ele>
        <time>2023-04-05T12:07:10Z</time>
      </trkpt>
      <trkpt lat="48.15154" lon="-3.68505">
        <ele>233.1</ele>
        <time>2023-04-05T12:07:11Z</time>
      </trkpt>
      <trkpt lat="48.15154" lon="-3.68497">
        <ele>233.1</ele>
        <time>2023-04-05T12:07:12Z</time>
      </trkpt>
      <trkpt lat="48.15154" lon="-3.6849">
        <ele>233</ele>
        <time>2023-04-05T12:07:13Z</time>
      </trkpt>
      <trkpt lat="48.15154" lon="-3.68483">
        <ele>233</ele>
        <time>2023-04-05T12:07:14Z</time>
      </trkpt>
      <trkpt lat="48.15154" lon="-3.68476">
        <ele>232.9</ele>
        <time>2023-04-05T12:07:15Z</time>
      </trkpt>
      <trkpt lat="48.15154" lon="-3.68469">
        <ele>232.9</ele>
        <time>2023-04-05T12:07:16Z</time>
      </trkpt>
      <trkpt lat="48.15154" lon="-3.68462">
        <ele>232.9</ele>
        <time>2023-04-05T12:07:17Z</time>
      </trkpt>
      <trkpt lat="48.15154" lon="-3.68455">
        <ele>232.9</ele>
        <time>2023-04-05T12:07:18Z</time>
      </trkpt>
      <trkpt lat="48.15155" lon="-3.68448">
        <ele>232.9</ele>
        <time>2023-04-05T12:07:19Z</time>
      </trkpt>
      <trkpt lat="48.15155" lon="-3.68444">
        <ele>232.9</ele>
        <time>2023-04-05T12:07:20Z</time>
      </trkpt>
      <trkpt lat="48.15155" lon="-3.68435">
        <ele>233</ele>
        <time>2023-04-05T12:07:21Z</time>
      </trkpt>
      <trkpt lat="48.15155" lon="-3.68428">
        <ele>233</ele>
        <time>2023-04-05T12:07:22Z</time>
      </trkpt>
      <trkpt lat="48.15155" lon="-3.68424">
        <ele>233</ele>
        <time>2023-04-05T12:07:23Z</time>
      </trkpt>
      <trkpt lat="48.15155" lon="-3.68417">
        <ele>233</ele>
        <time>2023-04-05T12:07:24Z</time>
      </trkpt>
      <trkpt lat="48.15155" lon="-3.68409">
        <ele>233</ele>
        <time>2023-04-05T12:07:25Z</time>
      </trkpt>
      <trkpt lat="48.15155" lon="-3.68401">
        <ele>233</ele>
        <time>2023-04-05T12:07:26Z</time>
      </trkpt>
      <trkpt lat="48.15155" lon="-3.68394">
        <ele>233</ele>
        <time>2023-04-05T12:07:27Z</time>
      </trkpt>
      <trkpt lat="48.15156" lon="-3.68387">
        <ele>233</ele>
        <time>2023-04-05T12:07:28Z</time>
      </trkpt>
      <trkpt lat="48.15156" lon="-3.68381">
        <ele>233</ele>
        <time>2023-04-05T12:07:29Z</time>
      </trkpt>
      <trkpt lat="48.15155" lon="-3.68374">
        <ele>233</ele>
        <time>2023-04-05T12:07:30Z</time>
      </trkpt>
      <trkpt lat="48.15156" lon="-3.68366">
        <ele>233</ele>
        <time>2023-04-05T12:07:32Z</time>
      </trkpt>
      <trkpt lat="48.15157" lon="-3.68358">
        <ele>233</ele>
        <time>2023-04-05T12:07:33Z</time>
      </trkpt>
      <trkpt lat="48.15158" lon="-3.68351">
        <ele>232.9</ele>
        <time>2023-04-05T12:07:34Z</time>
      </trkpt>
      <trkpt lat="48.15159" lon="-3.68342">
        <ele>232.9</ele>
        <time>2023-04-05T12:07:35Z</time>
      </trkpt>
      <trkpt lat="48.1516" lon="-3.68334">
        <ele>232.9</ele>
        <time>2023-04-05T12:07:36Z</time>
      </trkpt>
      <trkpt lat="48.15161" lon="-3.68328">
        <ele>232.8</ele>
        <time>2023-04-05T12:07:37Z</time>
      </trkpt>
      <trkpt lat="48.15161" lon="-3.68321">
        <ele>232.8</ele>
        <time>2023-04-05T12:07:38Z</time>
      </trkpt>
      <trkpt lat="48.15162" lon="-3.68314">
        <ele>232.7</ele>
        <time>2023-04-05T12:07:39Z</time>
      </trkpt>
      <trkpt lat="48.15163" lon="-3.68307">
        <ele>232.7</ele>
        <time>2023-04-05T12:07:40Z</time>
      </trkpt>
      <trkpt lat="48.15163" lon="-3.683">
        <ele>232.7</ele>
        <time>2023-04-05T12:07:41Z</time>
      </trkpt>
      <trkpt lat="48.15164" lon="-3.68293">
        <ele>232.6</ele>
        <time>2023-04-05T12:07:42Z</time>
      </trkpt>
      <trkpt lat="48.15165" lon="-3.68286">
        <ele>232.6</ele>
        <time>2023-04-05T12:07:43Z</time>
      </trkpt>
      <trkpt lat="48.15165" lon="-3.68279">
        <ele>232.6</ele>
        <time>2023-04-05T12:07:44Z</time>
      </trkpt>
      <trkpt lat="48.15166" lon="-3.68272">
        <ele>232.5</ele>
        <time>2023-04-05T12:07:45Z</time>
      </trkpt>
      <trkpt lat="48.15166" lon="-3.68266">
        <ele>232.4</ele>
        <time>2023-04-05T12:07:46Z</time>
      </trkpt>
      <trkpt lat="48.15166" lon="-3.68259">
        <ele>232.4</ele>
        <time>2023-04-05T12:07:47Z</time>
      </trkpt>
      <trkpt lat="48.15167" lon="-3.68255">
        <ele>232.4</ele>
        <time>2023-04-05T12:07:48Z</time>
      </trkpt>
      <trkpt lat="48.15168" lon="-3.68246">
        <ele>232.3</ele>
        <time>2023-04-05T12:07:49Z</time>
      </trkpt>
      <trkpt lat="48.15169" lon="-3.68241">
        <ele>232.3</ele>
        <time>2023-04-05T12:07:50Z</time>
      </trkpt>
      <trkpt lat="48.1517" lon="-3.68233">
        <ele>232.2</ele>
        <time>2023-04-05T12:07:51Z</time>
      </trkpt>
      <trkpt lat="48.15171" lon="-3.68226">
        <ele>232.1</ele>
        <time>2023-04-05T12:07:52Z</time>
      </trkpt>
      <trkpt lat="48.15171" lon="-3.68222">
        <ele>232</ele>
        <time>2023-04-05T12:07:53Z</time>
      </trkpt>
      <trkpt lat="48.15173" lon="-3.68215">
        <ele>231.9</ele>
        <time>2023-04-05T12:07:54Z</time>
      </trkpt>
      <trkpt lat="48.15173" lon="-3.68207">
        <ele>231.8</ele>
        <time>2023-04-05T12:07:55Z</time>
      </trkpt>
      <trkpt lat="48.15173" lon="-3.68199">
        <ele>231.7</ele>
        <time>2023-04-05T12:07:56Z</time>
      </trkpt>
      <trkpt lat="48.15173" lon="-3.68191">
        <ele>231.5</ele>
        <time>2023-04-05T12:07:57Z</time>
      </trkpt>
      <trkpt lat="48.15174" lon="-3.68184">
        <ele>231.4</ele>
        <time>2023-04-05T12:07:58Z</time>
      </trkpt>
      <trkpt lat="48.15175" lon="-3.68177">
        <ele>231.4</ele>
        <time>2023-04-05T12:07:59Z</time>
      </trkpt>
      <trkpt lat="48.15175" lon="-3.6817">
        <ele>231.3</ele>
        <time>2023-04-05T12:08:00Z</time>
      </trkpt>
      <trkpt lat="48.15176" lon="-3.68162">
        <ele>231.2</ele>
        <time>2023-04-05T12:08:01Z</time>
      </trkpt>
      <trkpt lat="48.15176" lon="-3.68155">
        <ele>231.1</ele>
        <time>2023-04-05T12:08:02Z</time>
      </trkpt>
      <trkpt lat="48.15177" lon="-3.68147">
        <ele>231</ele>
        <time>2023-04-05T12:08:03Z</time>
      </trkpt>
      <trkpt lat="48.15178" lon="-3.68139">
        <ele>230.9</ele>
        <time>2023-04-05T12:08:04Z</time>
      </trkpt>
      <trkpt lat="48.15179" lon="-3.68131">
        <ele>230.8</ele>
        <time>2023-04-05T12:08:05Z</time>
      </trkpt>
      <trkpt lat="48.1518" lon="-3.68123">
        <ele>230.7</ele>
        <time>2023-04-05T12:08:06Z</time>
      </trkpt>
      <trkpt lat="48.1518" lon="-3.68115">
        <ele>230.6</ele>
        <time>2023-04-05T12:08:07Z</time>
      </trkpt>
      <trkpt lat="48.15181" lon="-3.68107">
        <ele>230.5</ele>
        <time>2023-04-05T12:08:08Z</time>
      </trkpt>
      <trkpt lat="48.15182" lon="-3.68098">
        <ele>230.3</ele>
        <time>2023-04-05T12:08:09Z</time>
      </trkpt>
      <trkpt lat="48.15182" lon="-3.6809">
        <ele>230.2</ele>
        <time>2023-04-05T12:08:10Z</time>
      </trkpt>
      <trkpt lat="48.15183" lon="-3.68082">
        <ele>230</ele>
        <time>2023-04-05T12:08:11Z</time>
      </trkpt>
      <trkpt lat="48.15184" lon="-3.68073">
        <ele>229.9</ele>
        <time>2023-04-05T12:08:12Z</time>
      </trkpt>
      <trkpt lat="48.15184" lon="-3.68065">
        <ele>229.8</ele>
        <time>2023-04-05T12:08:13Z</time>
      </trkpt>
      <trkpt lat="48.15186" lon="-3.68057">
        <ele>229.8</ele>
        <time>2023-04-05T12:08:14Z</time>
      </trkpt>
      <trkpt lat="48.15187" lon="-3.68049">
        <ele>229.7</ele>
        <time>2023-04-05T12:08:15Z</time>
      </trkpt>
      <trkpt lat="48.15188" lon="-3.68041">
        <ele>229.7</ele>
        <time>2023-04-05T12:08:16Z</time>
      </trkpt>
      <trkpt lat="48.15188" lon="-3.68034">
        <ele>229.6</ele>
        <time>2023-04-05T12:08:17Z</time>
      </trkpt>
      <trkpt lat="48.15188" lon="-3.68027">
        <ele>229.6</ele>
        <time>2023-04-05T12:08:18Z</time>
      </trkpt>
      <trkpt lat="48.15188" lon="-3.6802">
        <ele>229.5</ele>
        <time>2023-04-05T12:08:19Z</time>
      </trkpt>
      <trkpt lat="48.15188" lon="-3.68017">
        <ele>229.5</ele>
        <time>2023-04-05T12:08:20Z</time>
      </trkpt>
      <trkpt lat="48.15188" lon="-3.68011">
        <ele>229.4</ele>
        <time>2023-04-05T12:08:21Z</time>
      </trkpt>
      <trkpt lat="48.15188" lon="-3.68004">
        <ele>229.3</ele>
        <time>2023-04-05T12:08:22Z</time>
      </trkpt>
      <trkpt lat="48.15187" lon="-3.67998">
        <ele>229.2</ele>
        <time>2023-04-05T12:08:23Z</time>
      </trkpt>
      <trkpt lat="48.15186" lon="-3.67989">
        <ele>229.1</ele>
        <time>2023-04-05T12:08:24Z</time>
      </trkpt>
      <trkpt lat="48.15185" lon="-3.67981">
        <ele>229</ele>
        <time>2023-04-05T12:08:25Z</time>
      </trkpt>
      <trkpt lat="48.15185" lon="-3.67973">
        <ele>228.9</ele>
        <time>2023-04-05T12:08:26Z</time>
      </trkpt>
      <trkpt lat="48.15185" lon="-3.67965">
        <ele>228.7</ele>
        <time>2023-04-05T12:08:27Z</time>
      </trkpt>
      <trkpt lat="48.15185" lon="-3.67958">
        <ele>228.6</ele>
        <time>2023-04-05T12:08:28Z</time>
      </trkpt>
      <trkpt lat="48.15186" lon="-3.6795">
        <ele>228.4</ele>
        <time>2023-04-05T12:08:29Z</time>
      </trkpt>
      <trkpt lat="48.15186" lon="-3.67943">
        <ele>228.2</ele>
        <time>2023-04-05T12:08:30Z</time>
      </trkpt>
      <trkpt lat="48.15186" lon="-3.67936">
        <ele>228</ele>
        <time>2023-04-05T12:08:31Z</time>
      </trkpt>
      <trkpt lat="48.15187" lon="-3.67931">
        <ele>227.9</ele>
        <time>2023-04-05T12:08:32Z</time>
      </trkpt>
      <trkpt lat="48.15187" lon="-3.67926">
        <ele>227.8</ele>
        <time>2023-04-05T12:08:33Z</time>
      </trkpt>
      <trkpt lat="48.15187" lon="-3.67924">
        <ele>227.7</ele>
        <time>2023-04-05T12:08:34Z</time>
      </trkpt>
      <trkpt lat="48.15188" lon="-3.67917">
        <ele>227.5</ele>
        <time>2023-04-05T12:08:35Z</time>
      </trkpt>
      <trkpt lat="48.15188" lon="-3.67912">
        <ele>227.3</ele>
        <time>2023-04-05T12:08:36Z</time>
      </trkpt>
      <trkpt lat="48.15189" lon="-3.67907">
        <ele>227.2</ele>
        <time>2023-04-05T12:08:37Z</time>
      </trkpt>
      <trkpt lat="48.15189" lon="-3.67901">
        <ele>227</ele>
        <time>2023-04-05T12:08:38Z</time>
      </trkpt>
      <trkpt lat="48.1519" lon="-3.67892">
        <ele>226.7</ele>
        <time>2023-04-05T12:08:40Z</time>
      </trkpt>
      <trkpt lat="48.1519" lon="-3.67888">
        <ele>226.5</ele>
        <time>2023-04-05T12:08:41Z</time>
      </trkpt>
      <trkpt lat="48.15191" lon="-3.67881">
        <ele>226.2</ele>
        <time>2023-04-05T12:08:43Z</time>
      </trkpt>
      <trkpt lat="48.15192" lon="-3.67875">
        <ele>226</ele>
        <time>2023-04-05T12:08:44Z</time>
      </trkpt>
      <trkpt lat="48.15193" lon="-3.67869">
        <ele>225.7</ele>
        <time>2023-04-05T12:08:45Z</time>
      </trkpt>
      <trkpt lat="48.15194" lon="-3.67864">
        <ele>225.5</ele>
        <time>2023-04-05T12:08:46Z</time>
      </trkpt>
      <trkpt lat="48.15194" lon="-3.67858">
        <ele>225.2</ele>
        <time>2023-04-05T12:08:47Z</time>
      </trkpt>
      <trkpt lat="48.15195" lon="-3.67852">
        <ele>224.9</ele>
        <time>2023-04-05T12:08:48Z</time>
      </trkpt>
      <trkpt lat="48.15196" lon="-3.67841">
        <ele>224.3</ele>
        <time>2023-04-05T12:08:49Z</time>
      </trkpt>
      <trkpt lat="48.15197" lon="-3.67833">
        <ele>223.9</ele>
        <time>2023-04-05T12:08:51Z</time>
      </trkpt>
      <trkpt lat="48.15198" lon="-3.67828">
        <ele>223.7</ele>
        <time>2023-04-05T12:08:52Z</time>
      </trkpt>
      <trkpt lat="48.15198" lon="-3.67821">
        <ele>223.3</ele>
        <time>2023-04-05T12:08:53Z</time>
      </trkpt>
      <trkpt lat="48.15199" lon="-3.67813">
        <ele>222.9</ele>
        <time>2023-04-05T12:08:54Z</time>
      </trkpt>
      <trkpt lat="48.15199" lon="-3.67804">
        <ele>222.5</ele>
        <time>2023-04-05T12:08:55Z</time>
      </trkpt>
      <trkpt lat="48.152" lon="-3.67797">
        <ele>222.2</ele>
        <time>2023-04-05T12:08:56Z</time>
      </trkpt>
      <trkpt lat="48.152" lon="-3.6779">
        <ele>221.9</ele>
        <time>2023-04-05T12:08:57Z</time>
      </trkpt>
      <trkpt lat="48.15202" lon="-3.67783">
        <ele>221.6</ele>
        <time>2023-04-05T12:08:58Z</time>
      </trkpt>
      <trkpt lat="48.15202" lon="-3.67777">
        <ele>221.4</ele>
        <time>2023-04-05T12:08:59Z</time>
      </trkpt>
      <trkpt lat="48.15202" lon="-3.6777">
        <ele>221.1</ele>
        <time>2023-04-05T12:09:00Z</time>
      </trkpt>
      <trkpt lat="48.15201" lon="-3.67764">
        <ele>220.9</ele>
        <time>2023-04-05T12:09:01Z</time>
      </trkpt>
      <trkpt lat="48.15201" lon="-3.67758">
        <ele>220.7</ele>
        <time>2023-04-05T12:09:02Z</time>
      </trkpt>
      <trkpt lat="48.15202" lon="-3.67751">
        <ele>220.5</ele>
        <time>2023-04-05T12:09:04Z</time>
      </trkpt>
      <trkpt lat="48.15202" lon="-3.67745">
        <ele>220.3</ele>
        <time>2023-04-05T12:09:05Z</time>
      </trkpt>
      <trkpt lat="48.15202" lon="-3.6774">
        <ele>220.2</ele>
        <time>2023-04-05T12:09:06Z</time>
      </trkpt>
      <trkpt lat="48.15203" lon="-3.67735">
        <ele>220</ele>
        <time>2023-04-05T12:09:07Z</time>
      </trkpt>
      <trkpt lat="48.15203" lon="-3.67728">
        <ele>219.8</ele>
        <time>2023-04-05T12:09:08Z</time>
      </trkpt>
      <trkpt lat="48.15203" lon="-3.67723">
        <ele>219.7</ele>
        <time>2023-04-05T12:09:09Z</time>
      </trkpt>
      <trkpt lat="48.15204" lon="-3.67713">
        <ele>219.3</ele>
        <time>2023-04-05T12:09:10Z</time>
      </trkpt>
      <trkpt lat="48.15204" lon="-3.67707">
        <ele>219.1</ele>
        <time>2023-04-05T12:09:12Z</time>
      </trkpt>
      <trkpt lat="48.15205" lon="-3.67703">
        <ele>218.9</ele>
        <time>2023-04-05T12:09:13Z</time>
      </trkpt>
      <trkpt lat="48.15205" lon="-3.67698">
        <ele>218.7</ele>
        <time>2023-04-05T12:09:14Z</time>
      </trkpt>
      <trkpt lat="48.15203" lon="-3.67694">
        <ele>218.5</ele>
        <time>2023-04-05T12:09:15Z</time>
      </trkpt>
      <trkpt lat="48.15202" lon="-3.67683">
        <ele>218.1</ele>
        <time>2023-04-05T12:09:16Z</time>
      </trkpt>
      <trkpt lat="48.15202" lon="-3.67676">
        <ele>217.8</ele>
        <time>2023-04-05T12:09:18Z</time>
      </trkpt>
      <trkpt lat="48.15202" lon="-3.67669">
        <ele>217.6</ele>
        <time>2023-04-05T12:09:19Z</time>
      </trkpt>
      <trkpt lat="48.15202" lon="-3.67664">
        <ele>217.4</ele>
        <time>2023-04-05T12:09:20Z</time>
      </trkpt>
      <trkpt lat="48.15202" lon="-3.67659">
        <ele>217.2</ele>
        <time>2023-04-05T12:09:21Z</time>
      </trkpt>
      <trkpt lat="48.15201" lon="-3.67653">
        <ele>217</ele>
        <time>2023-04-05T12:09:22Z</time>
      </trkpt>
      <trkpt lat="48.15202" lon="-3.67648">
        <ele>216.8</ele>
        <time>2023-04-05T12:09:23Z</time>
      </trkpt>
      <trkpt lat="48.15201" lon="-3.6764">
        <ele>216.5</ele>
        <time>2023-04-05T12:09:24Z</time>
      </trkpt>
      <trkpt lat="48.15201" lon="-3.67634">
        <ele>216.2</ele>
        <time>2023-04-05T12:09:25Z</time>
      </trkpt>
      <trkpt lat="48.15201" lon="-3.67626">
        <ele>215.9</ele>
        <time>2023-04-05T12:09:26Z</time>
      </trkpt>
      <trkpt lat="48.15201" lon="-3.67618">
        <ele>215.6</ele>
        <time>2023-04-05T12:09:27Z</time>
      </trkpt>
      <trkpt lat="48.15202" lon="-3.6761">
        <ele>215.2</ele>
        <time>2023-04-05T12:09:28Z</time>
      </trkpt>
      <trkpt lat="48.15202" lon="-3.67603">
        <ele>214.9</ele>
        <time>2023-04-05T12:09:29Z</time>
      </trkpt>
      <trkpt lat="48.15203" lon="-3.67596">
        <ele>214.6</ele>
        <time>2023-04-05T12:09:30Z</time>
      </trkpt>
      <trkpt lat="48.15204" lon="-3.67584">
        <ele>214.1</ele>
        <time>2023-04-05T12:09:32Z</time>
      </trkpt>
      <trkpt lat="48.15204" lon="-3.67577">
        <ele>213.7</ele>
        <time>2023-04-05T12:09:33Z</time>
      </trkpt>
      <trkpt lat="48.15205" lon="-3.67563">
        <ele>213.1</ele>
        <time>2023-04-05T12:09:35Z</time>
      </trkpt>
      <trkpt lat="48.15207" lon="-3.67557">
        <ele>212.7</ele>
        <time>2023-04-05T12:09:37Z</time>
      </trkpt>
      <trkpt lat="48.15207" lon="-3.6755">
        <ele>212.4</ele>
        <time>2023-04-05T12:09:38Z</time>
      </trkpt>
      <trkpt lat="48.15208" lon="-3.67542">
        <ele>212</ele>
        <time>2023-04-05T12:09:39Z</time>
      </trkpt>
      <trkpt lat="48.15208" lon="-3.67539">
        <ele>211.8</ele>
        <time>2023-04-05T12:09:40Z</time>
      </trkpt>
      <trkpt lat="48.1521" lon="-3.6753">
        <ele>211.3</ele>
        <time>2023-04-05T12:09:42Z</time>
      </trkpt>
      <trkpt lat="48.15211" lon="-3.67525">
        <ele>211.1</ele>
        <time>2023-04-05T12:09:43Z</time>
      </trkpt>
      <trkpt lat="48.15214" lon="-3.67517">
        <ele>210.7</ele>
        <time>2023-04-05T12:09:44Z</time>
      </trkpt>
      <trkpt lat="48.15216" lon="-3.67509">
        <ele>210.4</ele>
        <time>2023-04-05T12:09:45Z</time>
      </trkpt>
      <trkpt lat="48.15217" lon="-3.67501">
        <ele>210.2</ele>
        <time>2023-04-05T12:09:46Z</time>
      </trkpt>
      <trkpt lat="48.15218" lon="-3.67494">
        <ele>210</ele>
        <time>2023-04-05T12:09:47Z</time>
      </trkpt>
      <trkpt lat="48.15219" lon="-3.67486">
        <ele>209.9</ele>
        <time>2023-04-05T12:09:48Z</time>
      </trkpt>
      <trkpt lat="48.15219" lon="-3.67479">
        <ele>209.7</ele>
        <time>2023-04-05T12:09:49Z</time>
      </trkpt>
      <trkpt lat="48.15219" lon="-3.67472">
        <ele>209.6</ele>
        <time>2023-04-05T12:09:50Z</time>
      </trkpt>
      <trkpt lat="48.1522" lon="-3.67466">
        <ele>209.6</ele>
        <time>2023-04-05T12:09:51Z</time>
      </trkpt>
      <trkpt lat="48.1522" lon="-3.67461">
        <ele>209.5</ele>
        <time>2023-04-05T12:09:52Z</time>
      </trkpt>
      <trkpt lat="48.1522" lon="-3.67453">
        <ele>209.4</ele>
        <time>2023-04-05T12:09:53Z</time>
      </trkpt>
      <trkpt lat="48.1522" lon="-3.67445">
        <ele>209.4</ele>
        <time>2023-04-05T12:09:54Z</time>
      </trkpt>
      <trkpt lat="48.1522" lon="-3.67438">
        <ele>209.3</ele>
        <time>2023-04-05T12:09:55Z</time>
      </trkpt>
      <trkpt lat="48.15221" lon="-3.67434">
        <ele>209.3</ele>
        <time>2023-04-05T12:09:56Z</time>
      </trkpt>
      <trkpt lat="48.15221" lon="-3.67423">
        <ele>209.2</ele>
        <time>2023-04-05T12:09:57Z</time>
      </trkpt>
      <trkpt lat="48.15221" lon="-3.67418">
        <ele>209.2</ele>
        <time>2023-04-05T12:09:59Z</time>
      </trkpt>
      <trkpt lat="48.15221" lon="-3.67416">
        <ele>209.2</ele>
        <time>2023-04-05T12:10:00Z</time>
      </trkpt>
      <trkpt lat="48.15221" lon="-3.67412">
        <ele>209.1</ele>
        <time>2023-04-05T12:10:01Z</time>
      </trkpt>
      <trkpt lat="48.15221" lon="-3.67409">
        <ele>209.1</ele>
        <time>2023-04-05T12:10:02Z</time>
      </trkpt>
      <trkpt lat="48.1522" lon="-3.67405">
        <ele>209.1</ele>
        <time>2023-04-05T12:10:03Z</time>
      </trkpt>
      <trkpt lat="48.15219" lon="-3.67398">
        <ele>209</ele>
        <time>2023-04-05T12:10:05Z</time>
      </trkpt>
      <trkpt lat="48.1522" lon="-3.67393">
        <ele>208.9</ele>
        <time>2023-04-05T12:10:07Z</time>
      </trkpt>
      <trkpt lat="48.1522" lon="-3.67389">
        <ele>208.9</ele>
        <time>2023-04-05T12:10:08Z</time>
      </trkpt>
      <trkpt lat="48.1522" lon="-3.67381">
        <ele>208.8</ele>
        <time>2023-04-05T12:10:09Z</time>
      </trkpt>
      <trkpt lat="48.1522" lon="-3.67378">
        <ele>208.7</ele>
        <time>2023-04-05T12:10:10Z</time>
      </trkpt>
      <trkpt lat="48.1522" lon="-3.67372">
        <ele>208.6</ele>
        <time>2023-04-05T12:10:12Z</time>
      </trkpt>
      <trkpt lat="48.1522" lon="-3.67366">
        <ele>208.5</ele>
        <time>2023-04-05T12:10:13Z</time>
      </trkpt>
      <trkpt lat="48.1522" lon="-3.67364">
        <ele>208.5</ele>
        <time>2023-04-05T12:10:14Z</time>
      </trkpt>
      <trkpt lat="48.15219" lon="-3.67359">
        <ele>208.3</ele>
        <time>2023-04-05T12:10:15Z</time>
      </trkpt>
      <trkpt lat="48.15218" lon="-3.67355">
        <ele>208.1</ele>
        <time>2023-04-05T12:10:16Z</time>
      </trkpt>
      <trkpt lat="48.15217" lon="-3.67349">
        <ele>207.9</ele>
        <time>2023-04-05T12:10:17Z</time>
      </trkpt>
      <trkpt lat="48.15217" lon="-3.67347">
        <ele>207.8</ele>
        <time>2023-04-05T12:10:18Z</time>
      </trkpt>
      <trkpt lat="48.15215" lon="-3.67343">
        <ele>207.6</ele>
        <time>2023-04-05T12:10:19Z</time>
      </trkpt>
      <trkpt lat="48.15212" lon="-3.67338">
        <ele>207.4</ele>
        <time>2023-04-05T12:10:20Z</time>
      </trkpt>
      <trkpt lat="48.15209" lon="-3.67333">
        <ele>207.2</ele>
        <time>2023-04-05T12:10:21Z</time>
      </trkpt>
      <trkpt lat="48.15207" lon="-3.67327">
        <ele>206.9</ele>
        <time>2023-04-05T12:10:22Z</time>
      </trkpt>
      <trkpt lat="48.15204" lon="-3.67319">
        <ele>206.6</ele>
        <time>2023-04-05T12:10:23Z</time>
      </trkpt>
      <trkpt lat="48.15202" lon="-3.67312">
        <ele>206.3</ele>
        <time>2023-04-05T12:10:24Z</time>
      </trkpt>
      <trkpt lat="48.15199" lon="-3.67305">
        <ele>206.1</ele>
        <time>2023-04-05T12:10:25Z</time>
      </trkpt>
      <trkpt lat="48.15197" lon="-3.67298">
        <ele>205.8</ele>
        <time>2023-04-05T12:10:26Z</time>
      </trkpt>
      <trkpt lat="48.15194" lon="-3.67291">
        <ele>205.6</ele>
        <time>2023-04-05T12:10:27Z</time>
      </trkpt>
      <trkpt lat="48.15192" lon="-3.67284">
        <ele>205.4</ele>
        <time>2023-04-05T12:10:28Z</time>
      </trkpt>
      <trkpt lat="48.1519" lon="-3.67278">
        <ele>205.2</ele>
        <time>2023-04-05T12:10:29Z</time>
      </trkpt>
      <trkpt lat="48.15187" lon="-3.67273">
        <ele>205.1</ele>
        <time>2023-04-05T12:10:30Z</time>
      </trkpt>
      <trkpt lat="48.15185" lon="-3.67265">
        <ele>204.8</ele>
        <time>2023-04-05T12:10:31Z</time>
      </trkpt>
      <trkpt lat="48.15183" lon="-3.67256">
        <ele>204.6</ele>
        <time>2023-04-05T12:10:32Z</time>
      </trkpt>
      <trkpt lat="48.15181" lon="-3.67248">
        <ele>204.4</ele>
        <time>2023-04-05T12:10:33Z</time>
      </trkpt>
      <trkpt lat="48.15178" lon="-3.6724">
        <ele>204.1</ele>
        <time>2023-04-05T12:10:34Z</time>
      </trkpt>
      <trkpt lat="48.15175" lon="-3.67232">
        <ele>203.9</ele>
        <time>2023-04-05T12:10:35Z</time>
      </trkpt>
      <trkpt lat="48.15174" lon="-3.67224">
        <ele>203.7</ele>
        <time>2023-04-05T12:10:36Z</time>
      </trkpt>
      <trkpt lat="48.15173" lon="-3.67216">
        <ele>203.5</ele>
        <time>2023-04-05T12:10:37Z</time>
      </trkpt>
      <trkpt lat="48.15171" lon="-3.67207">
        <ele>203.2</ele>
        <time>2023-04-05T12:10:38Z</time>
      </trkpt>
      <trkpt lat="48.15169" lon="-3.67199">
        <ele>203</ele>
        <time>2023-04-05T12:10:39Z</time>
      </trkpt>
      <trkpt lat="48.15167" lon="-3.67192">
        <ele>202.7</ele>
        <time>2023-04-05T12:10:40Z</time>
      </trkpt>
      <trkpt lat="48.15164" lon="-3.67186">
        <ele>202.5</ele>
        <time>2023-04-05T12:10:41Z</time>
      </trkpt>
      <trkpt lat="48.15162" lon="-3.6718">
        <ele>202.2</ele>
        <time>2023-04-05T12:10:42Z</time>
      </trkpt>
      <trkpt lat="48.15159" lon="-3.67175">
        <ele>201.9</ele>
        <time>2023-04-05T12:10:43Z</time>
      </trkpt>
      <trkpt lat="48.15156" lon="-3.67168">
        <ele>201.6</ele>
        <time>2023-04-05T12:10:44Z</time>
      </trkpt>
      <trkpt lat="48.15153" lon="-3.67161">
        <ele>201.3</ele>
        <time>2023-04-05T12:10:45Z</time>
      </trkpt>
      <trkpt lat="48.15149" lon="-3.67154">
        <ele>201</ele>
        <time>2023-04-05T12:10:46Z</time>
      </trkpt>
      <trkpt lat="48.15146" lon="-3.67146">
        <ele>200.6</ele>
        <time>2023-04-05T12:10:47Z</time>
      </trkpt>
      <trkpt lat="48.15142" lon="-3.67137">
        <ele>200.3</ele>
        <time>2023-04-05T12:10:48Z</time>
      </trkpt>
      <trkpt lat="48.1514" lon="-3.67128">
        <ele>200</ele>
        <time>2023-04-05T12:10:49Z</time>
      </trkpt>
      <trkpt lat="48.15136" lon="-3.67119">
        <ele>199.7</ele>
        <time>2023-04-05T12:10:50Z</time>
      </trkpt>
      <trkpt lat="48.15133" lon="-3.6711">
        <ele>199.4</ele>
        <time>2023-04-05T12:10:51Z</time>
      </trkpt>
      <trkpt lat="48.15129" lon="-3.671">
        <ele>199.2</ele>
        <time>2023-04-05T12:10:52Z</time>
      </trkpt>
      <trkpt lat="48.15126" lon="-3.6709">
        <ele>199</ele>
        <time>2023-04-05T12:10:53Z</time>
      </trkpt>
      <trkpt lat="48.15123" lon="-3.67081">
        <ele>198.8</ele>
        <time>2023-04-05T12:10:54Z</time>
      </trkpt>
      <trkpt lat="48.15119" lon="-3.67071">
        <ele>198.7</ele>
        <time>2023-04-05T12:10:55Z</time>
      </trkpt>
      <trkpt lat="48.15118" lon="-3.67062">
        <ele>198.6</ele>
        <time>2023-04-05T12:10:56Z</time>
      </trkpt>
      <trkpt lat="48.15117" lon="-3.67053">
        <ele>198.5</ele>
        <time>2023-04-05T12:10:57Z</time>
      </trkpt>
      <trkpt lat="48.15115" lon="-3.67044">
        <ele>198.5</ele>
        <time>2023-04-05T12:10:58Z</time>
      </trkpt>
      <trkpt lat="48.15114" lon="-3.67036">
        <ele>198.5</ele>
        <time>2023-04-05T12:10:59Z</time>
      </trkpt>
      <trkpt lat="48.15112" lon="-3.67028">
        <ele>198.4</ele>
        <time>2023-04-05T12:11:00Z</time>
      </trkpt>
      <trkpt lat="48.15111" lon="-3.67021">
        <ele>198.4</ele>
        <time>2023-04-05T12:11:01Z</time>
      </trkpt>
      <trkpt lat="48.15111" lon="-3.67014">
        <ele>198.4</ele>
        <time>2023-04-05T12:11:02Z</time>
      </trkpt>
      <trkpt lat="48.1511" lon="-3.67006">
        <ele>198.4</ele>
        <time>2023-04-05T12:11:03Z</time>
      </trkpt>
      <trkpt lat="48.1511" lon="-3.66999">
        <ele>198.4</ele>
        <time>2023-04-05T12:11:04Z</time>
      </trkpt>
      <trkpt lat="48.15109" lon="-3.66993">
        <ele>198.4</ele>
        <time>2023-04-05T12:11:05Z</time>
      </trkpt>
      <trkpt lat="48.15108" lon="-3.66987">
        <ele>198.4</ele>
        <time>2023-04-05T12:11:06Z</time>
      </trkpt>
      <trkpt lat="48.15108" lon="-3.66982">
        <ele>198.4</ele>
        <time>2023-04-05T12:11:07Z</time>
      </trkpt>
      <trkpt lat="48.15108" lon="-3.66977">
        <ele>198.3</ele>
        <time>2023-04-05T12:11:08Z</time>
      </trkpt>
      <trkpt lat="48.15107" lon="-3.66971">
        <ele>198.3</ele>
        <time>2023-04-05T12:11:09Z</time>
      </trkpt>
      <trkpt lat="48.15106" lon="-3.66962">
        <ele>198.2</ele>
        <time>2023-04-05T12:11:10Z</time>
      </trkpt>
      <trkpt lat="48.15105" lon="-3.66954">
        <ele>198.1</ele>
        <time>2023-04-05T12:11:11Z</time>
      </trkpt>
      <trkpt lat="48.15104" lon="-3.66947">
        <ele>198</ele>
        <time>2023-04-05T12:11:12Z</time>
      </trkpt>
      <trkpt lat="48.15102" lon="-3.66938">
        <ele>197.8</ele>
        <time>2023-04-05T12:11:13Z</time>
      </trkpt>
      <trkpt lat="48.15101" lon="-3.6693">
        <ele>197.7</ele>
        <time>2023-04-05T12:11:14Z</time>
      </trkpt>
      <trkpt lat="48.151" lon="-3.66922">
        <ele>197.5</ele>
        <time>2023-04-05T12:11:15Z</time>
      </trkpt>
      <trkpt lat="48.15099" lon="-3.66913">
        <ele>197.4</ele>
        <time>2023-04-05T12:11:16Z</time>
      </trkpt>
      <trkpt lat="48.15097" lon="-3.66904">
        <ele>197.3</ele>
        <time>2023-04-05T12:11:17Z</time>
      </trkpt>
      <trkpt lat="48.15096" lon="-3.66895">
        <ele>197.2</ele>
        <time>2023-04-05T12:11:18Z</time>
      </trkpt>
      <trkpt lat="48.15095" lon="-3.66886">
        <ele>197.1</ele>
        <time>2023-04-05T12:11:19Z</time>
      </trkpt>
      <trkpt lat="48.15094" lon="-3.66877">
        <ele>197</ele>
        <time>2023-04-05T12:11:20Z</time>
      </trkpt>
      <trkpt lat="48.15093" lon="-3.66868">
        <ele>196.9</ele>
        <time>2023-04-05T12:11:21Z</time>
      </trkpt>
      <trkpt lat="48.15093" lon="-3.66858">
        <ele>196.8</ele>
        <time>2023-04-05T12:11:22Z</time>
      </trkpt>
      <trkpt lat="48.15092" lon="-3.6685">
        <ele>196.8</ele>
        <time>2023-04-05T12:11:23Z</time>
      </trkpt>
      <trkpt lat="48.15091" lon="-3.6684">
        <ele>196.7</ele>
        <time>2023-04-05T12:11:24Z</time>
      </trkpt>
      <trkpt lat="48.1509" lon="-3.66831">
        <ele>196.6</ele>
        <time>2023-04-05T12:11:25Z</time>
      </trkpt>
      <trkpt lat="48.15088" lon="-3.66822">
        <ele>196.6</ele>
        <time>2023-04-05T12:11:26Z</time>
      </trkpt>
      <trkpt lat="48.15087" lon="-3.66813">
        <ele>196.6</ele>
        <time>2023-04-05T12:11:27Z</time>
      </trkpt>
      <trkpt lat="48.15086" lon="-3.66804">
        <ele>196.6</ele>
        <time>2023-04-05T12:11:28Z</time>
      </trkpt>
      <trkpt lat="48.15085" lon="-3.66795">
        <ele>196.6</ele>
        <time>2023-04-05T12:11:29Z</time>
      </trkpt>
      <trkpt lat="48.15084" lon="-3.66787">
        <ele>196.6</ele>
        <time>2023-04-05T12:11:30Z</time>
      </trkpt>
      <trkpt lat="48.15083" lon="-3.66779">
        <ele>196.6</ele>
        <time>2023-04-05T12:11:31Z</time>
      </trkpt>
      <trkpt lat="48.15081" lon="-3.6677">
        <ele>196.6</ele>
        <time>2023-04-05T12:11:32Z</time>
      </trkpt>
      <trkpt lat="48.1508" lon="-3.66762">
        <ele>196.6</ele>
        <time>2023-04-05T12:11:33Z</time>
      </trkpt>
      <trkpt lat="48.15079" lon="-3.66754">
        <ele>196.6</ele>
        <time>2023-04-05T12:11:34Z</time>
      </trkpt>
      <trkpt lat="48.15078" lon="-3.66746">
        <ele>196.6</ele>
        <time>2023-04-05T12:11:35Z</time>
      </trkpt>
      <trkpt lat="48.15077" lon="-3.66738">
        <ele>196.6</ele>
        <time>2023-04-05T12:11:36Z</time>
      </trkpt>
      <trkpt lat="48.15076" lon="-3.6673">
        <ele>196.6</ele>
        <time>2023-04-05T12:11:37Z</time>
      </trkpt>
      <trkpt lat="48.15075" lon="-3.66722">
        <ele>196.6</ele>
        <time>2023-04-05T12:11:38Z</time>
      </trkpt>
      <trkpt lat="48.15075" lon="-3.66714">
        <ele>196.6</ele>
        <time>2023-04-05T12:11:39Z</time>
      </trkpt>
      <trkpt lat="48.15075" lon="-3.66706">
        <ele>196.6</ele>
        <time>2023-04-05T12:11:40Z</time>
      </trkpt>
      <trkpt lat="48.15074" lon="-3.66699">
        <ele>196.7</ele>
        <time>2023-04-05T12:11:41Z</time>
      </trkpt>
      <trkpt lat="48.15074" lon="-3.66692">
        <ele>196.7</ele>
        <time>2023-04-05T12:11:42Z</time>
      </trkpt>
      <trkpt lat="48.15074" lon="-3.66688">
        <ele>196.7</ele>
        <time>2023-04-05T12:11:43Z</time>
      </trkpt>
      <trkpt lat="48.15074" lon="-3.66679">
        <ele>196.7</ele>
        <time>2023-04-05T12:11:44Z</time>
      </trkpt>
      <trkpt lat="48.15074" lon="-3.6667">
        <ele>196.7</ele>
        <time>2023-04-05T12:11:45Z</time>
      </trkpt>
      <trkpt lat="48.15074" lon="-3.66663">
        <ele>196.7</ele>
        <time>2023-04-05T12:11:46Z</time>
      </trkpt>
      <trkpt lat="48.15075" lon="-3.66657">
        <ele>196.7</ele>
        <time>2023-04-05T12:11:47Z</time>
      </trkpt>
      <trkpt lat="48.15076" lon="-3.66654">
        <ele>196.7</ele>
        <time>2023-04-05T12:11:48Z</time>
      </trkpt>
      <trkpt lat="48.15076" lon="-3.66647">
        <ele>196.7</ele>
        <time>2023-04-05T12:11:49Z</time>
      </trkpt>
      <trkpt lat="48.15077" lon="-3.6664">
        <ele>196.7</ele>
        <time>2023-04-05T12:11:50Z</time>
      </trkpt>
      <trkpt lat="48.15078" lon="-3.66631">
        <ele>196.7</ele>
        <time>2023-04-05T12:11:51Z</time>
      </trkpt>
      <trkpt lat="48.15078" lon="-3.66624">
        <ele>196.7</ele>
        <time>2023-04-05T12:11:52Z</time>
      </trkpt>
      <trkpt lat="48.15079" lon="-3.66616">
        <ele>196.7</ele>
        <time>2023-04-05T12:11:53Z</time>
      </trkpt>
      <trkpt lat="48.15081" lon="-3.66607">
        <ele>196.7</ele>
        <time>2023-04-05T12:11:54Z</time>
      </trkpt>
      <trkpt lat="48.15082" lon="-3.66599">
        <ele>196.7</ele>
        <time>2023-04-05T12:11:56Z</time>
      </trkpt>
      <trkpt lat="48.15083" lon="-3.66586">
        <ele>196.7</ele>
        <time>2023-04-05T12:11:57Z</time>
      </trkpt>
      <trkpt lat="48.15083" lon="-3.66573">
        <ele>196.7</ele>
        <time>2023-04-05T12:11:59Z</time>
      </trkpt>
      <trkpt lat="48.15084" lon="-3.66565">
        <ele>196.6</ele>
        <time>2023-04-05T12:12:01Z</time>
      </trkpt>
      <trkpt lat="48.15085" lon="-3.66557">
        <ele>196.6</ele>
        <time>2023-04-05T12:12:02Z</time>
      </trkpt>
      <trkpt lat="48.15087" lon="-3.6655">
        <ele>196.6</ele>
        <time>2023-04-05T12:12:03Z</time>
      </trkpt>
      <trkpt lat="48.15088" lon="-3.66543">
        <ele>196.7</ele>
        <time>2023-04-05T12:12:04Z</time>
      </trkpt>
      <trkpt lat="48.1509" lon="-3.66536">
        <ele>196.7</ele>
        <time>2023-04-05T12:12:05Z</time>
      </trkpt>
      <trkpt lat="48.15093" lon="-3.6653">
        <ele>196.8</ele>
        <time>2023-04-05T12:12:06Z</time>
      </trkpt>
      <trkpt lat="48.15096" lon="-3.66525">
        <ele>196.8</ele>
        <time>2023-04-05T12:12:07Z</time>
      </trkpt>
      <trkpt lat="48.15099" lon="-3.66522">
        <ele>197</ele>
        <time>2023-04-05T12:12:08Z</time>
      </trkpt>
      <trkpt lat="48.15103" lon="-3.66523">
        <ele>197.3</ele>
        <time>2023-04-05T12:12:09Z</time>
      </trkpt>
      <trkpt lat="48.15108" lon="-3.66519">
        <ele>197.8</ele>
        <time>2023-04-05T12:12:10Z</time>
      </trkpt>
      <trkpt lat="48.15111" lon="-3.66517">
        <ele>198.1</ele>
        <time>2023-04-05T12:12:11Z</time>
      </trkpt>
      <trkpt lat="48.15117" lon="-3.66515">
        <ele>198.5</ele>
        <time>2023-04-05T12:12:13Z</time>
      </trkpt>
      <trkpt lat="48.1512" lon="-3.66512">
        <ele>198.8</ele>
        <time>2023-04-05T12:12:15Z</time>
      </trkpt>
      <trkpt lat="48.15124" lon="-3.66508">
        <ele>199.1</ele>
        <time>2023-04-05T12:12:16Z</time>
      </trkpt>
      <trkpt lat="48.15127" lon="-3.66506">
        <ele>199.3</ele>
        <time>2023-04-05T12:12:17Z</time>
      </trkpt>
      <trkpt lat="48.15129" lon="-3.66503">
        <ele>199.5</ele>
        <time>2023-04-05T12:12:19Z</time>
      </trkpt>
      <trkpt lat="48.15132" lon="-3.66501">
        <ele>199.6</ele>
        <time>2023-04-05T12:12:20Z</time>
      </trkpt>
      <trkpt lat="48.15134" lon="-3.66499">
        <ele>199.8</ele>
        <time>2023-04-05T12:12:21Z</time>
      </trkpt>
      <trkpt lat="48.15137" lon="-3.66496">
        <ele>199.9</ele>
        <time>2023-04-05T12:12:22Z</time>
      </trkpt>
      <trkpt lat="48.15138" lon="-3.66494">
        <ele>200</ele>
        <time>2023-04-05T12:12:23Z</time>
      </trkpt>
      <trkpt lat="48.1514" lon="-3.66492">
        <ele>200.1</ele>
        <time>2023-04-05T12:12:24Z</time>
      </trkpt>
      <trkpt lat="48.15142" lon="-3.66489">
        <ele>200.3</ele>
        <time>2023-04-05T12:12:25Z</time>
      </trkpt>
      <trkpt lat="48.15145" lon="-3.66486">
        <ele>200.5</ele>
        <time>2023-04-05T12:12:26Z</time>
      </trkpt>
      <trkpt lat="48.15147" lon="-3.66485">
        <ele>200.5</ele>
        <time>2023-04-05T12:12:27Z</time>
      </trkpt>
      <trkpt lat="48.15151" lon="-3.66481">
        <ele>200.8</ele>
        <time>2023-04-05T12:12:28Z</time>
      </trkpt>
      <trkpt lat="48.15153" lon="-3.66479">
        <ele>200.9</ele>
        <time>2023-04-05T12:12:29Z</time>
      </trkpt>
      <trkpt lat="48.15156" lon="-3.66476">
        <ele>201.1</ele>
        <time>2023-04-05T12:12:31Z</time>
      </trkpt>
      <trkpt lat="48.15158" lon="-3.66474">
        <ele>201.2</ele>
        <time>2023-04-05T12:12:32Z</time>
      </trkpt>
      <trkpt lat="48.15161" lon="-3.66471">
        <ele>201.4</ele>
        <time>2023-04-05T12:12:33Z</time>
      </trkpt>
      <trkpt lat="48.15163" lon="-3.66469">
        <ele>201.6</ele>
        <time>2023-04-05T12:12:34Z</time>
      </trkpt>
      <trkpt lat="48.15165" lon="-3.66466">
        <ele>201.7</ele>
        <time>2023-04-05T12:12:35Z</time>
      </trkpt>
      <trkpt lat="48.15168" lon="-3.66464">
        <ele>201.9</ele>
        <time>2023-04-05T12:12:36Z</time>
      </trkpt>
      <trkpt lat="48.1517" lon="-3.66461">
        <ele>202</ele>
        <time>2023-04-05T12:12:37Z</time>
      </trkpt>
      <trkpt lat="48.15173" lon="-3.66458">
        <ele>202.2</ele>
        <time>2023-04-05T12:12:38Z</time>
      </trkpt>
      <trkpt lat="48.15174" lon="-3.66457">
        <ele>202.3</ele>
        <time>2023-04-05T12:12:39Z</time>
      </trkpt>
      <trkpt lat="48.15177" lon="-3.66454">
        <ele>202.5</ele>
        <time>2023-04-05T12:12:40Z</time>
      </trkpt>
      <trkpt lat="48.1518" lon="-3.66452">
        <ele>202.7</ele>
        <time>2023-04-05T12:12:41Z</time>
      </trkpt>
      <trkpt lat="48.15183" lon="-3.66449">
        <ele>202.9</ele>
        <time>2023-04-05T12:12:42Z</time>
      </trkpt>
      <trkpt lat="48.15184" lon="-3.66448">
        <ele>203</ele>
        <time>2023-04-05T12:12:43Z</time>
      </trkpt>
      <trkpt lat="48.15187" lon="-3.66446">
        <ele>203.1</ele>
        <time>2023-04-05T12:12:44Z</time>
      </trkpt>
      <trkpt lat="48.1519" lon="-3.66443">
        <ele>203.3</ele>
        <time>2023-04-05T12:12:45Z</time>
      </trkpt>
      <trkpt lat="48.15191" lon="-3.66441">
        <ele>203.4</ele>
        <time>2023-04-05T12:12:46Z</time>
      </trkpt>
      <trkpt lat="48.15194" lon="-3.66439">
        <ele>203.5</ele>
        <time>2023-04-05T12:12:47Z</time>
      </trkpt>
      <trkpt lat="48.15197" lon="-3.66436">
        <ele>203.7</ele>
        <time>2023-04-05T12:12:48Z</time>
      </trkpt>
      <trkpt lat="48.15202" lon="-3.66431">
        <ele>204</ele>
        <time>2023-04-05T12:12:50Z</time>
      </trkpt>
      <trkpt lat="48.15204" lon="-3.6643">
        <ele>204.1</ele>
        <time>2023-04-05T12:12:51Z</time>
      </trkpt>
      <trkpt lat="48.15206" lon="-3.66428">
        <ele>204.2</ele>
        <time>2023-04-05T12:12:53Z</time>
      </trkpt>
      <trkpt lat="48.15211" lon="-3.66424">
        <ele>204.4</ele>
        <time>2023-04-05T12:12:54Z</time>
      </trkpt>
      <trkpt lat="48.15214" lon="-3.66421">
        <ele>204.6</ele>
        <time>2023-04-05T12:12:56Z</time>
      </trkpt>
      <trkpt lat="48.15216" lon="-3.66419">
        <ele>204.7</ele>
        <time>2023-04-05T12:12:57Z</time>
      </trkpt>
      <trkpt lat="48.1522" lon="-3.66416">
        <ele>204.9</ele>
        <time>2023-04-05T12:12:58Z</time>
      </trkpt>
      <trkpt lat="48.15222" lon="-3.66414">
        <ele>205</ele>
        <time>2023-04-05T12:12:59Z</time>
      </trkpt>
      <trkpt lat="48.15225" lon="-3.66411">
        <ele>205.1</ele>
        <time>2023-04-05T12:13:01Z</time>
      </trkpt>
      <trkpt lat="48.15227" lon="-3.66408">
        <ele>205.3</ele>
        <time>2023-04-05T12:13:02Z</time>
      </trkpt>
      <trkpt lat="48.15232" lon="-3.66404">
        <ele>205.5</ele>
        <time>2023-04-05T12:13:03Z</time>
      </trkpt>
      <trkpt lat="48.15234" lon="-3.66402">
        <ele>205.6</ele>
        <time>2023-04-05T12:13:05Z</time>
      </trkpt>
      <trkpt lat="48.15236" lon="-3.66399">
        <ele>205.7</ele>
        <time>2023-04-05T12:13:06Z</time>
      </trkpt>
      <trkpt lat="48.15239" lon="-3.66397">
        <ele>205.9</ele>
        <time>2023-04-05T12:13:07Z</time>
      </trkpt>
      <trkpt lat="48.15241" lon="-3.66394">
        <ele>206</ele>
        <time>2023-04-05T12:13:08Z</time>
      </trkpt>
      <trkpt lat="48.15243" lon="-3.66392">
        <ele>206.1</ele>
        <time>2023-04-05T12:13:09Z</time>
      </trkpt>
      <trkpt lat="48.15247" lon="-3.66389">
        <ele>206.3</ele>
        <time>2023-04-05T12:13:10Z</time>
      </trkpt>
      <trkpt lat="48.15248" lon="-3.66388">
        <ele>206.4</ele>
        <time>2023-04-05T12:13:11Z</time>
      </trkpt>
      <trkpt lat="48.15251" lon="-3.66385">
        <ele>206.5</ele>
        <time>2023-04-05T12:13:12Z</time>
      </trkpt>
      <trkpt lat="48.15252" lon="-3.66384">
        <ele>206.6</ele>
        <time>2023-04-05T12:13:13Z</time>
      </trkpt>
      <trkpt lat="48.15255" lon="-3.66382">
        <ele>206.8</ele>
        <time>2023-04-05T12:13:14Z</time>
      </trkpt>
      <trkpt lat="48.15259" lon="-3.66377">
        <ele>207.1</ele>
        <time>2023-04-05T12:13:15Z</time>
      </trkpt>
      <trkpt lat="48.15262" lon="-3.66375">
        <ele>207.2</ele>
        <time>2023-04-05T12:13:16Z</time>
      </trkpt>
      <trkpt lat="48.15264" lon="-3.66372">
        <ele>207.4</ele>
        <time>2023-04-05T12:13:17Z</time>
      </trkpt>
      <trkpt lat="48.15266" lon="-3.66369">
        <ele>207.6</ele>
        <time>2023-04-05T12:13:19Z</time>
      </trkpt>
      <trkpt lat="48.15268" lon="-3.66365">
        <ele>207.8</ele>
        <time>2023-04-05T12:13:20Z</time>
      </trkpt>
      <trkpt lat="48.1527" lon="-3.66362">
        <ele>208</ele>
        <time>2023-04-05T12:13:21Z</time>
      </trkpt>
      <trkpt lat="48.15273" lon="-3.66357">
        <ele>208.4</ele>
        <time>2023-04-05T12:13:22Z</time>
      </trkpt>
      <trkpt lat="48.15276" lon="-3.66354">
        <ele>208.6</ele>
        <time>2023-04-05T12:13:23Z</time>
      </trkpt>
      <trkpt lat="48.15279" lon="-3.66349">
        <ele>209</ele>
        <time>2023-04-05T12:13:25Z</time>
      </trkpt>
      <trkpt lat="48.15281" lon="-3.66346">
        <ele>209.2</ele>
        <time>2023-04-05T12:13:27Z</time>
      </trkpt>
      <trkpt lat="48.15285" lon="-3.66341">
        <ele>209.5</ele>
        <time>2023-04-05T12:13:28Z</time>
      </trkpt>
      <trkpt lat="48.15286" lon="-3.66339">
        <ele>209.7</ele>
        <time>2023-04-05T12:13:29Z</time>
      </trkpt>
      <trkpt lat="48.15288" lon="-3.66336">
        <ele>209.9</ele>
        <time>2023-04-05T12:13:31Z</time>
      </trkpt>
      <trkpt lat="48.15291" lon="-3.66332">
        <ele>210.1</ele>
        <time>2023-04-05T12:13:32Z</time>
      </trkpt>
      <trkpt lat="48.15292" lon="-3.66331">
        <ele>210.2</ele>
        <time>2023-04-05T12:13:33Z</time>
      </trkpt>
      <trkpt lat="48.15294" lon="-3.66327">
        <ele>210.5</ele>
        <time>2023-04-05T12:13:34Z</time>
      </trkpt>
      <trkpt lat="48.15295" lon="-3.66326">
        <ele>210.6</ele>
        <time>2023-04-05T12:13:35Z</time>
      </trkpt>
      <trkpt lat="48.15297" lon="-3.66322">
        <ele>210.9</ele>
        <time>2023-04-05T12:13:36Z</time>
      </trkpt>
      <trkpt lat="48.15298" lon="-3.6632">
        <ele>211</ele>
        <time>2023-04-05T12:13:37Z</time>
      </trkpt>
      <trkpt lat="48.153" lon="-3.66317">
        <ele>211.3</ele>
        <time>2023-04-05T12:13:38Z</time>
      </trkpt>
      <trkpt lat="48.15301" lon="-3.66315">
        <ele>211.4</ele>
        <time>2023-04-05T12:13:39Z</time>
      </trkpt>
      <trkpt lat="48.15304" lon="-3.66311">
        <ele>211.8</ele>
        <time>2023-04-05T12:13:40Z</time>
      </trkpt>
      <trkpt lat="48.15304" lon="-3.66309">
        <ele>212</ele>
        <time>2023-04-05T12:13:41Z</time>
      </trkpt>
      <trkpt lat="48.15307" lon="-3.66305">
        <ele>212.3</ele>
        <time>2023-04-05T12:13:42Z</time>
      </trkpt>
      <trkpt lat="48.15308" lon="-3.66304">
        <ele>212.4</ele>
        <time>2023-04-05T12:13:43Z</time>
      </trkpt>
      <trkpt lat="48.1531" lon="-3.66301">
        <ele>212.7</ele>
        <time>2023-04-05T12:13:44Z</time>
      </trkpt>
      <trkpt lat="48.15311" lon="-3.66299">
        <ele>212.9</ele>
        <time>2023-04-05T12:13:45Z</time>
      </trkpt>
      <trkpt lat="48.15314" lon="-3.66295">
        <ele>213.3</ele>
        <time>2023-04-05T12:13:47Z</time>
      </trkpt>
      <trkpt lat="48.15315" lon="-3.66291">
        <ele>213.7</ele>
        <time>2023-04-05T12:13:48Z</time>
      </trkpt>
      <trkpt lat="48.15316" lon="-3.6629">
        <ele>213.8</ele>
        <time>2023-04-05T12:13:49Z</time>
      </trkpt>
      <trkpt lat="48.15318" lon="-3.66285">
        <ele>214.2</ele>
        <time>2023-04-05T12:13:50Z</time>
      </trkpt>
      <trkpt lat="48.15319" lon="-3.66282">
        <ele>214.4</ele>
        <time>2023-04-05T12:13:51Z</time>
      </trkpt>
      <trkpt lat="48.15321" lon="-3.66279">
        <ele>214.6</ele>
        <time>2023-04-05T12:13:53Z</time>
      </trkpt>
      <trkpt lat="48.15323" lon="-3.66276">
        <ele>215</ele>
        <time>2023-04-05T12:13:54Z</time>
      </trkpt>
      <trkpt lat="48.15324" lon="-3.66275">
        <ele>215.1</ele>
        <time>2023-04-05T12:13:55Z</time>
      </trkpt>
      <trkpt lat="48.15326" lon="-3.66271">
        <ele>215.4</ele>
        <time>2023-04-05T12:13:56Z</time>
      </trkpt>
      <trkpt lat="48.15326" lon="-3.6627">
        <ele>215.5</ele>
        <time>2023-04-05T12:13:57Z</time>
      </trkpt>
      <trkpt lat="48.15328" lon="-3.66267">
        <ele>215.8</ele>
        <time>2023-04-05T12:13:58Z</time>
      </trkpt>
      <trkpt lat="48.15329" lon="-3.66265">
        <ele>215.9</ele>
        <time>2023-04-05T12:13:59Z</time>
      </trkpt>
      <trkpt lat="48.15332" lon="-3.66262">
        <ele>216.2</ele>
        <time>2023-04-05T12:14:00Z</time>
      </trkpt>
      <trkpt lat="48.15333" lon="-3.66261">
        <ele>216.3</ele>
        <time>2023-04-05T12:14:01Z</time>
      </trkpt>
      <trkpt lat="48.15336" lon="-3.66256">
        <ele>216.7</ele>
        <time>2023-04-05T12:14:02Z</time>
      </trkpt>
      <trkpt lat="48.15337" lon="-3.66254">
        <ele>216.8</ele>
        <time>2023-04-05T12:14:03Z</time>
      </trkpt>
      <trkpt lat="48.15338" lon="-3.66252">
        <ele>217</ele>
        <time>2023-04-05T12:14:04Z</time>
      </trkpt>
      <trkpt lat="48.1534" lon="-3.66249">
        <ele>217.2</ele>
        <time>2023-04-05T12:14:05Z</time>
      </trkpt>
      <trkpt lat="48.15342" lon="-3.66247">
        <ele>217.4</ele>
        <time>2023-04-05T12:14:07Z</time>
      </trkpt>
      <trkpt lat="48.15345" lon="-3.66243">
        <ele>217.8</ele>
        <time>2023-04-05T12:14:08Z</time>
      </trkpt>
      <trkpt lat="48.15347" lon="-3.66241">
        <ele>217.9</ele>
        <time>2023-04-05T12:14:09Z</time>
      </trkpt>
      <trkpt lat="48.1535" lon="-3.66239">
        <ele>218.2</ele>
        <time>2023-04-05T12:14:11Z</time>
      </trkpt>
      <trkpt lat="48.15353" lon="-3.66235">
        <ele>218.4</ele>
        <time>2023-04-05T12:14:12Z</time>
      </trkpt>
      <trkpt lat="48.15356" lon="-3.66231">
        <ele>218.7</ele>
        <time>2023-04-05T12:14:14Z</time>
      </trkpt>
      <trkpt lat="48.15358" lon="-3.66229">
        <ele>218.9</ele>
        <time>2023-04-05T12:14:15Z</time>
      </trkpt>
      <trkpt lat="48.1536" lon="-3.66227">
        <ele>219</ele>
        <time>2023-04-05T12:14:17Z</time>
      </trkpt>
      <trkpt lat="48.15364" lon="-3.66225">
        <ele>219.2</ele>
        <time>2023-04-05T12:14:18Z</time>
      </trkpt>
      <trkpt lat="48.15365" lon="-3.66225">
        <ele>219.2</ele>
        <time>2023-04-05T12:14:19Z</time>
      </trkpt>
      <trkpt lat="48.15369" lon="-3.66223">
        <ele>219.4</ele>
        <time>2023-04-05T12:14:20Z</time>
      </trkpt>
      <trkpt lat="48.15372" lon="-3.66221">
        <ele>219.5</ele>
        <time>2023-04-05T12:14:21Z</time>
      </trkpt>
      <trkpt lat="48.15374" lon="-3.6622">
        <ele>219.5</ele>
        <time>2023-04-05T12:14:22Z</time>
      </trkpt>
      <trkpt lat="48.15378" lon="-3.66218">
        <ele>219.7</ele>
        <time>2023-04-05T12:14:24Z</time>
      </trkpt>
      <trkpt lat="48.1538" lon="-3.66217">
        <ele>219.7</ele>
        <time>2023-04-05T12:14:25Z</time>
      </trkpt>
      <trkpt lat="48.15382" lon="-3.66216">
        <ele>219.8</ele>
        <time>2023-04-05T12:14:26Z</time>
      </trkpt>
      <trkpt lat="48.15387" lon="-3.66215">
        <ele>219.8</ele>
        <time>2023-04-05T12:14:27Z</time>
      </trkpt>
      <trkpt lat="48.1539" lon="-3.66215">
        <ele>219.9</ele>
        <time>2023-04-05T12:14:28Z</time>
      </trkpt>
      <trkpt lat="48.15393" lon="-3.66215">
        <ele>219.9</ele>
        <time>2023-04-05T12:14:30Z</time>
      </trkpt>
      <trkpt lat="48.15396" lon="-3.66216">
        <ele>219.9</ele>
        <time>2023-04-05T12:14:31Z</time>
      </trkpt>
      <trkpt lat="48.15399" lon="-3.66216">
        <ele>219.9</ele>
        <time>2023-04-05T12:14:32Z</time>
      </trkpt>
      <trkpt lat="48.15401" lon="-3.66216">
        <ele>219.9</ele>
        <time>2023-04-05T12:14:33Z</time>
      </trkpt>
      <trkpt lat="48.15405" lon="-3.66215">
        <ele>219.9</ele>
        <time>2023-04-05T12:14:34Z</time>
      </trkpt>
      <trkpt lat="48.15408" lon="-3.66215">
        <ele>219.9</ele>
        <time>2023-04-05T12:14:35Z</time>
      </trkpt>
      <trkpt lat="48.1541" lon="-3.66215">
        <ele>219.9</ele>
        <time>2023-04-05T12:14:36Z</time>
      </trkpt>
      <trkpt lat="48.15416" lon="-3.66213">
        <ele>219.9</ele>
        <time>2023-04-05T12:14:37Z</time>
      </trkpt>
      <trkpt lat="48.1542" lon="-3.66212">
        <ele>219.9</ele>
        <time>2023-04-05T12:14:39Z</time>
      </trkpt>
      <trkpt lat="48.15423" lon="-3.6621">
        <ele>220</ele>
        <time>2023-04-05T12:14:40Z</time>
      </trkpt>
      <trkpt lat="48.15425" lon="-3.66208">
        <ele>220</ele>
        <time>2023-04-05T12:14:41Z</time>
      </trkpt>
      <trkpt lat="48.15427" lon="-3.66202">
        <ele>220.1</ele>
        <time>2023-04-05T12:14:42Z</time>
      </trkpt>
      <trkpt lat="48.1543" lon="-3.66191">
        <ele>220.2</ele>
        <time>2023-04-05T12:14:43Z</time>
      </trkpt>
      <trkpt lat="48.15432" lon="-3.66181">
        <ele>220.3</ele>
        <time>2023-04-05T12:14:45Z</time>
      </trkpt>
      <trkpt lat="48.15434" lon="-3.6617">
        <ele>220.4</ele>
        <time>2023-04-05T12:14:47Z</time>
      </trkpt>
      <trkpt lat="48.15435" lon="-3.66164">
        <ele>220.4</ele>
        <time>2023-04-05T12:14:49Z</time>
      </trkpt>
      <trkpt lat="48.15436" lon="-3.66155">
        <ele>220.5</ele>
        <time>2023-04-05T12:14:50Z</time>
      </trkpt>
      <trkpt lat="48.15438" lon="-3.66143">
        <ele>220.6</ele>
        <time>2023-04-05T12:14:52Z</time>
      </trkpt>
      <trkpt lat="48.1544" lon="-3.66138">
        <ele>220.6</ele>
        <time>2023-04-05T12:14:53Z</time>
      </trkpt>
      <trkpt lat="48.15441" lon="-3.66131">
        <ele>220.6</ele>
        <time>2023-04-05T12:14:55Z</time>
      </trkpt>
      <trkpt lat="48.15442" lon="-3.66126">
        <ele>220.7</ele>
        <time>2023-04-05T12:14:56Z</time>
      </trkpt>
      <trkpt lat="48.15443" lon="-3.6612">
        <ele>220.7</ele>
        <time>2023-04-05T12:14:57Z</time>
      </trkpt>
      <trkpt lat="48.15444" lon="-3.66115">
        <ele>220.7</ele>
        <time>2023-04-05T12:14:58Z</time>
      </trkpt>
      <trkpt lat="48.15445" lon="-3.66108">
        <ele>220.7</ele>
        <time>2023-04-05T12:14:59Z</time>
      </trkpt>
      <trkpt lat="48.15447" lon="-3.66102">
        <ele>220.7</ele>
        <time>2023-04-05T12:15:00Z</time>
      </trkpt>
      <trkpt lat="48.15448" lon="-3.66095">
        <ele>220.7</ele>
        <time>2023-04-05T12:15:01Z</time>
      </trkpt>
      <trkpt lat="48.1545" lon="-3.66089">
        <ele>220.7</ele>
        <time>2023-04-05T12:15:02Z</time>
      </trkpt>
      <trkpt lat="48.15451" lon="-3.66083">
        <ele>220.7</ele>
        <time>2023-04-05T12:15:03Z</time>
      </trkpt>
      <trkpt lat="48.15453" lon="-3.66077">
        <ele>220.7</ele>
        <time>2023-04-05T12:15:04Z</time>
      </trkpt>
      <trkpt lat="48.15454" lon="-3.66071">
        <ele>220.7</ele>
        <time>2023-04-05T12:15:05Z</time>
      </trkpt>
      <trkpt lat="48.15455" lon="-3.66064">
        <ele>220.6</ele>
        <time>2023-04-05T12:15:06Z</time>
      </trkpt>
      <trkpt lat="48.15456" lon="-3.66058">
        <ele>220.6</ele>
        <time>2023-04-05T12:15:07Z</time>
      </trkpt>
      <trkpt lat="48.15458" lon="-3.66051">
        <ele>220.6</ele>
        <time>2023-04-05T12:15:08Z</time>
      </trkpt>
      <trkpt lat="48.1546" lon="-3.66044">
        <ele>220.5</ele>
        <time>2023-04-05T12:15:09Z</time>
      </trkpt>
      <trkpt lat="48.15462" lon="-3.66037">
        <ele>220.5</ele>
        <time>2023-04-05T12:15:10Z</time>
      </trkpt>
      <trkpt lat="48.15464" lon="-3.6603">
        <ele>220.5</ele>
        <time>2023-04-05T12:15:11Z</time>
      </trkpt>
      <trkpt lat="48.15467" lon="-3.66024">
        <ele>220.4</ele>
        <time>2023-04-05T12:15:12Z</time>
      </trkpt>
      <trkpt lat="48.15469" lon="-3.66017">
        <ele>220.4</ele>
        <time>2023-04-05T12:15:13Z</time>
      </trkpt>
      <trkpt lat="48.15471" lon="-3.6601">
        <ele>220.4</ele>
        <time>2023-04-05T12:15:14Z</time>
      </trkpt>
      <trkpt lat="48.15473" lon="-3.66003">
        <ele>220.4</ele>
        <time>2023-04-05T12:15:15Z</time>
      </trkpt>
      <trkpt lat="48.15476" lon="-3.65996">
        <ele>220.3</ele>
        <time>2023-04-05T12:15:16Z</time>
      </trkpt>
      <trkpt lat="48.15478" lon="-3.65989">
        <ele>220.3</ele>
        <time>2023-04-05T12:15:17Z</time>
      </trkpt>
      <trkpt lat="48.15481" lon="-3.65982">
        <ele>220.2</ele>
        <time>2023-04-05T12:15:18Z</time>
      </trkpt>
      <trkpt lat="48.15483" lon="-3.65975">
        <ele>220.1</ele>
        <time>2023-04-05T12:15:19Z</time>
      </trkpt>
      <trkpt lat="48.15485" lon="-3.65968">
        <ele>220</ele>
        <time>2023-04-05T12:15:20Z</time>
      </trkpt>
      <trkpt lat="48.15488" lon="-3.65961">
        <ele>220</ele>
        <time>2023-04-05T12:15:21Z</time>
      </trkpt>
      <trkpt lat="48.1549" lon="-3.65954">
        <ele>219.9</ele>
        <time>2023-04-05T12:15:22Z</time>
      </trkpt>
      <trkpt lat="48.15493" lon="-3.65946">
        <ele>219.8</ele>
        <time>2023-04-05T12:15:23Z</time>
      </trkpt>
      <trkpt lat="48.15496" lon="-3.6594">
        <ele>219.8</ele>
        <time>2023-04-05T12:15:24Z</time>
      </trkpt>
      <trkpt lat="48.15498" lon="-3.65932">
        <ele>219.8</ele>
        <time>2023-04-05T12:15:25Z</time>
      </trkpt>
      <trkpt lat="48.15501" lon="-3.65925">
        <ele>219.8</ele>
        <time>2023-04-05T12:15:26Z</time>
      </trkpt>
      <trkpt lat="48.15503" lon="-3.65918">
        <ele>219.7</ele>
        <time>2023-04-05T12:15:27Z</time>
      </trkpt>
      <trkpt lat="48.15506" lon="-3.65911">
        <ele>219.7</ele>
        <time>2023-04-05T12:15:28Z</time>
      </trkpt>
      <trkpt lat="48.15509" lon="-3.65904">
        <ele>219.6</ele>
        <time>2023-04-05T12:15:29Z</time>
      </trkpt>
      <trkpt lat="48.15512" lon="-3.65897">
        <ele>219.6</ele>
        <time>2023-04-05T12:15:30Z</time>
      </trkpt>
      <trkpt lat="48.15515" lon="-3.65889">
        <ele>219.6</ele>
        <time>2023-04-05T12:15:31Z</time>
      </trkpt>
      <trkpt lat="48.15517" lon="-3.65882">
        <ele>219.6</ele>
        <time>2023-04-05T12:15:32Z</time>
      </trkpt>
      <trkpt lat="48.1552" lon="-3.65875">
        <ele>219.5</ele>
        <time>2023-04-05T12:15:33Z</time>
      </trkpt>
      <trkpt lat="48.15523" lon="-3.65867">
        <ele>219.5</ele>
        <time>2023-04-05T12:15:34Z</time>
      </trkpt>
      <trkpt lat="48.15525" lon="-3.6586">
        <ele>219.5</ele>
        <time>2023-04-05T12:15:35Z</time>
      </trkpt>
      <trkpt lat="48.15527" lon="-3.65852">
        <ele>219.4</ele>
        <time>2023-04-05T12:15:36Z</time>
      </trkpt>
      <trkpt lat="48.1553" lon="-3.65844">
        <ele>219.4</ele>
        <time>2023-04-05T12:15:37Z</time>
      </trkpt>
      <trkpt lat="48.15532" lon="-3.65837">
        <ele>219.4</ele>
        <time>2023-04-05T12:15:38Z</time>
      </trkpt>
      <trkpt lat="48.15534" lon="-3.65828">
        <ele>219.4</ele>
        <time>2023-04-05T12:15:39Z</time>
      </trkpt>
      <trkpt lat="48.15536" lon="-3.6582">
        <ele>219.4</ele>
        <time>2023-04-05T12:15:40Z</time>
      </trkpt>
      <trkpt lat="48.15538" lon="-3.65812">
        <ele>219.4</ele>
        <time>2023-04-05T12:15:41Z</time>
      </trkpt>
      <trkpt lat="48.1554" lon="-3.65803">
        <ele>219.5</ele>
        <time>2023-04-05T12:15:42Z</time>
      </trkpt>
      <trkpt lat="48.15542" lon="-3.65795">
        <ele>219.5</ele>
        <time>2023-04-05T12:15:43Z</time>
      </trkpt>
      <trkpt lat="48.15544" lon="-3.65787">
        <ele>219.5</ele>
        <time>2023-04-05T12:15:44Z</time>
      </trkpt>
      <trkpt lat="48.15545" lon="-3.65779">
        <ele>219.5</ele>
        <time>2023-04-05T12:15:45Z</time>
      </trkpt>
      <trkpt lat="48.15547" lon="-3.6577">
        <ele>219.4</ele>
        <time>2023-04-05T12:15:46Z</time>
      </trkpt>
      <trkpt lat="48.15549" lon="-3.65761">
        <ele>219.4</ele>
        <time>2023-04-05T12:15:47Z</time>
      </trkpt>
      <trkpt lat="48.15551" lon="-3.65752">
        <ele>219.4</ele>
        <time>2023-04-05T12:15:48Z</time>
      </trkpt>
      <trkpt lat="48.15552" lon="-3.65744">
        <ele>219.4</ele>
        <time>2023-04-05T12:15:49Z</time>
      </trkpt>
      <trkpt lat="48.15554" lon="-3.65734">
        <ele>219.3</ele>
        <time>2023-04-05T12:15:50Z</time>
      </trkpt>
      <trkpt lat="48.15555" lon="-3.65726">
        <ele>219.3</ele>
        <time>2023-04-05T12:15:51Z</time>
      </trkpt>
      <trkpt lat="48.15557" lon="-3.65717">
        <ele>219.2</ele>
        <time>2023-04-05T12:15:52Z</time>
      </trkpt>
      <trkpt lat="48.15559" lon="-3.65708">
        <ele>219.1</ele>
        <time>2023-04-05T12:15:53Z</time>
      </trkpt>
      <trkpt lat="48.1556" lon="-3.65699">
        <ele>219.1</ele>
        <time>2023-04-05T12:15:54Z</time>
      </trkpt>
      <trkpt lat="48.15561" lon="-3.6569">
        <ele>219.1</ele>
        <time>2023-04-05T12:15:55Z</time>
      </trkpt>
      <trkpt lat="48.15563" lon="-3.65681">
        <ele>219.1</ele>
        <time>2023-04-05T12:15:56Z</time>
      </trkpt>
      <trkpt lat="48.15565" lon="-3.65672">
        <ele>219</ele>
        <time>2023-04-05T12:15:57Z</time>
      </trkpt>
      <trkpt lat="48.15567" lon="-3.65664">
        <ele>219</ele>
        <time>2023-04-05T12:15:58Z</time>
      </trkpt>
      <trkpt lat="48.15568" lon="-3.65655">
        <ele>219</ele>
        <time>2023-04-05T12:15:59Z</time>
      </trkpt>
      <trkpt lat="48.15571" lon="-3.65647">
        <ele>219</ele>
        <time>2023-04-05T12:16:00Z</time>
      </trkpt>
      <trkpt lat="48.15578" lon="-3.65614">
        <ele>218.9</ele>
        <time>2023-04-05T12:16:12Z</time>
      </trkpt>
      <trkpt lat="48.15576" lon="-3.65618">
        <ele>218.8</ele>
        <time>2023-04-05T12:16:14Z</time>
      </trkpt>
      <trkpt lat="48.15576" lon="-3.65618">
        <ele>218.8</ele>
        <time>2023-04-05T12:16:15Z</time>
      </trkpt>
      <trkpt lat="48.15575" lon="-3.65618">
        <ele>218.8</ele>
        <time>2023-04-05T12:16:16Z</time>
      </trkpt>
      <trkpt lat="48.15575" lon="-3.65617">
        <ele>218.8</ele>
        <time>2023-04-05T12:16:17Z</time>
      </trkpt>
      <trkpt lat="48.15576" lon="-3.65617">
        <ele>218.8</ele>
        <time>2023-04-05T12:16:18Z</time>
      </trkpt>
      <trkpt lat="48.15576" lon="-3.65617">
        <ele>218.8</ele>
        <time>2023-04-05T12:16:19Z</time>
      </trkpt>
      <trkpt lat="48.15576" lon="-3.65617">
        <ele>218.8</ele>
        <time>2023-04-05T12:16:20Z</time>
      </trkpt>
      <trkpt lat="48.15576" lon="-3.65617">
        <ele>218.8</ele>
        <time>2023-04-05T12:16:21Z</time>
      </trkpt>
      <trkpt lat="48.15576" lon="-3.65617">
        <ele>218.8</ele>
        <time>2023-04-05T12:16:22Z</time>
      </trkpt>
      <trkpt lat="48.15575" lon="-3.65614">
        <ele>218.8</ele>
        <time>2023-04-05T12:17:21Z</time>
      </trkpt>
      <trkpt lat="48.15575" lon="-3.65612">
        <ele>218.8</ele>
        <time>2023-04-05T12:17:22Z</time>
      </trkpt>
      <trkpt lat="48.15576" lon="-3.65611">
        <ele>218.8</ele>
        <time>2023-04-05T12:17:23Z</time>
      </trkpt>
      <trkpt lat="48.15576" lon="-3.65609">
        <ele>218.8</ele>
        <time>2023-04-05T12:17:24Z</time>
      </trkpt>
      <trkpt lat="48.15577" lon="-3.65605">
        <ele>218.7</ele>
        <time>2023-04-05T12:17:25Z</time>
      </trkpt>
      <trkpt lat="48.15577" lon="-3.65604">
        <ele>218.7</ele>
        <time>2023-04-05T12:17:26Z</time>
      </trkpt>
      <trkpt lat="48.15578" lon="-3.656">
        <ele>218.7</ele>
        <time>2023-04-05T12:17:27Z</time>
      </trkpt>
      <trkpt lat="48.15578" lon="-3.65599">
        <ele>218.7</ele>
        <time>2023-04-05T12:17:28Z</time>
      </trkpt>
      <trkpt lat="48.15579" lon="-3.65594">
        <ele>218.7</ele>
        <time>2023-04-05T12:17:29Z</time>
      </trkpt>
      <trkpt lat="48.15579" lon="-3.65592">
        <ele>218.6</ele>
        <time>2023-04-05T12:17:30Z</time>
      </trkpt>
      <trkpt lat="48.15581" lon="-3.65587">
        <ele>218.6</ele>
        <time>2023-04-05T12:17:31Z</time>
      </trkpt>
      <trkpt lat="48.15582" lon="-3.65583">
        <ele>218.6</ele>
        <time>2023-04-05T12:17:32Z</time>
      </trkpt>
      <trkpt lat="48.15582" lon="-3.65575">
        <ele>218.6</ele>
        <time>2023-04-05T12:17:33Z</time>
      </trkpt>
      <trkpt lat="48.15583" lon="-3.65569">
        <ele>218.6</ele>
        <time>2023-04-05T12:17:35Z</time>
      </trkpt>
      <trkpt lat="48.15585" lon="-3.65564">
        <ele>218.6</ele>
        <time>2023-04-05T12:17:36Z</time>
      </trkpt>
      <trkpt lat="48.15587" lon="-3.65553">
        <ele>218.6</ele>
        <time>2023-04-05T12:17:37Z</time>
      </trkpt>
      <trkpt lat="48.15589" lon="-3.65547">
        <ele>218.6</ele>
        <time>2023-04-05T12:17:38Z</time>
      </trkpt>
      <trkpt lat="48.1559" lon="-3.65542">
        <ele>218.5</ele>
        <time>2023-04-05T12:17:40Z</time>
      </trkpt>
      <trkpt lat="48.15592" lon="-3.65536">
        <ele>218.5</ele>
        <time>2023-04-05T12:17:41Z</time>
      </trkpt>
      <trkpt lat="48.15593" lon="-3.6553">
        <ele>218.5</ele>
        <time>2023-04-05T12:17:42Z</time>
      </trkpt>
      <trkpt lat="48.15594" lon="-3.65524">
        <ele>218.5</ele>
        <time>2023-04-05T12:17:43Z</time>
      </trkpt>
      <trkpt lat="48.15596" lon="-3.65517">
        <ele>218.5</ele>
        <time>2023-04-05T12:17:44Z</time>
      </trkpt>
      <trkpt lat="48.15597" lon="-3.65511">
        <ele>218.4</ele>
        <time>2023-04-05T12:17:45Z</time>
      </trkpt>
      <trkpt lat="48.156" lon="-3.65499">
        <ele>218.4</ele>
        <time>2023-04-05T12:17:46Z</time>
      </trkpt>
      <trkpt lat="48.15603" lon="-3.6549">
        <ele>218.5</ele>
        <time>2023-04-05T12:17:48Z</time>
      </trkpt>
      <trkpt lat="48.15605" lon="-3.65483">
        <ele>218.5</ele>
        <time>2023-04-05T12:17:49Z</time>
      </trkpt>
      <trkpt lat="48.15606" lon="-3.65476">
        <ele>218.5</ele>
        <time>2023-04-05T12:17:50Z</time>
      </trkpt>
      <trkpt lat="48.15608" lon="-3.6547">
        <ele>218.5</ele>
        <time>2023-04-05T12:17:51Z</time>
      </trkpt>
      <trkpt lat="48.1561" lon="-3.65463">
        <ele>218.6</ele>
        <time>2023-04-05T12:17:52Z</time>
      </trkpt>
      <trkpt lat="48.15611" lon="-3.65456">
        <ele>218.6</ele>
        <time>2023-04-05T12:17:53Z</time>
      </trkpt>
      <trkpt lat="48.15613" lon="-3.65449">
        <ele>218.6</ele>
        <time>2023-04-05T12:17:54Z</time>
      </trkpt>
      <trkpt lat="48.15615" lon="-3.65442">
        <ele>218.6</ele>
        <time>2023-04-05T12:17:55Z</time>
      </trkpt>
      <trkpt lat="48.15618" lon="-3.65435">
        <ele>218.6</ele>
        <time>2023-04-05T12:17:56Z</time>
      </trkpt>
      <trkpt lat="48.15618" lon="-3.6543">
        <ele>218.5</ele>
        <time>2023-04-05T12:17:57Z</time>
      </trkpt>
      <trkpt lat="48.15616" lon="-3.65425">
        <ele>218.5</ele>
        <time>2023-04-05T12:17:58Z</time>
      </trkpt>
      <trkpt lat="48.15615" lon="-3.65423">
        <ele>218.6</ele>
        <time>2023-04-05T12:17:59Z</time>
      </trkpt>
      <trkpt lat="48.15609" lon="-3.65421">
        <ele>218.7</ele>
        <time>2023-04-05T12:18:01Z</time>
      </trkpt>
      <trkpt lat="48.15604" lon="-3.65422">
        <ele>218.7</ele>
        <time>2023-04-05T12:18:03Z</time>
      </trkpt>
      <trkpt lat="48.15601" lon="-3.65422">
        <ele>218.8</ele>
        <time>2023-04-05T12:18:05Z</time>
      </trkpt>
      <trkpt lat="48.15598" lon="-3.6542">
        <ele>218.9</ele>
        <time>2023-04-05T12:18:06Z</time>
      </trkpt>
      <trkpt lat="48.15595" lon="-3.65418">
        <ele>218.9</ele>
        <time>2023-04-05T12:18:07Z</time>
      </trkpt>
      <trkpt lat="48.15592" lon="-3.65417">
        <ele>219</ele>
        <time>2023-04-05T12:18:09Z</time>
      </trkpt>
      <trkpt lat="48.1559" lon="-3.65417">
        <ele>219.1</ele>
        <time>2023-04-05T12:18:10Z</time>
      </trkpt>
      <trkpt lat="48.15588" lon="-3.65417">
        <ele>219.2</ele>
        <time>2023-04-05T12:18:11Z</time>
      </trkpt>
      <trkpt lat="48.15587" lon="-3.65416">
        <ele>219.2</ele>
        <time>2023-04-05T12:18:13Z</time>
      </trkpt>
      <trkpt lat="48.15584" lon="-3.65414">
        <ele>219.3</ele>
        <time>2023-04-05T12:18:14Z</time>
      </trkpt>
      <trkpt lat="48.15582" lon="-3.65413">
        <ele>219.4</ele>
        <time>2023-04-05T12:18:15Z</time>
      </trkpt>
      <trkpt lat="48.1558" lon="-3.65412">
        <ele>219.5</ele>
        <time>2023-04-05T12:18:17Z</time>
      </trkpt>
      <trkpt lat="48.15577" lon="-3.65413">
        <ele>219.6</ele>
        <time>2023-04-05T12:18:18Z</time>
      </trkpt>
      <trkpt lat="48.15576" lon="-3.65413">
        <ele>219.7</ele>
        <time>2023-04-05T12:18:19Z</time>
      </trkpt>
      <trkpt lat="48.15574" lon="-3.65412">
        <ele>219.8</ele>
        <time>2023-04-05T12:18:20Z</time>
      </trkpt>
      <trkpt lat="48.15573" lon="-3.65412">
        <ele>219.8</ele>
        <time>2023-04-05T12:18:21Z</time>
      </trkpt>
      <trkpt lat="48.15572" lon="-3.65412">
        <ele>219.9</ele>
        <time>2023-04-05T12:18:22Z</time>
      </trkpt>
      <trkpt lat="48.1557" lon="-3.65412">
        <ele>220</ele>
        <time>2023-04-05T12:18:23Z</time>
      </trkpt>
      <trkpt lat="48.15568" lon="-3.65411">
        <ele>220.2</ele>
        <time>2023-04-05T12:18:24Z</time>
      </trkpt>
      <trkpt lat="48.15567" lon="-3.65411">
        <ele>220.3</ele>
        <time>2023-04-05T12:18:25Z</time>
      </trkpt>
      <trkpt lat="48.15565" lon="-3.65411">
        <ele>220.4</ele>
        <time>2023-04-05T12:18:26Z</time>
      </trkpt>
      <trkpt lat="48.15563" lon="-3.6541">
        <ele>220.5</ele>
        <time>2023-04-05T12:18:27Z</time>
      </trkpt>
      <trkpt lat="48.15562" lon="-3.65409">
        <ele>220.7</ele>
        <time>2023-04-05T12:18:28Z</time>
      </trkpt>
      <trkpt lat="48.15559" lon="-3.65407">
        <ele>220.9</ele>
        <time>2023-04-05T12:18:29Z</time>
      </trkpt>
      <trkpt lat="48.15557" lon="-3.65405">
        <ele>221</ele>
        <time>2023-04-05T12:18:31Z</time>
      </trkpt>
      <trkpt lat="48.15556" lon="-3.65405">
        <ele>221.1</ele>
        <time>2023-04-05T12:18:32Z</time>
      </trkpt>
      <trkpt lat="48.15555" lon="-3.65404">
        <ele>221.2</ele>
        <time>2023-04-05T12:18:33Z</time>
      </trkpt>
      <trkpt lat="48.15553" lon="-3.65403">
        <ele>221.4</ele>
        <time>2023-04-05T12:18:34Z</time>
      </trkpt>
      <trkpt lat="48.15552" lon="-3.65403">
        <ele>221.4</ele>
        <time>2023-04-05T12:18:35Z</time>
      </trkpt>
      <trkpt lat="48.15551" lon="-3.65403">
        <ele>221.5</ele>
        <time>2023-04-05T12:18:36Z</time>
      </trkpt>
      <trkpt lat="48.15549" lon="-3.65402">
        <ele>221.7</ele>
        <time>2023-04-05T12:18:37Z</time>
      </trkpt>
      <trkpt lat="48.15547" lon="-3.65401">
        <ele>221.9</ele>
        <time>2023-04-05T12:18:39Z</time>
      </trkpt>
      <trkpt lat="48.15546" lon="-3.654">
        <ele>222</ele>
        <time>2023-04-05T12:18:40Z</time>
      </trkpt>
      <trkpt lat="48.15544" lon="-3.65399">
        <ele>222.1</ele>
        <time>2023-04-05T12:18:41Z</time>
      </trkpt>
      <trkpt lat="48.15543" lon="-3.65398">
        <ele>222.2</ele>
        <time>2023-04-05T12:18:42Z</time>
      </trkpt>
      <trkpt lat="48.15541" lon="-3.65398">
        <ele>222.3</ele>
        <time>2023-04-05T12:18:43Z</time>
      </trkpt>
      <trkpt lat="48.1554" lon="-3.65397">
        <ele>222.4</ele>
        <time>2023-04-05T12:18:44Z</time>
      </trkpt>
      <trkpt lat="48.15539" lon="-3.65397">
        <ele>222.6</ele>
        <time>2023-04-05T12:18:45Z</time>
      </trkpt>
      <trkpt lat="48.15537" lon="-3.65396">
        <ele>222.7</ele>
        <time>2023-04-05T12:18:46Z</time>
      </trkpt>
      <trkpt lat="48.15536" lon="-3.65396">
        <ele>222.8</ele>
        <time>2023-04-05T12:18:47Z</time>
      </trkpt>
      <trkpt lat="48.15536" lon="-3.65396">
        <ele>222.8</ele>
        <time>2023-04-05T12:18:48Z</time>
      </trkpt>
      <trkpt lat="48.15535" lon="-3.65396">
        <ele>222.9</ele>
        <time>2023-04-05T12:18:49Z</time>
      </trkpt>
      <trkpt lat="48.15535" lon="-3.65395">
        <ele>222.9</ele>
        <time>2023-04-05T12:18:50Z</time>
      </trkpt>
      <trkpt lat="48.15535" lon="-3.65395">
        <ele>222.9</ele>
        <time>2023-04-05T12:18:51Z</time>
      </trkpt>
      <trkpt lat="48.15534" lon="-3.65395">
        <ele>223</ele>
        <time>2023-04-05T12:18:52Z</time>
      </trkpt>
      <trkpt lat="48.15534" lon="-3.65395">
        <ele>223</ele>
        <time>2023-04-05T12:18:53Z</time>
      </trkpt>
      <trkpt lat="48.15533" lon="-3.65395">
        <ele>223.1</ele>
        <time>2023-04-05T12:18:54Z</time>
      </trkpt>
      <trkpt lat="48.15533" lon="-3.65394">
        <ele>223.1</ele>
        <time>2023-04-05T12:18:55Z</time>
      </trkpt>
      <trkpt lat="48.15532" lon="-3.65394">
        <ele>223.1</ele>
        <time>2023-04-05T12:18:56Z</time>
      </trkpt>
      <trkpt lat="48.15532" lon="-3.65394">
        <ele>223.2</ele>
        <time>2023-04-05T12:19:30Z</time>
      </trkpt>
      <trkpt lat="48.15531" lon="-3.65394">
        <ele>223.2</ele>
        <time>2023-04-05T12:19:31Z</time>
      </trkpt>
      <trkpt lat="48.15531" lon="-3.65394">
        <ele>223.2</ele>
        <time>2023-04-05T12:19:32Z</time>
      </trkpt>
      <trkpt lat="48.1553" lon="-3.65393">
        <ele>223.3</ele>
        <time>2023-04-05T12:19:33Z</time>
      </trkpt>
      <trkpt lat="48.1553" lon="-3.65393">
        <ele>223.3</ele>
        <time>2023-04-05T12:19:34Z</time>
      </trkpt>
      <trkpt lat="48.15527" lon="-3.65392">
        <ele>223.6</ele>
        <time>2023-04-05T12:19:35Z</time>
      </trkpt>
      <trkpt lat="48.15526" lon="-3.65391">
        <ele>223.7</ele>
        <time>2023-04-05T12:19:36Z</time>
      </trkpt>
      <trkpt lat="48.15522" lon="-3.6539">
        <ele>223.9</ele>
        <time>2023-04-05T12:19:38Z</time>
      </trkpt>
      <trkpt lat="48.15522" lon="-3.6539">
        <ele>224</ele>
        <time>2023-04-05T12:19:39Z</time>
      </trkpt>
      <trkpt lat="48.1552" lon="-3.6539">
        <ele>224.1</ele>
        <time>2023-04-05T12:19:40Z</time>
      </trkpt>
      <trkpt lat="48.15519" lon="-3.65389">
        <ele>224.2</ele>
        <time>2023-04-05T12:19:41Z</time>
      </trkpt>
      <trkpt lat="48.15516" lon="-3.65387">
        <ele>224.3</ele>
        <time>2023-04-05T12:19:42Z</time>
      </trkpt>
      <trkpt lat="48.15515" lon="-3.65387">
        <ele>224.4</ele>
        <time>2023-04-05T12:19:44Z</time>
      </trkpt>
      <trkpt lat="48.15514" lon="-3.65386">
        <ele>224.5</ele>
        <time>2023-04-05T12:19:45Z</time>
      </trkpt>
      <trkpt lat="48.15513" lon="-3.65386">
        <ele>224.5</ele>
        <time>2023-04-05T12:19:46Z</time>
      </trkpt>
      <trkpt lat="48.15511" lon="-3.65385">
        <ele>224.7</ele>
        <time>2023-04-05T12:19:47Z</time>
      </trkpt>
      <trkpt lat="48.15509" lon="-3.65383">
        <ele>224.9</ele>
        <time>2023-04-05T12:19:49Z</time>
      </trkpt>
      <trkpt lat="48.15507" lon="-3.65383">
        <ele>225</ele>
        <time>2023-04-05T12:19:50Z</time>
      </trkpt>
      <trkpt lat="48.15505" lon="-3.65381">
        <ele>225.2</ele>
        <time>2023-04-05T12:19:52Z</time>
      </trkpt>
      <trkpt lat="48.15501" lon="-3.65379">
        <ele>225.4</ele>
        <time>2023-04-05T12:19:53Z</time>
      </trkpt>
      <trkpt lat="48.155" lon="-3.65379">
        <ele>225.6</ele>
        <time>2023-04-05T12:19:54Z</time>
      </trkpt>
      <trkpt lat="48.15497" lon="-3.65378">
        <ele>225.8</ele>
        <time>2023-04-05T12:19:56Z</time>
      </trkpt>
      <trkpt lat="48.15495" lon="-3.65377">
        <ele>225.9</ele>
        <time>2023-04-05T12:19:57Z</time>
      </trkpt>
      <trkpt lat="48.15494" lon="-3.65376">
        <ele>226</ele>
        <time>2023-04-05T12:19:58Z</time>
      </trkpt>
      <trkpt lat="48.1549" lon="-3.65374">
        <ele>226.3</ele>
        <time>2023-04-05T12:19:59Z</time>
      </trkpt>
      <trkpt lat="48.15487" lon="-3.65374">
        <ele>226.5</ele>
        <time>2023-04-05T12:20:01Z</time>
      </trkpt>
      <trkpt lat="48.15486" lon="-3.65374">
        <ele>226.6</ele>
        <time>2023-04-05T12:20:02Z</time>
      </trkpt>
      <trkpt lat="48.15483" lon="-3.65376">
        <ele>226.8</ele>
        <time>2023-04-05T12:20:03Z</time>
      </trkpt>
      <trkpt lat="48.15482" lon="-3.65376">
        <ele>226.9</ele>
        <time>2023-04-05T12:20:05Z</time>
      </trkpt>
      <trkpt lat="48.1548" lon="-3.65377">
        <ele>227.1</ele>
        <time>2023-04-05T12:20:06Z</time>
      </trkpt>
      <trkpt lat="48.15477" lon="-3.65375">
        <ele>227.3</ele>
        <time>2023-04-05T12:20:07Z</time>
      </trkpt>
      <trkpt lat="48.15474" lon="-3.65375">
        <ele>227.5</ele>
        <time>2023-04-05T12:20:09Z</time>
      </trkpt>
      <trkpt lat="48.15473" lon="-3.65374">
        <ele>227.6</ele>
        <time>2023-04-05T12:20:10Z</time>
      </trkpt>
      <trkpt lat="48.1547" lon="-3.65374">
        <ele>227.8</ele>
        <time>2023-04-05T12:20:11Z</time>
      </trkpt>
      <trkpt lat="48.15469" lon="-3.65373">
        <ele>227.9</ele>
        <time>2023-04-05T12:20:12Z</time>
      </trkpt>
      <trkpt lat="48.15466" lon="-3.65372">
        <ele>228.1</ele>
        <time>2023-04-05T12:20:13Z</time>
      </trkpt>
      <trkpt lat="48.15465" lon="-3.65372">
        <ele>228.2</ele>
        <time>2023-04-05T12:20:14Z</time>
      </trkpt>
      <trkpt lat="48.15462" lon="-3.65371">
        <ele>228.4</ele>
        <time>2023-04-05T12:20:15Z</time>
      </trkpt>
      <trkpt lat="48.1546" lon="-3.65371">
        <ele>228.6</ele>
        <time>2023-04-05T12:20:16Z</time>
      </trkpt>
      <trkpt lat="48.15457" lon="-3.6537">
        <ele>228.7</ele>
        <time>2023-04-05T12:20:18Z</time>
      </trkpt>
      <trkpt lat="48.15456" lon="-3.6537">
        <ele>228.8</ele>
        <time>2023-04-05T12:20:19Z</time>
      </trkpt>
      <trkpt lat="48.15454" lon="-3.65369">
        <ele>228.9</ele>
        <time>2023-04-05T12:20:20Z</time>
      </trkpt>
      <trkpt lat="48.15453" lon="-3.6537">
        <ele>229</ele>
        <time>2023-04-05T12:20:21Z</time>
      </trkpt>
      <trkpt lat="48.15451" lon="-3.65369">
        <ele>229.1</ele>
        <time>2023-04-05T12:20:22Z</time>
      </trkpt>
      <trkpt lat="48.15449" lon="-3.65369">
        <ele>229.2</ele>
        <time>2023-04-05T12:20:23Z</time>
      </trkpt>
      <trkpt lat="48.15448" lon="-3.65369">
        <ele>229.3</ele>
        <time>2023-04-05T12:20:24Z</time>
      </trkpt>
      <trkpt lat="48.15446" lon="-3.65369">
        <ele>229.3</ele>
        <time>2023-04-05T12:20:25Z</time>
      </trkpt>
      <trkpt lat="48.15444" lon="-3.65369">
        <ele>229.4</ele>
        <time>2023-04-05T12:20:26Z</time>
      </trkpt>
      <trkpt lat="48.15441" lon="-3.65369">
        <ele>229.6</ele>
        <time>2023-04-05T12:20:27Z</time>
      </trkpt>
      <trkpt lat="48.1544" lon="-3.65369">
        <ele>229.6</ele>
        <time>2023-04-05T12:20:28Z</time>
      </trkpt>
      <trkpt lat="48.15439" lon="-3.6537">
        <ele>229.7</ele>
        <time>2023-04-05T12:20:29Z</time>
      </trkpt>
      <trkpt lat="48.15437" lon="-3.65369">
        <ele>229.8</ele>
        <time>2023-04-05T12:20:30Z</time>
      </trkpt>
      <trkpt lat="48.15434" lon="-3.65369">
        <ele>229.9</ele>
        <time>2023-04-05T12:20:31Z</time>
      </trkpt>
      <trkpt lat="48.15433" lon="-3.65369">
        <ele>230</ele>
        <time>2023-04-05T12:20:32Z</time>
      </trkpt>
      <trkpt lat="48.15429" lon="-3.65368">
        <ele>230.1</ele>
        <time>2023-04-05T12:20:33Z</time>
      </trkpt>
      <trkpt lat="48.15428" lon="-3.65368">
        <ele>230.2</ele>
        <time>2023-04-05T12:20:34Z</time>
      </trkpt>
      <trkpt lat="48.15425" lon="-3.65368">
        <ele>230.3</ele>
        <time>2023-04-05T12:20:35Z</time>
      </trkpt>
      <trkpt lat="48.15423" lon="-3.65368">
        <ele>230.3</ele>
        <time>2023-04-05T12:20:36Z</time>
      </trkpt>
      <trkpt lat="48.1542" lon="-3.65369">
        <ele>230.4</ele>
        <time>2023-04-05T12:20:37Z</time>
      </trkpt>
      <trkpt lat="48.15419" lon="-3.65369">
        <ele>230.5</ele>
        <time>2023-04-05T12:20:38Z</time>
      </trkpt>
      <trkpt lat="48.15416" lon="-3.65369">
        <ele>230.6</ele>
        <time>2023-04-05T12:20:39Z</time>
      </trkpt>
      <trkpt lat="48.15413" lon="-3.65368">
        <ele>230.6</ele>
        <time>2023-04-05T12:20:40Z</time>
      </trkpt>
      <trkpt lat="48.15412" lon="-3.65368">
        <ele>230.7</ele>
        <time>2023-04-05T12:20:41Z</time>
      </trkpt>
      <trkpt lat="48.15409" lon="-3.65367">
        <ele>230.8</ele>
        <time>2023-04-05T12:20:42Z</time>
      </trkpt>
      <trkpt lat="48.15408" lon="-3.65367">
        <ele>230.8</ele>
        <time>2023-04-05T12:20:43Z</time>
      </trkpt>
      <trkpt lat="48.15405" lon="-3.65366">
        <ele>230.9</ele>
        <time>2023-04-05T12:20:44Z</time>
      </trkpt>
      <trkpt lat="48.15404" lon="-3.65366">
        <ele>230.9</ele>
        <time>2023-04-05T12:20:45Z</time>
      </trkpt>
      <trkpt lat="48.15402" lon="-3.65365">
        <ele>230.9</ele>
        <time>2023-04-05T12:20:46Z</time>
      </trkpt>
      <trkpt lat="48.15401" lon="-3.65364">
        <ele>230.9</ele>
        <time>2023-04-05T12:20:47Z</time>
      </trkpt>
      <trkpt lat="48.15399" lon="-3.65362">
        <ele>230.9</ele>
        <time>2023-04-05T12:20:48Z</time>
      </trkpt>
      <trkpt lat="48.15398" lon="-3.6536">
        <ele>230.9</ele>
        <time>2023-04-05T12:20:49Z</time>
      </trkpt>
      <trkpt lat="48.15398" lon="-3.65358">
        <ele>231</ele>
        <time>2023-04-05T12:20:50Z</time>
      </trkpt>
      <trkpt lat="48.15397" lon="-3.65357">
        <ele>231</ele>
        <time>2023-04-05T12:20:51Z</time>
      </trkpt>
      <trkpt lat="48.15398" lon="-3.65358">
        <ele>231</ele>
        <time>2023-04-05T12:20:52Z</time>
      </trkpt>
      <trkpt lat="48.15398" lon="-3.65358">
        <ele>231</ele>
        <time>2023-04-05T12:20:53Z</time>
      </trkpt>
      <trkpt lat="48.15398" lon="-3.65358">
        <ele>231</ele>
        <time>2023-04-05T12:20:54Z</time>
      </trkpt>
      <trkpt lat="48.15397" lon="-3.65358">
        <ele>231</ele>
        <time>2023-04-05T12:20:55Z</time>
      </trkpt>
      <trkpt lat="48.15397" lon="-3.65358">
        <ele>231</ele>
        <time>2023-04-05T12:20:56Z</time>
      </trkpt>
      <trkpt lat="48.15396" lon="-3.65358">
        <ele>231</ele>
        <time>2023-04-05T12:20:57Z</time>
      </trkpt>
      <trkpt lat="48.15395" lon="-3.65358">
        <ele>231</ele>
        <time>2023-04-05T12:20:58Z</time>
      </trkpt>
      <trkpt lat="48.15394" lon="-3.65358">
        <ele>231</ele>
        <time>2023-04-05T12:20:59Z</time>
      </trkpt>
      <trkpt lat="48.15392" lon="-3.65357">
        <ele>231</ele>
        <time>2023-04-05T12:21:00Z</time>
      </trkpt>
      <trkpt lat="48.15391" lon="-3.65356">
        <ele>231</ele>
        <time>2023-04-05T12:21:02Z</time>
      </trkpt>
      <trkpt lat="48.1539" lon="-3.65355">
        <ele>231</ele>
        <time>2023-04-05T12:21:03Z</time>
      </trkpt>
      <trkpt lat="48.1539" lon="-3.65355">
        <ele>231</ele>
        <time>2023-04-05T12:21:04Z</time>
      </trkpt>
      <trkpt lat="48.15389" lon="-3.65354">
        <ele>230.9</ele>
        <time>2023-04-05T12:21:05Z</time>
      </trkpt>
      <trkpt lat="48.15388" lon="-3.65354">
        <ele>230.9</ele>
        <time>2023-04-05T12:21:06Z</time>
      </trkpt>
      <trkpt lat="48.15388" lon="-3.65353">
        <ele>230.9</ele>
        <time>2023-04-05T12:21:08Z</time>
      </trkpt>
      <trkpt lat="48.15388" lon="-3.65353">
        <ele>230.8</ele>
        <time>2023-04-05T12:21:09Z</time>
      </trkpt>
      <trkpt lat="48.15387" lon="-3.65353">
        <ele>230.8</ele>
        <time>2023-04-05T12:21:10Z</time>
      </trkpt>
      <trkpt lat="48.15387" lon="-3.65353">
        <ele>230.8</ele>
        <time>2023-04-05T12:21:11Z</time>
      </trkpt>
      <trkpt lat="48.15386" lon="-3.65353">
        <ele>230.8</ele>
        <time>2023-04-05T12:21:12Z</time>
      </trkpt>
      <trkpt lat="48.15386" lon="-3.65354">
        <ele>230.8</ele>
        <time>2023-04-05T12:21:13Z</time>
      </trkpt>
      <trkpt lat="48.15386" lon="-3.65354">
        <ele>230.7</ele>
        <time>2023-04-05T12:21:14Z</time>
      </trkpt>
      <trkpt lat="48.15386" lon="-3.65354">
        <ele>230.7</ele>
        <time>2023-04-05T12:21:15Z</time>
      </trkpt>
      <trkpt lat="48.15385" lon="-3.65355">
        <ele>230.7</ele>
        <time>2023-04-05T12:21:16Z</time>
      </trkpt>
      <trkpt lat="48.15385" lon="-3.65355">
        <ele>230.7</ele>
        <time>2023-04-05T12:21:17Z</time>
      </trkpt>
      <trkpt lat="48.15385" lon="-3.65355">
        <ele>230.7</ele>
        <time>2023-04-05T12:21:18Z</time>
      </trkpt>
      <trkpt lat="48.15385" lon="-3.65356">
        <ele>230.7</ele>
        <time>2023-04-05T12:21:19Z</time>
      </trkpt>
      <trkpt lat="48.15384" lon="-3.65357">
        <ele>230.6</ele>
        <time>2023-04-05T12:21:20Z</time>
      </trkpt>
      <trkpt lat="48.15384" lon="-3.65357">
        <ele>230.6</ele>
        <time>2023-04-05T12:21:21Z</time>
      </trkpt>
      <trkpt lat="48.15384" lon="-3.65358">
        <ele>230.6</ele>
        <time>2023-04-05T12:21:22Z</time>
      </trkpt>
      <trkpt lat="48.15384" lon="-3.65358">
        <ele>230.6</ele>
        <time>2023-04-05T12:21:23Z</time>
      </trkpt>
      <trkpt lat="48.15384" lon="-3.65358">
        <ele>230.6</ele>
        <time>2023-04-05T12:21:24Z</time>
      </trkpt>
      <trkpt lat="48.15384" lon="-3.65358">
        <ele>230.6</ele>
        <time>2023-04-05T12:21:25Z</time>
      </trkpt>
      <trkpt lat="48.15384" lon="-3.65359">
        <ele>230.6</ele>
        <time>2023-04-05T12:21:26Z</time>
      </trkpt>
      <trkpt lat="48.15384" lon="-3.65359">
        <ele>230.5</ele>
        <time>2023-04-05T12:21:27Z</time>
      </trkpt>
      <trkpt lat="48.15384" lon="-3.65359">
        <ele>230.5</ele>
        <time>2023-04-05T12:21:28Z</time>
      </trkpt>
      <trkpt lat="48.15384" lon="-3.65359">
        <ele>230.5</ele>
        <time>2023-04-05T12:21:30Z</time>
      </trkpt>
      <trkpt lat="48.15384" lon="-3.65359">
        <ele>230.5</ele>
        <time>2023-04-05T12:21:31Z</time>
      </trkpt>
      <trkpt lat="48.15384" lon="-3.65358">
        <ele>230.5</ele>
        <time>2023-04-05T12:21:32Z</time>
      </trkpt>
      <trkpt lat="48.15384" lon="-3.65357">
        <ele>230.5</ele>
        <time>2023-04-05T12:21:33Z</time>
      </trkpt>
      <trkpt lat="48.15384" lon="-3.65356">
        <ele>230.4</ele>
        <time>2023-04-05T12:21:34Z</time>
      </trkpt>
      <trkpt lat="48.15383" lon="-3.65355">
        <ele>230.4</ele>
        <time>2023-04-05T12:21:35Z</time>
      </trkpt>
      <trkpt lat="48.15383" lon="-3.65354">
        <ele>230.4</ele>
        <time>2023-04-05T12:21:36Z</time>
      </trkpt>
      <trkpt lat="48.15383" lon="-3.65354">
        <ele>230.3</ele>
        <time>2023-04-05T12:21:37Z</time>
      </trkpt>
      <trkpt lat="48.15382" lon="-3.65354">
        <ele>230.3</ele>
        <time>2023-04-05T12:21:39Z</time>
      </trkpt>
      <trkpt lat="48.15382" lon="-3.65353">
        <ele>230.3</ele>
        <time>2023-04-05T12:21:40Z</time>
      </trkpt>
      <trkpt lat="48.15382" lon="-3.65353">
        <ele>230.3</ele>
        <time>2023-04-05T12:21:41Z</time>
      </trkpt>
      <trkpt lat="48.15383" lon="-3.65352">
        <ele>230.2</ele>
        <time>2023-04-05T12:21:42Z</time>
      </trkpt>
      <trkpt lat="48.15384" lon="-3.65349">
        <ele>230.1</ele>
        <time>2023-04-05T12:21:44Z</time>
      </trkpt>
      <trkpt lat="48.15383" lon="-3.65347">
        <ele>230</ele>
        <time>2023-04-05T12:21:45Z</time>
      </trkpt>
      <trkpt lat="48.15382" lon="-3.65346">
        <ele>230</ele>
        <time>2023-04-05T12:21:47Z</time>
      </trkpt>
      <trkpt lat="48.15381" lon="-3.65346">
        <ele>230</ele>
        <time>2023-04-05T12:21:48Z</time>
      </trkpt>
      <trkpt lat="48.15381" lon="-3.65346">
        <ele>229.9</ele>
        <time>2023-04-05T12:21:49Z</time>
      </trkpt>
      <trkpt lat="48.1538" lon="-3.65346">
        <ele>229.9</ele>
        <time>2023-04-05T12:21:50Z</time>
      </trkpt>
      <trkpt lat="48.1538" lon="-3.65347">
        <ele>229.9</ele>
        <time>2023-04-05T12:21:51Z</time>
      </trkpt>
      <trkpt lat="48.1538" lon="-3.65347">
        <ele>229.9</ele>
        <time>2023-04-05T12:21:52Z</time>
      </trkpt>
      <trkpt lat="48.1538" lon="-3.65347">
        <ele>229.9</ele>
        <time>2023-04-05T12:21:53Z</time>
      </trkpt>
      <trkpt lat="48.1538" lon="-3.65347">
        <ele>229.9</ele>
        <time>2023-04-05T12:21:54Z</time>
      </trkpt>
      <trkpt lat="48.1538" lon="-3.65347">
        <ele>229.9</ele>
        <time>2023-04-05T12:21:55Z</time>
      </trkpt>
      <trkpt lat="48.1538" lon="-3.65347">
        <ele>229.9</ele>
        <time>2023-04-05T12:21:56Z</time>
      </trkpt>
      <trkpt lat="48.1538" lon="-3.65346">
        <ele>229.9</ele>
        <time>2023-04-05T12:21:57Z</time>
      </trkpt>
      <trkpt lat="48.1538" lon="-3.65346">
        <ele>229.9</ele>
        <time>2023-04-05T12:21:58Z</time>
      </trkpt>
      <trkpt lat="48.15383" lon="-3.65351">
        <ele>229.6</ele>
        <time>2023-04-05T12:22:24Z</time>
      </trkpt>
      <trkpt lat="48.15383" lon="-3.65352">
        <ele>229.6</ele>
        <time>2023-04-05T12:22:25Z</time>
      </trkpt>
      <trkpt lat="48.15383" lon="-3.6535">
        <ele>229.6</ele>
        <time>2023-04-05T12:22:27Z</time>
      </trkpt>
      <trkpt lat="48.15382" lon="-3.65351">
        <ele>229.5</ele>
        <time>2023-04-05T12:22:28Z</time>
      </trkpt>
      <trkpt lat="48.15382" lon="-3.65353">
        <ele>229.4</ele>
        <time>2023-04-05T12:22:29Z</time>
      </trkpt>
      <trkpt lat="48.15382" lon="-3.65354">
        <ele>229.4</ele>
        <time>2023-04-05T12:22:30Z</time>
      </trkpt>
      <trkpt lat="48.15381" lon="-3.65356">
        <ele>229.4</ele>
        <time>2023-04-05T12:22:31Z</time>
      </trkpt>
      <trkpt lat="48.15381" lon="-3.65357">
        <ele>229.3</ele>
        <time>2023-04-05T12:22:32Z</time>
      </trkpt>
      <trkpt lat="48.15382" lon="-3.65358">
        <ele>229.3</ele>
        <time>2023-04-05T12:22:33Z</time>
      </trkpt>
      <trkpt lat="48.15382" lon="-3.65359">
        <ele>229.2</ele>
        <time>2023-04-05T12:22:34Z</time>
      </trkpt>
      <trkpt lat="48.15382" lon="-3.65359">
        <ele>229.2</ele>
        <time>2023-04-05T12:22:35Z</time>
      </trkpt>
      <trkpt lat="48.15382" lon="-3.65359">
        <ele>229.2</ele>
        <time>2023-04-05T12:22:36Z</time>
      </trkpt>
      <trkpt lat="48.15382" lon="-3.65359">
        <ele>229.2</ele>
        <time>2023-04-05T12:22:37Z</time>
      </trkpt>
      <trkpt lat="48.15382" lon="-3.65359">
        <ele>229.2</ele>
        <time>2023-04-05T12:22:38Z</time>
      </trkpt>
      <trkpt lat="48.15382" lon="-3.65359">
        <ele>229.2</ele>
        <time>2023-04-05T12:22:39Z</time>
      </trkpt>
      <trkpt lat="48.15382" lon="-3.65359">
        <ele>229.2</ele>
        <time>2023-04-05T12:22:40Z</time>
      </trkpt>
      <trkpt lat="48.15382" lon="-3.65359">
        <ele>229.2</ele>
        <time>2023-04-05T12:22:41Z</time>
      </trkpt>
      <trkpt lat="48.15382" lon="-3.65359">
        <ele>229.2</ele>
        <time>2023-04-05T12:22:42Z</time>
      </trkpt>
      <trkpt lat="48.15382" lon="-3.65359">
        <ele>229.2</ele>
        <time>2023-04-05T12:22:43Z</time>
      </trkpt>
      <trkpt lat="48.15382" lon="-3.65359">
        <ele>229.2</ele>
        <time>2023-04-05T12:22:44Z</time>
      </trkpt>
      <trkpt lat="48.15382" lon="-3.6536">
        <ele>229.2</ele>
        <time>2023-04-05T12:22:45Z</time>
      </trkpt>
      <trkpt lat="48.15382" lon="-3.6536">
        <ele>229.2</ele>
        <time>2023-04-05T12:22:46Z</time>
      </trkpt>
      <trkpt lat="48.1538" lon="-3.65355">
        <ele>228.9</ele>
        <time>2023-04-05T12:23:06Z</time>
      </trkpt>
      <trkpt lat="48.1538" lon="-3.65354">
        <ele>228.9</ele>
        <time>2023-04-05T12:23:07Z</time>
      </trkpt>
      <trkpt lat="48.15381" lon="-3.65353">
        <ele>228.9</ele>
        <time>2023-04-05T12:23:09Z</time>
      </trkpt>
      <trkpt lat="48.15381" lon="-3.65351">
        <ele>228.8</ele>
        <time>2023-04-05T12:23:10Z</time>
      </trkpt>
      <trkpt lat="48.15382" lon="-3.65349">
        <ele>228.7</ele>
        <time>2023-04-05T12:23:11Z</time>
      </trkpt>
      <trkpt lat="48.15383" lon="-3.65348">
        <ele>228.6</ele>
        <time>2023-04-05T12:23:13Z</time>
      </trkpt>
      <trkpt lat="48.15383" lon="-3.65347">
        <ele>228.5</ele>
        <time>2023-04-05T12:23:14Z</time>
      </trkpt>
      <trkpt lat="48.15384" lon="-3.65346">
        <ele>228.5</ele>
        <time>2023-04-05T12:23:15Z</time>
      </trkpt>
      <trkpt lat="48.15384" lon="-3.65345">
        <ele>228.5</ele>
        <time>2023-04-05T12:23:17Z</time>
      </trkpt>
      <trkpt lat="48.15384" lon="-3.65345">
        <ele>228.4</ele>
        <time>2023-04-05T12:23:18Z</time>
      </trkpt>
      <trkpt lat="48.15384" lon="-3.65344">
        <ele>228.4</ele>
        <time>2023-04-05T12:23:19Z</time>
      </trkpt>
      <trkpt lat="48.15384" lon="-3.65344">
        <ele>228.4</ele>
        <time>2023-04-05T12:23:20Z</time>
      </trkpt>
      <trkpt lat="48.15384" lon="-3.65344">
        <ele>228.4</ele>
        <time>2023-04-05T12:23:22Z</time>
      </trkpt>
      <trkpt lat="48.15384" lon="-3.65344">
        <ele>228.4</ele>
        <time>2023-04-05T12:23:23Z</time>
      </trkpt>
      <trkpt lat="48.15385" lon="-3.65341">
        <ele>228.2</ele>
        <time>2023-04-05T12:23:25Z</time>
      </trkpt>
      <trkpt lat="48.15388" lon="-3.65338">
        <ele>228</ele>
        <time>2023-04-05T12:23:26Z</time>
      </trkpt>
      <trkpt lat="48.15392" lon="-3.65338">
        <ele>227.8</ele>
        <time>2023-04-05T12:23:28Z</time>
      </trkpt>
      <trkpt lat="48.15394" lon="-3.65334">
        <ele>227.5</ele>
        <time>2023-04-05T12:23:29Z</time>
      </trkpt>
      <trkpt lat="48.15394" lon="-3.65331">
        <ele>227.4</ele>
        <time>2023-04-05T12:23:31Z</time>
      </trkpt>
      <trkpt lat="48.15392" lon="-3.65328">
        <ele>227.2</ele>
        <time>2023-04-05T12:23:32Z</time>
      </trkpt>
      <trkpt lat="48.15392" lon="-3.65326">
        <ele>227.1</ele>
        <time>2023-04-05T12:23:33Z</time>
      </trkpt>
      <trkpt lat="48.15392" lon="-3.65325">
        <ele>227.1</ele>
        <time>2023-04-05T12:23:35Z</time>
      </trkpt>
      <trkpt lat="48.15392" lon="-3.65324">
        <ele>227</ele>
        <time>2023-04-05T12:23:36Z</time>
      </trkpt>
      <trkpt lat="48.15392" lon="-3.65323">
        <ele>226.9</ele>
        <time>2023-04-05T12:23:37Z</time>
      </trkpt>
      <trkpt lat="48.15392" lon="-3.65323">
        <ele>226.9</ele>
        <time>2023-04-05T12:23:38Z</time>
      </trkpt>
      <trkpt lat="48.15392" lon="-3.65324">
        <ele>226.9</ele>
        <time>2023-04-05T12:23:39Z</time>
      </trkpt>
      <trkpt lat="48.15392" lon="-3.65324">
        <ele>226.9</ele>
        <time>2023-04-05T12:23:40Z</time>
      </trkpt>
      <trkpt lat="48.15392" lon="-3.65324">
        <ele>226.9</ele>
        <time>2023-04-05T12:23:41Z</time>
      </trkpt>
      <trkpt lat="48.15392" lon="-3.65324">
        <ele>226.9</ele>
        <time>2023-04-05T12:23:42Z</time>
      </trkpt>
      <trkpt lat="48.15392" lon="-3.65324">
        <ele>226.8</ele>
        <time>2023-04-05T12:23:43Z</time>
      </trkpt>
      <trkpt lat="48.15392" lon="-3.65324">
        <ele>226.8</ele>
        <time>2023-04-05T12:23:44Z</time>
      </trkpt>
      <trkpt lat="48.15392" lon="-3.65324">
        <ele>226.8</ele>
        <time>2023-04-05T12:23:45Z</time>
      </trkpt>
      <trkpt lat="48.15392" lon="-3.65324">
        <ele>226.8</ele>
        <time>2023-04-05T12:23:46Z</time>
      </trkpt>
      <trkpt lat="48.15391" lon="-3.65319">
        <ele>226.6</ele>
        <time>2023-04-05T12:23:50Z</time>
      </trkpt>
      <trkpt lat="48.15391" lon="-3.65317">
        <ele>226.5</ele>
        <time>2023-04-05T12:23:51Z</time>
      </trkpt>
      <trkpt lat="48.15391" lon="-3.65315">
        <ele>226.4</ele>
        <time>2023-04-05T12:23:52Z</time>
      </trkpt>
      <trkpt lat="48.15391" lon="-3.65313">
        <ele>226.3</ele>
        <time>2023-04-05T12:23:53Z</time>
      </trkpt>
      <trkpt lat="48.15392" lon="-3.65311">
        <ele>226.2</ele>
        <time>2023-04-05T12:23:54Z</time>
      </trkpt>
      <trkpt lat="48.15392" lon="-3.65308">
        <ele>225.9</ele>
        <time>2023-04-05T12:23:55Z</time>
      </trkpt>
      <trkpt lat="48.15392" lon="-3.65307">
        <ele>225.8</ele>
        <time>2023-04-05T12:23:56Z</time>
      </trkpt>
      <trkpt lat="48.15392" lon="-3.65305">
        <ele>225.7</ele>
        <time>2023-04-05T12:23:57Z</time>
      </trkpt>
      <trkpt lat="48.15391" lon="-3.653">
        <ele>225.3</ele>
        <time>2023-04-05T12:23:58Z</time>
      </trkpt>
      <trkpt lat="48.1539" lon="-3.65298">
        <ele>225.1</ele>
        <time>2023-04-05T12:23:59Z</time>
      </trkpt>
      <trkpt lat="48.15389" lon="-3.65294">
        <ele>224.7</ele>
        <time>2023-04-05T12:24:00Z</time>
      </trkpt>
      <trkpt lat="48.15389" lon="-3.65292">
        <ele>224.6</ele>
        <time>2023-04-05T12:24:01Z</time>
      </trkpt>
      <trkpt lat="48.15387" lon="-3.65288">
        <ele>224.2</ele>
        <time>2023-04-05T12:24:02Z</time>
      </trkpt>
      <trkpt lat="48.15386" lon="-3.65286">
        <ele>224</ele>
        <time>2023-04-05T12:24:03Z</time>
      </trkpt>
      <trkpt lat="48.15386" lon="-3.65284">
        <ele>223.8</ele>
        <time>2023-04-05T12:24:04Z</time>
      </trkpt>
      <trkpt lat="48.15385" lon="-3.65281">
        <ele>223.4</ele>
        <time>2023-04-05T12:24:05Z</time>
      </trkpt>
      <trkpt lat="48.15384" lon="-3.65279">
        <ele>223.2</ele>
        <time>2023-04-05T12:24:06Z</time>
      </trkpt>
      <trkpt lat="48.15384" lon="-3.65278">
        <ele>223.1</ele>
        <time>2023-04-05T12:24:07Z</time>
      </trkpt>
      <trkpt lat="48.15382" lon="-3.65275">
        <ele>222.7</ele>
        <time>2023-04-05T12:24:08Z</time>
      </trkpt>
      <trkpt lat="48.1538" lon="-3.65272">
        <ele>222.3</ele>
        <time>2023-04-05T12:24:09Z</time>
      </trkpt>
      <trkpt lat="48.15379" lon="-3.65272">
        <ele>222.1</ele>
        <time>2023-04-05T12:24:10Z</time>
      </trkpt>
      <trkpt lat="48.15377" lon="-3.6527">
        <ele>221.9</ele>
        <time>2023-04-05T12:24:11Z</time>
      </trkpt>
      <trkpt lat="48.15377" lon="-3.65269">
        <ele>221.8</ele>
        <time>2023-04-05T12:24:12Z</time>
      </trkpt>
      <trkpt lat="48.15376" lon="-3.65269">
        <ele>221.7</ele>
        <time>2023-04-05T12:24:13Z</time>
      </trkpt>
      <trkpt lat="48.15376" lon="-3.65268">
        <ele>221.6</ele>
        <time>2023-04-05T12:24:14Z</time>
      </trkpt>
      <trkpt lat="48.15374" lon="-3.65265">
        <ele>221.2</ele>
        <time>2023-04-05T12:24:15Z</time>
      </trkpt>
      <trkpt lat="48.15371" lon="-3.65259">
        <ele>220.6</ele>
        <time>2023-04-05T12:24:16Z</time>
      </trkpt>
      <trkpt lat="48.1537" lon="-3.65257">
        <ele>220.4</ele>
        <time>2023-04-05T12:24:17Z</time>
      </trkpt>
      <trkpt lat="48.15367" lon="-3.65253">
        <ele>219.9</ele>
        <time>2023-04-05T12:24:19Z</time>
      </trkpt>
      <trkpt lat="48.15366" lon="-3.65249">
        <ele>219.5</ele>
        <time>2023-04-05T12:24:20Z</time>
      </trkpt>
      <trkpt lat="48.15364" lon="-3.65245">
        <ele>219</ele>
        <time>2023-04-05T12:24:21Z</time>
      </trkpt>
      <trkpt lat="48.15361" lon="-3.65239">
        <ele>218.4</ele>
        <time>2023-04-05T12:24:22Z</time>
      </trkpt>
      <trkpt lat="48.1536" lon="-3.65235">
        <ele>218</ele>
        <time>2023-04-05T12:24:23Z</time>
      </trkpt>
      <trkpt lat="48.15359" lon="-3.6523">
        <ele>217.5</ele>
        <time>2023-04-05T12:24:24Z</time>
      </trkpt>
      <trkpt lat="48.15359" lon="-3.65228">
        <ele>217.3</ele>
        <time>2023-04-05T12:24:25Z</time>
      </trkpt>
      <trkpt lat="48.15358" lon="-3.65223">
        <ele>216.8</ele>
        <time>2023-04-05T12:24:26Z</time>
      </trkpt>
      <trkpt lat="48.15357" lon="-3.65222">
        <ele>216.6</ele>
        <time>2023-04-05T12:24:27Z</time>
      </trkpt>
      <trkpt lat="48.15353" lon="-3.65216">
        <ele>215.8</ele>
        <time>2023-04-05T12:24:29Z</time>
      </trkpt>
      <trkpt lat="48.15352" lon="-3.65214">
        <ele>215.5</ele>
        <time>2023-04-05T12:24:30Z</time>
      </trkpt>
      <trkpt lat="48.15351" lon="-3.65211">
        <ele>215.2</ele>
        <time>2023-04-05T12:24:31Z</time>
      </trkpt>
      <trkpt lat="48.15348" lon="-3.65206">
        <ele>214.5</ele>
        <time>2023-04-05T12:24:33Z</time>
      </trkpt>
      <trkpt lat="48.15347" lon="-3.65203">
        <ele>214.1</ele>
        <time>2023-04-05T12:24:34Z</time>
      </trkpt>
      <trkpt lat="48.15346" lon="-3.652">
        <ele>213.8</ele>
        <time>2023-04-05T12:24:35Z</time>
      </trkpt>
      <trkpt lat="48.15345" lon="-3.65197">
        <ele>213.3</ele>
        <time>2023-04-05T12:24:37Z</time>
      </trkpt>
      <trkpt lat="48.15343" lon="-3.65191">
        <ele>212.7</ele>
        <time>2023-04-05T12:24:38Z</time>
      </trkpt>
      <trkpt lat="48.15343" lon="-3.65189">
        <ele>212.5</ele>
        <time>2023-04-05T12:24:39Z</time>
      </trkpt>
      <trkpt lat="48.15342" lon="-3.65184">
        <ele>211.9</ele>
        <time>2023-04-05T12:24:40Z</time>
      </trkpt>
      <trkpt lat="48.15341" lon="-3.65182">
        <ele>211.7</ele>
        <time>2023-04-05T12:24:41Z</time>
      </trkpt>
      <trkpt lat="48.1534" lon="-3.65178">
        <ele>211.3</ele>
        <time>2023-04-05T12:24:42Z</time>
      </trkpt>
      <trkpt lat="48.15339" lon="-3.65174">
        <ele>210.8</ele>
        <time>2023-04-05T12:24:43Z</time>
      </trkpt>
      <trkpt lat="48.15337" lon="-3.65167">
        <ele>210</ele>
        <time>2023-04-05T12:24:44Z</time>
      </trkpt>
      <trkpt lat="48.15337" lon="-3.65161">
        <ele>209.4</ele>
        <time>2023-04-05T12:24:46Z</time>
      </trkpt>
      <trkpt lat="48.15336" lon="-3.65153">
        <ele>208.6</ele>
        <time>2023-04-05T12:24:47Z</time>
      </trkpt>
      <trkpt lat="48.15335" lon="-3.65147">
        <ele>207.9</ele>
        <time>2023-04-05T12:24:48Z</time>
      </trkpt>
      <trkpt lat="48.15333" lon="-3.65142">
        <ele>207.4</ele>
        <time>2023-04-05T12:24:49Z</time>
      </trkpt>
      <trkpt lat="48.15332" lon="-3.65138">
        <ele>206.9</ele>
        <time>2023-04-05T12:24:50Z</time>
      </trkpt>
      <trkpt lat="48.15332" lon="-3.65133">
        <ele>206.4</ele>
        <time>2023-04-05T12:24:51Z</time>
      </trkpt>
      <trkpt lat="48.1533" lon="-3.65129">
        <ele>205.8</ele>
        <time>2023-04-05T12:24:52Z</time>
      </trkpt>
      <trkpt lat="48.15329" lon="-3.65124">
        <ele>205.3</ele>
        <time>2023-04-05T12:24:53Z</time>
      </trkpt>
      <trkpt lat="48.1533" lon="-3.65118">
        <ele>204.8</ele>
        <time>2023-04-05T12:24:54Z</time>
      </trkpt>
      <trkpt lat="48.1533" lon="-3.6511">
        <ele>204</ele>
        <time>2023-04-05T12:24:55Z</time>
      </trkpt>
      <trkpt lat="48.15328" lon="-3.65091">
        <ele>202.4</ele>
        <time>2023-04-05T12:24:57Z</time>
      </trkpt>
      <trkpt lat="48.15328" lon="-3.65082">
        <ele>201.6</ele>
        <time>2023-04-05T12:24:58Z</time>
      </trkpt>
      <trkpt lat="48.15327" lon="-3.65073">
        <ele>201.4</ele>
        <time>2023-04-05T12:24:59Z</time>
      </trkpt>
      <trkpt lat="48.15326" lon="-3.65064">
        <ele>201.2</ele>
        <time>2023-04-05T12:25:00Z</time>
      </trkpt>
      <trkpt lat="48.15324" lon="-3.65057">
        <ele>201.1</ele>
        <time>2023-04-05T12:25:01Z</time>
      </trkpt>
      <trkpt lat="48.15323" lon="-3.65052">
        <ele>201</ele>
        <time>2023-04-05T12:25:02Z</time>
      </trkpt>
      <trkpt lat="48.15324" lon="-3.65051">
        <ele>201</ele>
        <time>2023-04-05T12:25:03Z</time>
      </trkpt>
      <trkpt lat="48.15324" lon="-3.65048">
        <ele>201</ele>
        <time>2023-04-05T12:25:05Z</time>
      </trkpt>
      <trkpt lat="48.15324" lon="-3.65046">
        <ele>200.9</ele>
        <time>2023-04-05T12:25:06Z</time>
      </trkpt>
      <trkpt lat="48.15324" lon="-3.65044">
        <ele>200.9</ele>
        <time>2023-04-05T12:25:07Z</time>
      </trkpt>
      <trkpt lat="48.15324" lon="-3.65042">
        <ele>200.9</ele>
        <time>2023-04-05T12:25:08Z</time>
      </trkpt>
      <trkpt lat="48.15324" lon="-3.65041">
        <ele>200.9</ele>
        <time>2023-04-05T12:25:09Z</time>
      </trkpt>
      <trkpt lat="48.15325" lon="-3.65037">
        <ele>200.9</ele>
        <time>2023-04-05T12:25:10Z</time>
      </trkpt>
      <trkpt lat="48.15325" lon="-3.65035">
        <ele>200.9</ele>
        <time>2023-04-05T12:25:12Z</time>
      </trkpt>
      <trkpt lat="48.15325" lon="-3.65034">
        <ele>200.9</ele>
        <time>2023-04-05T12:25:13Z</time>
      </trkpt>
      <trkpt lat="48.15326" lon="-3.65031">
        <ele>200.9</ele>
        <time>2023-04-05T12:25:14Z</time>
      </trkpt>
      <trkpt lat="48.15327" lon="-3.6503">
        <ele>200.9</ele>
        <time>2023-04-05T12:25:15Z</time>
      </trkpt>
      <trkpt lat="48.15327" lon="-3.65029">
        <ele>200.9</ele>
        <time>2023-04-05T12:25:16Z</time>
      </trkpt>
      <trkpt lat="48.15328" lon="-3.65027">
        <ele>200.9</ele>
        <time>2023-04-05T12:25:17Z</time>
      </trkpt>
      <trkpt lat="48.15327" lon="-3.65025">
        <ele>200.9</ele>
        <time>2023-04-05T12:25:18Z</time>
      </trkpt>
      <trkpt lat="48.15327" lon="-3.65024">
        <ele>200.9</ele>
        <time>2023-04-05T12:25:20Z</time>
      </trkpt>
      <trkpt lat="48.15327" lon="-3.65023">
        <ele>200.9</ele>
        <time>2023-04-05T12:25:21Z</time>
      </trkpt>
      <trkpt lat="48.15326" lon="-3.6502">
        <ele>200.9</ele>
        <time>2023-04-05T12:25:22Z</time>
      </trkpt>
      <trkpt lat="48.15326" lon="-3.65018">
        <ele>200.9</ele>
        <time>2023-04-05T12:25:24Z</time>
      </trkpt>
      <trkpt lat="48.15327" lon="-3.65017">
        <ele>200.9</ele>
        <time>2023-04-05T12:25:25Z</time>
      </trkpt>
      <trkpt lat="48.15327" lon="-3.65015">
        <ele>200.9</ele>
        <time>2023-04-05T12:25:26Z</time>
      </trkpt>
      <trkpt lat="48.15327" lon="-3.65014">
        <ele>200.9</ele>
        <time>2023-04-05T12:25:27Z</time>
      </trkpt>
      <trkpt lat="48.15327" lon="-3.65012">
        <ele>200.9</ele>
        <time>2023-04-05T12:25:28Z</time>
      </trkpt>
      <trkpt lat="48.15327" lon="-3.65012">
        <ele>200.9</ele>
        <time>2023-04-05T12:25:29Z</time>
      </trkpt>
      <trkpt lat="48.15327" lon="-3.65012">
        <ele>200.9</ele>
        <time>2023-04-05T12:25:30Z</time>
      </trkpt>
      <trkpt lat="48.15327" lon="-3.65012">
        <ele>200.9</ele>
        <time>2023-04-05T12:25:31Z</time>
      </trkpt>
      <trkpt lat="48.15327" lon="-3.6501">
        <ele>200.9</ele>
        <time>2023-04-05T12:25:32Z</time>
      </trkpt>
      <trkpt lat="48.15327" lon="-3.65008">
        <ele>200.9</ele>
        <time>2023-04-05T12:25:33Z</time>
      </trkpt>
      <trkpt lat="48.15327" lon="-3.65006">
        <ele>200.9</ele>
        <time>2023-04-05T12:25:34Z</time>
      </trkpt>
      <trkpt lat="48.15326" lon="-3.65005">
        <ele>200.9</ele>
        <time>2023-04-05T12:25:35Z</time>
      </trkpt>
      <trkpt lat="48.15326" lon="-3.65005">
        <ele>200.9</ele>
        <time>2023-04-05T12:25:36Z</time>
      </trkpt>
      <trkpt lat="48.15325" lon="-3.65003">
        <ele>200.9</ele>
        <time>2023-04-05T12:25:37Z</time>
      </trkpt>
      <trkpt lat="48.15325" lon="-3.65001">
        <ele>200.8</ele>
        <time>2023-04-05T12:25:38Z</time>
      </trkpt>
      <trkpt lat="48.15325" lon="-3.65">
        <ele>200.8</ele>
        <time>2023-04-05T12:25:39Z</time>
      </trkpt>
      <trkpt lat="48.15325" lon="-3.64999">
        <ele>200.8</ele>
        <time>2023-04-05T12:25:40Z</time>
      </trkpt>
      <trkpt lat="48.15325" lon="-3.64997">
        <ele>200.8</ele>
        <time>2023-04-05T12:25:41Z</time>
      </trkpt>
      <trkpt lat="48.15325" lon="-3.64996">
        <ele>200.8</ele>
        <time>2023-04-05T12:25:42Z</time>
      </trkpt>
      <trkpt lat="48.15325" lon="-3.64995">
        <ele>200.8</ele>
        <time>2023-04-05T12:25:43Z</time>
      </trkpt>
      <trkpt lat="48.15325" lon="-3.64992">
        <ele>200.8</ele>
        <time>2023-04-05T12:25:44Z</time>
      </trkpt>
      <trkpt lat="48.15324" lon="-3.64988">
        <ele>200.8</ele>
        <time>2023-04-05T12:25:45Z</time>
      </trkpt>
      <trkpt lat="48.15324" lon="-3.64983">
        <ele>200.8</ele>
        <time>2023-04-05T12:25:46Z</time>
      </trkpt>
      <trkpt lat="48.15325" lon="-3.64982">
        <ele>200.8</ele>
        <time>2023-04-05T12:25:47Z</time>
      </trkpt>
      <trkpt lat="48.15327" lon="-3.64976">
        <ele>200.7</ele>
        <time>2023-04-05T12:25:48Z</time>
      </trkpt>
      <trkpt lat="48.15327" lon="-3.64975">
        <ele>200.7</ele>
        <time>2023-04-05T12:25:49Z</time>
      </trkpt>
      <trkpt lat="48.15329" lon="-3.6497">
        <ele>200.7</ele>
        <time>2023-04-05T12:25:50Z</time>
      </trkpt>
      <trkpt lat="48.1533" lon="-3.64965">
        <ele>200.6</ele>
        <time>2023-04-05T12:25:51Z</time>
      </trkpt>
      <trkpt lat="48.1533" lon="-3.64963">
        <ele>200.6</ele>
        <time>2023-04-05T12:25:52Z</time>
      </trkpt>
      <trkpt lat="48.1533" lon="-3.64957">
        <ele>200.6</ele>
        <time>2023-04-05T12:25:53Z</time>
      </trkpt>
      <trkpt lat="48.1533" lon="-3.64956">
        <ele>200.6</ele>
        <time>2023-04-05T12:25:54Z</time>
      </trkpt>
      <trkpt lat="48.1533" lon="-3.6495">
        <ele>200.5</ele>
        <time>2023-04-05T12:25:55Z</time>
      </trkpt>
      <trkpt lat="48.1533" lon="-3.64949">
        <ele>200.5</ele>
        <time>2023-04-05T12:25:56Z</time>
      </trkpt>
      <trkpt lat="48.15332" lon="-3.64945">
        <ele>200.4</ele>
        <time>2023-04-05T12:25:57Z</time>
      </trkpt>
      <trkpt lat="48.15332" lon="-3.6494">
        <ele>200.3</ele>
        <time>2023-04-05T12:25:58Z</time>
      </trkpt>
      <trkpt lat="48.15331" lon="-3.64935">
        <ele>200.2</ele>
        <time>2023-04-05T12:25:59Z</time>
      </trkpt>
      <trkpt lat="48.1533" lon="-3.64934">
        <ele>200.2</ele>
        <time>2023-04-05T12:26:00Z</time>
      </trkpt>
      <trkpt lat="48.15329" lon="-3.64931">
        <ele>200.1</ele>
        <time>2023-04-05T12:26:01Z</time>
      </trkpt>
      <trkpt lat="48.15328" lon="-3.64929">
        <ele>200</ele>
        <time>2023-04-05T12:26:02Z</time>
      </trkpt>
      <trkpt lat="48.15326" lon="-3.64926">
        <ele>199.9</ele>
        <time>2023-04-05T12:26:03Z</time>
      </trkpt>
      <trkpt lat="48.15324" lon="-3.64924">
        <ele>199.7</ele>
        <time>2023-04-05T12:26:04Z</time>
      </trkpt>
      <trkpt lat="48.15321" lon="-3.64923">
        <ele>199.6</ele>
        <time>2023-04-05T12:26:05Z</time>
      </trkpt>
      <trkpt lat="48.15318" lon="-3.64922">
        <ele>199.4</ele>
        <time>2023-04-05T12:26:06Z</time>
      </trkpt>
      <trkpt lat="48.15315" lon="-3.6492">
        <ele>199.2</ele>
        <time>2023-04-05T12:26:07Z</time>
      </trkpt>
      <trkpt lat="48.15312" lon="-3.64919">
        <ele>199</ele>
        <time>2023-04-05T12:26:08Z</time>
      </trkpt>
      <trkpt lat="48.15309" lon="-3.64918">
        <ele>198.7</ele>
        <time>2023-04-05T12:26:09Z</time>
      </trkpt>
      <trkpt lat="48.15305" lon="-3.64916">
        <ele>198.5</ele>
        <time>2023-04-05T12:26:10Z</time>
      </trkpt>
      <trkpt lat="48.15301" lon="-3.64914">
        <ele>198.1</ele>
        <time>2023-04-05T12:26:11Z</time>
      </trkpt>
      <trkpt lat="48.15298" lon="-3.64911">
        <ele>197.8</ele>
        <time>2023-04-05T12:26:12Z</time>
      </trkpt>
      <trkpt lat="48.15293" lon="-3.64904">
        <ele>197.2</ele>
        <time>2023-04-05T12:26:13Z</time>
      </trkpt>
      <trkpt lat="48.15289" lon="-3.64897">
        <ele>196.7</ele>
        <time>2023-04-05T12:26:14Z</time>
      </trkpt>
      <trkpt lat="48.15285" lon="-3.64893">
        <ele>196.2</ele>
        <time>2023-04-05T12:26:15Z</time>
      </trkpt>
      <trkpt lat="48.15281" lon="-3.64889">
        <ele>195.8</ele>
        <time>2023-04-05T12:26:16Z</time>
      </trkpt>
      <trkpt lat="48.15278" lon="-3.64885">
        <ele>195.6</ele>
        <time>2023-04-05T12:26:17Z</time>
      </trkpt>
      <trkpt lat="48.15277" lon="-3.64881">
        <ele>195.3</ele>
        <time>2023-04-05T12:26:18Z</time>
      </trkpt>
      <trkpt lat="48.15277" lon="-3.64876">
        <ele>195.1</ele>
        <time>2023-04-05T12:26:19Z</time>
      </trkpt>
      <trkpt lat="48.15276" lon="-3.64871">
        <ele>194.9</ele>
        <time>2023-04-05T12:26:20Z</time>
      </trkpt>
      <trkpt lat="48.15276" lon="-3.6487">
        <ele>194.8</ele>
        <time>2023-04-05T12:26:21Z</time>
      </trkpt>
      <trkpt lat="48.15275" lon="-3.64865">
        <ele>194.6</ele>
        <time>2023-04-05T12:26:22Z</time>
      </trkpt>
      <trkpt lat="48.15275" lon="-3.64862">
        <ele>194.5</ele>
        <time>2023-04-05T12:26:23Z</time>
      </trkpt>
      <trkpt lat="48.15274" lon="-3.64857">
        <ele>194.3</ele>
        <time>2023-04-05T12:26:24Z</time>
      </trkpt>
      <trkpt lat="48.15274" lon="-3.64854">
        <ele>194.2</ele>
        <time>2023-04-05T12:26:25Z</time>
      </trkpt>
      <trkpt lat="48.15273" lon="-3.6485">
        <ele>194.1</ele>
        <time>2023-04-05T12:26:26Z</time>
      </trkpt>
      <trkpt lat="48.15271" lon="-3.64843">
        <ele>193.8</ele>
        <time>2023-04-05T12:26:27Z</time>
      </trkpt>
      <trkpt lat="48.15269" lon="-3.64839">
        <ele>193.6</ele>
        <time>2023-04-05T12:26:29Z</time>
      </trkpt>
      <trkpt lat="48.15268" lon="-3.64834">
        <ele>193.3</ele>
        <time>2023-04-05T12:26:30Z</time>
      </trkpt>
      <trkpt lat="48.15266" lon="-3.64828">
        <ele>193</ele>
        <time>2023-04-05T12:26:31Z</time>
      </trkpt>
      <trkpt lat="48.15264" lon="-3.64822">
        <ele>192.6</ele>
        <time>2023-04-05T12:26:32Z</time>
      </trkpt>
      <trkpt lat="48.15262" lon="-3.64817">
        <ele>192.4</ele>
        <time>2023-04-05T12:26:33Z</time>
      </trkpt>
      <trkpt lat="48.15261" lon="-3.6481">
        <ele>192.1</ele>
        <time>2023-04-05T12:26:34Z</time>
      </trkpt>
      <trkpt lat="48.1526" lon="-3.64801">
        <ele>191.6</ele>
        <time>2023-04-05T12:26:35Z</time>
      </trkpt>
      <trkpt lat="48.15258" lon="-3.64792">
        <ele>191.2</ele>
        <time>2023-04-05T12:26:36Z</time>
      </trkpt>
      <trkpt lat="48.15256" lon="-3.64784">
        <ele>190.8</ele>
        <time>2023-04-05T12:26:37Z</time>
      </trkpt>
      <trkpt lat="48.15254" lon="-3.64776">
        <ele>190.4</ele>
        <time>2023-04-05T12:26:38Z</time>
      </trkpt>
      <trkpt lat="48.15253" lon="-3.64769">
        <ele>190.1</ele>
        <time>2023-04-05T12:26:39Z</time>
      </trkpt>
      <trkpt lat="48.1525" lon="-3.64762">
        <ele>189.7</ele>
        <time>2023-04-05T12:26:41Z</time>
      </trkpt>
      <trkpt lat="48.15248" lon="-3.64758">
        <ele>189.4</ele>
        <time>2023-04-05T12:26:42Z</time>
      </trkpt>
      <trkpt lat="48.15245" lon="-3.64749">
        <ele>189</ele>
        <time>2023-04-05T12:26:43Z</time>
      </trkpt>
      <trkpt lat="48.15244" lon="-3.64742">
        <ele>188.6</ele>
        <time>2023-04-05T12:26:44Z</time>
      </trkpt>
      <trkpt lat="48.15244" lon="-3.64738">
        <ele>188.4</ele>
        <time>2023-04-05T12:26:45Z</time>
      </trkpt>
      <trkpt lat="48.15242" lon="-3.64731">
        <ele>188</ele>
        <time>2023-04-05T12:26:46Z</time>
      </trkpt>
      <trkpt lat="48.1524" lon="-3.64724">
        <ele>187.6</ele>
        <time>2023-04-05T12:26:47Z</time>
      </trkpt>
      <trkpt lat="48.1524" lon="-3.64718">
        <ele>187.2</ele>
        <time>2023-04-05T12:26:49Z</time>
      </trkpt>
      <trkpt lat="48.15238" lon="-3.64705">
        <ele>186.6</ele>
        <time>2023-04-05T12:26:50Z</time>
      </trkpt>
      <trkpt lat="48.15236" lon="-3.64694">
        <ele>186.1</ele>
        <time>2023-04-05T12:26:52Z</time>
      </trkpt>
      <trkpt lat="48.15236" lon="-3.64687">
        <ele>185.8</ele>
        <time>2023-04-05T12:26:53Z</time>
      </trkpt>
      <trkpt lat="48.15236" lon="-3.64681">
        <ele>185.5</ele>
        <time>2023-04-05T12:26:54Z</time>
      </trkpt>
      <trkpt lat="48.15234" lon="-3.64673">
        <ele>185.2</ele>
        <time>2023-04-05T12:26:55Z</time>
      </trkpt>
      <trkpt lat="48.15233" lon="-3.64669">
        <ele>185</ele>
        <time>2023-04-05T12:26:56Z</time>
      </trkpt>
      <trkpt lat="48.15232" lon="-3.64662">
        <ele>184.7</ele>
        <time>2023-04-05T12:26:57Z</time>
      </trkpt>
      <trkpt lat="48.1523" lon="-3.64658">
        <ele>184.5</ele>
        <time>2023-04-05T12:26:58Z</time>
      </trkpt>
      <trkpt lat="48.1523" lon="-3.64652">
        <ele>184.2</ele>
        <time>2023-04-05T12:26:59Z</time>
      </trkpt>
      <trkpt lat="48.15229" lon="-3.64645">
        <ele>183.9</ele>
        <time>2023-04-05T12:27:00Z</time>
      </trkpt>
      <trkpt lat="48.15228" lon="-3.6464">
        <ele>183.7</ele>
        <time>2023-04-05T12:27:01Z</time>
      </trkpt>
      <trkpt lat="48.15229" lon="-3.64636">
        <ele>183.5</ele>
        <time>2023-04-05T12:27:02Z</time>
      </trkpt>
      <trkpt lat="48.1523" lon="-3.64631">
        <ele>183.3</ele>
        <time>2023-04-05T12:27:03Z</time>
      </trkpt>
      <trkpt lat="48.15229" lon="-3.64623">
        <ele>182.9</ele>
        <time>2023-04-05T12:27:04Z</time>
      </trkpt>
      <trkpt lat="48.15227" lon="-3.64618">
        <ele>182.7</ele>
        <time>2023-04-05T12:27:05Z</time>
      </trkpt>
      <trkpt lat="48.15226" lon="-3.64611">
        <ele>182.4</ele>
        <time>2023-04-05T12:27:06Z</time>
      </trkpt>
      <trkpt lat="48.15226" lon="-3.64605">
        <ele>182.2</ele>
        <time>2023-04-05T12:27:08Z</time>
      </trkpt>
      <trkpt lat="48.15226" lon="-3.64601">
        <ele>182</ele>
        <time>2023-04-05T12:27:09Z</time>
      </trkpt>
      <trkpt lat="48.15226" lon="-3.64596">
        <ele>181.9</ele>
        <time>2023-04-05T12:27:10Z</time>
      </trkpt>
      <trkpt lat="48.15223" lon="-3.64584">
        <ele>181.4</ele>
        <time>2023-04-05T12:27:11Z</time>
      </trkpt>
      <trkpt lat="48.15222" lon="-3.64578">
        <ele>181.2</ele>
        <time>2023-04-05T12:27:13Z</time>
      </trkpt>
      <trkpt lat="48.15221" lon="-3.64573">
        <ele>181</ele>
        <time>2023-04-05T12:27:14Z</time>
      </trkpt>
      <trkpt lat="48.15221" lon="-3.64567">
        <ele>180.8</ele>
        <time>2023-04-05T12:27:15Z</time>
      </trkpt>
      <trkpt lat="48.1522" lon="-3.64562">
        <ele>180.6</ele>
        <time>2023-04-05T12:27:17Z</time>
      </trkpt>
      <trkpt lat="48.15219" lon="-3.64558">
        <ele>180.4</ele>
        <time>2023-04-05T12:27:18Z</time>
      </trkpt>
      <trkpt lat="48.15219" lon="-3.64553">
        <ele>180.2</ele>
        <time>2023-04-05T12:27:19Z</time>
      </trkpt>
      <trkpt lat="48.1522" lon="-3.64541">
        <ele>179.8</ele>
        <time>2023-04-05T12:27:20Z</time>
      </trkpt>
      <trkpt lat="48.1522" lon="-3.64535">
        <ele>179.5</ele>
        <time>2023-04-05T12:27:22Z</time>
      </trkpt>
      <trkpt lat="48.1522" lon="-3.64531">
        <ele>179.3</ele>
        <time>2023-04-05T12:27:23Z</time>
      </trkpt>
      <trkpt lat="48.15219" lon="-3.64522">
        <ele>178.9</ele>
        <time>2023-04-05T12:27:24Z</time>
      </trkpt>
      <trkpt lat="48.15217" lon="-3.64509">
        <ele>178.4</ele>
        <time>2023-04-05T12:27:25Z</time>
      </trkpt>
      <trkpt lat="48.15214" lon="-3.64499">
        <ele>177.9</ele>
        <time>2023-04-05T12:27:27Z</time>
      </trkpt>
      <trkpt lat="48.15211" lon="-3.64491">
        <ele>177.5</ele>
        <time>2023-04-05T12:27:28Z</time>
      </trkpt>
      <trkpt lat="48.15211" lon="-3.64482">
        <ele>177.1</ele>
        <time>2023-04-05T12:27:29Z</time>
      </trkpt>
      <trkpt lat="48.1521" lon="-3.64474">
        <ele>176.8</ele>
        <time>2023-04-05T12:27:30Z</time>
      </trkpt>
      <trkpt lat="48.15209" lon="-3.64464">
        <ele>176.4</ele>
        <time>2023-04-05T12:27:31Z</time>
      </trkpt>
      <trkpt lat="48.15207" lon="-3.64454">
        <ele>175.9</ele>
        <time>2023-04-05T12:27:32Z</time>
      </trkpt>
      <trkpt lat="48.15205" lon="-3.64446">
        <ele>175.6</ele>
        <time>2023-04-05T12:27:33Z</time>
      </trkpt>
      <trkpt lat="48.15204" lon="-3.64435">
        <ele>175.2</ele>
        <time>2023-04-05T12:27:34Z</time>
      </trkpt>
      <trkpt lat="48.15203" lon="-3.64426">
        <ele>174.9</ele>
        <time>2023-04-05T12:27:35Z</time>
      </trkpt>
      <trkpt lat="48.15201" lon="-3.64419">
        <ele>174.7</ele>
        <time>2023-04-05T12:27:36Z</time>
      </trkpt>
      <trkpt lat="48.15199" lon="-3.64413">
        <ele>174.6</ele>
        <time>2023-04-05T12:27:37Z</time>
      </trkpt>
      <trkpt lat="48.15198" lon="-3.6441">
        <ele>174.5</ele>
        <time>2023-04-05T12:27:38Z</time>
      </trkpt>
      <trkpt lat="48.15194" lon="-3.64403">
        <ele>174.3</ele>
        <time>2023-04-05T12:27:39Z</time>
      </trkpt>
      <trkpt lat="48.15193" lon="-3.64394">
        <ele>174.2</ele>
        <time>2023-04-05T12:27:41Z</time>
      </trkpt>
      <trkpt lat="48.15195" lon="-3.64388">
        <ele>174.2</ele>
        <time>2023-04-05T12:27:42Z</time>
      </trkpt>
      <trkpt lat="48.15197" lon="-3.64379">
        <ele>174.2</ele>
        <time>2023-04-05T12:27:43Z</time>
      </trkpt>
      <trkpt lat="48.15199" lon="-3.64372">
        <ele>174.2</ele>
        <time>2023-04-05T12:27:44Z</time>
      </trkpt>
      <trkpt lat="48.15201" lon="-3.64365">
        <ele>174.2</ele>
        <time>2023-04-05T12:27:45Z</time>
      </trkpt>
      <trkpt lat="48.15203" lon="-3.64357">
        <ele>174.2</ele>
        <time>2023-04-05T12:27:46Z</time>
      </trkpt>
      <trkpt lat="48.15204" lon="-3.6435">
        <ele>174.2</ele>
        <time>2023-04-05T12:27:47Z</time>
      </trkpt>
      <trkpt lat="48.15207" lon="-3.64342">
        <ele>174.2</ele>
        <time>2023-04-05T12:27:48Z</time>
      </trkpt>
      <trkpt lat="48.15208" lon="-3.64335">
        <ele>174.2</ele>
        <time>2023-04-05T12:27:49Z</time>
      </trkpt>
      <trkpt lat="48.1521" lon="-3.64327">
        <ele>174.2</ele>
        <time>2023-04-05T12:27:50Z</time>
      </trkpt>
      <trkpt lat="48.15212" lon="-3.64318">
        <ele>174.1</ele>
        <time>2023-04-05T12:27:51Z</time>
      </trkpt>
      <trkpt lat="48.15213" lon="-3.64309">
        <ele>174</ele>
        <time>2023-04-05T12:27:52Z</time>
      </trkpt>
      <trkpt lat="48.15215" lon="-3.64301">
        <ele>174</ele>
        <time>2023-04-05T12:27:53Z</time>
      </trkpt>
      <trkpt lat="48.15217" lon="-3.64292">
        <ele>173.9</ele>
        <time>2023-04-05T12:27:54Z</time>
      </trkpt>
      <trkpt lat="48.15219" lon="-3.64283">
        <ele>173.8</ele>
        <time>2023-04-05T12:27:55Z</time>
      </trkpt>
      <trkpt lat="48.15221" lon="-3.64274">
        <ele>173.7</ele>
        <time>2023-04-05T12:27:56Z</time>
      </trkpt>
      <trkpt lat="48.15223" lon="-3.64265">
        <ele>173.6</ele>
        <time>2023-04-05T12:27:57Z</time>
      </trkpt>
      <trkpt lat="48.15226" lon="-3.64256">
        <ele>173.6</ele>
        <time>2023-04-05T12:27:58Z</time>
      </trkpt>
      <trkpt lat="48.15228" lon="-3.64246">
        <ele>173.5</ele>
        <time>2023-04-05T12:27:59Z</time>
      </trkpt>
      <trkpt lat="48.1523" lon="-3.64237">
        <ele>173.4</ele>
        <time>2023-04-05T12:28:00Z</time>
      </trkpt>
      <trkpt lat="48.15233" lon="-3.64227">
        <ele>173.4</ele>
        <time>2023-04-05T12:28:01Z</time>
      </trkpt>
      <trkpt lat="48.15235" lon="-3.64217">
        <ele>173.2</ele>
        <time>2023-04-05T12:28:02Z</time>
      </trkpt>
      <trkpt lat="48.15238" lon="-3.64206">
        <ele>173.1</ele>
        <time>2023-04-05T12:28:03Z</time>
      </trkpt>
      <trkpt lat="48.1524" lon="-3.64196">
        <ele>173</ele>
        <time>2023-04-05T12:28:04Z</time>
      </trkpt>
      <trkpt lat="48.15242" lon="-3.64186">
        <ele>172.9</ele>
        <time>2023-04-05T12:28:05Z</time>
      </trkpt>
      <trkpt lat="48.15245" lon="-3.64175">
        <ele>172.8</ele>
        <time>2023-04-05T12:28:06Z</time>
      </trkpt>
      <trkpt lat="48.15247" lon="-3.64164">
        <ele>172.8</ele>
        <time>2023-04-05T12:28:07Z</time>
      </trkpt>
      <trkpt lat="48.15248" lon="-3.64154">
        <ele>172.8</ele>
        <time>2023-04-05T12:28:08Z</time>
      </trkpt>
      <trkpt lat="48.1525" lon="-3.64143">
        <ele>172.7</ele>
        <time>2023-04-05T12:28:09Z</time>
      </trkpt>
      <trkpt lat="48.15252" lon="-3.64133">
        <ele>172.7</ele>
        <time>2023-04-05T12:28:10Z</time>
      </trkpt>
      <trkpt lat="48.15253" lon="-3.64123">
        <ele>172.6</ele>
        <time>2023-04-05T12:28:11Z</time>
      </trkpt>
      <trkpt lat="48.15254" lon="-3.64111">
        <ele>172.6</ele>
        <time>2023-04-05T12:28:12Z</time>
      </trkpt>
      <trkpt lat="48.15255" lon="-3.641">
        <ele>172.5</ele>
        <time>2023-04-05T12:28:13Z</time>
      </trkpt>
      <trkpt lat="48.15255" lon="-3.64089">
        <ele>172.4</ele>
        <time>2023-04-05T12:28:14Z</time>
      </trkpt>
      <trkpt lat="48.15255" lon="-3.64078">
        <ele>172.3</ele>
        <time>2023-04-05T12:28:15Z</time>
      </trkpt>
      <trkpt lat="48.15255" lon="-3.64067">
        <ele>172.1</ele>
        <time>2023-04-05T12:28:16Z</time>
      </trkpt>
      <trkpt lat="48.15255" lon="-3.64055">
        <ele>171.9</ele>
        <time>2023-04-05T12:28:17Z</time>
      </trkpt>
      <trkpt lat="48.15255" lon="-3.64043">
        <ele>171.7</ele>
        <time>2023-04-05T12:28:18Z</time>
      </trkpt>
      <trkpt lat="48.15254" lon="-3.64031">
        <ele>171.5</ele>
        <time>2023-04-05T12:28:19Z</time>
      </trkpt>
      <trkpt lat="48.15254" lon="-3.64019">
        <ele>171.3</ele>
        <time>2023-04-05T12:28:20Z</time>
      </trkpt>
      <trkpt lat="48.15254" lon="-3.64007">
        <ele>171.1</ele>
        <time>2023-04-05T12:28:21Z</time>
      </trkpt>
      <trkpt lat="48.15254" lon="-3.63995">
        <ele>171</ele>
        <time>2023-04-05T12:28:22Z</time>
      </trkpt>
      <trkpt lat="48.15254" lon="-3.63983">
        <ele>170.9</ele>
        <time>2023-04-05T12:28:23Z</time>
      </trkpt>
      <trkpt lat="48.15254" lon="-3.63972">
        <ele>170.9</ele>
        <time>2023-04-05T12:28:24Z</time>
      </trkpt>
      <trkpt lat="48.15254" lon="-3.6396">
        <ele>170.9</ele>
        <time>2023-04-05T12:28:25Z</time>
      </trkpt>
      <trkpt lat="48.15255" lon="-3.63948">
        <ele>171</ele>
        <time>2023-04-05T12:28:26Z</time>
      </trkpt>
      <trkpt lat="48.15255" lon="-3.63937">
        <ele>171.1</ele>
        <time>2023-04-05T12:28:27Z</time>
      </trkpt>
      <trkpt lat="48.15257" lon="-3.63926">
        <ele>171.1</ele>
        <time>2023-04-05T12:28:28Z</time>
      </trkpt>
      <trkpt lat="48.15258" lon="-3.63915">
        <ele>171.2</ele>
        <time>2023-04-05T12:28:29Z</time>
      </trkpt>
      <trkpt lat="48.1526" lon="-3.63904">
        <ele>171.2</ele>
        <time>2023-04-05T12:28:30Z</time>
      </trkpt>
      <trkpt lat="48.15262" lon="-3.63893">
        <ele>171.3</ele>
        <time>2023-04-05T12:28:31Z</time>
      </trkpt>
      <trkpt lat="48.15264" lon="-3.63883">
        <ele>171.3</ele>
        <time>2023-04-05T12:28:32Z</time>
      </trkpt>
      <trkpt lat="48.15267" lon="-3.63873">
        <ele>171.3</ele>
        <time>2023-04-05T12:28:33Z</time>
      </trkpt>
      <trkpt lat="48.1527" lon="-3.63863">
        <ele>171.4</ele>
        <time>2023-04-05T12:28:34Z</time>
      </trkpt>
      <trkpt lat="48.15273" lon="-3.63853">
        <ele>171.5</ele>
        <time>2023-04-05T12:28:35Z</time>
      </trkpt>
      <trkpt lat="48.15275" lon="-3.63843">
        <ele>171.6</ele>
        <time>2023-04-05T12:28:36Z</time>
      </trkpt>
      <trkpt lat="48.15278" lon="-3.63833">
        <ele>171.8</ele>
        <time>2023-04-05T12:28:37Z</time>
      </trkpt>
      <trkpt lat="48.15281" lon="-3.63823">
        <ele>171.9</ele>
        <time>2023-04-05T12:28:38Z</time>
      </trkpt>
      <trkpt lat="48.15284" lon="-3.63814">
        <ele>172</ele>
        <time>2023-04-05T12:28:39Z</time>
      </trkpt>
      <trkpt lat="48.15287" lon="-3.63804">
        <ele>172.2</ele>
        <time>2023-04-05T12:28:40Z</time>
      </trkpt>
      <trkpt lat="48.1529" lon="-3.63795">
        <ele>172.4</ele>
        <time>2023-04-05T12:28:41Z</time>
      </trkpt>
      <trkpt lat="48.15293" lon="-3.63786">
        <ele>172.7</ele>
        <time>2023-04-05T12:28:42Z</time>
      </trkpt>
      <trkpt lat="48.15296" lon="-3.63777">
        <ele>173</ele>
        <time>2023-04-05T12:28:43Z</time>
      </trkpt>
      <trkpt lat="48.15298" lon="-3.63768">
        <ele>173.3</ele>
        <time>2023-04-05T12:28:44Z</time>
      </trkpt>
      <trkpt lat="48.15301" lon="-3.63759">
        <ele>173.6</ele>
        <time>2023-04-05T12:28:45Z</time>
      </trkpt>
      <trkpt lat="48.15303" lon="-3.6375">
        <ele>173.9</ele>
        <time>2023-04-05T12:28:46Z</time>
      </trkpt>
      <trkpt lat="48.15305" lon="-3.63742">
        <ele>174.2</ele>
        <time>2023-04-05T12:28:47Z</time>
      </trkpt>
      <trkpt lat="48.15308" lon="-3.63734">
        <ele>174.6</ele>
        <time>2023-04-05T12:28:48Z</time>
      </trkpt>
      <trkpt lat="48.1531" lon="-3.63726">
        <ele>174.9</ele>
        <time>2023-04-05T12:28:49Z</time>
      </trkpt>
      <trkpt lat="48.15312" lon="-3.63718">
        <ele>175.2</ele>
        <time>2023-04-05T12:28:50Z</time>
      </trkpt>
      <trkpt lat="48.15314" lon="-3.6371">
        <ele>175.5</ele>
        <time>2023-04-05T12:28:51Z</time>
      </trkpt>
      <trkpt lat="48.15316" lon="-3.63703">
        <ele>175.5</ele>
        <time>2023-04-05T12:28:52Z</time>
      </trkpt>
      <trkpt lat="48.15318" lon="-3.63696">
        <ele>175.6</ele>
        <time>2023-04-05T12:28:53Z</time>
      </trkpt>
      <trkpt lat="48.1532" lon="-3.63689">
        <ele>175.8</ele>
        <time>2023-04-05T12:28:54Z</time>
      </trkpt>
      <trkpt lat="48.15322" lon="-3.63682">
        <ele>175.9</ele>
        <time>2023-04-05T12:28:55Z</time>
      </trkpt>
      <trkpt lat="48.15325" lon="-3.63676">
        <ele>176.1</ele>
        <time>2023-04-05T12:28:56Z</time>
      </trkpt>
      <trkpt lat="48.15327" lon="-3.63669">
        <ele>176.2</ele>
        <time>2023-04-05T12:28:57Z</time>
      </trkpt>
      <trkpt lat="48.15329" lon="-3.63663">
        <ele>176.3</ele>
        <time>2023-04-05T12:28:58Z</time>
      </trkpt>
      <trkpt lat="48.15331" lon="-3.63656">
        <ele>176.5</ele>
        <time>2023-04-05T12:28:59Z</time>
      </trkpt>
      <trkpt lat="48.15333" lon="-3.63649">
        <ele>176.6</ele>
        <time>2023-04-05T12:29:00Z</time>
      </trkpt>
      <trkpt lat="48.15335" lon="-3.63643">
        <ele>176.6</ele>
        <time>2023-04-05T12:29:01Z</time>
      </trkpt>
      <trkpt lat="48.15337" lon="-3.63636">
        <ele>176.7</ele>
        <time>2023-04-05T12:29:02Z</time>
      </trkpt>
      <trkpt lat="48.15339" lon="-3.6363">
        <ele>176.8</ele>
        <time>2023-04-05T12:29:03Z</time>
      </trkpt>
      <trkpt lat="48.1534" lon="-3.63623">
        <ele>176.9</ele>
        <time>2023-04-05T12:29:04Z</time>
      </trkpt>
      <trkpt lat="48.15342" lon="-3.63617">
        <ele>177</ele>
        <time>2023-04-05T12:29:05Z</time>
      </trkpt>
      <trkpt lat="48.15343" lon="-3.6361">
        <ele>177.1</ele>
        <time>2023-04-05T12:29:06Z</time>
      </trkpt>
      <trkpt lat="48.15344" lon="-3.63604">
        <ele>177.2</ele>
        <time>2023-04-05T12:29:07Z</time>
      </trkpt>
      <trkpt lat="48.15346" lon="-3.63597">
        <ele>177.3</ele>
        <time>2023-04-05T12:29:08Z</time>
      </trkpt>
      <trkpt lat="48.15347" lon="-3.6359">
        <ele>177.4</ele>
        <time>2023-04-05T12:29:09Z</time>
      </trkpt>
      <trkpt lat="48.15349" lon="-3.63584">
        <ele>177.5</ele>
        <time>2023-04-05T12:29:10Z</time>
      </trkpt>
      <trkpt lat="48.1535" lon="-3.63577">
        <ele>177.5</ele>
        <time>2023-04-05T12:29:11Z</time>
      </trkpt>
      <trkpt lat="48.15352" lon="-3.6357">
        <ele>177.5</ele>
        <time>2023-04-05T12:29:12Z</time>
      </trkpt>
      <trkpt lat="48.15354" lon="-3.63563">
        <ele>177.6</ele>
        <time>2023-04-05T12:29:13Z</time>
      </trkpt>
      <trkpt lat="48.15356" lon="-3.63556">
        <ele>177.6</ele>
        <time>2023-04-05T12:29:14Z</time>
      </trkpt>
      <trkpt lat="48.15357" lon="-3.63549">
        <ele>177.6</ele>
        <time>2023-04-05T12:29:15Z</time>
      </trkpt>
      <trkpt lat="48.15358" lon="-3.63542">
        <ele>177.6</ele>
        <time>2023-04-05T12:29:16Z</time>
      </trkpt>
      <trkpt lat="48.1536" lon="-3.63535">
        <ele>177.7</ele>
        <time>2023-04-05T12:29:17Z</time>
      </trkpt>
      <trkpt lat="48.15361" lon="-3.63529">
        <ele>177.7</ele>
        <time>2023-04-05T12:29:18Z</time>
      </trkpt>
      <trkpt lat="48.15361" lon="-3.63521">
        <ele>177.7</ele>
        <time>2023-04-05T12:29:19Z</time>
      </trkpt>
      <trkpt lat="48.15362" lon="-3.63514">
        <ele>177.7</ele>
        <time>2023-04-05T12:29:20Z</time>
      </trkpt>
      <trkpt lat="48.15362" lon="-3.63507">
        <ele>177.7</ele>
        <time>2023-04-05T12:29:21Z</time>
      </trkpt>
      <trkpt lat="48.15363" lon="-3.635">
        <ele>177.7</ele>
        <time>2023-04-05T12:29:22Z</time>
      </trkpt>
      <trkpt lat="48.15364" lon="-3.63492">
        <ele>177.5</ele>
        <time>2023-04-05T12:29:23Z</time>
      </trkpt>
      <trkpt lat="48.15364" lon="-3.63484">
        <ele>177.4</ele>
        <time>2023-04-05T12:29:24Z</time>
      </trkpt>
      <trkpt lat="48.15363" lon="-3.63477">
        <ele>177.2</ele>
        <time>2023-04-05T12:29:25Z</time>
      </trkpt>
      <trkpt lat="48.15363" lon="-3.63469">
        <ele>177.1</ele>
        <time>2023-04-05T12:29:26Z</time>
      </trkpt>
      <trkpt lat="48.15363" lon="-3.63461">
        <ele>176.9</ele>
        <time>2023-04-05T12:29:27Z</time>
      </trkpt>
      <trkpt lat="48.15363" lon="-3.63453">
        <ele>176.8</ele>
        <time>2023-04-05T12:29:28Z</time>
      </trkpt>
      <trkpt lat="48.15362" lon="-3.63445">
        <ele>176.6</ele>
        <time>2023-04-05T12:29:29Z</time>
      </trkpt>
      <trkpt lat="48.15362" lon="-3.63437">
        <ele>176.5</ele>
        <time>2023-04-05T12:29:30Z</time>
      </trkpt>
      <trkpt lat="48.15362" lon="-3.6343">
        <ele>176.4</ele>
        <time>2023-04-05T12:29:31Z</time>
      </trkpt>
      <trkpt lat="48.15361" lon="-3.63422">
        <ele>176.2</ele>
        <time>2023-04-05T12:29:32Z</time>
      </trkpt>
      <trkpt lat="48.15361" lon="-3.63415">
        <ele>176.2</ele>
        <time>2023-04-05T12:29:33Z</time>
      </trkpt>
      <trkpt lat="48.1536" lon="-3.63407">
        <ele>176.1</ele>
        <time>2023-04-05T12:29:34Z</time>
      </trkpt>
      <trkpt lat="48.1536" lon="-3.634">
        <ele>176.1</ele>
        <time>2023-04-05T12:29:35Z</time>
      </trkpt>
      <trkpt lat="48.15359" lon="-3.63392">
        <ele>176.1</ele>
        <time>2023-04-05T12:29:36Z</time>
      </trkpt>
      <trkpt lat="48.15359" lon="-3.63385">
        <ele>176.1</ele>
        <time>2023-04-05T12:29:37Z</time>
      </trkpt>
      <trkpt lat="48.15359" lon="-3.63377">
        <ele>176.1</ele>
        <time>2023-04-05T12:29:38Z</time>
      </trkpt>
      <trkpt lat="48.15359" lon="-3.6337">
        <ele>176</ele>
        <time>2023-04-05T12:29:39Z</time>
      </trkpt>
      <trkpt lat="48.15359" lon="-3.63362">
        <ele>176</ele>
        <time>2023-04-05T12:29:40Z</time>
      </trkpt>
      <trkpt lat="48.15358" lon="-3.63354">
        <ele>175.9</ele>
        <time>2023-04-05T12:29:41Z</time>
      </trkpt>
      <trkpt lat="48.15358" lon="-3.63347">
        <ele>175.9</ele>
        <time>2023-04-05T12:29:42Z</time>
      </trkpt>
      <trkpt lat="48.15358" lon="-3.6334">
        <ele>175.8</ele>
        <time>2023-04-05T12:29:43Z</time>
      </trkpt>
      <trkpt lat="48.15358" lon="-3.63332">
        <ele>175.7</ele>
        <time>2023-04-05T12:29:44Z</time>
      </trkpt>
      <trkpt lat="48.15357" lon="-3.63324">
        <ele>175.6</ele>
        <time>2023-04-05T12:29:45Z</time>
      </trkpt>
      <trkpt lat="48.15356" lon="-3.63316">
        <ele>175.4</ele>
        <time>2023-04-05T12:29:46Z</time>
      </trkpt>
      <trkpt lat="48.15355" lon="-3.63308">
        <ele>175.1</ele>
        <time>2023-04-05T12:29:47Z</time>
      </trkpt>
      <trkpt lat="48.15355" lon="-3.63299">
        <ele>174.7</ele>
        <time>2023-04-05T12:29:48Z</time>
      </trkpt>
      <trkpt lat="48.15354" lon="-3.63291">
        <ele>174.4</ele>
        <time>2023-04-05T12:29:49Z</time>
      </trkpt>
      <trkpt lat="48.15354" lon="-3.63282">
        <ele>174.2</ele>
        <time>2023-04-05T12:29:50Z</time>
      </trkpt>
      <trkpt lat="48.15354" lon="-3.63274">
        <ele>174.1</ele>
        <time>2023-04-05T12:29:51Z</time>
      </trkpt>
      <trkpt lat="48.15353" lon="-3.63265">
        <ele>174</ele>
        <time>2023-04-05T12:29:52Z</time>
      </trkpt>
      <trkpt lat="48.15353" lon="-3.63256">
        <ele>174.1</ele>
        <time>2023-04-05T12:29:53Z</time>
      </trkpt>
      <trkpt lat="48.15352" lon="-3.63248">
        <ele>174.3</ele>
        <time>2023-04-05T12:29:54Z</time>
      </trkpt>
      <trkpt lat="48.15351" lon="-3.6324">
        <ele>174.4</ele>
        <time>2023-04-05T12:29:55Z</time>
      </trkpt>
      <trkpt lat="48.15349" lon="-3.63231">
        <ele>174.4</ele>
        <time>2023-04-05T12:29:56Z</time>
      </trkpt>
      <trkpt lat="48.15348" lon="-3.63222">
        <ele>174.2</ele>
        <time>2023-04-05T12:29:57Z</time>
      </trkpt>
      <trkpt lat="48.15348" lon="-3.63215">
        <ele>174.1</ele>
        <time>2023-04-05T12:29:58Z</time>
      </trkpt>
      <trkpt lat="48.15347" lon="-3.63206">
        <ele>174</ele>
        <time>2023-04-05T12:29:59Z</time>
      </trkpt>
      <trkpt lat="48.15346" lon="-3.63198">
        <ele>174.1</ele>
        <time>2023-04-05T12:30:00Z</time>
      </trkpt>
      <trkpt lat="48.15345" lon="-3.6319">
        <ele>174.1</ele>
        <time>2023-04-05T12:30:01Z</time>
      </trkpt>
      <trkpt lat="48.15345" lon="-3.63183">
        <ele>174</ele>
        <time>2023-04-05T12:30:02Z</time>
      </trkpt>
      <trkpt lat="48.15344" lon="-3.63175">
        <ele>173.8</ele>
        <time>2023-04-05T12:30:03Z</time>
      </trkpt>
      <trkpt lat="48.15343" lon="-3.63168">
        <ele>173.6</ele>
        <time>2023-04-05T12:30:04Z</time>
      </trkpt>
      <trkpt lat="48.15342" lon="-3.63161">
        <ele>173.5</ele>
        <time>2023-04-05T12:30:05Z</time>
      </trkpt>
      <trkpt lat="48.15342" lon="-3.63153">
        <ele>173.5</ele>
        <time>2023-04-05T12:30:06Z</time>
      </trkpt>
      <trkpt lat="48.15341" lon="-3.63146">
        <ele>173.5</ele>
        <time>2023-04-05T12:30:07Z</time>
      </trkpt>
      <trkpt lat="48.15341" lon="-3.63139">
        <ele>173.6</ele>
        <time>2023-04-05T12:30:08Z</time>
      </trkpt>
      <trkpt lat="48.1534" lon="-3.63131">
        <ele>173.8</ele>
        <time>2023-04-05T12:30:09Z</time>
      </trkpt>
      <trkpt lat="48.1534" lon="-3.63124">
        <ele>173.9</ele>
        <time>2023-04-05T12:30:10Z</time>
      </trkpt>
      <trkpt lat="48.1534" lon="-3.63118">
        <ele>173.9</ele>
        <time>2023-04-05T12:30:11Z</time>
      </trkpt>
      <trkpt lat="48.15339" lon="-3.63113">
        <ele>173.8</ele>
        <time>2023-04-05T12:30:12Z</time>
      </trkpt>
      <trkpt lat="48.15338" lon="-3.63103">
        <ele>173.7</ele>
        <time>2023-04-05T12:30:13Z</time>
      </trkpt>
      <trkpt lat="48.15337" lon="-3.63095">
        <ele>173.7</ele>
        <time>2023-04-05T12:30:14Z</time>
      </trkpt>
      <trkpt lat="48.15336" lon="-3.63087">
        <ele>173.7</ele>
        <time>2023-04-05T12:30:15Z</time>
      </trkpt>
      <trkpt lat="48.15336" lon="-3.63079">
        <ele>173.8</ele>
        <time>2023-04-05T12:30:16Z</time>
      </trkpt>
      <trkpt lat="48.15334" lon="-3.63071">
        <ele>174</ele>
        <time>2023-04-05T12:30:17Z</time>
      </trkpt>
      <trkpt lat="48.15333" lon="-3.63064">
        <ele>174.2</ele>
        <time>2023-04-05T12:30:18Z</time>
      </trkpt>
      <trkpt lat="48.15332" lon="-3.63057">
        <ele>174.3</ele>
        <time>2023-04-05T12:30:19Z</time>
      </trkpt>
      <trkpt lat="48.15332" lon="-3.6305">
        <ele>174.5</ele>
        <time>2023-04-05T12:30:20Z</time>
      </trkpt>
      <trkpt lat="48.1533" lon="-3.63042">
        <ele>174.7</ele>
        <time>2023-04-05T12:30:21Z</time>
      </trkpt>
      <trkpt lat="48.1533" lon="-3.63035">
        <ele>174.8</ele>
        <time>2023-04-05T12:30:22Z</time>
      </trkpt>
      <trkpt lat="48.1533" lon="-3.6303">
        <ele>174.8</ele>
        <time>2023-04-05T12:30:23Z</time>
      </trkpt>
      <trkpt lat="48.15329" lon="-3.63022">
        <ele>174.9</ele>
        <time>2023-04-05T12:30:24Z</time>
      </trkpt>
      <trkpt lat="48.15328" lon="-3.63015">
        <ele>174.9</ele>
        <time>2023-04-05T12:30:25Z</time>
      </trkpt>
      <trkpt lat="48.15327" lon="-3.63008">
        <ele>174.9</ele>
        <time>2023-04-05T12:30:26Z</time>
      </trkpt>
      <trkpt lat="48.15326" lon="-3.63">
        <ele>174.9</ele>
        <time>2023-04-05T12:30:27Z</time>
      </trkpt>
      <trkpt lat="48.15325" lon="-3.62993">
        <ele>174.9</ele>
        <time>2023-04-05T12:30:28Z</time>
      </trkpt>
      <trkpt lat="48.15324" lon="-3.62986">
        <ele>174.9</ele>
        <time>2023-04-05T12:30:29Z</time>
      </trkpt>
      <trkpt lat="48.15324" lon="-3.62979">
        <ele>174.9</ele>
        <time>2023-04-05T12:30:30Z</time>
      </trkpt>
      <trkpt lat="48.15323" lon="-3.62972">
        <ele>174.9</ele>
        <time>2023-04-05T12:30:31Z</time>
      </trkpt>
      <trkpt lat="48.15322" lon="-3.62966">
        <ele>174.9</ele>
        <time>2023-04-05T12:30:32Z</time>
      </trkpt>
      <trkpt lat="48.15321" lon="-3.62959">
        <ele>175</ele>
        <time>2023-04-05T12:30:33Z</time>
      </trkpt>
      <trkpt lat="48.1532" lon="-3.62953">
        <ele>175.1</ele>
        <time>2023-04-05T12:30:34Z</time>
      </trkpt>
      <trkpt lat="48.15319" lon="-3.62946">
        <ele>175.2</ele>
        <time>2023-04-05T12:30:35Z</time>
      </trkpt>
      <trkpt lat="48.15319" lon="-3.62942">
        <ele>175.3</ele>
        <time>2023-04-05T12:30:36Z</time>
      </trkpt>
      <trkpt lat="48.15318" lon="-3.6293">
        <ele>175.3</ele>
        <time>2023-04-05T12:30:38Z</time>
      </trkpt>
      <trkpt lat="48.15318" lon="-3.62923">
        <ele>175.3</ele>
        <time>2023-04-05T12:30:39Z</time>
      </trkpt>
      <trkpt lat="48.15317" lon="-3.62917">
        <ele>175.2</ele>
        <time>2023-04-05T12:30:40Z</time>
      </trkpt>
      <trkpt lat="48.15318" lon="-3.62907">
        <ele>175.1</ele>
        <time>2023-04-05T12:30:41Z</time>
      </trkpt>
      <trkpt lat="48.15321" lon="-3.62902">
        <ele>175.1</ele>
        <time>2023-04-05T12:30:43Z</time>
      </trkpt>
      <trkpt lat="48.15324" lon="-3.62901">
        <ele>175.3</ele>
        <time>2023-04-05T12:30:44Z</time>
      </trkpt>
      <trkpt lat="48.15327" lon="-3.62902">
        <ele>175.4</ele>
        <time>2023-04-05T12:30:45Z</time>
      </trkpt>
      <trkpt lat="48.15331" lon="-3.62908">
        <ele>175.7</ele>
        <time>2023-04-05T12:30:46Z</time>
      </trkpt>
      <trkpt lat="48.15334" lon="-3.62912">
        <ele>175.9</ele>
        <time>2023-04-05T12:30:48Z</time>
      </trkpt>
      <trkpt lat="48.15337" lon="-3.62914">
        <ele>176.1</ele>
        <time>2023-04-05T12:30:49Z</time>
      </trkpt>
      <trkpt lat="48.15339" lon="-3.62917">
        <ele>176.2</ele>
        <time>2023-04-05T12:30:50Z</time>
      </trkpt>
      <trkpt lat="48.15342" lon="-3.6292">
        <ele>176.4</ele>
        <time>2023-04-05T12:30:51Z</time>
      </trkpt>
      <trkpt lat="48.15345" lon="-3.62923">
        <ele>176.6</ele>
        <time>2023-04-05T12:30:52Z</time>
      </trkpt>
      <trkpt lat="48.15348" lon="-3.62926">
        <ele>176.8</ele>
        <time>2023-04-05T12:30:53Z</time>
      </trkpt>
      <trkpt lat="48.15351" lon="-3.62929">
        <ele>177</ele>
        <time>2023-04-05T12:30:54Z</time>
      </trkpt>
      <trkpt lat="48.15354" lon="-3.62932">
        <ele>177.2</ele>
        <time>2023-04-05T12:30:55Z</time>
      </trkpt>
      <trkpt lat="48.15356" lon="-3.62935">
        <ele>177.4</ele>
        <time>2023-04-05T12:30:56Z</time>
      </trkpt>
      <trkpt lat="48.1536" lon="-3.62938">
        <ele>177.6</ele>
        <time>2023-04-05T12:30:57Z</time>
      </trkpt>
      <trkpt lat="48.15362" lon="-3.62941">
        <ele>177.7</ele>
        <time>2023-04-05T12:30:58Z</time>
      </trkpt>
      <trkpt lat="48.15364" lon="-3.62944">
        <ele>177.9</ele>
        <time>2023-04-05T12:30:59Z</time>
      </trkpt>
      <trkpt lat="48.15368" lon="-3.62947">
        <ele>178.1</ele>
        <time>2023-04-05T12:31:00Z</time>
      </trkpt>
      <trkpt lat="48.1537" lon="-3.62949">
        <ele>178.3</ele>
        <time>2023-04-05T12:31:01Z</time>
      </trkpt>
      <trkpt lat="48.15373" lon="-3.62952">
        <ele>178.4</ele>
        <time>2023-04-05T12:31:02Z</time>
      </trkpt>
      <trkpt lat="48.15376" lon="-3.62955">
        <ele>178.6</ele>
        <time>2023-04-05T12:31:03Z</time>
      </trkpt>
      <trkpt lat="48.15379" lon="-3.62958">
        <ele>178.8</ele>
        <time>2023-04-05T12:31:04Z</time>
      </trkpt>
      <trkpt lat="48.15382" lon="-3.62961">
        <ele>179</ele>
        <time>2023-04-05T12:31:05Z</time>
      </trkpt>
      <trkpt lat="48.15385" lon="-3.62964">
        <ele>179.2</ele>
        <time>2023-04-05T12:31:06Z</time>
      </trkpt>
      <trkpt lat="48.15387" lon="-3.62966">
        <ele>179.3</ele>
        <time>2023-04-05T12:31:07Z</time>
      </trkpt>
      <trkpt lat="48.1539" lon="-3.62969">
        <ele>179.5</ele>
        <time>2023-04-05T12:31:08Z</time>
      </trkpt>
      <trkpt lat="48.15393" lon="-3.62971">
        <ele>179.6</ele>
        <time>2023-04-05T12:31:09Z</time>
      </trkpt>
      <trkpt lat="48.15395" lon="-3.62974">
        <ele>179.8</ele>
        <time>2023-04-05T12:31:10Z</time>
      </trkpt>
      <trkpt lat="48.15398" lon="-3.62977">
        <ele>180</ele>
        <time>2023-04-05T12:31:11Z</time>
      </trkpt>
      <trkpt lat="48.15401" lon="-3.62979">
        <ele>180.1</ele>
        <time>2023-04-05T12:31:12Z</time>
      </trkpt>
      <trkpt lat="48.15403" lon="-3.62982">
        <ele>180.3</ele>
        <time>2023-04-05T12:31:13Z</time>
      </trkpt>
      <trkpt lat="48.15406" lon="-3.62985">
        <ele>180.5</ele>
        <time>2023-04-05T12:31:14Z</time>
      </trkpt>
      <trkpt lat="48.15409" lon="-3.62988">
        <ele>180.6</ele>
        <time>2023-04-05T12:31:15Z</time>
      </trkpt>
      <trkpt lat="48.15411" lon="-3.62991">
        <ele>180.8</ele>
        <time>2023-04-05T12:31:16Z</time>
      </trkpt>
      <trkpt lat="48.15415" lon="-3.62994">
        <ele>181</ele>
        <time>2023-04-05T12:31:17Z</time>
      </trkpt>
      <trkpt lat="48.15417" lon="-3.62996">
        <ele>181.1</ele>
        <time>2023-04-05T12:31:18Z</time>
      </trkpt>
      <trkpt lat="48.1542" lon="-3.62999">
        <ele>181.3</ele>
        <time>2023-04-05T12:31:19Z</time>
      </trkpt>
      <trkpt lat="48.15423" lon="-3.63001">
        <ele>181.5</ele>
        <time>2023-04-05T12:31:20Z</time>
      </trkpt>
      <trkpt lat="48.15425" lon="-3.63004">
        <ele>181.7</ele>
        <time>2023-04-05T12:31:21Z</time>
      </trkpt>
      <trkpt lat="48.15428" lon="-3.63007">
        <ele>181.9</ele>
        <time>2023-04-05T12:31:22Z</time>
      </trkpt>
      <trkpt lat="48.15431" lon="-3.63009">
        <ele>182</ele>
        <time>2023-04-05T12:31:23Z</time>
      </trkpt>
      <trkpt lat="48.15434" lon="-3.63012">
        <ele>182.2</ele>
        <time>2023-04-05T12:31:24Z</time>
      </trkpt>
      <trkpt lat="48.15437" lon="-3.63015">
        <ele>182.4</ele>
        <time>2023-04-05T12:31:25Z</time>
      </trkpt>
      <trkpt lat="48.15441" lon="-3.63018">
        <ele>182.6</ele>
        <time>2023-04-05T12:31:26Z</time>
      </trkpt>
      <trkpt lat="48.15442" lon="-3.6302">
        <ele>182.7</ele>
        <time>2023-04-05T12:31:27Z</time>
      </trkpt>
      <trkpt lat="48.15445" lon="-3.63022">
        <ele>182.9</ele>
        <time>2023-04-05T12:31:28Z</time>
      </trkpt>
      <trkpt lat="48.15448" lon="-3.63025">
        <ele>183.1</ele>
        <time>2023-04-05T12:31:29Z</time>
      </trkpt>
      <trkpt lat="48.1545" lon="-3.63028">
        <ele>183.3</ele>
        <time>2023-04-05T12:31:30Z</time>
      </trkpt>
      <trkpt lat="48.15453" lon="-3.63031">
        <ele>183.4</ele>
        <time>2023-04-05T12:31:31Z</time>
      </trkpt>
      <trkpt lat="48.15456" lon="-3.63033">
        <ele>183.6</ele>
        <time>2023-04-05T12:31:32Z</time>
      </trkpt>
      <trkpt lat="48.15459" lon="-3.63036">
        <ele>183.8</ele>
        <time>2023-04-05T12:31:33Z</time>
      </trkpt>
      <trkpt lat="48.15462" lon="-3.63038">
        <ele>184</ele>
        <time>2023-04-05T12:31:34Z</time>
      </trkpt>
      <trkpt lat="48.15465" lon="-3.63041">
        <ele>184.2</ele>
        <time>2023-04-05T12:31:35Z</time>
      </trkpt>
      <trkpt lat="48.15467" lon="-3.63044">
        <ele>184.3</ele>
        <time>2023-04-05T12:31:36Z</time>
      </trkpt>
      <trkpt lat="48.1547" lon="-3.63046">
        <ele>184.5</ele>
        <time>2023-04-05T12:31:37Z</time>
      </trkpt>
      <trkpt lat="48.15474" lon="-3.63048">
        <ele>184.8</ele>
        <time>2023-04-05T12:31:38Z</time>
      </trkpt>
      <trkpt lat="48.15476" lon="-3.63049">
        <ele>184.9</ele>
        <time>2023-04-05T12:31:39Z</time>
      </trkpt>
      <trkpt lat="48.15481" lon="-3.63049">
        <ele>185.1</ele>
        <time>2023-04-05T12:31:40Z</time>
      </trkpt>
      <trkpt lat="48.15487" lon="-3.63046">
        <ele>185.6</ele>
        <time>2023-04-05T12:31:42Z</time>
      </trkpt>
      <trkpt lat="48.15491" lon="-3.6304">
        <ele>185.6</ele>
        <time>2023-04-05T12:31:44Z</time>
      </trkpt>
      <trkpt lat="48.15494" lon="-3.63037">
        <ele>185.6</ele>
        <time>2023-04-05T12:31:45Z</time>
      </trkpt>
      <trkpt lat="48.15495" lon="-3.63033">
        <ele>185.7</ele>
        <time>2023-04-05T12:31:46Z</time>
      </trkpt>
      <trkpt lat="48.15498" lon="-3.63026">
        <ele>185.8</ele>
        <time>2023-04-05T12:31:48Z</time>
      </trkpt>
      <trkpt lat="48.15499" lon="-3.63022">
        <ele>185.9</ele>
        <time>2023-04-05T12:31:49Z</time>
      </trkpt>
      <trkpt lat="48.155" lon="-3.63014">
        <ele>186</ele>
        <time>2023-04-05T12:31:50Z</time>
      </trkpt>
      <trkpt lat="48.15501" lon="-3.6301">
        <ele>186.1</ele>
        <time>2023-04-05T12:31:51Z</time>
      </trkpt>
      <trkpt lat="48.15502" lon="-3.63001">
        <ele>186.2</ele>
        <time>2023-04-05T12:31:53Z</time>
      </trkpt>
      <trkpt lat="48.15503" lon="-3.62996">
        <ele>186.2</ele>
        <time>2023-04-05T12:31:54Z</time>
      </trkpt>
      <trkpt lat="48.15503" lon="-3.6299">
        <ele>186.2</ele>
        <time>2023-04-05T12:31:56Z</time>
      </trkpt>
      <trkpt lat="48.15504" lon="-3.62985">
        <ele>186.2</ele>
        <time>2023-04-05T12:31:57Z</time>
      </trkpt>
      <trkpt lat="48.15505" lon="-3.6298">
        <ele>186.2</ele>
        <time>2023-04-05T12:31:58Z</time>
      </trkpt>
      <trkpt lat="48.15505" lon="-3.62975">
        <ele>186.2</ele>
        <time>2023-04-05T12:31:59Z</time>
      </trkpt>
      <trkpt lat="48.15507" lon="-3.62964">
        <ele>186.1</ele>
        <time>2023-04-05T12:32:00Z</time>
      </trkpt>
      <trkpt lat="48.15507" lon="-3.62958">
        <ele>186.1</ele>
        <time>2023-04-05T12:32:02Z</time>
      </trkpt>
      <trkpt lat="48.15508" lon="-3.62951">
        <ele>186.1</ele>
        <time>2023-04-05T12:32:03Z</time>
      </trkpt>
      <trkpt lat="48.15508" lon="-3.62945">
        <ele>186</ele>
        <time>2023-04-05T12:32:04Z</time>
      </trkpt>
      <trkpt lat="48.15509" lon="-3.62939">
        <ele>186</ele>
        <time>2023-04-05T12:32:05Z</time>
      </trkpt>
      <trkpt lat="48.1551" lon="-3.62932">
        <ele>185.9</ele>
        <time>2023-04-05T12:32:06Z</time>
      </trkpt>
      <trkpt lat="48.15511" lon="-3.62924">
        <ele>185.9</ele>
        <time>2023-04-05T12:32:07Z</time>
      </trkpt>
      <trkpt lat="48.15512" lon="-3.62917">
        <ele>185.8</ele>
        <time>2023-04-05T12:32:08Z</time>
      </trkpt>
      <trkpt lat="48.15513" lon="-3.62911">
        <ele>185.6</ele>
        <time>2023-04-05T12:32:09Z</time>
      </trkpt>
      <trkpt lat="48.15514" lon="-3.62904">
        <ele>185.5</ele>
        <time>2023-04-05T12:32:10Z</time>
      </trkpt>
      <trkpt lat="48.15515" lon="-3.62897">
        <ele>185.3</ele>
        <time>2023-04-05T12:32:11Z</time>
      </trkpt>
      <trkpt lat="48.15516" lon="-3.62889">
        <ele>185</ele>
        <time>2023-04-05T12:32:12Z</time>
      </trkpt>
      <trkpt lat="48.15517" lon="-3.62882">
        <ele>184.8</ele>
        <time>2023-04-05T12:32:13Z</time>
      </trkpt>
      <trkpt lat="48.15518" lon="-3.62874">
        <ele>184.5</ele>
        <time>2023-04-05T12:32:14Z</time>
      </trkpt>
      <trkpt lat="48.15519" lon="-3.62865">
        <ele>184.2</ele>
        <time>2023-04-05T12:32:15Z</time>
      </trkpt>
      <trkpt lat="48.1552" lon="-3.62855">
        <ele>183.9</ele>
        <time>2023-04-05T12:32:16Z</time>
      </trkpt>
      <trkpt lat="48.15521" lon="-3.62845">
        <ele>183.5</ele>
        <time>2023-04-05T12:32:17Z</time>
      </trkpt>
      <trkpt lat="48.15522" lon="-3.62835">
        <ele>183.2</ele>
        <time>2023-04-05T12:32:18Z</time>
      </trkpt>
      <trkpt lat="48.15523" lon="-3.62825">
        <ele>182.8</ele>
        <time>2023-04-05T12:32:19Z</time>
      </trkpt>
      <trkpt lat="48.15525" lon="-3.62814">
        <ele>182.5</ele>
        <time>2023-04-05T12:32:20Z</time>
      </trkpt>
      <trkpt lat="48.15526" lon="-3.62803">
        <ele>182.1</ele>
        <time>2023-04-05T12:32:21Z</time>
      </trkpt>
      <trkpt lat="48.15528" lon="-3.62792">
        <ele>181.6</ele>
        <time>2023-04-05T12:32:22Z</time>
      </trkpt>
      <trkpt lat="48.15531" lon="-3.62781">
        <ele>181.2</ele>
        <time>2023-04-05T12:32:23Z</time>
      </trkpt>
      <trkpt lat="48.15534" lon="-3.62769">
        <ele>180.7</ele>
        <time>2023-04-05T12:32:24Z</time>
      </trkpt>
      <trkpt lat="48.15538" lon="-3.62758">
        <ele>180.1</ele>
        <time>2023-04-05T12:32:25Z</time>
      </trkpt>
      <trkpt lat="48.15542" lon="-3.62746">
        <ele>179.4</ele>
        <time>2023-04-05T12:32:26Z</time>
      </trkpt>
      <trkpt lat="48.15546" lon="-3.62733">
        <ele>178.7</ele>
        <time>2023-04-05T12:32:27Z</time>
      </trkpt>
      <trkpt lat="48.1555" lon="-3.62721">
        <ele>178.1</ele>
        <time>2023-04-05T12:32:28Z</time>
      </trkpt>
      <trkpt lat="48.15555" lon="-3.62709">
        <ele>177.5</ele>
        <time>2023-04-05T12:32:29Z</time>
      </trkpt>
      <trkpt lat="48.15561" lon="-3.62697">
        <ele>176.9</ele>
        <time>2023-04-05T12:32:30Z</time>
      </trkpt>
      <trkpt lat="48.15567" lon="-3.62685">
        <ele>176.5</ele>
        <time>2023-04-05T12:32:31Z</time>
      </trkpt>
      <trkpt lat="48.15573" lon="-3.62674">
        <ele>176.2</ele>
        <time>2023-04-05T12:32:32Z</time>
      </trkpt>
      <trkpt lat="48.1558" lon="-3.62665">
        <ele>175.9</ele>
        <time>2023-04-05T12:32:33Z</time>
      </trkpt>
      <trkpt lat="48.15587" lon="-3.62655">
        <ele>175.7</ele>
        <time>2023-04-05T12:32:34Z</time>
      </trkpt>
      <trkpt lat="48.15594" lon="-3.62647">
        <ele>175.4</ele>
        <time>2023-04-05T12:32:35Z</time>
      </trkpt>
      <trkpt lat="48.15602" lon="-3.6264">
        <ele>175.1</ele>
        <time>2023-04-05T12:32:36Z</time>
      </trkpt>
      <trkpt lat="48.1561" lon="-3.62634">
        <ele>174.9</ele>
        <time>2023-04-05T12:32:37Z</time>
      </trkpt>
      <trkpt lat="48.15618" lon="-3.62629">
        <ele>174.6</ele>
        <time>2023-04-05T12:32:38Z</time>
      </trkpt>
      <trkpt lat="48.15626" lon="-3.62625">
        <ele>174.5</ele>
        <time>2023-04-05T12:32:39Z</time>
      </trkpt>
      <trkpt lat="48.15634" lon="-3.62622">
        <ele>174.3</ele>
        <time>2023-04-05T12:32:40Z</time>
      </trkpt>
      <trkpt lat="48.15643" lon="-3.62619">
        <ele>174.2</ele>
        <time>2023-04-05T12:32:41Z</time>
      </trkpt>
      <trkpt lat="48.15651" lon="-3.62618">
        <ele>174</ele>
        <time>2023-04-05T12:32:42Z</time>
      </trkpt>
      <trkpt lat="48.15659" lon="-3.62616">
        <ele>173.8</ele>
        <time>2023-04-05T12:32:43Z</time>
      </trkpt>
      <trkpt lat="48.15667" lon="-3.62616">
        <ele>173.6</ele>
        <time>2023-04-05T12:32:44Z</time>
      </trkpt>
      <trkpt lat="48.15675" lon="-3.62617">
        <ele>173.3</ele>
        <time>2023-04-05T12:32:45Z</time>
      </trkpt>
      <trkpt lat="48.15683" lon="-3.62619">
        <ele>172.9</ele>
        <time>2023-04-05T12:32:46Z</time>
      </trkpt>
      <trkpt lat="48.15691" lon="-3.62621">
        <ele>172.6</ele>
        <time>2023-04-05T12:32:47Z</time>
      </trkpt>
      <trkpt lat="48.15699" lon="-3.62624">
        <ele>172.4</ele>
        <time>2023-04-05T12:32:48Z</time>
      </trkpt>
      <trkpt lat="48.15706" lon="-3.62626">
        <ele>172.1</ele>
        <time>2023-04-05T12:32:49Z</time>
      </trkpt>
      <trkpt lat="48.15713" lon="-3.6263">
        <ele>171.8</ele>
        <time>2023-04-05T12:32:50Z</time>
      </trkpt>
      <trkpt lat="48.1572" lon="-3.62633">
        <ele>171.3</ele>
        <time>2023-04-05T12:32:51Z</time>
      </trkpt>
      <trkpt lat="48.15728" lon="-3.62636">
        <ele>170.8</ele>
        <time>2023-04-05T12:32:52Z</time>
      </trkpt>
      <trkpt lat="48.15735" lon="-3.62639">
        <ele>170.3</ele>
        <time>2023-04-05T12:32:53Z</time>
      </trkpt>
      <trkpt lat="48.15742" lon="-3.62642">
        <ele>169.7</ele>
        <time>2023-04-05T12:32:54Z</time>
      </trkpt>
      <trkpt lat="48.1575" lon="-3.62644">
        <ele>169</ele>
        <time>2023-04-05T12:32:55Z</time>
      </trkpt>
      <trkpt lat="48.15758" lon="-3.62645">
        <ele>168.4</ele>
        <time>2023-04-05T12:32:56Z</time>
      </trkpt>
      <trkpt lat="48.15766" lon="-3.62645">
        <ele>167.9</ele>
        <time>2023-04-05T12:32:57Z</time>
      </trkpt>
      <trkpt lat="48.15774" lon="-3.62644">
        <ele>167.5</ele>
        <time>2023-04-05T12:32:58Z</time>
      </trkpt>
      <trkpt lat="48.15783" lon="-3.62643">
        <ele>167</ele>
        <time>2023-04-05T12:32:59Z</time>
      </trkpt>
      <trkpt lat="48.15791" lon="-3.6264">
        <ele>166.4</ele>
        <time>2023-04-05T12:33:00Z</time>
      </trkpt>
      <trkpt lat="48.158" lon="-3.62636">
        <ele>165.8</ele>
        <time>2023-04-05T12:33:01Z</time>
      </trkpt>
      <trkpt lat="48.15809" lon="-3.62632">
        <ele>165.3</ele>
        <time>2023-04-05T12:33:02Z</time>
      </trkpt>
      <trkpt lat="48.15817" lon="-3.62625">
        <ele>164.9</ele>
        <time>2023-04-05T12:33:03Z</time>
      </trkpt>
      <trkpt lat="48.15826" lon="-3.62619">
        <ele>164.5</ele>
        <time>2023-04-05T12:33:04Z</time>
      </trkpt>
      <trkpt lat="48.15834" lon="-3.62611">
        <ele>164.3</ele>
        <time>2023-04-05T12:33:05Z</time>
      </trkpt>
      <trkpt lat="48.15841" lon="-3.62602">
        <ele>164.2</ele>
        <time>2023-04-05T12:33:06Z</time>
      </trkpt>
      <trkpt lat="48.15848" lon="-3.62593">
        <ele>164.2</ele>
        <time>2023-04-05T12:33:07Z</time>
      </trkpt>
      <trkpt lat="48.15855" lon="-3.62584">
        <ele>164.2</ele>
        <time>2023-04-05T12:33:08Z</time>
      </trkpt>
      <trkpt lat="48.1586" lon="-3.62573">
        <ele>164.2</ele>
        <time>2023-04-05T12:33:09Z</time>
      </trkpt>
      <trkpt lat="48.15866" lon="-3.62563">
        <ele>164.3</ele>
        <time>2023-04-05T12:33:10Z</time>
      </trkpt>
      <trkpt lat="48.15872" lon="-3.62552">
        <ele>164.3</ele>
        <time>2023-04-05T12:33:11Z</time>
      </trkpt>
      <trkpt lat="48.15877" lon="-3.62542">
        <ele>164.4</ele>
        <time>2023-04-05T12:33:12Z</time>
      </trkpt>
      <trkpt lat="48.15881" lon="-3.62532">
        <ele>164.5</ele>
        <time>2023-04-05T12:33:13Z</time>
      </trkpt>
      <trkpt lat="48.15886" lon="-3.62523">
        <ele>164.7</ele>
        <time>2023-04-05T12:33:14Z</time>
      </trkpt>
      <trkpt lat="48.15891" lon="-3.62513">
        <ele>165</ele>
        <time>2023-04-05T12:33:15Z</time>
      </trkpt>
      <trkpt lat="48.15895" lon="-3.62504">
        <ele>165.5</ele>
        <time>2023-04-05T12:33:16Z</time>
      </trkpt>
      <trkpt lat="48.15899" lon="-3.62496">
        <ele>166.1</ele>
        <time>2023-04-05T12:33:17Z</time>
      </trkpt>
      <trkpt lat="48.15903" lon="-3.62488">
        <ele>166.6</ele>
        <time>2023-04-05T12:33:18Z</time>
      </trkpt>
      <trkpt lat="48.15908" lon="-3.62482">
        <ele>167.2</ele>
        <time>2023-04-05T12:33:19Z</time>
      </trkpt>
      <trkpt lat="48.15911" lon="-3.62475">
        <ele>167.6</ele>
        <time>2023-04-05T12:33:20Z</time>
      </trkpt>
      <trkpt lat="48.15915" lon="-3.62469">
        <ele>168</ele>
        <time>2023-04-05T12:33:21Z</time>
      </trkpt>
      <trkpt lat="48.15919" lon="-3.62464">
        <ele>168.4</ele>
        <time>2023-04-05T12:33:22Z</time>
      </trkpt>
      <trkpt lat="48.15922" lon="-3.62459">
        <ele>168.8</ele>
        <time>2023-04-05T12:33:23Z</time>
      </trkpt>
      <trkpt lat="48.15925" lon="-3.62454">
        <ele>169.1</ele>
        <time>2023-04-05T12:33:24Z</time>
      </trkpt>
      <trkpt lat="48.15928" lon="-3.62451">
        <ele>169.4</ele>
        <time>2023-04-05T12:33:25Z</time>
      </trkpt>
      <trkpt lat="48.15931" lon="-3.62447">
        <ele>169.8</ele>
        <time>2023-04-05T12:33:26Z</time>
      </trkpt>
      <trkpt lat="48.15934" lon="-3.62444">
        <ele>170.2</ele>
        <time>2023-04-05T12:33:27Z</time>
      </trkpt>
      <trkpt lat="48.15938" lon="-3.6244">
        <ele>170.8</ele>
        <time>2023-04-05T12:33:28Z</time>
      </trkpt>
      <trkpt lat="48.15939" lon="-3.62439">
        <ele>171</ele>
        <time>2023-04-05T12:33:29Z</time>
      </trkpt>
      <trkpt lat="48.15942" lon="-3.62437">
        <ele>171.5</ele>
        <time>2023-04-05T12:33:30Z</time>
      </trkpt>
      <trkpt lat="48.15945" lon="-3.62433">
        <ele>172.1</ele>
        <time>2023-04-05T12:33:31Z</time>
      </trkpt>
      <trkpt lat="48.15948" lon="-3.62431">
        <ele>172.6</ele>
        <time>2023-04-05T12:33:33Z</time>
      </trkpt>
      <trkpt lat="48.15951" lon="-3.62429">
        <ele>173</ele>
        <time>2023-04-05T12:33:34Z</time>
      </trkpt>
      <trkpt lat="48.15954" lon="-3.62427">
        <ele>173.5</ele>
        <time>2023-04-05T12:33:35Z</time>
      </trkpt>
      <trkpt lat="48.15957" lon="-3.62425">
        <ele>173.8</ele>
        <time>2023-04-05T12:33:36Z</time>
      </trkpt>
      <trkpt lat="48.15959" lon="-3.62422">
        <ele>174.1</ele>
        <time>2023-04-05T12:33:37Z</time>
      </trkpt>
      <trkpt lat="48.15964" lon="-3.62418">
        <ele>174.7</ele>
        <time>2023-04-05T12:33:38Z</time>
      </trkpt>
      <trkpt lat="48.15967" lon="-3.62417">
        <ele>175</ele>
        <time>2023-04-05T12:33:40Z</time>
      </trkpt>
      <trkpt lat="48.15969" lon="-3.62416">
        <ele>175.3</ele>
        <time>2023-04-05T12:33:41Z</time>
      </trkpt>
      <trkpt lat="48.15972" lon="-3.62414">
        <ele>175.5</ele>
        <time>2023-04-05T12:33:42Z</time>
      </trkpt>
      <trkpt lat="48.15976" lon="-3.62412">
        <ele>175.9</ele>
        <time>2023-04-05T12:33:43Z</time>
      </trkpt>
      <trkpt lat="48.15977" lon="-3.62412">
        <ele>176</ele>
        <time>2023-04-05T12:33:44Z</time>
      </trkpt>
      <trkpt lat="48.15981" lon="-3.6241">
        <ele>176.4</ele>
        <time>2023-04-05T12:33:45Z</time>
      </trkpt>
      <trkpt lat="48.15982" lon="-3.62409">
        <ele>176.6</ele>
        <time>2023-04-05T12:33:46Z</time>
      </trkpt>
      <trkpt lat="48.15985" lon="-3.62408">
        <ele>176.9</ele>
        <time>2023-04-05T12:33:47Z</time>
      </trkpt>
      <trkpt lat="48.15989" lon="-3.62406">
        <ele>177.2</ele>
        <time>2023-04-05T12:33:48Z</time>
      </trkpt>
      <trkpt lat="48.1599" lon="-3.62405">
        <ele>177.4</ele>
        <time>2023-04-05T12:33:49Z</time>
      </trkpt>
      <trkpt lat="48.15994" lon="-3.62403">
        <ele>177.7</ele>
        <time>2023-04-05T12:33:50Z</time>
      </trkpt>
      <trkpt lat="48.15995" lon="-3.62403">
        <ele>177.9</ele>
        <time>2023-04-05T12:33:51Z</time>
      </trkpt>
      <trkpt lat="48.15997" lon="-3.62401">
        <ele>178.1</ele>
        <time>2023-04-05T12:33:52Z</time>
      </trkpt>
      <trkpt lat="48.16001" lon="-3.624">
        <ele>178.2</ele>
        <time>2023-04-05T12:33:53Z</time>
      </trkpt>
      <trkpt lat="48.16002" lon="-3.624">
        <ele>178.3</ele>
        <time>2023-04-05T12:33:54Z</time>
      </trkpt>
      <trkpt lat="48.16005" lon="-3.62399">
        <ele>178.4</ele>
        <time>2023-04-05T12:33:55Z</time>
      </trkpt>
      <trkpt lat="48.16009" lon="-3.62399">
        <ele>178.6</ele>
        <time>2023-04-05T12:33:56Z</time>
      </trkpt>
      <trkpt lat="48.1601" lon="-3.62398">
        <ele>178.6</ele>
        <time>2023-04-05T12:33:57Z</time>
      </trkpt>
      <trkpt lat="48.16013" lon="-3.62397">
        <ele>178.7</ele>
        <time>2023-04-05T12:33:58Z</time>
      </trkpt>
      <trkpt lat="48.16017" lon="-3.62396">
        <ele>178.9</ele>
        <time>2023-04-05T12:33:59Z</time>
      </trkpt>
      <trkpt lat="48.16019" lon="-3.62395">
        <ele>179</ele>
        <time>2023-04-05T12:34:00Z</time>
      </trkpt>
      <trkpt lat="48.16022" lon="-3.62395">
        <ele>179.2</ele>
        <time>2023-04-05T12:34:01Z</time>
      </trkpt>
      <trkpt lat="48.16026" lon="-3.62394">
        <ele>179.6</ele>
        <time>2023-04-05T12:34:02Z</time>
      </trkpt>
      <trkpt lat="48.16029" lon="-3.62394">
        <ele>179.9</ele>
        <time>2023-04-05T12:34:04Z</time>
      </trkpt>
      <trkpt lat="48.16031" lon="-3.62395">
        <ele>180</ele>
        <time>2023-04-05T12:34:05Z</time>
      </trkpt>
      <trkpt lat="48.16036" lon="-3.62395">
        <ele>180.4</ele>
        <time>2023-04-05T12:34:06Z</time>
      </trkpt>
      <trkpt lat="48.16039" lon="-3.62395">
        <ele>180.7</ele>
        <time>2023-04-05T12:34:07Z</time>
      </trkpt>
      <trkpt lat="48.16044" lon="-3.62396">
        <ele>181.1</ele>
        <time>2023-04-05T12:34:09Z</time>
      </trkpt>
      <trkpt lat="48.16046" lon="-3.62395">
        <ele>181.2</ele>
        <time>2023-04-05T12:34:10Z</time>
      </trkpt>
      <trkpt lat="48.16047" lon="-3.62395">
        <ele>181.4</ele>
        <time>2023-04-05T12:34:11Z</time>
      </trkpt>
      <trkpt lat="48.16052" lon="-3.62395">
        <ele>181.7</ele>
        <time>2023-04-05T12:34:12Z</time>
      </trkpt>
      <trkpt lat="48.16057" lon="-3.62395">
        <ele>182.1</ele>
        <time>2023-04-05T12:34:14Z</time>
      </trkpt>
      <trkpt lat="48.16059" lon="-3.62396">
        <ele>182.3</ele>
        <time>2023-04-05T12:34:15Z</time>
      </trkpt>
      <trkpt lat="48.1606" lon="-3.62396">
        <ele>182.4</ele>
        <time>2023-04-05T12:34:16Z</time>
      </trkpt>
      <trkpt lat="48.16063" lon="-3.62396">
        <ele>182.6</ele>
        <time>2023-04-05T12:34:17Z</time>
      </trkpt>
      <trkpt lat="48.16067" lon="-3.62396">
        <ele>183</ele>
        <time>2023-04-05T12:34:18Z</time>
      </trkpt>
      <trkpt lat="48.16068" lon="-3.62396">
        <ele>183.1</ele>
        <time>2023-04-05T12:34:19Z</time>
      </trkpt>
      <trkpt lat="48.16071" lon="-3.62397">
        <ele>183.3</ele>
        <time>2023-04-05T12:34:20Z</time>
      </trkpt>
      <trkpt lat="48.16075" lon="-3.62397">
        <ele>183.6</ele>
        <time>2023-04-05T12:34:21Z</time>
      </trkpt>
      <trkpt lat="48.16076" lon="-3.62397">
        <ele>183.7</ele>
        <time>2023-04-05T12:34:22Z</time>
      </trkpt>
      <trkpt lat="48.16081" lon="-3.62397">
        <ele>184.2</ele>
        <time>2023-04-05T12:34:23Z</time>
      </trkpt>
      <trkpt lat="48.16083" lon="-3.62397">
        <ele>184.4</ele>
        <time>2023-04-05T12:34:24Z</time>
      </trkpt>
      <trkpt lat="48.16086" lon="-3.62397">
        <ele>184.7</ele>
        <time>2023-04-05T12:34:26Z</time>
      </trkpt>
      <trkpt lat="48.1609" lon="-3.62396">
        <ele>185</ele>
        <time>2023-04-05T12:34:27Z</time>
      </trkpt>
      <trkpt lat="48.16091" lon="-3.62396">
        <ele>185.2</ele>
        <time>2023-04-05T12:34:28Z</time>
      </trkpt>
      <trkpt lat="48.16095" lon="-3.62396">
        <ele>185.5</ele>
        <time>2023-04-05T12:34:29Z</time>
      </trkpt>
      <trkpt lat="48.16096" lon="-3.62396">
        <ele>185.6</ele>
        <time>2023-04-05T12:34:30Z</time>
      </trkpt>
      <trkpt lat="48.161" lon="-3.62396">
        <ele>186</ele>
        <time>2023-04-05T12:34:31Z</time>
      </trkpt>
      <trkpt lat="48.16101" lon="-3.62396">
        <ele>186.1</ele>
        <time>2023-04-05T12:34:32Z</time>
      </trkpt>
      <trkpt lat="48.16104" lon="-3.62396">
        <ele>186.4</ele>
        <time>2023-04-05T12:34:33Z</time>
      </trkpt>
      <trkpt lat="48.16108" lon="-3.62396">
        <ele>186.7</ele>
        <time>2023-04-05T12:34:34Z</time>
      </trkpt>
      <trkpt lat="48.16109" lon="-3.62395">
        <ele>186.8</ele>
        <time>2023-04-05T12:34:35Z</time>
      </trkpt>
      <trkpt lat="48.16113" lon="-3.62394">
        <ele>187.1</ele>
        <time>2023-04-05T12:34:36Z</time>
      </trkpt>
      <trkpt lat="48.16114" lon="-3.62394">
        <ele>187.3</ele>
        <time>2023-04-05T12:34:37Z</time>
      </trkpt>
      <trkpt lat="48.16118" lon="-3.62394">
        <ele>187.5</ele>
        <time>2023-04-05T12:34:38Z</time>
      </trkpt>
      <trkpt lat="48.16119" lon="-3.62394">
        <ele>187.6</ele>
        <time>2023-04-05T12:34:39Z</time>
      </trkpt>
      <trkpt lat="48.16121" lon="-3.62393">
        <ele>187.9</ele>
        <time>2023-04-05T12:34:40Z</time>
      </trkpt>
      <trkpt lat="48.16125" lon="-3.62392">
        <ele>188.2</ele>
        <time>2023-04-05T12:34:41Z</time>
      </trkpt>
      <trkpt lat="48.16126" lon="-3.62392">
        <ele>188.3</ele>
        <time>2023-04-05T12:34:42Z</time>
      </trkpt>
      <trkpt lat="48.16129" lon="-3.6239">
        <ele>188.6</ele>
        <time>2023-04-05T12:34:43Z</time>
      </trkpt>
      <trkpt lat="48.16132" lon="-3.62389">
        <ele>188.8</ele>
        <time>2023-04-05T12:34:44Z</time>
      </trkpt>
      <trkpt lat="48.16135" lon="-3.62388">
        <ele>189.1</ele>
        <time>2023-04-05T12:34:45Z</time>
      </trkpt>
      <trkpt lat="48.16136" lon="-3.62387">
        <ele>189.2</ele>
        <time>2023-04-05T12:34:46Z</time>
      </trkpt>
      <trkpt lat="48.1614" lon="-3.62385">
        <ele>189.6</ele>
        <time>2023-04-05T12:34:47Z</time>
      </trkpt>
      <trkpt lat="48.16141" lon="-3.62385">
        <ele>189.7</ele>
        <time>2023-04-05T12:34:48Z</time>
      </trkpt>
      <trkpt lat="48.16144" lon="-3.62384">
        <ele>189.9</ele>
        <time>2023-04-05T12:34:49Z</time>
      </trkpt>
      <trkpt lat="48.16147" lon="-3.62382">
        <ele>190.3</ele>
        <time>2023-04-05T12:34:50Z</time>
      </trkpt>
      <trkpt lat="48.16149" lon="-3.62381">
        <ele>190.4</ele>
        <time>2023-04-05T12:34:51Z</time>
      </trkpt>
      <trkpt lat="48.16152" lon="-3.62379">
        <ele>190.7</ele>
        <time>2023-04-05T12:34:52Z</time>
      </trkpt>
      <trkpt lat="48.16153" lon="-3.62378">
        <ele>190.8</ele>
        <time>2023-04-05T12:34:53Z</time>
      </trkpt>
      <trkpt lat="48.16156" lon="-3.62376">
        <ele>191.1</ele>
        <time>2023-04-05T12:34:54Z</time>
      </trkpt>
      <trkpt lat="48.16157" lon="-3.62375">
        <ele>191.2</ele>
        <time>2023-04-05T12:34:55Z</time>
      </trkpt>
      <trkpt lat="48.16161" lon="-3.62373">
        <ele>191.5</ele>
        <time>2023-04-05T12:34:56Z</time>
      </trkpt>
      <trkpt lat="48.16162" lon="-3.62373">
        <ele>191.7</ele>
        <time>2023-04-05T12:34:57Z</time>
      </trkpt>
      <trkpt lat="48.16165" lon="-3.62371">
        <ele>191.9</ele>
        <time>2023-04-05T12:34:58Z</time>
      </trkpt>
      <trkpt lat="48.16169" lon="-3.62368">
        <ele>192.3</ele>
        <time>2023-04-05T12:35:00Z</time>
      </trkpt>
      <trkpt lat="48.16172" lon="-3.62365">
        <ele>192.6</ele>
        <time>2023-04-05T12:35:01Z</time>
      </trkpt>
      <trkpt lat="48.16177" lon="-3.62361">
        <ele>193.1</ele>
        <time>2023-04-05T12:35:03Z</time>
      </trkpt>
      <trkpt lat="48.16178" lon="-3.6236">
        <ele>193.2</ele>
        <time>2023-04-05T12:35:04Z</time>
      </trkpt>
      <trkpt lat="48.1618" lon="-3.62358">
        <ele>193.4</ele>
        <time>2023-04-05T12:35:05Z</time>
      </trkpt>
      <trkpt lat="48.16184" lon="-3.62355">
        <ele>193.7</ele>
        <time>2023-04-05T12:35:06Z</time>
      </trkpt>
      <trkpt lat="48.16187" lon="-3.62353">
        <ele>193.9</ele>
        <time>2023-04-05T12:35:07Z</time>
      </trkpt>
      <trkpt lat="48.16189" lon="-3.62351">
        <ele>194</ele>
        <time>2023-04-05T12:35:09Z</time>
      </trkpt>
      <trkpt lat="48.16192" lon="-3.62348">
        <ele>194.1</ele>
        <time>2023-04-05T12:35:10Z</time>
      </trkpt>
      <trkpt lat="48.16193" lon="-3.62347">
        <ele>194.2</ele>
        <time>2023-04-05T12:35:11Z</time>
      </trkpt>
      <trkpt lat="48.16195" lon="-3.62344">
        <ele>194.3</ele>
        <time>2023-04-05T12:35:12Z</time>
      </trkpt>
      <trkpt lat="48.162" lon="-3.62339">
        <ele>194.5</ele>
        <time>2023-04-05T12:35:13Z</time>
      </trkpt>
      <trkpt lat="48.16202" lon="-3.62336">
        <ele>194.6</ele>
        <time>2023-04-05T12:35:14Z</time>
      </trkpt>
      <trkpt lat="48.16204" lon="-3.62333">
        <ele>194.7</ele>
        <time>2023-04-05T12:35:16Z</time>
      </trkpt>
      <trkpt lat="48.16206" lon="-3.62329">
        <ele>194.9</ele>
        <time>2023-04-05T12:35:17Z</time>
      </trkpt>
      <trkpt lat="48.1621" lon="-3.62323">
        <ele>195.1</ele>
        <time>2023-04-05T12:35:18Z</time>
      </trkpt>
      <trkpt lat="48.16212" lon="-3.6232">
        <ele>195.3</ele>
        <time>2023-04-05T12:35:19Z</time>
      </trkpt>
      <trkpt lat="48.16215" lon="-3.62314">
        <ele>195.5</ele>
        <time>2023-04-05T12:35:21Z</time>
      </trkpt>
      <trkpt lat="48.16217" lon="-3.62311">
        <ele>195.7</ele>
        <time>2023-04-05T12:35:23Z</time>
      </trkpt>
      <trkpt lat="48.16219" lon="-3.62308">
        <ele>195.8</ele>
        <time>2023-04-05T12:35:24Z</time>
      </trkpt>
      <trkpt lat="48.16223" lon="-3.62301">
        <ele>196.1</ele>
        <time>2023-04-05T12:35:25Z</time>
      </trkpt>
      <trkpt lat="48.16224" lon="-3.62298">
        <ele>196.2</ele>
        <time>2023-04-05T12:35:27Z</time>
      </trkpt>
      <trkpt lat="48.16226" lon="-3.62294">
        <ele>196.3</ele>
        <time>2023-04-05T12:35:28Z</time>
      </trkpt>
      <trkpt lat="48.16228" lon="-3.62291">
        <ele>196.4</ele>
        <time>2023-04-05T12:35:29Z</time>
      </trkpt>
      <trkpt lat="48.16229" lon="-3.62287">
        <ele>196.6</ele>
        <time>2023-04-05T12:35:30Z</time>
      </trkpt>
      <trkpt lat="48.16231" lon="-3.62284">
        <ele>196.7</ele>
        <time>2023-04-05T12:35:31Z</time>
      </trkpt>
      <trkpt lat="48.16233" lon="-3.6228">
        <ele>196.8</ele>
        <time>2023-04-05T12:35:32Z</time>
      </trkpt>
      <trkpt lat="48.16234" lon="-3.62276">
        <ele>196.9</ele>
        <time>2023-04-05T12:35:33Z</time>
      </trkpt>
      <trkpt lat="48.16236" lon="-3.62272">
        <ele>197.1</ele>
        <time>2023-04-05T12:35:34Z</time>
      </trkpt>
      <trkpt lat="48.16238" lon="-3.62268">
        <ele>197.2</ele>
        <time>2023-04-05T12:35:35Z</time>
      </trkpt>
      <trkpt lat="48.16239" lon="-3.62265">
        <ele>197.3</ele>
        <time>2023-04-05T12:35:36Z</time>
      </trkpt>
      <trkpt lat="48.16243" lon="-3.62257">
        <ele>197.6</ele>
        <time>2023-04-05T12:35:37Z</time>
      </trkpt>
      <trkpt lat="48.16245" lon="-3.62254">
        <ele>197.7</ele>
        <time>2023-04-05T12:35:39Z</time>
      </trkpt>
      <trkpt lat="48.16246" lon="-3.6225">
        <ele>197.8</ele>
        <time>2023-04-05T12:35:40Z</time>
      </trkpt>
      <trkpt lat="48.16248" lon="-3.62246">
        <ele>198</ele>
        <time>2023-04-05T12:35:41Z</time>
      </trkpt>
      <trkpt lat="48.16249" lon="-3.62242">
        <ele>198.1</ele>
        <time>2023-04-05T12:35:42Z</time>
      </trkpt>
      <trkpt lat="48.16252" lon="-3.62234">
        <ele>198.4</ele>
        <time>2023-04-05T12:35:43Z</time>
      </trkpt>
      <trkpt lat="48.16255" lon="-3.62225">
        <ele>198.6</ele>
        <time>2023-04-05T12:35:45Z</time>
      </trkpt>
      <trkpt lat="48.16259" lon="-3.62218">
        <ele>198.9</ele>
        <time>2023-04-05T12:35:47Z</time>
      </trkpt>
      <trkpt lat="48.16262" lon="-3.6221">
        <ele>199.1</ele>
        <time>2023-04-05T12:35:49Z</time>
      </trkpt>
      <trkpt lat="48.16263" lon="-3.62205">
        <ele>199.2</ele>
        <time>2023-04-05T12:35:50Z</time>
      </trkpt>
      <trkpt lat="48.16264" lon="-3.62201">
        <ele>199.3</ele>
        <time>2023-04-05T12:35:52Z</time>
      </trkpt>
      <trkpt lat="48.16266" lon="-3.62197">
        <ele>199.4</ele>
        <time>2023-04-05T12:35:53Z</time>
      </trkpt>
      <trkpt lat="48.16268" lon="-3.62193">
        <ele>199.5</ele>
        <time>2023-04-05T12:35:54Z</time>
      </trkpt>
      <trkpt lat="48.16269" lon="-3.62189">
        <ele>199.6</ele>
        <time>2023-04-05T12:35:55Z</time>
      </trkpt>
      <trkpt lat="48.16271" lon="-3.62185">
        <ele>199.7</ele>
        <time>2023-04-05T12:35:56Z</time>
      </trkpt>
      <trkpt lat="48.16273" lon="-3.6218">
        <ele>199.8</ele>
        <time>2023-04-05T12:35:57Z</time>
      </trkpt>
      <trkpt lat="48.16274" lon="-3.62176">
        <ele>199.9</ele>
        <time>2023-04-05T12:35:58Z</time>
      </trkpt>
      <trkpt lat="48.16275" lon="-3.62172">
        <ele>200</ele>
        <time>2023-04-05T12:35:59Z</time>
      </trkpt>
      <trkpt lat="48.16277" lon="-3.62168">
        <ele>200.1</ele>
        <time>2023-04-05T12:36:00Z</time>
      </trkpt>
      <trkpt lat="48.16278" lon="-3.62163">
        <ele>200.2</ele>
        <time>2023-04-05T12:36:01Z</time>
      </trkpt>
      <trkpt lat="48.1628" lon="-3.62159">
        <ele>200.3</ele>
        <time>2023-04-05T12:36:02Z</time>
      </trkpt>
      <trkpt lat="48.16281" lon="-3.62155">
        <ele>200.4</ele>
        <time>2023-04-05T12:36:03Z</time>
      </trkpt>
      <trkpt lat="48.16283" lon="-3.62151">
        <ele>200.4</ele>
        <time>2023-04-05T12:36:04Z</time>
      </trkpt>
      <trkpt lat="48.16285" lon="-3.62146">
        <ele>200.5</ele>
        <time>2023-04-05T12:36:05Z</time>
      </trkpt>
      <trkpt lat="48.16286" lon="-3.62142">
        <ele>200.6</ele>
        <time>2023-04-05T12:36:06Z</time>
      </trkpt>
      <trkpt lat="48.16288" lon="-3.62137">
        <ele>200.7</ele>
        <time>2023-04-05T12:36:07Z</time>
      </trkpt>
      <trkpt lat="48.16289" lon="-3.62133">
        <ele>200.8</ele>
        <time>2023-04-05T12:36:08Z</time>
      </trkpt>
      <trkpt lat="48.16291" lon="-3.62128">
        <ele>200.9</ele>
        <time>2023-04-05T12:36:09Z</time>
      </trkpt>
      <trkpt lat="48.16293" lon="-3.62124">
        <ele>200.9</ele>
        <time>2023-04-05T12:36:10Z</time>
      </trkpt>
      <trkpt lat="48.16295" lon="-3.62119">
        <ele>201</ele>
        <time>2023-04-05T12:36:11Z</time>
      </trkpt>
      <trkpt lat="48.16297" lon="-3.62114">
        <ele>201.1</ele>
        <time>2023-04-05T12:36:12Z</time>
      </trkpt>
      <trkpt lat="48.16299" lon="-3.6211">
        <ele>201.1</ele>
        <time>2023-04-05T12:36:13Z</time>
      </trkpt>
      <trkpt lat="48.16301" lon="-3.62106">
        <ele>201.2</ele>
        <time>2023-04-05T12:36:14Z</time>
      </trkpt>
      <trkpt lat="48.16302" lon="-3.62101">
        <ele>201.2</ele>
        <time>2023-04-05T12:36:15Z</time>
      </trkpt>
      <trkpt lat="48.16304" lon="-3.62097">
        <ele>201.3</ele>
        <time>2023-04-05T12:36:16Z</time>
      </trkpt>
      <trkpt lat="48.16306" lon="-3.62092">
        <ele>201.3</ele>
        <time>2023-04-05T12:36:17Z</time>
      </trkpt>
      <trkpt lat="48.16308" lon="-3.62088">
        <ele>201.3</ele>
        <time>2023-04-05T12:36:18Z</time>
      </trkpt>
      <trkpt lat="48.16309" lon="-3.62083">
        <ele>201.4</ele>
        <time>2023-04-05T12:36:19Z</time>
      </trkpt>
      <trkpt lat="48.16311" lon="-3.62078">
        <ele>201.4</ele>
        <time>2023-04-05T12:36:20Z</time>
      </trkpt>
      <trkpt lat="48.16313" lon="-3.62073">
        <ele>201.5</ele>
        <time>2023-04-05T12:36:21Z</time>
      </trkpt>
      <trkpt lat="48.16315" lon="-3.62069">
        <ele>201.6</ele>
        <time>2023-04-05T12:36:22Z</time>
      </trkpt>
      <trkpt lat="48.16317" lon="-3.62064">
        <ele>201.6</ele>
        <time>2023-04-05T12:36:23Z</time>
      </trkpt>
      <trkpt lat="48.16319" lon="-3.62059">
        <ele>201.7</ele>
        <time>2023-04-05T12:36:24Z</time>
      </trkpt>
      <trkpt lat="48.16322" lon="-3.62049">
        <ele>201.8</ele>
        <time>2023-04-05T12:36:25Z</time>
      </trkpt>
      <trkpt lat="48.16326" lon="-3.62039">
        <ele>201.8</ele>
        <time>2023-04-05T12:36:27Z</time>
      </trkpt>
      <trkpt lat="48.16328" lon="-3.62033">
        <ele>201.8</ele>
        <time>2023-04-05T12:36:29Z</time>
      </trkpt>
      <trkpt lat="48.1633" lon="-3.62028">
        <ele>201.9</ele>
        <time>2023-04-05T12:36:30Z</time>
      </trkpt>
      <trkpt lat="48.16332" lon="-3.62023">
        <ele>201.9</ele>
        <time>2023-04-05T12:36:31Z</time>
      </trkpt>
      <trkpt lat="48.16334" lon="-3.62018">
        <ele>201.9</ele>
        <time>2023-04-05T12:36:32Z</time>
      </trkpt>
      <trkpt lat="48.16336" lon="-3.62013">
        <ele>201.9</ele>
        <time>2023-04-05T12:36:33Z</time>
      </trkpt>
      <trkpt lat="48.16338" lon="-3.62009">
        <ele>201.9</ele>
        <time>2023-04-05T12:36:34Z</time>
      </trkpt>
      <trkpt lat="48.1634" lon="-3.62004">
        <ele>202</ele>
        <time>2023-04-05T12:36:35Z</time>
      </trkpt>
      <trkpt lat="48.16341" lon="-3.61999">
        <ele>202</ele>
        <time>2023-04-05T12:36:36Z</time>
      </trkpt>
      <trkpt lat="48.16341" lon="-3.61993">
        <ele>201.9</ele>
        <time>2023-04-05T12:36:37Z</time>
      </trkpt>
      <trkpt lat="48.1634" lon="-3.61987">
        <ele>201.7</ele>
        <time>2023-04-05T12:36:38Z</time>
      </trkpt>
      <trkpt lat="48.16335" lon="-3.61982">
        <ele>201.3</ele>
        <time>2023-04-05T12:36:39Z</time>
      </trkpt>
      <trkpt lat="48.16329" lon="-3.61977">
        <ele>200.8</ele>
        <time>2023-04-05T12:36:40Z</time>
      </trkpt>
      <trkpt lat="48.16324" lon="-3.61972">
        <ele>200.2</ele>
        <time>2023-04-05T12:36:41Z</time>
      </trkpt>
      <trkpt lat="48.16319" lon="-3.61966">
        <ele>199.6</ele>
        <time>2023-04-05T12:36:42Z</time>
      </trkpt>
      <trkpt lat="48.16311" lon="-3.6196">
        <ele>198.8</ele>
        <time>2023-04-05T12:36:43Z</time>
      </trkpt>
      <trkpt lat="48.16304" lon="-3.61953">
        <ele>197.9</ele>
        <time>2023-04-05T12:36:44Z</time>
      </trkpt>
      <trkpt lat="48.16297" lon="-3.61944">
        <ele>197</ele>
        <time>2023-04-05T12:36:45Z</time>
      </trkpt>
      <trkpt lat="48.1629" lon="-3.61934">
        <ele>196</ele>
        <time>2023-04-05T12:36:46Z</time>
      </trkpt>
      <trkpt lat="48.16283" lon="-3.61923">
        <ele>194.9</ele>
        <time>2023-04-05T12:36:47Z</time>
      </trkpt>
      <trkpt lat="48.16277" lon="-3.6191">
        <ele>193.8</ele>
        <time>2023-04-05T12:36:48Z</time>
      </trkpt>
      <trkpt lat="48.16271" lon="-3.61897">
        <ele>192.6</ele>
        <time>2023-04-05T12:36:49Z</time>
      </trkpt>
      <trkpt lat="48.16265" lon="-3.61882">
        <ele>191.3</ele>
        <time>2023-04-05T12:36:50Z</time>
      </trkpt>
      <trkpt lat="48.16259" lon="-3.61866">
        <ele>190.1</ele>
        <time>2023-04-05T12:36:51Z</time>
      </trkpt>
      <trkpt lat="48.16253" lon="-3.6185">
        <ele>189.2</ele>
        <time>2023-04-05T12:36:52Z</time>
      </trkpt>
      <trkpt lat="48.16247" lon="-3.61836">
        <ele>188.8</ele>
        <time>2023-04-05T12:36:53Z</time>
      </trkpt>
      <trkpt lat="48.16242" lon="-3.61822">
        <ele>188.7</ele>
        <time>2023-04-05T12:36:54Z</time>
      </trkpt>
      <trkpt lat="48.16237" lon="-3.61809">
        <ele>188.8</ele>
        <time>2023-04-05T12:36:55Z</time>
      </trkpt>
      <trkpt lat="48.16233" lon="-3.61799">
        <ele>189</ele>
        <time>2023-04-05T12:36:56Z</time>
      </trkpt>
      <trkpt lat="48.1623" lon="-3.61791">
        <ele>189.2</ele>
        <time>2023-04-05T12:36:57Z</time>
      </trkpt>
      <trkpt lat="48.16226" lon="-3.61788">
        <ele>189.4</ele>
        <time>2023-04-05T12:36:58Z</time>
      </trkpt>
      <trkpt lat="48.16221" lon="-3.61789">
        <ele>189.7</ele>
        <time>2023-04-05T12:36:59Z</time>
      </trkpt>
      <trkpt lat="48.16217" lon="-3.61793">
        <ele>189.9</ele>
        <time>2023-04-05T12:37:00Z</time>
      </trkpt>
      <trkpt lat="48.16215" lon="-3.61796">
        <ele>190.1</ele>
        <time>2023-04-05T12:37:01Z</time>
      </trkpt>
      <trkpt lat="48.16213" lon="-3.61801">
        <ele>190.3</ele>
        <time>2023-04-05T12:37:02Z</time>
      </trkpt>
      <trkpt lat="48.16213" lon="-3.61803">
        <ele>190.4</ele>
        <time>2023-04-05T12:37:03Z</time>
      </trkpt>
      <trkpt lat="48.16211" lon="-3.61808">
        <ele>190.6</ele>
        <time>2023-04-05T12:37:04Z</time>
      </trkpt>
      <trkpt lat="48.1621" lon="-3.61811">
        <ele>190.7</ele>
        <time>2023-04-05T12:37:05Z</time>
      </trkpt>
      <trkpt lat="48.16208" lon="-3.61814">
        <ele>190.9</ele>
        <time>2023-04-05T12:37:06Z</time>
      </trkpt>
      <trkpt lat="48.16206" lon="-3.61819">
        <ele>191.1</ele>
        <time>2023-04-05T12:37:07Z</time>
      </trkpt>
      <trkpt lat="48.16205" lon="-3.6182">
        <ele>191.2</ele>
        <time>2023-04-05T12:37:08Z</time>
      </trkpt>
      <trkpt lat="48.16206" lon="-3.61822">
        <ele>191.3</ele>
        <time>2023-04-05T12:37:10Z</time>
      </trkpt>
      <trkpt lat="48.16204" lon="-3.61824">
        <ele>191.5</ele>
        <time>2023-04-05T12:37:11Z</time>
      </trkpt>
      <trkpt lat="48.16201" lon="-3.61827">
        <ele>191.8</ele>
        <time>2023-04-05T12:37:12Z</time>
      </trkpt>
      <trkpt lat="48.162" lon="-3.61828">
        <ele>191.9</ele>
        <time>2023-04-05T12:37:13Z</time>
      </trkpt>
      <trkpt lat="48.162" lon="-3.6183">
        <ele>192</ele>
        <time>2023-04-05T12:37:14Z</time>
      </trkpt>
      <trkpt lat="48.16197" lon="-3.61834">
        <ele>192.4</ele>
        <time>2023-04-05T12:37:15Z</time>
      </trkpt>
      <trkpt lat="48.16196" lon="-3.61837">
        <ele>192.6</ele>
        <time>2023-04-05T12:37:17Z</time>
      </trkpt>
      <trkpt lat="48.16195" lon="-3.61839">
        <ele>192.8</ele>
        <time>2023-04-05T12:37:18Z</time>
      </trkpt>
      <trkpt lat="48.16192" lon="-3.61843">
        <ele>193.2</ele>
        <time>2023-04-05T12:37:19Z</time>
      </trkpt>
      <trkpt lat="48.1619" lon="-3.61844">
        <ele>193.4</ele>
        <time>2023-04-05T12:37:20Z</time>
      </trkpt>
      <trkpt lat="48.16188" lon="-3.61847">
        <ele>193.7</ele>
        <time>2023-04-05T12:37:22Z</time>
      </trkpt>
      <trkpt lat="48.16186" lon="-3.61848">
        <ele>193.9</ele>
        <time>2023-04-05T12:37:24Z</time>
      </trkpt>
      <trkpt lat="48.16185" lon="-3.61849">
        <ele>194.1</ele>
        <time>2023-04-05T12:37:25Z</time>
      </trkpt>
      <trkpt lat="48.16183" lon="-3.61853">
        <ele>194.5</ele>
        <time>2023-04-05T12:37:26Z</time>
      </trkpt>
      <trkpt lat="48.16182" lon="-3.61854">
        <ele>194.6</ele>
        <time>2023-04-05T12:37:27Z</time>
      </trkpt>
      <trkpt lat="48.16179" lon="-3.61857">
        <ele>195</ele>
        <time>2023-04-05T12:37:29Z</time>
      </trkpt>
      <trkpt lat="48.16178" lon="-3.61858">
        <ele>195.1</ele>
        <time>2023-04-05T12:37:30Z</time>
      </trkpt>
      <trkpt lat="48.16178" lon="-3.61858">
        <ele>195.3</ele>
        <time>2023-04-05T12:37:31Z</time>
      </trkpt>
      <trkpt lat="48.16177" lon="-3.61859">
        <ele>195.4</ele>
        <time>2023-04-05T12:37:32Z</time>
      </trkpt>
      <trkpt lat="48.16174" lon="-3.61862">
        <ele>195.9</ele>
        <time>2023-04-05T12:37:33Z</time>
      </trkpt>
      <trkpt lat="48.16171" lon="-3.61863">
        <ele>196.3</ele>
        <time>2023-04-05T12:37:35Z</time>
      </trkpt>
      <trkpt lat="48.1617" lon="-3.61864">
        <ele>196.4</ele>
        <time>2023-04-05T12:37:36Z</time>
      </trkpt>
      <trkpt lat="48.16168" lon="-3.61865">
        <ele>196.7</ele>
        <time>2023-04-05T12:37:37Z</time>
      </trkpt>
      <trkpt lat="48.16167" lon="-3.61866">
        <ele>196.9</ele>
        <time>2023-04-05T12:37:38Z</time>
      </trkpt>
      <trkpt lat="48.16165" lon="-3.61866">
        <ele>197.1</ele>
        <time>2023-04-05T12:37:39Z</time>
      </trkpt>
      <trkpt lat="48.16164" lon="-3.61867">
        <ele>197.3</ele>
        <time>2023-04-05T12:37:40Z</time>
      </trkpt>
      <trkpt lat="48.16162" lon="-3.61868">
        <ele>197.6</ele>
        <time>2023-04-05T12:37:41Z</time>
      </trkpt>
      <trkpt lat="48.16159" lon="-3.6187">
        <ele>198</ele>
        <time>2023-04-05T12:37:42Z</time>
      </trkpt>
      <trkpt lat="48.16158" lon="-3.61871">
        <ele>198.1</ele>
        <time>2023-04-05T12:37:43Z</time>
      </trkpt>
      <trkpt lat="48.16157" lon="-3.61872">
        <ele>198.3</ele>
        <time>2023-04-05T12:37:44Z</time>
      </trkpt>
      <trkpt lat="48.16155" lon="-3.61872">
        <ele>198.6</ele>
        <time>2023-04-05T12:37:45Z</time>
      </trkpt>
      <trkpt lat="48.16153" lon="-3.61872">
        <ele>198.9</ele>
        <time>2023-04-05T12:37:46Z</time>
      </trkpt>
      <trkpt lat="48.16152" lon="-3.61873">
        <ele>199</ele>
        <time>2023-04-05T12:37:47Z</time>
      </trkpt>
      <trkpt lat="48.16151" lon="-3.61873">
        <ele>199.1</ele>
        <time>2023-04-05T12:37:48Z</time>
      </trkpt>
      <trkpt lat="48.16149" lon="-3.61875">
        <ele>199.5</ele>
        <time>2023-04-05T12:37:49Z</time>
      </trkpt>
      <trkpt lat="48.16147" lon="-3.61876">
        <ele>199.7</ele>
        <time>2023-04-05T12:37:50Z</time>
      </trkpt>
      <trkpt lat="48.16146" lon="-3.61877">
        <ele>199.9</ele>
        <time>2023-04-05T12:37:51Z</time>
      </trkpt>
      <trkpt lat="48.16144" lon="-3.61878">
        <ele>200.1</ele>
        <time>2023-04-05T12:37:52Z</time>
      </trkpt>
      <trkpt lat="48.16142" lon="-3.61879">
        <ele>200.4</ele>
        <time>2023-04-05T12:37:53Z</time>
      </trkpt>
      <trkpt lat="48.1614" lon="-3.6188">
        <ele>200.7</ele>
        <time>2023-04-05T12:37:54Z</time>
      </trkpt>
      <trkpt lat="48.16139" lon="-3.61881">
        <ele>200.8</ele>
        <time>2023-04-05T12:37:55Z</time>
      </trkpt>
      <trkpt lat="48.16136" lon="-3.61882">
        <ele>201.1</ele>
        <time>2023-04-05T12:37:56Z</time>
      </trkpt>
      <trkpt lat="48.16135" lon="-3.61882">
        <ele>201.2</ele>
        <time>2023-04-05T12:37:57Z</time>
      </trkpt>
      <trkpt lat="48.16134" lon="-3.61883">
        <ele>201.4</ele>
        <time>2023-04-05T12:37:58Z</time>
      </trkpt>
      <trkpt lat="48.16132" lon="-3.61884">
        <ele>201.6</ele>
        <time>2023-04-05T12:37:59Z</time>
      </trkpt>
      <trkpt lat="48.1613" lon="-3.61886">
        <ele>201.9</ele>
        <time>2023-04-05T12:38:00Z</time>
      </trkpt>
      <trkpt lat="48.16129" lon="-3.61887">
        <ele>202</ele>
        <time>2023-04-05T12:38:01Z</time>
      </trkpt>
      <trkpt lat="48.16128" lon="-3.61888">
        <ele>202.2</ele>
        <time>2023-04-05T12:38:02Z</time>
      </trkpt>
      <trkpt lat="48.16127" lon="-3.6189">
        <ele>202.4</ele>
        <time>2023-04-05T12:38:03Z</time>
      </trkpt>
      <trkpt lat="48.16125" lon="-3.61891">
        <ele>202.7</ele>
        <time>2023-04-05T12:38:04Z</time>
      </trkpt>
      <trkpt lat="48.16124" lon="-3.61891">
        <ele>202.8</ele>
        <time>2023-04-05T12:38:05Z</time>
      </trkpt>
      <trkpt lat="48.16123" lon="-3.61892">
        <ele>202.9</ele>
        <time>2023-04-05T12:38:06Z</time>
      </trkpt>
      <trkpt lat="48.16122" lon="-3.61892">
        <ele>203</ele>
        <time>2023-04-05T12:38:07Z</time>
      </trkpt>
      <trkpt lat="48.16121" lon="-3.61893">
        <ele>203.2</ele>
        <time>2023-04-05T12:38:08Z</time>
      </trkpt>
      <trkpt lat="48.16119" lon="-3.61894">
        <ele>203.5</ele>
        <time>2023-04-05T12:38:09Z</time>
      </trkpt>
      <trkpt lat="48.16118" lon="-3.61895">
        <ele>203.7</ele>
        <time>2023-04-05T12:38:10Z</time>
      </trkpt>
      <trkpt lat="48.16116" lon="-3.61896">
        <ele>203.9</ele>
        <time>2023-04-05T12:38:11Z</time>
      </trkpt>
      <trkpt lat="48.16115" lon="-3.61897">
        <ele>204</ele>
        <time>2023-04-05T12:38:12Z</time>
      </trkpt>
      <trkpt lat="48.16113" lon="-3.61898">
        <ele>204.2</ele>
        <time>2023-04-05T12:38:13Z</time>
      </trkpt>
      <trkpt lat="48.16112" lon="-3.61899">
        <ele>204.4</ele>
        <time>2023-04-05T12:38:14Z</time>
      </trkpt>
      <trkpt lat="48.1611" lon="-3.61899">
        <ele>204.6</ele>
        <time>2023-04-05T12:38:15Z</time>
      </trkpt>
      <trkpt lat="48.16109" lon="-3.619">
        <ele>204.8</ele>
        <time>2023-04-05T12:38:16Z</time>
      </trkpt>
      <trkpt lat="48.16107" lon="-3.619">
        <ele>204.9</ele>
        <time>2023-04-05T12:38:17Z</time>
      </trkpt>
      <trkpt lat="48.16105" lon="-3.61901">
        <ele>205.1</ele>
        <time>2023-04-05T12:38:18Z</time>
      </trkpt>
      <trkpt lat="48.16103" lon="-3.61902">
        <ele>205.4</ele>
        <time>2023-04-05T12:38:19Z</time>
      </trkpt>
      <trkpt lat="48.16102" lon="-3.61902">
        <ele>205.5</ele>
        <time>2023-04-05T12:38:20Z</time>
      </trkpt>
      <trkpt lat="48.16099" lon="-3.61904">
        <ele>205.7</ele>
        <time>2023-04-05T12:38:21Z</time>
      </trkpt>
      <trkpt lat="48.16098" lon="-3.61904">
        <ele>205.8</ele>
        <time>2023-04-05T12:38:22Z</time>
      </trkpt>
      <trkpt lat="48.16094" lon="-3.61903">
        <ele>206.1</ele>
        <time>2023-04-05T12:38:23Z</time>
      </trkpt>
      <trkpt lat="48.16093" lon="-3.61903">
        <ele>206.2</ele>
        <time>2023-04-05T12:38:24Z</time>
      </trkpt>
      <trkpt lat="48.16091" lon="-3.619">
        <ele>207.2</ele>
        <time>2023-04-05T12:38:25Z</time>
      </trkpt>
      <trkpt lat="48.16091" lon="-3.61898">
        <ele>207.2</ele>
        <time>2023-04-05T12:38:26Z</time>
      </trkpt>
      <trkpt lat="48.16091" lon="-3.61893">
        <ele>207.5</ele>
        <time>2023-04-05T12:38:27Z</time>
      </trkpt>
      <trkpt lat="48.16091" lon="-3.61891">
        <ele>207.6</ele>
        <time>2023-04-05T12:38:28Z</time>
      </trkpt>
      <trkpt lat="48.16092" lon="-3.61888">
        <ele>207.8</ele>
        <time>2023-04-05T12:38:29Z</time>
      </trkpt>
      <trkpt lat="48.16094" lon="-3.61883">
        <ele>208.1</ele>
        <time>2023-04-05T12:38:31Z</time>
      </trkpt>
      <trkpt lat="48.16096" lon="-3.61879">
        <ele>208.3</ele>
        <time>2023-04-05T12:38:32Z</time>
      </trkpt>
      <trkpt lat="48.16097" lon="-3.61878">
        <ele>208.4</ele>
        <time>2023-04-05T12:38:33Z</time>
      </trkpt>
      <trkpt lat="48.16099" lon="-3.61875">
        <ele>208.7</ele>
        <time>2023-04-05T12:38:34Z</time>
      </trkpt>
      <trkpt lat="48.161" lon="-3.61874">
        <ele>208.8</ele>
        <time>2023-04-05T12:38:35Z</time>
      </trkpt>
      <trkpt lat="48.16103" lon="-3.61871">
        <ele>209.1</ele>
        <time>2023-04-05T12:38:36Z</time>
      </trkpt>
      <trkpt lat="48.16103" lon="-3.6187">
        <ele>209.2</ele>
        <time>2023-04-05T12:38:37Z</time>
      </trkpt>
      <trkpt lat="48.16105" lon="-3.61867">
        <ele>209.5</ele>
        <time>2023-04-05T12:38:38Z</time>
      </trkpt>
      <trkpt lat="48.16106" lon="-3.61866">
        <ele>209.6</ele>
        <time>2023-04-05T12:38:39Z</time>
      </trkpt>
      <trkpt lat="48.16108" lon="-3.61863">
        <ele>209.9</ele>
        <time>2023-04-05T12:38:40Z</time>
      </trkpt>
      <trkpt lat="48.16108" lon="-3.61862">
        <ele>209.9</ele>
        <time>2023-04-05T12:38:41Z</time>
      </trkpt>
      <trkpt lat="48.1611" lon="-3.6186">
        <ele>210.1</ele>
        <time>2023-04-05T12:38:42Z</time>
      </trkpt>
      <trkpt lat="48.16111" lon="-3.61858">
        <ele>210.3</ele>
        <time>2023-04-05T12:38:43Z</time>
      </trkpt>
      <trkpt lat="48.16112" lon="-3.61856">
        <ele>210.5</ele>
        <time>2023-04-05T12:38:44Z</time>
      </trkpt>
      <trkpt lat="48.16112" lon="-3.61854">
        <ele>210.6</ele>
        <time>2023-04-05T12:38:45Z</time>
      </trkpt>
      <trkpt lat="48.16113" lon="-3.61852">
        <ele>210.9</ele>
        <time>2023-04-05T12:38:46Z</time>
      </trkpt>
      <trkpt lat="48.16114" lon="-3.6185">
        <ele>211</ele>
        <time>2023-04-05T12:38:47Z</time>
      </trkpt>
      <trkpt lat="48.16115" lon="-3.61848">
        <ele>211.2</ele>
        <time>2023-04-05T12:38:48Z</time>
      </trkpt>
      <trkpt lat="48.16116" lon="-3.61845">
        <ele>211.4</ele>
        <time>2023-04-05T12:38:49Z</time>
      </trkpt>
      <trkpt lat="48.16117" lon="-3.61841">
        <ele>211.7</ele>
        <time>2023-04-05T12:38:50Z</time>
      </trkpt>
      <trkpt lat="48.16117" lon="-3.6184">
        <ele>211.9</ele>
        <time>2023-04-05T12:38:51Z</time>
      </trkpt>
      <trkpt lat="48.16117" lon="-3.61838">
        <ele>212</ele>
        <time>2023-04-05T12:38:52Z</time>
      </trkpt>
      <trkpt lat="48.16117" lon="-3.61836">
        <ele>212.1</ele>
        <time>2023-04-05T12:38:53Z</time>
      </trkpt>
      <trkpt lat="48.16116" lon="-3.61833">
        <ele>212.3</ele>
        <time>2023-04-05T12:38:54Z</time>
      </trkpt>
      <trkpt lat="48.16115" lon="-3.61833">
        <ele>212.5</ele>
        <time>2023-04-05T12:38:55Z</time>
      </trkpt>
      <trkpt lat="48.16114" lon="-3.61832">
        <ele>212.6</ele>
        <time>2023-04-05T12:38:56Z</time>
      </trkpt>
      <trkpt lat="48.16112" lon="-3.6183">
        <ele>212.8</ele>
        <time>2023-04-05T12:38:57Z</time>
      </trkpt>
      <trkpt lat="48.16112" lon="-3.61829">
        <ele>212.9</ele>
        <time>2023-04-05T12:38:59Z</time>
      </trkpt>
      <trkpt lat="48.16111" lon="-3.61829">
        <ele>213</ele>
        <time>2023-04-05T12:39:00Z</time>
      </trkpt>
      <trkpt lat="48.16111" lon="-3.61828">
        <ele>213.1</ele>
        <time>2023-04-05T12:39:01Z</time>
      </trkpt>
      <trkpt lat="48.1611" lon="-3.61827">
        <ele>213.2</ele>
        <time>2023-04-05T12:39:02Z</time>
      </trkpt>
      <trkpt lat="48.1611" lon="-3.61827">
        <ele>213.3</ele>
        <time>2023-04-05T12:39:03Z</time>
      </trkpt>
      <trkpt lat="48.16109" lon="-3.61826">
        <ele>213.3</ele>
        <time>2023-04-05T12:39:04Z</time>
      </trkpt>
      <trkpt lat="48.16109" lon="-3.61825">
        <ele>213.4</ele>
        <time>2023-04-05T12:39:05Z</time>
      </trkpt>
      <trkpt lat="48.16108" lon="-3.61824">
        <ele>213.5</ele>
        <time>2023-04-05T12:39:06Z</time>
      </trkpt>
      <trkpt lat="48.16108" lon="-3.61824">
        <ele>213.6</ele>
        <time>2023-04-05T12:39:07Z</time>
      </trkpt>
      <trkpt lat="48.16107" lon="-3.61822">
        <ele>213.7</ele>
        <time>2023-04-05T12:39:08Z</time>
      </trkpt>
      <trkpt lat="48.16105" lon="-3.61821">
        <ele>214</ele>
        <time>2023-04-05T12:39:09Z</time>
      </trkpt>
      <trkpt lat="48.16104" lon="-3.61821">
        <ele>214.1</ele>
        <time>2023-04-05T12:39:11Z</time>
      </trkpt>
      <trkpt lat="48.16102" lon="-3.6182">
        <ele>214.4</ele>
        <time>2023-04-05T12:39:12Z</time>
      </trkpt>
      <trkpt lat="48.16101" lon="-3.6182">
        <ele>214.5</ele>
        <time>2023-04-05T12:39:13Z</time>
      </trkpt>
      <trkpt lat="48.161" lon="-3.61818">
        <ele>214.8</ele>
        <time>2023-04-05T12:39:14Z</time>
      </trkpt>
      <trkpt lat="48.16099" lon="-3.61818">
        <ele>214.9</ele>
        <time>2023-04-05T12:39:16Z</time>
      </trkpt>
      <trkpt lat="48.16098" lon="-3.61817">
        <ele>215.1</ele>
        <time>2023-04-05T12:39:17Z</time>
      </trkpt>
      <trkpt lat="48.16097" lon="-3.61817">
        <ele>215.2</ele>
        <time>2023-04-05T12:39:18Z</time>
      </trkpt>
      <trkpt lat="48.16096" lon="-3.61816">
        <ele>215.3</ele>
        <time>2023-04-05T12:39:19Z</time>
      </trkpt>
      <trkpt lat="48.16095" lon="-3.61816">
        <ele>215.4</ele>
        <time>2023-04-05T12:39:20Z</time>
      </trkpt>
      <trkpt lat="48.16095" lon="-3.61816">
        <ele>215.5</ele>
        <time>2023-04-05T12:39:21Z</time>
      </trkpt>
      <trkpt lat="48.16094" lon="-3.61815">
        <ele>215.7</ele>
        <time>2023-04-05T12:39:22Z</time>
      </trkpt>
      <trkpt lat="48.16093" lon="-3.61815">
        <ele>215.7</ele>
        <time>2023-04-05T12:39:23Z</time>
      </trkpt>
      <trkpt lat="48.16092" lon="-3.61814">
        <ele>215.9</ele>
        <time>2023-04-05T12:39:24Z</time>
      </trkpt>
      <trkpt lat="48.16092" lon="-3.61814">
        <ele>216</ele>
        <time>2023-04-05T12:39:25Z</time>
      </trkpt>
      <trkpt lat="48.16091" lon="-3.61813">
        <ele>216.1</ele>
        <time>2023-04-05T12:39:26Z</time>
      </trkpt>
      <trkpt lat="48.1609" lon="-3.6181">
        <ele>216.4</ele>
        <time>2023-04-05T12:39:27Z</time>
      </trkpt>
      <trkpt lat="48.1609" lon="-3.61809">
        <ele>216.5</ele>
        <time>2023-04-05T12:39:28Z</time>
      </trkpt>
      <trkpt lat="48.1609" lon="-3.61808">
        <ele>216.6</ele>
        <time>2023-04-05T12:39:29Z</time>
      </trkpt>
      <trkpt lat="48.1609" lon="-3.61807">
        <ele>216.7</ele>
        <time>2023-04-05T12:39:30Z</time>
      </trkpt>
      <trkpt lat="48.1609" lon="-3.61806">
        <ele>216.8</ele>
        <time>2023-04-05T12:39:31Z</time>
      </trkpt>
      <trkpt lat="48.16091" lon="-3.61804">
        <ele>217</ele>
        <time>2023-04-05T12:39:32Z</time>
      </trkpt>
      <trkpt lat="48.16091" lon="-3.61802">
        <ele>217.2</ele>
        <time>2023-04-05T12:39:33Z</time>
      </trkpt>
      <trkpt lat="48.1609" lon="-3.618">
        <ele>217.3</ele>
        <time>2023-04-05T12:39:34Z</time>
      </trkpt>
      <trkpt lat="48.16091" lon="-3.61799">
        <ele>217.4</ele>
        <time>2023-04-05T12:39:35Z</time>
      </trkpt>
      <trkpt lat="48.16091" lon="-3.61798">
        <ele>217.5</ele>
        <time>2023-04-05T12:39:36Z</time>
      </trkpt>
      <trkpt lat="48.16092" lon="-3.61796">
        <ele>217.7</ele>
        <time>2023-04-05T12:39:37Z</time>
      </trkpt>
      <trkpt lat="48.16092" lon="-3.61794">
        <ele>217.9</ele>
        <time>2023-04-05T12:39:38Z</time>
      </trkpt>
      <trkpt lat="48.16093" lon="-3.61792">
        <ele>218</ele>
        <time>2023-04-05T12:39:39Z</time>
      </trkpt>
      <trkpt lat="48.16093" lon="-3.61791">
        <ele>218.1</ele>
        <time>2023-04-05T12:39:40Z</time>
      </trkpt>
      <trkpt lat="48.16093" lon="-3.61791">
        <ele>218.1</ele>
        <time>2023-04-05T12:39:41Z</time>
      </trkpt>
      <trkpt lat="48.16093" lon="-3.6179">
        <ele>218.2</ele>
        <time>2023-04-05T12:39:42Z</time>
      </trkpt>
      <trkpt lat="48.16093" lon="-3.61789">
        <ele>218.2</ele>
        <time>2023-04-05T12:39:43Z</time>
      </trkpt>
      <trkpt lat="48.16093" lon="-3.61789">
        <ele>218.3</ele>
        <time>2023-04-05T12:39:44Z</time>
      </trkpt>
      <trkpt lat="48.16093" lon="-3.61788">
        <ele>218.3</ele>
        <time>2023-04-05T12:39:45Z</time>
      </trkpt>
      <trkpt lat="48.16093" lon="-3.61788">
        <ele>218.3</ele>
        <time>2023-04-05T12:39:46Z</time>
      </trkpt>
      <trkpt lat="48.16094" lon="-3.61787">
        <ele>218.4</ele>
        <time>2023-04-05T12:39:47Z</time>
      </trkpt>
      <trkpt lat="48.16094" lon="-3.61786">
        <ele>218.4</ele>
        <time>2023-04-05T12:39:48Z</time>
      </trkpt>
      <trkpt lat="48.16094" lon="-3.61786">
        <ele>218.5</ele>
        <time>2023-04-05T12:39:49Z</time>
      </trkpt>
      <trkpt lat="48.16094" lon="-3.61785">
        <ele>218.5</ele>
        <time>2023-04-05T12:39:50Z</time>
      </trkpt>
      <trkpt lat="48.16094" lon="-3.61784">
        <ele>218.5</ele>
        <time>2023-04-05T12:40:01Z</time>
      </trkpt>
      <trkpt lat="48.16094" lon="-3.61784">
        <ele>218.6</ele>
        <time>2023-04-05T12:40:02Z</time>
      </trkpt>
      <trkpt lat="48.16094" lon="-3.61783">
        <ele>218.6</ele>
        <time>2023-04-05T12:40:03Z</time>
      </trkpt>
      <trkpt lat="48.16094" lon="-3.61783">
        <ele>218.6</ele>
        <time>2023-04-05T12:40:04Z</time>
      </trkpt>
      <trkpt lat="48.16095" lon="-3.6178">
        <ele>218.8</ele>
        <time>2023-04-05T12:40:05Z</time>
      </trkpt>
      <trkpt lat="48.16096" lon="-3.61775">
        <ele>219.1</ele>
        <time>2023-04-05T12:40:07Z</time>
      </trkpt>
      <trkpt lat="48.16097" lon="-3.61771">
        <ele>219.3</ele>
        <time>2023-04-05T12:40:08Z</time>
      </trkpt>
      <trkpt lat="48.16097" lon="-3.61769">
        <ele>219.4</ele>
        <time>2023-04-05T12:40:09Z</time>
      </trkpt>
      <trkpt lat="48.16098" lon="-3.61765">
        <ele>219.5</ele>
        <time>2023-04-05T12:40:10Z</time>
      </trkpt>
      <trkpt lat="48.16098" lon="-3.61764">
        <ele>219.6</ele>
        <time>2023-04-05T12:40:11Z</time>
      </trkpt>
      <trkpt lat="48.16099" lon="-3.6176">
        <ele>219.8</ele>
        <time>2023-04-05T12:40:12Z</time>
      </trkpt>
      <trkpt lat="48.16099" lon="-3.61759">
        <ele>219.8</ele>
        <time>2023-04-05T12:40:13Z</time>
      </trkpt>
      <trkpt lat="48.161" lon="-3.61755">
        <ele>220</ele>
        <time>2023-04-05T12:40:14Z</time>
      </trkpt>
      <trkpt lat="48.16101" lon="-3.61753">
        <ele>220.1</ele>
        <time>2023-04-05T12:40:15Z</time>
      </trkpt>
      <trkpt lat="48.16102" lon="-3.61748">
        <ele>220.3</ele>
        <time>2023-04-05T12:40:16Z</time>
      </trkpt>
      <trkpt lat="48.16102" lon="-3.61747">
        <ele>220.3</ele>
        <time>2023-04-05T12:40:17Z</time>
      </trkpt>
      <trkpt lat="48.16102" lon="-3.61742">
        <ele>220.5</ele>
        <time>2023-04-05T12:40:18Z</time>
      </trkpt>
      <trkpt lat="48.16103" lon="-3.61741">
        <ele>220.5</ele>
        <time>2023-04-05T12:40:19Z</time>
      </trkpt>
      <trkpt lat="48.16103" lon="-3.61735">
        <ele>220.7</ele>
        <time>2023-04-05T12:40:20Z</time>
      </trkpt>
      <trkpt lat="48.16104" lon="-3.61733">
        <ele>220.8</ele>
        <time>2023-04-05T12:40:21Z</time>
      </trkpt>
      <trkpt lat="48.16105" lon="-3.61727">
        <ele>220.9</ele>
        <time>2023-04-05T12:40:23Z</time>
      </trkpt>
      <trkpt lat="48.16106" lon="-3.61724">
        <ele>221</ele>
        <time>2023-04-05T12:40:25Z</time>
      </trkpt>
      <trkpt lat="48.16108" lon="-3.61719">
        <ele>221.1</ele>
        <time>2023-04-05T12:40:26Z</time>
      </trkpt>
      <trkpt lat="48.16108" lon="-3.61718">
        <ele>221.2</ele>
        <time>2023-04-05T12:40:27Z</time>
      </trkpt>
      <trkpt lat="48.16109" lon="-3.61712">
        <ele>221.3</ele>
        <time>2023-04-05T12:40:28Z</time>
      </trkpt>
      <trkpt lat="48.16109" lon="-3.6171">
        <ele>221.4</ele>
        <time>2023-04-05T12:40:29Z</time>
      </trkpt>
      <trkpt lat="48.1611" lon="-3.61705">
        <ele>221.5</ele>
        <time>2023-04-05T12:40:30Z</time>
      </trkpt>
      <trkpt lat="48.16111" lon="-3.61703">
        <ele>221.5</ele>
        <time>2023-04-05T12:40:31Z</time>
      </trkpt>
      <trkpt lat="48.16111" lon="-3.61701">
        <ele>221.6</ele>
        <time>2023-04-05T12:40:32Z</time>
      </trkpt>
      <trkpt lat="48.16111" lon="-3.61698">
        <ele>221.7</ele>
        <time>2023-04-05T12:40:33Z</time>
      </trkpt>
      <trkpt lat="48.16111" lon="-3.61693">
        <ele>221.8</ele>
        <time>2023-04-05T12:40:34Z</time>
      </trkpt>
      <trkpt lat="48.16111" lon="-3.61692">
        <ele>221.8</ele>
        <time>2023-04-05T12:40:35Z</time>
      </trkpt>
      <trkpt lat="48.16111" lon="-3.61687">
        <ele>222</ele>
        <time>2023-04-05T12:40:36Z</time>
      </trkpt>
      <trkpt lat="48.16111" lon="-3.61685">
        <ele>222</ele>
        <time>2023-04-05T12:40:37Z</time>
      </trkpt>
      <trkpt lat="48.1611" lon="-3.61678">
        <ele>222.2</ele>
        <time>2023-04-05T12:40:38Z</time>
      </trkpt>
      <trkpt lat="48.16109" lon="-3.61675">
        <ele>222.4</ele>
        <time>2023-04-05T12:40:39Z</time>
      </trkpt>
      <trkpt lat="48.16109" lon="-3.61672">
        <ele>222.5</ele>
        <time>2023-04-05T12:40:41Z</time>
      </trkpt>
      <trkpt lat="48.16108" lon="-3.61668">
        <ele>222.7</ele>
        <time>2023-04-05T12:40:42Z</time>
      </trkpt>
      <trkpt lat="48.16108" lon="-3.61666">
        <ele>222.7</ele>
        <time>2023-04-05T12:40:43Z</time>
      </trkpt>
      <trkpt lat="48.16106" lon="-3.61663">
        <ele>222.9</ele>
        <time>2023-04-05T12:40:44Z</time>
      </trkpt>
      <trkpt lat="48.16106" lon="-3.61661">
        <ele>223</ele>
        <time>2023-04-05T12:40:45Z</time>
      </trkpt>
      <trkpt lat="48.16105" lon="-3.61657">
        <ele>223.3</ele>
        <time>2023-04-05T12:40:46Z</time>
      </trkpt>
      <trkpt lat="48.16104" lon="-3.61656">
        <ele>223.4</ele>
        <time>2023-04-05T12:40:47Z</time>
      </trkpt>
      <trkpt lat="48.16104" lon="-3.61652">
        <ele>223.6</ele>
        <time>2023-04-05T12:40:48Z</time>
      </trkpt>
      <trkpt lat="48.16103" lon="-3.61651">
        <ele>223.7</ele>
        <time>2023-04-05T12:40:49Z</time>
      </trkpt>
      <trkpt lat="48.16103" lon="-3.61646">
        <ele>224</ele>
        <time>2023-04-05T12:40:50Z</time>
      </trkpt>
      <trkpt lat="48.16102" lon="-3.61645">
        <ele>224.1</ele>
        <time>2023-04-05T12:40:51Z</time>
      </trkpt>
      <trkpt lat="48.16101" lon="-3.61642">
        <ele>224.4</ele>
        <time>2023-04-05T12:40:52Z</time>
      </trkpt>
      <trkpt lat="48.161" lon="-3.61639">
        <ele>224.7</ele>
        <time>2023-04-05T12:40:54Z</time>
      </trkpt>
      <trkpt lat="48.16099" lon="-3.61635">
        <ele>225</ele>
        <time>2023-04-05T12:40:56Z</time>
      </trkpt>
      <trkpt lat="48.16098" lon="-3.61634">
        <ele>225.1</ele>
        <time>2023-04-05T12:40:57Z</time>
      </trkpt>
      <trkpt lat="48.16098" lon="-3.61633">
        <ele>225.3</ele>
        <time>2023-04-05T12:40:58Z</time>
      </trkpt>
      <trkpt lat="48.16097" lon="-3.61631">
        <ele>225.4</ele>
        <time>2023-04-05T12:40:59Z</time>
      </trkpt>
      <trkpt lat="48.16096" lon="-3.61629">
        <ele>225.6</ele>
        <time>2023-04-05T12:41:00Z</time>
      </trkpt>
      <trkpt lat="48.16095" lon="-3.61627">
        <ele>225.8</ele>
        <time>2023-04-05T12:41:01Z</time>
      </trkpt>
      <trkpt lat="48.16095" lon="-3.61624">
        <ele>226.2</ele>
        <time>2023-04-05T12:41:02Z</time>
      </trkpt>
      <trkpt lat="48.16094" lon="-3.6162">
        <ele>226.5</ele>
        <time>2023-04-05T12:41:04Z</time>
      </trkpt>
      <trkpt lat="48.16093" lon="-3.61616">
        <ele>226.9</ele>
        <time>2023-04-05T12:41:06Z</time>
      </trkpt>
      <trkpt lat="48.16092" lon="-3.61615">
        <ele>227</ele>
        <time>2023-04-05T12:41:07Z</time>
      </trkpt>
      <trkpt lat="48.16091" lon="-3.61613">
        <ele>227.2</ele>
        <time>2023-04-05T12:41:08Z</time>
      </trkpt>
      <trkpt lat="48.16091" lon="-3.61611">
        <ele>227.4</ele>
        <time>2023-04-05T12:41:10Z</time>
      </trkpt>
      <trkpt lat="48.1609" lon="-3.61609">
        <ele>227.6</ele>
        <time>2023-04-05T12:41:11Z</time>
      </trkpt>
      <trkpt lat="48.16089" lon="-3.61606">
        <ele>228</ele>
        <time>2023-04-05T12:41:12Z</time>
      </trkpt>
      <trkpt lat="48.16088" lon="-3.61605">
        <ele>228.1</ele>
        <time>2023-04-05T12:41:13Z</time>
      </trkpt>
      <trkpt lat="48.16088" lon="-3.61603">
        <ele>228.2</ele>
        <time>2023-04-05T12:41:14Z</time>
      </trkpt>
      <trkpt lat="48.16087" lon="-3.61602">
        <ele>228.4</ele>
        <time>2023-04-05T12:41:15Z</time>
      </trkpt>
      <trkpt lat="48.16086" lon="-3.616">
        <ele>228.6</ele>
        <time>2023-04-05T12:41:16Z</time>
      </trkpt>
      <trkpt lat="48.16086" lon="-3.61597">
        <ele>228.8</ele>
        <time>2023-04-05T12:41:17Z</time>
      </trkpt>
      <trkpt lat="48.16086" lon="-3.61596">
        <ele>228.9</ele>
        <time>2023-04-05T12:41:18Z</time>
      </trkpt>
      <trkpt lat="48.16086" lon="-3.61594">
        <ele>229</ele>
        <time>2023-04-05T12:41:19Z</time>
      </trkpt>
      <trkpt lat="48.16085" lon="-3.6159">
        <ele>229.4</ele>
        <time>2023-04-05T12:41:20Z</time>
      </trkpt>
      <trkpt lat="48.16085" lon="-3.61588">
        <ele>229.6</ele>
        <time>2023-04-05T12:41:21Z</time>
      </trkpt>
      <trkpt lat="48.16084" lon="-3.61584">
        <ele>229.9</ele>
        <time>2023-04-05T12:41:22Z</time>
      </trkpt>
      <trkpt lat="48.16084" lon="-3.61582">
        <ele>230</ele>
        <time>2023-04-05T12:41:23Z</time>
      </trkpt>
      <trkpt lat="48.16083" lon="-3.6158">
        <ele>230.2</ele>
        <time>2023-04-05T12:41:24Z</time>
      </trkpt>
      <trkpt lat="48.16083" lon="-3.61578">
        <ele>230.4</ele>
        <time>2023-04-05T12:41:25Z</time>
      </trkpt>
      <trkpt lat="48.16082" lon="-3.61576">
        <ele>230.5</ele>
        <time>2023-04-05T12:41:26Z</time>
      </trkpt>
      <trkpt lat="48.16081" lon="-3.61573">
        <ele>230.7</ele>
        <time>2023-04-05T12:41:27Z</time>
      </trkpt>
      <trkpt lat="48.1608" lon="-3.61571">
        <ele>230.9</ele>
        <time>2023-04-05T12:41:28Z</time>
      </trkpt>
      <trkpt lat="48.16079" lon="-3.61569">
        <ele>231.1</ele>
        <time>2023-04-05T12:41:29Z</time>
      </trkpt>
      <trkpt lat="48.1608" lon="-3.6157">
        <ele>231.1</ele>
        <time>2023-04-05T12:41:30Z</time>
      </trkpt>
      <trkpt lat="48.16079" lon="-3.61568">
        <ele>231.2</ele>
        <time>2023-04-05T12:41:31Z</time>
      </trkpt>
      <trkpt lat="48.16078" lon="-3.61565">
        <ele>231.4</ele>
        <time>2023-04-05T12:41:32Z</time>
      </trkpt>
      <trkpt lat="48.16076" lon="-3.61563">
        <ele>231.6</ele>
        <time>2023-04-05T12:41:33Z</time>
      </trkpt>
      <trkpt lat="48.16075" lon="-3.61561">
        <ele>231.7</ele>
        <time>2023-04-05T12:41:34Z</time>
      </trkpt>
      <trkpt lat="48.16075" lon="-3.61559">
        <ele>231.9</ele>
        <time>2023-04-05T12:41:35Z</time>
      </trkpt>
      <trkpt lat="48.16074" lon="-3.61556">
        <ele>232</ele>
        <time>2023-04-05T12:41:36Z</time>
      </trkpt>
      <trkpt lat="48.16072" lon="-3.61553">
        <ele>232.3</ele>
        <time>2023-04-05T12:41:37Z</time>
      </trkpt>
      <trkpt lat="48.16072" lon="-3.61552">
        <ele>232.4</ele>
        <time>2023-04-05T12:41:38Z</time>
      </trkpt>
      <trkpt lat="48.16071" lon="-3.6155">
        <ele>232.5</ele>
        <time>2023-04-05T12:41:39Z</time>
      </trkpt>
      <trkpt lat="48.1607" lon="-3.61548">
        <ele>232.7</ele>
        <time>2023-04-05T12:41:40Z</time>
      </trkpt>
      <trkpt lat="48.16069" lon="-3.61546">
        <ele>232.8</ele>
        <time>2023-04-05T12:41:41Z</time>
      </trkpt>
      <trkpt lat="48.16069" lon="-3.61544">
        <ele>232.9</ele>
        <time>2023-04-05T12:41:42Z</time>
      </trkpt>
      <trkpt lat="48.16069" lon="-3.61543">
        <ele>233</ele>
        <time>2023-04-05T12:41:43Z</time>
      </trkpt>
      <trkpt lat="48.16068" lon="-3.61541">
        <ele>233.1</ele>
        <time>2023-04-05T12:41:44Z</time>
      </trkpt>
      <trkpt lat="48.16067" lon="-3.61539">
        <ele>233.3</ele>
        <time>2023-04-05T12:41:45Z</time>
      </trkpt>
      <trkpt lat="48.16067" lon="-3.61538">
        <ele>233.4</ele>
        <time>2023-04-05T12:41:46Z</time>
      </trkpt>
      <trkpt lat="48.16066" lon="-3.61536">
        <ele>233.5</ele>
        <time>2023-04-05T12:41:47Z</time>
      </trkpt>
      <trkpt lat="48.16065" lon="-3.61534">
        <ele>233.6</ele>
        <time>2023-04-05T12:41:48Z</time>
      </trkpt>
      <trkpt lat="48.16064" lon="-3.61533">
        <ele>233.8</ele>
        <time>2023-04-05T12:41:49Z</time>
      </trkpt>
      <trkpt lat="48.16062" lon="-3.61528">
        <ele>234.1</ele>
        <time>2023-04-05T12:41:50Z</time>
      </trkpt>
      <trkpt lat="48.16062" lon="-3.61527">
        <ele>234.1</ele>
        <time>2023-04-05T12:41:51Z</time>
      </trkpt>
      <trkpt lat="48.1606" lon="-3.61525">
        <ele>234.3</ele>
        <time>2023-04-05T12:41:52Z</time>
      </trkpt>
      <trkpt lat="48.16059" lon="-3.61524">
        <ele>234.4</ele>
        <time>2023-04-05T12:41:53Z</time>
      </trkpt>
      <trkpt lat="48.16058" lon="-3.61523">
        <ele>234.5</ele>
        <time>2023-04-05T12:41:54Z</time>
      </trkpt>
      <trkpt lat="48.16057" lon="-3.61521">
        <ele>234.6</ele>
        <time>2023-04-05T12:41:55Z</time>
      </trkpt>
      <trkpt lat="48.16055" lon="-3.6152">
        <ele>234.7</ele>
        <time>2023-04-05T12:41:56Z</time>
      </trkpt>
      <trkpt lat="48.16054" lon="-3.61519">
        <ele>234.8</ele>
        <time>2023-04-05T12:41:57Z</time>
      </trkpt>
      <trkpt lat="48.16053" lon="-3.61517">
        <ele>234.9</ele>
        <time>2023-04-05T12:41:58Z</time>
      </trkpt>
      <trkpt lat="48.1605" lon="-3.61513">
        <ele>235</ele>
        <time>2023-04-05T12:41:59Z</time>
      </trkpt>
      <trkpt lat="48.16046" lon="-3.61509">
        <ele>235.2</ele>
        <time>2023-04-05T12:42:01Z</time>
      </trkpt>
      <trkpt lat="48.16045" lon="-3.61506">
        <ele>235.3</ele>
        <time>2023-04-05T12:42:02Z</time>
      </trkpt>
      <trkpt lat="48.16041" lon="-3.61501">
        <ele>235.4</ele>
        <time>2023-04-05T12:42:04Z</time>
      </trkpt>
      <trkpt lat="48.16039" lon="-3.61499">
        <ele>235.4</ele>
        <time>2023-04-05T12:42:06Z</time>
      </trkpt>
      <trkpt lat="48.16036" lon="-3.61495">
        <ele>235.5</ele>
        <time>2023-04-05T12:42:07Z</time>
      </trkpt>
      <trkpt lat="48.16035" lon="-3.61494">
        <ele>235.5</ele>
        <time>2023-04-05T12:42:08Z</time>
      </trkpt>
      <trkpt lat="48.16032" lon="-3.61491">
        <ele>235.6</ele>
        <time>2023-04-05T12:42:09Z</time>
      </trkpt>
      <trkpt lat="48.16031" lon="-3.6149">
        <ele>235.6</ele>
        <time>2023-04-05T12:42:10Z</time>
      </trkpt>
      <trkpt lat="48.16028" lon="-3.61487">
        <ele>235.6</ele>
        <time>2023-04-05T12:42:11Z</time>
      </trkpt>
      <trkpt lat="48.16027" lon="-3.61486">
        <ele>235.6</ele>
        <time>2023-04-05T12:42:12Z</time>
      </trkpt>
      <trkpt lat="48.16025" lon="-3.61479">
        <ele>235.7</ele>
        <time>2023-04-05T12:42:13Z</time>
      </trkpt>
      <trkpt lat="48.16024" lon="-3.61474">
        <ele>235.7</ele>
        <time>2023-04-05T12:42:15Z</time>
      </trkpt>
      <trkpt lat="48.16023" lon="-3.61468">
        <ele>235.7</ele>
        <time>2023-04-05T12:42:16Z</time>
      </trkpt>
      <trkpt lat="48.16023" lon="-3.61467">
        <ele>235.7</ele>
        <time>2023-04-05T12:42:17Z</time>
      </trkpt>
      <trkpt lat="48.16024" lon="-3.61464">
        <ele>235.7</ele>
        <time>2023-04-05T12:42:18Z</time>
      </trkpt>
      <trkpt lat="48.16024" lon="-3.61462">
        <ele>235.7</ele>
        <time>2023-04-05T12:42:19Z</time>
      </trkpt>
      <trkpt lat="48.16025" lon="-3.61458">
        <ele>235.7</ele>
        <time>2023-04-05T12:42:20Z</time>
      </trkpt>
      <trkpt lat="48.16025" lon="-3.61457">
        <ele>235.7</ele>
        <time>2023-04-05T12:42:21Z</time>
      </trkpt>
      <trkpt lat="48.16024" lon="-3.61453">
        <ele>235.7</ele>
        <time>2023-04-05T12:42:22Z</time>
      </trkpt>
      <trkpt lat="48.16024" lon="-3.61452">
        <ele>235.7</ele>
        <time>2023-04-05T12:42:23Z</time>
      </trkpt>
      <trkpt lat="48.16022" lon="-3.6145">
        <ele>235.7</ele>
        <time>2023-04-05T12:42:24Z</time>
      </trkpt>
      <trkpt lat="48.16021" lon="-3.61449">
        <ele>235.7</ele>
        <time>2023-04-05T12:42:25Z</time>
      </trkpt>
      <trkpt lat="48.16021" lon="-3.61449">
        <ele>235.7</ele>
        <time>2023-04-05T12:42:26Z</time>
      </trkpt>
      <trkpt lat="48.16019" lon="-3.61447">
        <ele>235.7</ele>
        <time>2023-04-05T12:42:27Z</time>
      </trkpt>
      <trkpt lat="48.16018" lon="-3.61446">
        <ele>235.7</ele>
        <time>2023-04-05T12:42:28Z</time>
      </trkpt>
      <trkpt lat="48.16017" lon="-3.61445">
        <ele>235.7</ele>
        <time>2023-04-05T12:42:29Z</time>
      </trkpt>
      <trkpt lat="48.16015" lon="-3.61445">
        <ele>235.7</ele>
        <time>2023-04-05T12:42:30Z</time>
      </trkpt>
      <trkpt lat="48.16014" lon="-3.61444">
        <ele>235.8</ele>
        <time>2023-04-05T12:42:31Z</time>
      </trkpt>
      <trkpt lat="48.16012" lon="-3.61444">
        <ele>235.8</ele>
        <time>2023-04-05T12:42:32Z</time>
      </trkpt>
      <trkpt lat="48.16009" lon="-3.61442">
        <ele>235.8</ele>
        <time>2023-04-05T12:42:33Z</time>
      </trkpt>
      <trkpt lat="48.16008" lon="-3.61441">
        <ele>235.8</ele>
        <time>2023-04-05T12:42:34Z</time>
      </trkpt>
      <trkpt lat="48.16006" lon="-3.61439">
        <ele>235.8</ele>
        <time>2023-04-05T12:42:35Z</time>
      </trkpt>
      <trkpt lat="48.16005" lon="-3.61438">
        <ele>235.8</ele>
        <time>2023-04-05T12:42:36Z</time>
      </trkpt>
      <trkpt lat="48.16002" lon="-3.61436">
        <ele>235.8</ele>
        <time>2023-04-05T12:42:37Z</time>
      </trkpt>
      <trkpt lat="48.16001" lon="-3.61435">
        <ele>235.8</ele>
        <time>2023-04-05T12:42:38Z</time>
      </trkpt>
      <trkpt lat="48.16" lon="-3.61434">
        <ele>235.9</ele>
        <time>2023-04-05T12:42:39Z</time>
      </trkpt>
      <trkpt lat="48.15998" lon="-3.61433">
        <ele>235.9</ele>
        <time>2023-04-05T12:42:40Z</time>
      </trkpt>
      <trkpt lat="48.15996" lon="-3.6143">
        <ele>235.9</ele>
        <time>2023-04-05T12:42:41Z</time>
      </trkpt>
      <trkpt lat="48.15995" lon="-3.6143">
        <ele>235.9</ele>
        <time>2023-04-05T12:42:42Z</time>
      </trkpt>
      <trkpt lat="48.15994" lon="-3.61428">
        <ele>235.9</ele>
        <time>2023-04-05T12:42:43Z</time>
      </trkpt>
      <trkpt lat="48.15993" lon="-3.61426">
        <ele>236</ele>
        <time>2023-04-05T12:42:44Z</time>
      </trkpt>
      <trkpt lat="48.1599" lon="-3.61424">
        <ele>236</ele>
        <time>2023-04-05T12:42:45Z</time>
      </trkpt>
      <trkpt lat="48.15989" lon="-3.61424">
        <ele>236</ele>
        <time>2023-04-05T12:42:46Z</time>
      </trkpt>
      <trkpt lat="48.15988" lon="-3.61422">
        <ele>236</ele>
        <time>2023-04-05T12:42:47Z</time>
      </trkpt>
      <trkpt lat="48.15987" lon="-3.61421">
        <ele>236</ele>
        <time>2023-04-05T12:42:48Z</time>
      </trkpt>
      <trkpt lat="48.15985" lon="-3.6142">
        <ele>236.1</ele>
        <time>2023-04-05T12:42:49Z</time>
      </trkpt>
      <trkpt lat="48.15984" lon="-3.61419">
        <ele>236.1</ele>
        <time>2023-04-05T12:42:50Z</time>
      </trkpt>
      <trkpt lat="48.15982" lon="-3.61417">
        <ele>236.1</ele>
        <time>2023-04-05T12:42:51Z</time>
      </trkpt>
      <trkpt lat="48.15982" lon="-3.61416">
        <ele>236.1</ele>
        <time>2023-04-05T12:42:52Z</time>
      </trkpt>
      <trkpt lat="48.1598" lon="-3.61415">
        <ele>236.2</ele>
        <time>2023-04-05T12:42:53Z</time>
      </trkpt>
      <trkpt lat="48.15979" lon="-3.61413">
        <ele>236.2</ele>
        <time>2023-04-05T12:42:54Z</time>
      </trkpt>
      <trkpt lat="48.15979" lon="-3.61411">
        <ele>236.2</ele>
        <time>2023-04-05T12:42:55Z</time>
      </trkpt>
      <trkpt lat="48.15978" lon="-3.61411">
        <ele>236.2</ele>
        <time>2023-04-05T12:42:56Z</time>
      </trkpt>
      <trkpt lat="48.15978" lon="-3.61411">
        <ele>236.2</ele>
        <time>2023-04-05T12:42:57Z</time>
      </trkpt>
      <trkpt lat="48.15978" lon="-3.61411">
        <ele>236.2</ele>
        <time>2023-04-05T12:42:58Z</time>
      </trkpt>
      <trkpt lat="48.15978" lon="-3.61411">
        <ele>236.2</ele>
        <time>2023-04-05T12:42:59Z</time>
      </trkpt>
      <trkpt lat="48.15978" lon="-3.61411">
        <ele>236.2</ele>
        <time>2023-04-05T12:43:00Z</time>
      </trkpt>
      <trkpt lat="48.15978" lon="-3.61411">
        <ele>236.2</ele>
        <time>2023-04-05T12:43:01Z</time>
      </trkpt>
      <trkpt lat="48.15978" lon="-3.61411">
        <ele>236.2</ele>
        <time>2023-04-05T12:43:02Z</time>
      </trkpt>
      <trkpt lat="48.15978" lon="-3.61411">
        <ele>236.2</ele>
        <time>2023-04-05T12:43:03Z</time>
      </trkpt>
      <trkpt lat="48.15978" lon="-3.61411">
        <ele>236.2</ele>
        <time>2023-04-05T12:43:04Z</time>
      </trkpt>
      <trkpt lat="48.15978" lon="-3.61411">
        <ele>236.2</ele>
        <time>2023-04-05T12:43:05Z</time>
      </trkpt>
      <trkpt lat="48.15978" lon="-3.61411">
        <ele>236.2</ele>
        <time>2023-04-05T12:43:06Z</time>
      </trkpt>
      <trkpt lat="48.15978" lon="-3.61411">
        <ele>236.2</ele>
        <time>2023-04-05T12:43:07Z</time>
      </trkpt>
      <trkpt lat="48.15978" lon="-3.61411">
        <ele>236.2</ele>
        <time>2023-04-05T12:43:09Z</time>
      </trkpt>
      <trkpt lat="48.15977" lon="-3.61408">
        <ele>236.3</ele>
        <time>2023-04-05T12:45:20Z</time>
      </trkpt>
      <trkpt lat="48.15978" lon="-3.61406">
        <ele>236.3</ele>
        <time>2023-04-05T12:45:21Z</time>
      </trkpt>
      <trkpt lat="48.15978" lon="-3.61404">
        <ele>236.3</ele>
        <time>2023-04-05T12:45:22Z</time>
      </trkpt>
      <trkpt lat="48.15979" lon="-3.61401">
        <ele>236.6</ele>
        <time>2023-04-05T12:45:23Z</time>
      </trkpt>
      <trkpt lat="48.15979" lon="-3.61398">
        <ele>236.6</ele>
        <time>2023-04-05T12:45:24Z</time>
      </trkpt>
      <trkpt lat="48.1598" lon="-3.61392">
        <ele>236.7</ele>
        <time>2023-04-05T12:45:26Z</time>
      </trkpt>
      <trkpt lat="48.1598" lon="-3.61389">
        <ele>236.8</ele>
        <time>2023-04-05T12:45:27Z</time>
      </trkpt>
      <trkpt lat="48.15981" lon="-3.61383">
        <ele>236.9</ele>
        <time>2023-04-05T12:45:29Z</time>
      </trkpt>
      <trkpt lat="48.15982" lon="-3.61379">
        <ele>237</ele>
        <time>2023-04-05T12:45:31Z</time>
      </trkpt>
      <trkpt lat="48.15983" lon="-3.61374">
        <ele>237.1</ele>
        <time>2023-04-05T12:45:32Z</time>
      </trkpt>
      <trkpt lat="48.15983" lon="-3.61371">
        <ele>237.2</ele>
        <time>2023-04-05T12:45:33Z</time>
      </trkpt>
      <trkpt lat="48.15984" lon="-3.61367">
        <ele>237.4</ele>
        <time>2023-04-05T12:45:35Z</time>
      </trkpt>
      <trkpt lat="48.15984" lon="-3.61365">
        <ele>237.4</ele>
        <time>2023-04-05T12:45:36Z</time>
      </trkpt>
      <trkpt lat="48.15985" lon="-3.61363">
        <ele>237.5</ele>
        <time>2023-04-05T12:45:37Z</time>
      </trkpt>
      <trkpt lat="48.15985" lon="-3.61359">
        <ele>237.6</ele>
        <time>2023-04-05T12:45:38Z</time>
      </trkpt>
      <trkpt lat="48.15985" lon="-3.61357">
        <ele>237.7</ele>
        <time>2023-04-05T12:45:39Z</time>
      </trkpt>
      <trkpt lat="48.15986" lon="-3.61352">
        <ele>237.9</ele>
        <time>2023-04-05T12:45:40Z</time>
      </trkpt>
      <trkpt lat="48.15988" lon="-3.61347">
        <ele>238.1</ele>
        <time>2023-04-05T12:45:41Z</time>
      </trkpt>
      <trkpt lat="48.15988" lon="-3.61346">
        <ele>238.2</ele>
        <time>2023-04-05T12:45:42Z</time>
      </trkpt>
      <trkpt lat="48.15988" lon="-3.61344">
        <ele>238.3</ele>
        <time>2023-04-05T12:45:44Z</time>
      </trkpt>
      <trkpt lat="48.15989" lon="-3.61342">
        <ele>238.4</ele>
        <time>2023-04-05T12:45:45Z</time>
      </trkpt>
      <trkpt lat="48.1599" lon="-3.61337">
        <ele>238.7</ele>
        <time>2023-04-05T12:45:46Z</time>
      </trkpt>
      <trkpt lat="48.1599" lon="-3.61335">
        <ele>238.7</ele>
        <time>2023-04-05T12:45:47Z</time>
      </trkpt>
      <trkpt lat="48.15991" lon="-3.61331">
        <ele>238.9</ele>
        <time>2023-04-05T12:45:48Z</time>
      </trkpt>
      <trkpt lat="48.15991" lon="-3.61329">
        <ele>239</ele>
        <time>2023-04-05T12:45:49Z</time>
      </trkpt>
      <trkpt lat="48.15992" lon="-3.61325">
        <ele>239.2</ele>
        <time>2023-04-05T12:45:50Z</time>
      </trkpt>
      <trkpt lat="48.15992" lon="-3.61323">
        <ele>239.3</ele>
        <time>2023-04-05T12:45:51Z</time>
      </trkpt>
      <trkpt lat="48.15993" lon="-3.61318">
        <ele>239.5</ele>
        <time>2023-04-05T12:45:52Z</time>
      </trkpt>
      <trkpt lat="48.15994" lon="-3.61315">
        <ele>239.6</ele>
        <time>2023-04-05T12:45:53Z</time>
      </trkpt>
      <trkpt lat="48.15994" lon="-3.61311">
        <ele>239.7</ele>
        <time>2023-04-05T12:45:55Z</time>
      </trkpt>
      <trkpt lat="48.15995" lon="-3.61308">
        <ele>239.8</ele>
        <time>2023-04-05T12:45:56Z</time>
      </trkpt>
      <trkpt lat="48.15995" lon="-3.61306">
        <ele>239.9</ele>
        <time>2023-04-05T12:45:57Z</time>
      </trkpt>
      <trkpt lat="48.15995" lon="-3.61301">
        <ele>240</ele>
        <time>2023-04-05T12:45:58Z</time>
      </trkpt>
      <trkpt lat="48.15996" lon="-3.613">
        <ele>240</ele>
        <time>2023-04-05T12:45:59Z</time>
      </trkpt>
      <trkpt lat="48.15996" lon="-3.61294">
        <ele>240.2</ele>
        <time>2023-04-05T12:46:00Z</time>
      </trkpt>
      <trkpt lat="48.15997" lon="-3.61292">
        <ele>240.2</ele>
        <time>2023-04-05T12:46:01Z</time>
      </trkpt>
      <trkpt lat="48.15998" lon="-3.61287">
        <ele>240.4</ele>
        <time>2023-04-05T12:46:03Z</time>
      </trkpt>
      <trkpt lat="48.15998" lon="-3.61284">
        <ele>240.5</ele>
        <time>2023-04-05T12:46:04Z</time>
      </trkpt>
      <trkpt lat="48.15999" lon="-3.61281">
        <ele>240.5</ele>
        <time>2023-04-05T12:46:06Z</time>
      </trkpt>
      <trkpt lat="48.15999" lon="-3.61277">
        <ele>240.6</ele>
        <time>2023-04-05T12:46:07Z</time>
      </trkpt>
      <trkpt lat="48.16" lon="-3.61275">
        <ele>240.7</ele>
        <time>2023-04-05T12:46:08Z</time>
      </trkpt>
      <trkpt lat="48.16001" lon="-3.6127">
        <ele>240.8</ele>
        <time>2023-04-05T12:46:09Z</time>
      </trkpt>
      <trkpt lat="48.16001" lon="-3.61267">
        <ele>240.9</ele>
        <time>2023-04-05T12:46:10Z</time>
      </trkpt>
      <trkpt lat="48.16002" lon="-3.61264">
        <ele>240.9</ele>
        <time>2023-04-05T12:46:12Z</time>
      </trkpt>
      <trkpt lat="48.16002" lon="-3.6126">
        <ele>241</ele>
        <time>2023-04-05T12:46:13Z</time>
      </trkpt>
      <trkpt lat="48.16003" lon="-3.61258">
        <ele>241.1</ele>
        <time>2023-04-05T12:46:14Z</time>
      </trkpt>
      <trkpt lat="48.16004" lon="-3.61251">
        <ele>241.2</ele>
        <time>2023-04-05T12:46:15Z</time>
      </trkpt>
      <trkpt lat="48.16004" lon="-3.61247">
        <ele>241.3</ele>
        <time>2023-04-05T12:46:17Z</time>
      </trkpt>
      <trkpt lat="48.16005" lon="-3.61245">
        <ele>241.3</ele>
        <time>2023-04-05T12:46:18Z</time>
      </trkpt>
      <trkpt lat="48.16005" lon="-3.6124">
        <ele>241.4</ele>
        <time>2023-04-05T12:46:19Z</time>
      </trkpt>
      <trkpt lat="48.16006" lon="-3.61239">
        <ele>241.4</ele>
        <time>2023-04-05T12:46:20Z</time>
      </trkpt>
      <trkpt lat="48.16007" lon="-3.61234">
        <ele>241.5</ele>
        <time>2023-04-05T12:46:21Z</time>
      </trkpt>
      <trkpt lat="48.16007" lon="-3.61232">
        <ele>241.5</ele>
        <time>2023-04-05T12:46:22Z</time>
      </trkpt>
      <trkpt lat="48.16008" lon="-3.61228">
        <ele>241.6</ele>
        <time>2023-04-05T12:46:23Z</time>
      </trkpt>
      <trkpt lat="48.16009" lon="-3.61227">
        <ele>241.6</ele>
        <time>2023-04-05T12:46:24Z</time>
      </trkpt>
      <trkpt lat="48.16009" lon="-3.61222">
        <ele>241.7</ele>
        <time>2023-04-05T12:46:25Z</time>
      </trkpt>
      <trkpt lat="48.16009" lon="-3.61221">
        <ele>241.7</ele>
        <time>2023-04-05T12:46:26Z</time>
      </trkpt>
      <trkpt lat="48.1601" lon="-3.61216">
        <ele>241.8</ele>
        <time>2023-04-05T12:46:27Z</time>
      </trkpt>
      <trkpt lat="48.1601" lon="-3.61215">
        <ele>241.8</ele>
        <time>2023-04-05T12:46:28Z</time>
      </trkpt>
      <trkpt lat="48.16011" lon="-3.61211">
        <ele>241.9</ele>
        <time>2023-04-05T12:46:29Z</time>
      </trkpt>
      <trkpt lat="48.16011" lon="-3.61209">
        <ele>241.9</ele>
        <time>2023-04-05T12:46:30Z</time>
      </trkpt>
      <trkpt lat="48.16012" lon="-3.61205">
        <ele>242</ele>
        <time>2023-04-05T12:46:31Z</time>
      </trkpt>
      <trkpt lat="48.16013" lon="-3.61203">
        <ele>242</ele>
        <time>2023-04-05T12:46:32Z</time>
      </trkpt>
      <trkpt lat="48.16013" lon="-3.61199">
        <ele>242.1</ele>
        <time>2023-04-05T12:46:33Z</time>
      </trkpt>
      <trkpt lat="48.16014" lon="-3.61195">
        <ele>242.1</ele>
        <time>2023-04-05T12:46:34Z</time>
      </trkpt>
      <trkpt lat="48.16015" lon="-3.61193">
        <ele>242.2</ele>
        <time>2023-04-05T12:46:35Z</time>
      </trkpt>
      <trkpt lat="48.16016" lon="-3.61186">
        <ele>242.3</ele>
        <time>2023-04-05T12:46:37Z</time>
      </trkpt>
      <trkpt lat="48.16018" lon="-3.61179">
        <ele>242.4</ele>
        <time>2023-04-05T12:46:39Z</time>
      </trkpt>
      <trkpt lat="48.16018" lon="-3.61175">
        <ele>242.4</ele>
        <time>2023-04-05T12:46:41Z</time>
      </trkpt>
      <trkpt lat="48.16018" lon="-3.6117">
        <ele>242.5</ele>
        <time>2023-04-05T12:46:42Z</time>
      </trkpt>
      <trkpt lat="48.16018" lon="-3.61168">
        <ele>242.5</ele>
        <time>2023-04-05T12:46:43Z</time>
      </trkpt>
      <trkpt lat="48.16019" lon="-3.61162">
        <ele>242.6</ele>
        <time>2023-04-05T12:46:44Z</time>
      </trkpt>
      <trkpt lat="48.16019" lon="-3.61159">
        <ele>242.6</ele>
        <time>2023-04-05T12:46:45Z</time>
      </trkpt>
      <trkpt lat="48.1602" lon="-3.61155">
        <ele>242.7</ele>
        <time>2023-04-05T12:46:47Z</time>
      </trkpt>
      <trkpt lat="48.1602" lon="-3.61151">
        <ele>242.8</ele>
        <time>2023-04-05T12:46:48Z</time>
      </trkpt>
      <trkpt lat="48.16021" lon="-3.61149">
        <ele>242.8</ele>
        <time>2023-04-05T12:46:49Z</time>
      </trkpt>
      <trkpt lat="48.1602" lon="-3.61143">
        <ele>242.8</ele>
        <time>2023-04-05T12:46:50Z</time>
      </trkpt>
      <trkpt lat="48.16022" lon="-3.61137">
        <ele>242.9</ele>
        <time>2023-04-05T12:46:52Z</time>
      </trkpt>
      <trkpt lat="48.16023" lon="-3.61134">
        <ele>242.9</ele>
        <time>2023-04-05T12:46:53Z</time>
      </trkpt>
      <trkpt lat="48.16023" lon="-3.6113">
        <ele>242.9</ele>
        <time>2023-04-05T12:46:55Z</time>
      </trkpt>
      <trkpt lat="48.16024" lon="-3.61124">
        <ele>242.9</ele>
        <time>2023-04-05T12:46:56Z</time>
      </trkpt>
      <trkpt lat="48.16024" lon="-3.61123">
        <ele>243</ele>
        <time>2023-04-05T12:46:57Z</time>
      </trkpt>
      <trkpt lat="48.16026" lon="-3.61118">
        <ele>243</ele>
        <time>2023-04-05T12:46:58Z</time>
      </trkpt>
      <trkpt lat="48.16026" lon="-3.61117">
        <ele>243</ele>
        <time>2023-04-05T12:46:59Z</time>
      </trkpt>
      <trkpt lat="48.16027" lon="-3.61112">
        <ele>243.1</ele>
        <time>2023-04-05T12:47:00Z</time>
      </trkpt>
      <trkpt lat="48.16028" lon="-3.61111">
        <ele>243.1</ele>
        <time>2023-04-05T12:47:01Z</time>
      </trkpt>
      <trkpt lat="48.16028" lon="-3.61108">
        <ele>243.1</ele>
        <time>2023-04-05T12:47:02Z</time>
      </trkpt>
      <trkpt lat="48.16029" lon="-3.61106">
        <ele>243.2</ele>
        <time>2023-04-05T12:47:03Z</time>
      </trkpt>
      <trkpt lat="48.16031" lon="-3.61103">
        <ele>243.3</ele>
        <time>2023-04-05T12:47:04Z</time>
      </trkpt>
      <trkpt lat="48.16031" lon="-3.61101">
        <ele>243.3</ele>
        <time>2023-04-05T12:47:05Z</time>
      </trkpt>
      <trkpt lat="48.16032" lon="-3.61096">
        <ele>243.4</ele>
        <time>2023-04-05T12:47:06Z</time>
      </trkpt>
      <trkpt lat="48.16033" lon="-3.61094">
        <ele>243.4</ele>
        <time>2023-04-05T12:47:07Z</time>
      </trkpt>
      <trkpt lat="48.16032" lon="-3.6109">
        <ele>243.5</ele>
        <time>2023-04-05T12:47:08Z</time>
      </trkpt>
      <trkpt lat="48.16032" lon="-3.61088">
        <ele>243.5</ele>
        <time>2023-04-05T12:47:09Z</time>
      </trkpt>
      <trkpt lat="48.16031" lon="-3.61083">
        <ele>243.6</ele>
        <time>2023-04-05T12:47:10Z</time>
      </trkpt>
      <trkpt lat="48.16031" lon="-3.61082">
        <ele>243.6</ele>
        <time>2023-04-05T12:47:11Z</time>
      </trkpt>
      <trkpt lat="48.1603" lon="-3.61077">
        <ele>243.6</ele>
        <time>2023-04-05T12:47:12Z</time>
      </trkpt>
      <trkpt lat="48.16031" lon="-3.61076">
        <ele>243.7</ele>
        <time>2023-04-05T12:47:13Z</time>
      </trkpt>
      <trkpt lat="48.16032" lon="-3.61072">
        <ele>243.7</ele>
        <time>2023-04-05T12:47:14Z</time>
      </trkpt>
      <trkpt lat="48.16032" lon="-3.6107">
        <ele>243.7</ele>
        <time>2023-04-05T12:47:15Z</time>
      </trkpt>
      <trkpt lat="48.16033" lon="-3.61066">
        <ele>243.7</ele>
        <time>2023-04-05T12:47:16Z</time>
      </trkpt>
      <trkpt lat="48.16033" lon="-3.61064">
        <ele>243.7</ele>
        <time>2023-04-05T12:47:17Z</time>
      </trkpt>
      <trkpt lat="48.16034" lon="-3.61061">
        <ele>243.7</ele>
        <time>2023-04-05T12:47:18Z</time>
      </trkpt>
      <trkpt lat="48.16035" lon="-3.61059">
        <ele>243.7</ele>
        <time>2023-04-05T12:47:19Z</time>
      </trkpt>
      <trkpt lat="48.16035" lon="-3.61055">
        <ele>243.7</ele>
        <time>2023-04-05T12:47:20Z</time>
      </trkpt>
      <trkpt lat="48.16037" lon="-3.61051">
        <ele>243.7</ele>
        <time>2023-04-05T12:47:21Z</time>
      </trkpt>
      <trkpt lat="48.16038" lon="-3.61047">
        <ele>243.7</ele>
        <time>2023-04-05T12:47:22Z</time>
      </trkpt>
      <trkpt lat="48.16038" lon="-3.61045">
        <ele>243.7</ele>
        <time>2023-04-05T12:47:23Z</time>
      </trkpt>
      <trkpt lat="48.16039" lon="-3.6104">
        <ele>243.7</ele>
        <time>2023-04-05T12:47:24Z</time>
      </trkpt>
      <trkpt lat="48.16039" lon="-3.61039">
        <ele>243.7</ele>
        <time>2023-04-05T12:47:25Z</time>
      </trkpt>
      <trkpt lat="48.16041" lon="-3.61034">
        <ele>243.8</ele>
        <time>2023-04-05T12:47:26Z</time>
      </trkpt>
      <trkpt lat="48.16041" lon="-3.61032">
        <ele>243.8</ele>
        <time>2023-04-05T12:47:27Z</time>
      </trkpt>
      <trkpt lat="48.16042" lon="-3.61028">
        <ele>243.8</ele>
        <time>2023-04-05T12:47:28Z</time>
      </trkpt>
      <trkpt lat="48.16042" lon="-3.61026">
        <ele>243.8</ele>
        <time>2023-04-05T12:47:29Z</time>
      </trkpt>
      <trkpt lat="48.16042" lon="-3.61021">
        <ele>243.8</ele>
        <time>2023-04-05T12:47:30Z</time>
      </trkpt>
      <trkpt lat="48.16042" lon="-3.6102">
        <ele>243.8</ele>
        <time>2023-04-05T12:47:31Z</time>
      </trkpt>
      <trkpt lat="48.16043" lon="-3.61016">
        <ele>243.9</ele>
        <time>2023-04-05T12:47:32Z</time>
      </trkpt>
      <trkpt lat="48.16044" lon="-3.61014">
        <ele>243.9</ele>
        <time>2023-04-05T12:47:33Z</time>
      </trkpt>
      <trkpt lat="48.16046" lon="-3.61009">
        <ele>243.9</ele>
        <time>2023-04-05T12:47:34Z</time>
      </trkpt>
      <trkpt lat="48.16047" lon="-3.61008">
        <ele>244</ele>
        <time>2023-04-05T12:47:35Z</time>
      </trkpt>
      <trkpt lat="48.16049" lon="-3.61005">
        <ele>244</ele>
        <time>2023-04-05T12:47:36Z</time>
      </trkpt>
      <trkpt lat="48.1605" lon="-3.61004">
        <ele>244</ele>
        <time>2023-04-05T12:47:37Z</time>
      </trkpt>
      <trkpt lat="48.1605" lon="-3.60999">
        <ele>244.1</ele>
        <time>2023-04-05T12:47:38Z</time>
      </trkpt>
      <trkpt lat="48.16051" lon="-3.60998">
        <ele>244.1</ele>
        <time>2023-04-05T12:47:39Z</time>
      </trkpt>
      <trkpt lat="48.16051" lon="-3.60994">
        <ele>244.2</ele>
        <time>2023-04-05T12:47:40Z</time>
      </trkpt>
      <trkpt lat="48.16051" lon="-3.60992">
        <ele>244.2</ele>
        <time>2023-04-05T12:47:41Z</time>
      </trkpt>
      <trkpt lat="48.16052" lon="-3.60989">
        <ele>244.2</ele>
        <time>2023-04-05T12:47:42Z</time>
      </trkpt>
      <trkpt lat="48.16054" lon="-3.60984">
        <ele>244.3</ele>
        <time>2023-04-05T12:47:44Z</time>
      </trkpt>
      <trkpt lat="48.16054" lon="-3.60978">
        <ele>244.4</ele>
        <time>2023-04-05T12:47:45Z</time>
      </trkpt>
      <trkpt lat="48.16055" lon="-3.60975">
        <ele>244.4</ele>
        <time>2023-04-05T12:47:46Z</time>
      </trkpt>
      <trkpt lat="48.16056" lon="-3.6097">
        <ele>244.4</ele>
        <time>2023-04-05T12:47:47Z</time>
      </trkpt>
      <trkpt lat="48.16057" lon="-3.60966">
        <ele>244.5</ele>
        <time>2023-04-05T12:47:49Z</time>
      </trkpt>
      <trkpt lat="48.16058" lon="-3.60962">
        <ele>244.5</ele>
        <time>2023-04-05T12:47:50Z</time>
      </trkpt>
      <trkpt lat="48.16059" lon="-3.60958">
        <ele>244.6</ele>
        <time>2023-04-05T12:47:51Z</time>
      </trkpt>
      <trkpt lat="48.1606" lon="-3.60956">
        <ele>244.7</ele>
        <time>2023-04-05T12:47:52Z</time>
      </trkpt>
      <trkpt lat="48.1606" lon="-3.60952">
        <ele>244.7</ele>
        <time>2023-04-05T12:47:53Z</time>
      </trkpt>
      <trkpt lat="48.16061" lon="-3.60945">
        <ele>244.9</ele>
        <time>2023-04-05T12:47:54Z</time>
      </trkpt>
      <trkpt lat="48.16062" lon="-3.60942">
        <ele>245</ele>
        <time>2023-04-05T12:47:55Z</time>
      </trkpt>
      <trkpt lat="48.16063" lon="-3.60938">
        <ele>245.1</ele>
        <time>2023-04-05T12:47:57Z</time>
      </trkpt>
      <trkpt lat="48.16064" lon="-3.60933">
        <ele>245.2</ele>
        <time>2023-04-05T12:47:58Z</time>
      </trkpt>
      <trkpt lat="48.16064" lon="-3.60932">
        <ele>245.3</ele>
        <time>2023-04-05T12:47:59Z</time>
      </trkpt>
      <trkpt lat="48.16065" lon="-3.60927">
        <ele>245.4</ele>
        <time>2023-04-05T12:48:00Z</time>
      </trkpt>
      <trkpt lat="48.16066" lon="-3.60926">
        <ele>245.4</ele>
        <time>2023-04-05T12:48:01Z</time>
      </trkpt>
      <trkpt lat="48.16067" lon="-3.60922">
        <ele>245.5</ele>
        <time>2023-04-05T12:48:02Z</time>
      </trkpt>
      <trkpt lat="48.16067" lon="-3.60921">
        <ele>245.6</ele>
        <time>2023-04-05T12:48:03Z</time>
      </trkpt>
      <trkpt lat="48.16069" lon="-3.60917">
        <ele>245.7</ele>
        <time>2023-04-05T12:48:04Z</time>
      </trkpt>
      <trkpt lat="48.1607" lon="-3.60915">
        <ele>245.7</ele>
        <time>2023-04-05T12:48:05Z</time>
      </trkpt>
      <trkpt lat="48.1607" lon="-3.6091">
        <ele>245.9</ele>
        <time>2023-04-05T12:48:06Z</time>
      </trkpt>
      <trkpt lat="48.16071" lon="-3.60909">
        <ele>245.9</ele>
        <time>2023-04-05T12:48:07Z</time>
      </trkpt>
      <trkpt lat="48.16071" lon="-3.60904">
        <ele>246</ele>
        <time>2023-04-05T12:48:08Z</time>
      </trkpt>
      <trkpt lat="48.16071" lon="-3.60903">
        <ele>246</ele>
        <time>2023-04-05T12:48:09Z</time>
      </trkpt>
      <trkpt lat="48.16071" lon="-3.609">
        <ele>246.1</ele>
        <time>2023-04-05T12:48:10Z</time>
      </trkpt>
      <trkpt lat="48.16072" lon="-3.60898">
        <ele>246.1</ele>
        <time>2023-04-05T12:48:11Z</time>
      </trkpt>
      <trkpt lat="48.16073" lon="-3.60893">
        <ele>246.2</ele>
        <time>2023-04-05T12:48:12Z</time>
      </trkpt>
      <trkpt lat="48.16073" lon="-3.60891">
        <ele>246.2</ele>
        <time>2023-04-05T12:48:13Z</time>
      </trkpt>
      <trkpt lat="48.16074" lon="-3.60887">
        <ele>246.3</ele>
        <time>2023-04-05T12:48:14Z</time>
      </trkpt>
      <trkpt lat="48.16074" lon="-3.60886">
        <ele>246.4</ele>
        <time>2023-04-05T12:48:15Z</time>
      </trkpt>
      <trkpt lat="48.16074" lon="-3.60881">
        <ele>246.4</ele>
        <time>2023-04-05T12:48:16Z</time>
      </trkpt>
      <trkpt lat="48.16076" lon="-3.60875">
        <ele>246.6</ele>
        <time>2023-04-05T12:48:17Z</time>
      </trkpt>
      <trkpt lat="48.16077" lon="-3.60873">
        <ele>246.6</ele>
        <time>2023-04-05T12:48:18Z</time>
      </trkpt>
      <trkpt lat="48.16078" lon="-3.60867">
        <ele>246.8</ele>
        <time>2023-04-05T12:48:20Z</time>
      </trkpt>
      <trkpt lat="48.16079" lon="-3.60864">
        <ele>246.8</ele>
        <time>2023-04-05T12:48:21Z</time>
      </trkpt>
      <trkpt lat="48.1608" lon="-3.60858">
        <ele>247</ele>
        <time>2023-04-05T12:48:23Z</time>
      </trkpt>
      <trkpt lat="48.16081" lon="-3.60854">
        <ele>247.1</ele>
        <time>2023-04-05T12:48:25Z</time>
      </trkpt>
      <trkpt lat="48.16082" lon="-3.60849">
        <ele>247.2</ele>
        <time>2023-04-05T12:48:26Z</time>
      </trkpt>
      <trkpt lat="48.16083" lon="-3.60845">
        <ele>247.3</ele>
        <time>2023-04-05T12:48:27Z</time>
      </trkpt>
      <trkpt lat="48.16084" lon="-3.60842">
        <ele>247.4</ele>
        <time>2023-04-05T12:48:29Z</time>
      </trkpt>
      <trkpt lat="48.16085" lon="-3.60837">
        <ele>247.6</ele>
        <time>2023-04-05T12:48:30Z</time>
      </trkpt>
      <trkpt lat="48.16086" lon="-3.60832">
        <ele>247.8</ele>
        <time>2023-04-05T12:48:31Z</time>
      </trkpt>
      <trkpt lat="48.16086" lon="-3.60831">
        <ele>247.8</ele>
        <time>2023-04-05T12:48:32Z</time>
      </trkpt>
      <trkpt lat="48.16087" lon="-3.60826">
        <ele>248</ele>
        <time>2023-04-05T12:48:34Z</time>
      </trkpt>
      <trkpt lat="48.16088" lon="-3.60824">
        <ele>248</ele>
        <time>2023-04-05T12:48:35Z</time>
      </trkpt>
      <trkpt lat="48.16089" lon="-3.60821">
        <ele>248.1</ele>
        <time>2023-04-05T12:48:36Z</time>
      </trkpt>
      <trkpt lat="48.16089" lon="-3.60819">
        <ele>248.2</ele>
        <time>2023-04-05T12:48:37Z</time>
      </trkpt>
      <trkpt lat="48.1609" lon="-3.60814">
        <ele>248.4</ele>
        <time>2023-04-05T12:48:38Z</time>
      </trkpt>
      <trkpt lat="48.1609" lon="-3.60812">
        <ele>248.4</ele>
        <time>2023-04-05T12:48:39Z</time>
      </trkpt>
      <trkpt lat="48.16091" lon="-3.60807">
        <ele>248.6</ele>
        <time>2023-04-05T12:48:40Z</time>
      </trkpt>
      <trkpt lat="48.16092" lon="-3.60806">
        <ele>248.6</ele>
        <time>2023-04-05T12:48:41Z</time>
      </trkpt>
      <trkpt lat="48.16092" lon="-3.60801">
        <ele>248.7</ele>
        <time>2023-04-05T12:48:42Z</time>
      </trkpt>
      <trkpt lat="48.16093" lon="-3.60799">
        <ele>248.8</ele>
        <time>2023-04-05T12:48:43Z</time>
      </trkpt>
      <trkpt lat="48.16093" lon="-3.60795">
        <ele>248.9</ele>
        <time>2023-04-05T12:48:44Z</time>
      </trkpt>
      <trkpt lat="48.16093" lon="-3.60793">
        <ele>248.9</ele>
        <time>2023-04-05T12:48:45Z</time>
      </trkpt>
      <trkpt lat="48.16094" lon="-3.6079">
        <ele>249</ele>
        <time>2023-04-05T12:48:46Z</time>
      </trkpt>
      <trkpt lat="48.16094" lon="-3.60788">
        <ele>249.1</ele>
        <time>2023-04-05T12:48:47Z</time>
      </trkpt>
      <trkpt lat="48.16095" lon="-3.60784">
        <ele>249.2</ele>
        <time>2023-04-05T12:48:48Z</time>
      </trkpt>
      <trkpt lat="48.16095" lon="-3.60783">
        <ele>249.2</ele>
        <time>2023-04-05T12:48:49Z</time>
      </trkpt>
      <trkpt lat="48.16096" lon="-3.60778">
        <ele>249.3</ele>
        <time>2023-04-05T12:48:50Z</time>
      </trkpt>
      <trkpt lat="48.16097" lon="-3.60777">
        <ele>249.4</ele>
        <time>2023-04-05T12:48:51Z</time>
      </trkpt>
      <trkpt lat="48.16098" lon="-3.60773">
        <ele>249.5</ele>
        <time>2023-04-05T12:48:52Z</time>
      </trkpt>
      <trkpt lat="48.16098" lon="-3.60771">
        <ele>249.6</ele>
        <time>2023-04-05T12:48:53Z</time>
      </trkpt>
      <trkpt lat="48.16099" lon="-3.60766">
        <ele>249.7</ele>
        <time>2023-04-05T12:48:54Z</time>
      </trkpt>
      <trkpt lat="48.161" lon="-3.60765">
        <ele>249.7</ele>
        <time>2023-04-05T12:48:55Z</time>
      </trkpt>
      <trkpt lat="48.16101" lon="-3.60761">
        <ele>249.9</ele>
        <time>2023-04-05T12:48:56Z</time>
      </trkpt>
      <trkpt lat="48.16101" lon="-3.60759">
        <ele>249.9</ele>
        <time>2023-04-05T12:48:57Z</time>
      </trkpt>
      <trkpt lat="48.16102" lon="-3.60754">
        <ele>250</ele>
        <time>2023-04-05T12:48:58Z</time>
      </trkpt>
      <trkpt lat="48.16102" lon="-3.60753">
        <ele>250.1</ele>
        <time>2023-04-05T12:48:59Z</time>
      </trkpt>
      <trkpt lat="48.16103" lon="-3.60748">
        <ele>250.2</ele>
        <time>2023-04-05T12:49:00Z</time>
      </trkpt>
      <trkpt lat="48.16103" lon="-3.60747">
        <ele>250.2</ele>
        <time>2023-04-05T12:49:01Z</time>
      </trkpt>
      <trkpt lat="48.16104" lon="-3.60745">
        <ele>250.3</ele>
        <time>2023-04-05T12:49:02Z</time>
      </trkpt>
      <trkpt lat="48.16105" lon="-3.60742">
        <ele>250.3</ele>
        <time>2023-04-05T12:49:03Z</time>
      </trkpt>
      <trkpt lat="48.16107" lon="-3.60737">
        <ele>250.5</ele>
        <time>2023-04-05T12:49:04Z</time>
      </trkpt>
      <trkpt lat="48.16107" lon="-3.60735">
        <ele>250.5</ele>
        <time>2023-04-05T12:49:05Z</time>
      </trkpt>
      <trkpt lat="48.16109" lon="-3.60731">
        <ele>250.6</ele>
        <time>2023-04-05T12:49:06Z</time>
      </trkpt>
      <trkpt lat="48.1611" lon="-3.60725">
        <ele>250.7</ele>
        <time>2023-04-05T12:49:08Z</time>
      </trkpt>
      <trkpt lat="48.1611" lon="-3.60721">
        <ele>250.8</ele>
        <time>2023-04-05T12:49:10Z</time>
      </trkpt>
      <trkpt lat="48.16112" lon="-3.60714">
        <ele>250.9</ele>
        <time>2023-04-05T12:49:11Z</time>
      </trkpt>
      <trkpt lat="48.16112" lon="-3.60709">
        <ele>251.1</ele>
        <time>2023-04-05T12:49:13Z</time>
      </trkpt>
      <trkpt lat="48.16112" lon="-3.60707">
        <ele>251.1</ele>
        <time>2023-04-05T12:49:14Z</time>
      </trkpt>
      <trkpt lat="48.16113" lon="-3.60702">
        <ele>251.2</ele>
        <time>2023-04-05T12:49:15Z</time>
      </trkpt>
      <trkpt lat="48.16113" lon="-3.607">
        <ele>251.3</ele>
        <time>2023-04-05T12:49:16Z</time>
      </trkpt>
      <trkpt lat="48.16113" lon="-3.60696">
        <ele>251.4</ele>
        <time>2023-04-05T12:49:17Z</time>
      </trkpt>
      <trkpt lat="48.16113" lon="-3.60695">
        <ele>251.4</ele>
        <time>2023-04-05T12:49:18Z</time>
      </trkpt>
      <trkpt lat="48.16114" lon="-3.60689">
        <ele>251.6</ele>
        <time>2023-04-05T12:49:19Z</time>
      </trkpt>
      <trkpt lat="48.16114" lon="-3.60685">
        <ele>251.6</ele>
        <time>2023-04-05T12:49:20Z</time>
      </trkpt>
      <trkpt lat="48.16115" lon="-3.60682">
        <ele>251.7</ele>
        <time>2023-04-05T12:49:21Z</time>
      </trkpt>
      <trkpt lat="48.16116" lon="-3.60677">
        <ele>251.8</ele>
        <time>2023-04-05T12:49:23Z</time>
      </trkpt>
      <trkpt lat="48.16117" lon="-3.60675">
        <ele>251.8</ele>
        <time>2023-04-05T12:49:24Z</time>
      </trkpt>
      <trkpt lat="48.16118" lon="-3.6067">
        <ele>251.9</ele>
        <time>2023-04-05T12:49:25Z</time>
      </trkpt>
      <trkpt lat="48.16119" lon="-3.60669">
        <ele>251.9</ele>
        <time>2023-04-05T12:49:26Z</time>
      </trkpt>
      <trkpt lat="48.1612" lon="-3.60664">
        <ele>252</ele>
        <time>2023-04-05T12:49:27Z</time>
      </trkpt>
      <trkpt lat="48.16121" lon="-3.60662">
        <ele>252</ele>
        <time>2023-04-05T12:49:28Z</time>
      </trkpt>
      <trkpt lat="48.16122" lon="-3.60659">
        <ele>252</ele>
        <time>2023-04-05T12:49:29Z</time>
      </trkpt>
      <trkpt lat="48.16125" lon="-3.60655">
        <ele>252.1</ele>
        <time>2023-04-05T12:49:30Z</time>
      </trkpt>
      <trkpt lat="48.16125" lon="-3.60653">
        <ele>252.1</ele>
        <time>2023-04-05T12:49:31Z</time>
      </trkpt>
      <trkpt lat="48.16127" lon="-3.60648">
        <ele>252.2</ele>
        <time>2023-04-05T12:49:32Z</time>
      </trkpt>
      <trkpt lat="48.16128" lon="-3.60647">
        <ele>252.2</ele>
        <time>2023-04-05T12:49:33Z</time>
      </trkpt>
      <trkpt lat="48.1613" lon="-3.60641">
        <ele>252.2</ele>
        <time>2023-04-05T12:49:34Z</time>
      </trkpt>
      <trkpt lat="48.16131" lon="-3.60638">
        <ele>252.3</ele>
        <time>2023-04-05T12:49:35Z</time>
      </trkpt>
      <trkpt lat="48.16133" lon="-3.60634">
        <ele>252.3</ele>
        <time>2023-04-05T12:49:37Z</time>
      </trkpt>
      <trkpt lat="48.16135" lon="-3.6063">
        <ele>252.4</ele>
        <time>2023-04-05T12:49:38Z</time>
      </trkpt>
      <trkpt lat="48.16135" lon="-3.60628">
        <ele>252.4</ele>
        <time>2023-04-05T12:49:39Z</time>
      </trkpt>
      <trkpt lat="48.16136" lon="-3.60624">
        <ele>252.5</ele>
        <time>2023-04-05T12:49:40Z</time>
      </trkpt>
      <trkpt lat="48.16137" lon="-3.60622">
        <ele>252.5</ele>
        <time>2023-04-05T12:49:41Z</time>
      </trkpt>
      <trkpt lat="48.16138" lon="-3.60618">
        <ele>252.6</ele>
        <time>2023-04-05T12:49:42Z</time>
      </trkpt>
      <trkpt lat="48.16138" lon="-3.60617">
        <ele>252.6</ele>
        <time>2023-04-05T12:49:43Z</time>
      </trkpt>
      <trkpt lat="48.16139" lon="-3.60612">
        <ele>252.6</ele>
        <time>2023-04-05T12:49:44Z</time>
      </trkpt>
      <trkpt lat="48.16139" lon="-3.6061">
        <ele>252.7</ele>
        <time>2023-04-05T12:49:45Z</time>
      </trkpt>
      <trkpt lat="48.1614" lon="-3.60606">
        <ele>252.7</ele>
        <time>2023-04-05T12:49:46Z</time>
      </trkpt>
      <trkpt lat="48.16141" lon="-3.60599">
        <ele>252.8</ele>
        <time>2023-04-05T12:49:48Z</time>
      </trkpt>
      <trkpt lat="48.16142" lon="-3.60595">
        <ele>252.8</ele>
        <time>2023-04-05T12:49:50Z</time>
      </trkpt>
      <trkpt lat="48.16143" lon="-3.60591">
        <ele>252.9</ele>
        <time>2023-04-05T12:49:51Z</time>
      </trkpt>
      <trkpt lat="48.16144" lon="-3.60589">
        <ele>252.9</ele>
        <time>2023-04-05T12:49:52Z</time>
      </trkpt>
      <trkpt lat="48.16144" lon="-3.60583">
        <ele>253</ele>
        <time>2023-04-05T12:49:53Z</time>
      </trkpt>
      <trkpt lat="48.16144" lon="-3.6058">
        <ele>253</ele>
        <time>2023-04-05T12:49:54Z</time>
      </trkpt>
      <trkpt lat="48.16145" lon="-3.60577">
        <ele>253</ele>
        <time>2023-04-05T12:49:55Z</time>
      </trkpt>
      <trkpt lat="48.16145" lon="-3.60574">
        <ele>253.1</ele>
        <time>2023-04-05T12:49:56Z</time>
      </trkpt>
      <trkpt lat="48.16146" lon="-3.60571">
        <ele>253.1</ele>
        <time>2023-04-05T12:49:58Z</time>
      </trkpt>
      <trkpt lat="48.16148" lon="-3.60566">
        <ele>253.1</ele>
        <time>2023-04-05T12:49:59Z</time>
      </trkpt>
      <trkpt lat="48.16148" lon="-3.60565">
        <ele>253.1</ele>
        <time>2023-04-05T12:50:00Z</time>
      </trkpt>
      <trkpt lat="48.1615" lon="-3.60559">
        <ele>253.2</ele>
        <time>2023-04-05T12:50:01Z</time>
      </trkpt>
      <trkpt lat="48.16151" lon="-3.60556">
        <ele>253.2</ele>
        <time>2023-04-05T12:50:02Z</time>
      </trkpt>
      <trkpt lat="48.16152" lon="-3.60553">
        <ele>253.3</ele>
        <time>2023-04-05T12:50:04Z</time>
      </trkpt>
      <trkpt lat="48.16153" lon="-3.60548">
        <ele>253.3</ele>
        <time>2023-04-05T12:50:05Z</time>
      </trkpt>
      <trkpt lat="48.16153" lon="-3.60546">
        <ele>253.3</ele>
        <time>2023-04-05T12:50:06Z</time>
      </trkpt>
      <trkpt lat="48.16154" lon="-3.60542">
        <ele>253.3</ele>
        <time>2023-04-05T12:50:07Z</time>
      </trkpt>
      <trkpt lat="48.16154" lon="-3.60541">
        <ele>253.4</ele>
        <time>2023-04-05T12:50:08Z</time>
      </trkpt>
      <trkpt lat="48.16156" lon="-3.60534">
        <ele>253.4</ele>
        <time>2023-04-05T12:50:09Z</time>
      </trkpt>
      <trkpt lat="48.16157" lon="-3.60531">
        <ele>253.4</ele>
        <time>2023-04-05T12:50:10Z</time>
      </trkpt>
      <trkpt lat="48.16158" lon="-3.60527">
        <ele>253.5</ele>
        <time>2023-04-05T12:50:12Z</time>
      </trkpt>
      <trkpt lat="48.16159" lon="-3.60522">
        <ele>253.5</ele>
        <time>2023-04-05T12:50:13Z</time>
      </trkpt>
      <trkpt lat="48.1616" lon="-3.60521">
        <ele>253.5</ele>
        <time>2023-04-05T12:50:14Z</time>
      </trkpt>
      <trkpt lat="48.1616" lon="-3.60516">
        <ele>253.5</ele>
        <time>2023-04-05T12:50:15Z</time>
      </trkpt>
      <trkpt lat="48.1616" lon="-3.60515">
        <ele>253.6</ele>
        <time>2023-04-05T12:50:16Z</time>
      </trkpt>
      <trkpt lat="48.16162" lon="-3.6051">
        <ele>253.6</ele>
        <time>2023-04-05T12:50:17Z</time>
      </trkpt>
      <trkpt lat="48.16162" lon="-3.60509">
        <ele>253.6</ele>
        <time>2023-04-05T12:50:18Z</time>
      </trkpt>
      <trkpt lat="48.16163" lon="-3.60505">
        <ele>253.6</ele>
        <time>2023-04-05T12:50:19Z</time>
      </trkpt>
      <trkpt lat="48.16163" lon="-3.60504">
        <ele>253.6</ele>
        <time>2023-04-05T12:50:20Z</time>
      </trkpt>
      <trkpt lat="48.16165" lon="-3.605">
        <ele>253.7</ele>
        <time>2023-04-05T12:50:21Z</time>
      </trkpt>
      <trkpt lat="48.16165" lon="-3.60498">
        <ele>253.7</ele>
        <time>2023-04-05T12:50:22Z</time>
      </trkpt>
      <trkpt lat="48.16167" lon="-3.60494">
        <ele>253.7</ele>
        <time>2023-04-05T12:50:23Z</time>
      </trkpt>
      <trkpt lat="48.16167" lon="-3.60492">
        <ele>253.7</ele>
        <time>2023-04-05T12:50:24Z</time>
      </trkpt>
      <trkpt lat="48.16169" lon="-3.60487">
        <ele>253.8</ele>
        <time>2023-04-05T12:50:25Z</time>
      </trkpt>
      <trkpt lat="48.16169" lon="-3.60486">
        <ele>253.8</ele>
        <time>2023-04-05T12:50:26Z</time>
      </trkpt>
      <trkpt lat="48.1617" lon="-3.60481">
        <ele>253.8</ele>
        <time>2023-04-05T12:50:27Z</time>
      </trkpt>
      <trkpt lat="48.1617" lon="-3.6048">
        <ele>253.8</ele>
        <time>2023-04-05T12:50:28Z</time>
      </trkpt>
      <trkpt lat="48.16172" lon="-3.60474">
        <ele>253.9</ele>
        <time>2023-04-05T12:50:29Z</time>
      </trkpt>
      <trkpt lat="48.16173" lon="-3.60471">
        <ele>253.9</ele>
        <time>2023-04-05T12:50:30Z</time>
      </trkpt>
      <trkpt lat="48.16173" lon="-3.60467">
        <ele>253.9</ele>
        <time>2023-04-05T12:50:32Z</time>
      </trkpt>
      <trkpt lat="48.16176" lon="-3.60462">
        <ele>253.9</ele>
        <time>2023-04-05T12:50:33Z</time>
      </trkpt>
      <trkpt lat="48.16177" lon="-3.60458">
        <ele>253.9</ele>
        <time>2023-04-05T12:50:35Z</time>
      </trkpt>
      <trkpt lat="48.16178" lon="-3.60455">
        <ele>253.9</ele>
        <time>2023-04-05T12:50:36Z</time>
      </trkpt>
      <trkpt lat="48.16179" lon="-3.6045">
        <ele>253.9</ele>
        <time>2023-04-05T12:50:37Z</time>
      </trkpt>
      <trkpt lat="48.16179" lon="-3.60448">
        <ele>253.9</ele>
        <time>2023-04-05T12:50:38Z</time>
      </trkpt>
      <trkpt lat="48.1618" lon="-3.60445">
        <ele>253.8</ele>
        <time>2023-04-05T12:50:39Z</time>
      </trkpt>
      <trkpt lat="48.16182" lon="-3.6044">
        <ele>253.8</ele>
        <time>2023-04-05T12:50:40Z</time>
      </trkpt>
      <trkpt lat="48.16182" lon="-3.60438">
        <ele>253.8</ele>
        <time>2023-04-05T12:50:41Z</time>
      </trkpt>
      <trkpt lat="48.16183" lon="-3.60434">
        <ele>253.7</ele>
        <time>2023-04-05T12:50:42Z</time>
      </trkpt>
      <trkpt lat="48.16184" lon="-3.60428">
        <ele>253.7</ele>
        <time>2023-04-05T12:50:43Z</time>
      </trkpt>
      <trkpt lat="48.16185" lon="-3.6042">
        <ele>253.6</ele>
        <time>2023-04-05T12:50:45Z</time>
      </trkpt>
      <trkpt lat="48.16186" lon="-3.60418">
        <ele>253.6</ele>
        <time>2023-04-05T12:50:46Z</time>
      </trkpt>
      <trkpt lat="48.16186" lon="-3.60415">
        <ele>253.5</ele>
        <time>2023-04-05T12:50:47Z</time>
      </trkpt>
      <trkpt lat="48.16187" lon="-3.60411">
        <ele>253.5</ele>
        <time>2023-04-05T12:50:48Z</time>
      </trkpt>
      <trkpt lat="48.16187" lon="-3.60406">
        <ele>253.4</ele>
        <time>2023-04-05T12:50:49Z</time>
      </trkpt>
      <trkpt lat="48.16188" lon="-3.60401">
        <ele>253.3</ele>
        <time>2023-04-05T12:50:50Z</time>
      </trkpt>
      <trkpt lat="48.16189" lon="-3.60397">
        <ele>253.2</ele>
        <time>2023-04-05T12:50:51Z</time>
      </trkpt>
      <trkpt lat="48.1619" lon="-3.60393">
        <ele>253.1</ele>
        <time>2023-04-05T12:50:52Z</time>
      </trkpt>
      <trkpt lat="48.16191" lon="-3.60389">
        <ele>253</ele>
        <time>2023-04-05T12:50:53Z</time>
      </trkpt>
      <trkpt lat="48.16192" lon="-3.60385">
        <ele>252.9</ele>
        <time>2023-04-05T12:50:54Z</time>
      </trkpt>
      <trkpt lat="48.16194" lon="-3.60381">
        <ele>252.8</ele>
        <time>2023-04-05T12:50:55Z</time>
      </trkpt>
      <trkpt lat="48.16195" lon="-3.60376">
        <ele>252.7</ele>
        <time>2023-04-05T12:50:56Z</time>
      </trkpt>
      <trkpt lat="48.16196" lon="-3.60371">
        <ele>252.5</ele>
        <time>2023-04-05T12:50:57Z</time>
      </trkpt>
      <trkpt lat="48.16197" lon="-3.60368">
        <ele>252.4</ele>
        <time>2023-04-05T12:50:58Z</time>
      </trkpt>
      <trkpt lat="48.16197" lon="-3.60364">
        <ele>252.3</ele>
        <time>2023-04-05T12:50:59Z</time>
      </trkpt>
      <trkpt lat="48.16199" lon="-3.60359">
        <ele>252.1</ele>
        <time>2023-04-05T12:51:00Z</time>
      </trkpt>
      <trkpt lat="48.162" lon="-3.60355">
        <ele>252</ele>
        <time>2023-04-05T12:51:01Z</time>
      </trkpt>
      <trkpt lat="48.16201" lon="-3.60351">
        <ele>251.8</ele>
        <time>2023-04-05T12:51:02Z</time>
      </trkpt>
      <trkpt lat="48.16202" lon="-3.60346">
        <ele>251.7</ele>
        <time>2023-04-05T12:51:03Z</time>
      </trkpt>
      <trkpt lat="48.16203" lon="-3.60342">
        <ele>251.5</ele>
        <time>2023-04-05T12:51:04Z</time>
      </trkpt>
      <trkpt lat="48.16204" lon="-3.60337">
        <ele>251.3</ele>
        <time>2023-04-05T12:51:05Z</time>
      </trkpt>
      <trkpt lat="48.16205" lon="-3.60331">
        <ele>251.1</ele>
        <time>2023-04-05T12:51:06Z</time>
      </trkpt>
      <trkpt lat="48.16206" lon="-3.60326">
        <ele>250.8</ele>
        <time>2023-04-05T12:51:07Z</time>
      </trkpt>
      <trkpt lat="48.16208" lon="-3.60321">
        <ele>250.6</ele>
        <time>2023-04-05T12:51:08Z</time>
      </trkpt>
      <trkpt lat="48.16209" lon="-3.60315">
        <ele>250.4</ele>
        <time>2023-04-05T12:51:09Z</time>
      </trkpt>
      <trkpt lat="48.16211" lon="-3.60309">
        <ele>250.1</ele>
        <time>2023-04-05T12:51:10Z</time>
      </trkpt>
      <trkpt lat="48.16212" lon="-3.60304">
        <ele>249.9</ele>
        <time>2023-04-05T12:51:11Z</time>
      </trkpt>
      <trkpt lat="48.16214" lon="-3.60299">
        <ele>249.7</ele>
        <time>2023-04-05T12:51:12Z</time>
      </trkpt>
      <trkpt lat="48.16215" lon="-3.60293">
        <ele>249.5</ele>
        <time>2023-04-05T12:51:13Z</time>
      </trkpt>
      <trkpt lat="48.16216" lon="-3.60287">
        <ele>249.3</ele>
        <time>2023-04-05T12:51:14Z</time>
      </trkpt>
      <trkpt lat="48.16217" lon="-3.60282">
        <ele>249.1</ele>
        <time>2023-04-05T12:51:15Z</time>
      </trkpt>
      <trkpt lat="48.16218" lon="-3.60278">
        <ele>248.9</ele>
        <time>2023-04-05T12:51:16Z</time>
      </trkpt>
      <trkpt lat="48.1622" lon="-3.60273">
        <ele>248.7</ele>
        <time>2023-04-05T12:51:17Z</time>
      </trkpt>
      <trkpt lat="48.16222" lon="-3.60266">
        <ele>248.4</ele>
        <time>2023-04-05T12:51:18Z</time>
      </trkpt>
      <trkpt lat="48.16223" lon="-3.60259">
        <ele>248.1</ele>
        <time>2023-04-05T12:51:20Z</time>
      </trkpt>
      <trkpt lat="48.16225" lon="-3.60248">
        <ele>247.6</ele>
        <time>2023-04-05T12:51:21Z</time>
      </trkpt>
      <trkpt lat="48.16227" lon="-3.60241">
        <ele>247.3</ele>
        <time>2023-04-05T12:51:23Z</time>
      </trkpt>
      <trkpt lat="48.16229" lon="-3.60233">
        <ele>246.9</ele>
        <time>2023-04-05T12:51:24Z</time>
      </trkpt>
      <trkpt lat="48.16231" lon="-3.60225">
        <ele>246.5</ele>
        <time>2023-04-05T12:51:25Z</time>
      </trkpt>
      <trkpt lat="48.16231" lon="-3.60219">
        <ele>246.3</ele>
        <time>2023-04-05T12:51:26Z</time>
      </trkpt>
      <trkpt lat="48.16232" lon="-3.60213">
        <ele>246</ele>
        <time>2023-04-05T12:51:27Z</time>
      </trkpt>
      <trkpt lat="48.16232" lon="-3.60208">
        <ele>245.8</ele>
        <time>2023-04-05T12:51:28Z</time>
      </trkpt>
      <trkpt lat="48.16233" lon="-3.60203">
        <ele>245.6</ele>
        <time>2023-04-05T12:51:29Z</time>
      </trkpt>
      <trkpt lat="48.16235" lon="-3.60197">
        <ele>245.3</ele>
        <time>2023-04-05T12:51:30Z</time>
      </trkpt>
      <trkpt lat="48.16236" lon="-3.60192">
        <ele>245.1</ele>
        <time>2023-04-05T12:51:31Z</time>
      </trkpt>
      <trkpt lat="48.16237" lon="-3.60186">
        <ele>244.8</ele>
        <time>2023-04-05T12:51:32Z</time>
      </trkpt>
      <trkpt lat="48.16239" lon="-3.60178">
        <ele>244.5</ele>
        <time>2023-04-05T12:51:33Z</time>
      </trkpt>
      <trkpt lat="48.1624" lon="-3.60172">
        <ele>244.2</ele>
        <time>2023-04-05T12:51:34Z</time>
      </trkpt>
      <trkpt lat="48.1624" lon="-3.60166">
        <ele>243.9</ele>
        <time>2023-04-05T12:51:36Z</time>
      </trkpt>
      <trkpt lat="48.16241" lon="-3.6016">
        <ele>243.6</ele>
        <time>2023-04-05T12:51:38Z</time>
      </trkpt>
      <trkpt lat="48.16243" lon="-3.60152">
        <ele>243</ele>
        <time>2023-04-05T12:51:40Z</time>
      </trkpt>
      <trkpt lat="48.16244" lon="-3.60149">
        <ele>242.7</ele>
        <time>2023-04-05T12:51:42Z</time>
      </trkpt>
      <trkpt lat="48.16245" lon="-3.60145">
        <ele>242.1</ele>
        <time>2023-04-05T12:51:43Z</time>
      </trkpt>
      <trkpt lat="48.16245" lon="-3.60144">
        <ele>242.1</ele>
        <time>2023-04-05T12:51:44Z</time>
      </trkpt>
      <trkpt lat="48.16245" lon="-3.60142">
        <ele>242.2</ele>
        <time>2023-04-05T12:51:45Z</time>
      </trkpt>
      <trkpt lat="48.16245" lon="-3.60139">
        <ele>242.2</ele>
        <time>2023-04-05T12:51:46Z</time>
      </trkpt>
      <trkpt lat="48.16247" lon="-3.60137">
        <ele>242.3</ele>
        <time>2023-04-05T12:51:47Z</time>
      </trkpt>
      <trkpt lat="48.1625" lon="-3.60138">
        <ele>242.3</ele>
        <time>2023-04-05T12:51:49Z</time>
      </trkpt>
      <trkpt lat="48.16251" lon="-3.60139">
        <ele>242.3</ele>
        <time>2023-04-05T12:51:50Z</time>
      </trkpt>
      <trkpt lat="48.16253" lon="-3.60142">
        <ele>242.4</ele>
        <time>2023-04-05T12:51:51Z</time>
      </trkpt>
      <trkpt lat="48.16255" lon="-3.60147">
        <ele>242.5</ele>
        <time>2023-04-05T12:51:52Z</time>
      </trkpt>
      <trkpt lat="48.16257" lon="-3.6015">
        <ele>242.6</ele>
        <time>2023-04-05T12:51:53Z</time>
      </trkpt>
      <trkpt lat="48.16261" lon="-3.60155">
        <ele>242.7</ele>
        <time>2023-04-05T12:51:54Z</time>
      </trkpt>
      <trkpt lat="48.16262" lon="-3.60158">
        <ele>242.7</ele>
        <time>2023-04-05T12:51:55Z</time>
      </trkpt>
      <trkpt lat="48.16265" lon="-3.60162">
        <ele>242.8</ele>
        <time>2023-04-05T12:51:57Z</time>
      </trkpt>
      <trkpt lat="48.16268" lon="-3.60166">
        <ele>242.8</ele>
        <time>2023-04-05T12:51:58Z</time>
      </trkpt>
      <trkpt lat="48.16269" lon="-3.60167">
        <ele>242.8</ele>
        <time>2023-04-05T12:51:59Z</time>
      </trkpt>
      <trkpt lat="48.16272" lon="-3.60171">
        <ele>242.9</ele>
        <time>2023-04-05T12:52:00Z</time>
      </trkpt>
      <trkpt lat="48.16273" lon="-3.60172">
        <ele>242.9</ele>
        <time>2023-04-05T12:52:01Z</time>
      </trkpt>
      <trkpt lat="48.16276" lon="-3.60175">
        <ele>243</ele>
        <time>2023-04-05T12:52:02Z</time>
      </trkpt>
      <trkpt lat="48.1628" lon="-3.6018">
        <ele>243.3</ele>
        <time>2023-04-05T12:52:03Z</time>
      </trkpt>
      <trkpt lat="48.16283" lon="-3.60183">
        <ele>243.4</ele>
        <time>2023-04-05T12:52:04Z</time>
      </trkpt>
      <trkpt lat="48.16285" lon="-3.60185">
        <ele>243.6</ele>
        <time>2023-04-05T12:52:05Z</time>
      </trkpt>
      <trkpt lat="48.1629" lon="-3.60191">
        <ele>243.8</ele>
        <time>2023-04-05T12:52:07Z</time>
      </trkpt>
      <trkpt lat="48.16292" lon="-3.60195">
        <ele>244</ele>
        <time>2023-04-05T12:52:09Z</time>
      </trkpt>
      <trkpt lat="48.16294" lon="-3.60197">
        <ele>244.1</ele>
        <time>2023-04-05T12:52:10Z</time>
      </trkpt>
      <trkpt lat="48.16297" lon="-3.602">
        <ele>244.2</ele>
        <time>2023-04-05T12:52:11Z</time>
      </trkpt>
      <trkpt lat="48.16299" lon="-3.60203">
        <ele>244.3</ele>
        <time>2023-04-05T12:52:12Z</time>
      </trkpt>
      <trkpt lat="48.16301" lon="-3.60206">
        <ele>244.4</ele>
        <time>2023-04-05T12:52:13Z</time>
      </trkpt>
      <trkpt lat="48.16303" lon="-3.60209">
        <ele>244.5</ele>
        <time>2023-04-05T12:52:14Z</time>
      </trkpt>
      <trkpt lat="48.16306" lon="-3.60212">
        <ele>244.5</ele>
        <time>2023-04-05T12:52:15Z</time>
      </trkpt>
      <trkpt lat="48.16309" lon="-3.60215">
        <ele>244.6</ele>
        <time>2023-04-05T12:52:16Z</time>
      </trkpt>
      <trkpt lat="48.16311" lon="-3.60218">
        <ele>244.6</ele>
        <time>2023-04-05T12:52:17Z</time>
      </trkpt>
      <trkpt lat="48.16314" lon="-3.60221">
        <ele>244.6</ele>
        <time>2023-04-05T12:52:18Z</time>
      </trkpt>
      <trkpt lat="48.16316" lon="-3.60224">
        <ele>244.5</ele>
        <time>2023-04-05T12:52:19Z</time>
      </trkpt>
      <trkpt lat="48.16319" lon="-3.60227">
        <ele>244.5</ele>
        <time>2023-04-05T12:52:20Z</time>
      </trkpt>
      <trkpt lat="48.16322" lon="-3.60231">
        <ele>244.4</ele>
        <time>2023-04-05T12:52:21Z</time>
      </trkpt>
      <trkpt lat="48.16326" lon="-3.60234">
        <ele>244.2</ele>
        <time>2023-04-05T12:52:22Z</time>
      </trkpt>
      <trkpt lat="48.16329" lon="-3.60238">
        <ele>244</ele>
        <time>2023-04-05T12:52:23Z</time>
      </trkpt>
      <trkpt lat="48.16333" lon="-3.60242">
        <ele>243.7</ele>
        <time>2023-04-05T12:52:24Z</time>
      </trkpt>
      <trkpt lat="48.16339" lon="-3.60247">
        <ele>243.1</ele>
        <time>2023-04-05T12:52:25Z</time>
      </trkpt>
      <trkpt lat="48.16344" lon="-3.60252">
        <ele>242.6</ele>
        <time>2023-04-05T12:52:26Z</time>
      </trkpt>
      <trkpt lat="48.1635" lon="-3.60255">
        <ele>241.9</ele>
        <time>2023-04-05T12:52:27Z</time>
      </trkpt>
      <trkpt lat="48.16356" lon="-3.60258">
        <ele>241.2</ele>
        <time>2023-04-05T12:52:28Z</time>
      </trkpt>
      <trkpt lat="48.16363" lon="-3.60261">
        <ele>240.3</ele>
        <time>2023-04-05T12:52:29Z</time>
      </trkpt>
      <trkpt lat="48.16371" lon="-3.60262">
        <ele>239.3</ele>
        <time>2023-04-05T12:52:30Z</time>
      </trkpt>
      <trkpt lat="48.16379" lon="-3.60262">
        <ele>238.2</ele>
        <time>2023-04-05T12:52:31Z</time>
      </trkpt>
      <trkpt lat="48.16388" lon="-3.60263">
        <ele>237.1</ele>
        <time>2023-04-05T12:52:32Z</time>
      </trkpt>
      <trkpt lat="48.16398" lon="-3.60262">
        <ele>236.1</ele>
        <time>2023-04-05T12:52:33Z</time>
      </trkpt>
      <trkpt lat="48.16408" lon="-3.60262">
        <ele>235.2</ele>
        <time>2023-04-05T12:52:34Z</time>
      </trkpt>
      <trkpt lat="48.16418" lon="-3.60261">
        <ele>234.3</ele>
        <time>2023-04-05T12:52:35Z</time>
      </trkpt>
      <trkpt lat="48.16428" lon="-3.6026">
        <ele>233.4</ele>
        <time>2023-04-05T12:52:36Z</time>
      </trkpt>
      <trkpt lat="48.16439" lon="-3.60258">
        <ele>232.5</ele>
        <time>2023-04-05T12:52:37Z</time>
      </trkpt>
      <trkpt lat="48.1645" lon="-3.60257">
        <ele>231.5</ele>
        <time>2023-04-05T12:52:38Z</time>
      </trkpt>
      <trkpt lat="48.16461" lon="-3.60255">
        <ele>230.4</ele>
        <time>2023-04-05T12:52:39Z</time>
      </trkpt>
      <trkpt lat="48.16473" lon="-3.60254">
        <ele>229.4</ele>
        <time>2023-04-05T12:52:40Z</time>
      </trkpt>
      <trkpt lat="48.16484" lon="-3.60253">
        <ele>228.5</ele>
        <time>2023-04-05T12:52:41Z</time>
      </trkpt>
      <trkpt lat="48.16496" lon="-3.60253">
        <ele>227.7</ele>
        <time>2023-04-05T12:52:42Z</time>
      </trkpt>
      <trkpt lat="48.16508" lon="-3.60251">
        <ele>226.9</ele>
        <time>2023-04-05T12:52:43Z</time>
      </trkpt>
      <trkpt lat="48.1652" lon="-3.6025">
        <ele>226.2</ele>
        <time>2023-04-05T12:52:44Z</time>
      </trkpt>
      <trkpt lat="48.16532" lon="-3.6025">
        <ele>225.6</ele>
        <time>2023-04-05T12:52:45Z</time>
      </trkpt>
      <trkpt lat="48.16543" lon="-3.6025">
        <ele>225.2</ele>
        <time>2023-04-05T12:52:46Z</time>
      </trkpt>
      <trkpt lat="48.16553" lon="-3.60251">
        <ele>225</ele>
        <time>2023-04-05T12:52:47Z</time>
      </trkpt>
      <trkpt lat="48.16563" lon="-3.60251">
        <ele>224.9</ele>
        <time>2023-04-05T12:52:48Z</time>
      </trkpt>
      <trkpt lat="48.16572" lon="-3.60251">
        <ele>224.9</ele>
        <time>2023-04-05T12:52:49Z</time>
      </trkpt>
      <trkpt lat="48.1658" lon="-3.60252">
        <ele>224.9</ele>
        <time>2023-04-05T12:52:50Z</time>
      </trkpt>
      <trkpt lat="48.16587" lon="-3.60251">
        <ele>224.9</ele>
        <time>2023-04-05T12:52:51Z</time>
      </trkpt>
      <trkpt lat="48.16594" lon="-3.60246">
        <ele>224.9</ele>
        <time>2023-04-05T12:52:52Z</time>
      </trkpt>
      <trkpt lat="48.16599" lon="-3.60238">
        <ele>224.5</ele>
        <time>2023-04-05T12:52:53Z</time>
      </trkpt>
      <trkpt lat="48.16603" lon="-3.60229">
        <ele>224.3</ele>
        <time>2023-04-05T12:52:54Z</time>
      </trkpt>
      <trkpt lat="48.16607" lon="-3.60219">
        <ele>224</ele>
        <time>2023-04-05T12:52:55Z</time>
      </trkpt>
      <trkpt lat="48.16611" lon="-3.60209">
        <ele>223.8</ele>
        <time>2023-04-05T12:52:56Z</time>
      </trkpt>
      <trkpt lat="48.16614" lon="-3.602">
        <ele>223.5</ele>
        <time>2023-04-05T12:52:57Z</time>
      </trkpt>
      <trkpt lat="48.16618" lon="-3.6019">
        <ele>223.2</ele>
        <time>2023-04-05T12:52:58Z</time>
      </trkpt>
      <trkpt lat="48.16622" lon="-3.6018">
        <ele>222.9</ele>
        <time>2023-04-05T12:52:59Z</time>
      </trkpt>
      <trkpt lat="48.16626" lon="-3.60171">
        <ele>222.5</ele>
        <time>2023-04-05T12:53:00Z</time>
      </trkpt>
      <trkpt lat="48.1663" lon="-3.60161">
        <ele>222.2</ele>
        <time>2023-04-05T12:53:01Z</time>
      </trkpt>
      <trkpt lat="48.16634" lon="-3.60151">
        <ele>221.9</ele>
        <time>2023-04-05T12:53:02Z</time>
      </trkpt>
      <trkpt lat="48.16638" lon="-3.60141">
        <ele>221.5</ele>
        <time>2023-04-05T12:53:03Z</time>
      </trkpt>
      <trkpt lat="48.16642" lon="-3.6013">
        <ele>221.2</ele>
        <time>2023-04-05T12:53:04Z</time>
      </trkpt>
      <trkpt lat="48.16647" lon="-3.6012">
        <ele>220.8</ele>
        <time>2023-04-05T12:53:05Z</time>
      </trkpt>
      <trkpt lat="48.16651" lon="-3.60109">
        <ele>220.3</ele>
        <time>2023-04-05T12:53:06Z</time>
      </trkpt>
      <trkpt lat="48.16655" lon="-3.60098">
        <ele>219.9</ele>
        <time>2023-04-05T12:53:07Z</time>
      </trkpt>
      <trkpt lat="48.1666" lon="-3.60086">
        <ele>219.4</ele>
        <time>2023-04-05T12:53:08Z</time>
      </trkpt>
      <trkpt lat="48.16665" lon="-3.60075">
        <ele>219</ele>
        <time>2023-04-05T12:53:09Z</time>
      </trkpt>
      <trkpt lat="48.1667" lon="-3.60063">
        <ele>218.5</ele>
        <time>2023-04-05T12:53:10Z</time>
      </trkpt>
      <trkpt lat="48.16674" lon="-3.60051">
        <ele>218.1</ele>
        <time>2023-04-05T12:53:11Z</time>
      </trkpt>
      <trkpt lat="48.16679" lon="-3.60039">
        <ele>217.7</ele>
        <time>2023-04-05T12:53:12Z</time>
      </trkpt>
      <trkpt lat="48.16684" lon="-3.60027">
        <ele>217.3</ele>
        <time>2023-04-05T12:53:13Z</time>
      </trkpt>
      <trkpt lat="48.16689" lon="-3.60015">
        <ele>217</ele>
        <time>2023-04-05T12:53:14Z</time>
      </trkpt>
      <trkpt lat="48.16694" lon="-3.60003">
        <ele>216.6</ele>
        <time>2023-04-05T12:53:15Z</time>
      </trkpt>
      <trkpt lat="48.16699" lon="-3.59991">
        <ele>216.2</ele>
        <time>2023-04-05T12:53:16Z</time>
      </trkpt>
      <trkpt lat="48.16704" lon="-3.59978">
        <ele>215.9</ele>
        <time>2023-04-05T12:53:17Z</time>
      </trkpt>
      <trkpt lat="48.1671" lon="-3.59966">
        <ele>215.5</ele>
        <time>2023-04-05T12:53:18Z</time>
      </trkpt>
      <trkpt lat="48.16716" lon="-3.59954">
        <ele>215.2</ele>
        <time>2023-04-05T12:53:19Z</time>
      </trkpt>
      <trkpt lat="48.16721" lon="-3.59941">
        <ele>214.9</ele>
        <time>2023-04-05T12:53:20Z</time>
      </trkpt>
      <trkpt lat="48.16726" lon="-3.5993">
        <ele>214.6</ele>
        <time>2023-04-05T12:53:21Z</time>
      </trkpt>
      <trkpt lat="48.16731" lon="-3.59919">
        <ele>214.2</ele>
        <time>2023-04-05T12:53:22Z</time>
      </trkpt>
      <trkpt lat="48.16736" lon="-3.59908">
        <ele>213.9</ele>
        <time>2023-04-05T12:53:23Z</time>
      </trkpt>
      <trkpt lat="48.16741" lon="-3.59898">
        <ele>213.6</ele>
        <time>2023-04-05T12:53:24Z</time>
      </trkpt>
      <trkpt lat="48.16745" lon="-3.59888">
        <ele>213.3</ele>
        <time>2023-04-05T12:53:25Z</time>
      </trkpt>
      <trkpt lat="48.16746" lon="-3.59876">
        <ele>213</ele>
        <time>2023-04-05T12:53:26Z</time>
      </trkpt>
      <trkpt lat="48.16744" lon="-3.59864">
        <ele>213.3</ele>
        <time>2023-04-05T12:53:27Z</time>
      </trkpt>
      <trkpt lat="48.1674" lon="-3.59854">
        <ele>213.8</ele>
        <time>2023-04-05T12:53:28Z</time>
      </trkpt>
      <trkpt lat="48.16734" lon="-3.59845">
        <ele>214.2</ele>
        <time>2023-04-05T12:53:29Z</time>
      </trkpt>
      <trkpt lat="48.16729" lon="-3.59838">
        <ele>214.7</ele>
        <time>2023-04-05T12:53:30Z</time>
      </trkpt>
      <trkpt lat="48.16724" lon="-3.5983">
        <ele>215.1</ele>
        <time>2023-04-05T12:53:31Z</time>
      </trkpt>
      <trkpt lat="48.16719" lon="-3.59822">
        <ele>215.5</ele>
        <time>2023-04-05T12:53:32Z</time>
      </trkpt>
      <trkpt lat="48.16715" lon="-3.59815">
        <ele>215.8</ele>
        <time>2023-04-05T12:53:33Z</time>
      </trkpt>
      <trkpt lat="48.16711" lon="-3.59808">
        <ele>216.2</ele>
        <time>2023-04-05T12:53:34Z</time>
      </trkpt>
      <trkpt lat="48.16708" lon="-3.59801">
        <ele>216.5</ele>
        <time>2023-04-05T12:53:35Z</time>
      </trkpt>
      <trkpt lat="48.16704" lon="-3.59794">
        <ele>216.8</ele>
        <time>2023-04-05T12:53:36Z</time>
      </trkpt>
      <trkpt lat="48.16701" lon="-3.59787">
        <ele>217.2</ele>
        <time>2023-04-05T12:53:37Z</time>
      </trkpt>
      <trkpt lat="48.16697" lon="-3.59781">
        <ele>217.5</ele>
        <time>2023-04-05T12:53:38Z</time>
      </trkpt>
      <trkpt lat="48.16693" lon="-3.59775">
        <ele>217.8</ele>
        <time>2023-04-05T12:53:39Z</time>
      </trkpt>
      <trkpt lat="48.1669" lon="-3.59769">
        <ele>218.1</ele>
        <time>2023-04-05T12:53:40Z</time>
      </trkpt>
      <trkpt lat="48.16687" lon="-3.59762">
        <ele>218.4</ele>
        <time>2023-04-05T12:53:41Z</time>
      </trkpt>
      <trkpt lat="48.16684" lon="-3.59756">
        <ele>218.7</ele>
        <time>2023-04-05T12:53:42Z</time>
      </trkpt>
      <trkpt lat="48.16681" lon="-3.5975">
        <ele>218.9</ele>
        <time>2023-04-05T12:53:43Z</time>
      </trkpt>
      <trkpt lat="48.16679" lon="-3.59745">
        <ele>219.2</ele>
        <time>2023-04-05T12:53:44Z</time>
      </trkpt>
      <trkpt lat="48.16677" lon="-3.59738">
        <ele>219.5</ele>
        <time>2023-04-05T12:53:45Z</time>
      </trkpt>
      <trkpt lat="48.16676" lon="-3.59736">
        <ele>219.6</ele>
        <time>2023-04-05T12:53:46Z</time>
      </trkpt>
      <trkpt lat="48.16674" lon="-3.59731">
        <ele>219.8</ele>
        <time>2023-04-05T12:53:47Z</time>
      </trkpt>
      <trkpt lat="48.16671" lon="-3.59725">
        <ele>220</ele>
        <time>2023-04-05T12:53:48Z</time>
      </trkpt>
      <trkpt lat="48.16669" lon="-3.5972">
        <ele>220.3</ele>
        <time>2023-04-05T12:53:49Z</time>
      </trkpt>
      <trkpt lat="48.16667" lon="-3.59716">
        <ele>220.5</ele>
        <time>2023-04-05T12:53:50Z</time>
      </trkpt>
      <trkpt lat="48.16665" lon="-3.59712">
        <ele>220.7</ele>
        <time>2023-04-05T12:53:51Z</time>
      </trkpt>
      <trkpt lat="48.16661" lon="-3.59708">
        <ele>220.9</ele>
        <time>2023-04-05T12:53:52Z</time>
      </trkpt>
      <trkpt lat="48.16657" lon="-3.59705">
        <ele>221.2</ele>
        <time>2023-04-05T12:53:53Z</time>
      </trkpt>
      <trkpt lat="48.16653" lon="-3.59702">
        <ele>221.4</ele>
        <time>2023-04-05T12:53:54Z</time>
      </trkpt>
      <trkpt lat="48.1665" lon="-3.597">
        <ele>221.6</ele>
        <time>2023-04-05T12:53:55Z</time>
      </trkpt>
      <trkpt lat="48.16645" lon="-3.59696">
        <ele>222</ele>
        <time>2023-04-05T12:53:57Z</time>
      </trkpt>
      <trkpt lat="48.16642" lon="-3.59693">
        <ele>222.2</ele>
        <time>2023-04-05T12:53:58Z</time>
      </trkpt>
      <trkpt lat="48.16639" lon="-3.59691">
        <ele>222.4</ele>
        <time>2023-04-05T12:54:00Z</time>
      </trkpt>
      <trkpt lat="48.16637" lon="-3.59688">
        <ele>222.5</ele>
        <time>2023-04-05T12:54:01Z</time>
      </trkpt>
      <trkpt lat="48.16634" lon="-3.59686">
        <ele>222.7</ele>
        <time>2023-04-05T12:54:02Z</time>
      </trkpt>
      <trkpt lat="48.16631" lon="-3.59683">
        <ele>222.9</ele>
        <time>2023-04-05T12:54:03Z</time>
      </trkpt>
      <trkpt lat="48.16628" lon="-3.59681">
        <ele>223.1</ele>
        <time>2023-04-05T12:54:04Z</time>
      </trkpt>
      <trkpt lat="48.16625" lon="-3.59679">
        <ele>223.3</ele>
        <time>2023-04-05T12:54:05Z</time>
      </trkpt>
      <trkpt lat="48.16624" lon="-3.59678">
        <ele>223.4</ele>
        <time>2023-04-05T12:54:06Z</time>
      </trkpt>
      <trkpt lat="48.16621" lon="-3.59677">
        <ele>223.5</ele>
        <time>2023-04-05T12:54:07Z</time>
      </trkpt>
      <trkpt lat="48.16617" lon="-3.59674">
        <ele>223.8</ele>
        <time>2023-04-05T12:54:08Z</time>
      </trkpt>
      <trkpt lat="48.16616" lon="-3.59673">
        <ele>223.8</ele>
        <time>2023-04-05T12:54:09Z</time>
      </trkpt>
      <trkpt lat="48.16614" lon="-3.59669">
        <ele>224.1</ele>
        <time>2023-04-05T12:54:10Z</time>
      </trkpt>
      <trkpt lat="48.16613" lon="-3.59667">
        <ele>224.1</ele>
        <time>2023-04-05T12:54:11Z</time>
      </trkpt>
      <trkpt lat="48.16614" lon="-3.59661">
        <ele>224.1</ele>
        <time>2023-04-05T12:54:12Z</time>
      </trkpt>
      <trkpt lat="48.16615" lon="-3.59656">
        <ele>223.9</ele>
        <time>2023-04-05T12:54:14Z</time>
      </trkpt>
      <trkpt lat="48.16617" lon="-3.59652">
        <ele>223.6</ele>
        <time>2023-04-05T12:54:15Z</time>
      </trkpt>
      <trkpt lat="48.16619" lon="-3.59647">
        <ele>223.3</ele>
        <time>2023-04-05T12:54:16Z</time>
      </trkpt>
      <trkpt lat="48.16622" lon="-3.59643">
        <ele>223</ele>
        <time>2023-04-05T12:54:17Z</time>
      </trkpt>
      <trkpt lat="48.16628" lon="-3.59635">
        <ele>222.4</ele>
        <time>2023-04-05T12:54:18Z</time>
      </trkpt>
      <trkpt lat="48.16632" lon="-3.59629">
        <ele>222</ele>
        <time>2023-04-05T12:54:19Z</time>
      </trkpt>
      <trkpt lat="48.16637" lon="-3.5962">
        <ele>221.7</ele>
        <time>2023-04-05T12:54:21Z</time>
      </trkpt>
      <trkpt lat="48.16641" lon="-3.59613">
        <ele>221.5</ele>
        <time>2023-04-05T12:54:22Z</time>
      </trkpt>
      <trkpt lat="48.16646" lon="-3.59606">
        <ele>221.4</ele>
        <time>2023-04-05T12:54:23Z</time>
      </trkpt>
      <trkpt lat="48.1665" lon="-3.59599">
        <ele>221.2</ele>
        <time>2023-04-05T12:54:24Z</time>
      </trkpt>
      <trkpt lat="48.16655" lon="-3.59591">
        <ele>221</ele>
        <time>2023-04-05T12:54:25Z</time>
      </trkpt>
      <trkpt lat="48.1666" lon="-3.59583">
        <ele>220.8</ele>
        <time>2023-04-05T12:54:26Z</time>
      </trkpt>
      <trkpt lat="48.16665" lon="-3.59572">
        <ele>220.5</ele>
        <time>2023-04-05T12:54:27Z</time>
      </trkpt>
      <trkpt lat="48.1667" lon="-3.59561">
        <ele>220.2</ele>
        <time>2023-04-05T12:54:28Z</time>
      </trkpt>
      <trkpt lat="48.16674" lon="-3.5955">
        <ele>219.7</ele>
        <time>2023-04-05T12:54:29Z</time>
      </trkpt>
      <trkpt lat="48.16678" lon="-3.59538">
        <ele>219</ele>
        <time>2023-04-05T12:54:30Z</time>
      </trkpt>
      <trkpt lat="48.16681" lon="-3.59525">
        <ele>218.5</ele>
        <time>2023-04-05T12:54:31Z</time>
      </trkpt>
      <trkpt lat="48.16685" lon="-3.59513">
        <ele>218.1</ele>
        <time>2023-04-05T12:54:32Z</time>
      </trkpt>
      <trkpt lat="48.16688" lon="-3.595">
        <ele>217.8</ele>
        <time>2023-04-05T12:54:33Z</time>
      </trkpt>
      <trkpt lat="48.16691" lon="-3.59488">
        <ele>217.6</ele>
        <time>2023-04-05T12:54:34Z</time>
      </trkpt>
      <trkpt lat="48.16693" lon="-3.59476">
        <ele>217.5</ele>
        <time>2023-04-05T12:54:35Z</time>
      </trkpt>
      <trkpt lat="48.16696" lon="-3.59464">
        <ele>217.4</ele>
        <time>2023-04-05T12:54:36Z</time>
      </trkpt>
      <trkpt lat="48.16698" lon="-3.59452">
        <ele>217.2</ele>
        <time>2023-04-05T12:54:37Z</time>
      </trkpt>
      <trkpt lat="48.167" lon="-3.5944">
        <ele>217.1</ele>
        <time>2023-04-05T12:54:38Z</time>
      </trkpt>
      <trkpt lat="48.16701" lon="-3.59428">
        <ele>217</ele>
        <time>2023-04-05T12:54:39Z</time>
      </trkpt>
      <trkpt lat="48.16703" lon="-3.59417">
        <ele>216.9</ele>
        <time>2023-04-05T12:54:40Z</time>
      </trkpt>
      <trkpt lat="48.16705" lon="-3.59406">
        <ele>216.8</ele>
        <time>2023-04-05T12:54:41Z</time>
      </trkpt>
      <trkpt lat="48.16706" lon="-3.59395">
        <ele>216.7</ele>
        <time>2023-04-05T12:54:42Z</time>
      </trkpt>
      <trkpt lat="48.16708" lon="-3.59384">
        <ele>216.6</ele>
        <time>2023-04-05T12:54:43Z</time>
      </trkpt>
      <trkpt lat="48.1671" lon="-3.59373">
        <ele>216.5</ele>
        <time>2023-04-05T12:54:44Z</time>
      </trkpt>
      <trkpt lat="48.16712" lon="-3.59363">
        <ele>216.4</ele>
        <time>2023-04-05T12:54:45Z</time>
      </trkpt>
      <trkpt lat="48.16714" lon="-3.59353">
        <ele>216.4</ele>
        <time>2023-04-05T12:54:46Z</time>
      </trkpt>
      <trkpt lat="48.16715" lon="-3.59343">
        <ele>216.3</ele>
        <time>2023-04-05T12:54:47Z</time>
      </trkpt>
      <trkpt lat="48.16716" lon="-3.59333">
        <ele>216.3</ele>
        <time>2023-04-05T12:54:48Z</time>
      </trkpt>
      <trkpt lat="48.16718" lon="-3.59323">
        <ele>216.2</ele>
        <time>2023-04-05T12:54:49Z</time>
      </trkpt>
      <trkpt lat="48.16719" lon="-3.59313">
        <ele>216</ele>
        <time>2023-04-05T12:54:50Z</time>
      </trkpt>
      <trkpt lat="48.16719" lon="-3.59303">
        <ele>215.9</ele>
        <time>2023-04-05T12:54:51Z</time>
      </trkpt>
      <trkpt lat="48.1672" lon="-3.59293">
        <ele>215.7</ele>
        <time>2023-04-05T12:54:52Z</time>
      </trkpt>
      <trkpt lat="48.1672" lon="-3.59283">
        <ele>215.5</ele>
        <time>2023-04-05T12:54:53Z</time>
      </trkpt>
      <trkpt lat="48.1672" lon="-3.59273">
        <ele>215.4</ele>
        <time>2023-04-05T12:54:54Z</time>
      </trkpt>
      <trkpt lat="48.16721" lon="-3.59263">
        <ele>215.3</ele>
        <time>2023-04-05T12:54:55Z</time>
      </trkpt>
      <trkpt lat="48.16723" lon="-3.59254">
        <ele>215.3</ele>
        <time>2023-04-05T12:54:56Z</time>
      </trkpt>
      <trkpt lat="48.16725" lon="-3.59245">
        <ele>215.2</ele>
        <time>2023-04-05T12:54:57Z</time>
      </trkpt>
      <trkpt lat="48.16728" lon="-3.59237">
        <ele>215.2</ele>
        <time>2023-04-05T12:54:58Z</time>
      </trkpt>
      <trkpt lat="48.16731" lon="-3.59228">
        <ele>215.1</ele>
        <time>2023-04-05T12:54:59Z</time>
      </trkpt>
      <trkpt lat="48.16733" lon="-3.59219">
        <ele>215.1</ele>
        <time>2023-04-05T12:55:00Z</time>
      </trkpt>
      <trkpt lat="48.16736" lon="-3.59209">
        <ele>215</ele>
        <time>2023-04-05T12:55:01Z</time>
      </trkpt>
      <trkpt lat="48.16739" lon="-3.59199">
        <ele>215</ele>
        <time>2023-04-05T12:55:02Z</time>
      </trkpt>
      <trkpt lat="48.16741" lon="-3.59189">
        <ele>215</ele>
        <time>2023-04-05T12:55:03Z</time>
      </trkpt>
      <trkpt lat="48.16743" lon="-3.5918">
        <ele>215</ele>
        <time>2023-04-05T12:55:04Z</time>
      </trkpt>
      <trkpt lat="48.16744" lon="-3.59171">
        <ele>215</ele>
        <time>2023-04-05T12:55:05Z</time>
      </trkpt>
      <trkpt lat="48.16745" lon="-3.59161">
        <ele>215</ele>
        <time>2023-04-05T12:55:06Z</time>
      </trkpt>
      <trkpt lat="48.16746" lon="-3.59152">
        <ele>215.1</ele>
        <time>2023-04-05T12:55:07Z</time>
      </trkpt>
      <trkpt lat="48.16747" lon="-3.59144">
        <ele>215.2</ele>
        <time>2023-04-05T12:55:08Z</time>
      </trkpt>
      <trkpt lat="48.16747" lon="-3.59135">
        <ele>215.3</ele>
        <time>2023-04-05T12:55:09Z</time>
      </trkpt>
      <trkpt lat="48.16747" lon="-3.59126">
        <ele>215.4</ele>
        <time>2023-04-05T12:55:10Z</time>
      </trkpt>
      <trkpt lat="48.16747" lon="-3.59118">
        <ele>215.5</ele>
        <time>2023-04-05T12:55:11Z</time>
      </trkpt>
      <trkpt lat="48.16747" lon="-3.5911">
        <ele>215.5</ele>
        <time>2023-04-05T12:55:12Z</time>
      </trkpt>
      <trkpt lat="48.16748" lon="-3.59104">
        <ele>215.6</ele>
        <time>2023-04-05T12:55:13Z</time>
      </trkpt>
      <trkpt lat="48.16748" lon="-3.59097">
        <ele>215.6</ele>
        <time>2023-04-05T12:55:14Z</time>
      </trkpt>
      <trkpt lat="48.16748" lon="-3.59091">
        <ele>215.6</ele>
        <time>2023-04-05T12:55:15Z</time>
      </trkpt>
      <trkpt lat="48.16749" lon="-3.59085">
        <ele>215.6</ele>
        <time>2023-04-05T12:55:16Z</time>
      </trkpt>
      <trkpt lat="48.1675" lon="-3.59079">
        <ele>215.7</ele>
        <time>2023-04-05T12:55:17Z</time>
      </trkpt>
      <trkpt lat="48.16751" lon="-3.59073">
        <ele>215.8</ele>
        <time>2023-04-05T12:55:18Z</time>
      </trkpt>
      <trkpt lat="48.16752" lon="-3.59065">
        <ele>216</ele>
        <time>2023-04-05T12:55:19Z</time>
      </trkpt>
      <trkpt lat="48.16753" lon="-3.59057">
        <ele>216.2</ele>
        <time>2023-04-05T12:55:20Z</time>
      </trkpt>
      <trkpt lat="48.16754" lon="-3.5905">
        <ele>216.3</ele>
        <time>2023-04-05T12:55:21Z</time>
      </trkpt>
      <trkpt lat="48.16755" lon="-3.59044">
        <ele>216.4</ele>
        <time>2023-04-05T12:55:22Z</time>
      </trkpt>
      <trkpt lat="48.16755" lon="-3.59039">
        <ele>216.5</ele>
        <time>2023-04-05T12:55:23Z</time>
      </trkpt>
      <trkpt lat="48.16756" lon="-3.59032">
        <ele>216.6</ele>
        <time>2023-04-05T12:55:24Z</time>
      </trkpt>
      <trkpt lat="48.16757" lon="-3.59027">
        <ele>216.6</ele>
        <time>2023-04-05T12:55:25Z</time>
      </trkpt>
      <trkpt lat="48.1676" lon="-3.5902">
        <ele>216.7</ele>
        <time>2023-04-05T12:55:26Z</time>
      </trkpt>
      <trkpt lat="48.16762" lon="-3.59014">
        <ele>216.7</ele>
        <time>2023-04-05T12:55:27Z</time>
      </trkpt>
      <trkpt lat="48.16763" lon="-3.59006">
        <ele>216.7</ele>
        <time>2023-04-05T12:55:28Z</time>
      </trkpt>
      <trkpt lat="48.16766" lon="-3.58994">
        <ele>216.7</ele>
        <time>2023-04-05T12:55:30Z</time>
      </trkpt>
      <trkpt lat="48.16768" lon="-3.58988">
        <ele>216.7</ele>
        <time>2023-04-05T12:55:31Z</time>
      </trkpt>
      <trkpt lat="48.16769" lon="-3.5898">
        <ele>216.7</ele>
        <time>2023-04-05T12:55:33Z</time>
      </trkpt>
      <trkpt lat="48.1677" lon="-3.58971">
        <ele>216.6</ele>
        <time>2023-04-05T12:55:34Z</time>
      </trkpt>
      <trkpt lat="48.16771" lon="-3.58964">
        <ele>216.6</ele>
        <time>2023-04-05T12:55:35Z</time>
      </trkpt>
      <trkpt lat="48.16772" lon="-3.58957">
        <ele>216.6</ele>
        <time>2023-04-05T12:55:36Z</time>
      </trkpt>
      <trkpt lat="48.16773" lon="-3.5895">
        <ele>216.6</ele>
        <time>2023-04-05T12:55:37Z</time>
      </trkpt>
      <trkpt lat="48.16774" lon="-3.58942">
        <ele>216.6</ele>
        <time>2023-04-05T12:55:38Z</time>
      </trkpt>
      <trkpt lat="48.16775" lon="-3.58935">
        <ele>216.6</ele>
        <time>2023-04-05T12:55:39Z</time>
      </trkpt>
      <trkpt lat="48.16776" lon="-3.58927">
        <ele>216.6</ele>
        <time>2023-04-05T12:55:40Z</time>
      </trkpt>
      <trkpt lat="48.16777" lon="-3.58919">
        <ele>216.6</ele>
        <time>2023-04-05T12:55:41Z</time>
      </trkpt>
      <trkpt lat="48.16778" lon="-3.58912">
        <ele>216.5</ele>
        <time>2023-04-05T12:55:42Z</time>
      </trkpt>
      <trkpt lat="48.1678" lon="-3.58904">
        <ele>216.5</ele>
        <time>2023-04-05T12:55:43Z</time>
      </trkpt>
      <trkpt lat="48.16781" lon="-3.58896">
        <ele>216.4</ele>
        <time>2023-04-05T12:55:44Z</time>
      </trkpt>
      <trkpt lat="48.16782" lon="-3.58888">
        <ele>216.3</ele>
        <time>2023-04-05T12:55:45Z</time>
      </trkpt>
      <trkpt lat="48.16783" lon="-3.58879">
        <ele>216.2</ele>
        <time>2023-04-05T12:55:46Z</time>
      </trkpt>
      <trkpt lat="48.16785" lon="-3.58871">
        <ele>216.1</ele>
        <time>2023-04-05T12:55:47Z</time>
      </trkpt>
      <trkpt lat="48.16786" lon="-3.58862">
        <ele>215.9</ele>
        <time>2023-04-05T12:55:48Z</time>
      </trkpt>
      <trkpt lat="48.16788" lon="-3.58853">
        <ele>215.7</ele>
        <time>2023-04-05T12:55:49Z</time>
      </trkpt>
      <trkpt lat="48.1679" lon="-3.58844">
        <ele>215.5</ele>
        <time>2023-04-05T12:55:50Z</time>
      </trkpt>
      <trkpt lat="48.16792" lon="-3.58836">
        <ele>215.2</ele>
        <time>2023-04-05T12:55:51Z</time>
      </trkpt>
      <trkpt lat="48.16793" lon="-3.58826">
        <ele>214.9</ele>
        <time>2023-04-05T12:55:52Z</time>
      </trkpt>
      <trkpt lat="48.16795" lon="-3.58816">
        <ele>214.6</ele>
        <time>2023-04-05T12:55:53Z</time>
      </trkpt>
      <trkpt lat="48.16797" lon="-3.58806">
        <ele>214.3</ele>
        <time>2023-04-05T12:55:54Z</time>
      </trkpt>
      <trkpt lat="48.168" lon="-3.58795">
        <ele>214</ele>
        <time>2023-04-05T12:55:55Z</time>
      </trkpt>
      <trkpt lat="48.16802" lon="-3.58784">
        <ele>213.7</ele>
        <time>2023-04-05T12:55:56Z</time>
      </trkpt>
      <trkpt lat="48.16804" lon="-3.58773">
        <ele>213.4</ele>
        <time>2023-04-05T12:55:57Z</time>
      </trkpt>
      <trkpt lat="48.16806" lon="-3.58761">
        <ele>213</ele>
        <time>2023-04-05T12:55:58Z</time>
      </trkpt>
      <trkpt lat="48.16807" lon="-3.58749">
        <ele>212.6</ele>
        <time>2023-04-05T12:55:59Z</time>
      </trkpt>
      <trkpt lat="48.16807" lon="-3.58736">
        <ele>212.1</ele>
        <time>2023-04-05T12:56:00Z</time>
      </trkpt>
      <trkpt lat="48.16806" lon="-3.58723">
        <ele>211.7</ele>
        <time>2023-04-05T12:56:01Z</time>
      </trkpt>
      <trkpt lat="48.168" lon="-3.58715">
        <ele>211.5</ele>
        <time>2023-04-05T12:56:02Z</time>
      </trkpt>
      <trkpt lat="48.16792" lon="-3.58709">
        <ele>211.4</ele>
        <time>2023-04-05T12:56:03Z</time>
      </trkpt>
      <trkpt lat="48.16784" lon="-3.58703">
        <ele>211.3</ele>
        <time>2023-04-05T12:56:04Z</time>
      </trkpt>
      <trkpt lat="48.16778" lon="-3.58698">
        <ele>211.2</ele>
        <time>2023-04-05T12:56:05Z</time>
      </trkpt>
      <trkpt lat="48.16772" lon="-3.58692">
        <ele>211.3</ele>
        <time>2023-04-05T12:56:06Z</time>
      </trkpt>
      <trkpt lat="48.16767" lon="-3.58686">
        <ele>211.5</ele>
        <time>2023-04-05T12:56:07Z</time>
      </trkpt>
      <trkpt lat="48.16764" lon="-3.58678">
        <ele>211.7</ele>
        <time>2023-04-05T12:56:08Z</time>
      </trkpt>
      <trkpt lat="48.16762" lon="-3.5867">
        <ele>211.9</ele>
        <time>2023-04-05T12:56:09Z</time>
      </trkpt>
      <trkpt lat="48.16761" lon="-3.58662">
        <ele>212</ele>
        <time>2023-04-05T12:56:10Z</time>
      </trkpt>
      <trkpt lat="48.16761" lon="-3.58654">
        <ele>212.1</ele>
        <time>2023-04-05T12:56:11Z</time>
      </trkpt>
      <trkpt lat="48.16759" lon="-3.58645">
        <ele>212.1</ele>
        <time>2023-04-05T12:56:12Z</time>
      </trkpt>
      <trkpt lat="48.16758" lon="-3.58637">
        <ele>212</ele>
        <time>2023-04-05T12:56:13Z</time>
      </trkpt>
      <trkpt lat="48.16757" lon="-3.58629">
        <ele>212</ele>
        <time>2023-04-05T12:56:14Z</time>
      </trkpt>
      <trkpt lat="48.16757" lon="-3.58621">
        <ele>211.9</ele>
        <time>2023-04-05T12:56:15Z</time>
      </trkpt>
      <trkpt lat="48.16756" lon="-3.58612">
        <ele>211.9</ele>
        <time>2023-04-05T12:56:16Z</time>
      </trkpt>
      <trkpt lat="48.16755" lon="-3.58604">
        <ele>211.9</ele>
        <time>2023-04-05T12:56:17Z</time>
      </trkpt>
      <trkpt lat="48.16754" lon="-3.58596">
        <ele>211.9</ele>
        <time>2023-04-05T12:56:18Z</time>
      </trkpt>
      <trkpt lat="48.16754" lon="-3.58588">
        <ele>211.9</ele>
        <time>2023-04-05T12:56:19Z</time>
      </trkpt>
      <trkpt lat="48.16754" lon="-3.5858">
        <ele>211.9</ele>
        <time>2023-04-05T12:56:20Z</time>
      </trkpt>
      <trkpt lat="48.16754" lon="-3.58572">
        <ele>211.9</ele>
        <time>2023-04-05T12:56:21Z</time>
      </trkpt>
      <trkpt lat="48.16753" lon="-3.58565">
        <ele>211.9</ele>
        <time>2023-04-05T12:56:22Z</time>
      </trkpt>
      <trkpt lat="48.16752" lon="-3.58558">
        <ele>212</ele>
        <time>2023-04-05T12:56:23Z</time>
      </trkpt>
      <trkpt lat="48.16751" lon="-3.58551">
        <ele>212.1</ele>
        <time>2023-04-05T12:56:24Z</time>
      </trkpt>
      <trkpt lat="48.1675" lon="-3.58544">
        <ele>212.2</ele>
        <time>2023-04-05T12:56:25Z</time>
      </trkpt>
      <trkpt lat="48.16749" lon="-3.58537">
        <ele>212.3</ele>
        <time>2023-04-05T12:56:26Z</time>
      </trkpt>
      <trkpt lat="48.16748" lon="-3.58531">
        <ele>212.3</ele>
        <time>2023-04-05T12:56:27Z</time>
      </trkpt>
      <trkpt lat="48.16747" lon="-3.58526">
        <ele>212.4</ele>
        <time>2023-04-05T12:56:28Z</time>
      </trkpt>
      <trkpt lat="48.16747" lon="-3.58521">
        <ele>212.4</ele>
        <time>2023-04-05T12:56:29Z</time>
      </trkpt>
      <trkpt lat="48.16746" lon="-3.58515">
        <ele>212.5</ele>
        <time>2023-04-05T12:56:30Z</time>
      </trkpt>
      <trkpt lat="48.16746" lon="-3.58509">
        <ele>212.6</ele>
        <time>2023-04-05T12:56:31Z</time>
      </trkpt>
      <trkpt lat="48.16746" lon="-3.58503">
        <ele>212.6</ele>
        <time>2023-04-05T12:56:32Z</time>
      </trkpt>
      <trkpt lat="48.16745" lon="-3.58498">
        <ele>212.7</ele>
        <time>2023-04-05T12:56:33Z</time>
      </trkpt>
      <trkpt lat="48.16745" lon="-3.58487">
        <ele>212.8</ele>
        <time>2023-04-05T12:56:34Z</time>
      </trkpt>
      <trkpt lat="48.16746" lon="-3.58481">
        <ele>212.8</ele>
        <time>2023-04-05T12:56:35Z</time>
      </trkpt>
      <trkpt lat="48.16746" lon="-3.58478">
        <ele>212.8</ele>
        <time>2023-04-05T12:56:36Z</time>
      </trkpt>
      <trkpt lat="48.16746" lon="-3.58469">
        <ele>212.9</ele>
        <time>2023-04-05T12:56:37Z</time>
      </trkpt>
      <trkpt lat="48.16746" lon="-3.58462">
        <ele>212.9</ele>
        <time>2023-04-05T12:56:38Z</time>
      </trkpt>
      <trkpt lat="48.16746" lon="-3.58457">
        <ele>212.9</ele>
        <time>2023-04-05T12:56:39Z</time>
      </trkpt>
      <trkpt lat="48.16747" lon="-3.58447">
        <ele>212.8</ele>
        <time>2023-04-05T12:56:40Z</time>
      </trkpt>
      <trkpt lat="48.16746" lon="-3.58438">
        <ele>212.7</ele>
        <time>2023-04-05T12:56:42Z</time>
      </trkpt>
      <trkpt lat="48.16747" lon="-3.5843">
        <ele>212.6</ele>
        <time>2023-04-05T12:56:43Z</time>
      </trkpt>
      <trkpt lat="48.16748" lon="-3.58423">
        <ele>212.5</ele>
        <time>2023-04-05T12:56:44Z</time>
      </trkpt>
      <trkpt lat="48.16747" lon="-3.58416">
        <ele>212.4</ele>
        <time>2023-04-05T12:56:45Z</time>
      </trkpt>
      <trkpt lat="48.16748" lon="-3.58408">
        <ele>212.3</ele>
        <time>2023-04-05T12:56:46Z</time>
      </trkpt>
      <trkpt lat="48.16748" lon="-3.584">
        <ele>212.2</ele>
        <time>2023-04-05T12:56:47Z</time>
      </trkpt>
      <trkpt lat="48.16749" lon="-3.58393">
        <ele>212.1</ele>
        <time>2023-04-05T12:56:48Z</time>
      </trkpt>
      <trkpt lat="48.16749" lon="-3.58385">
        <ele>211.9</ele>
        <time>2023-04-05T12:56:49Z</time>
      </trkpt>
      <trkpt lat="48.16749" lon="-3.58377">
        <ele>211.8</ele>
        <time>2023-04-05T12:56:50Z</time>
      </trkpt>
      <trkpt lat="48.1675" lon="-3.58369">
        <ele>211.6</ele>
        <time>2023-04-05T12:56:51Z</time>
      </trkpt>
      <trkpt lat="48.16751" lon="-3.58361">
        <ele>211.4</ele>
        <time>2023-04-05T12:56:52Z</time>
      </trkpt>
      <trkpt lat="48.16752" lon="-3.58353">
        <ele>211.3</ele>
        <time>2023-04-05T12:56:53Z</time>
      </trkpt>
      <trkpt lat="48.16754" lon="-3.58344">
        <ele>211.1</ele>
        <time>2023-04-05T12:56:54Z</time>
      </trkpt>
      <trkpt lat="48.16756" lon="-3.58335">
        <ele>210.9</ele>
        <time>2023-04-05T12:56:55Z</time>
      </trkpt>
      <trkpt lat="48.16757" lon="-3.58327">
        <ele>210.7</ele>
        <time>2023-04-05T12:56:56Z</time>
      </trkpt>
      <trkpt lat="48.16758" lon="-3.58318">
        <ele>210.5</ele>
        <time>2023-04-05T12:56:57Z</time>
      </trkpt>
      <trkpt lat="48.1676" lon="-3.58309">
        <ele>210.3</ele>
        <time>2023-04-05T12:56:58Z</time>
      </trkpt>
      <trkpt lat="48.16763" lon="-3.583">
        <ele>210.2</ele>
        <time>2023-04-05T12:56:59Z</time>
      </trkpt>
      <trkpt lat="48.16765" lon="-3.58291">
        <ele>210</ele>
        <time>2023-04-05T12:57:00Z</time>
      </trkpt>
      <trkpt lat="48.16767" lon="-3.58282">
        <ele>209.8</ele>
        <time>2023-04-05T12:57:01Z</time>
      </trkpt>
      <trkpt lat="48.16769" lon="-3.58272">
        <ele>209.6</ele>
        <time>2023-04-05T12:57:02Z</time>
      </trkpt>
      <trkpt lat="48.16771" lon="-3.58262">
        <ele>209.3</ele>
        <time>2023-04-05T12:57:03Z</time>
      </trkpt>
      <trkpt lat="48.16773" lon="-3.58251">
        <ele>209.1</ele>
        <time>2023-04-05T12:57:04Z</time>
      </trkpt>
      <trkpt lat="48.16773" lon="-3.58241">
        <ele>208.9</ele>
        <time>2023-04-05T12:57:05Z</time>
      </trkpt>
      <trkpt lat="48.16773" lon="-3.5823">
        <ele>208.6</ele>
        <time>2023-04-05T12:57:06Z</time>
      </trkpt>
      <trkpt lat="48.16771" lon="-3.5822">
        <ele>208.5</ele>
        <time>2023-04-05T12:57:07Z</time>
      </trkpt>
      <trkpt lat="48.16768" lon="-3.58211">
        <ele>208.5</ele>
        <time>2023-04-05T12:57:08Z</time>
      </trkpt>
      <trkpt lat="48.16763" lon="-3.58203">
        <ele>208.4</ele>
        <time>2023-04-05T12:57:09Z</time>
      </trkpt>
      <trkpt lat="48.16759" lon="-3.58195">
        <ele>208.3</ele>
        <time>2023-04-05T12:57:10Z</time>
      </trkpt>
      <trkpt lat="48.16754" lon="-3.58187">
        <ele>208.2</ele>
        <time>2023-04-05T12:57:11Z</time>
      </trkpt>
      <trkpt lat="48.1675" lon="-3.58181">
        <ele>208.1</ele>
        <time>2023-04-05T12:57:12Z</time>
      </trkpt>
      <trkpt lat="48.16745" lon="-3.58174">
        <ele>208</ele>
        <time>2023-04-05T12:57:13Z</time>
      </trkpt>
      <trkpt lat="48.1674" lon="-3.58167">
        <ele>207.9</ele>
        <time>2023-04-05T12:57:14Z</time>
      </trkpt>
      <trkpt lat="48.16737" lon="-3.58158">
        <ele>207.8</ele>
        <time>2023-04-05T12:57:15Z</time>
      </trkpt>
      <trkpt lat="48.16734" lon="-3.58149">
        <ele>207.7</ele>
        <time>2023-04-05T12:57:16Z</time>
      </trkpt>
      <trkpt lat="48.16732" lon="-3.5814">
        <ele>207.6</ele>
        <time>2023-04-05T12:57:17Z</time>
      </trkpt>
      <trkpt lat="48.1673" lon="-3.58129">
        <ele>207.2</ele>
        <time>2023-04-05T12:57:18Z</time>
      </trkpt>
      <trkpt lat="48.16727" lon="-3.58119">
        <ele>206.7</ele>
        <time>2023-04-05T12:57:19Z</time>
      </trkpt>
      <trkpt lat="48.16726" lon="-3.58108">
        <ele>206.2</ele>
        <time>2023-04-05T12:57:20Z</time>
      </trkpt>
      <trkpt lat="48.16724" lon="-3.58097">
        <ele>205.7</ele>
        <time>2023-04-05T12:57:21Z</time>
      </trkpt>
      <trkpt lat="48.16724" lon="-3.58085">
        <ele>205.2</ele>
        <time>2023-04-05T12:57:22Z</time>
      </trkpt>
      <trkpt lat="48.16724" lon="-3.58072">
        <ele>204.7</ele>
        <time>2023-04-05T12:57:23Z</time>
      </trkpt>
      <trkpt lat="48.16725" lon="-3.5806">
        <ele>204.1</ele>
        <time>2023-04-05T12:57:24Z</time>
      </trkpt>
      <trkpt lat="48.16726" lon="-3.58048">
        <ele>203.6</ele>
        <time>2023-04-05T12:57:25Z</time>
      </trkpt>
      <trkpt lat="48.16727" lon="-3.58037">
        <ele>203.1</ele>
        <time>2023-04-05T12:57:26Z</time>
      </trkpt>
      <trkpt lat="48.16727" lon="-3.58025">
        <ele>202.6</ele>
        <time>2023-04-05T12:57:27Z</time>
      </trkpt>
      <trkpt lat="48.16726" lon="-3.58014">
        <ele>202.1</ele>
        <time>2023-04-05T12:57:28Z</time>
      </trkpt>
      <trkpt lat="48.16724" lon="-3.58005">
        <ele>201.7</ele>
        <time>2023-04-05T12:57:29Z</time>
      </trkpt>
      <trkpt lat="48.1672" lon="-3.57998">
        <ele>201.3</ele>
        <time>2023-04-05T12:57:30Z</time>
      </trkpt>
      <trkpt lat="48.16715" lon="-3.57994">
        <ele>200.9</ele>
        <time>2023-04-05T12:57:31Z</time>
      </trkpt>
      <trkpt lat="48.16708" lon="-3.57994">
        <ele>200.5</ele>
        <time>2023-04-05T12:57:32Z</time>
      </trkpt>
      <trkpt lat="48.16702" lon="-3.57996">
        <ele>200.1</ele>
        <time>2023-04-05T12:57:33Z</time>
      </trkpt>
      <trkpt lat="48.16695" lon="-3.58003">
        <ele>199.2</ele>
        <time>2023-04-05T12:57:34Z</time>
      </trkpt>
      <trkpt lat="48.1669" lon="-3.58012">
        <ele>198.1</ele>
        <time>2023-04-05T12:57:35Z</time>
      </trkpt>
      <trkpt lat="48.16684" lon="-3.58022">
        <ele>197</ele>
        <time>2023-04-05T12:57:36Z</time>
      </trkpt>
      <trkpt lat="48.16678" lon="-3.58031">
        <ele>196</ele>
        <time>2023-04-05T12:57:37Z</time>
      </trkpt>
      <trkpt lat="48.16674" lon="-3.58041">
        <ele>195.1</ele>
        <time>2023-04-05T12:57:38Z</time>
      </trkpt>
      <trkpt lat="48.16669" lon="-3.58051">
        <ele>194.4</ele>
        <time>2023-04-05T12:57:39Z</time>
      </trkpt>
      <trkpt lat="48.16664" lon="-3.5806">
        <ele>194.2</ele>
        <time>2023-04-05T12:57:40Z</time>
      </trkpt>
      <trkpt lat="48.16659" lon="-3.5807">
        <ele>194.1</ele>
        <time>2023-04-05T12:57:41Z</time>
      </trkpt>
      <trkpt lat="48.16655" lon="-3.58079">
        <ele>193.9</ele>
        <time>2023-04-05T12:57:42Z</time>
      </trkpt>
      <trkpt lat="48.16651" lon="-3.58088">
        <ele>193.8</ele>
        <time>2023-04-05T12:57:43Z</time>
      </trkpt>
      <trkpt lat="48.16646" lon="-3.58097">
        <ele>193.6</ele>
        <time>2023-04-05T12:57:44Z</time>
      </trkpt>
      <trkpt lat="48.16641" lon="-3.58105">
        <ele>193.5</ele>
        <time>2023-04-05T12:57:45Z</time>
      </trkpt>
      <trkpt lat="48.16636" lon="-3.58112">
        <ele>193.4</ele>
        <time>2023-04-05T12:57:46Z</time>
      </trkpt>
      <trkpt lat="48.16632" lon="-3.5812">
        <ele>193.3</ele>
        <time>2023-04-05T12:57:47Z</time>
      </trkpt>
      <trkpt lat="48.16626" lon="-3.58127">
        <ele>193.2</ele>
        <time>2023-04-05T12:57:48Z</time>
      </trkpt>
      <trkpt lat="48.1662" lon="-3.58133">
        <ele>193</ele>
        <time>2023-04-05T12:57:49Z</time>
      </trkpt>
      <trkpt lat="48.16614" lon="-3.58139">
        <ele>192.8</ele>
        <time>2023-04-05T12:57:50Z</time>
      </trkpt>
      <trkpt lat="48.16607" lon="-3.58144">
        <ele>192.7</ele>
        <time>2023-04-05T12:57:51Z</time>
      </trkpt>
      <trkpt lat="48.16601" lon="-3.58148">
        <ele>192.5</ele>
        <time>2023-04-05T12:57:52Z</time>
      </trkpt>
      <trkpt lat="48.16594" lon="-3.58153">
        <ele>192.3</ele>
        <time>2023-04-05T12:57:53Z</time>
      </trkpt>
      <trkpt lat="48.16587" lon="-3.58157">
        <ele>192.1</ele>
        <time>2023-04-05T12:57:54Z</time>
      </trkpt>
      <trkpt lat="48.16579" lon="-3.58161">
        <ele>192</ele>
        <time>2023-04-05T12:57:55Z</time>
      </trkpt>
      <trkpt lat="48.16572" lon="-3.58165">
        <ele>191.8</ele>
        <time>2023-04-05T12:57:56Z</time>
      </trkpt>
      <trkpt lat="48.16565" lon="-3.58168">
        <ele>191.6</ele>
        <time>2023-04-05T12:57:57Z</time>
      </trkpt>
      <trkpt lat="48.16557" lon="-3.58172">
        <ele>191.4</ele>
        <time>2023-04-05T12:57:58Z</time>
      </trkpt>
      <trkpt lat="48.1655" lon="-3.58176">
        <ele>191.2</ele>
        <time>2023-04-05T12:57:59Z</time>
      </trkpt>
      <trkpt lat="48.16543" lon="-3.5818">
        <ele>191</ele>
        <time>2023-04-05T12:58:00Z</time>
      </trkpt>
      <trkpt lat="48.16535" lon="-3.58184">
        <ele>190.8</ele>
        <time>2023-04-05T12:58:01Z</time>
      </trkpt>
      <trkpt lat="48.16528" lon="-3.58188">
        <ele>190.7</ele>
        <time>2023-04-05T12:58:02Z</time>
      </trkpt>
      <trkpt lat="48.1652" lon="-3.58191">
        <ele>190.5</ele>
        <time>2023-04-05T12:58:03Z</time>
      </trkpt>
      <trkpt lat="48.16513" lon="-3.58194">
        <ele>190.4</ele>
        <time>2023-04-05T12:58:04Z</time>
      </trkpt>
      <trkpt lat="48.16505" lon="-3.58198">
        <ele>190.2</ele>
        <time>2023-04-05T12:58:05Z</time>
      </trkpt>
      <trkpt lat="48.16498" lon="-3.58201">
        <ele>190.1</ele>
        <time>2023-04-05T12:58:06Z</time>
      </trkpt>
      <trkpt lat="48.1649" lon="-3.58205">
        <ele>190</ele>
        <time>2023-04-05T12:58:07Z</time>
      </trkpt>
      <trkpt lat="48.16483" lon="-3.58208">
        <ele>189.8</ele>
        <time>2023-04-05T12:58:08Z</time>
      </trkpt>
      <trkpt lat="48.16475" lon="-3.58212">
        <ele>189.7</ele>
        <time>2023-04-05T12:58:09Z</time>
      </trkpt>
      <trkpt lat="48.16467" lon="-3.58215">
        <ele>189.6</ele>
        <time>2023-04-05T12:58:10Z</time>
      </trkpt>
      <trkpt lat="48.1646" lon="-3.58218">
        <ele>189.4</ele>
        <time>2023-04-05T12:58:11Z</time>
      </trkpt>
      <trkpt lat="48.16453" lon="-3.58222">
        <ele>189.3</ele>
        <time>2023-04-05T12:58:12Z</time>
      </trkpt>
      <trkpt lat="48.16445" lon="-3.58225">
        <ele>189.2</ele>
        <time>2023-04-05T12:58:13Z</time>
      </trkpt>
      <trkpt lat="48.16438" lon="-3.58229">
        <ele>189</ele>
        <time>2023-04-05T12:58:14Z</time>
      </trkpt>
      <trkpt lat="48.16431" lon="-3.58232">
        <ele>188.9</ele>
        <time>2023-04-05T12:58:15Z</time>
      </trkpt>
      <trkpt lat="48.16423" lon="-3.58236">
        <ele>188.7</ele>
        <time>2023-04-05T12:58:16Z</time>
      </trkpt>
      <trkpt lat="48.16416" lon="-3.5824">
        <ele>188.6</ele>
        <time>2023-04-05T12:58:17Z</time>
      </trkpt>
      <trkpt lat="48.16408" lon="-3.58243">
        <ele>188.4</ele>
        <time>2023-04-05T12:58:18Z</time>
      </trkpt>
      <trkpt lat="48.164" lon="-3.58246">
        <ele>188.3</ele>
        <time>2023-04-05T12:58:19Z</time>
      </trkpt>
      <trkpt lat="48.16393" lon="-3.5825">
        <ele>188.1</ele>
        <time>2023-04-05T12:58:20Z</time>
      </trkpt>
      <trkpt lat="48.16385" lon="-3.58253">
        <ele>187.9</ele>
        <time>2023-04-05T12:58:21Z</time>
      </trkpt>
      <trkpt lat="48.16377" lon="-3.58257">
        <ele>187.7</ele>
        <time>2023-04-05T12:58:22Z</time>
      </trkpt>
      <trkpt lat="48.1637" lon="-3.58261">
        <ele>187.5</ele>
        <time>2023-04-05T12:58:23Z</time>
      </trkpt>
      <trkpt lat="48.16362" lon="-3.58265">
        <ele>187.3</ele>
        <time>2023-04-05T12:58:24Z</time>
      </trkpt>
      <trkpt lat="48.16354" lon="-3.58269">
        <ele>187.1</ele>
        <time>2023-04-05T12:58:25Z</time>
      </trkpt>
      <trkpt lat="48.16346" lon="-3.58272">
        <ele>186.9</ele>
        <time>2023-04-05T12:58:26Z</time>
      </trkpt>
      <trkpt lat="48.16338" lon="-3.58277">
        <ele>186.7</ele>
        <time>2023-04-05T12:58:27Z</time>
      </trkpt>
      <trkpt lat="48.1633" lon="-3.58281">
        <ele>186.5</ele>
        <time>2023-04-05T12:58:28Z</time>
      </trkpt>
      <trkpt lat="48.16322" lon="-3.58285">
        <ele>186.3</ele>
        <time>2023-04-05T12:58:29Z</time>
      </trkpt>
      <trkpt lat="48.16314" lon="-3.58289">
        <ele>186.1</ele>
        <time>2023-04-05T12:58:30Z</time>
      </trkpt>
      <trkpt lat="48.16306" lon="-3.58293">
        <ele>185.9</ele>
        <time>2023-04-05T12:58:31Z</time>
      </trkpt>
      <trkpt lat="48.16298" lon="-3.58298">
        <ele>185.7</ele>
        <time>2023-04-05T12:58:32Z</time>
      </trkpt>
      <trkpt lat="48.16291" lon="-3.58304">
        <ele>185.5</ele>
        <time>2023-04-05T12:58:33Z</time>
      </trkpt>
      <trkpt lat="48.16283" lon="-3.5831">
        <ele>185.5</ele>
        <time>2023-04-05T12:58:34Z</time>
      </trkpt>
      <trkpt lat="48.16277" lon="-3.58316">
        <ele>185.2</ele>
        <time>2023-04-05T12:58:35Z</time>
      </trkpt>
      <trkpt lat="48.1627" lon="-3.58323">
        <ele>185</ele>
        <time>2023-04-05T12:58:36Z</time>
      </trkpt>
      <trkpt lat="48.16264" lon="-3.58331">
        <ele>184.7</ele>
        <time>2023-04-05T12:58:37Z</time>
      </trkpt>
      <trkpt lat="48.16258" lon="-3.58339">
        <ele>184.5</ele>
        <time>2023-04-05T12:58:38Z</time>
      </trkpt>
      <trkpt lat="48.16252" lon="-3.58347">
        <ele>184.2</ele>
        <time>2023-04-05T12:58:39Z</time>
      </trkpt>
      <trkpt lat="48.16246" lon="-3.58355">
        <ele>184</ele>
        <time>2023-04-05T12:58:40Z</time>
      </trkpt>
      <trkpt lat="48.1624" lon="-3.58362">
        <ele>183.7</ele>
        <time>2023-04-05T12:58:41Z</time>
      </trkpt>
      <trkpt lat="48.16235" lon="-3.58369">
        <ele>183.5</ele>
        <time>2023-04-05T12:58:42Z</time>
      </trkpt>
      <trkpt lat="48.1623" lon="-3.58376">
        <ele>183.3</ele>
        <time>2023-04-05T12:58:43Z</time>
      </trkpt>
      <trkpt lat="48.16226" lon="-3.58383">
        <ele>183.3</ele>
        <time>2023-04-05T12:58:44Z</time>
      </trkpt>
      <trkpt lat="48.16221" lon="-3.58391">
        <ele>183.1</ele>
        <time>2023-04-05T12:58:45Z</time>
      </trkpt>
      <trkpt lat="48.16216" lon="-3.58398">
        <ele>182.9</ele>
        <time>2023-04-05T12:58:46Z</time>
      </trkpt>
      <trkpt lat="48.1621" lon="-3.58404">
        <ele>182.7</ele>
        <time>2023-04-05T12:58:47Z</time>
      </trkpt>
      <trkpt lat="48.16205" lon="-3.58411">
        <ele>182.5</ele>
        <time>2023-04-05T12:58:48Z</time>
      </trkpt>
      <trkpt lat="48.162" lon="-3.58418">
        <ele>182.3</ele>
        <time>2023-04-05T12:58:49Z</time>
      </trkpt>
      <trkpt lat="48.16195" lon="-3.58424">
        <ele>182.1</ele>
        <time>2023-04-05T12:58:50Z</time>
      </trkpt>
      <trkpt lat="48.16191" lon="-3.58432">
        <ele>181.8</ele>
        <time>2023-04-05T12:58:51Z</time>
      </trkpt>
      <trkpt lat="48.16186" lon="-3.58439">
        <ele>181.6</ele>
        <time>2023-04-05T12:58:52Z</time>
      </trkpt>
      <trkpt lat="48.16181" lon="-3.58446">
        <ele>181.4</ele>
        <time>2023-04-05T12:58:53Z</time>
      </trkpt>
      <trkpt lat="48.16176" lon="-3.58453">
        <ele>181.2</ele>
        <time>2023-04-05T12:58:54Z</time>
      </trkpt>
      <trkpt lat="48.16171" lon="-3.5846">
        <ele>181.2</ele>
        <time>2023-04-05T12:58:55Z</time>
      </trkpt>
      <trkpt lat="48.16167" lon="-3.58467">
        <ele>181</ele>
        <time>2023-04-05T12:58:56Z</time>
      </trkpt>
      <trkpt lat="48.16162" lon="-3.58474">
        <ele>180.8</ele>
        <time>2023-04-05T12:58:57Z</time>
      </trkpt>
      <trkpt lat="48.16157" lon="-3.5848">
        <ele>180.6</ele>
        <time>2023-04-05T12:58:58Z</time>
      </trkpt>
      <trkpt lat="48.16152" lon="-3.58487">
        <ele>180.5</ele>
        <time>2023-04-05T12:58:59Z</time>
      </trkpt>
      <trkpt lat="48.16148" lon="-3.58495">
        <ele>180.3</ele>
        <time>2023-04-05T12:59:00Z</time>
      </trkpt>
      <trkpt lat="48.16143" lon="-3.58503">
        <ele>180.1</ele>
        <time>2023-04-05T12:59:01Z</time>
      </trkpt>
      <trkpt lat="48.16139" lon="-3.58511">
        <ele>179.9</ele>
        <time>2023-04-05T12:59:02Z</time>
      </trkpt>
      <trkpt lat="48.16135" lon="-3.58519">
        <ele>179.7</ele>
        <time>2023-04-05T12:59:03Z</time>
      </trkpt>
      <trkpt lat="48.16132" lon="-3.58529">
        <ele>179.5</ele>
        <time>2023-04-05T12:59:04Z</time>
      </trkpt>
      <trkpt lat="48.16129" lon="-3.58539">
        <ele>179.3</ele>
        <time>2023-04-05T12:59:05Z</time>
      </trkpt>
      <trkpt lat="48.16126" lon="-3.58549">
        <ele>179.1</ele>
        <time>2023-04-05T12:59:06Z</time>
      </trkpt>
      <trkpt lat="48.16123" lon="-3.58559">
        <ele>178.9</ele>
        <time>2023-04-05T12:59:07Z</time>
      </trkpt>
      <trkpt lat="48.16122" lon="-3.5857">
        <ele>178.6</ele>
        <time>2023-04-05T12:59:08Z</time>
      </trkpt>
      <trkpt lat="48.1612" lon="-3.5858">
        <ele>178.4</ele>
        <time>2023-04-05T12:59:09Z</time>
      </trkpt>
      <trkpt lat="48.16119" lon="-3.58591">
        <ele>178.2</ele>
        <time>2023-04-05T12:59:10Z</time>
      </trkpt>
      <trkpt lat="48.16118" lon="-3.58601">
        <ele>178</ele>
        <time>2023-04-05T12:59:11Z</time>
      </trkpt>
      <trkpt lat="48.16117" lon="-3.58612">
        <ele>177.8</ele>
        <time>2023-04-05T12:59:12Z</time>
      </trkpt>
      <trkpt lat="48.16116" lon="-3.58623">
        <ele>177.6</ele>
        <time>2023-04-05T12:59:13Z</time>
      </trkpt>
      <trkpt lat="48.16115" lon="-3.58634">
        <ele>177.3</ele>
        <time>2023-04-05T12:59:14Z</time>
      </trkpt>
      <trkpt lat="48.16114" lon="-3.58645">
        <ele>177.1</ele>
        <time>2023-04-05T12:59:15Z</time>
      </trkpt>
      <trkpt lat="48.16115" lon="-3.58657">
        <ele>176.9</ele>
        <time>2023-04-05T12:59:16Z</time>
      </trkpt>
      <trkpt lat="48.16115" lon="-3.58668">
        <ele>176.6</ele>
        <time>2023-04-05T12:59:17Z</time>
      </trkpt>
      <trkpt lat="48.16115" lon="-3.5868">
        <ele>176.4</ele>
        <time>2023-04-05T12:59:18Z</time>
      </trkpt>
      <trkpt lat="48.16114" lon="-3.58691">
        <ele>176.1</ele>
        <time>2023-04-05T12:59:19Z</time>
      </trkpt>
      <trkpt lat="48.16113" lon="-3.58703">
        <ele>175.9</ele>
        <time>2023-04-05T12:59:20Z</time>
      </trkpt>
      <trkpt lat="48.16113" lon="-3.58715">
        <ele>175.6</ele>
        <time>2023-04-05T12:59:21Z</time>
      </trkpt>
      <trkpt lat="48.16112" lon="-3.58726">
        <ele>175.4</ele>
        <time>2023-04-05T12:59:22Z</time>
      </trkpt>
      <trkpt lat="48.16111" lon="-3.58737">
        <ele>175.1</ele>
        <time>2023-04-05T12:59:23Z</time>
      </trkpt>
      <trkpt lat="48.1611" lon="-3.58749">
        <ele>174.9</ele>
        <time>2023-04-05T12:59:24Z</time>
      </trkpt>
      <trkpt lat="48.16108" lon="-3.58761">
        <ele>174.7</ele>
        <time>2023-04-05T12:59:25Z</time>
      </trkpt>
      <trkpt lat="48.16107" lon="-3.58772">
        <ele>174.4</ele>
        <time>2023-04-05T12:59:26Z</time>
      </trkpt>
      <trkpt lat="48.16104" lon="-3.58783">
        <ele>174.2</ele>
        <time>2023-04-05T12:59:27Z</time>
      </trkpt>
      <trkpt lat="48.16101" lon="-3.58794">
        <ele>174</ele>
        <time>2023-04-05T12:59:28Z</time>
      </trkpt>
      <trkpt lat="48.16097" lon="-3.58804">
        <ele>173.8</ele>
        <time>2023-04-05T12:59:29Z</time>
      </trkpt>
      <trkpt lat="48.16094" lon="-3.58814">
        <ele>173.7</ele>
        <time>2023-04-05T12:59:30Z</time>
      </trkpt>
      <trkpt lat="48.16089" lon="-3.58824">
        <ele>173.5</ele>
        <time>2023-04-05T12:59:31Z</time>
      </trkpt>
      <trkpt lat="48.16086" lon="-3.58832">
        <ele>173.3</ele>
        <time>2023-04-05T12:59:32Z</time>
      </trkpt>
      <trkpt lat="48.16083" lon="-3.58838">
        <ele>173.1</ele>
        <time>2023-04-05T12:59:33Z</time>
      </trkpt>
      <trkpt lat="48.16081" lon="-3.58843">
        <ele>172.9</ele>
        <time>2023-04-05T12:59:34Z</time>
      </trkpt>
      <trkpt lat="48.16079" lon="-3.58843">
        <ele>172.8</ele>
        <time>2023-04-05T12:59:35Z</time>
      </trkpt>
      <trkpt lat="48.16079" lon="-3.58841">
        <ele>172.7</ele>
        <time>2023-04-05T12:59:36Z</time>
      </trkpt>
      <trkpt lat="48.16078" lon="-3.58838">
        <ele>172.7</ele>
        <time>2023-04-05T12:59:37Z</time>
      </trkpt>
      <trkpt lat="48.1608" lon="-3.58834">
        <ele>172.5</ele>
        <time>2023-04-05T12:59:38Z</time>
      </trkpt>
      <trkpt lat="48.1608" lon="-3.58832">
        <ele>172.4</ele>
        <time>2023-04-05T12:59:39Z</time>
      </trkpt>
      <trkpt lat="48.16081" lon="-3.58827">
        <ele>172.3</ele>
        <time>2023-04-05T12:59:40Z</time>
      </trkpt>
      <trkpt lat="48.16081" lon="-3.58826">
        <ele>172.2</ele>
        <time>2023-04-05T12:59:41Z</time>
      </trkpt>
      <trkpt lat="48.16081" lon="-3.58821">
        <ele>172.1</ele>
        <time>2023-04-05T12:59:42Z</time>
      </trkpt>
      <trkpt lat="48.16078" lon="-3.58819">
        <ele>171.9</ele>
        <time>2023-04-05T12:59:43Z</time>
      </trkpt>
      <trkpt lat="48.16077" lon="-3.58818">
        <ele>171.8</ele>
        <time>2023-04-05T12:59:44Z</time>
      </trkpt>
      <trkpt lat="48.16071" lon="-3.58819">
        <ele>171.6</ele>
        <time>2023-04-05T12:59:46Z</time>
      </trkpt>
      <trkpt lat="48.16068" lon="-3.58819">
        <ele>171.4</ele>
        <time>2023-04-05T12:59:48Z</time>
      </trkpt>
      <trkpt lat="48.16064" lon="-3.58819">
        <ele>171.2</ele>
        <time>2023-04-05T12:59:49Z</time>
      </trkpt>
      <trkpt lat="48.1606" lon="-3.58819">
        <ele>171</ele>
        <time>2023-04-05T12:59:50Z</time>
      </trkpt>
      <trkpt lat="48.16054" lon="-3.58817">
        <ele>170.7</ele>
        <time>2023-04-05T12:59:51Z</time>
      </trkpt>
      <trkpt lat="48.16048" lon="-3.58815">
        <ele>170.4</ele>
        <time>2023-04-05T12:59:52Z</time>
      </trkpt>
      <trkpt lat="48.16042" lon="-3.58814">
        <ele>170.2</ele>
        <time>2023-04-05T12:59:53Z</time>
      </trkpt>
      <trkpt lat="48.16037" lon="-3.58813">
        <ele>170</ele>
        <time>2023-04-05T12:59:54Z</time>
      </trkpt>
      <trkpt lat="48.16032" lon="-3.5881">
        <ele>169.8</ele>
        <time>2023-04-05T12:59:55Z</time>
      </trkpt>
      <trkpt lat="48.16027" lon="-3.58808">
        <ele>169.7</ele>
        <time>2023-04-05T12:59:56Z</time>
      </trkpt>
      <trkpt lat="48.16024" lon="-3.58809">
        <ele>169.6</ele>
        <time>2023-04-05T12:59:57Z</time>
      </trkpt>
      <trkpt lat="48.1602" lon="-3.58818">
        <ele>169.3</ele>
        <time>2023-04-05T12:59:58Z</time>
      </trkpt>
      <trkpt lat="48.16021" lon="-3.58827">
        <ele>169.1</ele>
        <time>2023-04-05T13:00:00Z</time>
      </trkpt>
      <trkpt lat="48.16019" lon="-3.58835">
        <ele>169</ele>
        <time>2023-04-05T13:00:01Z</time>
      </trkpt>
      <trkpt lat="48.16018" lon="-3.58839">
        <ele>168.9</ele>
        <time>2023-04-05T13:00:02Z</time>
      </trkpt>
      <trkpt lat="48.16017" lon="-3.58848">
        <ele>168.7</ele>
        <time>2023-04-05T13:00:03Z</time>
      </trkpt>
      <trkpt lat="48.16015" lon="-3.58857">
        <ele>168.6</ele>
        <time>2023-04-05T13:00:04Z</time>
      </trkpt>
      <trkpt lat="48.16014" lon="-3.58865">
        <ele>168.4</ele>
        <time>2023-04-05T13:00:05Z</time>
      </trkpt>
      <trkpt lat="48.16013" lon="-3.58873">
        <ele>168.3</ele>
        <time>2023-04-05T13:00:06Z</time>
      </trkpt>
      <trkpt lat="48.16011" lon="-3.58882">
        <ele>168.2</ele>
        <time>2023-04-05T13:00:07Z</time>
      </trkpt>
      <trkpt lat="48.1601" lon="-3.5889">
        <ele>168</ele>
        <time>2023-04-05T13:00:08Z</time>
      </trkpt>
      <trkpt lat="48.16008" lon="-3.58899">
        <ele>167.9</ele>
        <time>2023-04-05T13:00:09Z</time>
      </trkpt>
      <trkpt lat="48.16007" lon="-3.58907">
        <ele>167.8</ele>
        <time>2023-04-05T13:00:10Z</time>
      </trkpt>
      <trkpt lat="48.16004" lon="-3.58915">
        <ele>167.7</ele>
        <time>2023-04-05T13:00:11Z</time>
      </trkpt>
      <trkpt lat="48.16002" lon="-3.58923">
        <ele>167.7</ele>
        <time>2023-04-05T13:00:12Z</time>
      </trkpt>
      <trkpt lat="48.16" lon="-3.58932">
        <ele>167.6</ele>
        <time>2023-04-05T13:00:13Z</time>
      </trkpt>
      <trkpt lat="48.15998" lon="-3.5894">
        <ele>167.5</ele>
        <time>2023-04-05T13:00:14Z</time>
      </trkpt>
      <trkpt lat="48.15996" lon="-3.58948">
        <ele>167.4</ele>
        <time>2023-04-05T13:00:15Z</time>
      </trkpt>
      <trkpt lat="48.15993" lon="-3.58956">
        <ele>167.3</ele>
        <time>2023-04-05T13:00:16Z</time>
      </trkpt>
      <trkpt lat="48.15991" lon="-3.58964">
        <ele>167.2</ele>
        <time>2023-04-05T13:00:17Z</time>
      </trkpt>
      <trkpt lat="48.15988" lon="-3.58973">
        <ele>167.1</ele>
        <time>2023-04-05T13:00:18Z</time>
      </trkpt>
      <trkpt lat="48.15986" lon="-3.58981">
        <ele>167.1</ele>
        <time>2023-04-05T13:00:19Z</time>
      </trkpt>
      <trkpt lat="48.15982" lon="-3.58988">
        <ele>167</ele>
        <time>2023-04-05T13:00:20Z</time>
      </trkpt>
      <trkpt lat="48.15979" lon="-3.58996">
        <ele>166.9</ele>
        <time>2023-04-05T13:00:21Z</time>
      </trkpt>
      <trkpt lat="48.15976" lon="-3.59004">
        <ele>166.8</ele>
        <time>2023-04-05T13:00:22Z</time>
      </trkpt>
      <trkpt lat="48.15972" lon="-3.59013">
        <ele>166.7</ele>
        <time>2023-04-05T13:00:23Z</time>
      </trkpt>
      <trkpt lat="48.15969" lon="-3.59021">
        <ele>166.6</ele>
        <time>2023-04-05T13:00:24Z</time>
      </trkpt>
      <trkpt lat="48.15965" lon="-3.59028">
        <ele>166.5</ele>
        <time>2023-04-05T13:00:25Z</time>
      </trkpt>
      <trkpt lat="48.1596" lon="-3.59035">
        <ele>166.4</ele>
        <time>2023-04-05T13:00:26Z</time>
      </trkpt>
      <trkpt lat="48.15956" lon="-3.59041">
        <ele>166.3</ele>
        <time>2023-04-05T13:00:27Z</time>
      </trkpt>
      <trkpt lat="48.15952" lon="-3.59049">
        <ele>166.2</ele>
        <time>2023-04-05T13:00:28Z</time>
      </trkpt>
      <trkpt lat="48.15948" lon="-3.59056">
        <ele>166.1</ele>
        <time>2023-04-05T13:00:29Z</time>
      </trkpt>
      <trkpt lat="48.15944" lon="-3.59064">
        <ele>166</ele>
        <time>2023-04-05T13:00:30Z</time>
      </trkpt>
      <trkpt lat="48.1594" lon="-3.5907">
        <ele>165.9</ele>
        <time>2023-04-05T13:00:31Z</time>
      </trkpt>
      <trkpt lat="48.15935" lon="-3.59076">
        <ele>165.8</ele>
        <time>2023-04-05T13:00:32Z</time>
      </trkpt>
      <trkpt lat="48.15931" lon="-3.59083">
        <ele>165.7</ele>
        <time>2023-04-05T13:00:33Z</time>
      </trkpt>
      <trkpt lat="48.15926" lon="-3.5909">
        <ele>165.6</ele>
        <time>2023-04-05T13:00:34Z</time>
      </trkpt>
      <trkpt lat="48.15921" lon="-3.59096">
        <ele>165.5</ele>
        <time>2023-04-05T13:00:35Z</time>
      </trkpt>
      <trkpt lat="48.15917" lon="-3.59101">
        <ele>165.3</ele>
        <time>2023-04-05T13:00:36Z</time>
      </trkpt>
      <trkpt lat="48.15912" lon="-3.59107">
        <ele>165.2</ele>
        <time>2023-04-05T13:00:37Z</time>
      </trkpt>
      <trkpt lat="48.15907" lon="-3.59112">
        <ele>165.1</ele>
        <time>2023-04-05T13:00:38Z</time>
      </trkpt>
      <trkpt lat="48.15901" lon="-3.59118">
        <ele>164.9</ele>
        <time>2023-04-05T13:00:39Z</time>
      </trkpt>
      <trkpt lat="48.15895" lon="-3.59124">
        <ele>164.8</ele>
        <time>2023-04-05T13:00:40Z</time>
      </trkpt>
      <trkpt lat="48.1589" lon="-3.59127">
        <ele>164.7</ele>
        <time>2023-04-05T13:00:41Z</time>
      </trkpt>
      <trkpt lat="48.15884" lon="-3.59132">
        <ele>164.5</ele>
        <time>2023-04-05T13:00:42Z</time>
      </trkpt>
      <trkpt lat="48.15878" lon="-3.59139">
        <ele>164.3</ele>
        <time>2023-04-05T13:00:43Z</time>
      </trkpt>
      <trkpt lat="48.15873" lon="-3.59146">
        <ele>164.1</ele>
        <time>2023-04-05T13:00:44Z</time>
      </trkpt>
      <trkpt lat="48.15867" lon="-3.59152">
        <ele>164</ele>
        <time>2023-04-05T13:00:45Z</time>
      </trkpt>
      <trkpt lat="48.15862" lon="-3.59158">
        <ele>163.8</ele>
        <time>2023-04-05T13:00:46Z</time>
      </trkpt>
      <trkpt lat="48.15856" lon="-3.59164">
        <ele>163.6</ele>
        <time>2023-04-05T13:00:47Z</time>
      </trkpt>
      <trkpt lat="48.1585" lon="-3.59169">
        <ele>163.5</ele>
        <time>2023-04-05T13:00:48Z</time>
      </trkpt>
      <trkpt lat="48.15844" lon="-3.59174">
        <ele>163.3</ele>
        <time>2023-04-05T13:00:49Z</time>
      </trkpt>
      <trkpt lat="48.15838" lon="-3.59179">
        <ele>163.2</ele>
        <time>2023-04-05T13:00:50Z</time>
      </trkpt>
      <trkpt lat="48.15832" lon="-3.59185">
        <ele>163.1</ele>
        <time>2023-04-05T13:00:51Z</time>
      </trkpt>
      <trkpt lat="48.15826" lon="-3.5919">
        <ele>162.9</ele>
        <time>2023-04-05T13:00:52Z</time>
      </trkpt>
      <trkpt lat="48.1582" lon="-3.59195">
        <ele>162.8</ele>
        <time>2023-04-05T13:00:53Z</time>
      </trkpt>
      <trkpt lat="48.15815" lon="-3.592">
        <ele>162.6</ele>
        <time>2023-04-05T13:00:54Z</time>
      </trkpt>
      <trkpt lat="48.15809" lon="-3.59206">
        <ele>162.5</ele>
        <time>2023-04-05T13:00:55Z</time>
      </trkpt>
      <trkpt lat="48.15803" lon="-3.59211">
        <ele>162.3</ele>
        <time>2023-04-05T13:00:56Z</time>
      </trkpt>
      <trkpt lat="48.15797" lon="-3.59217">
        <ele>162.1</ele>
        <time>2023-04-05T13:00:57Z</time>
      </trkpt>
      <trkpt lat="48.15791" lon="-3.59223">
        <ele>162</ele>
        <time>2023-04-05T13:00:58Z</time>
      </trkpt>
      <trkpt lat="48.15785" lon="-3.59228">
        <ele>161.8</ele>
        <time>2023-04-05T13:00:59Z</time>
      </trkpt>
      <trkpt lat="48.1578" lon="-3.59233">
        <ele>161.6</ele>
        <time>2023-04-05T13:01:00Z</time>
      </trkpt>
      <trkpt lat="48.15774" lon="-3.59239">
        <ele>161.4</ele>
        <time>2023-04-05T13:01:01Z</time>
      </trkpt>
      <trkpt lat="48.15768" lon="-3.59244">
        <ele>161.3</ele>
        <time>2023-04-05T13:01:02Z</time>
      </trkpt>
      <trkpt lat="48.15762" lon="-3.59249">
        <ele>161.1</ele>
        <time>2023-04-05T13:01:03Z</time>
      </trkpt>
      <trkpt lat="48.15757" lon="-3.59254">
        <ele>161</ele>
        <time>2023-04-05T13:01:04Z</time>
      </trkpt>
      <trkpt lat="48.15751" lon="-3.5926">
        <ele>160.9</ele>
        <time>2023-04-05T13:01:05Z</time>
      </trkpt>
      <trkpt lat="48.15745" lon="-3.59265">
        <ele>160.7</ele>
        <time>2023-04-05T13:01:06Z</time>
      </trkpt>
      <trkpt lat="48.15739" lon="-3.5927">
        <ele>160.6</ele>
        <time>2023-04-05T13:01:07Z</time>
      </trkpt>
      <trkpt lat="48.15733" lon="-3.59276">
        <ele>160.4</ele>
        <time>2023-04-05T13:01:08Z</time>
      </trkpt>
      <trkpt lat="48.15727" lon="-3.59281">
        <ele>160.3</ele>
        <time>2023-04-05T13:01:09Z</time>
      </trkpt>
      <trkpt lat="48.15721" lon="-3.59286">
        <ele>160.2</ele>
        <time>2023-04-05T13:01:10Z</time>
      </trkpt>
      <trkpt lat="48.15715" lon="-3.59291">
        <ele>160</ele>
        <time>2023-04-05T13:01:11Z</time>
      </trkpt>
      <trkpt lat="48.15709" lon="-3.59296">
        <ele>159.8</ele>
        <time>2023-04-05T13:01:12Z</time>
      </trkpt>
      <trkpt lat="48.15703" lon="-3.59301">
        <ele>159.7</ele>
        <time>2023-04-05T13:01:13Z</time>
      </trkpt>
      <trkpt lat="48.15697" lon="-3.59306">
        <ele>159.5</ele>
        <time>2023-04-05T13:01:14Z</time>
      </trkpt>
      <trkpt lat="48.1569" lon="-3.59311">
        <ele>159.3</ele>
        <time>2023-04-05T13:01:15Z</time>
      </trkpt>
      <trkpt lat="48.15684" lon="-3.59316">
        <ele>159.2</ele>
        <time>2023-04-05T13:01:16Z</time>
      </trkpt>
      <trkpt lat="48.15678" lon="-3.59321">
        <ele>159.1</ele>
        <time>2023-04-05T13:01:17Z</time>
      </trkpt>
      <trkpt lat="48.15672" lon="-3.59326">
        <ele>158.9</ele>
        <time>2023-04-05T13:01:18Z</time>
      </trkpt>
      <trkpt lat="48.15666" lon="-3.59331">
        <ele>158.8</ele>
        <time>2023-04-05T13:01:19Z</time>
      </trkpt>
      <trkpt lat="48.1566" lon="-3.59335">
        <ele>158.6</ele>
        <time>2023-04-05T13:01:20Z</time>
      </trkpt>
      <trkpt lat="48.15653" lon="-3.59339">
        <ele>158.5</ele>
        <time>2023-04-05T13:01:21Z</time>
      </trkpt>
      <trkpt lat="48.15647" lon="-3.59344">
        <ele>158.4</ele>
        <time>2023-04-05T13:01:22Z</time>
      </trkpt>
      <trkpt lat="48.15641" lon="-3.59348">
        <ele>158.2</ele>
        <time>2023-04-05T13:01:23Z</time>
      </trkpt>
      <trkpt lat="48.15636" lon="-3.59353">
        <ele>158</ele>
        <time>2023-04-05T13:01:24Z</time>
      </trkpt>
      <trkpt lat="48.1563" lon="-3.59357">
        <ele>157.9</ele>
        <time>2023-04-05T13:01:25Z</time>
      </trkpt>
      <trkpt lat="48.15624" lon="-3.59362">
        <ele>157.7</ele>
        <time>2023-04-05T13:01:26Z</time>
      </trkpt>
      <trkpt lat="48.15618" lon="-3.59366">
        <ele>157.5</ele>
        <time>2023-04-05T13:01:27Z</time>
      </trkpt>
      <trkpt lat="48.15612" lon="-3.59371">
        <ele>157.3</ele>
        <time>2023-04-05T13:01:28Z</time>
      </trkpt>
      <trkpt lat="48.15606" lon="-3.59374">
        <ele>157.1</ele>
        <time>2023-04-05T13:01:29Z</time>
      </trkpt>
      <trkpt lat="48.156" lon="-3.59376">
        <ele>156.8</ele>
        <time>2023-04-05T13:01:30Z</time>
      </trkpt>
      <trkpt lat="48.15593" lon="-3.59378">
        <ele>156.6</ele>
        <time>2023-04-05T13:01:31Z</time>
      </trkpt>
      <trkpt lat="48.15586" lon="-3.59379">
        <ele>156.3</ele>
        <time>2023-04-05T13:01:32Z</time>
      </trkpt>
      <trkpt lat="48.15579" lon="-3.59379">
        <ele>156.1</ele>
        <time>2023-04-05T13:01:33Z</time>
      </trkpt>
      <trkpt lat="48.15573" lon="-3.5938">
        <ele>155.8</ele>
        <time>2023-04-05T13:01:34Z</time>
      </trkpt>
      <trkpt lat="48.15566" lon="-3.5938">
        <ele>155.5</ele>
        <time>2023-04-05T13:01:35Z</time>
      </trkpt>
      <trkpt lat="48.15559" lon="-3.59381">
        <ele>155.2</ele>
        <time>2023-04-05T13:01:36Z</time>
      </trkpt>
      <trkpt lat="48.15553" lon="-3.5938">
        <ele>154.9</ele>
        <time>2023-04-05T13:01:37Z</time>
      </trkpt>
      <trkpt lat="48.15547" lon="-3.59378">
        <ele>154.6</ele>
        <time>2023-04-05T13:01:38Z</time>
      </trkpt>
      <trkpt lat="48.15542" lon="-3.59373">
        <ele>154.3</ele>
        <time>2023-04-05T13:01:39Z</time>
      </trkpt>
      <trkpt lat="48.15539" lon="-3.59367">
        <ele>153.9</ele>
        <time>2023-04-05T13:01:40Z</time>
      </trkpt>
      <trkpt lat="48.15539" lon="-3.59358">
        <ele>153.5</ele>
        <time>2023-04-05T13:01:41Z</time>
      </trkpt>
      <trkpt lat="48.15539" lon="-3.5935">
        <ele>153.1</ele>
        <time>2023-04-05T13:01:42Z</time>
      </trkpt>
      <trkpt lat="48.1554" lon="-3.59343">
        <ele>152.7</ele>
        <time>2023-04-05T13:01:43Z</time>
      </trkpt>
      <trkpt lat="48.15541" lon="-3.59337">
        <ele>152.3</ele>
        <time>2023-04-05T13:01:44Z</time>
      </trkpt>
      <trkpt lat="48.1554" lon="-3.59333">
        <ele>152.1</ele>
        <time>2023-04-05T13:01:45Z</time>
      </trkpt>
      <trkpt lat="48.15539" lon="-3.59332">
        <ele>152.1</ele>
        <time>2023-04-05T13:01:46Z</time>
      </trkpt>
      <trkpt lat="48.15538" lon="-3.59328">
        <ele>152.1</ele>
        <time>2023-04-05T13:01:47Z</time>
      </trkpt>
      <trkpt lat="48.15524" lon="-3.59318">
        <ele>151.9</ele>
        <time>2023-04-05T13:01:51Z</time>
      </trkpt>
      <trkpt lat="48.1552" lon="-3.5932">
        <ele>151.9</ele>
        <time>2023-04-05T13:01:52Z</time>
      </trkpt>
      <trkpt lat="48.15516" lon="-3.59322">
        <ele>151.9</ele>
        <time>2023-04-05T13:01:53Z</time>
      </trkpt>
      <trkpt lat="48.15512" lon="-3.59326">
        <ele>151.8</ele>
        <time>2023-04-05T13:01:54Z</time>
      </trkpt>
      <trkpt lat="48.15506" lon="-3.59329">
        <ele>151.7</ele>
        <time>2023-04-05T13:01:55Z</time>
      </trkpt>
      <trkpt lat="48.15499" lon="-3.59331">
        <ele>151.6</ele>
        <time>2023-04-05T13:01:57Z</time>
      </trkpt>
      <trkpt lat="48.15495" lon="-3.59329">
        <ele>151.5</ele>
        <time>2023-04-05T13:01:58Z</time>
      </trkpt>
      <trkpt lat="48.15489" lon="-3.59319">
        <ele>151.3</ele>
        <time>2023-04-05T13:01:59Z</time>
      </trkpt>
      <trkpt lat="48.15485" lon="-3.5931">
        <ele>151</ele>
        <time>2023-04-05T13:02:01Z</time>
      </trkpt>
      <trkpt lat="48.15484" lon="-3.59302">
        <ele>150.8</ele>
        <time>2023-04-05T13:02:02Z</time>
      </trkpt>
      <trkpt lat="48.15483" lon="-3.59294">
        <ele>150.5</ele>
        <time>2023-04-05T13:02:03Z</time>
      </trkpt>
      <trkpt lat="48.15483" lon="-3.59285">
        <ele>150.3</ele>
        <time>2023-04-05T13:02:04Z</time>
      </trkpt>
      <trkpt lat="48.15484" lon="-3.59276">
        <ele>150</ele>
        <time>2023-04-05T13:02:05Z</time>
      </trkpt>
      <trkpt lat="48.15485" lon="-3.59269">
        <ele>149.7</ele>
        <time>2023-04-05T13:02:06Z</time>
      </trkpt>
      <trkpt lat="48.15484" lon="-3.59265">
        <ele>149.6</ele>
        <time>2023-04-05T13:02:07Z</time>
      </trkpt>
      <trkpt lat="48.1548" lon="-3.59262">
        <ele>149.3</ele>
        <time>2023-04-05T13:02:08Z</time>
      </trkpt>
      <trkpt lat="48.15479" lon="-3.59261">
        <ele>149.3</ele>
        <time>2023-04-05T13:02:09Z</time>
      </trkpt>
      <trkpt lat="48.15476" lon="-3.59256">
        <ele>149.2</ele>
        <time>2023-04-05T13:02:11Z</time>
      </trkpt>
      <trkpt lat="48.15473" lon="-3.59249">
        <ele>149.2</ele>
        <time>2023-04-05T13:02:12Z</time>
      </trkpt>
      <trkpt lat="48.1547" lon="-3.59246">
        <ele>149.1</ele>
        <time>2023-04-05T13:02:13Z</time>
      </trkpt>
      <trkpt lat="48.15464" lon="-3.5925">
        <ele>149</ele>
        <time>2023-04-05T13:02:15Z</time>
      </trkpt>
      <trkpt lat="48.15451" lon="-3.5926">
        <ele>148.7</ele>
        <time>2023-04-05T13:02:16Z</time>
      </trkpt>
      <trkpt lat="48.1545" lon="-3.59268">
        <ele>148.7</ele>
        <time>2023-04-05T13:02:17Z</time>
      </trkpt>
      <trkpt lat="48.1545" lon="-3.59276">
        <ele>148.8</ele>
        <time>2023-04-05T13:02:18Z</time>
      </trkpt>
      <trkpt lat="48.15449" lon="-3.59283">
        <ele>149</ele>
        <time>2023-04-05T13:02:19Z</time>
      </trkpt>
      <trkpt lat="48.1545" lon="-3.5929">
        <ele>149.1</ele>
        <time>2023-04-05T13:02:20Z</time>
      </trkpt>
      <trkpt lat="48.1545" lon="-3.59296">
        <ele>149.3</ele>
        <time>2023-04-05T13:02:21Z</time>
      </trkpt>
      <trkpt lat="48.1545" lon="-3.59304">
        <ele>149.5</ele>
        <time>2023-04-05T13:02:22Z</time>
      </trkpt>
      <trkpt lat="48.1545" lon="-3.59308">
        <ele>149.6</ele>
        <time>2023-04-05T13:02:23Z</time>
      </trkpt>
      <trkpt lat="48.15451" lon="-3.59316">
        <ele>149.8</ele>
        <time>2023-04-05T13:02:24Z</time>
      </trkpt>
      <trkpt lat="48.15452" lon="-3.59328">
        <ele>150</ele>
        <time>2023-04-05T13:02:26Z</time>
      </trkpt>
      <trkpt lat="48.15452" lon="-3.59335">
        <ele>150.2</ele>
        <time>2023-04-05T13:02:28Z</time>
      </trkpt>
      <trkpt lat="48.15453" lon="-3.59341">
        <ele>150.3</ele>
        <time>2023-04-05T13:02:29Z</time>
      </trkpt>
      <trkpt lat="48.15453" lon="-3.59352">
        <ele>150.4</ele>
        <time>2023-04-05T13:02:30Z</time>
      </trkpt>
      <trkpt lat="48.15451" lon="-3.59359">
        <ele>150.4</ele>
        <time>2023-04-05T13:02:32Z</time>
      </trkpt>
      <trkpt lat="48.15449" lon="-3.59364">
        <ele>150.4</ele>
        <time>2023-04-05T13:02:33Z</time>
      </trkpt>
      <trkpt lat="48.15446" lon="-3.59368">
        <ele>150.3</ele>
        <time>2023-04-05T13:02:34Z</time>
      </trkpt>
      <trkpt lat="48.15442" lon="-3.59369">
        <ele>150.2</ele>
        <time>2023-04-05T13:02:35Z</time>
      </trkpt>
      <trkpt lat="48.15437" lon="-3.5937">
        <ele>150.1</ele>
        <time>2023-04-05T13:02:36Z</time>
      </trkpt>
      <trkpt lat="48.15431" lon="-3.59367">
        <ele>149.9</ele>
        <time>2023-04-05T13:02:37Z</time>
      </trkpt>
      <trkpt lat="48.15425" lon="-3.59366">
        <ele>149.7</ele>
        <time>2023-04-05T13:02:38Z</time>
      </trkpt>
      <trkpt lat="48.1542" lon="-3.59365">
        <ele>149.4</ele>
        <time>2023-04-05T13:02:39Z</time>
      </trkpt>
      <trkpt lat="48.15415" lon="-3.59363">
        <ele>149.2</ele>
        <time>2023-04-05T13:02:40Z</time>
      </trkpt>
      <trkpt lat="48.15409" lon="-3.59362">
        <ele>149</ele>
        <time>2023-04-05T13:02:41Z</time>
      </trkpt>
      <trkpt lat="48.15403" lon="-3.59362">
        <ele>148.7</ele>
        <time>2023-04-05T13:02:42Z</time>
      </trkpt>
      <trkpt lat="48.15397" lon="-3.59362">
        <ele>148.4</ele>
        <time>2023-04-05T13:02:43Z</time>
      </trkpt>
      <trkpt lat="48.15392" lon="-3.59364">
        <ele>148.1</ele>
        <time>2023-04-05T13:02:44Z</time>
      </trkpt>
      <trkpt lat="48.15386" lon="-3.59366">
        <ele>147.8</ele>
        <time>2023-04-05T13:02:45Z</time>
      </trkpt>
      <trkpt lat="48.1538" lon="-3.59369">
        <ele>147.4</ele>
        <time>2023-04-05T13:02:46Z</time>
      </trkpt>
      <trkpt lat="48.15373" lon="-3.59371">
        <ele>147</ele>
        <time>2023-04-05T13:02:47Z</time>
      </trkpt>
      <trkpt lat="48.15366" lon="-3.59375">
        <ele>146.6</ele>
        <time>2023-04-05T13:02:48Z</time>
      </trkpt>
      <trkpt lat="48.15359" lon="-3.59379">
        <ele>146.3</ele>
        <time>2023-04-05T13:02:49Z</time>
      </trkpt>
      <trkpt lat="48.15352" lon="-3.59383">
        <ele>146</ele>
        <time>2023-04-05T13:02:50Z</time>
      </trkpt>
      <trkpt lat="48.15346" lon="-3.59389">
        <ele>145.7</ele>
        <time>2023-04-05T13:02:51Z</time>
      </trkpt>
      <trkpt lat="48.15339" lon="-3.59395">
        <ele>145.5</ele>
        <time>2023-04-05T13:02:52Z</time>
      </trkpt>
      <trkpt lat="48.15333" lon="-3.59402">
        <ele>145.3</ele>
        <time>2023-04-05T13:02:53Z</time>
      </trkpt>
      <trkpt lat="48.15328" lon="-3.59409">
        <ele>145.1</ele>
        <time>2023-04-05T13:02:54Z</time>
      </trkpt>
      <trkpt lat="48.15322" lon="-3.59417">
        <ele>144.9</ele>
        <time>2023-04-05T13:02:55Z</time>
      </trkpt>
      <trkpt lat="48.15318" lon="-3.59425">
        <ele>144.8</ele>
        <time>2023-04-05T13:02:56Z</time>
      </trkpt>
      <trkpt lat="48.15313" lon="-3.59433">
        <ele>144.7</ele>
        <time>2023-04-05T13:02:57Z</time>
      </trkpt>
      <trkpt lat="48.15309" lon="-3.59441">
        <ele>144.6</ele>
        <time>2023-04-05T13:02:58Z</time>
      </trkpt>
      <trkpt lat="48.15306" lon="-3.59449">
        <ele>144.5</ele>
        <time>2023-04-05T13:02:59Z</time>
      </trkpt>
      <trkpt lat="48.15302" lon="-3.59457">
        <ele>144.4</ele>
        <time>2023-04-05T13:03:00Z</time>
      </trkpt>
      <trkpt lat="48.15299" lon="-3.59465">
        <ele>144.3</ele>
        <time>2023-04-05T13:03:01Z</time>
      </trkpt>
      <trkpt lat="48.15296" lon="-3.59474">
        <ele>144.2</ele>
        <time>2023-04-05T13:03:02Z</time>
      </trkpt>
      <trkpt lat="48.15293" lon="-3.59482">
        <ele>144.2</ele>
        <time>2023-04-05T13:03:03Z</time>
      </trkpt>
      <trkpt lat="48.1529" lon="-3.5949">
        <ele>144.2</ele>
        <time>2023-04-05T13:03:04Z</time>
      </trkpt>
      <trkpt lat="48.15287" lon="-3.59499">
        <ele>144.2</ele>
        <time>2023-04-05T13:03:05Z</time>
      </trkpt>
      <trkpt lat="48.15284" lon="-3.59507">
        <ele>144.3</ele>
        <time>2023-04-05T13:03:06Z</time>
      </trkpt>
      <trkpt lat="48.15282" lon="-3.59514">
        <ele>144.4</ele>
        <time>2023-04-05T13:03:07Z</time>
      </trkpt>
      <trkpt lat="48.15279" lon="-3.59521">
        <ele>144.5</ele>
        <time>2023-04-05T13:03:08Z</time>
      </trkpt>
      <trkpt lat="48.15275" lon="-3.59528">
        <ele>144.6</ele>
        <time>2023-04-05T13:03:09Z</time>
      </trkpt>
      <trkpt lat="48.15272" lon="-3.59534">
        <ele>144.7</ele>
        <time>2023-04-05T13:03:10Z</time>
      </trkpt>
      <trkpt lat="48.1527" lon="-3.59539">
        <ele>144.7</ele>
        <time>2023-04-05T13:03:11Z</time>
      </trkpt>
      <trkpt lat="48.15268" lon="-3.59544">
        <ele>144.7</ele>
        <time>2023-04-05T13:03:12Z</time>
      </trkpt>
      <trkpt lat="48.15268" lon="-3.59548">
        <ele>144.8</ele>
        <time>2023-04-05T13:03:13Z</time>
      </trkpt>
      <trkpt lat="48.15266" lon="-3.59554">
        <ele>144.8</ele>
        <time>2023-04-05T13:03:14Z</time>
      </trkpt>
      <trkpt lat="48.15265" lon="-3.5956">
        <ele>144.8</ele>
        <time>2023-04-05T13:03:15Z</time>
      </trkpt>
      <trkpt lat="48.15263" lon="-3.59567">
        <ele>144.7</ele>
        <time>2023-04-05T13:03:16Z</time>
      </trkpt>
      <trkpt lat="48.15261" lon="-3.59573">
        <ele>144.7</ele>
        <time>2023-04-05T13:03:17Z</time>
      </trkpt>
      <trkpt lat="48.15259" lon="-3.5958">
        <ele>144.6</ele>
        <time>2023-04-05T13:03:18Z</time>
      </trkpt>
      <trkpt lat="48.15256" lon="-3.59586">
        <ele>144.6</ele>
        <time>2023-04-05T13:03:19Z</time>
      </trkpt>
      <trkpt lat="48.15253" lon="-3.59593">
        <ele>144.5</ele>
        <time>2023-04-05T13:03:20Z</time>
      </trkpt>
      <trkpt lat="48.15251" lon="-3.596">
        <ele>144.4</ele>
        <time>2023-04-05T13:03:21Z</time>
      </trkpt>
      <trkpt lat="48.15248" lon="-3.59607">
        <ele>144.4</ele>
        <time>2023-04-05T13:03:22Z</time>
      </trkpt>
      <trkpt lat="48.15246" lon="-3.59614">
        <ele>144.3</ele>
        <time>2023-04-05T13:03:23Z</time>
      </trkpt>
      <trkpt lat="48.15243" lon="-3.59621">
        <ele>144.2</ele>
        <time>2023-04-05T13:03:24Z</time>
      </trkpt>
      <trkpt lat="48.15241" lon="-3.59628">
        <ele>144.2</ele>
        <time>2023-04-05T13:03:25Z</time>
      </trkpt>
      <trkpt lat="48.15238" lon="-3.59635">
        <ele>144.1</ele>
        <time>2023-04-05T13:03:26Z</time>
      </trkpt>
      <trkpt lat="48.15236" lon="-3.59642">
        <ele>144.1</ele>
        <time>2023-04-05T13:03:27Z</time>
      </trkpt>
      <trkpt lat="48.15234" lon="-3.5965">
        <ele>144</ele>
        <time>2023-04-05T13:03:28Z</time>
      </trkpt>
      <trkpt lat="48.15231" lon="-3.59657">
        <ele>144</ele>
        <time>2023-04-05T13:03:29Z</time>
      </trkpt>
      <trkpt lat="48.15228" lon="-3.59665">
        <ele>144</ele>
        <time>2023-04-05T13:03:30Z</time>
      </trkpt>
      <trkpt lat="48.15225" lon="-3.59672">
        <ele>144</ele>
        <time>2023-04-05T13:03:31Z</time>
      </trkpt>
      <trkpt lat="48.15223" lon="-3.59679">
        <ele>144</ele>
        <time>2023-04-05T13:03:32Z</time>
      </trkpt>
      <trkpt lat="48.15221" lon="-3.59686">
        <ele>144</ele>
        <time>2023-04-05T13:03:33Z</time>
      </trkpt>
      <trkpt lat="48.15218" lon="-3.59693">
        <ele>144</ele>
        <time>2023-04-05T13:03:34Z</time>
      </trkpt>
      <trkpt lat="48.15215" lon="-3.59699">
        <ele>144</ele>
        <time>2023-04-05T13:03:35Z</time>
      </trkpt>
      <trkpt lat="48.15213" lon="-3.59706">
        <ele>144</ele>
        <time>2023-04-05T13:03:36Z</time>
      </trkpt>
      <trkpt lat="48.1521" lon="-3.59711">
        <ele>144</ele>
        <time>2023-04-05T13:03:37Z</time>
      </trkpt>
      <trkpt lat="48.15207" lon="-3.59718">
        <ele>144.1</ele>
        <time>2023-04-05T13:03:38Z</time>
      </trkpt>
      <trkpt lat="48.15204" lon="-3.59724">
        <ele>144.1</ele>
        <time>2023-04-05T13:03:39Z</time>
      </trkpt>
      <trkpt lat="48.15202" lon="-3.5973">
        <ele>144.1</ele>
        <time>2023-04-05T13:03:40Z</time>
      </trkpt>
      <trkpt lat="48.152" lon="-3.59736">
        <ele>144.1</ele>
        <time>2023-04-05T13:03:41Z</time>
      </trkpt>
      <trkpt lat="48.15198" lon="-3.59743">
        <ele>144.1</ele>
        <time>2023-04-05T13:03:42Z</time>
      </trkpt>
      <trkpt lat="48.15196" lon="-3.59749">
        <ele>144.1</ele>
        <time>2023-04-05T13:03:43Z</time>
      </trkpt>
      <trkpt lat="48.15194" lon="-3.59756">
        <ele>144</ele>
        <time>2023-04-05T13:03:44Z</time>
      </trkpt>
      <trkpt lat="48.15192" lon="-3.59762">
        <ele>144</ele>
        <time>2023-04-05T13:03:45Z</time>
      </trkpt>
      <trkpt lat="48.1519" lon="-3.59769">
        <ele>144</ele>
        <time>2023-04-05T13:03:46Z</time>
      </trkpt>
      <trkpt lat="48.15187" lon="-3.59775">
        <ele>144</ele>
        <time>2023-04-05T13:03:47Z</time>
      </trkpt>
      <trkpt lat="48.15184" lon="-3.59782">
        <ele>144</ele>
        <time>2023-04-05T13:03:48Z</time>
      </trkpt>
      <trkpt lat="48.15181" lon="-3.59788">
        <ele>144</ele>
        <time>2023-04-05T13:03:49Z</time>
      </trkpt>
      <trkpt lat="48.15179" lon="-3.59795">
        <ele>144</ele>
        <time>2023-04-05T13:03:50Z</time>
      </trkpt>
      <trkpt lat="48.15176" lon="-3.59802">
        <ele>144</ele>
        <time>2023-04-05T13:03:51Z</time>
      </trkpt>
      <trkpt lat="48.15174" lon="-3.59809">
        <ele>143.9</ele>
        <time>2023-04-05T13:03:52Z</time>
      </trkpt>
      <trkpt lat="48.15171" lon="-3.59816">
        <ele>143.9</ele>
        <time>2023-04-05T13:03:53Z</time>
      </trkpt>
      <trkpt lat="48.15169" lon="-3.59823">
        <ele>143.9</ele>
        <time>2023-04-05T13:03:54Z</time>
      </trkpt>
      <trkpt lat="48.15166" lon="-3.59829">
        <ele>143.8</ele>
        <time>2023-04-05T13:03:55Z</time>
      </trkpt>
      <trkpt lat="48.15163" lon="-3.59836">
        <ele>143.8</ele>
        <time>2023-04-05T13:03:56Z</time>
      </trkpt>
      <trkpt lat="48.15161" lon="-3.59843">
        <ele>143.7</ele>
        <time>2023-04-05T13:03:57Z</time>
      </trkpt>
      <trkpt lat="48.15158" lon="-3.5985">
        <ele>143.7</ele>
        <time>2023-04-05T13:03:58Z</time>
      </trkpt>
      <trkpt lat="48.15155" lon="-3.59857">
        <ele>143.7</ele>
        <time>2023-04-05T13:03:59Z</time>
      </trkpt>
      <trkpt lat="48.15152" lon="-3.59864">
        <ele>143.6</ele>
        <time>2023-04-05T13:04:00Z</time>
      </trkpt>
      <trkpt lat="48.1515" lon="-3.59871">
        <ele>143.6</ele>
        <time>2023-04-05T13:04:01Z</time>
      </trkpt>
      <trkpt lat="48.15146" lon="-3.59878">
        <ele>143.6</ele>
        <time>2023-04-05T13:04:02Z</time>
      </trkpt>
      <trkpt lat="48.15143" lon="-3.59884">
        <ele>143.5</ele>
        <time>2023-04-05T13:04:03Z</time>
      </trkpt>
      <trkpt lat="48.15139" lon="-3.59891">
        <ele>143.5</ele>
        <time>2023-04-05T13:04:04Z</time>
      </trkpt>
      <trkpt lat="48.15136" lon="-3.59897">
        <ele>143.5</ele>
        <time>2023-04-05T13:04:05Z</time>
      </trkpt>
      <trkpt lat="48.15133" lon="-3.59904">
        <ele>143.5</ele>
        <time>2023-04-05T13:04:06Z</time>
      </trkpt>
      <trkpt lat="48.1513" lon="-3.5991">
        <ele>143.5</ele>
        <time>2023-04-05T13:04:07Z</time>
      </trkpt>
      <trkpt lat="48.15128" lon="-3.59917">
        <ele>143.4</ele>
        <time>2023-04-05T13:04:08Z</time>
      </trkpt>
      <trkpt lat="48.15125" lon="-3.59924">
        <ele>143.4</ele>
        <time>2023-04-05T13:04:09Z</time>
      </trkpt>
      <trkpt lat="48.15122" lon="-3.59929">
        <ele>143.4</ele>
        <time>2023-04-05T13:04:10Z</time>
      </trkpt>
      <trkpt lat="48.15118" lon="-3.59934">
        <ele>143.3</ele>
        <time>2023-04-05T13:04:11Z</time>
      </trkpt>
      <trkpt lat="48.15115" lon="-3.5994">
        <ele>143.2</ele>
        <time>2023-04-05T13:04:12Z</time>
      </trkpt>
      <trkpt lat="48.15111" lon="-3.59946">
        <ele>143.1</ele>
        <time>2023-04-05T13:04:13Z</time>
      </trkpt>
      <trkpt lat="48.15106" lon="-3.59952">
        <ele>143</ele>
        <time>2023-04-05T13:04:14Z</time>
      </trkpt>
      <trkpt lat="48.15102" lon="-3.59958">
        <ele>142.9</ele>
        <time>2023-04-05T13:04:15Z</time>
      </trkpt>
      <trkpt lat="48.15097" lon="-3.59965">
        <ele>142.8</ele>
        <time>2023-04-05T13:04:16Z</time>
      </trkpt>
      <trkpt lat="48.15093" lon="-3.59971">
        <ele>142.7</ele>
        <time>2023-04-05T13:04:17Z</time>
      </trkpt>
      <trkpt lat="48.15089" lon="-3.59977">
        <ele>142.6</ele>
        <time>2023-04-05T13:04:18Z</time>
      </trkpt>
      <trkpt lat="48.15084" lon="-3.59983">
        <ele>142.5</ele>
        <time>2023-04-05T13:04:19Z</time>
      </trkpt>
      <trkpt lat="48.1508" lon="-3.59989">
        <ele>142.4</ele>
        <time>2023-04-05T13:04:20Z</time>
      </trkpt>
      <trkpt lat="48.15075" lon="-3.59995">
        <ele>142.3</ele>
        <time>2023-04-05T13:04:21Z</time>
      </trkpt>
      <trkpt lat="48.15071" lon="-3.60001">
        <ele>142.1</ele>
        <time>2023-04-05T13:04:22Z</time>
      </trkpt>
      <trkpt lat="48.15067" lon="-3.60007">
        <ele>142</ele>
        <time>2023-04-05T13:04:23Z</time>
      </trkpt>
      <trkpt lat="48.15062" lon="-3.60013">
        <ele>142</ele>
        <time>2023-04-05T13:04:24Z</time>
      </trkpt>
      <trkpt lat="48.15058" lon="-3.60019">
        <ele>141.9</ele>
        <time>2023-04-05T13:04:25Z</time>
      </trkpt>
      <trkpt lat="48.15054" lon="-3.60025">
        <ele>141.8</ele>
        <time>2023-04-05T13:04:26Z</time>
      </trkpt>
      <trkpt lat="48.1505" lon="-3.6003">
        <ele>141.8</ele>
        <time>2023-04-05T13:04:27Z</time>
      </trkpt>
      <trkpt lat="48.15045" lon="-3.60035">
        <ele>141.7</ele>
        <time>2023-04-05T13:04:28Z</time>
      </trkpt>
      <trkpt lat="48.15041" lon="-3.60041">
        <ele>141.6</ele>
        <time>2023-04-05T13:04:29Z</time>
      </trkpt>
      <trkpt lat="48.15038" lon="-3.60047">
        <ele>141.6</ele>
        <time>2023-04-05T13:04:30Z</time>
      </trkpt>
      <trkpt lat="48.15035" lon="-3.60053">
        <ele>141.5</ele>
        <time>2023-04-05T13:04:31Z</time>
      </trkpt>
      <trkpt lat="48.15031" lon="-3.60059">
        <ele>141.4</ele>
        <time>2023-04-05T13:04:32Z</time>
      </trkpt>
      <trkpt lat="48.15027" lon="-3.60064">
        <ele>141.3</ele>
        <time>2023-04-05T13:04:33Z</time>
      </trkpt>
      <trkpt lat="48.15024" lon="-3.6007">
        <ele>141.2</ele>
        <time>2023-04-05T13:04:34Z</time>
      </trkpt>
      <trkpt lat="48.15021" lon="-3.60077">
        <ele>141.1</ele>
        <time>2023-04-05T13:04:35Z</time>
      </trkpt>
      <trkpt lat="48.15018" lon="-3.60083">
        <ele>141</ele>
        <time>2023-04-05T13:04:36Z</time>
      </trkpt>
      <trkpt lat="48.15014" lon="-3.60089">
        <ele>140.9</ele>
        <time>2023-04-05T13:04:37Z</time>
      </trkpt>
      <trkpt lat="48.15011" lon="-3.60093">
        <ele>140.7</ele>
        <time>2023-04-05T13:04:38Z</time>
      </trkpt>
      <trkpt lat="48.15007" lon="-3.60098">
        <ele>140.6</ele>
        <time>2023-04-05T13:04:39Z</time>
      </trkpt>
      <trkpt lat="48.15003" lon="-3.60103">
        <ele>140.4</ele>
        <time>2023-04-05T13:04:40Z</time>
      </trkpt>
      <trkpt lat="48.14999" lon="-3.60108">
        <ele>140.2</ele>
        <time>2023-04-05T13:04:41Z</time>
      </trkpt>
      <trkpt lat="48.14995" lon="-3.60114">
        <ele>140.1</ele>
        <time>2023-04-05T13:04:42Z</time>
      </trkpt>
      <trkpt lat="48.14991" lon="-3.60121">
        <ele>139.9</ele>
        <time>2023-04-05T13:04:43Z</time>
      </trkpt>
      <trkpt lat="48.14986" lon="-3.60127">
        <ele>139.8</ele>
        <time>2023-04-05T13:04:44Z</time>
      </trkpt>
      <trkpt lat="48.14982" lon="-3.60133">
        <ele>139.6</ele>
        <time>2023-04-05T13:04:45Z</time>
      </trkpt>
      <trkpt lat="48.14978" lon="-3.60139">
        <ele>139.5</ele>
        <time>2023-04-05T13:04:46Z</time>
      </trkpt>
      <trkpt lat="48.14974" lon="-3.60145">
        <ele>139.4</ele>
        <time>2023-04-05T13:04:47Z</time>
      </trkpt>
      <trkpt lat="48.14969" lon="-3.60151">
        <ele>139.3</ele>
        <time>2023-04-05T13:04:48Z</time>
      </trkpt>
      <trkpt lat="48.14965" lon="-3.60157">
        <ele>139.1</ele>
        <time>2023-04-05T13:04:49Z</time>
      </trkpt>
      <trkpt lat="48.14961" lon="-3.60164">
        <ele>139</ele>
        <time>2023-04-05T13:04:50Z</time>
      </trkpt>
      <trkpt lat="48.14957" lon="-3.6017">
        <ele>138.9</ele>
        <time>2023-04-05T13:04:51Z</time>
      </trkpt>
      <trkpt lat="48.14953" lon="-3.60177">
        <ele>138.8</ele>
        <time>2023-04-05T13:04:52Z</time>
      </trkpt>
      <trkpt lat="48.14948" lon="-3.60183">
        <ele>138.7</ele>
        <time>2023-04-05T13:04:53Z</time>
      </trkpt>
      <trkpt lat="48.14943" lon="-3.6019">
        <ele>138.5</ele>
        <time>2023-04-05T13:04:54Z</time>
      </trkpt>
      <trkpt lat="48.14939" lon="-3.60196">
        <ele>138.4</ele>
        <time>2023-04-05T13:04:55Z</time>
      </trkpt>
      <trkpt lat="48.14933" lon="-3.60202">
        <ele>138.3</ele>
        <time>2023-04-05T13:04:56Z</time>
      </trkpt>
      <trkpt lat="48.14928" lon="-3.60208">
        <ele>138.2</ele>
        <time>2023-04-05T13:04:57Z</time>
      </trkpt>
      <trkpt lat="48.14923" lon="-3.60213">
        <ele>138.1</ele>
        <time>2023-04-05T13:04:58Z</time>
      </trkpt>
      <trkpt lat="48.14918" lon="-3.60218">
        <ele>138</ele>
        <time>2023-04-05T13:04:59Z</time>
      </trkpt>
      <trkpt lat="48.14912" lon="-3.60222">
        <ele>137.9</ele>
        <time>2023-04-05T13:05:00Z</time>
      </trkpt>
      <trkpt lat="48.14907" lon="-3.60227">
        <ele>137.8</ele>
        <time>2023-04-05T13:05:01Z</time>
      </trkpt>
      <trkpt lat="48.14901" lon="-3.60232">
        <ele>137.6</ele>
        <time>2023-04-05T13:05:02Z</time>
      </trkpt>
      <trkpt lat="48.14895" lon="-3.60236">
        <ele>137.5</ele>
        <time>2023-04-05T13:05:03Z</time>
      </trkpt>
      <trkpt lat="48.1489" lon="-3.60241">
        <ele>137.4</ele>
        <time>2023-04-05T13:05:04Z</time>
      </trkpt>
      <trkpt lat="48.14884" lon="-3.60245">
        <ele>137.3</ele>
        <time>2023-04-05T13:05:05Z</time>
      </trkpt>
      <trkpt lat="48.14878" lon="-3.60249">
        <ele>137.2</ele>
        <time>2023-04-05T13:05:06Z</time>
      </trkpt>
      <trkpt lat="48.14872" lon="-3.60254">
        <ele>137.1</ele>
        <time>2023-04-05T13:05:07Z</time>
      </trkpt>
      <trkpt lat="48.14866" lon="-3.60258">
        <ele>137.1</ele>
        <time>2023-04-05T13:05:08Z</time>
      </trkpt>
      <trkpt lat="48.1486" lon="-3.60261">
        <ele>137</ele>
        <time>2023-04-05T13:05:09Z</time>
      </trkpt>
      <trkpt lat="48.14854" lon="-3.60264">
        <ele>137</ele>
        <time>2023-04-05T13:05:10Z</time>
      </trkpt>
      <trkpt lat="48.14847" lon="-3.60266">
        <ele>136.9</ele>
        <time>2023-04-05T13:05:11Z</time>
      </trkpt>
      <trkpt lat="48.14841" lon="-3.60268">
        <ele>136.9</ele>
        <time>2023-04-05T13:05:12Z</time>
      </trkpt>
      <trkpt lat="48.14836" lon="-3.6027">
        <ele>136.9</ele>
        <time>2023-04-05T13:05:13Z</time>
      </trkpt>
      <trkpt lat="48.14831" lon="-3.60272">
        <ele>136.9</ele>
        <time>2023-04-05T13:05:14Z</time>
      </trkpt>
      <trkpt lat="48.14825" lon="-3.60273">
        <ele>137</ele>
        <time>2023-04-05T13:05:15Z</time>
      </trkpt>
      <trkpt lat="48.14819" lon="-3.60275">
        <ele>137</ele>
        <time>2023-04-05T13:05:16Z</time>
      </trkpt>
      <trkpt lat="48.14813" lon="-3.60276">
        <ele>137.1</ele>
        <time>2023-04-05T13:05:17Z</time>
      </trkpt>
      <trkpt lat="48.14807" lon="-3.60277">
        <ele>137.1</ele>
        <time>2023-04-05T13:05:18Z</time>
      </trkpt>
      <trkpt lat="48.14802" lon="-3.60278">
        <ele>137.2</ele>
        <time>2023-04-05T13:05:19Z</time>
      </trkpt>
      <trkpt lat="48.14797" lon="-3.60278">
        <ele>137.2</ele>
        <time>2023-04-05T13:05:20Z</time>
      </trkpt>
      <trkpt lat="48.14792" lon="-3.60278">
        <ele>137.3</ele>
        <time>2023-04-05T13:05:21Z</time>
      </trkpt>
      <trkpt lat="48.14787" lon="-3.60279">
        <ele>137.3</ele>
        <time>2023-04-05T13:05:22Z</time>
      </trkpt>
      <trkpt lat="48.14782" lon="-3.60279">
        <ele>137.3</ele>
        <time>2023-04-05T13:05:23Z</time>
      </trkpt>
      <trkpt lat="48.14779" lon="-3.60279">
        <ele>137.4</ele>
        <time>2023-04-05T13:05:24Z</time>
      </trkpt>
      <trkpt lat="48.14772" lon="-3.60278">
        <ele>137.4</ele>
        <time>2023-04-05T13:05:25Z</time>
      </trkpt>
      <trkpt lat="48.14766" lon="-3.60277">
        <ele>137.5</ele>
        <time>2023-04-05T13:05:26Z</time>
      </trkpt>
      <trkpt lat="48.1476" lon="-3.60276">
        <ele>137.6</ele>
        <time>2023-04-05T13:05:27Z</time>
      </trkpt>
      <trkpt lat="48.14755" lon="-3.60276">
        <ele>137.6</ele>
        <time>2023-04-05T13:05:28Z</time>
      </trkpt>
      <trkpt lat="48.1475" lon="-3.60274">
        <ele>137.7</ele>
        <time>2023-04-05T13:05:29Z</time>
      </trkpt>
      <trkpt lat="48.14745" lon="-3.60274">
        <ele>137.7</ele>
        <time>2023-04-05T13:05:30Z</time>
      </trkpt>
      <trkpt lat="48.14741" lon="-3.60273">
        <ele>137.7</ele>
        <time>2023-04-05T13:05:31Z</time>
      </trkpt>
      <trkpt lat="48.14737" lon="-3.60273">
        <ele>137.8</ele>
        <time>2023-04-05T13:05:32Z</time>
      </trkpt>
      <trkpt lat="48.14733" lon="-3.60274">
        <ele>137.8</ele>
        <time>2023-04-05T13:05:33Z</time>
      </trkpt>
      <trkpt lat="48.14727" lon="-3.60274">
        <ele>137.9</ele>
        <time>2023-04-05T13:05:34Z</time>
      </trkpt>
      <trkpt lat="48.14721" lon="-3.60273">
        <ele>137.9</ele>
        <time>2023-04-05T13:05:35Z</time>
      </trkpt>
      <trkpt lat="48.14717" lon="-3.60272">
        <ele>138</ele>
        <time>2023-04-05T13:05:36Z</time>
      </trkpt>
      <trkpt lat="48.14712" lon="-3.60272">
        <ele>138.1</ele>
        <time>2023-04-05T13:05:37Z</time>
      </trkpt>
      <trkpt lat="48.14707" lon="-3.60271">
        <ele>138.2</ele>
        <time>2023-04-05T13:05:38Z</time>
      </trkpt>
      <trkpt lat="48.14701" lon="-3.60271">
        <ele>138.3</ele>
        <time>2023-04-05T13:05:39Z</time>
      </trkpt>
      <trkpt lat="48.14696" lon="-3.60271">
        <ele>138.3</ele>
        <time>2023-04-05T13:05:40Z</time>
      </trkpt>
      <trkpt lat="48.14691" lon="-3.60271">
        <ele>138.4</ele>
        <time>2023-04-05T13:05:41Z</time>
      </trkpt>
      <trkpt lat="48.14686" lon="-3.6027">
        <ele>138.5</ele>
        <time>2023-04-05T13:05:42Z</time>
      </trkpt>
      <trkpt lat="48.14681" lon="-3.60269">
        <ele>138.6</ele>
        <time>2023-04-05T13:05:43Z</time>
      </trkpt>
      <trkpt lat="48.14675" lon="-3.60268">
        <ele>138.7</ele>
        <time>2023-04-05T13:05:44Z</time>
      </trkpt>
      <trkpt lat="48.1467" lon="-3.60269">
        <ele>138.8</ele>
        <time>2023-04-05T13:05:45Z</time>
      </trkpt>
      <trkpt lat="48.14667" lon="-3.60268">
        <ele>138.9</ele>
        <time>2023-04-05T13:05:46Z</time>
      </trkpt>
      <trkpt lat="48.1466" lon="-3.60267">
        <ele>139</ele>
        <time>2023-04-05T13:05:47Z</time>
      </trkpt>
      <trkpt lat="48.14655" lon="-3.60266">
        <ele>139.1</ele>
        <time>2023-04-05T13:05:48Z</time>
      </trkpt>
      <trkpt lat="48.1465" lon="-3.60266">
        <ele>139.3</ele>
        <time>2023-04-05T13:05:49Z</time>
      </trkpt>
      <trkpt lat="48.14646" lon="-3.60267">
        <ele>139.4</ele>
        <time>2023-04-05T13:05:51Z</time>
      </trkpt>
      <trkpt lat="48.1464" lon="-3.60269">
        <ele>139.5</ele>
        <time>2023-04-05T13:05:52Z</time>
      </trkpt>
      <trkpt lat="48.14637" lon="-3.60267">
        <ele>139.6</ele>
        <time>2023-04-05T13:05:54Z</time>
      </trkpt>
      <trkpt lat="48.14634" lon="-3.60265">
        <ele>139.6</ele>
        <time>2023-04-05T13:05:55Z</time>
      </trkpt>
      <trkpt lat="48.1463" lon="-3.60264">
        <ele>139.7</ele>
        <time>2023-04-05T13:05:56Z</time>
      </trkpt>
      <trkpt lat="48.14628" lon="-3.60263">
        <ele>139.7</ele>
        <time>2023-04-05T13:05:57Z</time>
      </trkpt>
      <trkpt lat="48.14625" lon="-3.60264">
        <ele>139.7</ele>
        <time>2023-04-05T13:05:58Z</time>
      </trkpt>
      <trkpt lat="48.14624" lon="-3.60264">
        <ele>139.7</ele>
        <time>2023-04-05T13:05:59Z</time>
      </trkpt>
      <trkpt lat="48.14621" lon="-3.60263">
        <ele>139.7</ele>
        <time>2023-04-05T13:06:00Z</time>
      </trkpt>
      <trkpt lat="48.14619" lon="-3.60263">
        <ele>139.7</ele>
        <time>2023-04-05T13:06:01Z</time>
      </trkpt>
      <trkpt lat="48.14616" lon="-3.60262">
        <ele>139.7</ele>
        <time>2023-04-05T13:06:02Z</time>
      </trkpt>
      <trkpt lat="48.14612" lon="-3.6026">
        <ele>139.7</ele>
        <time>2023-04-05T13:06:03Z</time>
      </trkpt>
      <trkpt lat="48.14609" lon="-3.60259">
        <ele>139.8</ele>
        <time>2023-04-05T13:06:04Z</time>
      </trkpt>
      <trkpt lat="48.14605" lon="-3.60257">
        <ele>139.8</ele>
        <time>2023-04-05T13:06:05Z</time>
      </trkpt>
      <trkpt lat="48.14601" lon="-3.60257">
        <ele>139.8</ele>
        <time>2023-04-05T13:06:06Z</time>
      </trkpt>
      <trkpt lat="48.14597" lon="-3.60259">
        <ele>139.8</ele>
        <time>2023-04-05T13:06:07Z</time>
      </trkpt>
      <trkpt lat="48.14592" lon="-3.60259">
        <ele>139.8</ele>
        <time>2023-04-05T13:06:08Z</time>
      </trkpt>
      <trkpt lat="48.14587" lon="-3.60258">
        <ele>139.8</ele>
        <time>2023-04-05T13:06:10Z</time>
      </trkpt>
      <trkpt lat="48.14583" lon="-3.60258">
        <ele>139.8</ele>
        <time>2023-04-05T13:06:11Z</time>
      </trkpt>
      <trkpt lat="48.14579" lon="-3.60258">
        <ele>139.8</ele>
        <time>2023-04-05T13:06:12Z</time>
      </trkpt>
      <trkpt lat="48.14571" lon="-3.60257">
        <ele>139.8</ele>
        <time>2023-04-05T13:06:13Z</time>
      </trkpt>
      <trkpt lat="48.14566" lon="-3.60257">
        <ele>139.9</ele>
        <time>2023-04-05T13:06:15Z</time>
      </trkpt>
      <trkpt lat="48.14562" lon="-3.60257">
        <ele>139.9</ele>
        <time>2023-04-05T13:06:16Z</time>
      </trkpt>
      <trkpt lat="48.14557" lon="-3.60257">
        <ele>139.9</ele>
        <time>2023-04-05T13:06:17Z</time>
      </trkpt>
      <trkpt lat="48.14553" lon="-3.60256">
        <ele>140</ele>
        <time>2023-04-05T13:06:18Z</time>
      </trkpt>
      <trkpt lat="48.14547" lon="-3.60257">
        <ele>140.1</ele>
        <time>2023-04-05T13:06:19Z</time>
      </trkpt>
      <trkpt lat="48.14542" lon="-3.60256">
        <ele>140.1</ele>
        <time>2023-04-05T13:06:20Z</time>
      </trkpt>
      <trkpt lat="48.14537" lon="-3.60255">
        <ele>140.1</ele>
        <time>2023-04-05T13:06:21Z</time>
      </trkpt>
      <trkpt lat="48.14532" lon="-3.60255">
        <ele>140.2</ele>
        <time>2023-04-05T13:06:22Z</time>
      </trkpt>
      <trkpt lat="48.14527" lon="-3.60255">
        <ele>140.2</ele>
        <time>2023-04-05T13:06:23Z</time>
      </trkpt>
      <trkpt lat="48.14523" lon="-3.60255">
        <ele>140.2</ele>
        <time>2023-04-05T13:06:24Z</time>
      </trkpt>
      <trkpt lat="48.14518" lon="-3.60255">
        <ele>140.3</ele>
        <time>2023-04-05T13:06:25Z</time>
      </trkpt>
      <trkpt lat="48.14513" lon="-3.60254">
        <ele>140.3</ele>
        <time>2023-04-05T13:06:26Z</time>
      </trkpt>
      <trkpt lat="48.14508" lon="-3.60254">
        <ele>140.4</ele>
        <time>2023-04-05T13:06:27Z</time>
      </trkpt>
      <trkpt lat="48.14504" lon="-3.60254">
        <ele>140.4</ele>
        <time>2023-04-05T13:06:28Z</time>
      </trkpt>
      <trkpt lat="48.14499" lon="-3.60253">
        <ele>140.5</ele>
        <time>2023-04-05T13:06:29Z</time>
      </trkpt>
      <trkpt lat="48.14494" lon="-3.60253">
        <ele>140.5</ele>
        <time>2023-04-05T13:06:30Z</time>
      </trkpt>
      <trkpt lat="48.14489" lon="-3.60253">
        <ele>140.6</ele>
        <time>2023-04-05T13:06:31Z</time>
      </trkpt>
      <trkpt lat="48.14485" lon="-3.60252">
        <ele>140.7</ele>
        <time>2023-04-05T13:06:32Z</time>
      </trkpt>
      <trkpt lat="48.1448" lon="-3.60252">
        <ele>140.7</ele>
        <time>2023-04-05T13:06:33Z</time>
      </trkpt>
      <trkpt lat="48.14475" lon="-3.60251">
        <ele>140.8</ele>
        <time>2023-04-05T13:06:34Z</time>
      </trkpt>
      <trkpt lat="48.1447" lon="-3.6025">
        <ele>140.9</ele>
        <time>2023-04-05T13:06:35Z</time>
      </trkpt>
      <trkpt lat="48.14466" lon="-3.6025">
        <ele>140.9</ele>
        <time>2023-04-05T13:06:36Z</time>
      </trkpt>
      <trkpt lat="48.14461" lon="-3.6025">
        <ele>141</ele>
        <time>2023-04-05T13:06:37Z</time>
      </trkpt>
      <trkpt lat="48.14456" lon="-3.60249">
        <ele>141</ele>
        <time>2023-04-05T13:06:38Z</time>
      </trkpt>
      <trkpt lat="48.14453" lon="-3.60249">
        <ele>141.1</ele>
        <time>2023-04-05T13:06:39Z</time>
      </trkpt>
      <trkpt lat="48.14448" lon="-3.6025">
        <ele>141.1</ele>
        <time>2023-04-05T13:06:40Z</time>
      </trkpt>
      <trkpt lat="48.14445" lon="-3.6025">
        <ele>141.2</ele>
        <time>2023-04-05T13:06:41Z</time>
      </trkpt>
      <trkpt lat="48.14441" lon="-3.60249">
        <ele>141.2</ele>
        <time>2023-04-05T13:06:42Z</time>
      </trkpt>
      <trkpt lat="48.14437" lon="-3.60248">
        <ele>141.3</ele>
        <time>2023-04-05T13:06:43Z</time>
      </trkpt>
      <trkpt lat="48.14434" lon="-3.60248">
        <ele>141.3</ele>
        <time>2023-04-05T13:06:44Z</time>
      </trkpt>
      <trkpt lat="48.14429" lon="-3.60248">
        <ele>141.4</ele>
        <time>2023-04-05T13:06:45Z</time>
      </trkpt>
      <trkpt lat="48.14424" lon="-3.60248">
        <ele>141.4</ele>
        <time>2023-04-05T13:06:46Z</time>
      </trkpt>
      <trkpt lat="48.14419" lon="-3.60247">
        <ele>141.5</ele>
        <time>2023-04-05T13:06:47Z</time>
      </trkpt>
      <trkpt lat="48.14414" lon="-3.60245">
        <ele>141.5</ele>
        <time>2023-04-05T13:06:48Z</time>
      </trkpt>
      <trkpt lat="48.14409" lon="-3.60243">
        <ele>141.6</ele>
        <time>2023-04-05T13:06:49Z</time>
      </trkpt>
      <trkpt lat="48.14405" lon="-3.60242">
        <ele>141.6</ele>
        <time>2023-04-05T13:06:50Z</time>
      </trkpt>
      <trkpt lat="48.144" lon="-3.6024">
        <ele>141.7</ele>
        <time>2023-04-05T13:06:51Z</time>
      </trkpt>
      <trkpt lat="48.14394" lon="-3.60238">
        <ele>141.7</ele>
        <time>2023-04-05T13:06:52Z</time>
      </trkpt>
      <trkpt lat="48.14392" lon="-3.60237">
        <ele>141.7</ele>
        <time>2023-04-05T13:06:53Z</time>
      </trkpt>
      <trkpt lat="48.14386" lon="-3.60236">
        <ele>141.7</ele>
        <time>2023-04-05T13:06:54Z</time>
      </trkpt>
      <trkpt lat="48.14382" lon="-3.60235">
        <ele>141.8</ele>
        <time>2023-04-05T13:06:55Z</time>
      </trkpt>
      <trkpt lat="48.14378" lon="-3.60234">
        <ele>141.8</ele>
        <time>2023-04-05T13:06:56Z</time>
      </trkpt>
      <trkpt lat="48.14373" lon="-3.60233">
        <ele>141.8</ele>
        <time>2023-04-05T13:06:57Z</time>
      </trkpt>
      <trkpt lat="48.14368" lon="-3.60231">
        <ele>141.8</ele>
        <time>2023-04-05T13:06:58Z</time>
      </trkpt>
      <trkpt lat="48.14363" lon="-3.6023">
        <ele>141.8</ele>
        <time>2023-04-05T13:06:59Z</time>
      </trkpt>
      <trkpt lat="48.14359" lon="-3.60229">
        <ele>141.8</ele>
        <time>2023-04-05T13:07:00Z</time>
      </trkpt>
      <trkpt lat="48.14354" lon="-3.60227">
        <ele>141.8</ele>
        <time>2023-04-05T13:07:01Z</time>
      </trkpt>
      <trkpt lat="48.14348" lon="-3.60226">
        <ele>141.8</ele>
        <time>2023-04-05T13:07:02Z</time>
      </trkpt>
      <trkpt lat="48.14344" lon="-3.60225">
        <ele>141.7</ele>
        <time>2023-04-05T13:07:03Z</time>
      </trkpt>
      <trkpt lat="48.14339" lon="-3.60225">
        <ele>141.7</ele>
        <time>2023-04-05T13:07:04Z</time>
      </trkpt>
      <trkpt lat="48.14334" lon="-3.60224">
        <ele>141.7</ele>
        <time>2023-04-05T13:07:05Z</time>
      </trkpt>
      <trkpt lat="48.14328" lon="-3.60223">
        <ele>141.6</ele>
        <time>2023-04-05T13:07:06Z</time>
      </trkpt>
      <trkpt lat="48.14323" lon="-3.60222">
        <ele>141.6</ele>
        <time>2023-04-05T13:07:07Z</time>
      </trkpt>
      <trkpt lat="48.14318" lon="-3.60222">
        <ele>141.6</ele>
        <time>2023-04-05T13:07:08Z</time>
      </trkpt>
      <trkpt lat="48.14313" lon="-3.60222">
        <ele>141.5</ele>
        <time>2023-04-05T13:07:09Z</time>
      </trkpt>
      <trkpt lat="48.14308" lon="-3.60221">
        <ele>141.5</ele>
        <time>2023-04-05T13:07:10Z</time>
      </trkpt>
      <trkpt lat="48.14302" lon="-3.60221">
        <ele>141.5</ele>
        <time>2023-04-05T13:07:11Z</time>
      </trkpt>
      <trkpt lat="48.14297" lon="-3.6022">
        <ele>141.5</ele>
        <time>2023-04-05T13:07:12Z</time>
      </trkpt>
      <trkpt lat="48.14292" lon="-3.6022">
        <ele>141.5</ele>
        <time>2023-04-05T13:07:13Z</time>
      </trkpt>
      <trkpt lat="48.14287" lon="-3.60219">
        <ele>141.5</ele>
        <time>2023-04-05T13:07:14Z</time>
      </trkpt>
      <trkpt lat="48.14282" lon="-3.60219">
        <ele>141.5</ele>
        <time>2023-04-05T13:07:15Z</time>
      </trkpt>
      <trkpt lat="48.14278" lon="-3.60219">
        <ele>141.5</ele>
        <time>2023-04-05T13:07:16Z</time>
      </trkpt>
      <trkpt lat="48.14273" lon="-3.60218">
        <ele>141.6</ele>
        <time>2023-04-05T13:07:17Z</time>
      </trkpt>
      <trkpt lat="48.1427" lon="-3.60219">
        <ele>141.6</ele>
        <time>2023-04-05T13:07:18Z</time>
      </trkpt>
      <trkpt lat="48.14265" lon="-3.60218">
        <ele>141.6</ele>
        <time>2023-04-05T13:07:19Z</time>
      </trkpt>
      <trkpt lat="48.14261" lon="-3.60217">
        <ele>141.6</ele>
        <time>2023-04-05T13:07:20Z</time>
      </trkpt>
      <trkpt lat="48.14258" lon="-3.60216">
        <ele>141.6</ele>
        <time>2023-04-05T13:07:21Z</time>
      </trkpt>
      <trkpt lat="48.14253" lon="-3.60216">
        <ele>141.6</ele>
        <time>2023-04-05T13:07:22Z</time>
      </trkpt>
      <trkpt lat="48.1425" lon="-3.60214">
        <ele>141.5</ele>
        <time>2023-04-05T13:07:23Z</time>
      </trkpt>
      <trkpt lat="48.14243" lon="-3.60213">
        <ele>141.6</ele>
        <time>2023-04-05T13:07:24Z</time>
      </trkpt>
      <trkpt lat="48.1424" lon="-3.60213">
        <ele>141.6</ele>
        <time>2023-04-05T13:07:25Z</time>
      </trkpt>
      <trkpt lat="48.14234" lon="-3.60211">
        <ele>141.7</ele>
        <time>2023-04-05T13:07:26Z</time>
      </trkpt>
      <trkpt lat="48.1423" lon="-3.6021">
        <ele>141.8</ele>
        <time>2023-04-05T13:07:27Z</time>
      </trkpt>
      <trkpt lat="48.14225" lon="-3.60208">
        <ele>141.9</ele>
        <time>2023-04-05T13:07:28Z</time>
      </trkpt>
      <trkpt lat="48.14221" lon="-3.60206">
        <ele>141.9</ele>
        <time>2023-04-05T13:07:29Z</time>
      </trkpt>
      <trkpt lat="48.14217" lon="-3.60203">
        <ele>141.9</ele>
        <time>2023-04-05T13:07:31Z</time>
      </trkpt>
      <trkpt lat="48.14212" lon="-3.60202">
        <ele>142</ele>
        <time>2023-04-05T13:07:32Z</time>
      </trkpt>
      <trkpt lat="48.14207" lon="-3.60201">
        <ele>142</ele>
        <time>2023-04-05T13:07:33Z</time>
      </trkpt>
      <trkpt lat="48.14203" lon="-3.602">
        <ele>142</ele>
        <time>2023-04-05T13:07:34Z</time>
      </trkpt>
      <trkpt lat="48.14194" lon="-3.60199">
        <ele>142</ele>
        <time>2023-04-05T13:07:35Z</time>
      </trkpt>
      <trkpt lat="48.14187" lon="-3.602">
        <ele>142</ele>
        <time>2023-04-05T13:07:37Z</time>
      </trkpt>
      <trkpt lat="48.14183" lon="-3.602">
        <ele>142</ele>
        <time>2023-04-05T13:07:38Z</time>
      </trkpt>
      <trkpt lat="48.14178" lon="-3.602">
        <ele>142</ele>
        <time>2023-04-05T13:07:39Z</time>
      </trkpt>
      <trkpt lat="48.14171" lon="-3.602">
        <ele>142</ele>
        <time>2023-04-05T13:07:41Z</time>
      </trkpt>
      <trkpt lat="48.14165" lon="-3.60199">
        <ele>142</ele>
        <time>2023-04-05T13:07:43Z</time>
      </trkpt>
      <trkpt lat="48.14161" lon="-3.60198">
        <ele>141.9</ele>
        <time>2023-04-05T13:07:44Z</time>
      </trkpt>
      <trkpt lat="48.14154" lon="-3.60197">
        <ele>141.9</ele>
        <time>2023-04-05T13:07:45Z</time>
      </trkpt>
      <trkpt lat="48.14149" lon="-3.60196">
        <ele>141.9</ele>
        <time>2023-04-05T13:07:46Z</time>
      </trkpt>
      <trkpt lat="48.14145" lon="-3.60196">
        <ele>141.9</ele>
        <time>2023-04-05T13:07:47Z</time>
      </trkpt>
      <trkpt lat="48.1414" lon="-3.60195">
        <ele>141.9</ele>
        <time>2023-04-05T13:07:49Z</time>
      </trkpt>
      <trkpt lat="48.14136" lon="-3.60194">
        <ele>141.8</ele>
        <time>2023-04-05T13:07:50Z</time>
      </trkpt>
      <trkpt lat="48.14131" lon="-3.60194">
        <ele>141.8</ele>
        <time>2023-04-05T13:07:51Z</time>
      </trkpt>
      <trkpt lat="48.14127" lon="-3.60193">
        <ele>141.8</ele>
        <time>2023-04-05T13:07:52Z</time>
      </trkpt>
      <trkpt lat="48.14123" lon="-3.60192">
        <ele>141.8</ele>
        <time>2023-04-05T13:07:53Z</time>
      </trkpt>
      <trkpt lat="48.14119" lon="-3.60192">
        <ele>141.7</ele>
        <time>2023-04-05T13:07:54Z</time>
      </trkpt>
      <trkpt lat="48.14111" lon="-3.60191">
        <ele>141.7</ele>
        <time>2023-04-05T13:07:55Z</time>
      </trkpt>
      <trkpt lat="48.14106" lon="-3.60192">
        <ele>141.6</ele>
        <time>2023-04-05T13:07:57Z</time>
      </trkpt>
      <trkpt lat="48.14102" lon="-3.60192">
        <ele>141.5</ele>
        <time>2023-04-05T13:07:58Z</time>
      </trkpt>
      <trkpt lat="48.14098" lon="-3.60194">
        <ele>141.3</ele>
        <time>2023-04-05T13:07:59Z</time>
      </trkpt>
      <trkpt lat="48.14095" lon="-3.60197">
        <ele>141.2</ele>
        <time>2023-04-05T13:08:00Z</time>
      </trkpt>
      <trkpt lat="48.14092" lon="-3.60202">
        <ele>141.3</ele>
        <time>2023-04-05T13:08:01Z</time>
        <extensions>
          <visugpx:TrkExtension xmlns:visugpx="https://www.visugpx.com/editgpx/">
            <visugpx:node>4</visugpx:node>
            </visugpx:TrkExtension>
        </extensions>
      </trkpt>
      <trkpt lat="48.14081" lon="-3.60215">
        <ele>141.5</ele>
        <time>2023-04-05T13:13:30Z</time>
      </trkpt>
      <trkpt lat="48.14076" lon="-3.60215">
        <ele>141.4</ele>
        <time>2023-04-05T13:13:31Z</time>
      </trkpt>
      <trkpt lat="48.14071" lon="-3.60216">
        <ele>141.4</ele>
        <time>2023-04-05T13:13:32Z</time>
      </trkpt>
      <trkpt lat="48.14066" lon="-3.60215">
        <ele>141.4</ele>
        <time>2023-04-05T13:13:33Z</time>
      </trkpt>
      <trkpt lat="48.14061" lon="-3.60214">
        <ele>141.3</ele>
        <time>2023-04-05T13:13:34Z</time>
      </trkpt>
      <trkpt lat="48.14056" lon="-3.60214">
        <ele>141.3</ele>
        <time>2023-04-05T13:13:35Z</time>
      </trkpt>
      <trkpt lat="48.14051" lon="-3.60215">
        <ele>141.3</ele>
        <time>2023-04-05T13:13:36Z</time>
      </trkpt>
      <trkpt lat="48.14046" lon="-3.60215">
        <ele>141.3</ele>
        <time>2023-04-05T13:13:37Z</time>
      </trkpt>
      <trkpt lat="48.14042" lon="-3.60217">
        <ele>141.3</ele>
        <time>2023-04-05T13:13:38Z</time>
      </trkpt>
      <trkpt lat="48.14037" lon="-3.60219">
        <ele>141.3</ele>
        <time>2023-04-05T13:13:39Z</time>
      </trkpt>
      <trkpt lat="48.14032" lon="-3.6022">
        <ele>141.3</ele>
        <time>2023-04-05T13:13:40Z</time>
      </trkpt>
      <trkpt lat="48.14027" lon="-3.60221">
        <ele>141.3</ele>
        <time>2023-04-05T13:13:41Z</time>
      </trkpt>
      <trkpt lat="48.14023" lon="-3.60218">
        <ele>141.3</ele>
        <time>2023-04-05T13:13:42Z</time>
      </trkpt>
      <trkpt lat="48.14018" lon="-3.60223">
        <ele>141.3</ele>
        <time>2023-04-05T13:13:43Z</time>
      </trkpt>
      <trkpt lat="48.14009" lon="-3.60226">
        <ele>141.2</ele>
        <time>2023-04-05T13:13:45Z</time>
      </trkpt>
      <trkpt lat="48.14006" lon="-3.60227">
        <ele>141.2</ele>
        <time>2023-04-05T13:13:46Z</time>
      </trkpt>
      <trkpt lat="48.14003" lon="-3.60228">
        <ele>141.2</ele>
        <time>2023-04-05T13:13:47Z</time>
      </trkpt>
      <trkpt lat="48.13998" lon="-3.60227">
        <ele>141.2</ele>
        <time>2023-04-05T13:13:49Z</time>
      </trkpt>
      <trkpt lat="48.13996" lon="-3.60226">
        <ele>141.1</ele>
        <time>2023-04-05T13:13:50Z</time>
      </trkpt>
      <trkpt lat="48.13995" lon="-3.60225">
        <ele>141.1</ele>
        <time>2023-04-05T13:13:51Z</time>
      </trkpt>
      <trkpt lat="48.13993" lon="-3.60226">
        <ele>141.1</ele>
        <time>2023-04-05T13:13:52Z</time>
      </trkpt>
      <trkpt lat="48.13992" lon="-3.60228">
        <ele>141.1</ele>
        <time>2023-04-05T13:13:53Z</time>
      </trkpt>
      <trkpt lat="48.1399" lon="-3.6023">
        <ele>141.1</ele>
        <time>2023-04-05T13:13:54Z</time>
      </trkpt>
      <trkpt lat="48.13989" lon="-3.60231">
        <ele>141.1</ele>
        <time>2023-04-05T13:13:55Z</time>
      </trkpt>
      <trkpt lat="48.13988" lon="-3.60232">
        <ele>141</ele>
        <time>2023-04-05T13:13:56Z</time>
      </trkpt>
      <trkpt lat="48.13985" lon="-3.60234">
        <ele>141</ele>
        <time>2023-04-05T13:13:57Z</time>
      </trkpt>
      <trkpt lat="48.13983" lon="-3.60234">
        <ele>141</ele>
        <time>2023-04-05T13:13:58Z</time>
      </trkpt>
      <trkpt lat="48.1398" lon="-3.60235">
        <ele>140.9</ele>
        <time>2023-04-05T13:13:59Z</time>
      </trkpt>
      <trkpt lat="48.13979" lon="-3.60236">
        <ele>140.9</ele>
        <time>2023-04-05T13:14:00Z</time>
      </trkpt>
      <trkpt lat="48.13978" lon="-3.60237">
        <ele>140.9</ele>
        <time>2023-04-05T13:14:01Z</time>
      </trkpt>
      <trkpt lat="48.13976" lon="-3.60237">
        <ele>140.9</ele>
        <time>2023-04-05T13:14:02Z</time>
      </trkpt>
      <trkpt lat="48.13976" lon="-3.60237">
        <ele>140.9</ele>
        <time>2023-04-05T13:14:03Z</time>
      </trkpt>
      <trkpt lat="48.13976" lon="-3.60237">
        <ele>140.9</ele>
        <time>2023-04-05T13:14:04Z</time>
      </trkpt>
      <trkpt lat="48.13976" lon="-3.60238">
        <ele>140.9</ele>
        <time>2023-04-05T13:14:05Z</time>
      </trkpt>
      <trkpt lat="48.13976" lon="-3.60238">
        <ele>140.9</ele>
        <time>2023-04-05T13:14:06Z</time>
      </trkpt>
      <trkpt lat="48.13976" lon="-3.60238">
        <ele>140.9</ele>
        <time>2023-04-05T13:14:07Z</time>
      </trkpt>
      <trkpt lat="48.13976" lon="-3.60238">
        <ele>140.8</ele>
        <time>2023-04-05T13:14:08Z</time>
      </trkpt>
      <trkpt lat="48.13976" lon="-3.60238">
        <ele>140.8</ele>
        <time>2023-04-05T13:14:09Z</time>
      </trkpt>
      <trkpt lat="48.13976" lon="-3.60238">
        <ele>140.8</ele>
        <time>2023-04-05T13:14:10Z</time>
      </trkpt>
      <trkpt lat="48.13976" lon="-3.60238">
        <ele>140.8</ele>
        <time>2023-04-05T13:14:11Z</time>
      </trkpt>
      <trkpt lat="48.13976" lon="-3.60238">
        <ele>140.8</ele>
        <time>2023-04-05T13:14:12Z</time>
      </trkpt>
      <trkpt lat="48.13975" lon="-3.60239">
        <ele>140.8</ele>
        <time>2023-04-05T13:14:13Z</time>
      </trkpt>
      <trkpt lat="48.13975" lon="-3.60239">
        <ele>140.8</ele>
        <time>2023-04-05T13:14:14Z</time>
      </trkpt>
      <trkpt lat="48.13975" lon="-3.60239">
        <ele>140.8</ele>
        <time>2023-04-05T13:14:15Z</time>
      </trkpt>
      <trkpt lat="48.13975" lon="-3.60239">
        <ele>140.8</ele>
        <time>2023-04-05T13:14:16Z</time>
      </trkpt>
      <trkpt lat="48.13975" lon="-3.60239">
        <ele>140.8</ele>
        <time>2023-04-05T13:14:17Z</time>
      </trkpt>
      <trkpt lat="48.13975" lon="-3.60239">
        <ele>140.8</ele>
        <time>2023-04-05T13:14:18Z</time>
      </trkpt>
      <trkpt lat="48.13975" lon="-3.60239">
        <ele>140.8</ele>
        <time>2023-04-05T13:14:19Z</time>
      </trkpt>
      <trkpt lat="48.13975" lon="-3.60239">
        <ele>140.8</ele>
        <time>2023-04-05T13:14:45Z</time>
      </trkpt>
      <trkpt lat="48.13975" lon="-3.6024">
        <ele>140.8</ele>
        <time>2023-04-05T13:14:46Z</time>
      </trkpt>
      <trkpt lat="48.13975" lon="-3.6024">
        <ele>140.8</ele>
        <time>2023-04-05T13:14:47Z</time>
      </trkpt>
      <trkpt lat="48.13975" lon="-3.6024">
        <ele>140.8</ele>
        <time>2023-04-05T13:14:48Z</time>
      </trkpt>
      <trkpt lat="48.13974" lon="-3.6024">
        <ele>140.8</ele>
        <time>2023-04-05T13:14:49Z</time>
      </trkpt>
      <trkpt lat="48.13974" lon="-3.6024">
        <ele>140.8</ele>
        <time>2023-04-05T13:14:50Z</time>
      </trkpt>
      <trkpt lat="48.13974" lon="-3.6024">
        <ele>140.8</ele>
        <time>2023-04-05T13:14:51Z</time>
      </trkpt>
      <trkpt lat="48.13974" lon="-3.6024">
        <ele>140.8</ele>
        <time>2023-04-05T13:14:52Z</time>
      </trkpt>
      <trkpt lat="48.13974" lon="-3.6024">
        <ele>140.8</ele>
        <time>2023-04-05T13:14:53Z</time>
      </trkpt>
      <trkpt lat="48.13974" lon="-3.60241">
        <ele>140.8</ele>
        <time>2023-04-05T13:14:54Z</time>
      </trkpt>
      <trkpt lat="48.13974" lon="-3.60241">
        <ele>140.8</ele>
        <time>2023-04-05T13:14:55Z</time>
      </trkpt>
      <trkpt lat="48.13974" lon="-3.60241">
        <ele>140.8</ele>
        <time>2023-04-05T13:14:56Z</time>
      </trkpt>
      <trkpt lat="48.13974" lon="-3.60241">
        <ele>140.8</ele>
        <time>2023-04-05T13:14:57Z</time>
      </trkpt>
      <trkpt lat="48.13974" lon="-3.60241">
        <ele>140.8</ele>
        <time>2023-04-05T13:31:16Z</time>
      </trkpt>
      <trkpt lat="48.13974" lon="-3.60241">
        <ele>140.8</ele>
        <time>2023-04-05T13:31:17Z</time>
      </trkpt>
      <trkpt lat="48.13973" lon="-3.60241">
        <ele>140.8</ele>
        <time>2023-04-05T13:31:18Z</time>
      </trkpt>
      <trkpt lat="48.13973" lon="-3.60241">
        <ele>140.8</ele>
        <time>2023-04-05T13:31:19Z</time>
      </trkpt>
      <trkpt lat="48.1397" lon="-3.60242">
        <ele>140.7</ele>
        <time>2023-04-05T13:31:20Z</time>
      </trkpt>
      <trkpt lat="48.13968" lon="-3.60244">
        <ele>140.7</ele>
        <time>2023-04-05T13:31:21Z</time>
      </trkpt>
      <trkpt lat="48.13959" lon="-3.60251">
        <ele>140.6</ele>
        <time>2023-04-05T13:31:23Z</time>
      </trkpt>
      <trkpt lat="48.13954" lon="-3.60254">
        <ele>140.5</ele>
        <time>2023-04-05T13:31:25Z</time>
      </trkpt>
      <trkpt lat="48.13951" lon="-3.60257">
        <ele>140.4</ele>
        <time>2023-04-05T13:31:26Z</time>
      </trkpt>
      <trkpt lat="48.13947" lon="-3.6026">
        <ele>140.4</ele>
        <time>2023-04-05T13:31:27Z</time>
      </trkpt>
      <trkpt lat="48.13943" lon="-3.60263">
        <ele>140.3</ele>
        <time>2023-04-05T13:31:28Z</time>
      </trkpt>
      <trkpt lat="48.13939" lon="-3.60268">
        <ele>140.3</ele>
        <time>2023-04-05T13:31:29Z</time>
      </trkpt>
      <trkpt lat="48.13936" lon="-3.60272">
        <ele>140.3</ele>
        <time>2023-04-05T13:31:30Z</time>
      </trkpt>
      <trkpt lat="48.13934" lon="-3.60276">
        <ele>140.2</ele>
        <time>2023-04-05T13:31:31Z</time>
      </trkpt>
      <trkpt lat="48.1393" lon="-3.60279">
        <ele>140.2</ele>
        <time>2023-04-05T13:31:32Z</time>
      </trkpt>
      <trkpt lat="48.13925" lon="-3.60283">
        <ele>140.1</ele>
        <time>2023-04-05T13:31:33Z</time>
      </trkpt>
      <trkpt lat="48.13921" lon="-3.60287">
        <ele>140.1</ele>
        <time>2023-04-05T13:31:34Z</time>
      </trkpt>
      <trkpt lat="48.13915" lon="-3.60292">
        <ele>139.9</ele>
        <time>2023-04-05T13:31:35Z</time>
      </trkpt>
      <trkpt lat="48.13911" lon="-3.60296">
        <ele>139.9</ele>
        <time>2023-04-05T13:31:36Z</time>
      </trkpt>
      <trkpt lat="48.13907" lon="-3.603">
        <ele>139.8</ele>
        <time>2023-04-05T13:31:37Z</time>
      </trkpt>
      <trkpt lat="48.13902" lon="-3.60304">
        <ele>139.7</ele>
        <time>2023-04-05T13:31:38Z</time>
      </trkpt>
      <trkpt lat="48.13897" lon="-3.6031">
        <ele>139.6</ele>
        <time>2023-04-05T13:31:39Z</time>
      </trkpt>
      <trkpt lat="48.13893" lon="-3.60315">
        <ele>139.5</ele>
        <time>2023-04-05T13:31:40Z</time>
      </trkpt>
      <trkpt lat="48.13889" lon="-3.6032">
        <ele>139.4</ele>
        <time>2023-04-05T13:31:41Z</time>
      </trkpt>
      <trkpt lat="48.13885" lon="-3.60325">
        <ele>139.2</ele>
        <time>2023-04-05T13:31:42Z</time>
      </trkpt>
      <trkpt lat="48.1388" lon="-3.60329">
        <ele>139.1</ele>
        <time>2023-04-05T13:31:43Z</time>
      </trkpt>
      <trkpt lat="48.13876" lon="-3.60334">
        <ele>139</ele>
        <time>2023-04-05T13:31:44Z</time>
      </trkpt>
      <trkpt lat="48.13872" lon="-3.60339">
        <ele>138.9</ele>
        <time>2023-04-05T13:31:45Z</time>
      </trkpt>
      <trkpt lat="48.13868" lon="-3.60345">
        <ele>138.8</ele>
        <time>2023-04-05T13:31:46Z</time>
      </trkpt>
      <trkpt lat="48.13864" lon="-3.60351">
        <ele>138.7</ele>
        <time>2023-04-05T13:31:47Z</time>
      </trkpt>
      <trkpt lat="48.1386" lon="-3.60355">
        <ele>138.6</ele>
        <time>2023-04-05T13:31:48Z</time>
      </trkpt>
      <trkpt lat="48.13856" lon="-3.6036">
        <ele>138.5</ele>
        <time>2023-04-05T13:31:49Z</time>
      </trkpt>
      <trkpt lat="48.13852" lon="-3.60364">
        <ele>138.4</ele>
        <time>2023-04-05T13:31:50Z</time>
      </trkpt>
      <trkpt lat="48.13847" lon="-3.60367">
        <ele>138.3</ele>
        <time>2023-04-05T13:31:51Z</time>
      </trkpt>
      <trkpt lat="48.13843" lon="-3.60371">
        <ele>138.2</ele>
        <time>2023-04-05T13:31:52Z</time>
      </trkpt>
      <trkpt lat="48.13839" lon="-3.60376">
        <ele>138</ele>
        <time>2023-04-05T13:31:53Z</time>
      </trkpt>
      <trkpt lat="48.13835" lon="-3.60382">
        <ele>137.9</ele>
        <time>2023-04-05T13:31:54Z</time>
      </trkpt>
      <trkpt lat="48.13831" lon="-3.60387">
        <ele>137.7</ele>
        <time>2023-04-05T13:31:55Z</time>
      </trkpt>
      <trkpt lat="48.13826" lon="-3.60391">
        <ele>137.6</ele>
        <time>2023-04-05T13:31:56Z</time>
      </trkpt>
      <trkpt lat="48.13822" lon="-3.60396">
        <ele>137.4</ele>
        <time>2023-04-05T13:31:57Z</time>
      </trkpt>
      <trkpt lat="48.13817" lon="-3.60401">
        <ele>137.2</ele>
        <time>2023-04-05T13:31:58Z</time>
      </trkpt>
      <trkpt lat="48.13812" lon="-3.60405">
        <ele>137.1</ele>
        <time>2023-04-05T13:31:59Z</time>
      </trkpt>
      <trkpt lat="48.13808" lon="-3.6041">
        <ele>136.9</ele>
        <time>2023-04-05T13:32:00Z</time>
      </trkpt>
      <trkpt lat="48.13803" lon="-3.60416">
        <ele>136.8</ele>
        <time>2023-04-05T13:32:01Z</time>
      </trkpt>
      <trkpt lat="48.13799" lon="-3.60421">
        <ele>136.7</ele>
        <time>2023-04-05T13:32:02Z</time>
      </trkpt>
      <trkpt lat="48.13794" lon="-3.60426">
        <ele>136.5</ele>
        <time>2023-04-05T13:32:03Z</time>
      </trkpt>
      <trkpt lat="48.13789" lon="-3.60433">
        <ele>136.4</ele>
        <time>2023-04-05T13:32:04Z</time>
      </trkpt>
      <trkpt lat="48.13785" lon="-3.60438">
        <ele>136.3</ele>
        <time>2023-04-05T13:32:05Z</time>
      </trkpt>
      <trkpt lat="48.1378" lon="-3.60442">
        <ele>136.1</ele>
        <time>2023-04-05T13:32:06Z</time>
      </trkpt>
      <trkpt lat="48.13775" lon="-3.60446">
        <ele>136</ele>
        <time>2023-04-05T13:32:07Z</time>
      </trkpt>
      <trkpt lat="48.1377" lon="-3.60451">
        <ele>135.8</ele>
        <time>2023-04-05T13:32:08Z</time>
      </trkpt>
      <trkpt lat="48.13766" lon="-3.60456">
        <ele>135.7</ele>
        <time>2023-04-05T13:32:09Z</time>
      </trkpt>
      <trkpt lat="48.13761" lon="-3.60461">
        <ele>135.5</ele>
        <time>2023-04-05T13:32:10Z</time>
      </trkpt>
      <trkpt lat="48.13756" lon="-3.60466">
        <ele>135.3</ele>
        <time>2023-04-05T13:32:11Z</time>
      </trkpt>
      <trkpt lat="48.13751" lon="-3.60471">
        <ele>135.2</ele>
        <time>2023-04-05T13:32:12Z</time>
      </trkpt>
      <trkpt lat="48.13746" lon="-3.60475">
        <ele>135.1</ele>
        <time>2023-04-05T13:32:13Z</time>
      </trkpt>
      <trkpt lat="48.13741" lon="-3.60482">
        <ele>134.9</ele>
        <time>2023-04-05T13:32:14Z</time>
      </trkpt>
      <trkpt lat="48.13736" lon="-3.60488">
        <ele>134.8</ele>
        <time>2023-04-05T13:32:15Z</time>
      </trkpt>
      <trkpt lat="48.13731" lon="-3.60493">
        <ele>134.7</ele>
        <time>2023-04-05T13:32:16Z</time>
      </trkpt>
      <trkpt lat="48.13726" lon="-3.60499">
        <ele>134.5</ele>
        <time>2023-04-05T13:32:17Z</time>
      </trkpt>
      <trkpt lat="48.13721" lon="-3.60504">
        <ele>134.4</ele>
        <time>2023-04-05T13:32:18Z</time>
      </trkpt>
      <trkpt lat="48.13717" lon="-3.60509">
        <ele>134.3</ele>
        <time>2023-04-05T13:32:19Z</time>
      </trkpt>
      <trkpt lat="48.13713" lon="-3.60515">
        <ele>134.2</ele>
        <time>2023-04-05T13:32:20Z</time>
      </trkpt>
      <trkpt lat="48.13708" lon="-3.6052">
        <ele>134.1</ele>
        <time>2023-04-05T13:32:21Z</time>
      </trkpt>
      <trkpt lat="48.13704" lon="-3.60525">
        <ele>134</ele>
        <time>2023-04-05T13:32:22Z</time>
      </trkpt>
      <trkpt lat="48.13699" lon="-3.6053">
        <ele>133.9</ele>
        <time>2023-04-05T13:32:23Z</time>
      </trkpt>
      <trkpt lat="48.13695" lon="-3.60535">
        <ele>133.8</ele>
        <time>2023-04-05T13:32:24Z</time>
      </trkpt>
      <trkpt lat="48.13691" lon="-3.60539">
        <ele>133.8</ele>
        <time>2023-04-05T13:32:25Z</time>
      </trkpt>
      <trkpt lat="48.13686" lon="-3.60544">
        <ele>133.7</ele>
        <time>2023-04-05T13:32:26Z</time>
      </trkpt>
      <trkpt lat="48.13681" lon="-3.6055">
        <ele>133.6</ele>
        <time>2023-04-05T13:32:27Z</time>
      </trkpt>
      <trkpt lat="48.13676" lon="-3.60555">
        <ele>133.5</ele>
        <time>2023-04-05T13:32:28Z</time>
      </trkpt>
      <trkpt lat="48.13672" lon="-3.60561">
        <ele>133.5</ele>
        <time>2023-04-05T13:32:29Z</time>
      </trkpt>
      <trkpt lat="48.13668" lon="-3.60567">
        <ele>133.4</ele>
        <time>2023-04-05T13:32:30Z</time>
      </trkpt>
      <trkpt lat="48.13663" lon="-3.60571">
        <ele>133.4</ele>
        <time>2023-04-05T13:32:31Z</time>
      </trkpt>
      <trkpt lat="48.13659" lon="-3.60577">
        <ele>133.3</ele>
        <time>2023-04-05T13:32:32Z</time>
      </trkpt>
      <trkpt lat="48.13654" lon="-3.60582">
        <ele>133.2</ele>
        <time>2023-04-05T13:32:33Z</time>
      </trkpt>
      <trkpt lat="48.1365" lon="-3.60586">
        <ele>133.2</ele>
        <time>2023-04-05T13:32:34Z</time>
      </trkpt>
      <trkpt lat="48.13645" lon="-3.6059">
        <ele>133.1</ele>
        <time>2023-04-05T13:32:35Z</time>
      </trkpt>
      <trkpt lat="48.13641" lon="-3.60595">
        <ele>133.2</ele>
        <time>2023-04-05T13:32:36Z</time>
      </trkpt>
      <trkpt lat="48.13636" lon="-3.606">
        <ele>133.2</ele>
        <time>2023-04-05T13:32:37Z</time>
      </trkpt>
      <trkpt lat="48.13632" lon="-3.60605">
        <ele>133.3</ele>
        <time>2023-04-05T13:32:38Z</time>
      </trkpt>
      <trkpt lat="48.13627" lon="-3.60609">
        <ele>133.4</ele>
        <time>2023-04-05T13:32:39Z</time>
      </trkpt>
      <trkpt lat="48.13622" lon="-3.60613">
        <ele>133.4</ele>
        <time>2023-04-05T13:32:40Z</time>
      </trkpt>
      <trkpt lat="48.13618" lon="-3.60615">
        <ele>133.5</ele>
        <time>2023-04-05T13:32:41Z</time>
      </trkpt>
      <trkpt lat="48.13615" lon="-3.60617">
        <ele>133.5</ele>
        <time>2023-04-05T13:32:42Z</time>
      </trkpt>
      <trkpt lat="48.13611" lon="-3.6062">
        <ele>133.6</ele>
        <time>2023-04-05T13:32:43Z</time>
      </trkpt>
      <trkpt lat="48.13606" lon="-3.60623">
        <ele>133.6</ele>
        <time>2023-04-05T13:32:44Z</time>
      </trkpt>
      <trkpt lat="48.13603" lon="-3.60626">
        <ele>133.7</ele>
        <time>2023-04-05T13:32:45Z</time>
      </trkpt>
      <trkpt lat="48.13597" lon="-3.60631">
        <ele>133.7</ele>
        <time>2023-04-05T13:32:46Z</time>
      </trkpt>
      <trkpt lat="48.13591" lon="-3.60635">
        <ele>133.8</ele>
        <time>2023-04-05T13:32:47Z</time>
      </trkpt>
      <trkpt lat="48.13586" lon="-3.60638">
        <ele>133.9</ele>
        <time>2023-04-05T13:32:48Z</time>
      </trkpt>
      <trkpt lat="48.13581" lon="-3.60641">
        <ele>134</ele>
        <time>2023-04-05T13:32:49Z</time>
      </trkpt>
      <trkpt lat="48.13577" lon="-3.60644">
        <ele>134.1</ele>
        <time>2023-04-05T13:32:50Z</time>
      </trkpt>
      <trkpt lat="48.13572" lon="-3.60646">
        <ele>134.1</ele>
        <time>2023-04-05T13:32:51Z</time>
      </trkpt>
      <trkpt lat="48.13567" lon="-3.60649">
        <ele>134.2</ele>
        <time>2023-04-05T13:32:52Z</time>
      </trkpt>
      <trkpt lat="48.13562" lon="-3.60652">
        <ele>134.2</ele>
        <time>2023-04-05T13:32:53Z</time>
      </trkpt>
      <trkpt lat="48.13558" lon="-3.60654">
        <ele>134.2</ele>
        <time>2023-04-05T13:32:54Z</time>
      </trkpt>
      <trkpt lat="48.13553" lon="-3.60658">
        <ele>134.2</ele>
        <time>2023-04-05T13:32:55Z</time>
      </trkpt>
      <trkpt lat="48.1355" lon="-3.60661">
        <ele>134.3</ele>
        <time>2023-04-05T13:32:56Z</time>
      </trkpt>
      <trkpt lat="48.13541" lon="-3.60667">
        <ele>134.3</ele>
        <time>2023-04-05T13:32:58Z</time>
      </trkpt>
      <trkpt lat="48.13535" lon="-3.6067">
        <ele>134.3</ele>
        <time>2023-04-05T13:32:59Z</time>
      </trkpt>
      <trkpt lat="48.13531" lon="-3.60674">
        <ele>134.3</ele>
        <time>2023-04-05T13:33:00Z</time>
      </trkpt>
      <trkpt lat="48.13526" lon="-3.60677">
        <ele>134.4</ele>
        <time>2023-04-05T13:33:01Z</time>
      </trkpt>
      <trkpt lat="48.1352" lon="-3.60679">
        <ele>134.4</ele>
        <time>2023-04-05T13:33:02Z</time>
      </trkpt>
      <trkpt lat="48.13515" lon="-3.60682">
        <ele>134.4</ele>
        <time>2023-04-05T13:33:03Z</time>
      </trkpt>
      <trkpt lat="48.13509" lon="-3.60685">
        <ele>134.4</ele>
        <time>2023-04-05T13:33:04Z</time>
      </trkpt>
      <trkpt lat="48.13504" lon="-3.60689">
        <ele>134.5</ele>
        <time>2023-04-05T13:33:05Z</time>
      </trkpt>
      <trkpt lat="48.13499" lon="-3.60693">
        <ele>134.5</ele>
        <time>2023-04-05T13:33:06Z</time>
      </trkpt>
      <trkpt lat="48.13493" lon="-3.60697">
        <ele>134.5</ele>
        <time>2023-04-05T13:33:07Z</time>
      </trkpt>
      <trkpt lat="48.13488" lon="-3.60701">
        <ele>134.6</ele>
        <time>2023-04-05T13:33:08Z</time>
      </trkpt>
      <trkpt lat="48.13484" lon="-3.60704">
        <ele>134.6</ele>
        <time>2023-04-05T13:33:09Z</time>
      </trkpt>
      <trkpt lat="48.13479" lon="-3.60708">
        <ele>134.6</ele>
        <time>2023-04-05T13:33:10Z</time>
      </trkpt>
      <trkpt lat="48.13474" lon="-3.60713">
        <ele>134.7</ele>
        <time>2023-04-05T13:33:11Z</time>
      </trkpt>
      <trkpt lat="48.1347" lon="-3.60718">
        <ele>134.7</ele>
        <time>2023-04-05T13:33:12Z</time>
      </trkpt>
      <trkpt lat="48.13466" lon="-3.60723">
        <ele>134.8</ele>
        <time>2023-04-05T13:33:13Z</time>
      </trkpt>
      <trkpt lat="48.13462" lon="-3.60728">
        <ele>134.8</ele>
        <time>2023-04-05T13:33:14Z</time>
      </trkpt>
      <trkpt lat="48.13457" lon="-3.60734">
        <ele>134.8</ele>
        <time>2023-04-05T13:33:15Z</time>
      </trkpt>
      <trkpt lat="48.13453" lon="-3.6074">
        <ele>134.8</ele>
        <time>2023-04-05T13:33:16Z</time>
      </trkpt>
      <trkpt lat="48.13449" lon="-3.60746">
        <ele>134.8</ele>
        <time>2023-04-05T13:33:17Z</time>
      </trkpt>
      <trkpt lat="48.13445" lon="-3.60754">
        <ele>134.9</ele>
        <time>2023-04-05T13:33:18Z</time>
      </trkpt>
      <trkpt lat="48.13441" lon="-3.6076">
        <ele>134.9</ele>
        <time>2023-04-05T13:33:19Z</time>
      </trkpt>
      <trkpt lat="48.13437" lon="-3.60767">
        <ele>134.9</ele>
        <time>2023-04-05T13:33:20Z</time>
      </trkpt>
      <trkpt lat="48.13434" lon="-3.60773">
        <ele>134.9</ele>
        <time>2023-04-05T13:33:21Z</time>
      </trkpt>
      <trkpt lat="48.1343" lon="-3.60779">
        <ele>134.9</ele>
        <time>2023-04-05T13:33:22Z</time>
      </trkpt>
      <trkpt lat="48.13426" lon="-3.60785">
        <ele>134.9</ele>
        <time>2023-04-05T13:33:23Z</time>
      </trkpt>
      <trkpt lat="48.13423" lon="-3.60791">
        <ele>134.9</ele>
        <time>2023-04-05T13:33:24Z</time>
      </trkpt>
      <trkpt lat="48.1342" lon="-3.60797">
        <ele>134.9</ele>
        <time>2023-04-05T13:33:25Z</time>
      </trkpt>
      <trkpt lat="48.13418" lon="-3.60802">
        <ele>134.9</ele>
        <time>2023-04-05T13:33:26Z</time>
      </trkpt>
      <trkpt lat="48.13416" lon="-3.60808">
        <ele>134.9</ele>
        <time>2023-04-05T13:33:27Z</time>
      </trkpt>
      <trkpt lat="48.13415" lon="-3.6081">
        <ele>135</ele>
        <time>2023-04-05T13:33:28Z</time>
      </trkpt>
      <trkpt lat="48.13413" lon="-3.60813">
        <ele>135</ele>
        <time>2023-04-05T13:33:29Z</time>
      </trkpt>
      <trkpt lat="48.1341" lon="-3.60818">
        <ele>135</ele>
        <time>2023-04-05T13:33:30Z</time>
      </trkpt>
      <trkpt lat="48.13407" lon="-3.60823">
        <ele>134.9</ele>
        <time>2023-04-05T13:33:31Z</time>
      </trkpt>
      <trkpt lat="48.13405" lon="-3.60828">
        <ele>134.9</ele>
        <time>2023-04-05T13:33:32Z</time>
      </trkpt>
      <trkpt lat="48.13401" lon="-3.60835">
        <ele>134.9</ele>
        <time>2023-04-05T13:33:33Z</time>
      </trkpt>
      <trkpt lat="48.13399" lon="-3.6084">
        <ele>134.8</ele>
        <time>2023-04-05T13:33:34Z</time>
      </trkpt>
      <trkpt lat="48.13396" lon="-3.60845">
        <ele>134.8</ele>
        <time>2023-04-05T13:33:35Z</time>
      </trkpt>
      <trkpt lat="48.13393" lon="-3.6085">
        <ele>134.8</ele>
        <time>2023-04-05T13:33:36Z</time>
      </trkpt>
      <trkpt lat="48.1339" lon="-3.60856">
        <ele>134.7</ele>
        <time>2023-04-05T13:33:37Z</time>
      </trkpt>
      <trkpt lat="48.13387" lon="-3.60861">
        <ele>134.7</ele>
        <time>2023-04-05T13:33:38Z</time>
      </trkpt>
      <trkpt lat="48.13384" lon="-3.60865">
        <ele>134.6</ele>
        <time>2023-04-05T13:33:39Z</time>
      </trkpt>
      <trkpt lat="48.13381" lon="-3.60872">
        <ele>134.6</ele>
        <time>2023-04-05T13:33:41Z</time>
      </trkpt>
      <trkpt lat="48.13378" lon="-3.60877">
        <ele>134.6</ele>
        <time>2023-04-05T13:33:42Z</time>
      </trkpt>
      <trkpt lat="48.13377" lon="-3.60879">
        <ele>134.6</ele>
        <time>2023-04-05T13:33:43Z</time>
      </trkpt>
      <trkpt lat="48.13374" lon="-3.60883">
        <ele>134.5</ele>
        <time>2023-04-05T13:33:44Z</time>
      </trkpt>
      <trkpt lat="48.13371" lon="-3.60887">
        <ele>134.5</ele>
        <time>2023-04-05T13:33:45Z</time>
      </trkpt>
      <trkpt lat="48.13368" lon="-3.60896">
        <ele>134.4</ele>
        <time>2023-04-05T13:33:46Z</time>
      </trkpt>
      <trkpt lat="48.13365" lon="-3.60902">
        <ele>134.4</ele>
        <time>2023-04-05T13:33:47Z</time>
      </trkpt>
      <trkpt lat="48.13361" lon="-3.60909">
        <ele>134.4</ele>
        <time>2023-04-05T13:33:48Z</time>
      </trkpt>
      <trkpt lat="48.13357" lon="-3.60913">
        <ele>134.4</ele>
        <time>2023-04-05T13:33:49Z</time>
      </trkpt>
      <trkpt lat="48.13354" lon="-3.60917">
        <ele>134.3</ele>
        <time>2023-04-05T13:33:50Z</time>
      </trkpt>
      <trkpt lat="48.13351" lon="-3.60922">
        <ele>134.3</ele>
        <time>2023-04-05T13:33:51Z</time>
      </trkpt>
      <trkpt lat="48.13348" lon="-3.60928">
        <ele>134.2</ele>
        <time>2023-04-05T13:33:52Z</time>
      </trkpt>
      <trkpt lat="48.13345" lon="-3.60935">
        <ele>134.1</ele>
        <time>2023-04-05T13:33:53Z</time>
      </trkpt>
      <trkpt lat="48.13342" lon="-3.60941">
        <ele>134.1</ele>
        <time>2023-04-05T13:33:54Z</time>
      </trkpt>
      <trkpt lat="48.13338" lon="-3.60947">
        <ele>134</ele>
        <time>2023-04-05T13:33:55Z</time>
      </trkpt>
      <trkpt lat="48.13334" lon="-3.60953">
        <ele>133.8</ele>
        <time>2023-04-05T13:33:56Z</time>
      </trkpt>
      <trkpt lat="48.1333" lon="-3.60961">
        <ele>133.7</ele>
        <time>2023-04-05T13:33:57Z</time>
      </trkpt>
      <trkpt lat="48.13325" lon="-3.60968">
        <ele>133.6</ele>
        <time>2023-04-05T13:33:58Z</time>
      </trkpt>
      <trkpt lat="48.13321" lon="-3.60974">
        <ele>133.5</ele>
        <time>2023-04-05T13:33:59Z</time>
      </trkpt>
      <trkpt lat="48.13317" lon="-3.6098">
        <ele>133.4</ele>
        <time>2023-04-05T13:34:00Z</time>
      </trkpt>
      <trkpt lat="48.13313" lon="-3.60985">
        <ele>133.3</ele>
        <time>2023-04-05T13:34:01Z</time>
      </trkpt>
      <trkpt lat="48.13309" lon="-3.6099">
        <ele>133.2</ele>
        <time>2023-04-05T13:34:02Z</time>
      </trkpt>
      <trkpt lat="48.13305" lon="-3.60996">
        <ele>133.1</ele>
        <time>2023-04-05T13:34:03Z</time>
      </trkpt>
      <trkpt lat="48.13301" lon="-3.61003">
        <ele>133.1</ele>
        <time>2023-04-05T13:34:04Z</time>
      </trkpt>
      <trkpt lat="48.13296" lon="-3.61009">
        <ele>133</ele>
        <time>2023-04-05T13:34:05Z</time>
      </trkpt>
      <trkpt lat="48.13291" lon="-3.61013">
        <ele>132.9</ele>
        <time>2023-04-05T13:34:06Z</time>
      </trkpt>
      <trkpt lat="48.13288" lon="-3.61017">
        <ele>132.9</ele>
        <time>2023-04-05T13:34:07Z</time>
      </trkpt>
      <trkpt lat="48.13284" lon="-3.6102">
        <ele>132.8</ele>
        <time>2023-04-05T13:34:08Z</time>
      </trkpt>
      <trkpt lat="48.13277" lon="-3.61026">
        <ele>132.8</ele>
        <time>2023-04-05T13:34:09Z</time>
      </trkpt>
      <trkpt lat="48.13271" lon="-3.61031">
        <ele>132.7</ele>
        <time>2023-04-05T13:34:10Z</time>
      </trkpt>
      <trkpt lat="48.13265" lon="-3.61036">
        <ele>132.6</ele>
        <time>2023-04-05T13:34:11Z</time>
      </trkpt>
      <trkpt lat="48.13259" lon="-3.61039">
        <ele>132.5</ele>
        <time>2023-04-05T13:34:12Z</time>
      </trkpt>
      <trkpt lat="48.13254" lon="-3.61042">
        <ele>132.4</ele>
        <time>2023-04-05T13:34:13Z</time>
      </trkpt>
      <trkpt lat="48.13249" lon="-3.61046">
        <ele>132.3</ele>
        <time>2023-04-05T13:34:14Z</time>
      </trkpt>
      <trkpt lat="48.13243" lon="-3.61049">
        <ele>132.2</ele>
        <time>2023-04-05T13:34:15Z</time>
      </trkpt>
      <trkpt lat="48.13238" lon="-3.61053">
        <ele>132.2</ele>
        <time>2023-04-05T13:34:16Z</time>
      </trkpt>
      <trkpt lat="48.13233" lon="-3.61056">
        <ele>132.1</ele>
        <time>2023-04-05T13:34:17Z</time>
      </trkpt>
      <trkpt lat="48.13228" lon="-3.61059">
        <ele>132</ele>
        <time>2023-04-05T13:34:18Z</time>
      </trkpt>
      <trkpt lat="48.13222" lon="-3.61063">
        <ele>131.9</ele>
        <time>2023-04-05T13:34:19Z</time>
      </trkpt>
      <trkpt lat="48.13216" lon="-3.61065">
        <ele>131.8</ele>
        <time>2023-04-05T13:34:20Z</time>
      </trkpt>
      <trkpt lat="48.1321" lon="-3.61068">
        <ele>131.7</ele>
        <time>2023-04-05T13:34:21Z</time>
      </trkpt>
      <trkpt lat="48.13204" lon="-3.61071">
        <ele>131.6</ele>
        <time>2023-04-05T13:34:22Z</time>
      </trkpt>
      <trkpt lat="48.13198" lon="-3.61074">
        <ele>131.5</ele>
        <time>2023-04-05T13:34:23Z</time>
      </trkpt>
      <trkpt lat="48.13191" lon="-3.61076">
        <ele>131.4</ele>
        <time>2023-04-05T13:34:24Z</time>
      </trkpt>
      <trkpt lat="48.13186" lon="-3.61078">
        <ele>131.3</ele>
        <time>2023-04-05T13:34:25Z</time>
      </trkpt>
      <trkpt lat="48.1318" lon="-3.6108">
        <ele>131.2</ele>
        <time>2023-04-05T13:34:26Z</time>
      </trkpt>
      <trkpt lat="48.13173" lon="-3.61082">
        <ele>131.1</ele>
        <time>2023-04-05T13:34:27Z</time>
      </trkpt>
      <trkpt lat="48.13167" lon="-3.61085">
        <ele>131</ele>
        <time>2023-04-05T13:34:28Z</time>
      </trkpt>
      <trkpt lat="48.13161" lon="-3.61088">
        <ele>131</ele>
        <time>2023-04-05T13:34:29Z</time>
      </trkpt>
      <trkpt lat="48.13155" lon="-3.61092">
        <ele>130.9</ele>
        <time>2023-04-05T13:34:30Z</time>
      </trkpt>
      <trkpt lat="48.13149" lon="-3.61096">
        <ele>130.9</ele>
        <time>2023-04-05T13:34:31Z</time>
      </trkpt>
      <trkpt lat="48.13143" lon="-3.61099">
        <ele>130.8</ele>
        <time>2023-04-05T13:34:32Z</time>
      </trkpt>
      <trkpt lat="48.13138" lon="-3.61101">
        <ele>130.8</ele>
        <time>2023-04-05T13:34:33Z</time>
      </trkpt>
      <trkpt lat="48.13133" lon="-3.61103">
        <ele>130.7</ele>
        <time>2023-04-05T13:34:34Z</time>
      </trkpt>
      <trkpt lat="48.13128" lon="-3.61106">
        <ele>130.7</ele>
        <time>2023-04-05T13:34:35Z</time>
      </trkpt>
      <trkpt lat="48.13122" lon="-3.61108">
        <ele>130.6</ele>
        <time>2023-04-05T13:34:36Z</time>
      </trkpt>
      <trkpt lat="48.13116" lon="-3.61111">
        <ele>130.6</ele>
        <time>2023-04-05T13:34:37Z</time>
      </trkpt>
      <trkpt lat="48.13111" lon="-3.61114">
        <ele>130.5</ele>
        <time>2023-04-05T13:34:38Z</time>
      </trkpt>
      <trkpt lat="48.13105" lon="-3.61117">
        <ele>130.5</ele>
        <time>2023-04-05T13:34:39Z</time>
      </trkpt>
      <trkpt lat="48.13099" lon="-3.6112">
        <ele>130.4</ele>
        <time>2023-04-05T13:34:40Z</time>
      </trkpt>
      <trkpt lat="48.13093" lon="-3.61123">
        <ele>130.3</ele>
        <time>2023-04-05T13:34:41Z</time>
      </trkpt>
      <trkpt lat="48.13088" lon="-3.61127">
        <ele>130.2</ele>
        <time>2023-04-05T13:34:42Z</time>
      </trkpt>
      <trkpt lat="48.13082" lon="-3.6113">
        <ele>130.2</ele>
        <time>2023-04-05T13:34:43Z</time>
      </trkpt>
      <trkpt lat="48.13076" lon="-3.61134">
        <ele>130.1</ele>
        <time>2023-04-05T13:34:44Z</time>
      </trkpt>
      <trkpt lat="48.13071" lon="-3.61137">
        <ele>130</ele>
        <time>2023-04-05T13:34:45Z</time>
      </trkpt>
      <trkpt lat="48.13067" lon="-3.6114">
        <ele>130</ele>
        <time>2023-04-05T13:34:46Z</time>
      </trkpt>
      <trkpt lat="48.13062" lon="-3.61144">
        <ele>129.9</ele>
        <time>2023-04-05T13:34:47Z</time>
      </trkpt>
      <trkpt lat="48.13056" lon="-3.61148">
        <ele>129.8</ele>
        <time>2023-04-05T13:34:48Z</time>
      </trkpt>
      <trkpt lat="48.13051" lon="-3.61153">
        <ele>129.7</ele>
        <time>2023-04-05T13:34:49Z</time>
      </trkpt>
      <trkpt lat="48.13046" lon="-3.61159">
        <ele>129.6</ele>
        <time>2023-04-05T13:34:50Z</time>
      </trkpt>
      <trkpt lat="48.13041" lon="-3.61164">
        <ele>129.5</ele>
        <time>2023-04-05T13:34:51Z</time>
      </trkpt>
      <trkpt lat="48.13036" lon="-3.61169">
        <ele>129.5</ele>
        <time>2023-04-05T13:34:52Z</time>
      </trkpt>
      <trkpt lat="48.13031" lon="-3.61175">
        <ele>129.4</ele>
        <time>2023-04-05T13:34:53Z</time>
      </trkpt>
      <trkpt lat="48.13026" lon="-3.6118">
        <ele>129.4</ele>
        <time>2023-04-05T13:34:54Z</time>
      </trkpt>
      <trkpt lat="48.13021" lon="-3.61186">
        <ele>129.4</ele>
        <time>2023-04-05T13:34:55Z</time>
      </trkpt>
      <trkpt lat="48.13017" lon="-3.61191">
        <ele>129.3</ele>
        <time>2023-04-05T13:34:56Z</time>
      </trkpt>
      <trkpt lat="48.13012" lon="-3.61197">
        <ele>129.3</ele>
        <time>2023-04-05T13:34:57Z</time>
      </trkpt>
      <trkpt lat="48.13008" lon="-3.61203">
        <ele>129.3</ele>
        <time>2023-04-05T13:34:58Z</time>
      </trkpt>
      <trkpt lat="48.13005" lon="-3.61208">
        <ele>129.2</ele>
        <time>2023-04-05T13:34:59Z</time>
      </trkpt>
      <trkpt lat="48.13004" lon="-3.61212">
        <ele>129.1</ele>
        <time>2023-04-05T13:35:00Z</time>
      </trkpt>
      <trkpt lat="48.13" lon="-3.61219">
        <ele>129</ele>
        <time>2023-04-05T13:35:01Z</time>
      </trkpt>
      <trkpt lat="48.12995" lon="-3.61227">
        <ele>128.9</ele>
        <time>2023-04-05T13:35:02Z</time>
      </trkpt>
      <trkpt lat="48.12992" lon="-3.61233">
        <ele>128.8</ele>
        <time>2023-04-05T13:35:03Z</time>
      </trkpt>
      <trkpt lat="48.12988" lon="-3.61241">
        <ele>128.7</ele>
        <time>2023-04-05T13:35:04Z</time>
      </trkpt>
      <trkpt lat="48.12984" lon="-3.61248">
        <ele>128.7</ele>
        <time>2023-04-05T13:35:05Z</time>
      </trkpt>
      <trkpt lat="48.12981" lon="-3.61256">
        <ele>128.6</ele>
        <time>2023-04-05T13:35:06Z</time>
      </trkpt>
      <trkpt lat="48.12976" lon="-3.61263">
        <ele>128.5</ele>
        <time>2023-04-05T13:35:07Z</time>
      </trkpt>
      <trkpt lat="48.12972" lon="-3.61271">
        <ele>128.4</ele>
        <time>2023-04-05T13:35:08Z</time>
      </trkpt>
      <trkpt lat="48.12968" lon="-3.61278">
        <ele>128.3</ele>
        <time>2023-04-05T13:35:09Z</time>
      </trkpt>
      <trkpt lat="48.12965" lon="-3.61286">
        <ele>128.2</ele>
        <time>2023-04-05T13:35:10Z</time>
      </trkpt>
      <trkpt lat="48.12962" lon="-3.61294">
        <ele>128.1</ele>
        <time>2023-04-05T13:35:11Z</time>
      </trkpt>
      <trkpt lat="48.12958" lon="-3.61302">
        <ele>128</ele>
        <time>2023-04-05T13:35:12Z</time>
      </trkpt>
      <trkpt lat="48.12955" lon="-3.61309">
        <ele>128</ele>
        <time>2023-04-05T13:35:13Z</time>
      </trkpt>
      <trkpt lat="48.12953" lon="-3.61316">
        <ele>127.9</ele>
        <time>2023-04-05T13:35:14Z</time>
      </trkpt>
      <trkpt lat="48.12951" lon="-3.61322">
        <ele>127.8</ele>
        <time>2023-04-05T13:35:15Z</time>
      </trkpt>
      <trkpt lat="48.12948" lon="-3.61327">
        <ele>127.8</ele>
        <time>2023-04-05T13:35:16Z</time>
      </trkpt>
      <trkpt lat="48.12946" lon="-3.61334">
        <ele>127.7</ele>
        <time>2023-04-05T13:35:17Z</time>
      </trkpt>
      <trkpt lat="48.12944" lon="-3.61342">
        <ele>127.7</ele>
        <time>2023-04-05T13:35:18Z</time>
      </trkpt>
      <trkpt lat="48.12942" lon="-3.61351">
        <ele>127.6</ele>
        <time>2023-04-05T13:35:19Z</time>
      </trkpt>
      <trkpt lat="48.1294" lon="-3.61359">
        <ele>127.5</ele>
        <time>2023-04-05T13:35:20Z</time>
      </trkpt>
      <trkpt lat="48.12938" lon="-3.61368">
        <ele>127.4</ele>
        <time>2023-04-05T13:35:21Z</time>
      </trkpt>
      <trkpt lat="48.12935" lon="-3.61378">
        <ele>127.4</ele>
        <time>2023-04-05T13:35:22Z</time>
      </trkpt>
      <trkpt lat="48.12933" lon="-3.61386">
        <ele>127.3</ele>
        <time>2023-04-05T13:35:23Z</time>
      </trkpt>
      <trkpt lat="48.12931" lon="-3.61395">
        <ele>127.2</ele>
        <time>2023-04-05T13:35:24Z</time>
      </trkpt>
      <trkpt lat="48.12928" lon="-3.61403">
        <ele>127.1</ele>
        <time>2023-04-05T13:35:25Z</time>
      </trkpt>
      <trkpt lat="48.12926" lon="-3.61411">
        <ele>127.1</ele>
        <time>2023-04-05T13:35:26Z</time>
      </trkpt>
      <trkpt lat="48.12924" lon="-3.61419">
        <ele>127</ele>
        <time>2023-04-05T13:35:27Z</time>
      </trkpt>
      <trkpt lat="48.12921" lon="-3.61427">
        <ele>126.9</ele>
        <time>2023-04-05T13:35:28Z</time>
      </trkpt>
      <trkpt lat="48.12918" lon="-3.61436">
        <ele>126.9</ele>
        <time>2023-04-05T13:35:29Z</time>
      </trkpt>
      <trkpt lat="48.12915" lon="-3.61442">
        <ele>126.8</ele>
        <time>2023-04-05T13:35:30Z</time>
      </trkpt>
      <trkpt lat="48.12913" lon="-3.61449">
        <ele>126.8</ele>
        <time>2023-04-05T13:35:31Z</time>
      </trkpt>
      <trkpt lat="48.12909" lon="-3.61458">
        <ele>126.7</ele>
        <time>2023-04-05T13:35:32Z</time>
      </trkpt>
      <trkpt lat="48.12906" lon="-3.61466">
        <ele>126.6</ele>
        <time>2023-04-05T13:35:33Z</time>
      </trkpt>
      <trkpt lat="48.12904" lon="-3.61473">
        <ele>126.5</ele>
        <time>2023-04-05T13:35:34Z</time>
      </trkpt>
      <trkpt lat="48.12902" lon="-3.61481">
        <ele>126.5</ele>
        <time>2023-04-05T13:35:35Z</time>
      </trkpt>
      <trkpt lat="48.129" lon="-3.61489">
        <ele>126.4</ele>
        <time>2023-04-05T13:35:36Z</time>
      </trkpt>
      <trkpt lat="48.12898" lon="-3.61497">
        <ele>126.3</ele>
        <time>2023-04-05T13:35:37Z</time>
      </trkpt>
      <trkpt lat="48.12896" lon="-3.61505">
        <ele>126.3</ele>
        <time>2023-04-05T13:35:38Z</time>
      </trkpt>
      <trkpt lat="48.12894" lon="-3.61513">
        <ele>126.2</ele>
        <time>2023-04-05T13:35:39Z</time>
      </trkpt>
      <trkpt lat="48.12891" lon="-3.61521">
        <ele>126.1</ele>
        <time>2023-04-05T13:35:40Z</time>
      </trkpt>
      <trkpt lat="48.12889" lon="-3.61529">
        <ele>126.1</ele>
        <time>2023-04-05T13:35:41Z</time>
      </trkpt>
      <trkpt lat="48.12886" lon="-3.61537">
        <ele>126</ele>
        <time>2023-04-05T13:35:42Z</time>
      </trkpt>
      <trkpt lat="48.12883" lon="-3.61545">
        <ele>125.9</ele>
        <time>2023-04-05T13:35:43Z</time>
      </trkpt>
      <trkpt lat="48.1288" lon="-3.61554">
        <ele>125.8</ele>
        <time>2023-04-05T13:35:44Z</time>
      </trkpt>
      <trkpt lat="48.12878" lon="-3.61561">
        <ele>125.7</ele>
        <time>2023-04-05T13:35:45Z</time>
      </trkpt>
      <trkpt lat="48.12875" lon="-3.61569">
        <ele>125.6</ele>
        <time>2023-04-05T13:35:46Z</time>
      </trkpt>
      <trkpt lat="48.12872" lon="-3.61576">
        <ele>125.6</ele>
        <time>2023-04-05T13:35:47Z</time>
      </trkpt>
      <trkpt lat="48.12869" lon="-3.61583">
        <ele>125.5</ele>
        <time>2023-04-05T13:35:48Z</time>
      </trkpt>
      <trkpt lat="48.12866" lon="-3.6159">
        <ele>125.4</ele>
        <time>2023-04-05T13:35:49Z</time>
      </trkpt>
      <trkpt lat="48.12862" lon="-3.61598">
        <ele>125.3</ele>
        <time>2023-04-05T13:35:50Z</time>
      </trkpt>
      <trkpt lat="48.12858" lon="-3.61605">
        <ele>125.3</ele>
        <time>2023-04-05T13:35:51Z</time>
      </trkpt>
      <trkpt lat="48.12854" lon="-3.61611">
        <ele>125.2</ele>
        <time>2023-04-05T13:35:52Z</time>
      </trkpt>
      <trkpt lat="48.1285" lon="-3.61617">
        <ele>125.1</ele>
        <time>2023-04-05T13:35:53Z</time>
      </trkpt>
      <trkpt lat="48.12847" lon="-3.61622">
        <ele>125.1</ele>
        <time>2023-04-05T13:35:54Z</time>
      </trkpt>
      <trkpt lat="48.12843" lon="-3.61627">
        <ele>125</ele>
        <time>2023-04-05T13:35:55Z</time>
      </trkpt>
      <trkpt lat="48.12838" lon="-3.61633">
        <ele>125</ele>
        <time>2023-04-05T13:35:56Z</time>
      </trkpt>
      <trkpt lat="48.12834" lon="-3.61638">
        <ele>124.9</ele>
        <time>2023-04-05T13:35:57Z</time>
      </trkpt>
      <trkpt lat="48.12831" lon="-3.61642">
        <ele>124.9</ele>
        <time>2023-04-05T13:35:58Z</time>
      </trkpt>
      <trkpt lat="48.12829" lon="-3.61646">
        <ele>124.8</ele>
        <time>2023-04-05T13:35:59Z</time>
      </trkpt>
      <trkpt lat="48.12825" lon="-3.6165">
        <ele>124.8</ele>
        <time>2023-04-05T13:36:00Z</time>
      </trkpt>
      <trkpt lat="48.12823" lon="-3.61651">
        <ele>124.8</ele>
        <time>2023-04-05T13:36:01Z</time>
      </trkpt>
      <trkpt lat="48.12819" lon="-3.61655">
        <ele>124.7</ele>
        <time>2023-04-05T13:36:02Z</time>
      </trkpt>
      <trkpt lat="48.12817" lon="-3.61658">
        <ele>124.7</ele>
        <time>2023-04-05T13:36:03Z</time>
      </trkpt>
      <trkpt lat="48.12815" lon="-3.61661">
        <ele>124.7</ele>
        <time>2023-04-05T13:36:04Z</time>
      </trkpt>
      <trkpt lat="48.12814" lon="-3.61661">
        <ele>124.7</ele>
        <time>2023-04-05T13:36:06Z</time>
      </trkpt>
      <trkpt lat="48.12813" lon="-3.61662">
        <ele>124.7</ele>
        <time>2023-04-05T13:36:07Z</time>
      </trkpt>
      <trkpt lat="48.12813" lon="-3.61663">
        <ele>124.7</ele>
        <time>2023-04-05T13:36:08Z</time>
      </trkpt>
      <trkpt lat="48.12813" lon="-3.61663">
        <ele>124.7</ele>
        <time>2023-04-05T13:36:09Z</time>
      </trkpt>
      <trkpt lat="48.12813" lon="-3.61664">
        <ele>124.7</ele>
        <time>2023-04-05T13:36:10Z</time>
      </trkpt>
      <trkpt lat="48.12813" lon="-3.61664">
        <ele>124.7</ele>
        <time>2023-04-05T13:36:11Z</time>
      </trkpt>
      <trkpt lat="48.12812" lon="-3.61665">
        <ele>124.7</ele>
        <time>2023-04-05T13:36:12Z</time>
      </trkpt>
      <trkpt lat="48.12811" lon="-3.61667">
        <ele>124.7</ele>
        <time>2023-04-05T13:36:13Z</time>
      </trkpt>
      <trkpt lat="48.12809" lon="-3.61673">
        <ele>124.7</ele>
        <time>2023-04-05T13:36:14Z</time>
      </trkpt>
      <trkpt lat="48.12807" lon="-3.61678">
        <ele>124.7</ele>
        <time>2023-04-05T13:36:15Z</time>
      </trkpt>
      <trkpt lat="48.12805" lon="-3.61683">
        <ele>124.7</ele>
        <time>2023-04-05T13:36:16Z</time>
      </trkpt>
      <trkpt lat="48.12805" lon="-3.61687">
        <ele>124.7</ele>
        <time>2023-04-05T13:36:17Z</time>
      </trkpt>
      <trkpt lat="48.12805" lon="-3.6169">
        <ele>124.7</ele>
        <time>2023-04-05T13:36:18Z</time>
      </trkpt>
      <trkpt lat="48.12805" lon="-3.61691">
        <ele>124.7</ele>
        <time>2023-04-05T13:36:19Z</time>
      </trkpt>
      <trkpt lat="48.12804" lon="-3.61691">
        <ele>124.7</ele>
        <time>2023-04-05T13:36:20Z</time>
      </trkpt>
      <trkpt lat="48.12804" lon="-3.61692">
        <ele>124.7</ele>
        <time>2023-04-05T13:36:21Z</time>
      </trkpt>
      <trkpt lat="48.12803" lon="-3.61693">
        <ele>124.7</ele>
        <time>2023-04-05T13:36:22Z</time>
      </trkpt>
      <trkpt lat="48.12803" lon="-3.61694">
        <ele>124.7</ele>
        <time>2023-04-05T13:36:23Z</time>
      </trkpt>
      <trkpt lat="48.12803" lon="-3.61694">
        <ele>124.7</ele>
        <time>2023-04-05T13:36:24Z</time>
      </trkpt>
      <trkpt lat="48.12802" lon="-3.61695">
        <ele>124.7</ele>
        <time>2023-04-05T13:36:25Z</time>
      </trkpt>
      <trkpt lat="48.12802" lon="-3.61696">
        <ele>124.7</ele>
        <time>2023-04-05T13:36:27Z</time>
      </trkpt>
      <trkpt lat="48.12802" lon="-3.61696">
        <ele>124.7</ele>
        <time>2023-04-05T13:36:28Z</time>
      </trkpt>
      <trkpt lat="48.12801" lon="-3.61697">
        <ele>124.8</ele>
        <time>2023-04-05T13:36:29Z</time>
      </trkpt>
      <trkpt lat="48.128" lon="-3.61702">
        <ele>124.8</ele>
        <time>2023-04-05T13:36:30Z</time>
      </trkpt>
      <trkpt lat="48.12798" lon="-3.61705">
        <ele>124.9</ele>
        <time>2023-04-05T13:36:31Z</time>
      </trkpt>
      <trkpt lat="48.12795" lon="-3.61707">
        <ele>124.9</ele>
        <time>2023-04-05T13:36:32Z</time>
      </trkpt>
      <trkpt lat="48.12793" lon="-3.61707">
        <ele>124.9</ele>
        <time>2023-04-05T13:36:33Z</time>
      </trkpt>
      <trkpt lat="48.12789" lon="-3.61709">
        <ele>124.9</ele>
        <time>2023-04-05T13:36:34Z</time>
      </trkpt>
      <trkpt lat="48.12785" lon="-3.61712">
        <ele>124.9</ele>
        <time>2023-04-05T13:36:35Z</time>
      </trkpt>
      <trkpt lat="48.12781" lon="-3.61716">
        <ele>124.8</ele>
        <time>2023-04-05T13:36:36Z</time>
      </trkpt>
      <trkpt lat="48.12776" lon="-3.61718">
        <ele>124.7</ele>
        <time>2023-04-05T13:36:37Z</time>
      </trkpt>
      <trkpt lat="48.1277" lon="-3.6172">
        <ele>124.6</ele>
        <time>2023-04-05T13:36:38Z</time>
      </trkpt>
      <trkpt lat="48.12765" lon="-3.61722">
        <ele>124.5</ele>
        <time>2023-04-05T13:36:39Z</time>
      </trkpt>
      <trkpt lat="48.1276" lon="-3.61726">
        <ele>124.4</ele>
        <time>2023-04-05T13:36:40Z</time>
      </trkpt>
      <trkpt lat="48.12755" lon="-3.6173">
        <ele>124.3</ele>
        <time>2023-04-05T13:36:41Z</time>
      </trkpt>
      <trkpt lat="48.12751" lon="-3.61736">
        <ele>124.2</ele>
        <time>2023-04-05T13:36:42Z</time>
      </trkpt>
      <trkpt lat="48.12746" lon="-3.61742">
        <ele>124.1</ele>
        <time>2023-04-05T13:36:43Z</time>
      </trkpt>
      <trkpt lat="48.12743" lon="-3.61749">
        <ele>124</ele>
        <time>2023-04-05T13:36:44Z</time>
      </trkpt>
      <trkpt lat="48.1274" lon="-3.61755">
        <ele>123.9</ele>
        <time>2023-04-05T13:36:45Z</time>
      </trkpt>
      <trkpt lat="48.12737" lon="-3.61763">
        <ele>123.8</ele>
        <time>2023-04-05T13:36:46Z</time>
      </trkpt>
      <trkpt lat="48.12734" lon="-3.61769">
        <ele>123.7</ele>
        <time>2023-04-05T13:36:47Z</time>
      </trkpt>
      <trkpt lat="48.12732" lon="-3.61777">
        <ele>123.6</ele>
        <time>2023-04-05T13:36:48Z</time>
      </trkpt>
      <trkpt lat="48.12729" lon="-3.61784">
        <ele>123.5</ele>
        <time>2023-04-05T13:36:49Z</time>
      </trkpt>
      <trkpt lat="48.12725" lon="-3.61791">
        <ele>123.4</ele>
        <time>2023-04-05T13:36:50Z</time>
      </trkpt>
      <trkpt lat="48.12722" lon="-3.61798">
        <ele>123.3</ele>
        <time>2023-04-05T13:36:51Z</time>
      </trkpt>
      <trkpt lat="48.12719" lon="-3.61805">
        <ele>123.2</ele>
        <time>2023-04-05T13:36:52Z</time>
      </trkpt>
      <trkpt lat="48.12716" lon="-3.61813">
        <ele>123.1</ele>
        <time>2023-04-05T13:36:53Z</time>
      </trkpt>
      <trkpt lat="48.12713" lon="-3.61821">
        <ele>123</ele>
        <time>2023-04-05T13:36:54Z</time>
      </trkpt>
      <trkpt lat="48.1271" lon="-3.61828">
        <ele>122.9</ele>
        <time>2023-04-05T13:36:55Z</time>
      </trkpt>
      <trkpt lat="48.12707" lon="-3.61835">
        <ele>122.8</ele>
        <time>2023-04-05T13:36:56Z</time>
      </trkpt>
      <trkpt lat="48.12704" lon="-3.61843">
        <ele>122.7</ele>
        <time>2023-04-05T13:36:57Z</time>
      </trkpt>
      <trkpt lat="48.12701" lon="-3.61851">
        <ele>122.6</ele>
        <time>2023-04-05T13:36:58Z</time>
      </trkpt>
      <trkpt lat="48.12699" lon="-3.61859">
        <ele>122.5</ele>
        <time>2023-04-05T13:36:59Z</time>
      </trkpt>
      <trkpt lat="48.12696" lon="-3.61866">
        <ele>122.4</ele>
        <time>2023-04-05T13:37:00Z</time>
      </trkpt>
      <trkpt lat="48.12693" lon="-3.61873">
        <ele>122.3</ele>
        <time>2023-04-05T13:37:01Z</time>
      </trkpt>
      <trkpt lat="48.1269" lon="-3.61881">
        <ele>122.2</ele>
        <time>2023-04-05T13:37:02Z</time>
      </trkpt>
      <trkpt lat="48.12687" lon="-3.61888">
        <ele>122.1</ele>
        <time>2023-04-05T13:37:03Z</time>
      </trkpt>
      <trkpt lat="48.12683" lon="-3.61895">
        <ele>122</ele>
        <time>2023-04-05T13:37:04Z</time>
      </trkpt>
      <trkpt lat="48.12679" lon="-3.61903">
        <ele>121.9</ele>
        <time>2023-04-05T13:37:05Z</time>
      </trkpt>
      <trkpt lat="48.12675" lon="-3.61911">
        <ele>121.8</ele>
        <time>2023-04-05T13:37:06Z</time>
      </trkpt>
      <trkpt lat="48.12672" lon="-3.61919">
        <ele>121.7</ele>
        <time>2023-04-05T13:37:07Z</time>
      </trkpt>
      <trkpt lat="48.12669" lon="-3.61926">
        <ele>121.6</ele>
        <time>2023-04-05T13:37:08Z</time>
      </trkpt>
      <trkpt lat="48.12665" lon="-3.61932">
        <ele>121.5</ele>
        <time>2023-04-05T13:37:09Z</time>
      </trkpt>
      <trkpt lat="48.12662" lon="-3.61938">
        <ele>121.4</ele>
        <time>2023-04-05T13:37:10Z</time>
      </trkpt>
      <trkpt lat="48.12659" lon="-3.61945">
        <ele>121.4</ele>
        <time>2023-04-05T13:37:11Z</time>
      </trkpt>
      <trkpt lat="48.12656" lon="-3.61952">
        <ele>121.3</ele>
        <time>2023-04-05T13:37:12Z</time>
      </trkpt>
      <trkpt lat="48.12653" lon="-3.6196">
        <ele>121.2</ele>
        <time>2023-04-05T13:37:13Z</time>
      </trkpt>
      <trkpt lat="48.1265" lon="-3.61968">
        <ele>121.1</ele>
        <time>2023-04-05T13:37:14Z</time>
      </trkpt>
      <trkpt lat="48.12647" lon="-3.61975">
        <ele>121</ele>
        <time>2023-04-05T13:37:15Z</time>
      </trkpt>
      <trkpt lat="48.12643" lon="-3.61983">
        <ele>121</ele>
        <time>2023-04-05T13:37:16Z</time>
      </trkpt>
      <trkpt lat="48.1264" lon="-3.61991">
        <ele>120.9</ele>
        <time>2023-04-05T13:37:17Z</time>
      </trkpt>
      <trkpt lat="48.12637" lon="-3.61998">
        <ele>120.8</ele>
        <time>2023-04-05T13:37:18Z</time>
      </trkpt>
      <trkpt lat="48.12634" lon="-3.62005">
        <ele>120.8</ele>
        <time>2023-04-05T13:37:19Z</time>
      </trkpt>
      <trkpt lat="48.12631" lon="-3.62013">
        <ele>120.7</ele>
        <time>2023-04-05T13:37:20Z</time>
      </trkpt>
      <trkpt lat="48.12628" lon="-3.6202">
        <ele>120.6</ele>
        <time>2023-04-05T13:37:21Z</time>
      </trkpt>
      <trkpt lat="48.12625" lon="-3.62027">
        <ele>120.5</ele>
        <time>2023-04-05T13:37:22Z</time>
      </trkpt>
      <trkpt lat="48.12621" lon="-3.62035">
        <ele>120.3</ele>
        <time>2023-04-05T13:37:23Z</time>
      </trkpt>
      <trkpt lat="48.12618" lon="-3.62043">
        <ele>120.2</ele>
        <time>2023-04-05T13:37:24Z</time>
      </trkpt>
      <trkpt lat="48.12615" lon="-3.62051">
        <ele>120.1</ele>
        <time>2023-04-05T13:37:25Z</time>
      </trkpt>
      <trkpt lat="48.12612" lon="-3.62059">
        <ele>119.9</ele>
        <time>2023-04-05T13:37:26Z</time>
      </trkpt>
      <trkpt lat="48.12608" lon="-3.62067">
        <ele>119.8</ele>
        <time>2023-04-05T13:37:27Z</time>
      </trkpt>
      <trkpt lat="48.12604" lon="-3.62075">
        <ele>119.7</ele>
        <time>2023-04-05T13:37:28Z</time>
      </trkpt>
      <trkpt lat="48.12601" lon="-3.62083">
        <ele>119.5</ele>
        <time>2023-04-05T13:37:29Z</time>
      </trkpt>
      <trkpt lat="48.12597" lon="-3.62091">
        <ele>119.4</ele>
        <time>2023-04-05T13:37:30Z</time>
      </trkpt>
      <trkpt lat="48.12593" lon="-3.621">
        <ele>119.2</ele>
        <time>2023-04-05T13:37:31Z</time>
      </trkpt>
      <trkpt lat="48.1259" lon="-3.62108">
        <ele>119.1</ele>
        <time>2023-04-05T13:37:32Z</time>
      </trkpt>
      <trkpt lat="48.12587" lon="-3.62116">
        <ele>118.9</ele>
        <time>2023-04-05T13:37:33Z</time>
      </trkpt>
      <trkpt lat="48.12583" lon="-3.62125">
        <ele>118.8</ele>
        <time>2023-04-05T13:37:34Z</time>
      </trkpt>
      <trkpt lat="48.1258" lon="-3.62133">
        <ele>118.6</ele>
        <time>2023-04-05T13:37:35Z</time>
      </trkpt>
      <trkpt lat="48.12576" lon="-3.62141">
        <ele>118.5</ele>
        <time>2023-04-05T13:37:36Z</time>
      </trkpt>
      <trkpt lat="48.12572" lon="-3.62149">
        <ele>118.3</ele>
        <time>2023-04-05T13:37:37Z</time>
      </trkpt>
      <trkpt lat="48.12568" lon="-3.62158">
        <ele>118.2</ele>
        <time>2023-04-05T13:37:38Z</time>
      </trkpt>
      <trkpt lat="48.12564" lon="-3.62167">
        <ele>118</ele>
        <time>2023-04-05T13:37:39Z</time>
      </trkpt>
      <trkpt lat="48.1256" lon="-3.62175">
        <ele>117.9</ele>
        <time>2023-04-05T13:37:40Z</time>
      </trkpt>
      <trkpt lat="48.12556" lon="-3.62182">
        <ele>117.8</ele>
        <time>2023-04-05T13:37:41Z</time>
      </trkpt>
      <trkpt lat="48.12553" lon="-3.6219">
        <ele>117.7</ele>
        <time>2023-04-05T13:37:42Z</time>
      </trkpt>
      <trkpt lat="48.12549" lon="-3.62199">
        <ele>117.5</ele>
        <time>2023-04-05T13:37:43Z</time>
      </trkpt>
      <trkpt lat="48.12545" lon="-3.62207">
        <ele>117.4</ele>
        <time>2023-04-05T13:37:44Z</time>
      </trkpt>
      <trkpt lat="48.12542" lon="-3.62215">
        <ele>117.2</ele>
        <time>2023-04-05T13:37:45Z</time>
      </trkpt>
      <trkpt lat="48.12538" lon="-3.62224">
        <ele>117.1</ele>
        <time>2023-04-05T13:37:46Z</time>
      </trkpt>
      <trkpt lat="48.12535" lon="-3.62232">
        <ele>116.9</ele>
        <time>2023-04-05T13:37:47Z</time>
      </trkpt>
      <trkpt lat="48.12531" lon="-3.62239">
        <ele>116.8</ele>
        <time>2023-04-05T13:37:48Z</time>
      </trkpt>
      <trkpt lat="48.12528" lon="-3.62247">
        <ele>116.6</ele>
        <time>2023-04-05T13:37:49Z</time>
      </trkpt>
      <trkpt lat="48.12525" lon="-3.62255">
        <ele>116.4</ele>
        <time>2023-04-05T13:37:50Z</time>
      </trkpt>
      <trkpt lat="48.12522" lon="-3.62263">
        <ele>116.2</ele>
        <time>2023-04-05T13:37:51Z</time>
      </trkpt>
      <trkpt lat="48.12518" lon="-3.62271">
        <ele>116</ele>
        <time>2023-04-05T13:37:52Z</time>
      </trkpt>
      <trkpt lat="48.12515" lon="-3.62277">
        <ele>115.9</ele>
        <time>2023-04-05T13:37:53Z</time>
      </trkpt>
      <trkpt lat="48.1251" lon="-3.62284">
        <ele>115.7</ele>
        <time>2023-04-05T13:37:54Z</time>
      </trkpt>
      <trkpt lat="48.12506" lon="-3.62291">
        <ele>115.5</ele>
        <time>2023-04-05T13:37:55Z</time>
      </trkpt>
      <trkpt lat="48.12502" lon="-3.62298">
        <ele>115.3</ele>
        <time>2023-04-05T13:37:56Z</time>
      </trkpt>
      <trkpt lat="48.12498" lon="-3.62305">
        <ele>115.2</ele>
        <time>2023-04-05T13:37:57Z</time>
      </trkpt>
      <trkpt lat="48.12493" lon="-3.62311">
        <ele>115</ele>
        <time>2023-04-05T13:37:58Z</time>
      </trkpt>
      <trkpt lat="48.12489" lon="-3.62318">
        <ele>114.9</ele>
        <time>2023-04-05T13:37:59Z</time>
      </trkpt>
      <trkpt lat="48.12485" lon="-3.62325">
        <ele>114.8</ele>
        <time>2023-04-05T13:38:00Z</time>
      </trkpt>
      <trkpt lat="48.1248" lon="-3.62331">
        <ele>114.6</ele>
        <time>2023-04-05T13:38:01Z</time>
      </trkpt>
      <trkpt lat="48.12476" lon="-3.62337">
        <ele>114.5</ele>
        <time>2023-04-05T13:38:02Z</time>
      </trkpt>
      <trkpt lat="48.12471" lon="-3.62343">
        <ele>114.4</ele>
        <time>2023-04-05T13:38:03Z</time>
      </trkpt>
      <trkpt lat="48.12467" lon="-3.62349">
        <ele>114.3</ele>
        <time>2023-04-05T13:38:04Z</time>
      </trkpt>
      <trkpt lat="48.12462" lon="-3.62356">
        <ele>114.1</ele>
        <time>2023-04-05T13:38:05Z</time>
      </trkpt>
      <trkpt lat="48.12458" lon="-3.62362">
        <ele>114</ele>
        <time>2023-04-05T13:38:06Z</time>
      </trkpt>
      <trkpt lat="48.12454" lon="-3.62367">
        <ele>113.9</ele>
        <time>2023-04-05T13:38:07Z</time>
      </trkpt>
      <trkpt lat="48.12449" lon="-3.62373">
        <ele>113.7</ele>
        <time>2023-04-05T13:38:08Z</time>
      </trkpt>
      <trkpt lat="48.12444" lon="-3.6238">
        <ele>113.6</ele>
        <time>2023-04-05T13:38:09Z</time>
      </trkpt>
      <trkpt lat="48.12439" lon="-3.62385">
        <ele>113.5</ele>
        <time>2023-04-05T13:38:10Z</time>
      </trkpt>
      <trkpt lat="48.12434" lon="-3.62391">
        <ele>113.4</ele>
        <time>2023-04-05T13:38:11Z</time>
      </trkpt>
      <trkpt lat="48.1243" lon="-3.62397">
        <ele>113.3</ele>
        <time>2023-04-05T13:38:12Z</time>
      </trkpt>
      <trkpt lat="48.12425" lon="-3.62403">
        <ele>113.2</ele>
        <time>2023-04-05T13:38:13Z</time>
      </trkpt>
      <trkpt lat="48.1242" lon="-3.62409">
        <ele>113.1</ele>
        <time>2023-04-05T13:38:14Z</time>
      </trkpt>
      <trkpt lat="48.12416" lon="-3.62415">
        <ele>113</ele>
        <time>2023-04-05T13:38:15Z</time>
      </trkpt>
      <trkpt lat="48.12411" lon="-3.62422">
        <ele>112.9</ele>
        <time>2023-04-05T13:38:16Z</time>
      </trkpt>
      <trkpt lat="48.12406" lon="-3.62428">
        <ele>112.9</ele>
        <time>2023-04-05T13:38:17Z</time>
      </trkpt>
      <trkpt lat="48.12402" lon="-3.62433">
        <ele>112.8</ele>
        <time>2023-04-05T13:38:18Z</time>
      </trkpt>
      <trkpt lat="48.12397" lon="-3.62439">
        <ele>112.7</ele>
        <time>2023-04-05T13:38:19Z</time>
      </trkpt>
      <trkpt lat="48.12393" lon="-3.62444">
        <ele>112.7</ele>
        <time>2023-04-05T13:38:20Z</time>
      </trkpt>
      <trkpt lat="48.12389" lon="-3.62449">
        <ele>112.7</ele>
        <time>2023-04-05T13:38:21Z</time>
      </trkpt>
      <trkpt lat="48.12385" lon="-3.62454">
        <ele>112.6</ele>
        <time>2023-04-05T13:38:22Z</time>
      </trkpt>
      <trkpt lat="48.12381" lon="-3.6246">
        <ele>112.6</ele>
        <time>2023-04-05T13:38:23Z</time>
      </trkpt>
      <trkpt lat="48.12378" lon="-3.62465">
        <ele>112.6</ele>
        <time>2023-04-05T13:38:24Z</time>
      </trkpt>
      <trkpt lat="48.12374" lon="-3.6247">
        <ele>112.6</ele>
        <time>2023-04-05T13:38:25Z</time>
      </trkpt>
      <trkpt lat="48.12369" lon="-3.62476">
        <ele>112.6</ele>
        <time>2023-04-05T13:38:26Z</time>
      </trkpt>
      <trkpt lat="48.12365" lon="-3.62481">
        <ele>112.6</ele>
        <time>2023-04-05T13:38:27Z</time>
      </trkpt>
      <trkpt lat="48.12361" lon="-3.62486">
        <ele>112.6</ele>
        <time>2023-04-05T13:38:28Z</time>
      </trkpt>
      <trkpt lat="48.12357" lon="-3.62491">
        <ele>112.6</ele>
        <time>2023-04-05T13:38:29Z</time>
      </trkpt>
      <trkpt lat="48.12353" lon="-3.62497">
        <ele>112.6</ele>
        <time>2023-04-05T13:38:30Z</time>
      </trkpt>
      <trkpt lat="48.1235" lon="-3.62502">
        <ele>112.6</ele>
        <time>2023-04-05T13:38:31Z</time>
      </trkpt>
      <trkpt lat="48.12346" lon="-3.62506">
        <ele>112.6</ele>
        <time>2023-04-05T13:38:32Z</time>
      </trkpt>
      <trkpt lat="48.12342" lon="-3.6251">
        <ele>112.6</ele>
        <time>2023-04-05T13:38:33Z</time>
      </trkpt>
      <trkpt lat="48.12339" lon="-3.62514">
        <ele>112.6</ele>
        <time>2023-04-05T13:38:34Z</time>
      </trkpt>
      <trkpt lat="48.12335" lon="-3.6252">
        <ele>112.6</ele>
        <time>2023-04-05T13:38:35Z</time>
      </trkpt>
      <trkpt lat="48.12331" lon="-3.62526">
        <ele>112.5</ele>
        <time>2023-04-05T13:38:36Z</time>
      </trkpt>
      <trkpt lat="48.12327" lon="-3.62532">
        <ele>112.5</ele>
        <time>2023-04-05T13:38:37Z</time>
      </trkpt>
      <trkpt lat="48.12324" lon="-3.62538">
        <ele>112.5</ele>
        <time>2023-04-05T13:38:38Z</time>
      </trkpt>
      <trkpt lat="48.1232" lon="-3.62543">
        <ele>112.5</ele>
        <time>2023-04-05T13:38:39Z</time>
      </trkpt>
      <trkpt lat="48.12315" lon="-3.62548">
        <ele>112.5</ele>
        <time>2023-04-05T13:38:40Z</time>
      </trkpt>
      <trkpt lat="48.12312" lon="-3.62553">
        <ele>112.5</ele>
        <time>2023-04-05T13:38:41Z</time>
      </trkpt>
      <trkpt lat="48.12308" lon="-3.62558">
        <ele>112.5</ele>
        <time>2023-04-05T13:38:42Z</time>
      </trkpt>
      <trkpt lat="48.12304" lon="-3.62562">
        <ele>112.5</ele>
        <time>2023-04-05T13:38:43Z</time>
      </trkpt>
      <trkpt lat="48.123" lon="-3.62567">
        <ele>112.5</ele>
        <time>2023-04-05T13:38:44Z</time>
      </trkpt>
      <trkpt lat="48.12296" lon="-3.62572">
        <ele>112.5</ele>
        <time>2023-04-05T13:38:45Z</time>
      </trkpt>
      <trkpt lat="48.12291" lon="-3.62577">
        <ele>112.5</ele>
        <time>2023-04-05T13:38:46Z</time>
      </trkpt>
      <trkpt lat="48.12287" lon="-3.6258">
        <ele>112.5</ele>
        <time>2023-04-05T13:38:47Z</time>
      </trkpt>
      <trkpt lat="48.12284" lon="-3.62584">
        <ele>112.5</ele>
        <time>2023-04-05T13:38:48Z</time>
      </trkpt>
      <trkpt lat="48.12279" lon="-3.6259">
        <ele>112.5</ele>
        <time>2023-04-05T13:38:49Z</time>
      </trkpt>
      <trkpt lat="48.12274" lon="-3.62596">
        <ele>112.5</ele>
        <time>2023-04-05T13:38:50Z</time>
      </trkpt>
      <trkpt lat="48.1227" lon="-3.62601">
        <ele>112.4</ele>
        <time>2023-04-05T13:38:51Z</time>
      </trkpt>
      <trkpt lat="48.12266" lon="-3.62606">
        <ele>112.4</ele>
        <time>2023-04-05T13:38:52Z</time>
      </trkpt>
      <trkpt lat="48.12262" lon="-3.62611">
        <ele>112.4</ele>
        <time>2023-04-05T13:38:53Z</time>
      </trkpt>
      <trkpt lat="48.12258" lon="-3.62617">
        <ele>112.3</ele>
        <time>2023-04-05T13:38:54Z</time>
      </trkpt>
      <trkpt lat="48.12254" lon="-3.62622">
        <ele>112.3</ele>
        <time>2023-04-05T13:38:55Z</time>
      </trkpt>
      <trkpt lat="48.12249" lon="-3.62628">
        <ele>112.3</ele>
        <time>2023-04-05T13:38:56Z</time>
      </trkpt>
      <trkpt lat="48.12244" lon="-3.62633">
        <ele>112.3</ele>
        <time>2023-04-05T13:38:57Z</time>
      </trkpt>
      <trkpt lat="48.12239" lon="-3.62639">
        <ele>112.3</ele>
        <time>2023-04-05T13:38:58Z</time>
      </trkpt>
      <trkpt lat="48.12235" lon="-3.62645">
        <ele>112.3</ele>
        <time>2023-04-05T13:38:59Z</time>
      </trkpt>
      <trkpt lat="48.1223" lon="-3.6265">
        <ele>112.2</ele>
        <time>2023-04-05T13:39:00Z</time>
      </trkpt>
      <trkpt lat="48.12226" lon="-3.62655">
        <ele>112.2</ele>
        <time>2023-04-05T13:39:01Z</time>
      </trkpt>
      <trkpt lat="48.12223" lon="-3.6266">
        <ele>112.2</ele>
        <time>2023-04-05T13:39:02Z</time>
      </trkpt>
      <trkpt lat="48.12219" lon="-3.62665">
        <ele>112.2</ele>
        <time>2023-04-05T13:39:03Z</time>
      </trkpt>
      <trkpt lat="48.12215" lon="-3.62671">
        <ele>112.2</ele>
        <time>2023-04-05T13:39:04Z</time>
      </trkpt>
      <trkpt lat="48.12211" lon="-3.62675">
        <ele>112.2</ele>
        <time>2023-04-05T13:39:05Z</time>
      </trkpt>
      <trkpt lat="48.12207" lon="-3.62679">
        <ele>112.2</ele>
        <time>2023-04-05T13:39:06Z</time>
      </trkpt>
      <trkpt lat="48.12205" lon="-3.62682">
        <ele>112.2</ele>
        <time>2023-04-05T13:39:07Z</time>
      </trkpt>
      <trkpt lat="48.12203" lon="-3.62686">
        <ele>112.2</ele>
        <time>2023-04-05T13:39:08Z</time>
      </trkpt>
      <trkpt lat="48.12198" lon="-3.62691">
        <ele>112.2</ele>
        <time>2023-04-05T13:39:09Z</time>
      </trkpt>
      <trkpt lat="48.12193" lon="-3.62696">
        <ele>112.2</ele>
        <time>2023-04-05T13:39:10Z</time>
      </trkpt>
      <trkpt lat="48.1219" lon="-3.62701">
        <ele>112.2</ele>
        <time>2023-04-05T13:39:11Z</time>
      </trkpt>
      <trkpt lat="48.12186" lon="-3.62705">
        <ele>112.2</ele>
        <time>2023-04-05T13:39:12Z</time>
      </trkpt>
      <trkpt lat="48.12179" lon="-3.62713">
        <ele>112.2</ele>
        <time>2023-04-05T13:39:13Z</time>
      </trkpt>
      <trkpt lat="48.12176" lon="-3.62716">
        <ele>112.2</ele>
        <time>2023-04-05T13:39:14Z</time>
      </trkpt>
      <trkpt lat="48.12173" lon="-3.6272">
        <ele>112.2</ele>
        <time>2023-04-05T13:39:15Z</time>
      </trkpt>
      <trkpt lat="48.12171" lon="-3.62724">
        <ele>112.2</ele>
        <time>2023-04-05T13:39:16Z</time>
      </trkpt>
      <trkpt lat="48.12168" lon="-3.62727">
        <ele>112.2</ele>
        <time>2023-04-05T13:39:17Z</time>
      </trkpt>
      <trkpt lat="48.12164" lon="-3.62734">
        <ele>112.2</ele>
        <time>2023-04-05T13:39:18Z</time>
      </trkpt>
      <trkpt lat="48.12161" lon="-3.62737">
        <ele>112.2</ele>
        <time>2023-04-05T13:39:20Z</time>
      </trkpt>
      <trkpt lat="48.1216" lon="-3.62738">
        <ele>112.3</ele>
        <time>2023-04-05T13:39:21Z</time>
      </trkpt>
      <trkpt lat="48.12156" lon="-3.62738">
        <ele>112.3</ele>
        <time>2023-04-05T13:39:22Z</time>
      </trkpt>
      <trkpt lat="48.12153" lon="-3.62739">
        <ele>112.3</ele>
        <time>2023-04-05T13:39:23Z</time>
      </trkpt>
      <trkpt lat="48.12152" lon="-3.62739">
        <ele>112.3</ele>
        <time>2023-04-05T13:39:24Z</time>
      </trkpt>
      <trkpt lat="48.12149" lon="-3.62739">
        <ele>112.3</ele>
        <time>2023-04-05T13:39:25Z</time>
      </trkpt>
      <trkpt lat="48.12147" lon="-3.6274">
        <ele>112.3</ele>
        <time>2023-04-05T13:39:26Z</time>
      </trkpt>
      <trkpt lat="48.12145" lon="-3.62742">
        <ele>112.3</ele>
        <time>2023-04-05T13:39:27Z</time>
      </trkpt>
      <trkpt lat="48.12141" lon="-3.62745">
        <ele>112.2</ele>
        <time>2023-04-05T13:39:28Z</time>
      </trkpt>
      <trkpt lat="48.12135" lon="-3.62751">
        <ele>111.7</ele>
        <time>2023-04-05T13:39:29Z</time>
      </trkpt>
      <trkpt lat="48.12127" lon="-3.6276">
        <ele>111.1</ele>
        <time>2023-04-05T13:39:31Z</time>
      </trkpt>
      <trkpt lat="48.12123" lon="-3.6277">
        <ele>110.8</ele>
        <time>2023-04-05T13:39:33Z</time>
      </trkpt>
      <trkpt lat="48.12121" lon="-3.62774">
        <ele>110.6</ele>
        <time>2023-04-05T13:39:34Z</time>
      </trkpt>
      <trkpt lat="48.12118" lon="-3.62783">
        <ele>110.3</ele>
        <time>2023-04-05T13:39:36Z</time>
      </trkpt>
      <trkpt lat="48.12114" lon="-3.62792">
        <ele>110.2</ele>
        <time>2023-04-05T13:39:37Z</time>
      </trkpt>
      <trkpt lat="48.12111" lon="-3.62797">
        <ele>110.3</ele>
        <time>2023-04-05T13:39:39Z</time>
      </trkpt>
      <trkpt lat="48.12106" lon="-3.62799">
        <ele>110.4</ele>
        <time>2023-04-05T13:39:40Z</time>
      </trkpt>
      <trkpt lat="48.12098" lon="-3.62794">
        <ele>110.5</ele>
        <time>2023-04-05T13:39:41Z</time>
      </trkpt>
      <trkpt lat="48.12093" lon="-3.62792">
        <ele>110.5</ele>
        <time>2023-04-05T13:39:42Z</time>
      </trkpt>
      <trkpt lat="48.12088" lon="-3.62789">
        <ele>110.5</ele>
        <time>2023-04-05T13:39:43Z</time>
      </trkpt>
      <trkpt lat="48.12082" lon="-3.62787">
        <ele>110.6</ele>
        <time>2023-04-05T13:39:44Z</time>
      </trkpt>
      <trkpt lat="48.12077" lon="-3.62785">
        <ele>110.6</ele>
        <time>2023-04-05T13:39:45Z</time>
      </trkpt>
      <trkpt lat="48.12072" lon="-3.62784">
        <ele>110.6</ele>
        <time>2023-04-05T13:39:46Z</time>
      </trkpt>
      <trkpt lat="48.12068" lon="-3.62783">
        <ele>110.7</ele>
        <time>2023-04-05T13:39:47Z</time>
      </trkpt>
      <trkpt lat="48.12063" lon="-3.62783">
        <ele>110.7</ele>
        <time>2023-04-05T13:39:48Z</time>
      </trkpt>
      <trkpt lat="48.12058" lon="-3.62785">
        <ele>110.7</ele>
        <time>2023-04-05T13:39:49Z</time>
      </trkpt>
      <trkpt lat="48.12053" lon="-3.62786">
        <ele>110.6</ele>
        <time>2023-04-05T13:39:50Z</time>
      </trkpt>
      <trkpt lat="48.12048" lon="-3.62787">
        <ele>110.6</ele>
        <time>2023-04-05T13:39:51Z</time>
      </trkpt>
      <trkpt lat="48.12043" lon="-3.62787">
        <ele>110.5</ele>
        <time>2023-04-05T13:39:52Z</time>
      </trkpt>
      <trkpt lat="48.12037" lon="-3.62788">
        <ele>110.4</ele>
        <time>2023-04-05T13:39:53Z</time>
      </trkpt>
      <trkpt lat="48.12032" lon="-3.62788">
        <ele>110.3</ele>
        <time>2023-04-05T13:39:54Z</time>
      </trkpt>
      <trkpt lat="48.12026" lon="-3.62788">
        <ele>110.2</ele>
        <time>2023-04-05T13:39:55Z</time>
      </trkpt>
      <trkpt lat="48.12021" lon="-3.62788">
        <ele>110.1</ele>
        <time>2023-04-05T13:39:56Z</time>
      </trkpt>
      <trkpt lat="48.12015" lon="-3.62787">
        <ele>110</ele>
        <time>2023-04-05T13:39:57Z</time>
      </trkpt>
      <trkpt lat="48.12009" lon="-3.62787">
        <ele>109.9</ele>
        <time>2023-04-05T13:39:58Z</time>
      </trkpt>
      <trkpt lat="48.12004" lon="-3.62787">
        <ele>109.8</ele>
        <time>2023-04-05T13:39:59Z</time>
      </trkpt>
      <trkpt lat="48.11998" lon="-3.62787">
        <ele>109.7</ele>
        <time>2023-04-05T13:40:00Z</time>
      </trkpt>
      <trkpt lat="48.11992" lon="-3.62787">
        <ele>109.7</ele>
        <time>2023-04-05T13:40:01Z</time>
      </trkpt>
      <trkpt lat="48.11986" lon="-3.62787">
        <ele>109.6</ele>
        <time>2023-04-05T13:40:02Z</time>
      </trkpt>
      <trkpt lat="48.1198" lon="-3.62786">
        <ele>109.5</ele>
        <time>2023-04-05T13:40:03Z</time>
      </trkpt>
      <trkpt lat="48.11974" lon="-3.62785">
        <ele>109.4</ele>
        <time>2023-04-05T13:40:04Z</time>
      </trkpt>
      <trkpt lat="48.11968" lon="-3.62784">
        <ele>109.3</ele>
        <time>2023-04-05T13:40:05Z</time>
      </trkpt>
      <trkpt lat="48.11962" lon="-3.62782">
        <ele>109.2</ele>
        <time>2023-04-05T13:40:06Z</time>
      </trkpt>
      <trkpt lat="48.11956" lon="-3.62781">
        <ele>109.1</ele>
        <time>2023-04-05T13:40:07Z</time>
      </trkpt>
      <trkpt lat="48.11951" lon="-3.62779">
        <ele>109.1</ele>
        <time>2023-04-05T13:40:08Z</time>
      </trkpt>
      <trkpt lat="48.11945" lon="-3.62778">
        <ele>109</ele>
        <time>2023-04-05T13:40:09Z</time>
      </trkpt>
      <trkpt lat="48.1194" lon="-3.62777">
        <ele>108.9</ele>
        <time>2023-04-05T13:40:10Z</time>
      </trkpt>
      <trkpt lat="48.11934" lon="-3.62776">
        <ele>108.8</ele>
        <time>2023-04-05T13:40:11Z</time>
      </trkpt>
      <trkpt lat="48.11928" lon="-3.62774">
        <ele>108.7</ele>
        <time>2023-04-05T13:40:12Z</time>
      </trkpt>
      <trkpt lat="48.11922" lon="-3.62772">
        <ele>108.6</ele>
        <time>2023-04-05T13:40:13Z</time>
      </trkpt>
      <trkpt lat="48.11916" lon="-3.62769">
        <ele>108.6</ele>
        <time>2023-04-05T13:40:14Z</time>
      </trkpt>
      <trkpt lat="48.1191" lon="-3.62767">
        <ele>108.5</ele>
        <time>2023-04-05T13:40:15Z</time>
      </trkpt>
      <trkpt lat="48.11904" lon="-3.62765">
        <ele>108.4</ele>
        <time>2023-04-05T13:40:16Z</time>
      </trkpt>
      <trkpt lat="48.11899" lon="-3.62764">
        <ele>108.4</ele>
        <time>2023-04-05T13:40:17Z</time>
      </trkpt>
      <trkpt lat="48.11893" lon="-3.62763">
        <ele>108.3</ele>
        <time>2023-04-05T13:40:18Z</time>
      </trkpt>
      <trkpt lat="48.11887" lon="-3.62762">
        <ele>108.3</ele>
        <time>2023-04-05T13:40:19Z</time>
      </trkpt>
      <trkpt lat="48.11881" lon="-3.62761">
        <ele>108.2</ele>
        <time>2023-04-05T13:40:20Z</time>
      </trkpt>
      <trkpt lat="48.11876" lon="-3.6276">
        <ele>108.1</ele>
        <time>2023-04-05T13:40:21Z</time>
      </trkpt>
      <trkpt lat="48.1187" lon="-3.62759">
        <ele>108.1</ele>
        <time>2023-04-05T13:40:22Z</time>
      </trkpt>
      <trkpt lat="48.11865" lon="-3.62757">
        <ele>108</ele>
        <time>2023-04-05T13:40:23Z</time>
      </trkpt>
      <trkpt lat="48.11859" lon="-3.62756">
        <ele>107.9</ele>
        <time>2023-04-05T13:40:24Z</time>
      </trkpt>
      <trkpt lat="48.11854" lon="-3.62755">
        <ele>107.9</ele>
        <time>2023-04-05T13:40:25Z</time>
      </trkpt>
      <trkpt lat="48.11848" lon="-3.62754">
        <ele>107.8</ele>
        <time>2023-04-05T13:40:26Z</time>
      </trkpt>
      <trkpt lat="48.11843" lon="-3.62753">
        <ele>107.7</ele>
        <time>2023-04-05T13:40:27Z</time>
      </trkpt>
      <trkpt lat="48.11837" lon="-3.62751">
        <ele>107.7</ele>
        <time>2023-04-05T13:40:28Z</time>
      </trkpt>
      <trkpt lat="48.11831" lon="-3.6275">
        <ele>107.6</ele>
        <time>2023-04-05T13:40:29Z</time>
      </trkpt>
      <trkpt lat="48.11826" lon="-3.62748">
        <ele>107.6</ele>
        <time>2023-04-05T13:40:30Z</time>
      </trkpt>
      <trkpt lat="48.1182" lon="-3.62746">
        <ele>107.6</ele>
        <time>2023-04-05T13:40:31Z</time>
      </trkpt>
      <trkpt lat="48.11815" lon="-3.62745">
        <ele>107.6</ele>
        <time>2023-04-05T13:40:32Z</time>
      </trkpt>
      <trkpt lat="48.1181" lon="-3.62744">
        <ele>107.5</ele>
        <time>2023-04-05T13:40:33Z</time>
      </trkpt>
      <trkpt lat="48.11805" lon="-3.62743">
        <ele>107.5</ele>
        <time>2023-04-05T13:40:34Z</time>
      </trkpt>
      <trkpt lat="48.11799" lon="-3.62743">
        <ele>107.5</ele>
        <time>2023-04-05T13:40:35Z</time>
      </trkpt>
      <trkpt lat="48.11794" lon="-3.62742">
        <ele>107.5</ele>
        <time>2023-04-05T13:40:36Z</time>
      </trkpt>
      <trkpt lat="48.11789" lon="-3.62741">
        <ele>107.5</ele>
        <time>2023-04-05T13:40:37Z</time>
      </trkpt>
      <trkpt lat="48.11783" lon="-3.62741">
        <ele>107.5</ele>
        <time>2023-04-05T13:40:38Z</time>
      </trkpt>
      <trkpt lat="48.11778" lon="-3.62739">
        <ele>107.5</ele>
        <time>2023-04-05T13:40:39Z</time>
      </trkpt>
      <trkpt lat="48.11773" lon="-3.62739">
        <ele>107.5</ele>
        <time>2023-04-05T13:40:40Z</time>
      </trkpt>
      <trkpt lat="48.11767" lon="-3.62739">
        <ele>107.6</ele>
        <time>2023-04-05T13:40:41Z</time>
      </trkpt>
      <trkpt lat="48.11761" lon="-3.62738">
        <ele>107.6</ele>
        <time>2023-04-05T13:40:42Z</time>
      </trkpt>
      <trkpt lat="48.11756" lon="-3.62738">
        <ele>107.6</ele>
        <time>2023-04-05T13:40:43Z</time>
      </trkpt>
      <trkpt lat="48.1175" lon="-3.62737">
        <ele>107.6</ele>
        <time>2023-04-05T13:40:44Z</time>
      </trkpt>
      <trkpt lat="48.11744" lon="-3.62736">
        <ele>107.6</ele>
        <time>2023-04-05T13:40:45Z</time>
      </trkpt>
      <trkpt lat="48.11738" lon="-3.62736">
        <ele>107.6</ele>
        <time>2023-04-05T13:40:46Z</time>
      </trkpt>
      <trkpt lat="48.11733" lon="-3.62736">
        <ele>107.7</ele>
        <time>2023-04-05T13:40:47Z</time>
      </trkpt>
      <trkpt lat="48.11727" lon="-3.62736">
        <ele>107.7</ele>
        <time>2023-04-05T13:40:48Z</time>
      </trkpt>
      <trkpt lat="48.11722" lon="-3.62737">
        <ele>107.7</ele>
        <time>2023-04-05T13:40:49Z</time>
      </trkpt>
      <trkpt lat="48.11716" lon="-3.62736">
        <ele>107.7</ele>
        <time>2023-04-05T13:40:50Z</time>
      </trkpt>
      <trkpt lat="48.11711" lon="-3.62737">
        <ele>107.7</ele>
        <time>2023-04-05T13:40:51Z</time>
      </trkpt>
      <trkpt lat="48.11706" lon="-3.62738">
        <ele>107.7</ele>
        <time>2023-04-05T13:40:52Z</time>
      </trkpt>
      <trkpt lat="48.117" lon="-3.62739">
        <ele>107.7</ele>
        <time>2023-04-05T13:40:53Z</time>
      </trkpt>
      <trkpt lat="48.11694" lon="-3.6274">
        <ele>107.7</ele>
        <time>2023-04-05T13:40:54Z</time>
      </trkpt>
      <trkpt lat="48.11689" lon="-3.6274">
        <ele>107.7</ele>
        <time>2023-04-05T13:40:55Z</time>
      </trkpt>
      <trkpt lat="48.11683" lon="-3.62741">
        <ele>107.7</ele>
        <time>2023-04-05T13:40:56Z</time>
      </trkpt>
      <trkpt lat="48.11678" lon="-3.62742">
        <ele>107.7</ele>
        <time>2023-04-05T13:40:57Z</time>
      </trkpt>
      <trkpt lat="48.11672" lon="-3.62743">
        <ele>107.7</ele>
        <time>2023-04-05T13:40:58Z</time>
      </trkpt>
      <trkpt lat="48.11667" lon="-3.62745">
        <ele>107.7</ele>
        <time>2023-04-05T13:40:59Z</time>
      </trkpt>
      <trkpt lat="48.11662" lon="-3.62746">
        <ele>107.7</ele>
        <time>2023-04-05T13:41:00Z</time>
      </trkpt>
      <trkpt lat="48.11657" lon="-3.62748">
        <ele>107.6</ele>
        <time>2023-04-05T13:41:01Z</time>
      </trkpt>
      <trkpt lat="48.11652" lon="-3.6275">
        <ele>107.6</ele>
        <time>2023-04-05T13:41:02Z</time>
      </trkpt>
      <trkpt lat="48.11647" lon="-3.62752">
        <ele>107.6</ele>
        <time>2023-04-05T13:41:03Z</time>
      </trkpt>
      <trkpt lat="48.11641" lon="-3.62754">
        <ele>107.6</ele>
        <time>2023-04-05T13:41:04Z</time>
      </trkpt>
      <trkpt lat="48.11635" lon="-3.62756">
        <ele>107.5</ele>
        <time>2023-04-05T13:41:05Z</time>
      </trkpt>
      <trkpt lat="48.1163" lon="-3.62758">
        <ele>107.5</ele>
        <time>2023-04-05T13:41:06Z</time>
      </trkpt>
      <trkpt lat="48.11625" lon="-3.6276">
        <ele>107.5</ele>
        <time>2023-04-05T13:41:07Z</time>
      </trkpt>
      <trkpt lat="48.11619" lon="-3.62762">
        <ele>107.5</ele>
        <time>2023-04-05T13:41:08Z</time>
      </trkpt>
      <trkpt lat="48.11614" lon="-3.62764">
        <ele>107.5</ele>
        <time>2023-04-05T13:41:09Z</time>
      </trkpt>
      <trkpt lat="48.11609" lon="-3.62765">
        <ele>107.5</ele>
        <time>2023-04-05T13:41:10Z</time>
      </trkpt>
      <trkpt lat="48.11604" lon="-3.62767">
        <ele>107.5</ele>
        <time>2023-04-05T13:41:11Z</time>
      </trkpt>
      <trkpt lat="48.11598" lon="-3.62769">
        <ele>107.5</ele>
        <time>2023-04-05T13:41:12Z</time>
      </trkpt>
      <trkpt lat="48.11592" lon="-3.6277">
        <ele>107.5</ele>
        <time>2023-04-05T13:41:13Z</time>
      </trkpt>
      <trkpt lat="48.11587" lon="-3.62771">
        <ele>107.4</ele>
        <time>2023-04-05T13:41:14Z</time>
      </trkpt>
      <trkpt lat="48.11583" lon="-3.62773">
        <ele>107.4</ele>
        <time>2023-04-05T13:41:15Z</time>
      </trkpt>
      <trkpt lat="48.11579" lon="-3.62774">
        <ele>107.4</ele>
        <time>2023-04-05T13:41:16Z</time>
      </trkpt>
      <trkpt lat="48.11572" lon="-3.62777">
        <ele>107.4</ele>
        <time>2023-04-05T13:41:17Z</time>
      </trkpt>
      <trkpt lat="48.11566" lon="-3.62779">
        <ele>107.4</ele>
        <time>2023-04-05T13:41:18Z</time>
      </trkpt>
      <trkpt lat="48.1156" lon="-3.62781">
        <ele>107.3</ele>
        <time>2023-04-05T13:41:19Z</time>
      </trkpt>
      <trkpt lat="48.11554" lon="-3.62783">
        <ele>107.3</ele>
        <time>2023-04-05T13:41:20Z</time>
      </trkpt>
      <trkpt lat="48.11548" lon="-3.62785">
        <ele>107.3</ele>
        <time>2023-04-05T13:41:21Z</time>
      </trkpt>
      <trkpt lat="48.11541" lon="-3.62787">
        <ele>107.3</ele>
        <time>2023-04-05T13:41:22Z</time>
      </trkpt>
      <trkpt lat="48.11536" lon="-3.62789">
        <ele>107.3</ele>
        <time>2023-04-05T13:41:23Z</time>
      </trkpt>
      <trkpt lat="48.1153" lon="-3.62792">
        <ele>107.3</ele>
        <time>2023-04-05T13:41:24Z</time>
      </trkpt>
      <trkpt lat="48.11525" lon="-3.62794">
        <ele>107.3</ele>
        <time>2023-04-05T13:41:25Z</time>
      </trkpt>
      <trkpt lat="48.11519" lon="-3.62796">
        <ele>107.3</ele>
        <time>2023-04-05T13:41:26Z</time>
      </trkpt>
      <trkpt lat="48.11514" lon="-3.62798">
        <ele>107.4</ele>
        <time>2023-04-05T13:41:27Z</time>
      </trkpt>
      <trkpt lat="48.1151" lon="-3.62799">
        <ele>107.4</ele>
        <time>2023-04-05T13:41:28Z</time>
      </trkpt>
      <trkpt lat="48.11504" lon="-3.62801">
        <ele>107.4</ele>
        <time>2023-04-05T13:41:29Z</time>
      </trkpt>
      <trkpt lat="48.11501" lon="-3.62802">
        <ele>107.4</ele>
        <time>2023-04-05T13:41:30Z</time>
      </trkpt>
      <trkpt lat="48.11494" lon="-3.62804">
        <ele>107.4</ele>
        <time>2023-04-05T13:41:31Z</time>
      </trkpt>
      <trkpt lat="48.11489" lon="-3.62806">
        <ele>107.4</ele>
        <time>2023-04-05T13:41:32Z</time>
      </trkpt>
      <trkpt lat="48.11483" lon="-3.62809">
        <ele>107.4</ele>
        <time>2023-04-05T13:41:33Z</time>
      </trkpt>
      <trkpt lat="48.11478" lon="-3.62811">
        <ele>107.4</ele>
        <time>2023-04-05T13:41:34Z</time>
      </trkpt>
      <trkpt lat="48.11472" lon="-3.62813">
        <ele>107.4</ele>
        <time>2023-04-05T13:41:35Z</time>
      </trkpt>
      <trkpt lat="48.11467" lon="-3.62815">
        <ele>107.4</ele>
        <time>2023-04-05T13:41:36Z</time>
      </trkpt>
      <trkpt lat="48.11461" lon="-3.62817">
        <ele>107.4</ele>
        <time>2023-04-05T13:41:37Z</time>
      </trkpt>
      <trkpt lat="48.11456" lon="-3.6282">
        <ele>107.4</ele>
        <time>2023-04-05T13:41:38Z</time>
      </trkpt>
      <trkpt lat="48.11451" lon="-3.62823">
        <ele>107.4</ele>
        <time>2023-04-05T13:41:39Z</time>
      </trkpt>
      <trkpt lat="48.11446" lon="-3.62825">
        <ele>107.4</ele>
        <time>2023-04-05T13:41:40Z</time>
      </trkpt>
      <trkpt lat="48.11441" lon="-3.62827">
        <ele>107.4</ele>
        <time>2023-04-05T13:41:41Z</time>
      </trkpt>
      <trkpt lat="48.11437" lon="-3.62829">
        <ele>107.4</ele>
        <time>2023-04-05T13:41:42Z</time>
      </trkpt>
      <trkpt lat="48.11432" lon="-3.62831">
        <ele>107.4</ele>
        <time>2023-04-05T13:41:43Z</time>
      </trkpt>
      <trkpt lat="48.11427" lon="-3.62833">
        <ele>107.4</ele>
        <time>2023-04-05T13:41:44Z</time>
      </trkpt>
      <trkpt lat="48.11422" lon="-3.62835">
        <ele>107.4</ele>
        <time>2023-04-05T13:41:45Z</time>
      </trkpt>
      <trkpt lat="48.11416" lon="-3.62837">
        <ele>107.4</ele>
        <time>2023-04-05T13:41:46Z</time>
      </trkpt>
      <trkpt lat="48.11411" lon="-3.62839">
        <ele>107.3</ele>
        <time>2023-04-05T13:41:47Z</time>
      </trkpt>
      <trkpt lat="48.11406" lon="-3.62841">
        <ele>107.3</ele>
        <time>2023-04-05T13:41:48Z</time>
      </trkpt>
      <trkpt lat="48.114" lon="-3.62843">
        <ele>107.3</ele>
        <time>2023-04-05T13:41:49Z</time>
      </trkpt>
      <trkpt lat="48.11395" lon="-3.62845">
        <ele>107.3</ele>
        <time>2023-04-05T13:41:50Z</time>
      </trkpt>
      <trkpt lat="48.1139" lon="-3.62847">
        <ele>107.3</ele>
        <time>2023-04-05T13:41:51Z</time>
      </trkpt>
      <trkpt lat="48.11385" lon="-3.62849">
        <ele>107.3</ele>
        <time>2023-04-05T13:41:52Z</time>
      </trkpt>
      <trkpt lat="48.1138" lon="-3.62851">
        <ele>107.3</ele>
        <time>2023-04-05T13:41:53Z</time>
      </trkpt>
      <trkpt lat="48.11375" lon="-3.62853">
        <ele>107.3</ele>
        <time>2023-04-05T13:41:54Z</time>
      </trkpt>
      <trkpt lat="48.1137" lon="-3.62854">
        <ele>107.3</ele>
        <time>2023-04-05T13:41:55Z</time>
      </trkpt>
      <trkpt lat="48.11365" lon="-3.62855">
        <ele>107.3</ele>
        <time>2023-04-05T13:41:56Z</time>
      </trkpt>
      <trkpt lat="48.1136" lon="-3.62857">
        <ele>107.3</ele>
        <time>2023-04-05T13:41:57Z</time>
      </trkpt>
      <trkpt lat="48.11355" lon="-3.62859">
        <ele>107.2</ele>
        <time>2023-04-05T13:41:58Z</time>
      </trkpt>
      <trkpt lat="48.11349" lon="-3.6286">
        <ele>107.2</ele>
        <time>2023-04-05T13:41:59Z</time>
      </trkpt>
      <trkpt lat="48.11344" lon="-3.62862">
        <ele>107.1</ele>
        <time>2023-04-05T13:42:00Z</time>
      </trkpt>
      <trkpt lat="48.11339" lon="-3.62864">
        <ele>107.1</ele>
        <time>2023-04-05T13:42:01Z</time>
      </trkpt>
      <trkpt lat="48.11333" lon="-3.62866">
        <ele>107</ele>
        <time>2023-04-05T13:42:02Z</time>
      </trkpt>
      <trkpt lat="48.11327" lon="-3.62868">
        <ele>107</ele>
        <time>2023-04-05T13:42:03Z</time>
      </trkpt>
      <trkpt lat="48.11322" lon="-3.6287">
        <ele>106.9</ele>
        <time>2023-04-05T13:42:04Z</time>
      </trkpt>
      <trkpt lat="48.11317" lon="-3.62872">
        <ele>106.9</ele>
        <time>2023-04-05T13:42:05Z</time>
      </trkpt>
      <trkpt lat="48.11311" lon="-3.62874">
        <ele>106.9</ele>
        <time>2023-04-05T13:42:06Z</time>
      </trkpt>
      <trkpt lat="48.11306" lon="-3.62877">
        <ele>106.9</ele>
        <time>2023-04-05T13:42:07Z</time>
      </trkpt>
      <trkpt lat="48.11301" lon="-3.62879">
        <ele>106.9</ele>
        <time>2023-04-05T13:42:08Z</time>
      </trkpt>
      <trkpt lat="48.11296" lon="-3.62881">
        <ele>106.9</ele>
        <time>2023-04-05T13:42:09Z</time>
      </trkpt>
      <trkpt lat="48.11291" lon="-3.62883">
        <ele>106.9</ele>
        <time>2023-04-05T13:42:10Z</time>
      </trkpt>
      <trkpt lat="48.11285" lon="-3.62885">
        <ele>106.9</ele>
        <time>2023-04-05T13:42:11Z</time>
      </trkpt>
      <trkpt lat="48.1128" lon="-3.62887">
        <ele>106.9</ele>
        <time>2023-04-05T13:42:12Z</time>
      </trkpt>
      <trkpt lat="48.11275" lon="-3.62889">
        <ele>107</ele>
        <time>2023-04-05T13:42:13Z</time>
      </trkpt>
      <trkpt lat="48.1127" lon="-3.6289">
        <ele>107</ele>
        <time>2023-04-05T13:42:14Z</time>
      </trkpt>
      <trkpt lat="48.11265" lon="-3.62892">
        <ele>107</ele>
        <time>2023-04-05T13:42:15Z</time>
      </trkpt>
      <trkpt lat="48.11259" lon="-3.62894">
        <ele>107</ele>
        <time>2023-04-05T13:42:16Z</time>
      </trkpt>
      <trkpt lat="48.11254" lon="-3.62896">
        <ele>106.9</ele>
        <time>2023-04-05T13:42:17Z</time>
      </trkpt>
      <trkpt lat="48.11249" lon="-3.62898">
        <ele>106.9</ele>
        <time>2023-04-05T13:42:18Z</time>
      </trkpt>
      <trkpt lat="48.11244" lon="-3.629">
        <ele>106.9</ele>
        <time>2023-04-05T13:42:19Z</time>
      </trkpt>
      <trkpt lat="48.11239" lon="-3.62902">
        <ele>106.9</ele>
        <time>2023-04-05T13:42:20Z</time>
      </trkpt>
      <trkpt lat="48.11233" lon="-3.62904">
        <ele>106.8</ele>
        <time>2023-04-05T13:42:21Z</time>
      </trkpt>
      <trkpt lat="48.11228" lon="-3.62905">
        <ele>106.8</ele>
        <time>2023-04-05T13:42:22Z</time>
      </trkpt>
      <trkpt lat="48.11222" lon="-3.62907">
        <ele>106.8</ele>
        <time>2023-04-05T13:42:23Z</time>
      </trkpt>
      <trkpt lat="48.11217" lon="-3.62909">
        <ele>106.8</ele>
        <time>2023-04-05T13:42:24Z</time>
      </trkpt>
      <trkpt lat="48.11212" lon="-3.62911">
        <ele>106.7</ele>
        <time>2023-04-05T13:42:25Z</time>
      </trkpt>
      <trkpt lat="48.11206" lon="-3.62912">
        <ele>106.7</ele>
        <time>2023-04-05T13:42:26Z</time>
      </trkpt>
      <trkpt lat="48.11201" lon="-3.62915">
        <ele>106.7</ele>
        <time>2023-04-05T13:42:27Z</time>
      </trkpt>
      <trkpt lat="48.11195" lon="-3.62917">
        <ele>106.7</ele>
        <time>2023-04-05T13:42:28Z</time>
      </trkpt>
      <trkpt lat="48.1119" lon="-3.62919">
        <ele>106.7</ele>
        <time>2023-04-05T13:42:29Z</time>
      </trkpt>
      <trkpt lat="48.11185" lon="-3.62921">
        <ele>106.7</ele>
        <time>2023-04-05T13:42:30Z</time>
      </trkpt>
      <trkpt lat="48.1118" lon="-3.62923">
        <ele>106.7</ele>
        <time>2023-04-05T13:42:31Z</time>
      </trkpt>
      <trkpt lat="48.11174" lon="-3.62925">
        <ele>106.7</ele>
        <time>2023-04-05T13:42:32Z</time>
      </trkpt>
      <trkpt lat="48.11169" lon="-3.62928">
        <ele>106.7</ele>
        <time>2023-04-05T13:42:33Z</time>
      </trkpt>
      <trkpt lat="48.11163" lon="-3.62929">
        <ele>106.7</ele>
        <time>2023-04-05T13:42:34Z</time>
      </trkpt>
      <trkpt lat="48.11158" lon="-3.62931">
        <ele>106.7</ele>
        <time>2023-04-05T13:42:35Z</time>
      </trkpt>
      <trkpt lat="48.11153" lon="-3.62933">
        <ele>106.7</ele>
        <time>2023-04-05T13:42:36Z</time>
      </trkpt>
      <trkpt lat="48.11147" lon="-3.62934">
        <ele>106.6</ele>
        <time>2023-04-05T13:42:37Z</time>
      </trkpt>
      <trkpt lat="48.11142" lon="-3.62936">
        <ele>106.6</ele>
        <time>2023-04-05T13:42:38Z</time>
      </trkpt>
      <trkpt lat="48.11137" lon="-3.62938">
        <ele>106.5</ele>
        <time>2023-04-05T13:42:39Z</time>
      </trkpt>
      <trkpt lat="48.11132" lon="-3.6294">
        <ele>106.5</ele>
        <time>2023-04-05T13:42:40Z</time>
      </trkpt>
      <trkpt lat="48.11127" lon="-3.62943">
        <ele>106.4</ele>
        <time>2023-04-05T13:42:41Z</time>
      </trkpt>
      <trkpt lat="48.11121" lon="-3.62945">
        <ele>106.4</ele>
        <time>2023-04-05T13:42:42Z</time>
      </trkpt>
      <trkpt lat="48.11116" lon="-3.62947">
        <ele>106.4</ele>
        <time>2023-04-05T13:42:43Z</time>
      </trkpt>
      <trkpt lat="48.1111" lon="-3.62949">
        <ele>106.3</ele>
        <time>2023-04-05T13:42:44Z</time>
      </trkpt>
      <trkpt lat="48.11105" lon="-3.6295">
        <ele>106.3</ele>
        <time>2023-04-05T13:42:45Z</time>
      </trkpt>
      <trkpt lat="48.11099" lon="-3.62951">
        <ele>106.3</ele>
        <time>2023-04-05T13:42:46Z</time>
      </trkpt>
      <trkpt lat="48.11094" lon="-3.62952">
        <ele>106.3</ele>
        <time>2023-04-05T13:42:47Z</time>
      </trkpt>
      <trkpt lat="48.11089" lon="-3.62953">
        <ele>106.3</ele>
        <time>2023-04-05T13:42:48Z</time>
      </trkpt>
      <trkpt lat="48.11084" lon="-3.62954">
        <ele>106.3</ele>
        <time>2023-04-05T13:42:49Z</time>
      </trkpt>
      <trkpt lat="48.11079" lon="-3.62954">
        <ele>106.2</ele>
        <time>2023-04-05T13:42:50Z</time>
      </trkpt>
      <trkpt lat="48.11074" lon="-3.62955">
        <ele>106.2</ele>
        <time>2023-04-05T13:42:51Z</time>
      </trkpt>
      <trkpt lat="48.11069" lon="-3.62955">
        <ele>106.2</ele>
        <time>2023-04-05T13:42:52Z</time>
      </trkpt>
      <trkpt lat="48.11063" lon="-3.62956">
        <ele>106.2</ele>
        <time>2023-04-05T13:42:53Z</time>
      </trkpt>
      <trkpt lat="48.11058" lon="-3.62957">
        <ele>106.2</ele>
        <time>2023-04-05T13:42:54Z</time>
      </trkpt>
      <trkpt lat="48.11053" lon="-3.62958">
        <ele>106.1</ele>
        <time>2023-04-05T13:42:55Z</time>
      </trkpt>
      <trkpt lat="48.11048" lon="-3.62959">
        <ele>106.1</ele>
        <time>2023-04-05T13:42:56Z</time>
      </trkpt>
      <trkpt lat="48.11043" lon="-3.6296">
        <ele>106.1</ele>
        <time>2023-04-05T13:42:57Z</time>
      </trkpt>
      <trkpt lat="48.11038" lon="-3.6296">
        <ele>106.1</ele>
        <time>2023-04-05T13:42:58Z</time>
      </trkpt>
      <trkpt lat="48.11032" lon="-3.62961">
        <ele>106</ele>
        <time>2023-04-05T13:42:59Z</time>
      </trkpt>
      <trkpt lat="48.11027" lon="-3.62962">
        <ele>106</ele>
        <time>2023-04-05T13:43:00Z</time>
      </trkpt>
      <trkpt lat="48.11022" lon="-3.62963">
        <ele>106</ele>
        <time>2023-04-05T13:43:01Z</time>
      </trkpt>
      <trkpt lat="48.11017" lon="-3.62963">
        <ele>106</ele>
        <time>2023-04-05T13:43:02Z</time>
      </trkpt>
      <trkpt lat="48.11011" lon="-3.62963">
        <ele>105.9</ele>
        <time>2023-04-05T13:43:03Z</time>
      </trkpt>
      <trkpt lat="48.11005" lon="-3.62963">
        <ele>105.9</ele>
        <time>2023-04-05T13:43:04Z</time>
      </trkpt>
      <trkpt lat="48.11" lon="-3.62964">
        <ele>105.9</ele>
        <time>2023-04-05T13:43:05Z</time>
      </trkpt>
      <trkpt lat="48.10995" lon="-3.62965">
        <ele>105.8</ele>
        <time>2023-04-05T13:43:06Z</time>
      </trkpt>
      <trkpt lat="48.10989" lon="-3.62965">
        <ele>105.8</ele>
        <time>2023-04-05T13:43:07Z</time>
      </trkpt>
      <trkpt lat="48.10984" lon="-3.62965">
        <ele>105.8</ele>
        <time>2023-04-05T13:43:08Z</time>
      </trkpt>
      <trkpt lat="48.10978" lon="-3.62966">
        <ele>105.8</ele>
        <time>2023-04-05T13:43:09Z</time>
      </trkpt>
      <trkpt lat="48.10973" lon="-3.62967">
        <ele>105.8</ele>
        <time>2023-04-05T13:43:10Z</time>
      </trkpt>
      <trkpt lat="48.10967" lon="-3.62967">
        <ele>105.8</ele>
        <time>2023-04-05T13:43:11Z</time>
      </trkpt>
      <trkpt lat="48.10962" lon="-3.62968">
        <ele>105.8</ele>
        <time>2023-04-05T13:43:12Z</time>
      </trkpt>
      <trkpt lat="48.10957" lon="-3.62968">
        <ele>105.7</ele>
        <time>2023-04-05T13:43:13Z</time>
      </trkpt>
      <trkpt lat="48.10951" lon="-3.62969">
        <ele>105.7</ele>
        <time>2023-04-05T13:43:14Z</time>
      </trkpt>
      <trkpt lat="48.10946" lon="-3.62969">
        <ele>105.7</ele>
        <time>2023-04-05T13:43:15Z</time>
      </trkpt>
      <trkpt lat="48.1094" lon="-3.6297">
        <ele>105.7</ele>
        <time>2023-04-05T13:43:16Z</time>
      </trkpt>
      <trkpt lat="48.10935" lon="-3.6297">
        <ele>105.7</ele>
        <time>2023-04-05T13:43:17Z</time>
      </trkpt>
      <trkpt lat="48.1093" lon="-3.6297">
        <ele>105.6</ele>
        <time>2023-04-05T13:43:18Z</time>
      </trkpt>
      <trkpt lat="48.10924" lon="-3.6297">
        <ele>105.6</ele>
        <time>2023-04-05T13:43:19Z</time>
      </trkpt>
      <trkpt lat="48.10919" lon="-3.6297">
        <ele>105.5</ele>
        <time>2023-04-05T13:43:20Z</time>
      </trkpt>
      <trkpt lat="48.10913" lon="-3.6297">
        <ele>105.5</ele>
        <time>2023-04-05T13:43:21Z</time>
      </trkpt>
      <trkpt lat="48.10908" lon="-3.6297">
        <ele>105.4</ele>
        <time>2023-04-05T13:43:22Z</time>
      </trkpt>
      <trkpt lat="48.10903" lon="-3.6297">
        <ele>105.4</ele>
        <time>2023-04-05T13:43:23Z</time>
      </trkpt>
      <trkpt lat="48.10897" lon="-3.62971">
        <ele>105.3</ele>
        <time>2023-04-05T13:43:24Z</time>
      </trkpt>
      <trkpt lat="48.10892" lon="-3.62971">
        <ele>105.3</ele>
        <time>2023-04-05T13:43:25Z</time>
      </trkpt>
      <trkpt lat="48.10887" lon="-3.62972">
        <ele>105.3</ele>
        <time>2023-04-05T13:43:26Z</time>
      </trkpt>
      <trkpt lat="48.10882" lon="-3.62972">
        <ele>105.2</ele>
        <time>2023-04-05T13:43:27Z</time>
      </trkpt>
      <trkpt lat="48.10876" lon="-3.62973">
        <ele>105.2</ele>
        <time>2023-04-05T13:43:28Z</time>
      </trkpt>
      <trkpt lat="48.10871" lon="-3.62973">
        <ele>105.2</ele>
        <time>2023-04-05T13:43:29Z</time>
      </trkpt>
      <trkpt lat="48.10866" lon="-3.62973">
        <ele>105.2</ele>
        <time>2023-04-05T13:43:30Z</time>
      </trkpt>
      <trkpt lat="48.1086" lon="-3.62973">
        <ele>105.1</ele>
        <time>2023-04-05T13:43:31Z</time>
      </trkpt>
      <trkpt lat="48.10855" lon="-3.62974">
        <ele>105.1</ele>
        <time>2023-04-05T13:43:32Z</time>
      </trkpt>
      <trkpt lat="48.1085" lon="-3.62974">
        <ele>105.1</ele>
        <time>2023-04-05T13:43:33Z</time>
      </trkpt>
      <trkpt lat="48.10844" lon="-3.62975">
        <ele>105.2</ele>
        <time>2023-04-05T13:43:34Z</time>
      </trkpt>
      <trkpt lat="48.10839" lon="-3.62975">
        <ele>105.2</ele>
        <time>2023-04-05T13:43:35Z</time>
      </trkpt>
      <trkpt lat="48.10834" lon="-3.62976">
        <ele>105.2</ele>
        <time>2023-04-05T13:43:36Z</time>
      </trkpt>
      <trkpt lat="48.10829" lon="-3.62977">
        <ele>105.2</ele>
        <time>2023-04-05T13:43:37Z</time>
      </trkpt>
      <trkpt lat="48.10824" lon="-3.62977">
        <ele>105.2</ele>
        <time>2023-04-05T13:43:38Z</time>
      </trkpt>
      <trkpt lat="48.10819" lon="-3.62978">
        <ele>105.2</ele>
        <time>2023-04-05T13:43:39Z</time>
      </trkpt>
      <trkpt lat="48.10814" lon="-3.62978">
        <ele>105.2</ele>
        <time>2023-04-05T13:43:40Z</time>
      </trkpt>
      <trkpt lat="48.10809" lon="-3.62979">
        <ele>105.2</ele>
        <time>2023-04-05T13:43:41Z</time>
      </trkpt>
      <trkpt lat="48.10804" lon="-3.6298">
        <ele>105.1</ele>
        <time>2023-04-05T13:43:42Z</time>
      </trkpt>
      <trkpt lat="48.10798" lon="-3.6298">
        <ele>105.1</ele>
        <time>2023-04-05T13:43:43Z</time>
      </trkpt>
      <trkpt lat="48.10793" lon="-3.62981">
        <ele>105</ele>
        <time>2023-04-05T13:43:44Z</time>
      </trkpt>
      <trkpt lat="48.10787" lon="-3.62981">
        <ele>105</ele>
        <time>2023-04-05T13:43:45Z</time>
      </trkpt>
      <trkpt lat="48.10781" lon="-3.62982">
        <ele>104.9</ele>
        <time>2023-04-05T13:43:46Z</time>
      </trkpt>
      <trkpt lat="48.10776" lon="-3.62982">
        <ele>104.9</ele>
        <time>2023-04-05T13:43:47Z</time>
      </trkpt>
      <trkpt lat="48.1077" lon="-3.62983">
        <ele>104.9</ele>
        <time>2023-04-05T13:43:48Z</time>
      </trkpt>
      <trkpt lat="48.10765" lon="-3.62983">
        <ele>104.9</ele>
        <time>2023-04-05T13:43:49Z</time>
      </trkpt>
      <trkpt lat="48.1076" lon="-3.62984">
        <ele>104.9</ele>
        <time>2023-04-05T13:43:50Z</time>
      </trkpt>
      <trkpt lat="48.10754" lon="-3.62984">
        <ele>104.9</ele>
        <time>2023-04-05T13:43:51Z</time>
      </trkpt>
      <trkpt lat="48.10749" lon="-3.62984">
        <ele>104.9</ele>
        <time>2023-04-05T13:43:52Z</time>
      </trkpt>
      <trkpt lat="48.10744" lon="-3.62985">
        <ele>104.9</ele>
        <time>2023-04-05T13:43:53Z</time>
      </trkpt>
      <trkpt lat="48.10739" lon="-3.62985">
        <ele>104.9</ele>
        <time>2023-04-05T13:43:54Z</time>
      </trkpt>
      <trkpt lat="48.10735" lon="-3.62985">
        <ele>105</ele>
        <time>2023-04-05T13:43:55Z</time>
      </trkpt>
      <trkpt lat="48.10731" lon="-3.62986">
        <ele>105</ele>
        <time>2023-04-05T13:43:56Z</time>
      </trkpt>
      <trkpt lat="48.10726" lon="-3.62986">
        <ele>105</ele>
        <time>2023-04-05T13:43:57Z</time>
      </trkpt>
      <trkpt lat="48.1072" lon="-3.62987">
        <ele>105</ele>
        <time>2023-04-05T13:43:58Z</time>
      </trkpt>
      <trkpt lat="48.10716" lon="-3.62988">
        <ele>105</ele>
        <time>2023-04-05T13:43:59Z</time>
      </trkpt>
      <trkpt lat="48.10712" lon="-3.62989">
        <ele>105</ele>
        <time>2023-04-05T13:44:00Z</time>
      </trkpt>
      <trkpt lat="48.10706" lon="-3.62988">
        <ele>105</ele>
        <time>2023-04-05T13:44:01Z</time>
      </trkpt>
      <trkpt lat="48.107" lon="-3.62989">
        <ele>104.9</ele>
        <time>2023-04-05T13:44:02Z</time>
      </trkpt>
      <trkpt lat="48.10695" lon="-3.62989">
        <ele>104.9</ele>
        <time>2023-04-05T13:44:03Z</time>
      </trkpt>
      <trkpt lat="48.10689" lon="-3.62989">
        <ele>104.8</ele>
        <time>2023-04-05T13:44:04Z</time>
      </trkpt>
      <trkpt lat="48.10684" lon="-3.62989">
        <ele>104.7</ele>
        <time>2023-04-05T13:44:05Z</time>
      </trkpt>
      <trkpt lat="48.10679" lon="-3.62989">
        <ele>104.7</ele>
        <time>2023-04-05T13:44:06Z</time>
      </trkpt>
      <trkpt lat="48.10674" lon="-3.62989">
        <ele>104.6</ele>
        <time>2023-04-05T13:44:07Z</time>
      </trkpt>
      <trkpt lat="48.10669" lon="-3.62989">
        <ele>104.6</ele>
        <time>2023-04-05T13:44:08Z</time>
      </trkpt>
      <trkpt lat="48.10663" lon="-3.62989">
        <ele>104.5</ele>
        <time>2023-04-05T13:44:09Z</time>
      </trkpt>
      <trkpt lat="48.10658" lon="-3.62988">
        <ele>104.4</ele>
        <time>2023-04-05T13:44:10Z</time>
      </trkpt>
      <trkpt lat="48.10652" lon="-3.62988">
        <ele>104.4</ele>
        <time>2023-04-05T13:44:11Z</time>
      </trkpt>
      <trkpt lat="48.10646" lon="-3.62987">
        <ele>104.3</ele>
        <time>2023-04-05T13:44:12Z</time>
      </trkpt>
      <trkpt lat="48.10641" lon="-3.62986">
        <ele>104.3</ele>
        <time>2023-04-05T13:44:13Z</time>
      </trkpt>
      <trkpt lat="48.10635" lon="-3.62985">
        <ele>104.2</ele>
        <time>2023-04-05T13:44:14Z</time>
      </trkpt>
      <trkpt lat="48.1063" lon="-3.62983">
        <ele>104.2</ele>
        <time>2023-04-05T13:44:15Z</time>
      </trkpt>
      <trkpt lat="48.10624" lon="-3.62982">
        <ele>104.2</ele>
        <time>2023-04-05T13:44:16Z</time>
      </trkpt>
      <trkpt lat="48.10619" lon="-3.62981">
        <ele>104.1</ele>
        <time>2023-04-05T13:44:17Z</time>
      </trkpt>
      <trkpt lat="48.10613" lon="-3.6298">
        <ele>104.1</ele>
        <time>2023-04-05T13:44:18Z</time>
      </trkpt>
      <trkpt lat="48.10608" lon="-3.62978">
        <ele>104.1</ele>
        <time>2023-04-05T13:44:19Z</time>
      </trkpt>
      <trkpt lat="48.10602" lon="-3.62976">
        <ele>104.1</ele>
        <time>2023-04-05T13:44:20Z</time>
      </trkpt>
      <trkpt lat="48.10597" lon="-3.62974">
        <ele>104.1</ele>
        <time>2023-04-05T13:44:21Z</time>
      </trkpt>
      <trkpt lat="48.10591" lon="-3.62972">
        <ele>104.1</ele>
        <time>2023-04-05T13:44:22Z</time>
      </trkpt>
      <trkpt lat="48.10586" lon="-3.62969">
        <ele>104.1</ele>
        <time>2023-04-05T13:44:23Z</time>
      </trkpt>
      <trkpt lat="48.10581" lon="-3.62967">
        <ele>104.1</ele>
        <time>2023-04-05T13:44:24Z</time>
      </trkpt>
      <trkpt lat="48.10575" lon="-3.62965">
        <ele>104.1</ele>
        <time>2023-04-05T13:44:25Z</time>
      </trkpt>
      <trkpt lat="48.1057" lon="-3.62963">
        <ele>104.1</ele>
        <time>2023-04-05T13:44:26Z</time>
      </trkpt>
      <trkpt lat="48.10565" lon="-3.6296">
        <ele>104.1</ele>
        <time>2023-04-05T13:44:27Z</time>
      </trkpt>
      <trkpt lat="48.10559" lon="-3.62959">
        <ele>104.1</ele>
        <time>2023-04-05T13:44:28Z</time>
      </trkpt>
      <trkpt lat="48.10554" lon="-3.62957">
        <ele>104.1</ele>
        <time>2023-04-05T13:44:29Z</time>
      </trkpt>
      <trkpt lat="48.10549" lon="-3.62955">
        <ele>104.1</ele>
        <time>2023-04-05T13:44:30Z</time>
      </trkpt>
      <trkpt lat="48.10544" lon="-3.62954">
        <ele>104.1</ele>
        <time>2023-04-05T13:44:31Z</time>
      </trkpt>
      <trkpt lat="48.10539" lon="-3.62952">
        <ele>104.1</ele>
        <time>2023-04-05T13:44:32Z</time>
      </trkpt>
      <trkpt lat="48.10535" lon="-3.6295">
        <ele>104.1</ele>
        <time>2023-04-05T13:44:33Z</time>
      </trkpt>
      <trkpt lat="48.10531" lon="-3.62949">
        <ele>104.1</ele>
        <time>2023-04-05T13:44:34Z</time>
      </trkpt>
      <trkpt lat="48.1053" lon="-3.62948">
        <ele>104.1</ele>
        <time>2023-04-05T13:44:35Z</time>
      </trkpt>
      <trkpt lat="48.10526" lon="-3.62947">
        <ele>104.1</ele>
        <time>2023-04-05T13:44:36Z</time>
      </trkpt>
      <trkpt lat="48.10522" lon="-3.62945">
        <ele>104.1</ele>
        <time>2023-04-05T13:44:37Z</time>
      </trkpt>
      <trkpt lat="48.10519" lon="-3.62943">
        <ele>104.2</ele>
        <time>2023-04-05T13:44:38Z</time>
      </trkpt>
      <trkpt lat="48.10516" lon="-3.62941">
        <ele>104.2</ele>
        <time>2023-04-05T13:44:39Z</time>
      </trkpt>
      <trkpt lat="48.10513" lon="-3.62939">
        <ele>104.2</ele>
        <time>2023-04-05T13:44:40Z</time>
      </trkpt>
      <trkpt lat="48.10512" lon="-3.62939">
        <ele>104.2</ele>
        <time>2023-04-05T13:44:41Z</time>
      </trkpt>
      <trkpt lat="48.10508" lon="-3.6294">
        <ele>104.2</ele>
        <time>2023-04-05T13:44:43Z</time>
      </trkpt>
      <trkpt lat="48.10505" lon="-3.6294">
        <ele>104.2</ele>
        <time>2023-04-05T13:44:44Z</time>
      </trkpt>
      <trkpt lat="48.10501" lon="-3.62939">
        <ele>104.2</ele>
        <time>2023-04-05T13:44:45Z</time>
      </trkpt>
      <trkpt lat="48.105" lon="-3.62939">
        <ele>104.2</ele>
        <time>2023-04-05T13:44:46Z</time>
      </trkpt>
      <trkpt lat="48.10497" lon="-3.62938">
        <ele>104.2</ele>
        <time>2023-04-05T13:44:47Z</time>
      </trkpt>
      <trkpt lat="48.10494" lon="-3.62935">
        <ele>104.1</ele>
        <time>2023-04-05T13:44:48Z</time>
      </trkpt>
      <trkpt lat="48.10492" lon="-3.62933">
        <ele>104.1</ele>
        <time>2023-04-05T13:44:49Z</time>
      </trkpt>
      <trkpt lat="48.10488" lon="-3.62931">
        <ele>104</ele>
        <time>2023-04-05T13:44:50Z</time>
      </trkpt>
      <trkpt lat="48.10485" lon="-3.62929">
        <ele>104</ele>
        <time>2023-04-05T13:44:51Z</time>
      </trkpt>
      <trkpt lat="48.10481" lon="-3.62928">
        <ele>103.9</ele>
        <time>2023-04-05T13:44:52Z</time>
      </trkpt>
      <trkpt lat="48.10478" lon="-3.62926">
        <ele>103.8</ele>
        <time>2023-04-05T13:44:53Z</time>
      </trkpt>
      <trkpt lat="48.10476" lon="-3.62924">
        <ele>103.8</ele>
        <time>2023-04-05T13:44:54Z</time>
      </trkpt>
      <trkpt lat="48.10469" lon="-3.62924">
        <ele>103.6</ele>
        <time>2023-04-05T13:44:55Z</time>
      </trkpt>
      <trkpt lat="48.10464" lon="-3.62923">
        <ele>103.5</ele>
        <time>2023-04-05T13:44:57Z</time>
      </trkpt>
      <trkpt lat="48.1046" lon="-3.62921">
        <ele>103.5</ele>
        <time>2023-04-05T13:44:58Z</time>
      </trkpt>
      <trkpt lat="48.10455" lon="-3.6292">
        <ele>103.4</ele>
        <time>2023-04-05T13:44:59Z</time>
      </trkpt>
      <trkpt lat="48.10451" lon="-3.62919">
        <ele>103.3</ele>
        <time>2023-04-05T13:45:00Z</time>
      </trkpt>
      <trkpt lat="48.10446" lon="-3.62918">
        <ele>103.3</ele>
        <time>2023-04-05T13:45:01Z</time>
      </trkpt>
      <trkpt lat="48.10441" lon="-3.62916">
        <ele>103.2</ele>
        <time>2023-04-05T13:45:02Z</time>
      </trkpt>
      <trkpt lat="48.10437" lon="-3.62915">
        <ele>103.2</ele>
        <time>2023-04-05T13:45:03Z</time>
      </trkpt>
      <trkpt lat="48.10432" lon="-3.62913">
        <ele>103.2</ele>
        <time>2023-04-05T13:45:04Z</time>
      </trkpt>
      <trkpt lat="48.10428" lon="-3.62912">
        <ele>103.1</ele>
        <time>2023-04-05T13:45:05Z</time>
      </trkpt>
      <trkpt lat="48.10423" lon="-3.6291">
        <ele>103</ele>
        <time>2023-04-05T13:45:06Z</time>
      </trkpt>
      <trkpt lat="48.10418" lon="-3.62909">
        <ele>103</ele>
        <time>2023-04-05T13:45:07Z</time>
      </trkpt>
      <trkpt lat="48.10413" lon="-3.62907">
        <ele>102.9</ele>
        <time>2023-04-05T13:45:08Z</time>
      </trkpt>
      <trkpt lat="48.10408" lon="-3.62905">
        <ele>102.9</ele>
        <time>2023-04-05T13:45:09Z</time>
      </trkpt>
      <trkpt lat="48.10403" lon="-3.62903">
        <ele>102.9</ele>
        <time>2023-04-05T13:45:10Z</time>
      </trkpt>
      <trkpt lat="48.10398" lon="-3.62902">
        <ele>102.8</ele>
        <time>2023-04-05T13:45:11Z</time>
      </trkpt>
      <trkpt lat="48.10393" lon="-3.629">
        <ele>102.8</ele>
        <time>2023-04-05T13:45:12Z</time>
      </trkpt>
      <trkpt lat="48.10388" lon="-3.62899">
        <ele>102.8</ele>
        <time>2023-04-05T13:45:13Z</time>
      </trkpt>
      <trkpt lat="48.10382" lon="-3.62897">
        <ele>102.8</ele>
        <time>2023-04-05T13:45:14Z</time>
      </trkpt>
      <trkpt lat="48.10377" lon="-3.62896">
        <ele>102.7</ele>
        <time>2023-04-05T13:45:15Z</time>
      </trkpt>
      <trkpt lat="48.10372" lon="-3.62895">
        <ele>102.7</ele>
        <time>2023-04-05T13:45:16Z</time>
      </trkpt>
      <trkpt lat="48.10366" lon="-3.62894">
        <ele>102.7</ele>
        <time>2023-04-05T13:45:17Z</time>
      </trkpt>
      <trkpt lat="48.10361" lon="-3.62893">
        <ele>102.7</ele>
        <time>2023-04-05T13:45:18Z</time>
      </trkpt>
      <trkpt lat="48.10356" lon="-3.62892">
        <ele>102.7</ele>
        <time>2023-04-05T13:45:19Z</time>
      </trkpt>
      <trkpt lat="48.1035" lon="-3.62891">
        <ele>102.7</ele>
        <time>2023-04-05T13:45:20Z</time>
      </trkpt>
      <trkpt lat="48.10345" lon="-3.6289">
        <ele>102.6</ele>
        <time>2023-04-05T13:45:21Z</time>
      </trkpt>
      <trkpt lat="48.10339" lon="-3.6289">
        <ele>102.6</ele>
        <time>2023-04-05T13:45:22Z</time>
      </trkpt>
      <trkpt lat="48.10334" lon="-3.6289">
        <ele>102.6</ele>
        <time>2023-04-05T13:45:23Z</time>
      </trkpt>
      <trkpt lat="48.10328" lon="-3.62889">
        <ele>102.5</ele>
        <time>2023-04-05T13:45:24Z</time>
      </trkpt>
      <trkpt lat="48.10323" lon="-3.62888">
        <ele>102.5</ele>
        <time>2023-04-05T13:45:25Z</time>
      </trkpt>
      <trkpt lat="48.10317" lon="-3.62887">
        <ele>102.4</ele>
        <time>2023-04-05T13:45:26Z</time>
      </trkpt>
      <trkpt lat="48.10312" lon="-3.62887">
        <ele>102.4</ele>
        <time>2023-04-05T13:45:27Z</time>
      </trkpt>
      <trkpt lat="48.10306" lon="-3.62887">
        <ele>102.3</ele>
        <time>2023-04-05T13:45:28Z</time>
      </trkpt>
      <trkpt lat="48.10301" lon="-3.62887">
        <ele>102.3</ele>
        <time>2023-04-05T13:45:29Z</time>
      </trkpt>
      <trkpt lat="48.10295" lon="-3.62888">
        <ele>102.3</ele>
        <time>2023-04-05T13:45:30Z</time>
      </trkpt>
      <trkpt lat="48.10289" lon="-3.62887">
        <ele>102.2</ele>
        <time>2023-04-05T13:45:31Z</time>
      </trkpt>
      <trkpt lat="48.10284" lon="-3.62888">
        <ele>102.2</ele>
        <time>2023-04-05T13:45:32Z</time>
      </trkpt>
      <trkpt lat="48.10278" lon="-3.62888">
        <ele>102.2</ele>
        <time>2023-04-05T13:45:33Z</time>
      </trkpt>
      <trkpt lat="48.10273" lon="-3.62889">
        <ele>102.2</ele>
        <time>2023-04-05T13:45:34Z</time>
      </trkpt>
      <trkpt lat="48.10267" lon="-3.62889">
        <ele>102.2</ele>
        <time>2023-04-05T13:45:35Z</time>
      </trkpt>
      <trkpt lat="48.10262" lon="-3.6289">
        <ele>102.1</ele>
        <time>2023-04-05T13:45:36Z</time>
      </trkpt>
      <trkpt lat="48.10256" lon="-3.62891">
        <ele>102.1</ele>
        <time>2023-04-05T13:45:37Z</time>
      </trkpt>
      <trkpt lat="48.10251" lon="-3.62892">
        <ele>102.1</ele>
        <time>2023-04-05T13:45:38Z</time>
      </trkpt>
      <trkpt lat="48.10246" lon="-3.62893">
        <ele>102.1</ele>
        <time>2023-04-05T13:45:39Z</time>
      </trkpt>
      <trkpt lat="48.10241" lon="-3.62894">
        <ele>102.1</ele>
        <time>2023-04-05T13:45:40Z</time>
      </trkpt>
      <trkpt lat="48.10236" lon="-3.62895">
        <ele>102</ele>
        <time>2023-04-05T13:45:41Z</time>
      </trkpt>
      <trkpt lat="48.1023" lon="-3.62897">
        <ele>102</ele>
        <time>2023-04-05T13:45:42Z</time>
      </trkpt>
      <trkpt lat="48.10225" lon="-3.62898">
        <ele>101.9</ele>
        <time>2023-04-05T13:45:43Z</time>
      </trkpt>
      <trkpt lat="48.10219" lon="-3.629">
        <ele>101.9</ele>
        <time>2023-04-05T13:45:44Z</time>
      </trkpt>
      <trkpt lat="48.10213" lon="-3.62902">
        <ele>101.8</ele>
        <time>2023-04-05T13:45:45Z</time>
      </trkpt>
      <trkpt lat="48.10207" lon="-3.62904">
        <ele>101.8</ele>
        <time>2023-04-05T13:45:46Z</time>
      </trkpt>
      <trkpt lat="48.10202" lon="-3.62908">
        <ele>101.7</ele>
        <time>2023-04-05T13:45:47Z</time>
      </trkpt>
      <trkpt lat="48.10196" lon="-3.62911">
        <ele>101.7</ele>
        <time>2023-04-05T13:45:48Z</time>
      </trkpt>
      <trkpt lat="48.10192" lon="-3.62914">
        <ele>101.7</ele>
        <time>2023-04-05T13:45:49Z</time>
      </trkpt>
      <trkpt lat="48.10187" lon="-3.62915">
        <ele>101.6</ele>
        <time>2023-04-05T13:45:50Z</time>
      </trkpt>
      <trkpt lat="48.10183" lon="-3.62916">
        <ele>101.5</ele>
        <time>2023-04-05T13:45:51Z</time>
      </trkpt>
      <trkpt lat="48.10179" lon="-3.62916">
        <ele>101.5</ele>
        <time>2023-04-05T13:45:52Z</time>
      </trkpt>
      <trkpt lat="48.10174" lon="-3.62917">
        <ele>101.4</ele>
        <time>2023-04-05T13:45:53Z</time>
      </trkpt>
      <trkpt lat="48.10169" lon="-3.62918">
        <ele>101.3</ele>
        <time>2023-04-05T13:45:54Z</time>
      </trkpt>
      <trkpt lat="48.10164" lon="-3.62921">
        <ele>101.2</ele>
        <time>2023-04-05T13:45:55Z</time>
      </trkpt>
      <trkpt lat="48.10159" lon="-3.62924">
        <ele>101</ele>
        <time>2023-04-05T13:45:56Z</time>
      </trkpt>
      <trkpt lat="48.10153" lon="-3.62928">
        <ele>100.9</ele>
        <time>2023-04-05T13:45:57Z</time>
      </trkpt>
      <trkpt lat="48.10148" lon="-3.62931">
        <ele>100.8</ele>
        <time>2023-04-05T13:45:58Z</time>
      </trkpt>
      <trkpt lat="48.10143" lon="-3.62934">
        <ele>100.7</ele>
        <time>2023-04-05T13:45:59Z</time>
      </trkpt>
      <trkpt lat="48.10137" lon="-3.62937">
        <ele>100.7</ele>
        <time>2023-04-05T13:46:00Z</time>
      </trkpt>
      <trkpt lat="48.10132" lon="-3.6294">
        <ele>100.6</ele>
        <time>2023-04-05T13:46:01Z</time>
      </trkpt>
      <trkpt lat="48.10127" lon="-3.62944">
        <ele>100.6</ele>
        <time>2023-04-05T13:46:02Z</time>
      </trkpt>
      <trkpt lat="48.10122" lon="-3.62947">
        <ele>100.5</ele>
        <time>2023-04-05T13:46:03Z</time>
      </trkpt>
      <trkpt lat="48.10117" lon="-3.62951">
        <ele>100.5</ele>
        <time>2023-04-05T13:46:04Z</time>
      </trkpt>
      <trkpt lat="48.10112" lon="-3.62954">
        <ele>100.5</ele>
        <time>2023-04-05T13:46:05Z</time>
      </trkpt>
      <trkpt lat="48.10108" lon="-3.62958">
        <ele>100.5</ele>
        <time>2023-04-05T13:46:06Z</time>
      </trkpt>
      <trkpt lat="48.10103" lon="-3.62962">
        <ele>100.5</ele>
        <time>2023-04-05T13:46:07Z</time>
      </trkpt>
      <trkpt lat="48.10098" lon="-3.62966">
        <ele>100.5</ele>
        <time>2023-04-05T13:46:08Z</time>
      </trkpt>
      <trkpt lat="48.10094" lon="-3.62971">
        <ele>100.5</ele>
        <time>2023-04-05T13:46:09Z</time>
      </trkpt>
      <trkpt lat="48.10089" lon="-3.62975">
        <ele>100.5</ele>
        <time>2023-04-05T13:46:10Z</time>
      </trkpt>
      <trkpt lat="48.10085" lon="-3.6298">
        <ele>100.5</ele>
        <time>2023-04-05T13:46:11Z</time>
      </trkpt>
      <trkpt lat="48.10081" lon="-3.62984">
        <ele>100.5</ele>
        <time>2023-04-05T13:46:12Z</time>
      </trkpt>
      <trkpt lat="48.10077" lon="-3.62988">
        <ele>100.5</ele>
        <time>2023-04-05T13:46:13Z</time>
      </trkpt>
      <trkpt lat="48.10073" lon="-3.62993">
        <ele>100.5</ele>
        <time>2023-04-05T13:46:14Z</time>
      </trkpt>
      <trkpt lat="48.10069" lon="-3.62997">
        <ele>100.5</ele>
        <time>2023-04-05T13:46:15Z</time>
      </trkpt>
      <trkpt lat="48.10065" lon="-3.63003">
        <ele>100.5</ele>
        <time>2023-04-05T13:46:16Z</time>
      </trkpt>
      <trkpt lat="48.1006" lon="-3.63007">
        <ele>100.5</ele>
        <time>2023-04-05T13:46:17Z</time>
      </trkpt>
      <trkpt lat="48.10056" lon="-3.63012">
        <ele>100.5</ele>
        <time>2023-04-05T13:46:18Z</time>
      </trkpt>
      <trkpt lat="48.10052" lon="-3.63016">
        <ele>100.5</ele>
        <time>2023-04-05T13:46:19Z</time>
      </trkpt>
      <trkpt lat="48.10048" lon="-3.63021">
        <ele>100.6</ele>
        <time>2023-04-05T13:46:20Z</time>
      </trkpt>
      <trkpt lat="48.10044" lon="-3.63025">
        <ele>100.6</ele>
        <time>2023-04-05T13:46:21Z</time>
      </trkpt>
      <trkpt lat="48.1004" lon="-3.6303">
        <ele>100.6</ele>
        <time>2023-04-05T13:46:22Z</time>
      </trkpt>
      <trkpt lat="48.10035" lon="-3.63034">
        <ele>100.7</ele>
        <time>2023-04-05T13:46:23Z</time>
      </trkpt>
      <trkpt lat="48.10031" lon="-3.63038">
        <ele>100.7</ele>
        <time>2023-04-05T13:46:24Z</time>
      </trkpt>
      <trkpt lat="48.10027" lon="-3.63043">
        <ele>100.7</ele>
        <time>2023-04-05T13:46:25Z</time>
      </trkpt>
      <trkpt lat="48.10023" lon="-3.63047">
        <ele>100.8</ele>
        <time>2023-04-05T13:46:26Z</time>
      </trkpt>
      <trkpt lat="48.10019" lon="-3.63052">
        <ele>100.8</ele>
        <time>2023-04-05T13:46:27Z</time>
      </trkpt>
      <trkpt lat="48.10015" lon="-3.63057">
        <ele>100.8</ele>
        <time>2023-04-05T13:46:28Z</time>
      </trkpt>
      <trkpt lat="48.10011" lon="-3.63062">
        <ele>100.8</ele>
        <time>2023-04-05T13:46:29Z</time>
      </trkpt>
      <trkpt lat="48.10006" lon="-3.63067">
        <ele>100.8</ele>
        <time>2023-04-05T13:46:30Z</time>
      </trkpt>
      <trkpt lat="48.10002" lon="-3.63071">
        <ele>100.7</ele>
        <time>2023-04-05T13:46:31Z</time>
      </trkpt>
      <trkpt lat="48.09997" lon="-3.63075">
        <ele>100.7</ele>
        <time>2023-04-05T13:46:32Z</time>
      </trkpt>
      <trkpt lat="48.09993" lon="-3.63081">
        <ele>100.7</ele>
        <time>2023-04-05T13:46:33Z</time>
      </trkpt>
      <trkpt lat="48.09989" lon="-3.63086">
        <ele>100.7</ele>
        <time>2023-04-05T13:46:34Z</time>
      </trkpt>
      <trkpt lat="48.09985" lon="-3.63091">
        <ele>100.7</ele>
        <time>2023-04-05T13:46:35Z</time>
      </trkpt>
      <trkpt lat="48.09982" lon="-3.63096">
        <ele>100.7</ele>
        <time>2023-04-05T13:46:36Z</time>
      </trkpt>
      <trkpt lat="48.09977" lon="-3.63101">
        <ele>100.7</ele>
        <time>2023-04-05T13:46:37Z</time>
      </trkpt>
      <trkpt lat="48.09972" lon="-3.63106">
        <ele>100.7</ele>
        <time>2023-04-05T13:46:38Z</time>
      </trkpt>
      <trkpt lat="48.09968" lon="-3.6311">
        <ele>100.7</ele>
        <time>2023-04-05T13:46:39Z</time>
      </trkpt>
      <trkpt lat="48.09964" lon="-3.63115">
        <ele>100.7</ele>
        <time>2023-04-05T13:46:40Z</time>
      </trkpt>
      <trkpt lat="48.09959" lon="-3.63121">
        <ele>100.7</ele>
        <time>2023-04-05T13:46:41Z</time>
      </trkpt>
      <trkpt lat="48.09955" lon="-3.63125">
        <ele>100.7</ele>
        <time>2023-04-05T13:46:42Z</time>
      </trkpt>
      <trkpt lat="48.09951" lon="-3.6313">
        <ele>100.7</ele>
        <time>2023-04-05T13:46:43Z</time>
      </trkpt>
      <trkpt lat="48.09947" lon="-3.63135">
        <ele>100.7</ele>
        <time>2023-04-05T13:46:44Z</time>
      </trkpt>
      <trkpt lat="48.09943" lon="-3.6314">
        <ele>100.6</ele>
        <time>2023-04-05T13:46:45Z</time>
      </trkpt>
      <trkpt lat="48.09939" lon="-3.63145">
        <ele>100.6</ele>
        <time>2023-04-05T13:46:46Z</time>
      </trkpt>
      <trkpt lat="48.09934" lon="-3.6315">
        <ele>100.6</ele>
        <time>2023-04-05T13:46:47Z</time>
      </trkpt>
      <trkpt lat="48.0993" lon="-3.63155">
        <ele>100.6</ele>
        <time>2023-04-05T13:46:48Z</time>
      </trkpt>
      <trkpt lat="48.09925" lon="-3.6316">
        <ele>100.6</ele>
        <time>2023-04-05T13:46:49Z</time>
      </trkpt>
      <trkpt lat="48.09921" lon="-3.63165">
        <ele>100.6</ele>
        <time>2023-04-05T13:46:50Z</time>
      </trkpt>
      <trkpt lat="48.09916" lon="-3.6317">
        <ele>100.6</ele>
        <time>2023-04-05T13:46:51Z</time>
      </trkpt>
      <trkpt lat="48.09912" lon="-3.63176">
        <ele>100.6</ele>
        <time>2023-04-05T13:46:52Z</time>
      </trkpt>
      <trkpt lat="48.09908" lon="-3.63181">
        <ele>100.6</ele>
        <time>2023-04-05T13:46:53Z</time>
      </trkpt>
      <trkpt lat="48.09904" lon="-3.63187">
        <ele>100.7</ele>
        <time>2023-04-05T13:46:54Z</time>
      </trkpt>
      <trkpt lat="48.099" lon="-3.63192">
        <ele>100.7</ele>
        <time>2023-04-05T13:46:55Z</time>
      </trkpt>
      <trkpt lat="48.09896" lon="-3.63197">
        <ele>100.7</ele>
        <time>2023-04-05T13:46:56Z</time>
      </trkpt>
      <trkpt lat="48.09891" lon="-3.63202">
        <ele>100.7</ele>
        <time>2023-04-05T13:46:57Z</time>
      </trkpt>
      <trkpt lat="48.09886" lon="-3.63207">
        <ele>100.7</ele>
        <time>2023-04-05T13:46:58Z</time>
      </trkpt>
      <trkpt lat="48.09882" lon="-3.63211">
        <ele>100.7</ele>
        <time>2023-04-05T13:46:59Z</time>
      </trkpt>
      <trkpt lat="48.09878" lon="-3.63216">
        <ele>100.7</ele>
        <time>2023-04-05T13:47:00Z</time>
      </trkpt>
      <trkpt lat="48.09873" lon="-3.63221">
        <ele>100.7</ele>
        <time>2023-04-05T13:47:01Z</time>
      </trkpt>
      <trkpt lat="48.09869" lon="-3.63226">
        <ele>100.8</ele>
        <time>2023-04-05T13:47:02Z</time>
      </trkpt>
      <trkpt lat="48.09865" lon="-3.63231">
        <ele>100.8</ele>
        <time>2023-04-05T13:47:03Z</time>
      </trkpt>
      <trkpt lat="48.0986" lon="-3.63236">
        <ele>100.9</ele>
        <time>2023-04-05T13:47:04Z</time>
      </trkpt>
      <trkpt lat="48.09856" lon="-3.63242">
        <ele>100.9</ele>
        <time>2023-04-05T13:47:05Z</time>
      </trkpt>
      <trkpt lat="48.09852" lon="-3.63247">
        <ele>101</ele>
        <time>2023-04-05T13:47:06Z</time>
      </trkpt>
      <trkpt lat="48.09849" lon="-3.63251">
        <ele>101</ele>
        <time>2023-04-05T13:47:07Z</time>
      </trkpt>
      <trkpt lat="48.09844" lon="-3.63255">
        <ele>101.1</ele>
        <time>2023-04-05T13:47:08Z</time>
      </trkpt>
      <trkpt lat="48.0984" lon="-3.6326">
        <ele>101.1</ele>
        <time>2023-04-05T13:47:09Z</time>
      </trkpt>
      <trkpt lat="48.09836" lon="-3.63265">
        <ele>101.2</ele>
        <time>2023-04-05T13:47:10Z</time>
      </trkpt>
      <trkpt lat="48.09833" lon="-3.6327">
        <ele>101.3</ele>
        <time>2023-04-05T13:47:11Z</time>
      </trkpt>
      <trkpt lat="48.0983" lon="-3.63275">
        <ele>101.4</ele>
        <time>2023-04-05T13:47:12Z</time>
      </trkpt>
      <trkpt lat="48.09826" lon="-3.6328">
        <ele>101.5</ele>
        <time>2023-04-05T13:47:13Z</time>
      </trkpt>
      <trkpt lat="48.09824" lon="-3.63285">
        <ele>101.6</ele>
        <time>2023-04-05T13:47:14Z</time>
      </trkpt>
      <trkpt lat="48.0982" lon="-3.6329">
        <ele>101.7</ele>
        <time>2023-04-05T13:47:15Z</time>
      </trkpt>
      <trkpt lat="48.09818" lon="-3.63292">
        <ele>101.8</ele>
        <time>2023-04-05T13:47:16Z</time>
      </trkpt>
      <trkpt lat="48.09814" lon="-3.63297">
        <ele>101.8</ele>
        <time>2023-04-05T13:47:17Z</time>
      </trkpt>
      <trkpt lat="48.0981" lon="-3.633">
        <ele>101.8</ele>
        <time>2023-04-05T13:47:18Z</time>
      </trkpt>
      <trkpt lat="48.09806" lon="-3.63304">
        <ele>101.9</ele>
        <time>2023-04-05T13:47:19Z</time>
      </trkpt>
      <trkpt lat="48.09803" lon="-3.63306">
        <ele>101.9</ele>
        <time>2023-04-05T13:47:20Z</time>
      </trkpt>
      <trkpt lat="48.098" lon="-3.6331">
        <ele>101.9</ele>
        <time>2023-04-05T13:47:21Z</time>
      </trkpt>
      <trkpt lat="48.09796" lon="-3.63313">
        <ele>102</ele>
        <time>2023-04-05T13:47:22Z</time>
      </trkpt>
      <trkpt lat="48.09791" lon="-3.63321">
        <ele>102.1</ele>
        <time>2023-04-05T13:47:23Z</time>
      </trkpt>
      <trkpt lat="48.09788" lon="-3.63326">
        <ele>102.2</ele>
        <time>2023-04-05T13:47:24Z</time>
      </trkpt>
      <trkpt lat="48.09785" lon="-3.6333">
        <ele>102.2</ele>
        <time>2023-04-05T13:47:25Z</time>
      </trkpt>
      <trkpt lat="48.09781" lon="-3.63334">
        <ele>102.3</ele>
        <time>2023-04-05T13:47:26Z</time>
      </trkpt>
      <trkpt lat="48.09777" lon="-3.63339">
        <ele>102.3</ele>
        <time>2023-04-05T13:47:27Z</time>
      </trkpt>
      <trkpt lat="48.09775" lon="-3.6334">
        <ele>102.4</ele>
        <time>2023-04-05T13:47:28Z</time>
      </trkpt>
      <trkpt lat="48.09772" lon="-3.63345">
        <ele>102.4</ele>
        <time>2023-04-05T13:47:29Z</time>
      </trkpt>
      <trkpt lat="48.0977" lon="-3.6335">
        <ele>102.5</ele>
        <time>2023-04-05T13:47:30Z</time>
      </trkpt>
      <trkpt lat="48.09766" lon="-3.63354">
        <ele>102.6</ele>
        <time>2023-04-05T13:47:31Z</time>
      </trkpt>
      <trkpt lat="48.09761" lon="-3.63358">
        <ele>102.7</ele>
        <time>2023-04-05T13:47:32Z</time>
      </trkpt>
      <trkpt lat="48.09758" lon="-3.63363">
        <ele>102.8</ele>
        <time>2023-04-05T13:47:33Z</time>
      </trkpt>
      <trkpt lat="48.09755" lon="-3.63367">
        <ele>102.9</ele>
        <time>2023-04-05T13:47:34Z</time>
      </trkpt>
      <trkpt lat="48.09752" lon="-3.6337">
        <ele>103</ele>
        <time>2023-04-05T13:47:35Z</time>
      </trkpt>
      <trkpt lat="48.09748" lon="-3.63375">
        <ele>103.2</ele>
        <time>2023-04-05T13:47:36Z</time>
      </trkpt>
      <trkpt lat="48.09745" lon="-3.63379">
        <ele>103.3</ele>
        <time>2023-04-05T13:47:37Z</time>
      </trkpt>
      <trkpt lat="48.09742" lon="-3.63382">
        <ele>103.4</ele>
        <time>2023-04-05T13:47:38Z</time>
      </trkpt>
      <trkpt lat="48.09738" lon="-3.63385">
        <ele>103.5</ele>
        <time>2023-04-05T13:47:39Z</time>
      </trkpt>
      <trkpt lat="48.09736" lon="-3.63388">
        <ele>103.6</ele>
        <time>2023-04-05T13:47:40Z</time>
      </trkpt>
      <trkpt lat="48.09733" lon="-3.63392">
        <ele>103.8</ele>
        <time>2023-04-05T13:47:41Z</time>
      </trkpt>
      <trkpt lat="48.09731" lon="-3.63396">
        <ele>103.9</ele>
        <time>2023-04-05T13:47:42Z</time>
      </trkpt>
      <trkpt lat="48.09728" lon="-3.63397">
        <ele>103.9</ele>
        <time>2023-04-05T13:47:43Z</time>
      </trkpt>
      <trkpt lat="48.09725" lon="-3.63397">
        <ele>104</ele>
        <time>2023-04-05T13:47:45Z</time>
      </trkpt>
      <trkpt lat="48.09722" lon="-3.63397">
        <ele>104.1</ele>
        <time>2023-04-05T13:47:46Z</time>
      </trkpt>
      <trkpt lat="48.09718" lon="-3.63398">
        <ele>104.2</ele>
        <time>2023-04-05T13:47:47Z</time>
      </trkpt>
      <trkpt lat="48.09716" lon="-3.634">
        <ele>104.2</ele>
        <time>2023-04-05T13:47:48Z</time>
      </trkpt>
      <trkpt lat="48.09712" lon="-3.63401">
        <ele>104.3</ele>
        <time>2023-04-05T13:47:49Z</time>
      </trkpt>
      <trkpt lat="48.09711" lon="-3.63402">
        <ele>104.3</ele>
        <time>2023-04-05T13:47:50Z</time>
      </trkpt>
      <trkpt lat="48.09709" lon="-3.63404">
        <ele>104.4</ele>
        <time>2023-04-05T13:47:51Z</time>
      </trkpt>
      <trkpt lat="48.09707" lon="-3.63407">
        <ele>104.4</ele>
        <time>2023-04-05T13:47:52Z</time>
      </trkpt>
      <trkpt lat="48.09703" lon="-3.63411">
        <ele>104.4</ele>
        <time>2023-04-05T13:47:53Z</time>
      </trkpt>
      <trkpt lat="48.09702" lon="-3.63413">
        <ele>104.4</ele>
        <time>2023-04-05T13:47:54Z</time>
      </trkpt>
      <trkpt lat="48.09699" lon="-3.63416">
        <ele>104.5</ele>
        <time>2023-04-05T13:47:55Z</time>
      </trkpt>
      <trkpt lat="48.09696" lon="-3.63419">
        <ele>104.5</ele>
        <time>2023-04-05T13:47:56Z</time>
      </trkpt>
      <trkpt lat="48.09693" lon="-3.63421">
        <ele>104.5</ele>
        <time>2023-04-05T13:47:57Z</time>
      </trkpt>
      <trkpt lat="48.0969" lon="-3.6342">
        <ele>104.5</ele>
        <time>2023-04-05T13:47:58Z</time>
      </trkpt>
      <trkpt lat="48.09689" lon="-3.63419">
        <ele>104.5</ele>
        <time>2023-04-05T13:47:59Z</time>
      </trkpt>
      <trkpt lat="48.09685" lon="-3.63419">
        <ele>104.6</ele>
        <time>2023-04-05T13:48:00Z</time>
      </trkpt>
      <trkpt lat="48.09684" lon="-3.63419">
        <ele>104.6</ele>
        <time>2023-04-05T13:48:01Z</time>
      </trkpt>
      <trkpt lat="48.09681" lon="-3.6342">
        <ele>104.6</ele>
        <time>2023-04-05T13:48:02Z</time>
      </trkpt>
      <trkpt lat="48.09678" lon="-3.63423">
        <ele>104.6</ele>
        <time>2023-04-05T13:48:03Z</time>
      </trkpt>
      <trkpt lat="48.09675" lon="-3.63426">
        <ele>104.7</ele>
        <time>2023-04-05T13:48:04Z</time>
      </trkpt>
      <trkpt lat="48.09672" lon="-3.63428">
        <ele>104.7</ele>
        <time>2023-04-05T13:48:05Z</time>
      </trkpt>
      <trkpt lat="48.09669" lon="-3.6343">
        <ele>104.8</ele>
        <time>2023-04-05T13:48:06Z</time>
      </trkpt>
      <trkpt lat="48.09667" lon="-3.63431">
        <ele>104.8</ele>
        <time>2023-04-05T13:48:07Z</time>
      </trkpt>
      <trkpt lat="48.09664" lon="-3.63433">
        <ele>104.8</ele>
        <time>2023-04-05T13:48:08Z</time>
      </trkpt>
      <trkpt lat="48.09661" lon="-3.63435">
        <ele>104.9</ele>
        <time>2023-04-05T13:48:09Z</time>
      </trkpt>
      <trkpt lat="48.09657" lon="-3.63437">
        <ele>105</ele>
        <time>2023-04-05T13:48:10Z</time>
      </trkpt>
      <trkpt lat="48.09654" lon="-3.63439">
        <ele>105</ele>
        <time>2023-04-05T13:48:11Z</time>
      </trkpt>
      <trkpt lat="48.09651" lon="-3.6344">
        <ele>105</ele>
        <time>2023-04-05T13:48:12Z</time>
      </trkpt>
      <trkpt lat="48.09647" lon="-3.63441">
        <ele>105.1</ele>
        <time>2023-04-05T13:48:13Z</time>
      </trkpt>
      <trkpt lat="48.09643" lon="-3.63442">
        <ele>105.2</ele>
        <time>2023-04-05T13:48:14Z</time>
      </trkpt>
      <trkpt lat="48.0964" lon="-3.63441">
        <ele>105.2</ele>
        <time>2023-04-05T13:48:15Z</time>
      </trkpt>
      <trkpt lat="48.09636" lon="-3.63442">
        <ele>105.3</ele>
        <time>2023-04-05T13:48:16Z</time>
      </trkpt>
      <trkpt lat="48.09632" lon="-3.63443">
        <ele>105.4</ele>
        <time>2023-04-05T13:48:17Z</time>
      </trkpt>
      <trkpt lat="48.09628" lon="-3.63445">
        <ele>105.5</ele>
        <time>2023-04-05T13:48:18Z</time>
      </trkpt>
      <trkpt lat="48.09624" lon="-3.63447">
        <ele>105.5</ele>
        <time>2023-04-05T13:48:19Z</time>
      </trkpt>
      <trkpt lat="48.0962" lon="-3.63449">
        <ele>105.6</ele>
        <time>2023-04-05T13:48:20Z</time>
      </trkpt>
      <trkpt lat="48.09616" lon="-3.63451">
        <ele>105.7</ele>
        <time>2023-04-05T13:48:22Z</time>
      </trkpt>
      <trkpt lat="48.09609" lon="-3.63454">
        <ele>105.9</ele>
        <time>2023-04-05T13:48:23Z</time>
      </trkpt>
      <trkpt lat="48.09605" lon="-3.63456">
        <ele>106</ele>
        <time>2023-04-05T13:48:25Z</time>
      </trkpt>
      <trkpt lat="48.09601" lon="-3.63458">
        <ele>106.1</ele>
        <time>2023-04-05T13:48:26Z</time>
      </trkpt>
      <trkpt lat="48.09597" lon="-3.63459">
        <ele>106.2</ele>
        <time>2023-04-05T13:48:27Z</time>
      </trkpt>
      <trkpt lat="48.09592" lon="-3.6346">
        <ele>106.3</ele>
        <time>2023-04-05T13:48:28Z</time>
      </trkpt>
      <trkpt lat="48.09589" lon="-3.63461">
        <ele>106.3</ele>
        <time>2023-04-05T13:48:29Z</time>
      </trkpt>
      <trkpt lat="48.09584" lon="-3.63463">
        <ele>106.4</ele>
        <time>2023-04-05T13:48:30Z</time>
      </trkpt>
      <trkpt lat="48.0958" lon="-3.63464">
        <ele>106.5</ele>
        <time>2023-04-05T13:48:31Z</time>
      </trkpt>
      <trkpt lat="48.09576" lon="-3.63465">
        <ele>106.6</ele>
        <time>2023-04-05T13:48:32Z</time>
      </trkpt>
      <trkpt lat="48.09572" lon="-3.63466">
        <ele>106.7</ele>
        <time>2023-04-05T13:48:33Z</time>
      </trkpt>
      <trkpt lat="48.09569" lon="-3.63467">
        <ele>106.8</ele>
        <time>2023-04-05T13:48:34Z</time>
      </trkpt>
      <trkpt lat="48.09562" lon="-3.63469">
        <ele>106.9</ele>
        <time>2023-04-05T13:48:35Z</time>
      </trkpt>
      <trkpt lat="48.09558" lon="-3.63471">
        <ele>107</ele>
        <time>2023-04-05T13:48:37Z</time>
      </trkpt>
      <trkpt lat="48.09555" lon="-3.63472">
        <ele>107</ele>
        <time>2023-04-05T13:48:38Z</time>
      </trkpt>
      <trkpt lat="48.09552" lon="-3.63473">
        <ele>107.1</ele>
        <time>2023-04-05T13:48:39Z</time>
      </trkpt>
      <trkpt lat="48.09548" lon="-3.63474">
        <ele>107.2</ele>
        <time>2023-04-05T13:48:40Z</time>
      </trkpt>
      <trkpt lat="48.09544" lon="-3.63475">
        <ele>107.2</ele>
        <time>2023-04-05T13:48:41Z</time>
      </trkpt>
      <trkpt lat="48.09539" lon="-3.63477">
        <ele>107.3</ele>
        <time>2023-04-05T13:48:42Z</time>
      </trkpt>
      <trkpt lat="48.09535" lon="-3.63478">
        <ele>107.4</ele>
        <time>2023-04-05T13:48:43Z</time>
      </trkpt>
      <trkpt lat="48.09531" lon="-3.6348">
        <ele>107.5</ele>
        <time>2023-04-05T13:48:44Z</time>
      </trkpt>
      <trkpt lat="48.09527" lon="-3.63481">
        <ele>107.6</ele>
        <time>2023-04-05T13:48:45Z</time>
      </trkpt>
      <trkpt lat="48.09523" lon="-3.63485">
        <ele>107.7</ele>
        <time>2023-04-05T13:48:46Z</time>
      </trkpt>
      <trkpt lat="48.09519" lon="-3.63487">
        <ele>107.8</ele>
        <time>2023-04-05T13:48:47Z</time>
      </trkpt>
      <trkpt lat="48.09515" lon="-3.63488">
        <ele>107.9</ele>
        <time>2023-04-05T13:48:48Z</time>
      </trkpt>
      <trkpt lat="48.0951" lon="-3.6349">
        <ele>108</ele>
        <time>2023-04-05T13:48:49Z</time>
      </trkpt>
      <trkpt lat="48.09501" lon="-3.63492">
        <ele>108.3</ele>
        <time>2023-04-05T13:48:50Z</time>
      </trkpt>
      <trkpt lat="48.09497" lon="-3.63494">
        <ele>108.4</ele>
        <time>2023-04-05T13:48:52Z</time>
      </trkpt>
      <trkpt lat="48.09492" lon="-3.63495">
        <ele>108.5</ele>
        <time>2023-04-05T13:48:53Z</time>
      </trkpt>
      <trkpt lat="48.09488" lon="-3.63497">
        <ele>108.6</ele>
        <time>2023-04-05T13:48:54Z</time>
      </trkpt>
      <trkpt lat="48.09484" lon="-3.63497">
        <ele>108.7</ele>
        <time>2023-04-05T13:48:55Z</time>
      </trkpt>
      <trkpt lat="48.0948" lon="-3.63499">
        <ele>108.8</ele>
        <time>2023-04-05T13:48:56Z</time>
      </trkpt>
      <trkpt lat="48.09475" lon="-3.635">
        <ele>109</ele>
        <time>2023-04-05T13:48:57Z</time>
      </trkpt>
      <trkpt lat="48.09471" lon="-3.63501">
        <ele>109.1</ele>
        <time>2023-04-05T13:48:58Z</time>
      </trkpt>
      <trkpt lat="48.09467" lon="-3.63502">
        <ele>109.2</ele>
        <time>2023-04-05T13:48:59Z</time>
      </trkpt>
      <trkpt lat="48.09462" lon="-3.63503">
        <ele>109.4</ele>
        <time>2023-04-05T13:49:00Z</time>
      </trkpt>
      <trkpt lat="48.09458" lon="-3.63504">
        <ele>109.5</ele>
        <time>2023-04-05T13:49:01Z</time>
      </trkpt>
      <trkpt lat="48.09454" lon="-3.63505">
        <ele>109.6</ele>
        <time>2023-04-05T13:49:02Z</time>
      </trkpt>
      <trkpt lat="48.0945" lon="-3.63506">
        <ele>109.7</ele>
        <time>2023-04-05T13:49:03Z</time>
      </trkpt>
      <trkpt lat="48.09446" lon="-3.63507">
        <ele>109.8</ele>
        <time>2023-04-05T13:49:04Z</time>
      </trkpt>
      <trkpt lat="48.09442" lon="-3.63508">
        <ele>110</ele>
        <time>2023-04-05T13:49:05Z</time>
      </trkpt>
      <trkpt lat="48.09438" lon="-3.63509">
        <ele>110.1</ele>
        <time>2023-04-05T13:49:06Z</time>
      </trkpt>
      <trkpt lat="48.09435" lon="-3.6351">
        <ele>110.2</ele>
        <time>2023-04-05T13:49:07Z</time>
      </trkpt>
      <trkpt lat="48.09431" lon="-3.63512">
        <ele>110.4</ele>
        <time>2023-04-05T13:49:08Z</time>
      </trkpt>
      <trkpt lat="48.0943" lon="-3.63512">
        <ele>110.4</ele>
        <time>2023-04-05T13:49:09Z</time>
      </trkpt>
      <trkpt lat="48.09426" lon="-3.63513">
        <ele>110.6</ele>
        <time>2023-04-05T13:49:10Z</time>
      </trkpt>
      <trkpt lat="48.09423" lon="-3.63513">
        <ele>110.7</ele>
        <time>2023-04-05T13:49:11Z</time>
      </trkpt>
      <trkpt lat="48.0942" lon="-3.63515">
        <ele>110.9</ele>
        <time>2023-04-05T13:49:12Z</time>
      </trkpt>
      <trkpt lat="48.09416" lon="-3.63516">
        <ele>111</ele>
        <time>2023-04-05T13:49:13Z</time>
      </trkpt>
      <trkpt lat="48.09415" lon="-3.63516">
        <ele>111.1</ele>
        <time>2023-04-05T13:49:14Z</time>
      </trkpt>
      <trkpt lat="48.09412" lon="-3.63517">
        <ele>111.2</ele>
        <time>2023-04-05T13:49:15Z</time>
      </trkpt>
      <trkpt lat="48.09411" lon="-3.63517">
        <ele>111.2</ele>
        <time>2023-04-05T13:49:16Z</time>
      </trkpt>
      <trkpt lat="48.09409" lon="-3.63518">
        <ele>111.3</ele>
        <time>2023-04-05T13:49:17Z</time>
      </trkpt>
      <trkpt lat="48.09408" lon="-3.63521">
        <ele>111.3</ele>
        <time>2023-04-05T13:49:18Z</time>
      </trkpt>
      <trkpt lat="48.09407" lon="-3.63522">
        <ele>111.4</ele>
        <time>2023-04-05T13:49:19Z</time>
      </trkpt>
      <trkpt lat="48.094" lon="-3.63525">
        <ele>111.6</ele>
        <time>2023-04-05T13:49:21Z</time>
      </trkpt>
      <trkpt lat="48.09395" lon="-3.63526">
        <ele>111.7</ele>
        <time>2023-04-05T13:49:23Z</time>
      </trkpt>
      <trkpt lat="48.09391" lon="-3.63526">
        <ele>111.7</ele>
        <time>2023-04-05T13:49:24Z</time>
      </trkpt>
      <trkpt lat="48.09387" lon="-3.63525">
        <ele>111.8</ele>
        <time>2023-04-05T13:49:25Z</time>
      </trkpt>
      <trkpt lat="48.09384" lon="-3.63527">
        <ele>111.8</ele>
        <time>2023-04-05T13:49:26Z</time>
      </trkpt>
      <trkpt lat="48.09377" lon="-3.63534">
        <ele>111.9</ele>
        <time>2023-04-05T13:49:27Z</time>
      </trkpt>
      <trkpt lat="48.09374" lon="-3.63537">
        <ele>112</ele>
        <time>2023-04-05T13:49:28Z</time>
      </trkpt>
      <trkpt lat="48.0937" lon="-3.63539">
        <ele>112</ele>
        <time>2023-04-05T13:49:30Z</time>
      </trkpt>
      <trkpt lat="48.09366" lon="-3.63541">
        <ele>112</ele>
        <time>2023-04-05T13:49:31Z</time>
      </trkpt>
      <trkpt lat="48.09362" lon="-3.63544">
        <ele>112.1</ele>
        <time>2023-04-05T13:49:32Z</time>
      </trkpt>
      <trkpt lat="48.0936" lon="-3.63546">
        <ele>112.1</ele>
        <time>2023-04-05T13:49:33Z</time>
      </trkpt>
      <trkpt lat="48.09356" lon="-3.63548">
        <ele>112.2</ele>
        <time>2023-04-05T13:49:34Z</time>
      </trkpt>
      <trkpt lat="48.09352" lon="-3.63551">
        <ele>112.2</ele>
        <time>2023-04-05T13:49:35Z</time>
      </trkpt>
      <trkpt lat="48.09348" lon="-3.63554">
        <ele>112.3</ele>
        <time>2023-04-05T13:49:36Z</time>
      </trkpt>
      <trkpt lat="48.09345" lon="-3.63557">
        <ele>112.4</ele>
        <time>2023-04-05T13:49:37Z</time>
      </trkpt>
      <trkpt lat="48.09341" lon="-3.63559">
        <ele>112.5</ele>
        <time>2023-04-05T13:49:38Z</time>
      </trkpt>
      <trkpt lat="48.09337" lon="-3.63561">
        <ele>112.5</ele>
        <time>2023-04-05T13:49:39Z</time>
      </trkpt>
      <trkpt lat="48.09333" lon="-3.63562">
        <ele>112.6</ele>
        <time>2023-04-05T13:49:40Z</time>
      </trkpt>
      <trkpt lat="48.09325" lon="-3.63568">
        <ele>112.8</ele>
        <time>2023-04-05T13:49:41Z</time>
      </trkpt>
      <trkpt lat="48.0932" lon="-3.63572">
        <ele>112.9</ele>
        <time>2023-04-05T13:49:43Z</time>
      </trkpt>
      <trkpt lat="48.09317" lon="-3.63574">
        <ele>112.9</ele>
        <time>2023-04-05T13:49:44Z</time>
      </trkpt>
      <trkpt lat="48.09313" lon="-3.63577">
        <ele>113</ele>
        <time>2023-04-05T13:49:45Z</time>
      </trkpt>
      <trkpt lat="48.09309" lon="-3.6358">
        <ele>113.1</ele>
        <time>2023-04-05T13:49:46Z</time>
      </trkpt>
      <trkpt lat="48.09305" lon="-3.63582">
        <ele>113.2</ele>
        <time>2023-04-05T13:49:47Z</time>
      </trkpt>
      <trkpt lat="48.09301" lon="-3.63585">
        <ele>113.3</ele>
        <time>2023-04-05T13:49:48Z</time>
      </trkpt>
      <trkpt lat="48.09297" lon="-3.63589">
        <ele>113.4</ele>
        <time>2023-04-05T13:49:49Z</time>
      </trkpt>
      <trkpt lat="48.09293" lon="-3.63592">
        <ele>113.4</ele>
        <time>2023-04-05T13:49:50Z</time>
      </trkpt>
      <trkpt lat="48.09289" lon="-3.63595">
        <ele>113.5</ele>
        <time>2023-04-05T13:49:51Z</time>
      </trkpt>
      <trkpt lat="48.09286" lon="-3.63598">
        <ele>113.6</ele>
        <time>2023-04-05T13:49:52Z</time>
      </trkpt>
      <trkpt lat="48.09282" lon="-3.63601">
        <ele>113.7</ele>
        <time>2023-04-05T13:49:53Z</time>
      </trkpt>
      <trkpt lat="48.09278" lon="-3.63605">
        <ele>113.8</ele>
        <time>2023-04-05T13:49:54Z</time>
      </trkpt>
      <trkpt lat="48.09274" lon="-3.63609">
        <ele>113.9</ele>
        <time>2023-04-05T13:49:55Z</time>
      </trkpt>
      <trkpt lat="48.0927" lon="-3.63612">
        <ele>114</ele>
        <time>2023-04-05T13:49:56Z</time>
      </trkpt>
      <trkpt lat="48.09266" lon="-3.63615">
        <ele>114.1</ele>
        <time>2023-04-05T13:49:57Z</time>
      </trkpt>
      <trkpt lat="48.09262" lon="-3.63617">
        <ele>114.2</ele>
        <time>2023-04-05T13:49:58Z</time>
      </trkpt>
      <trkpt lat="48.09259" lon="-3.63621">
        <ele>114.3</ele>
        <time>2023-04-05T13:49:59Z</time>
      </trkpt>
      <trkpt lat="48.09255" lon="-3.63624">
        <ele>114.4</ele>
        <time>2023-04-05T13:50:00Z</time>
      </trkpt>
      <trkpt lat="48.09251" lon="-3.63628">
        <ele>114.4</ele>
        <time>2023-04-05T13:50:01Z</time>
      </trkpt>
      <trkpt lat="48.09248" lon="-3.63631">
        <ele>114.5</ele>
        <time>2023-04-05T13:50:02Z</time>
      </trkpt>
      <trkpt lat="48.09244" lon="-3.63635">
        <ele>114.6</ele>
        <time>2023-04-05T13:50:03Z</time>
      </trkpt>
      <trkpt lat="48.09241" lon="-3.63638">
        <ele>114.6</ele>
        <time>2023-04-05T13:50:04Z</time>
      </trkpt>
      <trkpt lat="48.09237" lon="-3.6364">
        <ele>114.7</ele>
        <time>2023-04-05T13:50:05Z</time>
      </trkpt>
      <trkpt lat="48.09233" lon="-3.63643">
        <ele>114.8</ele>
        <time>2023-04-05T13:50:06Z</time>
      </trkpt>
      <trkpt lat="48.0923" lon="-3.63646">
        <ele>114.8</ele>
        <time>2023-04-05T13:50:07Z</time>
      </trkpt>
      <trkpt lat="48.09226" lon="-3.63648">
        <ele>114.9</ele>
        <time>2023-04-05T13:50:08Z</time>
      </trkpt>
      <trkpt lat="48.09223" lon="-3.63651">
        <ele>115</ele>
        <time>2023-04-05T13:50:09Z</time>
      </trkpt>
      <trkpt lat="48.09219" lon="-3.63655">
        <ele>115.1</ele>
        <time>2023-04-05T13:50:10Z</time>
      </trkpt>
      <trkpt lat="48.09216" lon="-3.63658">
        <ele>115.2</ele>
        <time>2023-04-05T13:50:11Z</time>
      </trkpt>
      <trkpt lat="48.09211" lon="-3.63661">
        <ele>115.3</ele>
        <time>2023-04-05T13:50:12Z</time>
      </trkpt>
      <trkpt lat="48.09208" lon="-3.63663">
        <ele>115.3</ele>
        <time>2023-04-05T13:50:13Z</time>
      </trkpt>
      <trkpt lat="48.09204" lon="-3.63666">
        <ele>115.4</ele>
        <time>2023-04-05T13:50:14Z</time>
      </trkpt>
      <trkpt lat="48.092" lon="-3.63669">
        <ele>115.5</ele>
        <time>2023-04-05T13:50:15Z</time>
      </trkpt>
      <trkpt lat="48.09197" lon="-3.63671">
        <ele>115.6</ele>
        <time>2023-04-05T13:50:16Z</time>
      </trkpt>
      <trkpt lat="48.09193" lon="-3.63675">
        <ele>115.7</ele>
        <time>2023-04-05T13:50:17Z</time>
      </trkpt>
      <trkpt lat="48.09189" lon="-3.63679">
        <ele>115.8</ele>
        <time>2023-04-05T13:50:18Z</time>
      </trkpt>
      <trkpt lat="48.09186" lon="-3.63683">
        <ele>115.9</ele>
        <time>2023-04-05T13:50:19Z</time>
      </trkpt>
      <trkpt lat="48.09183" lon="-3.63686">
        <ele>116</ele>
        <time>2023-04-05T13:50:20Z</time>
      </trkpt>
      <trkpt lat="48.09179" lon="-3.63689">
        <ele>116.2</ele>
        <time>2023-04-05T13:50:21Z</time>
      </trkpt>
      <trkpt lat="48.09176" lon="-3.63694">
        <ele>116.3</ele>
        <time>2023-04-05T13:50:22Z</time>
      </trkpt>
      <trkpt lat="48.09173" lon="-3.63696">
        <ele>116.4</ele>
        <time>2023-04-05T13:50:23Z</time>
      </trkpt>
      <trkpt lat="48.09169" lon="-3.63698">
        <ele>116.5</ele>
        <time>2023-04-05T13:50:24Z</time>
      </trkpt>
      <trkpt lat="48.09165" lon="-3.63702">
        <ele>116.6</ele>
        <time>2023-04-05T13:50:25Z</time>
      </trkpt>
      <trkpt lat="48.09162" lon="-3.63704">
        <ele>116.8</ele>
        <time>2023-04-05T13:50:26Z</time>
      </trkpt>
      <trkpt lat="48.09158" lon="-3.63706">
        <ele>116.9</ele>
        <time>2023-04-05T13:50:27Z</time>
      </trkpt>
      <trkpt lat="48.09154" lon="-3.63709">
        <ele>117</ele>
        <time>2023-04-05T13:50:28Z</time>
      </trkpt>
      <trkpt lat="48.09151" lon="-3.63713">
        <ele>117.1</ele>
        <time>2023-04-05T13:50:29Z</time>
      </trkpt>
      <trkpt lat="48.09147" lon="-3.63716">
        <ele>117.2</ele>
        <time>2023-04-05T13:50:30Z</time>
      </trkpt>
      <trkpt lat="48.09143" lon="-3.63719">
        <ele>117.3</ele>
        <time>2023-04-05T13:50:31Z</time>
      </trkpt>
      <trkpt lat="48.0914" lon="-3.63721">
        <ele>117.4</ele>
        <time>2023-04-05T13:50:32Z</time>
      </trkpt>
      <trkpt lat="48.09137" lon="-3.63722">
        <ele>117.5</ele>
        <time>2023-04-05T13:50:33Z</time>
      </trkpt>
      <trkpt lat="48.09132" lon="-3.63724">
        <ele>117.6</ele>
        <time>2023-04-05T13:50:34Z</time>
      </trkpt>
      <trkpt lat="48.09128" lon="-3.63728">
        <ele>117.8</ele>
        <time>2023-04-05T13:50:35Z</time>
      </trkpt>
      <trkpt lat="48.09124" lon="-3.63731">
        <ele>117.9</ele>
        <time>2023-04-05T13:50:36Z</time>
      </trkpt>
      <trkpt lat="48.09119" lon="-3.63734">
        <ele>118.1</ele>
        <time>2023-04-05T13:50:38Z</time>
      </trkpt>
      <trkpt lat="48.09116" lon="-3.63737">
        <ele>118.2</ele>
        <time>2023-04-05T13:50:39Z</time>
      </trkpt>
      <trkpt lat="48.09112" lon="-3.63739">
        <ele>118.3</ele>
        <time>2023-04-05T13:50:40Z</time>
      </trkpt>
      <trkpt lat="48.09104" lon="-3.63744">
        <ele>118.5</ele>
        <time>2023-04-05T13:50:41Z</time>
      </trkpt>
      <trkpt lat="48.09101" lon="-3.63747">
        <ele>118.6</ele>
        <time>2023-04-05T13:50:43Z</time>
      </trkpt>
      <trkpt lat="48.09098" lon="-3.6375">
        <ele>118.6</ele>
        <time>2023-04-05T13:50:44Z</time>
      </trkpt>
      <trkpt lat="48.09095" lon="-3.63753">
        <ele>118.7</ele>
        <time>2023-04-05T13:50:45Z</time>
      </trkpt>
      <trkpt lat="48.09087" lon="-3.63757">
        <ele>118.9</ele>
        <time>2023-04-05T13:50:46Z</time>
      </trkpt>
      <trkpt lat="48.09082" lon="-3.63759">
        <ele>119</ele>
        <time>2023-04-05T13:50:48Z</time>
      </trkpt>
      <trkpt lat="48.09076" lon="-3.63762">
        <ele>119.1</ele>
        <time>2023-04-05T13:50:49Z</time>
      </trkpt>
      <trkpt lat="48.09066" lon="-3.63766">
        <ele>119.3</ele>
        <time>2023-04-05T13:50:51Z</time>
      </trkpt>
      <trkpt lat="48.09061" lon="-3.63769">
        <ele>119.4</ele>
        <time>2023-04-05T13:50:53Z</time>
      </trkpt>
      <trkpt lat="48.09057" lon="-3.63772">
        <ele>119.5</ele>
        <time>2023-04-05T13:50:54Z</time>
      </trkpt>
      <trkpt lat="48.09052" lon="-3.63774">
        <ele>119.6</ele>
        <time>2023-04-05T13:50:55Z</time>
      </trkpt>
      <trkpt lat="48.09048" lon="-3.63776">
        <ele>119.6</ele>
        <time>2023-04-05T13:50:56Z</time>
      </trkpt>
      <trkpt lat="48.09044" lon="-3.63778">
        <ele>119.7</ele>
        <time>2023-04-05T13:50:57Z</time>
      </trkpt>
      <trkpt lat="48.0904" lon="-3.63779">
        <ele>119.8</ele>
        <time>2023-04-05T13:50:58Z</time>
      </trkpt>
      <trkpt lat="48.09036" lon="-3.63781">
        <ele>119.8</ele>
        <time>2023-04-05T13:50:59Z</time>
      </trkpt>
      <trkpt lat="48.09031" lon="-3.63782">
        <ele>119.9</ele>
        <time>2023-04-05T13:51:00Z</time>
      </trkpt>
      <trkpt lat="48.09027" lon="-3.63783">
        <ele>120</ele>
        <time>2023-04-05T13:51:01Z</time>
      </trkpt>
      <trkpt lat="48.0902" lon="-3.63787">
        <ele>120.1</ele>
        <time>2023-04-05T13:51:03Z</time>
      </trkpt>
      <trkpt lat="48.09014" lon="-3.63791">
        <ele>120.3</ele>
        <time>2023-04-05T13:51:04Z</time>
      </trkpt>
      <trkpt lat="48.09009" lon="-3.63794">
        <ele>120.4</ele>
        <time>2023-04-05T13:51:06Z</time>
      </trkpt>
      <trkpt lat="48.09006" lon="-3.63795">
        <ele>120.4</ele>
        <time>2023-04-05T13:51:07Z</time>
      </trkpt>
      <trkpt lat="48.09002" lon="-3.63797">
        <ele>120.5</ele>
        <time>2023-04-05T13:51:08Z</time>
      </trkpt>
      <trkpt lat="48.08998" lon="-3.63798">
        <ele>120.6</ele>
        <time>2023-04-05T13:51:09Z</time>
      </trkpt>
      <trkpt lat="48.08994" lon="-3.63799">
        <ele>120.7</ele>
        <time>2023-04-05T13:51:10Z</time>
      </trkpt>
      <trkpt lat="48.08987" lon="-3.63802">
        <ele>120.9</ele>
        <time>2023-04-05T13:51:11Z</time>
      </trkpt>
      <trkpt lat="48.08978" lon="-3.63805">
        <ele>121.2</ele>
        <time>2023-04-05T13:51:13Z</time>
      </trkpt>
      <trkpt lat="48.08975" lon="-3.63807">
        <ele>121.3</ele>
        <time>2023-04-05T13:51:14Z</time>
      </trkpt>
      <trkpt lat="48.0897" lon="-3.63808">
        <ele>121.4</ele>
        <time>2023-04-05T13:51:16Z</time>
      </trkpt>
      <trkpt lat="48.08966" lon="-3.6381">
        <ele>121.5</ele>
        <time>2023-04-05T13:51:17Z</time>
      </trkpt>
      <trkpt lat="48.08963" lon="-3.63813">
        <ele>121.6</ele>
        <time>2023-04-05T13:51:18Z</time>
      </trkpt>
      <trkpt lat="48.08959" lon="-3.63815">
        <ele>121.7</ele>
        <time>2023-04-05T13:51:19Z</time>
      </trkpt>
      <trkpt lat="48.08956" lon="-3.63817">
        <ele>121.8</ele>
        <time>2023-04-05T13:51:20Z</time>
      </trkpt>
      <trkpt lat="48.08948" lon="-3.63821">
        <ele>122</ele>
        <time>2023-04-05T13:51:21Z</time>
      </trkpt>
      <trkpt lat="48.08944" lon="-3.63822">
        <ele>122.1</ele>
        <time>2023-04-05T13:51:23Z</time>
      </trkpt>
      <trkpt lat="48.08941" lon="-3.63823">
        <ele>122.2</ele>
        <time>2023-04-05T13:51:24Z</time>
      </trkpt>
      <trkpt lat="48.08932" lon="-3.63827">
        <ele>122.4</ele>
        <time>2023-04-05T13:51:25Z</time>
      </trkpt>
      <trkpt lat="48.08927" lon="-3.63829">
        <ele>122.6</ele>
        <time>2023-04-05T13:51:27Z</time>
      </trkpt>
      <trkpt lat="48.08923" lon="-3.63833">
        <ele>122.7</ele>
        <time>2023-04-05T13:51:28Z</time>
      </trkpt>
      <trkpt lat="48.08919" lon="-3.63836">
        <ele>122.8</ele>
        <time>2023-04-05T13:51:29Z</time>
      </trkpt>
      <trkpt lat="48.08912" lon="-3.6384">
        <ele>123</ele>
        <time>2023-04-05T13:51:30Z</time>
      </trkpt>
      <trkpt lat="48.08909" lon="-3.63841">
        <ele>123.1</ele>
        <time>2023-04-05T13:51:31Z</time>
      </trkpt>
      <trkpt lat="48.08905" lon="-3.63843">
        <ele>123.2</ele>
        <time>2023-04-05T13:51:32Z</time>
      </trkpt>
      <trkpt lat="48.089" lon="-3.63846">
        <ele>123.3</ele>
        <time>2023-04-05T13:51:34Z</time>
      </trkpt>
      <trkpt lat="48.08896" lon="-3.63847">
        <ele>123.4</ele>
        <time>2023-04-05T13:51:35Z</time>
      </trkpt>
      <trkpt lat="48.08892" lon="-3.63848">
        <ele>123.6</ele>
        <time>2023-04-05T13:51:36Z</time>
      </trkpt>
      <trkpt lat="48.08884" lon="-3.63853">
        <ele>123.8</ele>
        <time>2023-04-05T13:51:37Z</time>
      </trkpt>
      <trkpt lat="48.0888" lon="-3.63855">
        <ele>123.9</ele>
        <time>2023-04-05T13:51:39Z</time>
      </trkpt>
      <trkpt lat="48.08876" lon="-3.63858">
        <ele>124</ele>
        <time>2023-04-05T13:51:40Z</time>
      </trkpt>
      <trkpt lat="48.08872" lon="-3.63861">
        <ele>124.1</ele>
        <time>2023-04-05T13:51:41Z</time>
      </trkpt>
      <trkpt lat="48.08869" lon="-3.63863">
        <ele>124.2</ele>
        <time>2023-04-05T13:51:42Z</time>
      </trkpt>
      <trkpt lat="48.08866" lon="-3.63865">
        <ele>124.3</ele>
        <time>2023-04-05T13:51:43Z</time>
      </trkpt>
      <trkpt lat="48.08861" lon="-3.63868">
        <ele>124.4</ele>
        <time>2023-04-05T13:51:44Z</time>
      </trkpt>
      <trkpt lat="48.08858" lon="-3.63872">
        <ele>124.5</ele>
        <time>2023-04-05T13:51:45Z</time>
      </trkpt>
      <trkpt lat="48.08855" lon="-3.63875">
        <ele>124.6</ele>
        <time>2023-04-05T13:51:46Z</time>
      </trkpt>
      <trkpt lat="48.08852" lon="-3.63879">
        <ele>124.7</ele>
        <time>2023-04-05T13:51:47Z</time>
      </trkpt>
      <trkpt lat="48.08848" lon="-3.63882">
        <ele>124.8</ele>
        <time>2023-04-05T13:51:48Z</time>
      </trkpt>
      <trkpt lat="48.08845" lon="-3.63885">
        <ele>124.9</ele>
        <time>2023-04-05T13:51:49Z</time>
      </trkpt>
      <trkpt lat="48.08842" lon="-3.63889">
        <ele>125</ele>
        <time>2023-04-05T13:51:50Z</time>
      </trkpt>
      <trkpt lat="48.08839" lon="-3.63892">
        <ele>125.1</ele>
        <time>2023-04-05T13:51:51Z</time>
      </trkpt>
      <trkpt lat="48.08836" lon="-3.63895">
        <ele>125.2</ele>
        <time>2023-04-05T13:51:52Z</time>
      </trkpt>
      <trkpt lat="48.08832" lon="-3.63898">
        <ele>125.3</ele>
        <time>2023-04-05T13:51:53Z</time>
      </trkpt>
      <trkpt lat="48.08828" lon="-3.63901">
        <ele>125.4</ele>
        <time>2023-04-05T13:51:54Z</time>
      </trkpt>
      <trkpt lat="48.08824" lon="-3.63904">
        <ele>125.5</ele>
        <time>2023-04-05T13:51:55Z</time>
      </trkpt>
      <trkpt lat="48.08819" lon="-3.63907">
        <ele>125.6</ele>
        <time>2023-04-05T13:51:56Z</time>
      </trkpt>
      <trkpt lat="48.08815" lon="-3.63912">
        <ele>125.7</ele>
        <time>2023-04-05T13:51:57Z</time>
      </trkpt>
      <trkpt lat="48.08812" lon="-3.63915">
        <ele>125.8</ele>
        <time>2023-04-05T13:51:58Z</time>
      </trkpt>
      <trkpt lat="48.08809" lon="-3.63919">
        <ele>125.8</ele>
        <time>2023-04-05T13:51:59Z</time>
      </trkpt>
      <trkpt lat="48.08806" lon="-3.63924">
        <ele>125.9</ele>
        <time>2023-04-05T13:52:00Z</time>
      </trkpt>
      <trkpt lat="48.08803" lon="-3.63929">
        <ele>126</ele>
        <time>2023-04-05T13:52:01Z</time>
      </trkpt>
      <trkpt lat="48.088" lon="-3.63932">
        <ele>126.1</ele>
        <time>2023-04-05T13:52:02Z</time>
      </trkpt>
      <trkpt lat="48.08796" lon="-3.63936">
        <ele>126.2</ele>
        <time>2023-04-05T13:52:03Z</time>
      </trkpt>
      <trkpt lat="48.08794" lon="-3.63942">
        <ele>126.3</ele>
        <time>2023-04-05T13:52:04Z</time>
      </trkpt>
      <trkpt lat="48.08791" lon="-3.63946">
        <ele>126.4</ele>
        <time>2023-04-05T13:52:05Z</time>
      </trkpt>
      <trkpt lat="48.08789" lon="-3.63949">
        <ele>126.4</ele>
        <time>2023-04-05T13:52:06Z</time>
      </trkpt>
      <trkpt lat="48.08786" lon="-3.63954">
        <ele>126.5</ele>
        <time>2023-04-05T13:52:07Z</time>
      </trkpt>
      <trkpt lat="48.08781" lon="-3.63965">
        <ele>126.7</ele>
        <time>2023-04-05T13:52:09Z</time>
      </trkpt>
      <trkpt lat="48.08779" lon="-3.6397">
        <ele>126.8</ele>
        <time>2023-04-05T13:52:10Z</time>
      </trkpt>
      <trkpt lat="48.08776" lon="-3.63975">
        <ele>126.9</ele>
        <time>2023-04-05T13:52:11Z</time>
      </trkpt>
      <trkpt lat="48.08774" lon="-3.6398">
        <ele>127</ele>
        <time>2023-04-05T13:52:12Z</time>
      </trkpt>
      <trkpt lat="48.08772" lon="-3.63985">
        <ele>127.1</ele>
        <time>2023-04-05T13:52:13Z</time>
      </trkpt>
      <trkpt lat="48.0877" lon="-3.6399">
        <ele>127.2</ele>
        <time>2023-04-05T13:52:14Z</time>
      </trkpt>
      <trkpt lat="48.08767" lon="-3.63996">
        <ele>127.3</ele>
        <time>2023-04-05T13:52:15Z</time>
      </trkpt>
      <trkpt lat="48.08765" lon="-3.64001">
        <ele>127.4</ele>
        <time>2023-04-05T13:52:16Z</time>
      </trkpt>
      <trkpt lat="48.08764" lon="-3.64006">
        <ele>127.5</ele>
        <time>2023-04-05T13:52:17Z</time>
      </trkpt>
      <trkpt lat="48.08762" lon="-3.64012">
        <ele>127.6</ele>
        <time>2023-04-05T13:52:18Z</time>
      </trkpt>
      <trkpt lat="48.08761" lon="-3.64017">
        <ele>127.7</ele>
        <time>2023-04-05T13:52:19Z</time>
      </trkpt>
      <trkpt lat="48.0876" lon="-3.64022">
        <ele>127.8</ele>
        <time>2023-04-05T13:52:20Z</time>
      </trkpt>
      <trkpt lat="48.08759" lon="-3.64027">
        <ele>127.8</ele>
        <time>2023-04-05T13:52:21Z</time>
      </trkpt>
      <trkpt lat="48.08758" lon="-3.64031">
        <ele>127.9</ele>
        <time>2023-04-05T13:52:22Z</time>
      </trkpt>
      <trkpt lat="48.08756" lon="-3.64036">
        <ele>128</ele>
        <time>2023-04-05T13:52:23Z</time>
      </trkpt>
      <trkpt lat="48.08754" lon="-3.64043">
        <ele>128.2</ele>
        <time>2023-04-05T13:52:24Z</time>
      </trkpt>
      <trkpt lat="48.08752" lon="-3.64051">
        <ele>128.3</ele>
        <time>2023-04-05T13:52:25Z</time>
      </trkpt>
      <trkpt lat="48.0875" lon="-3.64058">
        <ele>128.4</ele>
        <time>2023-04-05T13:52:26Z</time>
      </trkpt>
      <trkpt lat="48.08748" lon="-3.64064">
        <ele>128.5</ele>
        <time>2023-04-05T13:52:27Z</time>
      </trkpt>
      <trkpt lat="48.08747" lon="-3.6407">
        <ele>128.6</ele>
        <time>2023-04-05T13:52:28Z</time>
      </trkpt>
      <trkpt lat="48.08746" lon="-3.64077">
        <ele>128.7</ele>
        <time>2023-04-05T13:52:29Z</time>
      </trkpt>
      <trkpt lat="48.08744" lon="-3.64084">
        <ele>128.8</ele>
        <time>2023-04-05T13:52:30Z</time>
      </trkpt>
      <trkpt lat="48.08744" lon="-3.64089">
        <ele>128.9</ele>
        <time>2023-04-05T13:52:31Z</time>
      </trkpt>
      <trkpt lat="48.08743" lon="-3.64096">
        <ele>129</ele>
        <time>2023-04-05T13:52:32Z</time>
      </trkpt>
      <trkpt lat="48.08742" lon="-3.64103">
        <ele>129.1</ele>
        <time>2023-04-05T13:52:33Z</time>
      </trkpt>
      <trkpt lat="48.08741" lon="-3.64108">
        <ele>129.1</ele>
        <time>2023-04-05T13:52:34Z</time>
      </trkpt>
      <trkpt lat="48.08739" lon="-3.64114">
        <ele>129.2</ele>
        <time>2023-04-05T13:52:35Z</time>
      </trkpt>
      <trkpt lat="48.08738" lon="-3.64119">
        <ele>129.2</ele>
        <time>2023-04-05T13:52:36Z</time>
      </trkpt>
      <trkpt lat="48.08736" lon="-3.64124">
        <ele>129.3</ele>
        <time>2023-04-05T13:52:37Z</time>
      </trkpt>
      <trkpt lat="48.08735" lon="-3.64129">
        <ele>129.4</ele>
        <time>2023-04-05T13:52:38Z</time>
      </trkpt>
      <trkpt lat="48.08734" lon="-3.64133">
        <ele>129.4</ele>
        <time>2023-04-05T13:52:39Z</time>
      </trkpt>
      <trkpt lat="48.08733" lon="-3.64139">
        <ele>129.5</ele>
        <time>2023-04-05T13:52:40Z</time>
      </trkpt>
      <trkpt lat="48.08732" lon="-3.64144">
        <ele>129.5</ele>
        <time>2023-04-05T13:52:41Z</time>
      </trkpt>
      <trkpt lat="48.08731" lon="-3.64149">
        <ele>129.6</ele>
        <time>2023-04-05T13:52:42Z</time>
      </trkpt>
      <trkpt lat="48.08729" lon="-3.64155">
        <ele>129.7</ele>
        <time>2023-04-05T13:52:43Z</time>
      </trkpt>
      <trkpt lat="48.08725" lon="-3.64165">
        <ele>129.8</ele>
        <time>2023-04-05T13:52:45Z</time>
      </trkpt>
      <trkpt lat="48.08722" lon="-3.64173">
        <ele>130</ele>
        <time>2023-04-05T13:52:46Z</time>
      </trkpt>
      <trkpt lat="48.0872" lon="-3.6418">
        <ele>130.1</ele>
        <time>2023-04-05T13:52:47Z</time>
      </trkpt>
      <trkpt lat="48.08719" lon="-3.64185">
        <ele>130.2</ele>
        <time>2023-04-05T13:52:48Z</time>
      </trkpt>
      <trkpt lat="48.08718" lon="-3.64191">
        <ele>130.3</ele>
        <time>2023-04-05T13:52:49Z</time>
      </trkpt>
      <trkpt lat="48.08717" lon="-3.64197">
        <ele>130.3</ele>
        <time>2023-04-05T13:52:50Z</time>
      </trkpt>
      <trkpt lat="48.08716" lon="-3.64202">
        <ele>130.4</ele>
        <time>2023-04-05T13:52:51Z</time>
      </trkpt>
      <trkpt lat="48.08713" lon="-3.64212">
        <ele>130.6</ele>
        <time>2023-04-05T13:52:52Z</time>
      </trkpt>
      <trkpt lat="48.0871" lon="-3.64219">
        <ele>130.7</ele>
        <time>2023-04-05T13:52:54Z</time>
      </trkpt>
      <trkpt lat="48.08709" lon="-3.64223">
        <ele>130.8</ele>
        <time>2023-04-05T13:52:55Z</time>
      </trkpt>
      <trkpt lat="48.08707" lon="-3.64228">
        <ele>130.9</ele>
        <time>2023-04-05T13:52:56Z</time>
      </trkpt>
      <trkpt lat="48.08706" lon="-3.64233">
        <ele>131</ele>
        <time>2023-04-05T13:52:57Z</time>
      </trkpt>
      <trkpt lat="48.08705" lon="-3.64239">
        <ele>131.1</ele>
        <time>2023-04-05T13:52:58Z</time>
      </trkpt>
      <trkpt lat="48.08704" lon="-3.64244">
        <ele>131.2</ele>
        <time>2023-04-05T13:52:59Z</time>
      </trkpt>
      <trkpt lat="48.08702" lon="-3.64249">
        <ele>131.2</ele>
        <time>2023-04-05T13:53:00Z</time>
      </trkpt>
      <trkpt lat="48.087" lon="-3.64255">
        <ele>131.3</ele>
        <time>2023-04-05T13:53:01Z</time>
      </trkpt>
      <trkpt lat="48.08698" lon="-3.64261">
        <ele>131.4</ele>
        <time>2023-04-05T13:53:02Z</time>
      </trkpt>
      <trkpt lat="48.08697" lon="-3.64266">
        <ele>131.5</ele>
        <time>2023-04-05T13:53:03Z</time>
      </trkpt>
      <trkpt lat="48.08695" lon="-3.64272">
        <ele>131.6</ele>
        <time>2023-04-05T13:53:04Z</time>
      </trkpt>
      <trkpt lat="48.08694" lon="-3.64278">
        <ele>131.6</ele>
        <time>2023-04-05T13:53:05Z</time>
      </trkpt>
      <trkpt lat="48.08692" lon="-3.64286">
        <ele>131.8</ele>
        <time>2023-04-05T13:53:06Z</time>
      </trkpt>
      <trkpt lat="48.0869" lon="-3.64294">
        <ele>131.9</ele>
        <time>2023-04-05T13:53:07Z</time>
      </trkpt>
      <trkpt lat="48.08689" lon="-3.643">
        <ele>132</ele>
        <time>2023-04-05T13:53:08Z</time>
      </trkpt>
      <trkpt lat="48.08687" lon="-3.64304">
        <ele>132</ele>
        <time>2023-04-05T13:53:09Z</time>
      </trkpt>
      <trkpt lat="48.08685" lon="-3.64311">
        <ele>132.1</ele>
        <time>2023-04-05T13:53:11Z</time>
      </trkpt>
      <trkpt lat="48.08684" lon="-3.64316">
        <ele>132.2</ele>
        <time>2023-04-05T13:53:12Z</time>
      </trkpt>
      <trkpt lat="48.08681" lon="-3.64327">
        <ele>132.4</ele>
        <time>2023-04-05T13:53:13Z</time>
      </trkpt>
      <trkpt lat="48.08679" lon="-3.64333">
        <ele>132.5</ele>
        <time>2023-04-05T13:53:15Z</time>
      </trkpt>
      <trkpt lat="48.08678" lon="-3.64339">
        <ele>132.5</ele>
        <time>2023-04-05T13:53:16Z</time>
      </trkpt>
      <trkpt lat="48.08677" lon="-3.64345">
        <ele>132.6</ele>
        <time>2023-04-05T13:53:17Z</time>
      </trkpt>
      <trkpt lat="48.08676" lon="-3.64351">
        <ele>132.7</ele>
        <time>2023-04-05T13:53:18Z</time>
      </trkpt>
      <trkpt lat="48.08674" lon="-3.64357">
        <ele>132.8</ele>
        <time>2023-04-05T13:53:19Z</time>
      </trkpt>
      <trkpt lat="48.08672" lon="-3.64368">
        <ele>133</ele>
        <time>2023-04-05T13:53:20Z</time>
      </trkpt>
      <trkpt lat="48.08671" lon="-3.64373">
        <ele>133.1</ele>
        <time>2023-04-05T13:53:21Z</time>
      </trkpt>
      <trkpt lat="48.08669" lon="-3.64379">
        <ele>133.2</ele>
        <time>2023-04-05T13:53:23Z</time>
      </trkpt>
      <trkpt lat="48.08669" lon="-3.64387">
        <ele>133.3</ele>
        <time>2023-04-05T13:53:24Z</time>
      </trkpt>
      <trkpt lat="48.08667" lon="-3.64393">
        <ele>133.4</ele>
        <time>2023-04-05T13:53:25Z</time>
      </trkpt>
      <trkpt lat="48.08666" lon="-3.64397">
        <ele>133.4</ele>
        <time>2023-04-05T13:53:26Z</time>
      </trkpt>
      <trkpt lat="48.08665" lon="-3.64402">
        <ele>133.5</ele>
        <time>2023-04-05T13:53:27Z</time>
      </trkpt>
      <trkpt lat="48.08662" lon="-3.64411">
        <ele>133.7</ele>
        <time>2023-04-05T13:53:28Z</time>
      </trkpt>
      <trkpt lat="48.08659" lon="-3.64418">
        <ele>133.8</ele>
        <time>2023-04-05T13:53:30Z</time>
      </trkpt>
      <trkpt lat="48.08658" lon="-3.64422">
        <ele>133.8</ele>
        <time>2023-04-05T13:53:31Z</time>
      </trkpt>
      <trkpt lat="48.08656" lon="-3.64427">
        <ele>133.9</ele>
        <time>2023-04-05T13:53:32Z</time>
      </trkpt>
      <trkpt lat="48.08654" lon="-3.64433">
        <ele>134</ele>
        <time>2023-04-05T13:53:33Z</time>
      </trkpt>
      <trkpt lat="48.08652" lon="-3.64445">
        <ele>134.2</ele>
        <time>2023-04-05T13:53:34Z</time>
      </trkpt>
      <trkpt lat="48.0865" lon="-3.64453">
        <ele>134.3</ele>
        <time>2023-04-05T13:53:36Z</time>
      </trkpt>
      <trkpt lat="48.08646" lon="-3.64461">
        <ele>134.4</ele>
        <time>2023-04-05T13:53:37Z</time>
      </trkpt>
      <trkpt lat="48.0864" lon="-3.64471">
        <ele>134.6</ele>
        <time>2023-04-05T13:53:39Z</time>
      </trkpt>
      <trkpt lat="48.08638" lon="-3.64479">
        <ele>134.8</ele>
        <time>2023-04-05T13:53:41Z</time>
      </trkpt>
      <trkpt lat="48.08635" lon="-3.64488">
        <ele>134.9</ele>
        <time>2023-04-05T13:53:42Z</time>
      </trkpt>
      <trkpt lat="48.08632" lon="-3.64494">
        <ele>135</ele>
        <time>2023-04-05T13:53:43Z</time>
      </trkpt>
      <trkpt lat="48.08629" lon="-3.64497">
        <ele>135.1</ele>
        <time>2023-04-05T13:53:45Z</time>
      </trkpt>
      <trkpt lat="48.08627" lon="-3.64503">
        <ele>135.2</ele>
        <time>2023-04-05T13:53:46Z</time>
      </trkpt>
      <trkpt lat="48.08625" lon="-3.64507">
        <ele>135.3</ele>
        <time>2023-04-05T13:53:47Z</time>
      </trkpt>
      <trkpt lat="48.08623" lon="-3.64512">
        <ele>135.4</ele>
        <time>2023-04-05T13:53:48Z</time>
      </trkpt>
      <trkpt lat="48.08621" lon="-3.64518">
        <ele>135.5</ele>
        <time>2023-04-05T13:53:49Z</time>
      </trkpt>
      <trkpt lat="48.08619" lon="-3.64523">
        <ele>135.6</ele>
        <time>2023-04-05T13:53:50Z</time>
      </trkpt>
      <trkpt lat="48.08618" lon="-3.64528">
        <ele>135.6</ele>
        <time>2023-04-05T13:53:51Z</time>
      </trkpt>
      <trkpt lat="48.08615" lon="-3.64534">
        <ele>135.8</ele>
        <time>2023-04-05T13:53:52Z</time>
      </trkpt>
      <trkpt lat="48.08611" lon="-3.64542">
        <ele>135.9</ele>
        <time>2023-04-05T13:53:53Z</time>
      </trkpt>
      <trkpt lat="48.08608" lon="-3.64548">
        <ele>136</ele>
        <time>2023-04-05T13:53:55Z</time>
      </trkpt>
      <trkpt lat="48.08607" lon="-3.64552">
        <ele>136.1</ele>
        <time>2023-04-05T13:53:56Z</time>
      </trkpt>
      <trkpt lat="48.08605" lon="-3.64558">
        <ele>136.2</ele>
        <time>2023-04-05T13:53:57Z</time>
      </trkpt>
      <trkpt lat="48.08602" lon="-3.64564">
        <ele>136.4</ele>
        <time>2023-04-05T13:53:58Z</time>
      </trkpt>
      <trkpt lat="48.086" lon="-3.64569">
        <ele>136.5</ele>
        <time>2023-04-05T13:53:59Z</time>
      </trkpt>
      <trkpt lat="48.08598" lon="-3.64574">
        <ele>136.6</ele>
        <time>2023-04-05T13:54:00Z</time>
      </trkpt>
      <trkpt lat="48.08596" lon="-3.64579">
        <ele>136.7</ele>
        <time>2023-04-05T13:54:01Z</time>
      </trkpt>
      <trkpt lat="48.08594" lon="-3.64585">
        <ele>136.8</ele>
        <time>2023-04-05T13:54:02Z</time>
      </trkpt>
      <trkpt lat="48.08591" lon="-3.6459">
        <ele>136.9</ele>
        <time>2023-04-05T13:54:03Z</time>
      </trkpt>
      <trkpt lat="48.08589" lon="-3.64595">
        <ele>137</ele>
        <time>2023-04-05T13:54:04Z</time>
      </trkpt>
      <trkpt lat="48.08586" lon="-3.64601">
        <ele>137.1</ele>
        <time>2023-04-05T13:54:05Z</time>
      </trkpt>
      <trkpt lat="48.08584" lon="-3.64607">
        <ele>137.3</ele>
        <time>2023-04-05T13:54:06Z</time>
      </trkpt>
      <trkpt lat="48.08582" lon="-3.64612">
        <ele>137.4</ele>
        <time>2023-04-05T13:54:07Z</time>
      </trkpt>
      <trkpt lat="48.0858" lon="-3.64618">
        <ele>137.5</ele>
        <time>2023-04-05T13:54:08Z</time>
      </trkpt>
      <trkpt lat="48.08577" lon="-3.64624">
        <ele>137.6</ele>
        <time>2023-04-05T13:54:09Z</time>
      </trkpt>
      <trkpt lat="48.08576" lon="-3.64629">
        <ele>137.7</ele>
        <time>2023-04-05T13:54:10Z</time>
      </trkpt>
      <trkpt lat="48.08574" lon="-3.64634">
        <ele>137.7</ele>
        <time>2023-04-05T13:54:11Z</time>
      </trkpt>
      <trkpt lat="48.08572" lon="-3.64639">
        <ele>137.8</ele>
        <time>2023-04-05T13:54:12Z</time>
      </trkpt>
      <trkpt lat="48.0857" lon="-3.64644">
        <ele>137.9</ele>
        <time>2023-04-05T13:54:13Z</time>
      </trkpt>
      <trkpt lat="48.08569" lon="-3.6465">
        <ele>138</ele>
        <time>2023-04-05T13:54:14Z</time>
      </trkpt>
      <trkpt lat="48.08567" lon="-3.64656">
        <ele>138.1</ele>
        <time>2023-04-05T13:54:15Z</time>
      </trkpt>
      <trkpt lat="48.08564" lon="-3.64661">
        <ele>138.2</ele>
        <time>2023-04-05T13:54:16Z</time>
      </trkpt>
      <trkpt lat="48.08562" lon="-3.64666">
        <ele>138.3</ele>
        <time>2023-04-05T13:54:17Z</time>
      </trkpt>
      <trkpt lat="48.08559" lon="-3.64672">
        <ele>138.4</ele>
        <time>2023-04-05T13:54:18Z</time>
      </trkpt>
      <trkpt lat="48.08557" lon="-3.64678">
        <ele>138.5</ele>
        <time>2023-04-05T13:54:19Z</time>
      </trkpt>
      <trkpt lat="48.08555" lon="-3.64683">
        <ele>138.5</ele>
        <time>2023-04-05T13:54:20Z</time>
      </trkpt>
      <trkpt lat="48.08553" lon="-3.64688">
        <ele>138.6</ele>
        <time>2023-04-05T13:54:21Z</time>
      </trkpt>
      <trkpt lat="48.0855" lon="-3.64693">
        <ele>138.7</ele>
        <time>2023-04-05T13:54:22Z</time>
      </trkpt>
      <trkpt lat="48.08547" lon="-3.64698">
        <ele>138.8</ele>
        <time>2023-04-05T13:54:23Z</time>
      </trkpt>
      <trkpt lat="48.08545" lon="-3.64704">
        <ele>138.9</ele>
        <time>2023-04-05T13:54:24Z</time>
      </trkpt>
      <trkpt lat="48.08542" lon="-3.64709">
        <ele>139</ele>
        <time>2023-04-05T13:54:25Z</time>
      </trkpt>
      <trkpt lat="48.0854" lon="-3.64714">
        <ele>139.1</ele>
        <time>2023-04-05T13:54:26Z</time>
      </trkpt>
      <trkpt lat="48.08538" lon="-3.64719">
        <ele>139.2</ele>
        <time>2023-04-05T13:54:27Z</time>
      </trkpt>
      <trkpt lat="48.08537" lon="-3.64724">
        <ele>139.3</ele>
        <time>2023-04-05T13:54:28Z</time>
      </trkpt>
      <trkpt lat="48.08534" lon="-3.64727">
        <ele>139.4</ele>
        <time>2023-04-05T13:54:29Z</time>
      </trkpt>
      <trkpt lat="48.08533" lon="-3.6473">
        <ele>139.5</ele>
        <time>2023-04-05T13:54:30Z</time>
      </trkpt>
      <trkpt lat="48.08533" lon="-3.64731">
        <ele>139.5</ele>
        <time>2023-04-05T13:54:31Z</time>
      </trkpt>
      <trkpt lat="48.08533" lon="-3.64731">
        <ele>139.5</ele>
        <time>2023-04-05T13:54:32Z</time>
      </trkpt>
      <trkpt lat="48.08533" lon="-3.6473">
        <ele>139.5</ele>
        <time>2023-04-05T13:54:33Z</time>
      </trkpt>
      <trkpt lat="48.08533" lon="-3.6473">
        <ele>139.5</ele>
        <time>2023-04-05T13:54:34Z</time>
      </trkpt>
      <trkpt lat="48.08533" lon="-3.64729">
        <ele>139.5</ele>
        <time>2023-04-05T13:54:35Z</time>
      </trkpt>
      <trkpt lat="48.08533" lon="-3.64729">
        <ele>139.5</ele>
        <time>2023-04-05T13:54:36Z</time>
      </trkpt>
      <trkpt lat="48.08533" lon="-3.64729">
        <ele>139.5</ele>
        <time>2023-04-05T13:54:37Z</time>
      </trkpt>
      <trkpt lat="48.08533" lon="-3.64729">
        <ele>139.5</ele>
        <time>2023-04-05T13:54:38Z</time>
      </trkpt>
      <trkpt lat="48.08533" lon="-3.64729">
        <ele>139.5</ele>
        <time>2023-04-05T13:54:39Z</time>
      </trkpt>
      <trkpt lat="48.08533" lon="-3.64729">
        <ele>139.5</ele>
        <time>2023-04-05T13:54:40Z</time>
      </trkpt>
      <trkpt lat="48.08533" lon="-3.64729">
        <ele>139.5</ele>
        <time>2023-04-05T13:54:41Z</time>
      </trkpt>
      <trkpt lat="48.08533" lon="-3.64729">
        <ele>139.5</ele>
        <time>2023-04-05T13:54:42Z</time>
      </trkpt>
      <trkpt lat="48.08531" lon="-3.6473">
        <ele>139.6</ele>
        <time>2023-04-05T13:55:54Z</time>
      </trkpt>
      <trkpt lat="48.08531" lon="-3.6473">
        <ele>139.6</ele>
        <time>2023-04-05T13:55:55Z</time>
      </trkpt>
      <trkpt lat="48.08531" lon="-3.64732">
        <ele>139.6</ele>
        <time>2023-04-05T13:55:56Z</time>
      </trkpt>
      <trkpt lat="48.08529" lon="-3.64733">
        <ele>139.7</ele>
        <time>2023-04-05T13:55:57Z</time>
      </trkpt>
      <trkpt lat="48.08527" lon="-3.64736">
        <ele>139.7</ele>
        <time>2023-04-05T13:55:59Z</time>
      </trkpt>
      <trkpt lat="48.08526" lon="-3.64741">
        <ele>139.8</ele>
        <time>2023-04-05T13:56:00Z</time>
      </trkpt>
      <trkpt lat="48.08524" lon="-3.64745">
        <ele>139.9</ele>
        <time>2023-04-05T13:56:01Z</time>
      </trkpt>
      <trkpt lat="48.08522" lon="-3.6475">
        <ele>140</ele>
        <time>2023-04-05T13:56:02Z</time>
      </trkpt>
      <trkpt lat="48.0852" lon="-3.64754">
        <ele>140.1</ele>
        <time>2023-04-05T13:56:03Z</time>
      </trkpt>
      <trkpt lat="48.08518" lon="-3.64758">
        <ele>140.1</ele>
        <time>2023-04-05T13:56:04Z</time>
      </trkpt>
      <trkpt lat="48.08516" lon="-3.64762">
        <ele>140.2</ele>
        <time>2023-04-05T13:56:05Z</time>
      </trkpt>
      <trkpt lat="48.08515" lon="-3.64768">
        <ele>140.3</ele>
        <time>2023-04-05T13:56:06Z</time>
      </trkpt>
      <trkpt lat="48.08514" lon="-3.64771">
        <ele>140.4</ele>
        <time>2023-04-05T13:56:07Z</time>
      </trkpt>
      <trkpt lat="48.08512" lon="-3.64775">
        <ele>140.4</ele>
        <time>2023-04-05T13:56:08Z</time>
      </trkpt>
      <trkpt lat="48.0851" lon="-3.64779">
        <ele>140.5</ele>
        <time>2023-04-05T13:56:09Z</time>
      </trkpt>
      <trkpt lat="48.08508" lon="-3.64785">
        <ele>140.6</ele>
        <time>2023-04-05T13:56:10Z</time>
      </trkpt>
      <trkpt lat="48.08506" lon="-3.64789">
        <ele>140.7</ele>
        <time>2023-04-05T13:56:11Z</time>
      </trkpt>
      <trkpt lat="48.08504" lon="-3.64794">
        <ele>140.8</ele>
        <time>2023-04-05T13:56:12Z</time>
      </trkpt>
      <trkpt lat="48.08503" lon="-3.64798">
        <ele>140.9</ele>
        <time>2023-04-05T13:56:13Z</time>
      </trkpt>
      <trkpt lat="48.08501" lon="-3.64803">
        <ele>141</ele>
        <time>2023-04-05T13:56:14Z</time>
      </trkpt>
      <trkpt lat="48.08499" lon="-3.64807">
        <ele>141.1</ele>
        <time>2023-04-05T13:56:15Z</time>
      </trkpt>
      <trkpt lat="48.08497" lon="-3.64812">
        <ele>141.2</ele>
        <time>2023-04-05T13:56:16Z</time>
      </trkpt>
      <trkpt lat="48.08495" lon="-3.64816">
        <ele>141.3</ele>
        <time>2023-04-05T13:56:17Z</time>
      </trkpt>
      <trkpt lat="48.08493" lon="-3.6482">
        <ele>141.3</ele>
        <time>2023-04-05T13:56:18Z</time>
      </trkpt>
      <trkpt lat="48.08491" lon="-3.64825">
        <ele>141.5</ele>
        <time>2023-04-05T13:56:19Z</time>
      </trkpt>
      <trkpt lat="48.08489" lon="-3.64829">
        <ele>141.5</ele>
        <time>2023-04-05T13:56:20Z</time>
      </trkpt>
      <trkpt lat="48.08488" lon="-3.64835">
        <ele>141.6</ele>
        <time>2023-04-05T13:56:21Z</time>
      </trkpt>
      <trkpt lat="48.08486" lon="-3.6484">
        <ele>141.8</ele>
        <time>2023-04-05T13:56:22Z</time>
      </trkpt>
      <trkpt lat="48.08484" lon="-3.64846">
        <ele>141.9</ele>
        <time>2023-04-05T13:56:23Z</time>
      </trkpt>
      <trkpt lat="48.08483" lon="-3.64849">
        <ele>141.9</ele>
        <time>2023-04-05T13:56:24Z</time>
      </trkpt>
      <trkpt lat="48.08481" lon="-3.64853">
        <ele>142</ele>
        <time>2023-04-05T13:56:25Z</time>
      </trkpt>
      <trkpt lat="48.08479" lon="-3.64858">
        <ele>142.1</ele>
        <time>2023-04-05T13:56:26Z</time>
      </trkpt>
      <trkpt lat="48.08478" lon="-3.64861">
        <ele>142.2</ele>
        <time>2023-04-05T13:56:27Z</time>
      </trkpt>
      <trkpt lat="48.08476" lon="-3.64868">
        <ele>142.3</ele>
        <time>2023-04-05T13:56:28Z</time>
      </trkpt>
      <trkpt lat="48.08473" lon="-3.64872">
        <ele>142.4</ele>
        <time>2023-04-05T13:56:29Z</time>
      </trkpt>
      <trkpt lat="48.08471" lon="-3.64877">
        <ele>142.5</ele>
        <time>2023-04-05T13:56:30Z</time>
      </trkpt>
      <trkpt lat="48.08468" lon="-3.64882">
        <ele>142.5</ele>
        <time>2023-04-05T13:56:31Z</time>
      </trkpt>
      <trkpt lat="48.08466" lon="-3.64886">
        <ele>142.6</ele>
        <time>2023-04-05T13:56:32Z</time>
      </trkpt>
      <trkpt lat="48.08464" lon="-3.64891">
        <ele>142.7</ele>
        <time>2023-04-05T13:56:33Z</time>
      </trkpt>
      <trkpt lat="48.08463" lon="-3.64896">
        <ele>142.8</ele>
        <time>2023-04-05T13:56:34Z</time>
      </trkpt>
      <trkpt lat="48.08461" lon="-3.64901">
        <ele>142.9</ele>
        <time>2023-04-05T13:56:35Z</time>
      </trkpt>
      <trkpt lat="48.08459" lon="-3.64907">
        <ele>142.9</ele>
        <time>2023-04-05T13:56:36Z</time>
      </trkpt>
      <trkpt lat="48.08456" lon="-3.64912">
        <ele>143</ele>
        <time>2023-04-05T13:56:37Z</time>
      </trkpt>
      <trkpt lat="48.08454" lon="-3.64918">
        <ele>143.1</ele>
        <time>2023-04-05T13:56:38Z</time>
      </trkpt>
      <trkpt lat="48.08453" lon="-3.64923">
        <ele>143.2</ele>
        <time>2023-04-05T13:56:39Z</time>
      </trkpt>
      <trkpt lat="48.08451" lon="-3.64929">
        <ele>143.3</ele>
        <time>2023-04-05T13:56:40Z</time>
      </trkpt>
      <trkpt lat="48.08449" lon="-3.64935">
        <ele>143.4</ele>
        <time>2023-04-05T13:56:41Z</time>
      </trkpt>
      <trkpt lat="48.08447" lon="-3.64941">
        <ele>143.5</ele>
        <time>2023-04-05T13:56:42Z</time>
      </trkpt>
      <trkpt lat="48.08445" lon="-3.64947">
        <ele>143.6</ele>
        <time>2023-04-05T13:56:43Z</time>
      </trkpt>
      <trkpt lat="48.08444" lon="-3.6495">
        <ele>143.7</ele>
        <time>2023-04-05T13:56:44Z</time>
      </trkpt>
      <trkpt lat="48.08443" lon="-3.64956">
        <ele>143.8</ele>
        <time>2023-04-05T13:56:45Z</time>
      </trkpt>
      <trkpt lat="48.08442" lon="-3.6496">
        <ele>143.9</ele>
        <time>2023-04-05T13:56:46Z</time>
      </trkpt>
      <trkpt lat="48.08441" lon="-3.64966">
        <ele>144</ele>
        <time>2023-04-05T13:56:47Z</time>
      </trkpt>
      <trkpt lat="48.08441" lon="-3.64974">
        <ele>144.2</ele>
        <time>2023-04-05T13:56:49Z</time>
      </trkpt>
      <trkpt lat="48.08438" lon="-3.64985">
        <ele>144.4</ele>
        <time>2023-04-05T13:56:50Z</time>
      </trkpt>
      <trkpt lat="48.08437" lon="-3.64992">
        <ele>144.5</ele>
        <time>2023-04-05T13:56:51Z</time>
      </trkpt>
      <trkpt lat="48.08436" lon="-3.64999">
        <ele>144.6</ele>
        <time>2023-04-05T13:56:53Z</time>
      </trkpt>
      <trkpt lat="48.08435" lon="-3.65006">
        <ele>144.7</ele>
        <time>2023-04-05T13:56:54Z</time>
      </trkpt>
      <trkpt lat="48.08435" lon="-3.65015">
        <ele>144.8</ele>
        <time>2023-04-05T13:56:56Z</time>
      </trkpt>
      <trkpt lat="48.08433" lon="-3.65023">
        <ele>144.9</ele>
        <time>2023-04-05T13:56:58Z</time>
      </trkpt>
      <trkpt lat="48.08433" lon="-3.65028">
        <ele>144.9</ele>
        <time>2023-04-05T13:56:59Z</time>
      </trkpt>
      <trkpt lat="48.08431" lon="-3.65033">
        <ele>145</ele>
        <time>2023-04-05T13:57:00Z</time>
      </trkpt>
      <trkpt lat="48.0843" lon="-3.65038">
        <ele>145.1</ele>
        <time>2023-04-05T13:57:01Z</time>
      </trkpt>
      <trkpt lat="48.0843" lon="-3.65044">
        <ele>145.2</ele>
        <time>2023-04-05T13:57:02Z</time>
      </trkpt>
      <trkpt lat="48.08429" lon="-3.65049">
        <ele>145.2</ele>
        <time>2023-04-05T13:57:03Z</time>
      </trkpt>
      <trkpt lat="48.08428" lon="-3.65056">
        <ele>145.3</ele>
        <time>2023-04-05T13:57:04Z</time>
      </trkpt>
      <trkpt lat="48.08428" lon="-3.6506">
        <ele>145.4</ele>
        <time>2023-04-05T13:57:06Z</time>
      </trkpt>
      <trkpt lat="48.08428" lon="-3.65067">
        <ele>145.4</ele>
        <time>2023-04-05T13:57:07Z</time>
      </trkpt>
      <trkpt lat="48.08428" lon="-3.65071">
        <ele>145.5</ele>
        <time>2023-04-05T13:57:08Z</time>
      </trkpt>
      <trkpt lat="48.08428" lon="-3.65077">
        <ele>145.5</ele>
        <time>2023-04-05T13:57:09Z</time>
      </trkpt>
      <trkpt lat="48.08427" lon="-3.65084">
        <ele>145.6</ele>
        <time>2023-04-05T13:57:10Z</time>
      </trkpt>
      <trkpt lat="48.08426" lon="-3.65093">
        <ele>145.6</ele>
        <time>2023-04-05T13:57:11Z</time>
      </trkpt>
      <trkpt lat="48.08426" lon="-3.651">
        <ele>145.7</ele>
        <time>2023-04-05T13:57:13Z</time>
      </trkpt>
      <trkpt lat="48.08426" lon="-3.65106">
        <ele>145.7</ele>
        <time>2023-04-05T13:57:14Z</time>
      </trkpt>
      <trkpt lat="48.08425" lon="-3.65111">
        <ele>145.8</ele>
        <time>2023-04-05T13:57:15Z</time>
      </trkpt>
      <trkpt lat="48.08425" lon="-3.65118">
        <ele>145.8</ele>
        <time>2023-04-05T13:57:16Z</time>
      </trkpt>
      <trkpt lat="48.08424" lon="-3.65124">
        <ele>145.9</ele>
        <time>2023-04-05T13:57:17Z</time>
      </trkpt>
      <trkpt lat="48.08424" lon="-3.65131">
        <ele>145.9</ele>
        <time>2023-04-05T13:57:18Z</time>
      </trkpt>
      <trkpt lat="48.08423" lon="-3.65138">
        <ele>146</ele>
        <time>2023-04-05T13:57:19Z</time>
      </trkpt>
      <trkpt lat="48.08422" lon="-3.65144">
        <ele>146</ele>
        <time>2023-04-05T13:57:20Z</time>
      </trkpt>
      <trkpt lat="48.08421" lon="-3.65151">
        <ele>146</ele>
        <time>2023-04-05T13:57:21Z</time>
      </trkpt>
      <trkpt lat="48.0842" lon="-3.65158">
        <ele>146.1</ele>
        <time>2023-04-05T13:57:22Z</time>
      </trkpt>
      <trkpt lat="48.08419" lon="-3.65164">
        <ele>146.1</ele>
        <time>2023-04-05T13:57:23Z</time>
      </trkpt>
      <trkpt lat="48.08419" lon="-3.65171">
        <ele>146.1</ele>
        <time>2023-04-05T13:57:24Z</time>
      </trkpt>
      <trkpt lat="48.08419" lon="-3.65176">
        <ele>146.2</ele>
        <time>2023-04-05T13:57:25Z</time>
      </trkpt>
      <trkpt lat="48.08418" lon="-3.65182">
        <ele>146.2</ele>
        <time>2023-04-05T13:57:26Z</time>
      </trkpt>
      <trkpt lat="48.08417" lon="-3.65188">
        <ele>146.2</ele>
        <time>2023-04-05T13:57:27Z</time>
      </trkpt>
      <trkpt lat="48.08416" lon="-3.65194">
        <ele>146.2</ele>
        <time>2023-04-05T13:57:28Z</time>
      </trkpt>
      <trkpt lat="48.08415" lon="-3.652">
        <ele>146.2</ele>
        <time>2023-04-05T13:57:29Z</time>
      </trkpt>
      <trkpt lat="48.08413" lon="-3.65206">
        <ele>146.2</ele>
        <time>2023-04-05T13:57:30Z</time>
      </trkpt>
      <trkpt lat="48.08411" lon="-3.65217">
        <ele>146.3</ele>
        <time>2023-04-05T13:57:31Z</time>
      </trkpt>
      <trkpt lat="48.0841" lon="-3.65225">
        <ele>146.3</ele>
        <time>2023-04-05T13:57:32Z</time>
      </trkpt>
      <trkpt lat="48.08408" lon="-3.65232">
        <ele>146.4</ele>
        <time>2023-04-05T13:57:34Z</time>
      </trkpt>
      <trkpt lat="48.08406" lon="-3.65238">
        <ele>146.4</ele>
        <time>2023-04-05T13:57:35Z</time>
      </trkpt>
      <trkpt lat="48.08402" lon="-3.65248">
        <ele>146.6</ele>
        <time>2023-04-05T13:57:36Z</time>
      </trkpt>
      <trkpt lat="48.084" lon="-3.65255">
        <ele>146.6</ele>
        <time>2023-04-05T13:57:37Z</time>
      </trkpt>
      <trkpt lat="48.08398" lon="-3.65261">
        <ele>146.7</ele>
        <time>2023-04-05T13:57:38Z</time>
      </trkpt>
      <trkpt lat="48.08396" lon="-3.65266">
        <ele>146.8</ele>
        <time>2023-04-05T13:57:40Z</time>
      </trkpt>
      <trkpt lat="48.08393" lon="-3.65274">
        <ele>146.8</ele>
        <time>2023-04-05T13:57:41Z</time>
      </trkpt>
      <trkpt lat="48.08387" lon="-3.65285">
        <ele>147</ele>
        <time>2023-04-05T13:57:43Z</time>
      </trkpt>
      <trkpt lat="48.08384" lon="-3.65289">
        <ele>147</ele>
        <time>2023-04-05T13:57:45Z</time>
      </trkpt>
      <trkpt lat="48.08382" lon="-3.65294">
        <ele>147.1</ele>
        <time>2023-04-05T13:57:46Z</time>
      </trkpt>
      <trkpt lat="48.08378" lon="-3.653">
        <ele>147.2</ele>
        <time>2023-04-05T13:57:47Z</time>
      </trkpt>
      <trkpt lat="48.08376" lon="-3.65303">
        <ele>147.2</ele>
        <time>2023-04-05T13:57:48Z</time>
      </trkpt>
      <trkpt lat="48.08369" lon="-3.65312">
        <ele>147.3</ele>
        <time>2023-04-05T13:57:49Z</time>
      </trkpt>
      <trkpt lat="48.08365" lon="-3.65317">
        <ele>147.4</ele>
        <time>2023-04-05T13:57:51Z</time>
      </trkpt>
      <trkpt lat="48.08362" lon="-3.65321">
        <ele>147.4</ele>
        <time>2023-04-05T13:57:52Z</time>
      </trkpt>
      <trkpt lat="48.0836" lon="-3.65324">
        <ele>147.5</ele>
        <time>2023-04-05T13:57:53Z</time>
      </trkpt>
      <trkpt lat="48.08356" lon="-3.65328">
        <ele>147.5</ele>
        <time>2023-04-05T13:57:54Z</time>
      </trkpt>
      <trkpt lat="48.08352" lon="-3.65333">
        <ele>147.6</ele>
        <time>2023-04-05T13:57:55Z</time>
      </trkpt>
      <trkpt lat="48.08348" lon="-3.65338">
        <ele>147.7</ele>
        <time>2023-04-05T13:57:56Z</time>
      </trkpt>
      <trkpt lat="48.08345" lon="-3.65342">
        <ele>147.7</ele>
        <time>2023-04-05T13:57:57Z</time>
      </trkpt>
      <trkpt lat="48.08342" lon="-3.65345">
        <ele>147.8</ele>
        <time>2023-04-05T13:57:58Z</time>
      </trkpt>
      <trkpt lat="48.08338" lon="-3.65348">
        <ele>147.8</ele>
        <time>2023-04-05T13:57:59Z</time>
      </trkpt>
      <trkpt lat="48.08334" lon="-3.65352">
        <ele>147.9</ele>
        <time>2023-04-05T13:58:00Z</time>
      </trkpt>
      <trkpt lat="48.08331" lon="-3.65356">
        <ele>147.9</ele>
        <time>2023-04-05T13:58:01Z</time>
      </trkpt>
      <trkpt lat="48.08329" lon="-3.65359">
        <ele>147.9</ele>
        <time>2023-04-05T13:58:02Z</time>
      </trkpt>
      <trkpt lat="48.08326" lon="-3.65364">
        <ele>148</ele>
        <time>2023-04-05T13:58:03Z</time>
      </trkpt>
      <trkpt lat="48.08322" lon="-3.65369">
        <ele>148</ele>
        <time>2023-04-05T13:58:04Z</time>
      </trkpt>
      <trkpt lat="48.08316" lon="-3.65377">
        <ele>148.1</ele>
        <time>2023-04-05T13:58:05Z</time>
      </trkpt>
      <trkpt lat="48.08312" lon="-3.65382">
        <ele>148.1</ele>
        <time>2023-04-05T13:58:07Z</time>
      </trkpt>
      <trkpt lat="48.08308" lon="-3.65385">
        <ele>148.1</ele>
        <time>2023-04-05T13:58:08Z</time>
      </trkpt>
      <trkpt lat="48.08304" lon="-3.65389">
        <ele>148.2</ele>
        <time>2023-04-05T13:58:09Z</time>
      </trkpt>
      <trkpt lat="48.08301" lon="-3.65393">
        <ele>148.2</ele>
        <time>2023-04-05T13:58:10Z</time>
      </trkpt>
      <trkpt lat="48.08298" lon="-3.65396">
        <ele>148.3</ele>
        <time>2023-04-05T13:58:11Z</time>
      </trkpt>
      <trkpt lat="48.08294" lon="-3.65401">
        <ele>148.3</ele>
        <time>2023-04-05T13:58:12Z</time>
      </trkpt>
      <trkpt lat="48.0829" lon="-3.65405">
        <ele>148.4</ele>
        <time>2023-04-05T13:58:13Z</time>
      </trkpt>
      <trkpt lat="48.08282" lon="-3.65415">
        <ele>148.5</ele>
        <time>2023-04-05T13:58:15Z</time>
      </trkpt>
      <trkpt lat="48.08275" lon="-3.65423">
        <ele>148.8</ele>
        <time>2023-04-05T13:58:17Z</time>
      </trkpt>
      <trkpt lat="48.08272" lon="-3.65427">
        <ele>148.9</ele>
        <time>2023-04-05T13:58:18Z</time>
      </trkpt>
      <trkpt lat="48.08267" lon="-3.65432">
        <ele>149.1</ele>
        <time>2023-04-05T13:58:20Z</time>
      </trkpt>
      <trkpt lat="48.08263" lon="-3.65436">
        <ele>149.2</ele>
        <time>2023-04-05T13:58:22Z</time>
      </trkpt>
      <trkpt lat="48.0826" lon="-3.65439">
        <ele>149.3</ele>
        <time>2023-04-05T13:58:23Z</time>
      </trkpt>
      <trkpt lat="48.08256" lon="-3.65443">
        <ele>149.5</ele>
        <time>2023-04-05T13:58:24Z</time>
      </trkpt>
      <trkpt lat="48.08253" lon="-3.65446">
        <ele>149.6</ele>
        <time>2023-04-05T13:58:25Z</time>
      </trkpt>
      <trkpt lat="48.08249" lon="-3.65449">
        <ele>149.7</ele>
        <time>2023-04-05T13:58:26Z</time>
      </trkpt>
      <trkpt lat="48.08246" lon="-3.65452">
        <ele>149.8</ele>
        <time>2023-04-05T13:58:27Z</time>
      </trkpt>
      <trkpt lat="48.08243" lon="-3.65455">
        <ele>149.9</ele>
        <time>2023-04-05T13:58:28Z</time>
      </trkpt>
      <trkpt lat="48.0824" lon="-3.65458">
        <ele>150</ele>
        <time>2023-04-05T13:58:29Z</time>
      </trkpt>
      <trkpt lat="48.08237" lon="-3.65461">
        <ele>150</ele>
        <time>2023-04-05T13:58:30Z</time>
      </trkpt>
      <trkpt lat="48.08232" lon="-3.65465">
        <ele>150.1</ele>
        <time>2023-04-05T13:58:31Z</time>
      </trkpt>
      <trkpt lat="48.08229" lon="-3.65468">
        <ele>150.2</ele>
        <time>2023-04-05T13:58:32Z</time>
      </trkpt>
      <trkpt lat="48.08224" lon="-3.65477">
        <ele>150.4</ele>
        <time>2023-04-05T13:58:33Z</time>
      </trkpt>
      <trkpt lat="48.0822" lon="-3.65481">
        <ele>150.5</ele>
        <time>2023-04-05T13:58:35Z</time>
      </trkpt>
      <trkpt lat="48.08218" lon="-3.65484">
        <ele>150.6</ele>
        <time>2023-04-05T13:58:36Z</time>
      </trkpt>
      <trkpt lat="48.08215" lon="-3.65488">
        <ele>150.6</ele>
        <time>2023-04-05T13:58:37Z</time>
      </trkpt>
      <trkpt lat="48.08211" lon="-3.65492">
        <ele>150.7</ele>
        <time>2023-04-05T13:58:38Z</time>
      </trkpt>
      <trkpt lat="48.08208" lon="-3.65495">
        <ele>150.8</ele>
        <time>2023-04-05T13:58:39Z</time>
      </trkpt>
      <trkpt lat="48.08205" lon="-3.65498">
        <ele>150.9</ele>
        <time>2023-04-05T13:58:40Z</time>
      </trkpt>
      <trkpt lat="48.08202" lon="-3.655">
        <ele>150.9</ele>
        <time>2023-04-05T13:58:41Z</time>
      </trkpt>
      <trkpt lat="48.08199" lon="-3.65503">
        <ele>151</ele>
        <time>2023-04-05T13:58:42Z</time>
      </trkpt>
      <trkpt lat="48.08196" lon="-3.65506">
        <ele>151.1</ele>
        <time>2023-04-05T13:58:43Z</time>
      </trkpt>
      <trkpt lat="48.08192" lon="-3.65509">
        <ele>151.2</ele>
        <time>2023-04-05T13:58:44Z</time>
      </trkpt>
      <trkpt lat="48.08188" lon="-3.65512">
        <ele>151.3</ele>
        <time>2023-04-05T13:58:45Z</time>
      </trkpt>
      <trkpt lat="48.08185" lon="-3.65513">
        <ele>151.3</ele>
        <time>2023-04-05T13:58:46Z</time>
      </trkpt>
      <trkpt lat="48.08181" lon="-3.65516">
        <ele>151.4</ele>
        <time>2023-04-05T13:58:47Z</time>
      </trkpt>
      <trkpt lat="48.08177" lon="-3.65518">
        <ele>151.5</ele>
        <time>2023-04-05T13:58:48Z</time>
      </trkpt>
      <trkpt lat="48.08174" lon="-3.65521">
        <ele>151.5</ele>
        <time>2023-04-05T13:58:49Z</time>
      </trkpt>
      <trkpt lat="48.08169" lon="-3.65523">
        <ele>151.6</ele>
        <time>2023-04-05T13:58:50Z</time>
      </trkpt>
      <trkpt lat="48.08165" lon="-3.65525">
        <ele>151.7</ele>
        <time>2023-04-05T13:58:51Z</time>
      </trkpt>
      <trkpt lat="48.08162" lon="-3.65527">
        <ele>151.8</ele>
        <time>2023-04-05T13:58:52Z</time>
      </trkpt>
      <trkpt lat="48.08158" lon="-3.65529">
        <ele>151.9</ele>
        <time>2023-04-05T13:58:53Z</time>
      </trkpt>
      <trkpt lat="48.08155" lon="-3.65531">
        <ele>152</ele>
        <time>2023-04-05T13:58:54Z</time>
      </trkpt>
      <trkpt lat="48.08151" lon="-3.65533">
        <ele>152.1</ele>
        <time>2023-04-05T13:58:55Z</time>
      </trkpt>
      <trkpt lat="48.08147" lon="-3.65534">
        <ele>152.2</ele>
        <time>2023-04-05T13:58:56Z</time>
      </trkpt>
      <trkpt lat="48.08144" lon="-3.65536">
        <ele>152.3</ele>
        <time>2023-04-05T13:58:57Z</time>
      </trkpt>
      <trkpt lat="48.0814" lon="-3.65538">
        <ele>152.4</ele>
        <time>2023-04-05T13:58:58Z</time>
      </trkpt>
      <trkpt lat="48.08137" lon="-3.65541">
        <ele>152.5</ele>
        <time>2023-04-05T13:58:59Z</time>
      </trkpt>
      <trkpt lat="48.08133" lon="-3.65542">
        <ele>152.6</ele>
        <time>2023-04-05T13:59:00Z</time>
      </trkpt>
      <trkpt lat="48.0813" lon="-3.65545">
        <ele>152.7</ele>
        <time>2023-04-05T13:59:01Z</time>
      </trkpt>
      <trkpt lat="48.08127" lon="-3.65546">
        <ele>152.8</ele>
        <time>2023-04-05T13:59:02Z</time>
      </trkpt>
      <trkpt lat="48.08123" lon="-3.65548">
        <ele>152.9</ele>
        <time>2023-04-05T13:59:03Z</time>
      </trkpt>
      <trkpt lat="48.08121" lon="-3.6555">
        <ele>153</ele>
        <time>2023-04-05T13:59:04Z</time>
      </trkpt>
      <trkpt lat="48.08117" lon="-3.65551">
        <ele>153.1</ele>
        <time>2023-04-05T13:59:05Z</time>
      </trkpt>
      <trkpt lat="48.08113" lon="-3.65553">
        <ele>153.2</ele>
        <time>2023-04-05T13:59:06Z</time>
      </trkpt>
      <trkpt lat="48.0811" lon="-3.65554">
        <ele>153.2</ele>
        <time>2023-04-05T13:59:07Z</time>
      </trkpt>
      <trkpt lat="48.08106" lon="-3.65555">
        <ele>153.3</ele>
        <time>2023-04-05T13:59:08Z</time>
      </trkpt>
      <trkpt lat="48.08102" lon="-3.65557">
        <ele>153.4</ele>
        <time>2023-04-05T13:59:09Z</time>
      </trkpt>
      <trkpt lat="48.08098" lon="-3.65559">
        <ele>153.5</ele>
        <time>2023-04-05T13:59:10Z</time>
      </trkpt>
      <trkpt lat="48.08093" lon="-3.65563">
        <ele>153.6</ele>
        <time>2023-04-05T13:59:11Z</time>
      </trkpt>
      <trkpt lat="48.08088" lon="-3.65566">
        <ele>153.8</ele>
        <time>2023-04-05T13:59:12Z</time>
      </trkpt>
      <trkpt lat="48.08079" lon="-3.6557">
        <ele>154</ele>
        <time>2023-04-05T13:59:14Z</time>
      </trkpt>
      <trkpt lat="48.08074" lon="-3.65573">
        <ele>154.1</ele>
        <time>2023-04-05T13:59:15Z</time>
      </trkpt>
      <trkpt lat="48.08071" lon="-3.65576">
        <ele>154.2</ele>
        <time>2023-04-05T13:59:16Z</time>
      </trkpt>
      <trkpt lat="48.08067" lon="-3.65579">
        <ele>154.3</ele>
        <time>2023-04-05T13:59:18Z</time>
      </trkpt>
      <trkpt lat="48.0806" lon="-3.65583">
        <ele>154.4</ele>
        <time>2023-04-05T13:59:19Z</time>
      </trkpt>
      <trkpt lat="48.08051" lon="-3.65588">
        <ele>154.6</ele>
        <time>2023-04-05T13:59:21Z</time>
      </trkpt>
      <trkpt lat="48.08043" lon="-3.65594">
        <ele>154.8</ele>
        <time>2023-04-05T13:59:23Z</time>
      </trkpt>
      <trkpt lat="48.08039" lon="-3.65598">
        <ele>154.9</ele>
        <time>2023-04-05T13:59:25Z</time>
      </trkpt>
      <trkpt lat="48.08036" lon="-3.656">
        <ele>154.9</ele>
        <time>2023-04-05T13:59:26Z</time>
      </trkpt>
      <trkpt lat="48.08032" lon="-3.65603">
        <ele>155</ele>
        <time>2023-04-05T13:59:27Z</time>
      </trkpt>
      <trkpt lat="48.08029" lon="-3.65606">
        <ele>155.1</ele>
        <time>2023-04-05T13:59:28Z</time>
      </trkpt>
      <trkpt lat="48.08026" lon="-3.6561">
        <ele>155.1</ele>
        <time>2023-04-05T13:59:29Z</time>
      </trkpt>
      <trkpt lat="48.08023" lon="-3.65614">
        <ele>155.2</ele>
        <time>2023-04-05T13:59:30Z</time>
      </trkpt>
      <trkpt lat="48.08019" lon="-3.65618">
        <ele>155.3</ele>
        <time>2023-04-05T13:59:31Z</time>
      </trkpt>
      <trkpt lat="48.08016" lon="-3.65622">
        <ele>155.4</ele>
        <time>2023-04-05T13:59:32Z</time>
      </trkpt>
      <trkpt lat="48.08013" lon="-3.65626">
        <ele>155.5</ele>
        <time>2023-04-05T13:59:33Z</time>
      </trkpt>
      <trkpt lat="48.08009" lon="-3.65632">
        <ele>155.5</ele>
        <time>2023-04-05T13:59:34Z</time>
      </trkpt>
      <trkpt lat="48.08005" lon="-3.65635">
        <ele>155.6</ele>
        <time>2023-04-05T13:59:35Z</time>
      </trkpt>
      <trkpt lat="48.08002" lon="-3.6564">
        <ele>155.7</ele>
        <time>2023-04-05T13:59:36Z</time>
      </trkpt>
      <trkpt lat="48.08" lon="-3.65643">
        <ele>155.7</ele>
        <time>2023-04-05T13:59:37Z</time>
      </trkpt>
      <trkpt lat="48.07997" lon="-3.65647">
        <ele>155.8</ele>
        <time>2023-04-05T13:59:38Z</time>
      </trkpt>
      <trkpt lat="48.07994" lon="-3.65652">
        <ele>155.9</ele>
        <time>2023-04-05T13:59:39Z</time>
      </trkpt>
      <trkpt lat="48.07991" lon="-3.65656">
        <ele>155.9</ele>
        <time>2023-04-05T13:59:40Z</time>
      </trkpt>
      <trkpt lat="48.07989" lon="-3.6566">
        <ele>156</ele>
        <time>2023-04-05T13:59:41Z</time>
      </trkpt>
      <trkpt lat="48.07985" lon="-3.65664">
        <ele>156</ele>
        <time>2023-04-05T13:59:42Z</time>
      </trkpt>
      <trkpt lat="48.07982" lon="-3.65668">
        <ele>156.1</ele>
        <time>2023-04-05T13:59:43Z</time>
      </trkpt>
      <trkpt lat="48.07979" lon="-3.65673">
        <ele>156.2</ele>
        <time>2023-04-05T13:59:44Z</time>
      </trkpt>
      <trkpt lat="48.07974" lon="-3.65679">
        <ele>156.3</ele>
        <time>2023-04-05T13:59:45Z</time>
      </trkpt>
      <trkpt lat="48.07968" lon="-3.65688">
        <ele>156.4</ele>
        <time>2023-04-05T13:59:47Z</time>
      </trkpt>
      <trkpt lat="48.07964" lon="-3.65693">
        <ele>156.5</ele>
        <time>2023-04-05T13:59:49Z</time>
      </trkpt>
      <trkpt lat="48.07961" lon="-3.65697">
        <ele>156.6</ele>
        <time>2023-04-05T13:59:50Z</time>
      </trkpt>
      <trkpt lat="48.07955" lon="-3.65704">
        <ele>156.8</ele>
        <time>2023-04-05T13:59:51Z</time>
      </trkpt>
      <trkpt lat="48.0795" lon="-3.65709">
        <ele>156.9</ele>
        <time>2023-04-05T13:59:53Z</time>
      </trkpt>
      <trkpt lat="48.07947" lon="-3.65712">
        <ele>157</ele>
        <time>2023-04-05T13:59:54Z</time>
      </trkpt>
      <trkpt lat="48.07944" lon="-3.65715">
        <ele>157.1</ele>
        <time>2023-04-05T13:59:55Z</time>
      </trkpt>
      <trkpt lat="48.07941" lon="-3.65717">
        <ele>157.2</ele>
        <time>2023-04-05T13:59:56Z</time>
      </trkpt>
      <trkpt lat="48.07937" lon="-3.65722">
        <ele>157.3</ele>
        <time>2023-04-05T13:59:57Z</time>
      </trkpt>
      <trkpt lat="48.07934" lon="-3.65726">
        <ele>157.4</ele>
        <time>2023-04-05T13:59:58Z</time>
      </trkpt>
      <trkpt lat="48.07932" lon="-3.6573">
        <ele>157.5</ele>
        <time>2023-04-05T13:59:59Z</time>
      </trkpt>
      <trkpt lat="48.07929" lon="-3.65734">
        <ele>157.6</ele>
        <time>2023-04-05T14:00:00Z</time>
      </trkpt>
      <trkpt lat="48.07925" lon="-3.65739">
        <ele>157.7</ele>
        <time>2023-04-05T14:00:01Z</time>
      </trkpt>
      <trkpt lat="48.07922" lon="-3.65743">
        <ele>157.8</ele>
        <time>2023-04-05T14:00:02Z</time>
      </trkpt>
      <trkpt lat="48.0792" lon="-3.65745">
        <ele>157.9</ele>
        <time>2023-04-05T14:00:03Z</time>
      </trkpt>
      <trkpt lat="48.07917" lon="-3.65749">
        <ele>158</ele>
        <time>2023-04-05T14:00:04Z</time>
      </trkpt>
      <trkpt lat="48.07914" lon="-3.65754">
        <ele>158.2</ele>
        <time>2023-04-05T14:00:05Z</time>
      </trkpt>
      <trkpt lat="48.07911" lon="-3.65758">
        <ele>158.3</ele>
        <time>2023-04-05T14:00:06Z</time>
      </trkpt>
      <trkpt lat="48.07908" lon="-3.65763">
        <ele>158.4</ele>
        <time>2023-04-05T14:00:07Z</time>
      </trkpt>
      <trkpt lat="48.07906" lon="-3.65766">
        <ele>158.5</ele>
        <time>2023-04-05T14:00:08Z</time>
      </trkpt>
      <trkpt lat="48.07902" lon="-3.6577">
        <ele>158.6</ele>
        <time>2023-04-05T14:00:09Z</time>
      </trkpt>
      <trkpt lat="48.079" lon="-3.65773">
        <ele>158.7</ele>
        <time>2023-04-05T14:00:10Z</time>
      </trkpt>
      <trkpt lat="48.07898" lon="-3.65776">
        <ele>158.8</ele>
        <time>2023-04-05T14:00:11Z</time>
      </trkpt>
      <trkpt lat="48.07895" lon="-3.65779">
        <ele>158.8</ele>
        <time>2023-04-05T14:00:12Z</time>
      </trkpt>
      <trkpt lat="48.07892" lon="-3.65783">
        <ele>158.9</ele>
        <time>2023-04-05T14:00:13Z</time>
      </trkpt>
      <trkpt lat="48.07889" lon="-3.65786">
        <ele>159</ele>
        <time>2023-04-05T14:00:14Z</time>
      </trkpt>
      <trkpt lat="48.07885" lon="-3.65792">
        <ele>159.1</ele>
        <time>2023-04-05T14:00:15Z</time>
      </trkpt>
      <trkpt lat="48.07882" lon="-3.65796">
        <ele>159.2</ele>
        <time>2023-04-05T14:00:16Z</time>
      </trkpt>
      <trkpt lat="48.0788" lon="-3.65801">
        <ele>159.3</ele>
        <time>2023-04-05T14:00:17Z</time>
      </trkpt>
      <trkpt lat="48.07876" lon="-3.65805">
        <ele>159.4</ele>
        <time>2023-04-05T14:00:18Z</time>
      </trkpt>
      <trkpt lat="48.07873" lon="-3.65809">
        <ele>159.5</ele>
        <time>2023-04-05T14:00:19Z</time>
      </trkpt>
      <trkpt lat="48.07871" lon="-3.65814">
        <ele>159.6</ele>
        <time>2023-04-05T14:00:20Z</time>
      </trkpt>
      <trkpt lat="48.07868" lon="-3.65818">
        <ele>159.7</ele>
        <time>2023-04-05T14:00:21Z</time>
      </trkpt>
      <trkpt lat="48.07866" lon="-3.65822">
        <ele>159.7</ele>
        <time>2023-04-05T14:00:22Z</time>
      </trkpt>
      <trkpt lat="48.07862" lon="-3.65827">
        <ele>159.8</ele>
        <time>2023-04-05T14:00:23Z</time>
      </trkpt>
      <trkpt lat="48.07859" lon="-3.65831">
        <ele>159.9</ele>
        <time>2023-04-05T14:00:24Z</time>
      </trkpt>
      <trkpt lat="48.07856" lon="-3.65835">
        <ele>160</ele>
        <time>2023-04-05T14:00:25Z</time>
      </trkpt>
      <trkpt lat="48.07853" lon="-3.65838">
        <ele>160</ele>
        <time>2023-04-05T14:00:26Z</time>
      </trkpt>
      <trkpt lat="48.0785" lon="-3.65842">
        <ele>160.1</ele>
        <time>2023-04-05T14:00:27Z</time>
      </trkpt>
      <trkpt lat="48.07846" lon="-3.65846">
        <ele>160.2</ele>
        <time>2023-04-05T14:00:28Z</time>
      </trkpt>
      <trkpt lat="48.07843" lon="-3.6585">
        <ele>160.2</ele>
        <time>2023-04-05T14:00:29Z</time>
      </trkpt>
      <trkpt lat="48.0784" lon="-3.65854">
        <ele>160.3</ele>
        <time>2023-04-05T14:00:30Z</time>
      </trkpt>
      <trkpt lat="48.07838" lon="-3.65857">
        <ele>160.4</ele>
        <time>2023-04-05T14:00:31Z</time>
      </trkpt>
      <trkpt lat="48.07834" lon="-3.65861">
        <ele>160.4</ele>
        <time>2023-04-05T14:00:32Z</time>
      </trkpt>
      <trkpt lat="48.0783" lon="-3.65866">
        <ele>160.5</ele>
        <time>2023-04-05T14:00:33Z</time>
      </trkpt>
      <trkpt lat="48.07826" lon="-3.65871">
        <ele>160.6</ele>
        <time>2023-04-05T14:00:35Z</time>
      </trkpt>
      <trkpt lat="48.07824" lon="-3.65875">
        <ele>160.7</ele>
        <time>2023-04-05T14:00:36Z</time>
      </trkpt>
      <trkpt lat="48.07821" lon="-3.65879">
        <ele>160.8</ele>
        <time>2023-04-05T14:00:37Z</time>
      </trkpt>
      <trkpt lat="48.07818" lon="-3.65882">
        <ele>160.9</ele>
        <time>2023-04-05T14:00:38Z</time>
      </trkpt>
      <trkpt lat="48.07815" lon="-3.65886">
        <ele>161</ele>
        <time>2023-04-05T14:00:39Z</time>
      </trkpt>
      <trkpt lat="48.07813" lon="-3.6589">
        <ele>161.1</ele>
        <time>2023-04-05T14:00:40Z</time>
      </trkpt>
      <trkpt lat="48.07809" lon="-3.65894">
        <ele>161.2</ele>
        <time>2023-04-05T14:00:41Z</time>
      </trkpt>
      <trkpt lat="48.07806" lon="-3.65898">
        <ele>161.3</ele>
        <time>2023-04-05T14:00:42Z</time>
      </trkpt>
      <trkpt lat="48.07803" lon="-3.65902">
        <ele>161.4</ele>
        <time>2023-04-05T14:00:43Z</time>
      </trkpt>
      <trkpt lat="48.078" lon="-3.65906">
        <ele>161.5</ele>
        <time>2023-04-05T14:00:44Z</time>
      </trkpt>
      <trkpt lat="48.07797" lon="-3.6591">
        <ele>161.6</ele>
        <time>2023-04-05T14:00:45Z</time>
      </trkpt>
      <trkpt lat="48.07795" lon="-3.65913">
        <ele>161.7</ele>
        <time>2023-04-05T14:00:46Z</time>
      </trkpt>
      <trkpt lat="48.07792" lon="-3.65917">
        <ele>161.8</ele>
        <time>2023-04-05T14:00:47Z</time>
      </trkpt>
      <trkpt lat="48.0779" lon="-3.6592">
        <ele>161.9</ele>
        <time>2023-04-05T14:00:48Z</time>
      </trkpt>
      <trkpt lat="48.07787" lon="-3.65924">
        <ele>162</ele>
        <time>2023-04-05T14:00:49Z</time>
      </trkpt>
      <trkpt lat="48.07784" lon="-3.65928">
        <ele>162.1</ele>
        <time>2023-04-05T14:00:50Z</time>
      </trkpt>
      <trkpt lat="48.07781" lon="-3.65932">
        <ele>162.2</ele>
        <time>2023-04-05T14:00:51Z</time>
      </trkpt>
      <trkpt lat="48.07779" lon="-3.65937">
        <ele>162.3</ele>
        <time>2023-04-05T14:00:52Z</time>
      </trkpt>
      <trkpt lat="48.07777" lon="-3.65941">
        <ele>162.4</ele>
        <time>2023-04-05T14:00:53Z</time>
      </trkpt>
      <trkpt lat="48.07775" lon="-3.65944">
        <ele>162.6</ele>
        <time>2023-04-05T14:00:54Z</time>
      </trkpt>
      <trkpt lat="48.07773" lon="-3.65949">
        <ele>162.7</ele>
        <time>2023-04-05T14:00:55Z</time>
      </trkpt>
      <trkpt lat="48.07771" lon="-3.65953">
        <ele>162.8</ele>
        <time>2023-04-05T14:00:56Z</time>
      </trkpt>
      <trkpt lat="48.07768" lon="-3.65957">
        <ele>162.9</ele>
        <time>2023-04-05T14:00:57Z</time>
      </trkpt>
      <trkpt lat="48.07766" lon="-3.65961">
        <ele>163</ele>
        <time>2023-04-05T14:00:58Z</time>
      </trkpt>
      <trkpt lat="48.07764" lon="-3.65965">
        <ele>163.2</ele>
        <time>2023-04-05T14:00:59Z</time>
      </trkpt>
      <trkpt lat="48.07762" lon="-3.65969">
        <ele>163.3</ele>
        <time>2023-04-05T14:01:00Z</time>
      </trkpt>
      <trkpt lat="48.07761" lon="-3.65973">
        <ele>163.4</ele>
        <time>2023-04-05T14:01:01Z</time>
      </trkpt>
      <trkpt lat="48.07759" lon="-3.65978">
        <ele>163.5</ele>
        <time>2023-04-05T14:01:02Z</time>
      </trkpt>
      <trkpt lat="48.07757" lon="-3.65982">
        <ele>163.6</ele>
        <time>2023-04-05T14:01:03Z</time>
      </trkpt>
      <trkpt lat="48.07755" lon="-3.65986">
        <ele>163.7</ele>
        <time>2023-04-05T14:01:04Z</time>
      </trkpt>
      <trkpt lat="48.07753" lon="-3.65991">
        <ele>163.8</ele>
        <time>2023-04-05T14:01:05Z</time>
      </trkpt>
      <trkpt lat="48.07751" lon="-3.65996">
        <ele>163.8</ele>
        <time>2023-04-05T14:01:06Z</time>
      </trkpt>
      <trkpt lat="48.0775" lon="-3.66">
        <ele>163.8</ele>
        <time>2023-04-05T14:01:07Z</time>
      </trkpt>
      <trkpt lat="48.07748" lon="-3.66006">
        <ele>163.8</ele>
        <time>2023-04-05T14:01:08Z</time>
      </trkpt>
      <trkpt lat="48.07745" lon="-3.66011">
        <ele>163.9</ele>
        <time>2023-04-05T14:01:09Z</time>
      </trkpt>
      <trkpt lat="48.07743" lon="-3.66017">
        <ele>163.9</ele>
        <time>2023-04-05T14:01:10Z</time>
      </trkpt>
      <trkpt lat="48.07741" lon="-3.66022">
        <ele>164</ele>
        <time>2023-04-05T14:01:11Z</time>
      </trkpt>
      <trkpt lat="48.07739" lon="-3.66029">
        <ele>164.1</ele>
        <time>2023-04-05T14:01:12Z</time>
      </trkpt>
      <trkpt lat="48.07736" lon="-3.66034">
        <ele>164.2</ele>
        <time>2023-04-05T14:01:13Z</time>
      </trkpt>
      <trkpt lat="48.07734" lon="-3.6604">
        <ele>164.2</ele>
        <time>2023-04-05T14:01:14Z</time>
      </trkpt>
      <trkpt lat="48.07733" lon="-3.66044">
        <ele>164.3</ele>
        <time>2023-04-05T14:01:15Z</time>
      </trkpt>
      <trkpt lat="48.07731" lon="-3.66049">
        <ele>164.4</ele>
        <time>2023-04-05T14:01:16Z</time>
      </trkpt>
      <trkpt lat="48.0773" lon="-3.66051">
        <ele>164.4</ele>
        <time>2023-04-05T14:01:17Z</time>
      </trkpt>
      <trkpt lat="48.07728" lon="-3.66057">
        <ele>164.5</ele>
        <time>2023-04-05T14:01:18Z</time>
      </trkpt>
      <trkpt lat="48.07725" lon="-3.66064">
        <ele>164.6</ele>
        <time>2023-04-05T14:01:19Z</time>
      </trkpt>
      <trkpt lat="48.07723" lon="-3.66069">
        <ele>164.7</ele>
        <time>2023-04-05T14:01:20Z</time>
      </trkpt>
      <trkpt lat="48.0772" lon="-3.66075">
        <ele>164.8</ele>
        <time>2023-04-05T14:01:21Z</time>
      </trkpt>
      <trkpt lat="48.07718" lon="-3.66082">
        <ele>164.9</ele>
        <time>2023-04-05T14:01:22Z</time>
      </trkpt>
      <trkpt lat="48.07716" lon="-3.66088">
        <ele>165</ele>
        <time>2023-04-05T14:01:24Z</time>
      </trkpt>
      <trkpt lat="48.07712" lon="-3.66096">
        <ele>165.1</ele>
        <time>2023-04-05T14:01:25Z</time>
      </trkpt>
      <trkpt lat="48.07708" lon="-3.66108">
        <ele>165.2</ele>
        <time>2023-04-05T14:01:27Z</time>
      </trkpt>
      <trkpt lat="48.07706" lon="-3.66113">
        <ele>165.3</ele>
        <time>2023-04-05T14:01:29Z</time>
      </trkpt>
      <trkpt lat="48.07704" lon="-3.66117">
        <ele>165.4</ele>
        <time>2023-04-05T14:01:30Z</time>
      </trkpt>
      <trkpt lat="48.07702" lon="-3.66123">
        <ele>165.4</ele>
        <time>2023-04-05T14:01:31Z</time>
      </trkpt>
      <trkpt lat="48.077" lon="-3.66128">
        <ele>165.5</ele>
        <time>2023-04-05T14:01:32Z</time>
      </trkpt>
      <trkpt lat="48.07698" lon="-3.66133">
        <ele>165.6</ele>
        <time>2023-04-05T14:01:33Z</time>
      </trkpt>
      <trkpt lat="48.07696" lon="-3.66139">
        <ele>165.7</ele>
        <time>2023-04-05T14:01:34Z</time>
      </trkpt>
      <trkpt lat="48.07693" lon="-3.66144">
        <ele>165.8</ele>
        <time>2023-04-05T14:01:35Z</time>
      </trkpt>
      <trkpt lat="48.0769" lon="-3.66149">
        <ele>165.9</ele>
        <time>2023-04-05T14:01:36Z</time>
      </trkpt>
      <trkpt lat="48.07688" lon="-3.66154">
        <ele>166</ele>
        <time>2023-04-05T14:01:37Z</time>
      </trkpt>
      <trkpt lat="48.07686" lon="-3.66159">
        <ele>166.1</ele>
        <time>2023-04-05T14:01:38Z</time>
      </trkpt>
      <trkpt lat="48.07684" lon="-3.66163">
        <ele>166.2</ele>
        <time>2023-04-05T14:01:39Z</time>
      </trkpt>
      <trkpt lat="48.07682" lon="-3.66167">
        <ele>166.3</ele>
        <time>2023-04-05T14:01:40Z</time>
      </trkpt>
      <trkpt lat="48.07679" lon="-3.66172">
        <ele>166.4</ele>
        <time>2023-04-05T14:01:41Z</time>
      </trkpt>
      <trkpt lat="48.07677" lon="-3.66176">
        <ele>166.5</ele>
        <time>2023-04-05T14:01:42Z</time>
      </trkpt>
      <trkpt lat="48.07674" lon="-3.66181">
        <ele>166.6</ele>
        <time>2023-04-05T14:01:43Z</time>
      </trkpt>
      <trkpt lat="48.07672" lon="-3.66185">
        <ele>166.7</ele>
        <time>2023-04-05T14:01:44Z</time>
      </trkpt>
      <trkpt lat="48.0767" lon="-3.66189">
        <ele>166.7</ele>
        <time>2023-04-05T14:01:45Z</time>
      </trkpt>
      <trkpt lat="48.07667" lon="-3.66193">
        <ele>166.8</ele>
        <time>2023-04-05T14:01:46Z</time>
      </trkpt>
      <trkpt lat="48.07664" lon="-3.66198">
        <ele>166.9</ele>
        <time>2023-04-05T14:01:47Z</time>
      </trkpt>
      <trkpt lat="48.07661" lon="-3.66201">
        <ele>167</ele>
        <time>2023-04-05T14:01:48Z</time>
      </trkpt>
      <trkpt lat="48.07658" lon="-3.66205">
        <ele>167.1</ele>
        <time>2023-04-05T14:01:49Z</time>
      </trkpt>
      <trkpt lat="48.07655" lon="-3.66208">
        <ele>167.2</ele>
        <time>2023-04-05T14:01:50Z</time>
      </trkpt>
      <trkpt lat="48.0765" lon="-3.66216">
        <ele>167.4</ele>
        <time>2023-04-05T14:01:51Z</time>
      </trkpt>
      <trkpt lat="48.07646" lon="-3.6622">
        <ele>167.5</ele>
        <time>2023-04-05T14:01:53Z</time>
      </trkpt>
      <trkpt lat="48.07643" lon="-3.66224">
        <ele>167.6</ele>
        <time>2023-04-05T14:01:54Z</time>
      </trkpt>
      <trkpt lat="48.0764" lon="-3.66227">
        <ele>167.7</ele>
        <time>2023-04-05T14:01:55Z</time>
      </trkpt>
      <trkpt lat="48.07636" lon="-3.66231">
        <ele>167.8</ele>
        <time>2023-04-05T14:01:56Z</time>
      </trkpt>
      <trkpt lat="48.07633" lon="-3.66234">
        <ele>167.9</ele>
        <time>2023-04-05T14:01:57Z</time>
      </trkpt>
      <trkpt lat="48.0763" lon="-3.66237">
        <ele>168</ele>
        <time>2023-04-05T14:01:58Z</time>
      </trkpt>
      <trkpt lat="48.07626" lon="-3.6624">
        <ele>168.1</ele>
        <time>2023-04-05T14:01:59Z</time>
      </trkpt>
      <trkpt lat="48.07623" lon="-3.66243">
        <ele>168.3</ele>
        <time>2023-04-05T14:02:00Z</time>
      </trkpt>
      <trkpt lat="48.0762" lon="-3.66246">
        <ele>168.4</ele>
        <time>2023-04-05T14:02:01Z</time>
      </trkpt>
      <trkpt lat="48.07616" lon="-3.66249">
        <ele>168.5</ele>
        <time>2023-04-05T14:02:02Z</time>
      </trkpt>
      <trkpt lat="48.07611" lon="-3.66253">
        <ele>168.7</ele>
        <time>2023-04-05T14:02:03Z</time>
      </trkpt>
      <trkpt lat="48.07609" lon="-3.66255">
        <ele>168.8</ele>
        <time>2023-04-05T14:02:04Z</time>
      </trkpt>
      <trkpt lat="48.07603" lon="-3.66259">
        <ele>169</ele>
        <time>2023-04-05T14:02:05Z</time>
      </trkpt>
      <trkpt lat="48.07598" lon="-3.66264">
        <ele>169.1</ele>
        <time>2023-04-05T14:02:07Z</time>
      </trkpt>
      <trkpt lat="48.07593" lon="-3.6627">
        <ele>169.3</ele>
        <time>2023-04-05T14:02:09Z</time>
      </trkpt>
      <trkpt lat="48.07589" lon="-3.66274">
        <ele>169.4</ele>
        <time>2023-04-05T14:02:11Z</time>
      </trkpt>
      <trkpt lat="48.07586" lon="-3.66277">
        <ele>169.5</ele>
        <time>2023-04-05T14:02:12Z</time>
      </trkpt>
      <trkpt lat="48.07582" lon="-3.66279">
        <ele>169.6</ele>
        <time>2023-04-05T14:02:13Z</time>
      </trkpt>
      <trkpt lat="48.07574" lon="-3.66284">
        <ele>169.8</ele>
        <time>2023-04-05T14:02:14Z</time>
      </trkpt>
      <trkpt lat="48.0757" lon="-3.66287">
        <ele>169.9</ele>
        <time>2023-04-05T14:02:16Z</time>
      </trkpt>
      <trkpt lat="48.07567" lon="-3.6629">
        <ele>170</ele>
        <time>2023-04-05T14:02:17Z</time>
      </trkpt>
      <trkpt lat="48.07563" lon="-3.66294">
        <ele>170.1</ele>
        <time>2023-04-05T14:02:18Z</time>
      </trkpt>
      <trkpt lat="48.07559" lon="-3.66297">
        <ele>170.3</ele>
        <time>2023-04-05T14:02:19Z</time>
      </trkpt>
      <trkpt lat="48.07554" lon="-3.66299">
        <ele>170.4</ele>
        <time>2023-04-05T14:02:20Z</time>
      </trkpt>
      <trkpt lat="48.0755" lon="-3.663">
        <ele>170.5</ele>
        <time>2023-04-05T14:02:21Z</time>
      </trkpt>
      <trkpt lat="48.07547" lon="-3.66302">
        <ele>170.6</ele>
        <time>2023-04-05T14:02:22Z</time>
      </trkpt>
      <trkpt lat="48.07543" lon="-3.66305">
        <ele>170.7</ele>
        <time>2023-04-05T14:02:23Z</time>
      </trkpt>
      <trkpt lat="48.07536" lon="-3.6631">
        <ele>170.8</ele>
        <time>2023-04-05T14:02:24Z</time>
      </trkpt>
      <trkpt lat="48.07532" lon="-3.66312">
        <ele>170.9</ele>
        <time>2023-04-05T14:02:25Z</time>
      </trkpt>
      <trkpt lat="48.07527" lon="-3.66314">
        <ele>171</ele>
        <time>2023-04-05T14:02:27Z</time>
      </trkpt>
      <trkpt lat="48.07524" lon="-3.66317">
        <ele>171.1</ele>
        <time>2023-04-05T14:02:28Z</time>
      </trkpt>
      <trkpt lat="48.0752" lon="-3.66319">
        <ele>171.2</ele>
        <time>2023-04-05T14:02:29Z</time>
      </trkpt>
      <trkpt lat="48.07517" lon="-3.66321">
        <ele>171.3</ele>
        <time>2023-04-05T14:02:30Z</time>
      </trkpt>
      <trkpt lat="48.07514" lon="-3.66324">
        <ele>171.4</ele>
        <time>2023-04-05T14:02:31Z</time>
      </trkpt>
      <trkpt lat="48.0751" lon="-3.66325">
        <ele>171.5</ele>
        <time>2023-04-05T14:02:32Z</time>
      </trkpt>
      <trkpt lat="48.07506" lon="-3.66326">
        <ele>171.6</ele>
        <time>2023-04-05T14:02:33Z</time>
      </trkpt>
      <trkpt lat="48.07502" lon="-3.66327">
        <ele>171.6</ele>
        <time>2023-04-05T14:02:34Z</time>
      </trkpt>
      <trkpt lat="48.07499" lon="-3.66328">
        <ele>171.7</ele>
        <time>2023-04-05T14:02:35Z</time>
      </trkpt>
      <trkpt lat="48.07496" lon="-3.66328">
        <ele>171.8</ele>
        <time>2023-04-05T14:02:36Z</time>
      </trkpt>
      <trkpt lat="48.07493" lon="-3.6633">
        <ele>171.9</ele>
        <time>2023-04-05T14:02:37Z</time>
      </trkpt>
      <trkpt lat="48.07488" lon="-3.66331">
        <ele>172</ele>
        <time>2023-04-05T14:02:38Z</time>
      </trkpt>
      <trkpt lat="48.07484" lon="-3.66332">
        <ele>172.1</ele>
        <time>2023-04-05T14:02:39Z</time>
      </trkpt>
      <trkpt lat="48.07482" lon="-3.66332">
        <ele>172.1</ele>
        <time>2023-04-05T14:02:40Z</time>
      </trkpt>
      <trkpt lat="48.0748" lon="-3.66333">
        <ele>172.2</ele>
        <time>2023-04-05T14:02:41Z</time>
      </trkpt>
      <trkpt lat="48.07477" lon="-3.66333">
        <ele>172.2</ele>
        <time>2023-04-05T14:02:42Z</time>
      </trkpt>
      <trkpt lat="48.07474" lon="-3.66334">
        <ele>172.3</ele>
        <time>2023-04-05T14:02:43Z</time>
      </trkpt>
      <trkpt lat="48.0747" lon="-3.66334">
        <ele>172.4</ele>
        <time>2023-04-05T14:02:44Z</time>
      </trkpt>
      <trkpt lat="48.07466" lon="-3.66334">
        <ele>172.5</ele>
        <time>2023-04-05T14:02:45Z</time>
      </trkpt>
      <trkpt lat="48.07463" lon="-3.66334">
        <ele>172.5</ele>
        <time>2023-04-05T14:02:46Z</time>
      </trkpt>
      <trkpt lat="48.07459" lon="-3.66334">
        <ele>172.6</ele>
        <time>2023-04-05T14:02:47Z</time>
      </trkpt>
      <trkpt lat="48.07455" lon="-3.66333">
        <ele>172.7</ele>
        <time>2023-04-05T14:02:48Z</time>
      </trkpt>
      <trkpt lat="48.07451" lon="-3.66333">
        <ele>172.8</ele>
        <time>2023-04-05T14:02:49Z</time>
      </trkpt>
      <trkpt lat="48.07447" lon="-3.66332">
        <ele>172.9</ele>
        <time>2023-04-05T14:02:50Z</time>
      </trkpt>
      <trkpt lat="48.07443" lon="-3.66331">
        <ele>173</ele>
        <time>2023-04-05T14:02:51Z</time>
      </trkpt>
      <trkpt lat="48.07439" lon="-3.66331">
        <ele>173.1</ele>
        <time>2023-04-05T14:02:52Z</time>
      </trkpt>
      <trkpt lat="48.07436" lon="-3.66329">
        <ele>173.2</ele>
        <time>2023-04-05T14:02:53Z</time>
      </trkpt>
      <trkpt lat="48.07433" lon="-3.66328">
        <ele>173.2</ele>
        <time>2023-04-05T14:02:54Z</time>
      </trkpt>
      <trkpt lat="48.07429" lon="-3.66327">
        <ele>173.3</ele>
        <time>2023-04-05T14:02:55Z</time>
      </trkpt>
      <trkpt lat="48.07426" lon="-3.66325">
        <ele>173.4</ele>
        <time>2023-04-05T14:02:56Z</time>
      </trkpt>
      <trkpt lat="48.07422" lon="-3.66323">
        <ele>173.4</ele>
        <time>2023-04-05T14:02:57Z</time>
      </trkpt>
      <trkpt lat="48.07418" lon="-3.66321">
        <ele>173.5</ele>
        <time>2023-04-05T14:02:58Z</time>
      </trkpt>
      <trkpt lat="48.07416" lon="-3.6632">
        <ele>173.5</ele>
        <time>2023-04-05T14:02:59Z</time>
      </trkpt>
      <trkpt lat="48.07413" lon="-3.66318">
        <ele>173.6</ele>
        <time>2023-04-05T14:03:00Z</time>
      </trkpt>
      <trkpt lat="48.07408" lon="-3.66315">
        <ele>173.7</ele>
        <time>2023-04-05T14:03:01Z</time>
      </trkpt>
      <trkpt lat="48.07404" lon="-3.66314">
        <ele>173.7</ele>
        <time>2023-04-05T14:03:02Z</time>
      </trkpt>
      <trkpt lat="48.07402" lon="-3.66313">
        <ele>173.8</ele>
        <time>2023-04-05T14:03:03Z</time>
      </trkpt>
      <trkpt lat="48.07399" lon="-3.66312">
        <ele>173.8</ele>
        <time>2023-04-05T14:03:04Z</time>
      </trkpt>
      <trkpt lat="48.07394" lon="-3.66309">
        <ele>173.9</ele>
        <time>2023-04-05T14:03:05Z</time>
      </trkpt>
      <trkpt lat="48.07388" lon="-3.66305">
        <ele>174.1</ele>
        <time>2023-04-05T14:03:07Z</time>
      </trkpt>
      <trkpt lat="48.07384" lon="-3.66301">
        <ele>174.2</ele>
        <time>2023-04-05T14:03:08Z</time>
      </trkpt>
      <trkpt lat="48.07377" lon="-3.66297">
        <ele>174.4</ele>
        <time>2023-04-05T14:03:10Z</time>
      </trkpt>
      <trkpt lat="48.0737" lon="-3.66294">
        <ele>174.5</ele>
        <time>2023-04-05T14:03:12Z</time>
      </trkpt>
      <trkpt lat="48.07366" lon="-3.66291">
        <ele>174.6</ele>
        <time>2023-04-05T14:03:14Z</time>
      </trkpt>
      <trkpt lat="48.07362" lon="-3.66288">
        <ele>174.7</ele>
        <time>2023-04-05T14:03:15Z</time>
      </trkpt>
      <trkpt lat="48.07358" lon="-3.66285">
        <ele>174.8</ele>
        <time>2023-04-05T14:03:16Z</time>
      </trkpt>
      <trkpt lat="48.07355" lon="-3.66283">
        <ele>174.9</ele>
        <time>2023-04-05T14:03:17Z</time>
      </trkpt>
      <trkpt lat="48.07347" lon="-3.66279">
        <ele>175.1</ele>
        <time>2023-04-05T14:03:18Z</time>
      </trkpt>
      <trkpt lat="48.07344" lon="-3.66277">
        <ele>175.1</ele>
        <time>2023-04-05T14:03:19Z</time>
      </trkpt>
      <trkpt lat="48.07341" lon="-3.66275">
        <ele>175.3</ele>
        <time>2023-04-05T14:03:21Z</time>
      </trkpt>
      <trkpt lat="48.07332" lon="-3.6627">
        <ele>175.5</ele>
        <time>2023-04-05T14:03:22Z</time>
      </trkpt>
      <trkpt lat="48.07326" lon="-3.66266">
        <ele>175.7</ele>
        <time>2023-04-05T14:03:24Z</time>
      </trkpt>
      <trkpt lat="48.07323" lon="-3.66263">
        <ele>175.8</ele>
        <time>2023-04-05T14:03:25Z</time>
      </trkpt>
      <trkpt lat="48.07319" lon="-3.66261">
        <ele>175.9</ele>
        <time>2023-04-05T14:03:26Z</time>
      </trkpt>
      <trkpt lat="48.07315" lon="-3.66259">
        <ele>176</ele>
        <time>2023-04-05T14:03:27Z</time>
      </trkpt>
      <trkpt lat="48.07311" lon="-3.66258">
        <ele>176.1</ele>
        <time>2023-04-05T14:03:28Z</time>
      </trkpt>
      <trkpt lat="48.07307" lon="-3.66256">
        <ele>176.2</ele>
        <time>2023-04-05T14:03:29Z</time>
      </trkpt>
      <trkpt lat="48.07304" lon="-3.66253">
        <ele>176.3</ele>
        <time>2023-04-05T14:03:30Z</time>
      </trkpt>
      <trkpt lat="48.07301" lon="-3.66251">
        <ele>176.3</ele>
        <time>2023-04-05T14:03:31Z</time>
      </trkpt>
      <trkpt lat="48.07296" lon="-3.66249">
        <ele>176.4</ele>
        <time>2023-04-05T14:03:32Z</time>
      </trkpt>
      <trkpt lat="48.07292" lon="-3.66247">
        <ele>176.6</ele>
        <time>2023-04-05T14:03:33Z</time>
      </trkpt>
      <trkpt lat="48.07289" lon="-3.66245">
        <ele>176.7</ele>
        <time>2023-04-05T14:03:34Z</time>
      </trkpt>
      <trkpt lat="48.07286" lon="-3.66244">
        <ele>176.7</ele>
        <time>2023-04-05T14:03:35Z</time>
      </trkpt>
      <trkpt lat="48.07282" lon="-3.66241">
        <ele>176.9</ele>
        <time>2023-04-05T14:03:36Z</time>
      </trkpt>
      <trkpt lat="48.07278" lon="-3.66239">
        <ele>177</ele>
        <time>2023-04-05T14:03:37Z</time>
      </trkpt>
      <trkpt lat="48.07274" lon="-3.66237">
        <ele>177.1</ele>
        <time>2023-04-05T14:03:38Z</time>
      </trkpt>
      <trkpt lat="48.07271" lon="-3.66236">
        <ele>177.2</ele>
        <time>2023-04-05T14:03:39Z</time>
      </trkpt>
      <trkpt lat="48.07266" lon="-3.66234">
        <ele>177.3</ele>
        <time>2023-04-05T14:03:40Z</time>
      </trkpt>
      <trkpt lat="48.07262" lon="-3.66233">
        <ele>177.4</ele>
        <time>2023-04-05T14:03:41Z</time>
      </trkpt>
      <trkpt lat="48.07258" lon="-3.66232">
        <ele>177.5</ele>
        <time>2023-04-05T14:03:42Z</time>
      </trkpt>
      <trkpt lat="48.07254" lon="-3.6623">
        <ele>177.6</ele>
        <time>2023-04-05T14:03:44Z</time>
      </trkpt>
      <trkpt lat="48.07251" lon="-3.66229">
        <ele>177.7</ele>
        <time>2023-04-05T14:03:45Z</time>
      </trkpt>
      <trkpt lat="48.07247" lon="-3.66227">
        <ele>177.8</ele>
        <time>2023-04-05T14:03:46Z</time>
      </trkpt>
      <trkpt lat="48.07244" lon="-3.66225">
        <ele>177.9</ele>
        <time>2023-04-05T14:03:47Z</time>
      </trkpt>
      <trkpt lat="48.0724" lon="-3.66223">
        <ele>177.9</ele>
        <time>2023-04-05T14:03:48Z</time>
      </trkpt>
      <trkpt lat="48.07237" lon="-3.66222">
        <ele>178</ele>
        <time>2023-04-05T14:03:49Z</time>
      </trkpt>
      <trkpt lat="48.07233" lon="-3.6622">
        <ele>178.1</ele>
        <time>2023-04-05T14:03:50Z</time>
      </trkpt>
      <trkpt lat="48.07229" lon="-3.66214">
        <ele>178.2</ele>
        <time>2023-04-05T14:03:51Z</time>
      </trkpt>
      <trkpt lat="48.07226" lon="-3.66211">
        <ele>178.3</ele>
        <time>2023-04-05T14:03:52Z</time>
      </trkpt>
      <trkpt lat="48.07223" lon="-3.66208">
        <ele>178.3</ele>
        <time>2023-04-05T14:03:53Z</time>
      </trkpt>
      <trkpt lat="48.07219" lon="-3.66206">
        <ele>178.4</ele>
        <time>2023-04-05T14:03:54Z</time>
      </trkpt>
      <trkpt lat="48.07213" lon="-3.662">
        <ele>178.5</ele>
        <time>2023-04-05T14:03:55Z</time>
      </trkpt>
      <trkpt lat="48.0721" lon="-3.66196">
        <ele>178.6</ele>
        <time>2023-04-05T14:03:57Z</time>
      </trkpt>
      <trkpt lat="48.07205" lon="-3.6619">
        <ele>178.6</ele>
        <time>2023-04-05T14:03:59Z</time>
      </trkpt>
      <trkpt lat="48.07198" lon="-3.66177">
        <ele>178.7</ele>
        <time>2023-04-05T14:04:01Z</time>
      </trkpt>
      <trkpt lat="48.07194" lon="-3.66171">
        <ele>178.8</ele>
        <time>2023-04-05T14:04:02Z</time>
      </trkpt>
      <trkpt lat="48.07191" lon="-3.66166">
        <ele>178.9</ele>
        <time>2023-04-05T14:04:03Z</time>
      </trkpt>
      <trkpt lat="48.07188" lon="-3.6616">
        <ele>178.9</ele>
        <time>2023-04-05T14:04:04Z</time>
      </trkpt>
      <trkpt lat="48.07184" lon="-3.66154">
        <ele>179</ele>
        <time>2023-04-05T14:04:06Z</time>
      </trkpt>
      <trkpt lat="48.07179" lon="-3.66145">
        <ele>179.2</ele>
        <time>2023-04-05T14:04:08Z</time>
      </trkpt>
      <trkpt lat="48.07176" lon="-3.66141">
        <ele>179.3</ele>
        <time>2023-04-05T14:04:09Z</time>
      </trkpt>
      <trkpt lat="48.07174" lon="-3.66135">
        <ele>179.4</ele>
        <time>2023-04-05T14:04:11Z</time>
      </trkpt>
      <trkpt lat="48.07172" lon="-3.66131">
        <ele>179.5</ele>
        <time>2023-04-05T14:04:12Z</time>
      </trkpt>
      <trkpt lat="48.0717" lon="-3.66127">
        <ele>179.6</ele>
        <time>2023-04-05T14:04:13Z</time>
      </trkpt>
      <trkpt lat="48.07168" lon="-3.66123">
        <ele>179.7</ele>
        <time>2023-04-05T14:04:14Z</time>
      </trkpt>
      <trkpt lat="48.07166" lon="-3.66117">
        <ele>179.8</ele>
        <time>2023-04-05T14:04:15Z</time>
      </trkpt>
      <trkpt lat="48.07162" lon="-3.66111">
        <ele>179.9</ele>
        <time>2023-04-05T14:04:16Z</time>
      </trkpt>
      <trkpt lat="48.0716" lon="-3.66106">
        <ele>180</ele>
        <time>2023-04-05T14:04:17Z</time>
      </trkpt>
      <trkpt lat="48.07158" lon="-3.66101">
        <ele>180.1</ele>
        <time>2023-04-05T14:04:18Z</time>
      </trkpt>
      <trkpt lat="48.07156" lon="-3.66096">
        <ele>180.2</ele>
        <time>2023-04-05T14:04:19Z</time>
      </trkpt>
      <trkpt lat="48.07153" lon="-3.66091">
        <ele>180.3</ele>
        <time>2023-04-05T14:04:20Z</time>
      </trkpt>
      <trkpt lat="48.0715" lon="-3.66085">
        <ele>180.4</ele>
        <time>2023-04-05T14:04:21Z</time>
      </trkpt>
      <trkpt lat="48.07148" lon="-3.66081">
        <ele>180.4</ele>
        <time>2023-04-05T14:04:22Z</time>
      </trkpt>
      <trkpt lat="48.07146" lon="-3.66076">
        <ele>180.5</ele>
        <time>2023-04-05T14:04:23Z</time>
      </trkpt>
      <trkpt lat="48.07144" lon="-3.66071">
        <ele>180.6</ele>
        <time>2023-04-05T14:04:24Z</time>
      </trkpt>
      <trkpt lat="48.07142" lon="-3.66067">
        <ele>180.7</ele>
        <time>2023-04-05T14:04:25Z</time>
      </trkpt>
      <trkpt lat="48.07139" lon="-3.66058">
        <ele>180.8</ele>
        <time>2023-04-05T14:04:26Z</time>
      </trkpt>
      <trkpt lat="48.07136" lon="-3.66052">
        <ele>180.9</ele>
        <time>2023-04-05T14:04:27Z</time>
      </trkpt>
      <trkpt lat="48.07133" lon="-3.66049">
        <ele>181</ele>
        <time>2023-04-05T14:04:28Z</time>
      </trkpt>
      <trkpt lat="48.07132" lon="-3.66045">
        <ele>181.1</ele>
        <time>2023-04-05T14:04:29Z</time>
      </trkpt>
      <trkpt lat="48.07129" lon="-3.66039">
        <ele>181.2</ele>
        <time>2023-04-05T14:04:30Z</time>
      </trkpt>
      <trkpt lat="48.07127" lon="-3.66034">
        <ele>181.3</ele>
        <time>2023-04-05T14:04:31Z</time>
      </trkpt>
      <trkpt lat="48.07126" lon="-3.6603">
        <ele>181.4</ele>
        <time>2023-04-05T14:04:32Z</time>
      </trkpt>
      <trkpt lat="48.07123" lon="-3.66025">
        <ele>181.5</ele>
        <time>2023-04-05T14:04:33Z</time>
      </trkpt>
      <trkpt lat="48.07121" lon="-3.66022">
        <ele>181.6</ele>
        <time>2023-04-05T14:04:34Z</time>
      </trkpt>
      <trkpt lat="48.07119" lon="-3.66018">
        <ele>181.7</ele>
        <time>2023-04-05T14:04:35Z</time>
      </trkpt>
      <trkpt lat="48.07115" lon="-3.66013">
        <ele>181.8</ele>
        <time>2023-04-05T14:04:36Z</time>
      </trkpt>
      <trkpt lat="48.07112" lon="-3.66009">
        <ele>181.9</ele>
        <time>2023-04-05T14:04:37Z</time>
      </trkpt>
      <trkpt lat="48.0711" lon="-3.66006">
        <ele>182</ele>
        <time>2023-04-05T14:04:38Z</time>
      </trkpt>
      <trkpt lat="48.07108" lon="-3.66001">
        <ele>182.1</ele>
        <time>2023-04-05T14:04:39Z</time>
      </trkpt>
      <trkpt lat="48.07105" lon="-3.65995">
        <ele>182.3</ele>
        <time>2023-04-05T14:04:40Z</time>
      </trkpt>
      <trkpt lat="48.07102" lon="-3.65992">
        <ele>182.3</ele>
        <time>2023-04-05T14:04:41Z</time>
      </trkpt>
      <trkpt lat="48.071" lon="-3.65989">
        <ele>182.4</ele>
        <time>2023-04-05T14:04:42Z</time>
      </trkpt>
      <trkpt lat="48.07097" lon="-3.65985">
        <ele>182.5</ele>
        <time>2023-04-05T14:04:43Z</time>
      </trkpt>
      <trkpt lat="48.07094" lon="-3.65981">
        <ele>182.6</ele>
        <time>2023-04-05T14:04:45Z</time>
      </trkpt>
      <trkpt lat="48.0709" lon="-3.65977">
        <ele>182.7</ele>
        <time>2023-04-05T14:04:46Z</time>
      </trkpt>
      <trkpt lat="48.07087" lon="-3.65974">
        <ele>182.8</ele>
        <time>2023-04-05T14:04:47Z</time>
      </trkpt>
      <trkpt lat="48.07084" lon="-3.65971">
        <ele>182.9</ele>
        <time>2023-04-05T14:04:48Z</time>
      </trkpt>
      <trkpt lat="48.07081" lon="-3.65968">
        <ele>183</ele>
        <time>2023-04-05T14:04:49Z</time>
      </trkpt>
      <trkpt lat="48.07077" lon="-3.65965">
        <ele>183.1</ele>
        <time>2023-04-05T14:04:50Z</time>
      </trkpt>
      <trkpt lat="48.07074" lon="-3.65963">
        <ele>183.2</ele>
        <time>2023-04-05T14:04:51Z</time>
      </trkpt>
      <trkpt lat="48.07071" lon="-3.65961">
        <ele>183.3</ele>
        <time>2023-04-05T14:04:52Z</time>
      </trkpt>
      <trkpt lat="48.07065" lon="-3.65953">
        <ele>183.4</ele>
        <time>2023-04-05T14:04:53Z</time>
      </trkpt>
      <trkpt lat="48.07061" lon="-3.65949">
        <ele>183.5</ele>
        <time>2023-04-05T14:04:54Z</time>
      </trkpt>
      <trkpt lat="48.07054" lon="-3.65943">
        <ele>183.6</ele>
        <time>2023-04-05T14:04:56Z</time>
      </trkpt>
      <trkpt lat="48.0705" lon="-3.6594">
        <ele>183.6</ele>
        <time>2023-04-05T14:04:57Z</time>
      </trkpt>
      <trkpt lat="48.07046" lon="-3.65937">
        <ele>183.7</ele>
        <time>2023-04-05T14:04:59Z</time>
      </trkpt>
      <trkpt lat="48.07039" lon="-3.65931">
        <ele>183.8</ele>
        <time>2023-04-05T14:05:00Z</time>
      </trkpt>
      <trkpt lat="48.07035" lon="-3.65928">
        <ele>183.8</ele>
        <time>2023-04-05T14:05:02Z</time>
      </trkpt>
      <trkpt lat="48.07032" lon="-3.65926">
        <ele>183.8</ele>
        <time>2023-04-05T14:05:03Z</time>
      </trkpt>
      <trkpt lat="48.07028" lon="-3.65924">
        <ele>183.9</ele>
        <time>2023-04-05T14:05:04Z</time>
      </trkpt>
      <trkpt lat="48.07024" lon="-3.65922">
        <ele>183.9</ele>
        <time>2023-04-05T14:05:05Z</time>
      </trkpt>
      <trkpt lat="48.0702" lon="-3.6592">
        <ele>183.9</ele>
        <time>2023-04-05T14:05:06Z</time>
      </trkpt>
      <trkpt lat="48.07015" lon="-3.65916">
        <ele>183.9</ele>
        <time>2023-04-05T14:05:07Z</time>
      </trkpt>
      <trkpt lat="48.0701" lon="-3.65913">
        <ele>184</ele>
        <time>2023-04-05T14:05:08Z</time>
      </trkpt>
      <trkpt lat="48.07005" lon="-3.65911">
        <ele>184</ele>
        <time>2023-04-05T14:05:09Z</time>
      </trkpt>
      <trkpt lat="48.06999" lon="-3.65907">
        <ele>183.9</ele>
        <time>2023-04-05T14:05:10Z</time>
      </trkpt>
      <trkpt lat="48.06995" lon="-3.65905">
        <ele>183.9</ele>
        <time>2023-04-05T14:05:11Z</time>
      </trkpt>
      <trkpt lat="48.06991" lon="-3.65905">
        <ele>183.9</ele>
        <time>2023-04-05T14:05:12Z</time>
      </trkpt>
      <trkpt lat="48.06988" lon="-3.65901">
        <ele>183.9</ele>
        <time>2023-04-05T14:05:13Z</time>
      </trkpt>
      <trkpt lat="48.06983" lon="-3.65899">
        <ele>183.9</ele>
        <time>2023-04-05T14:05:14Z</time>
      </trkpt>
      <trkpt lat="48.06978" lon="-3.65899">
        <ele>183.9</ele>
        <time>2023-04-05T14:05:15Z</time>
      </trkpt>
      <trkpt lat="48.06972" lon="-3.659">
        <ele>183.9</ele>
        <time>2023-04-05T14:05:16Z</time>
      </trkpt>
      <trkpt lat="48.06965" lon="-3.65899">
        <ele>183.9</ele>
        <time>2023-04-05T14:05:17Z</time>
      </trkpt>
      <trkpt lat="48.06958" lon="-3.65898">
        <ele>183.9</ele>
        <time>2023-04-05T14:05:19Z</time>
      </trkpt>
      <trkpt lat="48.06954" lon="-3.65898">
        <ele>183.8</ele>
        <time>2023-04-05T14:05:20Z</time>
      </trkpt>
      <trkpt lat="48.06941" lon="-3.65897">
        <ele>183.7</ele>
        <time>2023-04-05T14:05:22Z</time>
      </trkpt>
      <trkpt lat="48.06937" lon="-3.65897">
        <ele>183.7</ele>
        <time>2023-04-05T14:05:23Z</time>
      </trkpt>
      <trkpt lat="48.06931" lon="-3.65897">
        <ele>183.6</ele>
        <time>2023-04-05T14:05:25Z</time>
      </trkpt>
      <trkpt lat="48.06923" lon="-3.65897">
        <ele>183.6</ele>
        <time>2023-04-05T14:05:26Z</time>
      </trkpt>
      <trkpt lat="48.06917" lon="-3.65898">
        <ele>183.5</ele>
        <time>2023-04-05T14:05:27Z</time>
      </trkpt>
      <trkpt lat="48.06912" lon="-3.65899">
        <ele>183.5</ele>
        <time>2023-04-05T14:05:28Z</time>
      </trkpt>
      <trkpt lat="48.06907" lon="-3.65901">
        <ele>183.4</ele>
        <time>2023-04-05T14:05:29Z</time>
      </trkpt>
      <trkpt lat="48.06901" lon="-3.65901">
        <ele>183.4</ele>
        <time>2023-04-05T14:05:30Z</time>
      </trkpt>
      <trkpt lat="48.06896" lon="-3.65902">
        <ele>183.4</ele>
        <time>2023-04-05T14:05:31Z</time>
      </trkpt>
      <trkpt lat="48.06891" lon="-3.65904">
        <ele>183.3</ele>
        <time>2023-04-05T14:05:32Z</time>
      </trkpt>
      <trkpt lat="48.06885" lon="-3.65905">
        <ele>183.3</ele>
        <time>2023-04-05T14:05:33Z</time>
      </trkpt>
      <trkpt lat="48.0688" lon="-3.65907">
        <ele>183.2</ele>
        <time>2023-04-05T14:05:34Z</time>
      </trkpt>
      <trkpt lat="48.06875" lon="-3.65909">
        <ele>183.2</ele>
        <time>2023-04-05T14:05:35Z</time>
      </trkpt>
      <trkpt lat="48.0687" lon="-3.6591">
        <ele>183.1</ele>
        <time>2023-04-05T14:05:36Z</time>
      </trkpt>
      <trkpt lat="48.06864" lon="-3.65913">
        <ele>183.1</ele>
        <time>2023-04-05T14:05:37Z</time>
      </trkpt>
      <trkpt lat="48.06855" lon="-3.65917">
        <ele>183</ele>
        <time>2023-04-05T14:05:39Z</time>
      </trkpt>
      <trkpt lat="48.06846" lon="-3.65919">
        <ele>182.9</ele>
        <time>2023-04-05T14:05:41Z</time>
      </trkpt>
      <trkpt lat="48.06841" lon="-3.65921">
        <ele>182.9</ele>
        <time>2023-04-05T14:05:42Z</time>
      </trkpt>
      <trkpt lat="48.06836" lon="-3.65922">
        <ele>182.8</ele>
        <time>2023-04-05T14:05:43Z</time>
      </trkpt>
      <trkpt lat="48.06832" lon="-3.65924">
        <ele>182.8</ele>
        <time>2023-04-05T14:05:44Z</time>
      </trkpt>
      <trkpt lat="48.06827" lon="-3.65925">
        <ele>182.8</ele>
        <time>2023-04-05T14:05:45Z</time>
      </trkpt>
      <trkpt lat="48.06821" lon="-3.65926">
        <ele>182.7</ele>
        <time>2023-04-05T14:05:46Z</time>
      </trkpt>
      <trkpt lat="48.06815" lon="-3.65928">
        <ele>182.7</ele>
        <time>2023-04-05T14:05:47Z</time>
      </trkpt>
      <trkpt lat="48.0681" lon="-3.6593">
        <ele>182.6</ele>
        <time>2023-04-05T14:05:48Z</time>
      </trkpt>
      <trkpt lat="48.06804" lon="-3.65932">
        <ele>182.6</ele>
        <time>2023-04-05T14:05:49Z</time>
      </trkpt>
      <trkpt lat="48.06799" lon="-3.65934">
        <ele>182.6</ele>
        <time>2023-04-05T14:05:50Z</time>
      </trkpt>
      <trkpt lat="48.06795" lon="-3.65936">
        <ele>182.5</ele>
        <time>2023-04-05T14:05:51Z</time>
      </trkpt>
      <trkpt lat="48.06789" lon="-3.65937">
        <ele>182.5</ele>
        <time>2023-04-05T14:05:52Z</time>
      </trkpt>
      <trkpt lat="48.06785" lon="-3.65937">
        <ele>182.5</ele>
        <time>2023-04-05T14:05:53Z</time>
      </trkpt>
      <trkpt lat="48.0678" lon="-3.65939">
        <ele>182.5</ele>
        <time>2023-04-05T14:05:54Z</time>
      </trkpt>
      <trkpt lat="48.06774" lon="-3.6594">
        <ele>182.5</ele>
        <time>2023-04-05T14:05:55Z</time>
      </trkpt>
      <trkpt lat="48.06769" lon="-3.65941">
        <ele>182.5</ele>
        <time>2023-04-05T14:05:56Z</time>
      </trkpt>
      <trkpt lat="48.06763" lon="-3.65943">
        <ele>182.5</ele>
        <time>2023-04-05T14:05:57Z</time>
      </trkpt>
      <trkpt lat="48.06758" lon="-3.65944">
        <ele>182.5</ele>
        <time>2023-04-05T14:05:58Z</time>
      </trkpt>
      <trkpt lat="48.06753" lon="-3.65945">
        <ele>182.5</ele>
        <time>2023-04-05T14:05:59Z</time>
      </trkpt>
      <trkpt lat="48.06747" lon="-3.65946">
        <ele>182.4</ele>
        <time>2023-04-05T14:06:00Z</time>
      </trkpt>
      <trkpt lat="48.06742" lon="-3.65946">
        <ele>182.4</ele>
        <time>2023-04-05T14:06:01Z</time>
      </trkpt>
      <trkpt lat="48.06736" lon="-3.65948">
        <ele>182.4</ele>
        <time>2023-04-05T14:06:02Z</time>
      </trkpt>
      <trkpt lat="48.06731" lon="-3.65948">
        <ele>182.4</ele>
        <time>2023-04-05T14:06:03Z</time>
      </trkpt>
      <trkpt lat="48.06726" lon="-3.65949">
        <ele>182.3</ele>
        <time>2023-04-05T14:06:04Z</time>
      </trkpt>
      <trkpt lat="48.06721" lon="-3.65951">
        <ele>182.3</ele>
        <time>2023-04-05T14:06:05Z</time>
      </trkpt>
      <trkpt lat="48.06716" lon="-3.65951">
        <ele>182.3</ele>
        <time>2023-04-05T14:06:06Z</time>
      </trkpt>
      <trkpt lat="48.06711" lon="-3.65952">
        <ele>182.2</ele>
        <time>2023-04-05T14:06:07Z</time>
      </trkpt>
      <trkpt lat="48.06706" lon="-3.65951">
        <ele>182.2</ele>
        <time>2023-04-05T14:06:08Z</time>
      </trkpt>
      <trkpt lat="48.06701" lon="-3.65951">
        <ele>182.2</ele>
        <time>2023-04-05T14:06:09Z</time>
      </trkpt>
      <trkpt lat="48.06696" lon="-3.6595">
        <ele>182.2</ele>
        <time>2023-04-05T14:06:10Z</time>
      </trkpt>
      <trkpt lat="48.0669" lon="-3.65949">
        <ele>182.1</ele>
        <time>2023-04-05T14:06:11Z</time>
      </trkpt>
      <trkpt lat="48.06685" lon="-3.65949">
        <ele>182.1</ele>
        <time>2023-04-05T14:06:12Z</time>
      </trkpt>
      <trkpt lat="48.06679" lon="-3.65948">
        <ele>182.1</ele>
        <time>2023-04-05T14:06:13Z</time>
      </trkpt>
      <trkpt lat="48.06674" lon="-3.65948">
        <ele>182.1</ele>
        <time>2023-04-05T14:06:14Z</time>
      </trkpt>
      <trkpt lat="48.06669" lon="-3.65946">
        <ele>182</ele>
        <time>2023-04-05T14:06:15Z</time>
      </trkpt>
      <trkpt lat="48.06664" lon="-3.65945">
        <ele>182</ele>
        <time>2023-04-05T14:06:16Z</time>
      </trkpt>
      <trkpt lat="48.06658" lon="-3.65943">
        <ele>182</ele>
        <time>2023-04-05T14:06:17Z</time>
      </trkpt>
      <trkpt lat="48.06653" lon="-3.65942">
        <ele>182.1</ele>
        <time>2023-04-05T14:06:18Z</time>
      </trkpt>
      <trkpt lat="48.06648" lon="-3.65941">
        <ele>182.1</ele>
        <time>2023-04-05T14:06:19Z</time>
      </trkpt>
      <trkpt lat="48.06643" lon="-3.6594">
        <ele>182.1</ele>
        <time>2023-04-05T14:06:20Z</time>
      </trkpt>
      <trkpt lat="48.06638" lon="-3.65938">
        <ele>182.1</ele>
        <time>2023-04-05T14:06:21Z</time>
      </trkpt>
      <trkpt lat="48.06632" lon="-3.65936">
        <ele>182.1</ele>
        <time>2023-04-05T14:06:22Z</time>
      </trkpt>
      <trkpt lat="48.06627" lon="-3.65934">
        <ele>182</ele>
        <time>2023-04-05T14:06:23Z</time>
      </trkpt>
      <trkpt lat="48.06622" lon="-3.65932">
        <ele>182</ele>
        <time>2023-04-05T14:06:24Z</time>
      </trkpt>
      <trkpt lat="48.06617" lon="-3.6593">
        <ele>181.9</ele>
        <time>2023-04-05T14:06:25Z</time>
      </trkpt>
      <trkpt lat="48.06612" lon="-3.65928">
        <ele>181.9</ele>
        <time>2023-04-05T14:06:26Z</time>
      </trkpt>
      <trkpt lat="48.06606" lon="-3.65924">
        <ele>181.8</ele>
        <time>2023-04-05T14:06:27Z</time>
      </trkpt>
      <trkpt lat="48.06601" lon="-3.65921">
        <ele>181.8</ele>
        <time>2023-04-05T14:06:28Z</time>
      </trkpt>
      <trkpt lat="48.06596" lon="-3.65919">
        <ele>181.8</ele>
        <time>2023-04-05T14:06:29Z</time>
      </trkpt>
      <trkpt lat="48.06592" lon="-3.65917">
        <ele>181.7</ele>
        <time>2023-04-05T14:06:30Z</time>
      </trkpt>
      <trkpt lat="48.06587" lon="-3.65914">
        <ele>181.7</ele>
        <time>2023-04-05T14:06:31Z</time>
      </trkpt>
      <trkpt lat="48.06582" lon="-3.65911">
        <ele>181.7</ele>
        <time>2023-04-05T14:06:32Z</time>
      </trkpt>
      <trkpt lat="48.06577" lon="-3.65909">
        <ele>181.7</ele>
        <time>2023-04-05T14:06:33Z</time>
      </trkpt>
      <trkpt lat="48.06572" lon="-3.65906">
        <ele>181.7</ele>
        <time>2023-04-05T14:06:34Z</time>
      </trkpt>
      <trkpt lat="48.06567" lon="-3.65904">
        <ele>181.7</ele>
        <time>2023-04-05T14:06:35Z</time>
      </trkpt>
      <trkpt lat="48.06562" lon="-3.65901">
        <ele>181.7</ele>
        <time>2023-04-05T14:06:36Z</time>
      </trkpt>
      <trkpt lat="48.06557" lon="-3.65899">
        <ele>181.7</ele>
        <time>2023-04-05T14:06:37Z</time>
      </trkpt>
      <trkpt lat="48.06552" lon="-3.65897">
        <ele>181.6</ele>
        <time>2023-04-05T14:06:38Z</time>
      </trkpt>
      <trkpt lat="48.06547" lon="-3.65895">
        <ele>181.6</ele>
        <time>2023-04-05T14:06:39Z</time>
      </trkpt>
      <trkpt lat="48.06542" lon="-3.65893">
        <ele>181.5</ele>
        <time>2023-04-05T14:06:40Z</time>
      </trkpt>
      <trkpt lat="48.06537" lon="-3.65891">
        <ele>181.5</ele>
        <time>2023-04-05T14:06:41Z</time>
      </trkpt>
      <trkpt lat="48.06532" lon="-3.65889">
        <ele>181.4</ele>
        <time>2023-04-05T14:06:42Z</time>
      </trkpt>
      <trkpt lat="48.06527" lon="-3.65887">
        <ele>181.4</ele>
        <time>2023-04-05T14:06:43Z</time>
      </trkpt>
      <trkpt lat="48.06522" lon="-3.65885">
        <ele>181.3</ele>
        <time>2023-04-05T14:06:44Z</time>
      </trkpt>
      <trkpt lat="48.06517" lon="-3.65883">
        <ele>181.2</ele>
        <time>2023-04-05T14:06:45Z</time>
      </trkpt>
      <trkpt lat="48.06512" lon="-3.6588">
        <ele>181.2</ele>
        <time>2023-04-05T14:06:46Z</time>
      </trkpt>
      <trkpt lat="48.06507" lon="-3.65878">
        <ele>181.1</ele>
        <time>2023-04-05T14:06:47Z</time>
      </trkpt>
      <trkpt lat="48.06502" lon="-3.65875">
        <ele>181</ele>
        <time>2023-04-05T14:06:48Z</time>
      </trkpt>
      <trkpt lat="48.06496" lon="-3.65872">
        <ele>180.9</ele>
        <time>2023-04-05T14:06:49Z</time>
      </trkpt>
      <trkpt lat="48.06491" lon="-3.65869">
        <ele>180.8</ele>
        <time>2023-04-05T14:06:50Z</time>
      </trkpt>
      <trkpt lat="48.06486" lon="-3.65866">
        <ele>180.7</ele>
        <time>2023-04-05T14:06:51Z</time>
      </trkpt>
      <trkpt lat="48.0648" lon="-3.65864">
        <ele>180.7</ele>
        <time>2023-04-05T14:06:52Z</time>
      </trkpt>
      <trkpt lat="48.06475" lon="-3.65861">
        <ele>180.6</ele>
        <time>2023-04-05T14:06:53Z</time>
      </trkpt>
      <trkpt lat="48.06469" lon="-3.65859">
        <ele>180.6</ele>
        <time>2023-04-05T14:06:54Z</time>
      </trkpt>
      <trkpt lat="48.06464" lon="-3.65856">
        <ele>180.5</ele>
        <time>2023-04-05T14:06:55Z</time>
      </trkpt>
      <trkpt lat="48.06459" lon="-3.65853">
        <ele>180.5</ele>
        <time>2023-04-05T14:06:56Z</time>
      </trkpt>
      <trkpt lat="48.06454" lon="-3.65851">
        <ele>180.5</ele>
        <time>2023-04-05T14:06:57Z</time>
      </trkpt>
      <trkpt lat="48.06448" lon="-3.65849">
        <ele>180.4</ele>
        <time>2023-04-05T14:06:58Z</time>
      </trkpt>
      <trkpt lat="48.06443" lon="-3.65846">
        <ele>180.4</ele>
        <time>2023-04-05T14:06:59Z</time>
      </trkpt>
      <trkpt lat="48.06438" lon="-3.65844">
        <ele>180.4</ele>
        <time>2023-04-05T14:07:00Z</time>
      </trkpt>
      <trkpt lat="48.06432" lon="-3.65841">
        <ele>180.3</ele>
        <time>2023-04-05T14:07:01Z</time>
      </trkpt>
      <trkpt lat="48.06427" lon="-3.65839">
        <ele>180.3</ele>
        <time>2023-04-05T14:07:02Z</time>
      </trkpt>
      <trkpt lat="48.06422" lon="-3.65836">
        <ele>180.3</ele>
        <time>2023-04-05T14:07:03Z</time>
      </trkpt>
      <trkpt lat="48.06416" lon="-3.65834">
        <ele>180.3</ele>
        <time>2023-04-05T14:07:04Z</time>
      </trkpt>
      <trkpt lat="48.06411" lon="-3.65831">
        <ele>180.2</ele>
        <time>2023-04-05T14:07:05Z</time>
      </trkpt>
      <trkpt lat="48.06406" lon="-3.65829">
        <ele>180.2</ele>
        <time>2023-04-05T14:07:06Z</time>
      </trkpt>
      <trkpt lat="48.06401" lon="-3.65826">
        <ele>180.2</ele>
        <time>2023-04-05T14:07:07Z</time>
      </trkpt>
      <trkpt lat="48.06395" lon="-3.65823">
        <ele>180.2</ele>
        <time>2023-04-05T14:07:08Z</time>
      </trkpt>
      <trkpt lat="48.0639" lon="-3.65821">
        <ele>180.2</ele>
        <time>2023-04-05T14:07:09Z</time>
      </trkpt>
      <trkpt lat="48.06385" lon="-3.65818">
        <ele>180.2</ele>
        <time>2023-04-05T14:07:10Z</time>
      </trkpt>
      <trkpt lat="48.06379" lon="-3.65816">
        <ele>180.1</ele>
        <time>2023-04-05T14:07:11Z</time>
      </trkpt>
      <trkpt lat="48.06374" lon="-3.65813">
        <ele>180.1</ele>
        <time>2023-04-05T14:07:12Z</time>
      </trkpt>
      <trkpt lat="48.06368" lon="-3.65811">
        <ele>180.1</ele>
        <time>2023-04-05T14:07:13Z</time>
      </trkpt>
      <trkpt lat="48.06363" lon="-3.65808">
        <ele>180.1</ele>
        <time>2023-04-05T14:07:14Z</time>
      </trkpt>
      <trkpt lat="48.06358" lon="-3.65805">
        <ele>180.1</ele>
        <time>2023-04-05T14:07:15Z</time>
      </trkpt>
      <trkpt lat="48.06353" lon="-3.65801">
        <ele>180.2</ele>
        <time>2023-04-05T14:07:16Z</time>
      </trkpt>
      <trkpt lat="48.06349" lon="-3.65796">
        <ele>180.1</ele>
        <time>2023-04-05T14:07:17Z</time>
      </trkpt>
      <trkpt lat="48.06345" lon="-3.6579">
        <ele>180.1</ele>
        <time>2023-04-05T14:07:18Z</time>
      </trkpt>
      <trkpt lat="48.06342" lon="-3.65785">
        <ele>180.1</ele>
        <time>2023-04-05T14:07:19Z</time>
      </trkpt>
      <trkpt lat="48.06339" lon="-3.6578">
        <ele>180</ele>
        <time>2023-04-05T14:07:20Z</time>
      </trkpt>
      <trkpt lat="48.06335" lon="-3.65775">
        <ele>180</ele>
        <time>2023-04-05T14:07:21Z</time>
      </trkpt>
      <trkpt lat="48.06331" lon="-3.65772">
        <ele>179.9</ele>
        <time>2023-04-05T14:07:22Z</time>
      </trkpt>
      <trkpt lat="48.06327" lon="-3.65769">
        <ele>179.9</ele>
        <time>2023-04-05T14:07:23Z</time>
      </trkpt>
      <trkpt lat="48.06323" lon="-3.65768">
        <ele>179.9</ele>
        <time>2023-04-05T14:07:24Z</time>
      </trkpt>
      <trkpt lat="48.0632" lon="-3.65765">
        <ele>179.9</ele>
        <time>2023-04-05T14:07:25Z</time>
      </trkpt>
      <trkpt lat="48.06314" lon="-3.65763">
        <ele>179.8</ele>
        <time>2023-04-05T14:07:26Z</time>
      </trkpt>
      <trkpt lat="48.06311" lon="-3.65762">
        <ele>179.8</ele>
        <time>2023-04-05T14:07:27Z</time>
      </trkpt>
      <trkpt lat="48.06307" lon="-3.65759">
        <ele>179.8</ele>
        <time>2023-04-05T14:07:28Z</time>
      </trkpt>
      <trkpt lat="48.06303" lon="-3.65757">
        <ele>179.7</ele>
        <time>2023-04-05T14:07:29Z</time>
      </trkpt>
      <trkpt lat="48.06297" lon="-3.65755">
        <ele>179.5</ele>
        <time>2023-04-05T14:07:30Z</time>
      </trkpt>
      <trkpt lat="48.06293" lon="-3.65756">
        <ele>179.4</ele>
        <time>2023-04-05T14:07:31Z</time>
      </trkpt>
      <trkpt lat="48.0629" lon="-3.65758">
        <ele>179.3</ele>
        <time>2023-04-05T14:07:32Z</time>
      </trkpt>
      <trkpt lat="48.06288" lon="-3.65762">
        <ele>179.2</ele>
        <time>2023-04-05T14:07:34Z</time>
      </trkpt>
      <trkpt lat="48.06285" lon="-3.65765">
        <ele>179.1</ele>
        <time>2023-04-05T14:07:35Z</time>
      </trkpt>
      <trkpt lat="48.06283" lon="-3.65768">
        <ele>179.1</ele>
        <time>2023-04-05T14:07:36Z</time>
      </trkpt>
      <trkpt lat="48.06279" lon="-3.65769">
        <ele>179.1</ele>
        <time>2023-04-05T14:07:37Z</time>
      </trkpt>
      <trkpt lat="48.06275" lon="-3.65768">
        <ele>179</ele>
        <time>2023-04-05T14:07:38Z</time>
      </trkpt>
      <trkpt lat="48.06267" lon="-3.65765">
        <ele>178.9</ele>
        <time>2023-04-05T14:07:39Z</time>
      </trkpt>
      <trkpt lat="48.06264" lon="-3.65762">
        <ele>178.9</ele>
        <time>2023-04-05T14:07:41Z</time>
      </trkpt>
      <trkpt lat="48.06261" lon="-3.65761">
        <ele>178.8</ele>
        <time>2023-04-05T14:07:42Z</time>
      </trkpt>
      <trkpt lat="48.06258" lon="-3.65758">
        <ele>178.7</ele>
        <time>2023-04-05T14:07:43Z</time>
      </trkpt>
      <trkpt lat="48.0625" lon="-3.65751">
        <ele>178.6</ele>
        <time>2023-04-05T14:07:44Z</time>
      </trkpt>
      <trkpt lat="48.06244" lon="-3.65748">
        <ele>178.5</ele>
        <time>2023-04-05T14:07:46Z</time>
      </trkpt>
      <trkpt lat="48.06239" lon="-3.65746">
        <ele>178.4</ele>
        <time>2023-04-05T14:07:47Z</time>
      </trkpt>
      <trkpt lat="48.06234" lon="-3.65743">
        <ele>178.4</ele>
        <time>2023-04-05T14:07:48Z</time>
      </trkpt>
      <trkpt lat="48.0623" lon="-3.65741">
        <ele>178.3</ele>
        <time>2023-04-05T14:07:49Z</time>
      </trkpt>
      <trkpt lat="48.06225" lon="-3.65738">
        <ele>178.3</ele>
        <time>2023-04-05T14:07:50Z</time>
      </trkpt>
      <trkpt lat="48.0622" lon="-3.65736">
        <ele>178.3</ele>
        <time>2023-04-05T14:07:51Z</time>
      </trkpt>
      <trkpt lat="48.06215" lon="-3.65734">
        <ele>178.3</ele>
        <time>2023-04-05T14:07:52Z</time>
      </trkpt>
      <trkpt lat="48.0621" lon="-3.65731">
        <ele>178.2</ele>
        <time>2023-04-05T14:07:53Z</time>
      </trkpt>
      <trkpt lat="48.06204" lon="-3.65729">
        <ele>178.2</ele>
        <time>2023-04-05T14:07:54Z</time>
      </trkpt>
      <trkpt lat="48.06199" lon="-3.65727">
        <ele>178.2</ele>
        <time>2023-04-05T14:07:55Z</time>
      </trkpt>
      <trkpt lat="48.06194" lon="-3.65725">
        <ele>178.1</ele>
        <time>2023-04-05T14:07:56Z</time>
      </trkpt>
      <trkpt lat="48.06188" lon="-3.65722">
        <ele>178.1</ele>
        <time>2023-04-05T14:07:57Z</time>
      </trkpt>
      <trkpt lat="48.06183" lon="-3.65719">
        <ele>178</ele>
        <time>2023-04-05T14:07:58Z</time>
      </trkpt>
      <trkpt lat="48.06178" lon="-3.65716">
        <ele>177.9</ele>
        <time>2023-04-05T14:07:59Z</time>
      </trkpt>
      <trkpt lat="48.06172" lon="-3.65714">
        <ele>177.8</ele>
        <time>2023-04-05T14:08:00Z</time>
      </trkpt>
      <trkpt lat="48.06167" lon="-3.65712">
        <ele>177.7</ele>
        <time>2023-04-05T14:08:01Z</time>
      </trkpt>
      <trkpt lat="48.06161" lon="-3.6571">
        <ele>177.6</ele>
        <time>2023-04-05T14:08:02Z</time>
      </trkpt>
      <trkpt lat="48.06156" lon="-3.65707">
        <ele>177.5</ele>
        <time>2023-04-05T14:08:03Z</time>
      </trkpt>
      <trkpt lat="48.0615" lon="-3.65705">
        <ele>177.4</ele>
        <time>2023-04-05T14:08:04Z</time>
      </trkpt>
      <trkpt lat="48.06144" lon="-3.65702">
        <ele>177.3</ele>
        <time>2023-04-05T14:08:05Z</time>
      </trkpt>
      <trkpt lat="48.06138" lon="-3.657">
        <ele>177.3</ele>
        <time>2023-04-05T14:08:06Z</time>
      </trkpt>
      <trkpt lat="48.06133" lon="-3.65697">
        <ele>177.2</ele>
        <time>2023-04-05T14:08:07Z</time>
      </trkpt>
      <trkpt lat="48.06128" lon="-3.65693">
        <ele>177.1</ele>
        <time>2023-04-05T14:08:08Z</time>
      </trkpt>
      <trkpt lat="48.06122" lon="-3.65689">
        <ele>177</ele>
        <time>2023-04-05T14:08:09Z</time>
      </trkpt>
      <trkpt lat="48.06117" lon="-3.65687">
        <ele>176.9</ele>
        <time>2023-04-05T14:08:10Z</time>
      </trkpt>
      <trkpt lat="48.06111" lon="-3.65684">
        <ele>176.8</ele>
        <time>2023-04-05T14:08:11Z</time>
      </trkpt>
      <trkpt lat="48.06105" lon="-3.65682">
        <ele>176.7</ele>
        <time>2023-04-05T14:08:12Z</time>
      </trkpt>
      <trkpt lat="48.061" lon="-3.6568">
        <ele>176.6</ele>
        <time>2023-04-05T14:08:13Z</time>
      </trkpt>
      <trkpt lat="48.06094" lon="-3.65678">
        <ele>176.5</ele>
        <time>2023-04-05T14:08:14Z</time>
      </trkpt>
      <trkpt lat="48.06088" lon="-3.65675">
        <ele>176.5</ele>
        <time>2023-04-05T14:08:15Z</time>
      </trkpt>
      <trkpt lat="48.06083" lon="-3.65672">
        <ele>176.4</ele>
        <time>2023-04-05T14:08:16Z</time>
      </trkpt>
      <trkpt lat="48.06077" lon="-3.65669">
        <ele>176.4</ele>
        <time>2023-04-05T14:08:17Z</time>
      </trkpt>
      <trkpt lat="48.06072" lon="-3.65667">
        <ele>176.3</ele>
        <time>2023-04-05T14:08:18Z</time>
      </trkpt>
      <trkpt lat="48.06066" lon="-3.65664">
        <ele>176.3</ele>
        <time>2023-04-05T14:08:19Z</time>
      </trkpt>
      <trkpt lat="48.06061" lon="-3.65662">
        <ele>176.3</ele>
        <time>2023-04-05T14:08:20Z</time>
      </trkpt>
      <trkpt lat="48.06055" lon="-3.65659">
        <ele>176.3</ele>
        <time>2023-04-05T14:08:21Z</time>
      </trkpt>
      <trkpt lat="48.0605" lon="-3.65656">
        <ele>176.3</ele>
        <time>2023-04-05T14:08:22Z</time>
      </trkpt>
      <trkpt lat="48.06045" lon="-3.65654">
        <ele>176.3</ele>
        <time>2023-04-05T14:08:23Z</time>
      </trkpt>
      <trkpt lat="48.0604" lon="-3.65653">
        <ele>176.4</ele>
        <time>2023-04-05T14:08:24Z</time>
      </trkpt>
      <trkpt lat="48.06035" lon="-3.65652">
        <ele>176.4</ele>
        <time>2023-04-05T14:08:25Z</time>
      </trkpt>
      <trkpt lat="48.06032" lon="-3.65651">
        <ele>176.3</ele>
        <time>2023-04-05T14:08:26Z</time>
      </trkpt>
      <trkpt lat="48.06028" lon="-3.65648">
        <ele>176.3</ele>
        <time>2023-04-05T14:08:27Z</time>
      </trkpt>
      <trkpt lat="48.06027" lon="-3.65646">
        <ele>176.3</ele>
        <time>2023-04-05T14:08:28Z</time>
      </trkpt>
      <trkpt lat="48.06023" lon="-3.65643">
        <ele>176.3</ele>
        <time>2023-04-05T14:08:29Z</time>
      </trkpt>
      <trkpt lat="48.0602" lon="-3.65641">
        <ele>176.2</ele>
        <time>2023-04-05T14:08:30Z</time>
      </trkpt>
      <trkpt lat="48.06016" lon="-3.65639">
        <ele>176.2</ele>
        <time>2023-04-05T14:08:31Z</time>
      </trkpt>
      <trkpt lat="48.06015" lon="-3.65639">
        <ele>176.2</ele>
        <time>2023-04-05T14:08:32Z</time>
      </trkpt>
      <trkpt lat="48.0601" lon="-3.65637">
        <ele>176.1</ele>
        <time>2023-04-05T14:08:33Z</time>
      </trkpt>
      <trkpt lat="48.06006" lon="-3.65635">
        <ele>176.1</ele>
        <time>2023-04-05T14:08:35Z</time>
      </trkpt>
      <trkpt lat="48.05999" lon="-3.65629">
        <ele>176</ele>
        <time>2023-04-05T14:08:36Z</time>
      </trkpt>
      <trkpt lat="48.05995" lon="-3.65625">
        <ele>175.9</ele>
        <time>2023-04-05T14:08:38Z</time>
      </trkpt>
      <trkpt lat="48.05991" lon="-3.65624">
        <ele>175.8</ele>
        <time>2023-04-05T14:08:39Z</time>
      </trkpt>
      <trkpt lat="48.05984" lon="-3.65624">
        <ele>175.6</ele>
        <time>2023-04-05T14:08:40Z</time>
      </trkpt>
      <trkpt lat="48.05979" lon="-3.65622">
        <ele>175.5</ele>
        <time>2023-04-05T14:08:41Z</time>
      </trkpt>
      <trkpt lat="48.05974" lon="-3.65619">
        <ele>175.4</ele>
        <time>2023-04-05T14:08:42Z</time>
      </trkpt>
      <trkpt lat="48.05969" lon="-3.65616">
        <ele>175.3</ele>
        <time>2023-04-05T14:08:43Z</time>
      </trkpt>
      <trkpt lat="48.05964" lon="-3.65614">
        <ele>175.2</ele>
        <time>2023-04-05T14:08:44Z</time>
      </trkpt>
      <trkpt lat="48.05959" lon="-3.65611">
        <ele>175.1</ele>
        <time>2023-04-05T14:08:45Z</time>
      </trkpt>
      <trkpt lat="48.05954" lon="-3.65608">
        <ele>175.1</ele>
        <time>2023-04-05T14:08:46Z</time>
      </trkpt>
      <trkpt lat="48.05949" lon="-3.65605">
        <ele>175</ele>
        <time>2023-04-05T14:08:47Z</time>
      </trkpt>
      <trkpt lat="48.05944" lon="-3.65602">
        <ele>175</ele>
        <time>2023-04-05T14:08:48Z</time>
      </trkpt>
      <trkpt lat="48.05939" lon="-3.65599">
        <ele>174.9</ele>
        <time>2023-04-05T14:08:49Z</time>
      </trkpt>
      <trkpt lat="48.05934" lon="-3.65596">
        <ele>174.9</ele>
        <time>2023-04-05T14:08:50Z</time>
      </trkpt>
      <trkpt lat="48.05929" lon="-3.65593">
        <ele>174.8</ele>
        <time>2023-04-05T14:08:51Z</time>
      </trkpt>
      <trkpt lat="48.05925" lon="-3.65589">
        <ele>174.8</ele>
        <time>2023-04-05T14:08:52Z</time>
      </trkpt>
      <trkpt lat="48.0592" lon="-3.65585">
        <ele>174.7</ele>
        <time>2023-04-05T14:08:53Z</time>
      </trkpt>
      <trkpt lat="48.05914" lon="-3.65581">
        <ele>174.7</ele>
        <time>2023-04-05T14:08:54Z</time>
      </trkpt>
      <trkpt lat="48.0591" lon="-3.65576">
        <ele>174.6</ele>
        <time>2023-04-05T14:08:55Z</time>
      </trkpt>
      <trkpt lat="48.05905" lon="-3.65571">
        <ele>174.6</ele>
        <time>2023-04-05T14:08:56Z</time>
      </trkpt>
      <trkpt lat="48.059" lon="-3.65566">
        <ele>174.5</ele>
        <time>2023-04-05T14:08:57Z</time>
      </trkpt>
      <trkpt lat="48.05895" lon="-3.65561">
        <ele>174.4</ele>
        <time>2023-04-05T14:08:58Z</time>
      </trkpt>
      <trkpt lat="48.0589" lon="-3.65557">
        <ele>174.4</ele>
        <time>2023-04-05T14:08:59Z</time>
      </trkpt>
      <trkpt lat="48.05885" lon="-3.65553">
        <ele>174.3</ele>
        <time>2023-04-05T14:09:00Z</time>
      </trkpt>
      <trkpt lat="48.0588" lon="-3.65548">
        <ele>174.2</ele>
        <time>2023-04-05T14:09:01Z</time>
      </trkpt>
      <trkpt lat="48.05875" lon="-3.65543">
        <ele>174.2</ele>
        <time>2023-04-05T14:09:02Z</time>
      </trkpt>
      <trkpt lat="48.0587" lon="-3.65538">
        <ele>174.1</ele>
        <time>2023-04-05T14:09:03Z</time>
      </trkpt>
      <trkpt lat="48.05866" lon="-3.65533">
        <ele>174.1</ele>
        <time>2023-04-05T14:09:04Z</time>
      </trkpt>
      <trkpt lat="48.05861" lon="-3.65528">
        <ele>174</ele>
        <time>2023-04-05T14:09:05Z</time>
      </trkpt>
      <trkpt lat="48.05856" lon="-3.65523">
        <ele>174</ele>
        <time>2023-04-05T14:09:06Z</time>
      </trkpt>
      <trkpt lat="48.05851" lon="-3.65518">
        <ele>174</ele>
        <time>2023-04-05T14:09:07Z</time>
      </trkpt>
      <trkpt lat="48.05846" lon="-3.65514">
        <ele>174</ele>
        <time>2023-04-05T14:09:08Z</time>
      </trkpt>
      <trkpt lat="48.05841" lon="-3.65511">
        <ele>174</ele>
        <time>2023-04-05T14:09:09Z</time>
      </trkpt>
      <trkpt lat="48.05837" lon="-3.65506">
        <ele>174</ele>
        <time>2023-04-05T14:09:10Z</time>
      </trkpt>
      <trkpt lat="48.05832" lon="-3.65501">
        <ele>174</ele>
        <time>2023-04-05T14:09:11Z</time>
      </trkpt>
      <trkpt lat="48.05827" lon="-3.65496">
        <ele>174</ele>
        <time>2023-04-05T14:09:12Z</time>
      </trkpt>
      <trkpt lat="48.05823" lon="-3.65492">
        <ele>174.1</ele>
        <time>2023-04-05T14:09:13Z</time>
      </trkpt>
      <trkpt lat="48.05818" lon="-3.65488">
        <ele>174.1</ele>
        <time>2023-04-05T14:09:14Z</time>
      </trkpt>
      <trkpt lat="48.05814" lon="-3.65484">
        <ele>174.2</ele>
        <time>2023-04-05T14:09:15Z</time>
      </trkpt>
      <trkpt lat="48.05809" lon="-3.65481">
        <ele>174.2</ele>
        <time>2023-04-05T14:09:16Z</time>
      </trkpt>
      <trkpt lat="48.05805" lon="-3.65477">
        <ele>174.2</ele>
        <time>2023-04-05T14:09:17Z</time>
      </trkpt>
      <trkpt lat="48.058" lon="-3.65474">
        <ele>174.2</ele>
        <time>2023-04-05T14:09:18Z</time>
      </trkpt>
      <trkpt lat="48.05797" lon="-3.6547">
        <ele>174.2</ele>
        <time>2023-04-05T14:09:19Z</time>
      </trkpt>
      <trkpt lat="48.05794" lon="-3.65467">
        <ele>174.2</ele>
        <time>2023-04-05T14:09:20Z</time>
      </trkpt>
      <trkpt lat="48.05791" lon="-3.65464">
        <ele>174.1</ele>
        <time>2023-04-05T14:09:21Z</time>
      </trkpt>
      <trkpt lat="48.05787" lon="-3.65461">
        <ele>174.1</ele>
        <time>2023-04-05T14:09:22Z</time>
      </trkpt>
      <trkpt lat="48.05781" lon="-3.65458">
        <ele>174.1</ele>
        <time>2023-04-05T14:09:23Z</time>
      </trkpt>
      <trkpt lat="48.05777" lon="-3.65455">
        <ele>174.1</ele>
        <time>2023-04-05T14:09:24Z</time>
      </trkpt>
      <trkpt lat="48.05772" lon="-3.65454">
        <ele>174.1</ele>
        <time>2023-04-05T14:09:25Z</time>
      </trkpt>
      <trkpt lat="48.05767" lon="-3.65451">
        <ele>174.1</ele>
        <time>2023-04-05T14:09:26Z</time>
      </trkpt>
      <trkpt lat="48.05763" lon="-3.65449">
        <ele>174.1</ele>
        <time>2023-04-05T14:09:27Z</time>
      </trkpt>
      <trkpt lat="48.05758" lon="-3.65447">
        <ele>174.1</ele>
        <time>2023-04-05T14:09:28Z</time>
      </trkpt>
      <trkpt lat="48.05753" lon="-3.65444">
        <ele>174.1</ele>
        <time>2023-04-05T14:09:29Z</time>
      </trkpt>
      <trkpt lat="48.05749" lon="-3.65442">
        <ele>174.1</ele>
        <time>2023-04-05T14:09:30Z</time>
      </trkpt>
      <trkpt lat="48.05745" lon="-3.6544">
        <ele>174.1</ele>
        <time>2023-04-05T14:09:31Z</time>
      </trkpt>
      <trkpt lat="48.0574" lon="-3.65437">
        <ele>174.1</ele>
        <time>2023-04-05T14:09:32Z</time>
      </trkpt>
      <trkpt lat="48.05736" lon="-3.65434">
        <ele>174.1</ele>
        <time>2023-04-05T14:09:33Z</time>
      </trkpt>
      <trkpt lat="48.05731" lon="-3.65432">
        <ele>174.1</ele>
        <time>2023-04-05T14:09:34Z</time>
      </trkpt>
      <trkpt lat="48.05727" lon="-3.6543">
        <ele>174.1</ele>
        <time>2023-04-05T14:09:35Z</time>
      </trkpt>
      <trkpt lat="48.05723" lon="-3.65428">
        <ele>174.1</ele>
        <time>2023-04-05T14:09:36Z</time>
      </trkpt>
      <trkpt lat="48.05719" lon="-3.65427">
        <ele>174.1</ele>
        <time>2023-04-05T14:09:37Z</time>
      </trkpt>
      <trkpt lat="48.05716" lon="-3.65426">
        <ele>174.1</ele>
        <time>2023-04-05T14:09:38Z</time>
      </trkpt>
      <trkpt lat="48.05713" lon="-3.65426">
        <ele>174.1</ele>
        <time>2023-04-05T14:09:39Z</time>
      </trkpt>
      <trkpt lat="48.05709" lon="-3.65425">
        <ele>174.1</ele>
        <time>2023-04-05T14:09:40Z</time>
      </trkpt>
      <trkpt lat="48.05706" lon="-3.65424">
        <ele>174.1</ele>
        <time>2023-04-05T14:09:41Z</time>
      </trkpt>
      <trkpt lat="48.05703" lon="-3.65423">
        <ele>174.1</ele>
        <time>2023-04-05T14:09:42Z</time>
      </trkpt>
      <trkpt lat="48.057" lon="-3.65421">
        <ele>174.1</ele>
        <time>2023-04-05T14:09:43Z</time>
      </trkpt>
      <trkpt lat="48.05696" lon="-3.6542">
        <ele>174.1</ele>
        <time>2023-04-05T14:09:44Z</time>
      </trkpt>
      <trkpt lat="48.05692" lon="-3.65419">
        <ele>174.1</ele>
        <time>2023-04-05T14:09:45Z</time>
      </trkpt>
      <trkpt lat="48.05689" lon="-3.65418">
        <ele>174.1</ele>
        <time>2023-04-05T14:09:46Z</time>
      </trkpt>
      <trkpt lat="48.05687" lon="-3.65415">
        <ele>174.1</ele>
        <time>2023-04-05T14:09:47Z</time>
      </trkpt>
      <trkpt lat="48.05686" lon="-3.65412">
        <ele>174.1</ele>
        <time>2023-04-05T14:09:49Z</time>
      </trkpt>
      <trkpt lat="48.05686" lon="-3.65411">
        <ele>174.1</ele>
        <time>2023-04-05T14:09:50Z</time>
      </trkpt>
      <trkpt lat="48.05686" lon="-3.65411">
        <ele>174.1</ele>
        <time>2023-04-05T14:09:51Z</time>
      </trkpt>
      <trkpt lat="48.05686" lon="-3.65411">
        <ele>174.1</ele>
        <time>2023-04-05T14:09:52Z</time>
      </trkpt>
      <trkpt lat="48.05687" lon="-3.65411">
        <ele>174.1</ele>
        <time>2023-04-05T14:09:53Z</time>
      </trkpt>
      <trkpt lat="48.05686" lon="-3.65411">
        <ele>174.1</ele>
        <time>2023-04-05T14:09:54Z</time>
      </trkpt>
      <trkpt lat="48.05687" lon="-3.6541">
        <ele>174.1</ele>
        <time>2023-04-05T14:09:55Z</time>
      </trkpt>
      <trkpt lat="48.05687" lon="-3.6541">
        <ele>174.1</ele>
        <time>2023-04-05T14:09:56Z</time>
      </trkpt>
      <trkpt lat="48.05687" lon="-3.6541">
        <ele>174.1</ele>
        <time>2023-04-05T14:09:57Z</time>
      </trkpt>
      <trkpt lat="48.05687" lon="-3.6541">
        <ele>174.1</ele>
        <time>2023-04-05T14:09:58Z</time>
      </trkpt>
      <trkpt lat="48.05687" lon="-3.6541">
        <ele>174.1</ele>
        <time>2023-04-05T14:09:59Z</time>
      </trkpt>
      <trkpt lat="48.05687" lon="-3.65411">
        <ele>174.1</ele>
        <time>2023-04-05T14:10:00Z</time>
      </trkpt>
      <trkpt lat="48.05687" lon="-3.65411">
        <ele>174.1</ele>
        <time>2023-04-05T14:10:01Z</time>
      </trkpt>
      <trkpt lat="48.05687" lon="-3.65411">
        <ele>174.1</ele>
        <time>2023-04-05T14:10:02Z</time>
      </trkpt>
      <trkpt lat="48.05687" lon="-3.65411">
        <ele>174.1</ele>
        <time>2023-04-05T14:10:03Z</time>
      </trkpt>
      <trkpt lat="48.05687" lon="-3.65411">
        <ele>174.1</ele>
        <time>2023-04-05T14:10:04Z</time>
      </trkpt>
      <trkpt lat="48.05687" lon="-3.65411">
        <ele>174.1</ele>
        <time>2023-04-05T14:10:05Z</time>
      </trkpt>
      <trkpt lat="48.05689" lon="-3.65414">
        <ele>174.1</ele>
        <time>2023-04-05T14:10:09Z</time>
      </trkpt>
      <trkpt lat="48.05689" lon="-3.65416">
        <ele>174.1</ele>
        <time>2023-04-05T14:10:10Z</time>
      </trkpt>
      <trkpt lat="48.0569" lon="-3.65417">
        <ele>174.1</ele>
        <time>2023-04-05T14:10:11Z</time>
      </trkpt>
      <trkpt lat="48.05689" lon="-3.65418">
        <ele>174.1</ele>
        <time>2023-04-05T14:10:13Z</time>
      </trkpt>
      <trkpt lat="48.05689" lon="-3.65418">
        <ele>174.1</ele>
        <time>2023-04-05T14:10:14Z</time>
      </trkpt>
      <trkpt lat="48.05689" lon="-3.65417">
        <ele>174.1</ele>
        <time>2023-04-05T14:10:15Z</time>
      </trkpt>
      <trkpt lat="48.05689" lon="-3.65417">
        <ele>174.1</ele>
        <time>2023-04-05T14:10:16Z</time>
      </trkpt>
      <trkpt lat="48.0569" lon="-3.65416">
        <ele>174.1</ele>
        <time>2023-04-05T14:10:17Z</time>
      </trkpt>
      <trkpt lat="48.0569" lon="-3.65416">
        <ele>174.1</ele>
        <time>2023-04-05T14:10:18Z</time>
      </trkpt>
      <trkpt lat="48.0569" lon="-3.65416">
        <ele>174.1</ele>
        <time>2023-04-05T14:10:19Z</time>
      </trkpt>
      <trkpt lat="48.0569" lon="-3.65417">
        <ele>174.1</ele>
        <time>2023-04-05T14:10:20Z</time>
      </trkpt>
      <trkpt lat="48.0569" lon="-3.65417">
        <ele>174.1</ele>
        <time>2023-04-05T14:10:21Z</time>
      </trkpt>
      <trkpt lat="48.0569" lon="-3.65417">
        <ele>174.1</ele>
        <time>2023-04-05T14:10:22Z</time>
      </trkpt>
      <trkpt lat="48.0569" lon="-3.65417">
        <ele>174.1</ele>
        <time>2023-04-05T14:10:23Z</time>
      </trkpt>
      <trkpt lat="48.0569" lon="-3.65417">
        <ele>174.1</ele>
        <time>2023-04-05T14:10:24Z</time>
      </trkpt>
      <trkpt lat="48.0569" lon="-3.65416">
        <ele>174.1</ele>
        <time>2023-04-05T14:10:25Z</time>
      </trkpt>
      <trkpt lat="48.0569" lon="-3.65416">
        <ele>174.1</ele>
        <time>2023-04-05T14:10:26Z</time>
      </trkpt>
      <trkpt lat="48.0569" lon="-3.65415">
        <ele>174.1</ele>
        <time>2023-04-05T14:10:27Z</time>
      </trkpt>
      <trkpt lat="48.05688" lon="-3.65415">
        <ele>174.1</ele>
        <time>2023-04-05T14:10:28Z</time>
      </trkpt>
      <trkpt lat="48.05687" lon="-3.65414">
        <ele>174.1</ele>
        <time>2023-04-05T14:10:30Z</time>
      </trkpt>
      <trkpt lat="48.05686" lon="-3.65414">
        <ele>174.1</ele>
        <time>2023-04-05T14:10:31Z</time>
      </trkpt>
      <trkpt lat="48.05685" lon="-3.65413">
        <ele>174.1</ele>
        <time>2023-04-05T14:10:32Z</time>
      </trkpt>
      <trkpt lat="48.05685" lon="-3.65413">
        <ele>174.1</ele>
        <time>2023-04-05T14:10:33Z</time>
      </trkpt>
      <trkpt lat="48.05684" lon="-3.65413">
        <ele>174.1</ele>
        <time>2023-04-05T14:10:34Z</time>
      </trkpt>
      <trkpt lat="48.05684" lon="-3.65413">
        <ele>174.1</ele>
        <time>2023-04-05T14:10:35Z</time>
      </trkpt>
      <trkpt lat="48.05685" lon="-3.65413">
        <ele>174.1</ele>
        <time>2023-04-05T14:10:36Z</time>
      </trkpt>
      <trkpt lat="48.05685" lon="-3.65413">
        <ele>174.1</ele>
        <time>2023-04-05T14:10:37Z</time>
      </trkpt>
      <trkpt lat="48.05685" lon="-3.65413">
        <ele>174.1</ele>
        <time>2023-04-05T14:10:38Z</time>
      </trkpt>
      <trkpt lat="48.05685" lon="-3.65413">
        <ele>174.1</ele>
        <time>2023-04-05T14:10:39Z</time>
      </trkpt>
      <trkpt lat="48.05685" lon="-3.65413">
        <ele>174.1</ele>
        <time>2023-04-05T14:10:40Z</time>
      </trkpt>
      <trkpt lat="48.05685" lon="-3.65414">
        <ele>174.1</ele>
        <time>2023-04-05T14:10:42Z</time>
      </trkpt>
      <trkpt lat="48.05685" lon="-3.65414">
        <ele>174.1</ele>
        <time>2023-04-05T14:10:43Z</time>
      </trkpt>
      <trkpt lat="48.05685" lon="-3.65414">
        <ele>174.1</ele>
        <time>2023-04-05T14:10:44Z</time>
      </trkpt>
      <trkpt lat="48.05685" lon="-3.65415">
        <ele>174.1</ele>
        <time>2023-04-05T14:10:45Z</time>
      </trkpt>
      <trkpt lat="48.05685" lon="-3.65415">
        <ele>174.1</ele>
        <time>2023-04-05T14:10:46Z</time>
      </trkpt>
      <trkpt lat="48.05686" lon="-3.65415">
        <ele>174.1</ele>
        <time>2023-04-05T14:10:47Z</time>
      </trkpt>
      <trkpt lat="48.05685" lon="-3.65415">
        <ele>174.1</ele>
        <time>2023-04-05T14:10:48Z</time>
      </trkpt>
      <trkpt lat="48.05685" lon="-3.65416">
        <ele>174.1</ele>
        <time>2023-04-05T14:10:49Z</time>
      </trkpt>
      <trkpt lat="48.05686" lon="-3.65416">
        <ele>174.1</ele>
        <time>2023-04-05T14:10:50Z</time>
      </trkpt>
      <trkpt lat="48.05684" lon="-3.65422">
        <ele>174.1</ele>
        <time>2023-04-05T14:11:16Z</time>
      </trkpt>
      <trkpt lat="48.05683" lon="-3.65424">
        <ele>174.1</ele>
        <time>2023-04-05T14:11:17Z</time>
      </trkpt>
      <trkpt lat="48.05681" lon="-3.65425">
        <ele>174.1</ele>
        <time>2023-04-05T14:11:18Z</time>
      </trkpt>
      <trkpt lat="48.05679" lon="-3.65424">
        <ele>174</ele>
        <time>2023-04-05T14:11:20Z</time>
      </trkpt>
      <trkpt lat="48.05676" lon="-3.65422">
        <ele>174</ele>
        <time>2023-04-05T14:11:21Z</time>
      </trkpt>
      <trkpt lat="48.0567" lon="-3.65418">
        <ele>174</ele>
        <time>2023-04-05T14:11:22Z</time>
      </trkpt>
      <trkpt lat="48.05666" lon="-3.65415">
        <ele>174</ele>
        <time>2023-04-05T14:11:23Z</time>
      </trkpt>
      <trkpt lat="48.05663" lon="-3.65413">
        <ele>174</ele>
        <time>2023-04-05T14:11:24Z</time>
      </trkpt>
      <trkpt lat="48.0566" lon="-3.6541">
        <ele>174</ele>
        <time>2023-04-05T14:11:25Z</time>
      </trkpt>
      <trkpt lat="48.05656" lon="-3.65408">
        <ele>174</ele>
        <time>2023-04-05T14:11:26Z</time>
      </trkpt>
      <trkpt lat="48.05652" lon="-3.65406">
        <ele>174</ele>
        <time>2023-04-05T14:11:27Z</time>
      </trkpt>
      <trkpt lat="48.05648" lon="-3.65403">
        <ele>174</ele>
        <time>2023-04-05T14:11:28Z</time>
      </trkpt>
      <trkpt lat="48.05645" lon="-3.65401">
        <ele>174</ele>
        <time>2023-04-05T14:11:29Z</time>
      </trkpt>
      <trkpt lat="48.05641" lon="-3.65399">
        <ele>173.9</ele>
        <time>2023-04-05T14:11:30Z</time>
      </trkpt>
      <trkpt lat="48.05638" lon="-3.65397">
        <ele>173.9</ele>
        <time>2023-04-05T14:11:31Z</time>
      </trkpt>
      <trkpt lat="48.05635" lon="-3.65395">
        <ele>173.9</ele>
        <time>2023-04-05T14:11:32Z</time>
      </trkpt>
      <trkpt lat="48.05631" lon="-3.65393">
        <ele>173.9</ele>
        <time>2023-04-05T14:11:33Z</time>
      </trkpt>
      <trkpt lat="48.05626" lon="-3.65391">
        <ele>173.9</ele>
        <time>2023-04-05T14:11:34Z</time>
      </trkpt>
      <trkpt lat="48.05623" lon="-3.65388">
        <ele>173.9</ele>
        <time>2023-04-05T14:11:35Z</time>
      </trkpt>
      <trkpt lat="48.05619" lon="-3.65386">
        <ele>173.9</ele>
        <time>2023-04-05T14:11:36Z</time>
      </trkpt>
      <trkpt lat="48.05614" lon="-3.65385">
        <ele>173.9</ele>
        <time>2023-04-05T14:11:37Z</time>
      </trkpt>
      <trkpt lat="48.05609" lon="-3.65384">
        <ele>173.9</ele>
        <time>2023-04-05T14:11:38Z</time>
      </trkpt>
      <trkpt lat="48.05605" lon="-3.65383">
        <ele>173.9</ele>
        <time>2023-04-05T14:11:39Z</time>
      </trkpt>
      <trkpt lat="48.056" lon="-3.65382">
        <ele>173.9</ele>
        <time>2023-04-05T14:11:40Z</time>
      </trkpt>
      <trkpt lat="48.05596" lon="-3.65381">
        <ele>174</ele>
        <time>2023-04-05T14:11:41Z</time>
      </trkpt>
      <trkpt lat="48.05591" lon="-3.65381">
        <ele>174</ele>
        <time>2023-04-05T14:11:42Z</time>
      </trkpt>
      <trkpt lat="48.05588" lon="-3.6538">
        <ele>174</ele>
        <time>2023-04-05T14:11:43Z</time>
      </trkpt>
      <trkpt lat="48.05581" lon="-3.65378">
        <ele>174.1</ele>
        <time>2023-04-05T14:11:44Z</time>
      </trkpt>
      <trkpt lat="48.05572" lon="-3.65378">
        <ele>174.2</ele>
        <time>2023-04-05T14:11:46Z</time>
      </trkpt>
      <trkpt lat="48.05568" lon="-3.65377">
        <ele>174.2</ele>
        <time>2023-04-05T14:11:47Z</time>
      </trkpt>
      <trkpt lat="48.05563" lon="-3.65376">
        <ele>174.2</ele>
        <time>2023-04-05T14:11:49Z</time>
      </trkpt>
      <trkpt lat="48.0556" lon="-3.65375">
        <ele>174.3</ele>
        <time>2023-04-05T14:11:50Z</time>
      </trkpt>
      <trkpt lat="48.05552" lon="-3.65374">
        <ele>174.2</ele>
        <time>2023-04-05T14:11:51Z</time>
      </trkpt>
      <trkpt lat="48.05549" lon="-3.65375">
        <ele>174.1</ele>
        <time>2023-04-05T14:11:52Z</time>
      </trkpt>
      <trkpt lat="48.05542" lon="-3.65378">
        <ele>174</ele>
        <time>2023-04-05T14:11:54Z</time>
      </trkpt>
      <trkpt lat="48.05537" lon="-3.6538">
        <ele>174</ele>
        <time>2023-04-05T14:11:55Z</time>
      </trkpt>
      <trkpt lat="48.05532" lon="-3.65381">
        <ele>173.9</ele>
        <time>2023-04-05T14:11:56Z</time>
      </trkpt>
      <trkpt lat="48.05527" lon="-3.65381">
        <ele>173.8</ele>
        <time>2023-04-05T14:11:57Z</time>
      </trkpt>
      <trkpt lat="48.05522" lon="-3.65382">
        <ele>173.7</ele>
        <time>2023-04-05T14:11:58Z</time>
      </trkpt>
      <trkpt lat="48.05518" lon="-3.65383">
        <ele>173.7</ele>
        <time>2023-04-05T14:11:59Z</time>
      </trkpt>
      <trkpt lat="48.05513" lon="-3.65384">
        <ele>173.7</ele>
        <time>2023-04-05T14:12:00Z</time>
      </trkpt>
      <trkpt lat="48.05508" lon="-3.65386">
        <ele>173.6</ele>
        <time>2023-04-05T14:12:01Z</time>
      </trkpt>
      <trkpt lat="48.05503" lon="-3.65388">
        <ele>173.6</ele>
        <time>2023-04-05T14:12:02Z</time>
      </trkpt>
      <trkpt lat="48.05498" lon="-3.65389">
        <ele>173.6</ele>
        <time>2023-04-05T14:12:03Z</time>
      </trkpt>
      <trkpt lat="48.05493" lon="-3.65391">
        <ele>173.5</ele>
        <time>2023-04-05T14:12:04Z</time>
      </trkpt>
      <trkpt lat="48.05488" lon="-3.65393">
        <ele>173.5</ele>
        <time>2023-04-05T14:12:05Z</time>
      </trkpt>
      <trkpt lat="48.05483" lon="-3.65394">
        <ele>173.4</ele>
        <time>2023-04-05T14:12:06Z</time>
      </trkpt>
      <trkpt lat="48.05478" lon="-3.65396">
        <ele>173.4</ele>
        <time>2023-04-05T14:12:07Z</time>
      </trkpt>
      <trkpt lat="48.05473" lon="-3.65398">
        <ele>173.3</ele>
        <time>2023-04-05T14:12:08Z</time>
      </trkpt>
      <trkpt lat="48.05469" lon="-3.65401">
        <ele>173.3</ele>
        <time>2023-04-05T14:12:09Z</time>
      </trkpt>
      <trkpt lat="48.05464" lon="-3.65404">
        <ele>173.2</ele>
        <time>2023-04-05T14:12:10Z</time>
      </trkpt>
      <trkpt lat="48.0546" lon="-3.65406">
        <ele>173.2</ele>
        <time>2023-04-05T14:12:11Z</time>
      </trkpt>
      <trkpt lat="48.05455" lon="-3.65409">
        <ele>173.2</ele>
        <time>2023-04-05T14:12:12Z</time>
      </trkpt>
      <trkpt lat="48.0545" lon="-3.65412">
        <ele>173.2</ele>
        <time>2023-04-05T14:12:13Z</time>
      </trkpt>
      <trkpt lat="48.05445" lon="-3.65416">
        <ele>173.1</ele>
        <time>2023-04-05T14:12:14Z</time>
      </trkpt>
      <trkpt lat="48.0544" lon="-3.65419">
        <ele>173.1</ele>
        <time>2023-04-05T14:12:15Z</time>
      </trkpt>
      <trkpt lat="48.05435" lon="-3.65424">
        <ele>173</ele>
        <time>2023-04-05T14:12:16Z</time>
      </trkpt>
      <trkpt lat="48.0543" lon="-3.65428">
        <ele>172.9</ele>
        <time>2023-04-05T14:12:17Z</time>
      </trkpt>
      <trkpt lat="48.05426" lon="-3.65432">
        <ele>172.9</ele>
        <time>2023-04-05T14:12:18Z</time>
      </trkpt>
      <trkpt lat="48.05422" lon="-3.65437">
        <ele>172.8</ele>
        <time>2023-04-05T14:12:19Z</time>
      </trkpt>
      <trkpt lat="48.05417" lon="-3.65442">
        <ele>172.8</ele>
        <time>2023-04-05T14:12:20Z</time>
      </trkpt>
      <trkpt lat="48.05412" lon="-3.65447">
        <ele>172.7</ele>
        <time>2023-04-05T14:12:21Z</time>
      </trkpt>
      <trkpt lat="48.05408" lon="-3.65451">
        <ele>172.6</ele>
        <time>2023-04-05T14:12:22Z</time>
      </trkpt>
      <trkpt lat="48.05404" lon="-3.65455">
        <ele>172.6</ele>
        <time>2023-04-05T14:12:23Z</time>
      </trkpt>
      <trkpt lat="48.05401" lon="-3.65461">
        <ele>172.5</ele>
        <time>2023-04-05T14:12:24Z</time>
      </trkpt>
      <trkpt lat="48.05397" lon="-3.65466">
        <ele>172.5</ele>
        <time>2023-04-05T14:12:25Z</time>
      </trkpt>
      <trkpt lat="48.05395" lon="-3.65471">
        <ele>172.4</ele>
        <time>2023-04-05T14:12:26Z</time>
      </trkpt>
      <trkpt lat="48.05393" lon="-3.65476">
        <ele>172.4</ele>
        <time>2023-04-05T14:12:27Z</time>
      </trkpt>
      <trkpt lat="48.05392" lon="-3.6548">
        <ele>172.4</ele>
        <time>2023-04-05T14:12:28Z</time>
      </trkpt>
      <trkpt lat="48.05388" lon="-3.65487">
        <ele>172.3</ele>
        <time>2023-04-05T14:12:29Z</time>
      </trkpt>
      <trkpt lat="48.05382" lon="-3.65494">
        <ele>172.2</ele>
        <time>2023-04-05T14:12:30Z</time>
      </trkpt>
      <trkpt lat="48.05378" lon="-3.655">
        <ele>172.1</ele>
        <time>2023-04-05T14:12:31Z</time>
      </trkpt>
      <trkpt lat="48.05373" lon="-3.65506">
        <ele>172.1</ele>
        <time>2023-04-05T14:12:32Z</time>
      </trkpt>
      <trkpt lat="48.0537" lon="-3.65511">
        <ele>172</ele>
        <time>2023-04-05T14:12:33Z</time>
      </trkpt>
      <trkpt lat="48.05366" lon="-3.65517">
        <ele>171.9</ele>
        <time>2023-04-05T14:12:34Z</time>
      </trkpt>
      <trkpt lat="48.0536" lon="-3.65523">
        <ele>171.8</ele>
        <time>2023-04-05T14:12:35Z</time>
      </trkpt>
      <trkpt lat="48.05356" lon="-3.65529">
        <ele>171.7</ele>
        <time>2023-04-05T14:12:36Z</time>
      </trkpt>
      <trkpt lat="48.05351" lon="-3.65535">
        <ele>171.5</ele>
        <time>2023-04-05T14:12:37Z</time>
      </trkpt>
      <trkpt lat="48.05346" lon="-3.65541">
        <ele>171.4</ele>
        <time>2023-04-05T14:12:38Z</time>
      </trkpt>
      <trkpt lat="48.05342" lon="-3.65546">
        <ele>171.3</ele>
        <time>2023-04-05T14:12:39Z</time>
      </trkpt>
      <trkpt lat="48.05338" lon="-3.65552">
        <ele>171.1</ele>
        <time>2023-04-05T14:12:40Z</time>
      </trkpt>
      <trkpt lat="48.05334" lon="-3.65559">
        <ele>171</ele>
        <time>2023-04-05T14:12:41Z</time>
      </trkpt>
      <trkpt lat="48.05329" lon="-3.65565">
        <ele>171</ele>
        <time>2023-04-05T14:12:42Z</time>
      </trkpt>
      <trkpt lat="48.05325" lon="-3.65572">
        <ele>170.9</ele>
        <time>2023-04-05T14:12:43Z</time>
      </trkpt>
      <trkpt lat="48.05321" lon="-3.65578">
        <ele>170.8</ele>
        <time>2023-04-05T14:12:44Z</time>
      </trkpt>
      <trkpt lat="48.05316" lon="-3.65585">
        <ele>170.8</ele>
        <time>2023-04-05T14:12:45Z</time>
      </trkpt>
      <trkpt lat="48.05312" lon="-3.65591">
        <ele>170.7</ele>
        <time>2023-04-05T14:12:46Z</time>
      </trkpt>
      <trkpt lat="48.05306" lon="-3.65597">
        <ele>170.7</ele>
        <time>2023-04-05T14:12:47Z</time>
      </trkpt>
      <trkpt lat="48.05302" lon="-3.65603">
        <ele>170.7</ele>
        <time>2023-04-05T14:12:48Z</time>
      </trkpt>
      <trkpt lat="48.05298" lon="-3.65609">
        <ele>170.7</ele>
        <time>2023-04-05T14:12:49Z</time>
      </trkpt>
      <trkpt lat="48.05294" lon="-3.65615">
        <ele>170.8</ele>
        <time>2023-04-05T14:12:50Z</time>
      </trkpt>
      <trkpt lat="48.05291" lon="-3.6562">
        <ele>170.8</ele>
        <time>2023-04-05T14:12:51Z</time>
      </trkpt>
      <trkpt lat="48.05288" lon="-3.65623">
        <ele>170.8</ele>
        <time>2023-04-05T14:12:52Z</time>
      </trkpt>
      <trkpt lat="48.05286" lon="-3.65626">
        <ele>170.8</ele>
        <time>2023-04-05T14:12:53Z</time>
      </trkpt>
      <trkpt lat="48.05283" lon="-3.6563">
        <ele>170.7</ele>
        <time>2023-04-05T14:12:54Z</time>
      </trkpt>
      <trkpt lat="48.0528" lon="-3.65634">
        <ele>170.7</ele>
        <time>2023-04-05T14:12:55Z</time>
      </trkpt>
      <trkpt lat="48.05278" lon="-3.65637">
        <ele>170.6</ele>
        <time>2023-04-05T14:12:56Z</time>
      </trkpt>
      <trkpt lat="48.05275" lon="-3.65642">
        <ele>170.5</ele>
        <time>2023-04-05T14:12:57Z</time>
      </trkpt>
      <trkpt lat="48.05273" lon="-3.65646">
        <ele>170.4</ele>
        <time>2023-04-05T14:12:58Z</time>
      </trkpt>
      <trkpt lat="48.05269" lon="-3.65652">
        <ele>170.2</ele>
        <time>2023-04-05T14:12:59Z</time>
      </trkpt>
      <trkpt lat="48.05264" lon="-3.65656">
        <ele>170</ele>
        <time>2023-04-05T14:13:01Z</time>
      </trkpt>
      <trkpt lat="48.05259" lon="-3.65664">
        <ele>169.7</ele>
        <time>2023-04-05T14:13:02Z</time>
      </trkpt>
      <trkpt lat="48.05255" lon="-3.6567">
        <ele>169.5</ele>
        <time>2023-04-05T14:13:03Z</time>
      </trkpt>
      <trkpt lat="48.05253" lon="-3.65677">
        <ele>169.2</ele>
        <time>2023-04-05T14:13:04Z</time>
      </trkpt>
      <trkpt lat="48.05249" lon="-3.65682">
        <ele>169</ele>
        <time>2023-04-05T14:13:05Z</time>
      </trkpt>
      <trkpt lat="48.05245" lon="-3.65688">
        <ele>168.8</ele>
        <time>2023-04-05T14:13:06Z</time>
      </trkpt>
      <trkpt lat="48.0524" lon="-3.65694">
        <ele>168.5</ele>
        <time>2023-04-05T14:13:07Z</time>
      </trkpt>
      <trkpt lat="48.05236" lon="-3.65701">
        <ele>168.3</ele>
        <time>2023-04-05T14:13:08Z</time>
      </trkpt>
      <trkpt lat="48.05231" lon="-3.65707">
        <ele>168</ele>
        <time>2023-04-05T14:13:09Z</time>
      </trkpt>
      <trkpt lat="48.05226" lon="-3.65715">
        <ele>167.8</ele>
        <time>2023-04-05T14:13:10Z</time>
      </trkpt>
      <trkpt lat="48.05221" lon="-3.65722">
        <ele>167.6</ele>
        <time>2023-04-05T14:13:11Z</time>
      </trkpt>
      <trkpt lat="48.05217" lon="-3.6573">
        <ele>167.4</ele>
        <time>2023-04-05T14:13:12Z</time>
      </trkpt>
      <trkpt lat="48.05212" lon="-3.65737">
        <ele>167.2</ele>
        <time>2023-04-05T14:13:13Z</time>
      </trkpt>
      <trkpt lat="48.05207" lon="-3.65744">
        <ele>167</ele>
        <time>2023-04-05T14:13:14Z</time>
      </trkpt>
      <trkpt lat="48.05202" lon="-3.65751">
        <ele>166.8</ele>
        <time>2023-04-05T14:13:15Z</time>
      </trkpt>
      <trkpt lat="48.05197" lon="-3.65759">
        <ele>166.7</ele>
        <time>2023-04-05T14:13:16Z</time>
      </trkpt>
      <trkpt lat="48.05192" lon="-3.65766">
        <ele>166.5</ele>
        <time>2023-04-05T14:13:17Z</time>
      </trkpt>
      <trkpt lat="48.05186" lon="-3.65773">
        <ele>166.3</ele>
        <time>2023-04-05T14:13:18Z</time>
      </trkpt>
      <trkpt lat="48.05181" lon="-3.6578">
        <ele>166.2</ele>
        <time>2023-04-05T14:13:19Z</time>
      </trkpt>
      <trkpt lat="48.05176" lon="-3.65787">
        <ele>166</ele>
        <time>2023-04-05T14:13:20Z</time>
      </trkpt>
      <trkpt lat="48.05172" lon="-3.65794">
        <ele>165.9</ele>
        <time>2023-04-05T14:13:21Z</time>
      </trkpt>
      <trkpt lat="48.05168" lon="-3.65801">
        <ele>165.7</ele>
        <time>2023-04-05T14:13:22Z</time>
      </trkpt>
      <trkpt lat="48.05163" lon="-3.65808">
        <ele>165.6</ele>
        <time>2023-04-05T14:13:23Z</time>
      </trkpt>
      <trkpt lat="48.05157" lon="-3.65815">
        <ele>165.4</ele>
        <time>2023-04-05T14:13:24Z</time>
      </trkpt>
      <trkpt lat="48.05152" lon="-3.65823">
        <ele>165.2</ele>
        <time>2023-04-05T14:13:25Z</time>
      </trkpt>
      <trkpt lat="48.05147" lon="-3.65831">
        <ele>165</ele>
        <time>2023-04-05T14:13:26Z</time>
      </trkpt>
      <trkpt lat="48.05142" lon="-3.65838">
        <ele>164.9</ele>
        <time>2023-04-05T14:13:27Z</time>
      </trkpt>
      <trkpt lat="48.05137" lon="-3.65845">
        <ele>164.7</ele>
        <time>2023-04-05T14:13:28Z</time>
      </trkpt>
      <trkpt lat="48.05132" lon="-3.65852">
        <ele>164.6</ele>
        <time>2023-04-05T14:13:29Z</time>
      </trkpt>
      <trkpt lat="48.05126" lon="-3.6586">
        <ele>164.4</ele>
        <time>2023-04-05T14:13:30Z</time>
      </trkpt>
      <trkpt lat="48.05121" lon="-3.65867">
        <ele>164.3</ele>
        <time>2023-04-05T14:13:31Z</time>
      </trkpt>
      <trkpt lat="48.05116" lon="-3.65874">
        <ele>164.2</ele>
        <time>2023-04-05T14:13:32Z</time>
      </trkpt>
      <trkpt lat="48.05111" lon="-3.65881">
        <ele>164</ele>
        <time>2023-04-05T14:13:33Z</time>
      </trkpt>
      <trkpt lat="48.05105" lon="-3.65888">
        <ele>163.9</ele>
        <time>2023-04-05T14:13:34Z</time>
      </trkpt>
      <trkpt lat="48.051" lon="-3.65895">
        <ele>163.8</ele>
        <time>2023-04-05T14:13:35Z</time>
      </trkpt>
      <trkpt lat="48.05096" lon="-3.65902">
        <ele>163.6</ele>
        <time>2023-04-05T14:13:36Z</time>
      </trkpt>
      <trkpt lat="48.05091" lon="-3.65909">
        <ele>163.5</ele>
        <time>2023-04-05T14:13:37Z</time>
      </trkpt>
      <trkpt lat="48.05087" lon="-3.65917">
        <ele>163.4</ele>
        <time>2023-04-05T14:13:38Z</time>
      </trkpt>
      <trkpt lat="48.05082" lon="-3.65923">
        <ele>163.3</ele>
        <time>2023-04-05T14:13:39Z</time>
      </trkpt>
      <trkpt lat="48.05077" lon="-3.6593">
        <ele>163.2</ele>
        <time>2023-04-05T14:13:40Z</time>
      </trkpt>
      <trkpt lat="48.05073" lon="-3.65937">
        <ele>163.2</ele>
        <time>2023-04-05T14:13:41Z</time>
      </trkpt>
      <trkpt lat="48.05068" lon="-3.65944">
        <ele>163.1</ele>
        <time>2023-04-05T14:13:42Z</time>
      </trkpt>
      <trkpt lat="48.05063" lon="-3.6595">
        <ele>163</ele>
        <time>2023-04-05T14:13:43Z</time>
      </trkpt>
      <trkpt lat="48.05059" lon="-3.65957">
        <ele>162.9</ele>
        <time>2023-04-05T14:13:44Z</time>
      </trkpt>
      <trkpt lat="48.05054" lon="-3.65964">
        <ele>162.9</ele>
        <time>2023-04-05T14:13:45Z</time>
      </trkpt>
      <trkpt lat="48.05049" lon="-3.65971">
        <ele>162.8</ele>
        <time>2023-04-05T14:13:46Z</time>
      </trkpt>
      <trkpt lat="48.05045" lon="-3.65978">
        <ele>162.8</ele>
        <time>2023-04-05T14:13:47Z</time>
      </trkpt>
      <trkpt lat="48.05041" lon="-3.65984">
        <ele>162.8</ele>
        <time>2023-04-05T14:13:48Z</time>
      </trkpt>
      <trkpt lat="48.05036" lon="-3.65991">
        <ele>162.7</ele>
        <time>2023-04-05T14:13:49Z</time>
      </trkpt>
      <trkpt lat="48.05032" lon="-3.65997">
        <ele>162.7</ele>
        <time>2023-04-05T14:13:50Z</time>
      </trkpt>
      <trkpt lat="48.05027" lon="-3.66003">
        <ele>162.7</ele>
        <time>2023-04-05T14:13:51Z</time>
      </trkpt>
      <trkpt lat="48.05022" lon="-3.6601">
        <ele>162.7</ele>
        <time>2023-04-05T14:13:52Z</time>
      </trkpt>
      <trkpt lat="48.05018" lon="-3.66016">
        <ele>162.7</ele>
        <time>2023-04-05T14:13:53Z</time>
      </trkpt>
      <trkpt lat="48.05013" lon="-3.66023">
        <ele>162.6</ele>
        <time>2023-04-05T14:13:54Z</time>
      </trkpt>
      <trkpt lat="48.05009" lon="-3.66029">
        <ele>162.6</ele>
        <time>2023-04-05T14:13:55Z</time>
      </trkpt>
      <trkpt lat="48.05005" lon="-3.66034">
        <ele>162.6</ele>
        <time>2023-04-05T14:13:56Z</time>
      </trkpt>
      <trkpt lat="48.05001" lon="-3.6604">
        <ele>162.6</ele>
        <time>2023-04-05T14:13:57Z</time>
      </trkpt>
      <trkpt lat="48.04996" lon="-3.66046">
        <ele>162.6</ele>
        <time>2023-04-05T14:13:58Z</time>
      </trkpt>
      <trkpt lat="48.04992" lon="-3.66052">
        <ele>162.6</ele>
        <time>2023-04-05T14:13:59Z</time>
      </trkpt>
      <trkpt lat="48.04987" lon="-3.66058">
        <ele>162.5</ele>
        <time>2023-04-05T14:14:00Z</time>
      </trkpt>
      <trkpt lat="48.04983" lon="-3.66064">
        <ele>162.5</ele>
        <time>2023-04-05T14:14:01Z</time>
      </trkpt>
      <trkpt lat="48.04979" lon="-3.6607">
        <ele>162.5</ele>
        <time>2023-04-05T14:14:02Z</time>
      </trkpt>
      <trkpt lat="48.04975" lon="-3.66076">
        <ele>162.5</ele>
        <time>2023-04-05T14:14:03Z</time>
      </trkpt>
      <trkpt lat="48.04971" lon="-3.66082">
        <ele>162.5</ele>
        <time>2023-04-05T14:14:04Z</time>
      </trkpt>
      <trkpt lat="48.04967" lon="-3.66087">
        <ele>162.4</ele>
        <time>2023-04-05T14:14:05Z</time>
      </trkpt>
      <trkpt lat="48.04963" lon="-3.66093">
        <ele>162.4</ele>
        <time>2023-04-05T14:14:06Z</time>
      </trkpt>
      <trkpt lat="48.04959" lon="-3.66099">
        <ele>162.4</ele>
        <time>2023-04-05T14:14:07Z</time>
      </trkpt>
      <trkpt lat="48.04954" lon="-3.66105">
        <ele>162.4</ele>
        <time>2023-04-05T14:14:08Z</time>
      </trkpt>
      <trkpt lat="48.0495" lon="-3.66111">
        <ele>162.4</ele>
        <time>2023-04-05T14:14:09Z</time>
      </trkpt>
      <trkpt lat="48.04947" lon="-3.66116">
        <ele>162.4</ele>
        <time>2023-04-05T14:14:10Z</time>
      </trkpt>
      <trkpt lat="48.04943" lon="-3.66122">
        <ele>162.3</ele>
        <time>2023-04-05T14:14:11Z</time>
      </trkpt>
      <trkpt lat="48.04939" lon="-3.66128">
        <ele>162.3</ele>
        <time>2023-04-05T14:14:12Z</time>
      </trkpt>
      <trkpt lat="48.04935" lon="-3.66134">
        <ele>162.3</ele>
        <time>2023-04-05T14:14:13Z</time>
      </trkpt>
      <trkpt lat="48.04931" lon="-3.6614">
        <ele>162.3</ele>
        <time>2023-04-05T14:14:14Z</time>
      </trkpt>
      <trkpt lat="48.04927" lon="-3.66146">
        <ele>162.3</ele>
        <time>2023-04-05T14:14:15Z</time>
      </trkpt>
      <trkpt lat="48.04923" lon="-3.66152">
        <ele>162.2</ele>
        <time>2023-04-05T14:14:16Z</time>
      </trkpt>
      <trkpt lat="48.04919" lon="-3.66158">
        <ele>162.2</ele>
        <time>2023-04-05T14:14:17Z</time>
      </trkpt>
      <trkpt lat="48.04914" lon="-3.66164">
        <ele>162.2</ele>
        <time>2023-04-05T14:14:18Z</time>
      </trkpt>
      <trkpt lat="48.0491" lon="-3.6617">
        <ele>162.1</ele>
        <time>2023-04-05T14:14:19Z</time>
      </trkpt>
      <trkpt lat="48.04906" lon="-3.66176">
        <ele>162.1</ele>
        <time>2023-04-05T14:14:20Z</time>
      </trkpt>
      <trkpt lat="48.04902" lon="-3.66182">
        <ele>162.1</ele>
        <time>2023-04-05T14:14:21Z</time>
      </trkpt>
      <trkpt lat="48.04898" lon="-3.66188">
        <ele>162.1</ele>
        <time>2023-04-05T14:14:22Z</time>
      </trkpt>
      <trkpt lat="48.04894" lon="-3.66193">
        <ele>162</ele>
        <time>2023-04-05T14:14:23Z</time>
      </trkpt>
      <trkpt lat="48.04891" lon="-3.66199">
        <ele>162</ele>
        <time>2023-04-05T14:14:24Z</time>
      </trkpt>
      <trkpt lat="48.04887" lon="-3.66205">
        <ele>162</ele>
        <time>2023-04-05T14:14:25Z</time>
      </trkpt>
      <trkpt lat="48.04883" lon="-3.66212">
        <ele>162</ele>
        <time>2023-04-05T14:14:26Z</time>
      </trkpt>
      <trkpt lat="48.04879" lon="-3.66218">
        <ele>161.9</ele>
        <time>2023-04-05T14:14:27Z</time>
      </trkpt>
      <trkpt lat="48.04875" lon="-3.66223">
        <ele>161.9</ele>
        <time>2023-04-05T14:14:28Z</time>
      </trkpt>
      <trkpt lat="48.04871" lon="-3.66229">
        <ele>161.9</ele>
        <time>2023-04-05T14:14:29Z</time>
      </trkpt>
      <trkpt lat="48.04867" lon="-3.66234">
        <ele>161.9</ele>
        <time>2023-04-05T14:14:30Z</time>
      </trkpt>
      <trkpt lat="48.04863" lon="-3.6624">
        <ele>161.9</ele>
        <time>2023-04-05T14:14:31Z</time>
      </trkpt>
      <trkpt lat="48.04859" lon="-3.66246">
        <ele>161.8</ele>
        <time>2023-04-05T14:14:32Z</time>
      </trkpt>
      <trkpt lat="48.04855" lon="-3.66252">
        <ele>161.8</ele>
        <time>2023-04-05T14:14:33Z</time>
      </trkpt>
      <trkpt lat="48.04851" lon="-3.66258">
        <ele>161.8</ele>
        <time>2023-04-05T14:14:34Z</time>
      </trkpt>
      <trkpt lat="48.04847" lon="-3.66264">
        <ele>161.8</ele>
        <time>2023-04-05T14:14:35Z</time>
      </trkpt>
      <trkpt lat="48.04843" lon="-3.6627">
        <ele>161.8</ele>
        <time>2023-04-05T14:14:36Z</time>
      </trkpt>
      <trkpt lat="48.04839" lon="-3.66275">
        <ele>161.8</ele>
        <time>2023-04-05T14:14:37Z</time>
      </trkpt>
      <trkpt lat="48.04835" lon="-3.66281">
        <ele>161.8</ele>
        <time>2023-04-05T14:14:38Z</time>
      </trkpt>
      <trkpt lat="48.0483" lon="-3.66286">
        <ele>161.8</ele>
        <time>2023-04-05T14:14:39Z</time>
      </trkpt>
      <trkpt lat="48.04826" lon="-3.66291">
        <ele>161.8</ele>
        <time>2023-04-05T14:14:40Z</time>
      </trkpt>
      <trkpt lat="48.04822" lon="-3.66297">
        <ele>161.8</ele>
        <time>2023-04-05T14:14:41Z</time>
      </trkpt>
      <trkpt lat="48.04818" lon="-3.66303">
        <ele>161.8</ele>
        <time>2023-04-05T14:14:42Z</time>
      </trkpt>
      <trkpt lat="48.04814" lon="-3.66308">
        <ele>161.8</ele>
        <time>2023-04-05T14:14:43Z</time>
      </trkpt>
      <trkpt lat="48.0481" lon="-3.66313">
        <ele>161.7</ele>
        <time>2023-04-05T14:14:44Z</time>
      </trkpt>
      <trkpt lat="48.04806" lon="-3.66318">
        <ele>161.7</ele>
        <time>2023-04-05T14:14:45Z</time>
      </trkpt>
      <trkpt lat="48.04803" lon="-3.66324">
        <ele>161.6</ele>
        <time>2023-04-05T14:14:46Z</time>
      </trkpt>
      <trkpt lat="48.04798" lon="-3.6633">
        <ele>161.5</ele>
        <time>2023-04-05T14:14:47Z</time>
      </trkpt>
      <trkpt lat="48.04795" lon="-3.66336">
        <ele>161.4</ele>
        <time>2023-04-05T14:14:48Z</time>
      </trkpt>
      <trkpt lat="48.04791" lon="-3.66342">
        <ele>161.3</ele>
        <time>2023-04-05T14:14:49Z</time>
      </trkpt>
      <trkpt lat="48.04786" lon="-3.66348">
        <ele>161.2</ele>
        <time>2023-04-05T14:14:50Z</time>
      </trkpt>
      <trkpt lat="48.04783" lon="-3.66354">
        <ele>161.1</ele>
        <time>2023-04-05T14:14:51Z</time>
      </trkpt>
      <trkpt lat="48.04779" lon="-3.6636">
        <ele>161</ele>
        <time>2023-04-05T14:14:52Z</time>
      </trkpt>
      <trkpt lat="48.04775" lon="-3.66366">
        <ele>160.9</ele>
        <time>2023-04-05T14:14:53Z</time>
      </trkpt>
      <trkpt lat="48.0477" lon="-3.66373">
        <ele>160.8</ele>
        <time>2023-04-05T14:14:54Z</time>
      </trkpt>
      <trkpt lat="48.04767" lon="-3.6638">
        <ele>160.7</ele>
        <time>2023-04-05T14:14:55Z</time>
      </trkpt>
      <trkpt lat="48.04762" lon="-3.66386">
        <ele>160.6</ele>
        <time>2023-04-05T14:14:56Z</time>
      </trkpt>
      <trkpt lat="48.04758" lon="-3.66393">
        <ele>160.5</ele>
        <time>2023-04-05T14:14:57Z</time>
      </trkpt>
      <trkpt lat="48.04755" lon="-3.66399">
        <ele>160.4</ele>
        <time>2023-04-05T14:14:58Z</time>
      </trkpt>
      <trkpt lat="48.0475" lon="-3.66405">
        <ele>160.3</ele>
        <time>2023-04-05T14:14:59Z</time>
      </trkpt>
      <trkpt lat="48.04746" lon="-3.66411">
        <ele>160.2</ele>
        <time>2023-04-05T14:15:00Z</time>
      </trkpt>
      <trkpt lat="48.04742" lon="-3.66417">
        <ele>160.1</ele>
        <time>2023-04-05T14:15:01Z</time>
      </trkpt>
      <trkpt lat="48.04737" lon="-3.66423">
        <ele>160</ele>
        <time>2023-04-05T14:15:02Z</time>
      </trkpt>
      <trkpt lat="48.04733" lon="-3.66428">
        <ele>159.9</ele>
        <time>2023-04-05T14:15:03Z</time>
      </trkpt>
      <trkpt lat="48.04728" lon="-3.66434">
        <ele>159.7</ele>
        <time>2023-04-05T14:15:04Z</time>
      </trkpt>
      <trkpt lat="48.04724" lon="-3.6644">
        <ele>159.6</ele>
        <time>2023-04-05T14:15:05Z</time>
      </trkpt>
      <trkpt lat="48.0472" lon="-3.66446">
        <ele>159.5</ele>
        <time>2023-04-05T14:15:06Z</time>
      </trkpt>
      <trkpt lat="48.04715" lon="-3.66452">
        <ele>159.4</ele>
        <time>2023-04-05T14:15:07Z</time>
      </trkpt>
      <trkpt lat="48.04711" lon="-3.66458">
        <ele>159.3</ele>
        <time>2023-04-05T14:15:08Z</time>
      </trkpt>
      <trkpt lat="48.04707" lon="-3.66464">
        <ele>159.2</ele>
        <time>2023-04-05T14:15:09Z</time>
      </trkpt>
      <trkpt lat="48.04702" lon="-3.6647">
        <ele>159.1</ele>
        <time>2023-04-05T14:15:10Z</time>
      </trkpt>
      <trkpt lat="48.04698" lon="-3.66477">
        <ele>159</ele>
        <time>2023-04-05T14:15:11Z</time>
      </trkpt>
      <trkpt lat="48.04694" lon="-3.66484">
        <ele>158.9</ele>
        <time>2023-04-05T14:15:12Z</time>
      </trkpt>
      <trkpt lat="48.04689" lon="-3.66491">
        <ele>158.8</ele>
        <time>2023-04-05T14:15:13Z</time>
      </trkpt>
      <trkpt lat="48.04684" lon="-3.66497">
        <ele>158.6</ele>
        <time>2023-04-05T14:15:14Z</time>
      </trkpt>
      <trkpt lat="48.04679" lon="-3.66504">
        <ele>158.5</ele>
        <time>2023-04-05T14:15:15Z</time>
      </trkpt>
      <trkpt lat="48.04674" lon="-3.6651">
        <ele>158.4</ele>
        <time>2023-04-05T14:15:16Z</time>
      </trkpt>
      <trkpt lat="48.0467" lon="-3.66517">
        <ele>158.3</ele>
        <time>2023-04-05T14:15:17Z</time>
      </trkpt>
      <trkpt lat="48.04665" lon="-3.66523">
        <ele>158.2</ele>
        <time>2023-04-05T14:15:18Z</time>
      </trkpt>
      <trkpt lat="48.04661" lon="-3.6653">
        <ele>158.1</ele>
        <time>2023-04-05T14:15:19Z</time>
      </trkpt>
      <trkpt lat="48.04657" lon="-3.66537">
        <ele>158</ele>
        <time>2023-04-05T14:15:20Z</time>
      </trkpt>
      <trkpt lat="48.04652" lon="-3.66544">
        <ele>157.9</ele>
        <time>2023-04-05T14:15:21Z</time>
      </trkpt>
      <trkpt lat="48.04647" lon="-3.6655">
        <ele>157.8</ele>
        <time>2023-04-05T14:15:22Z</time>
      </trkpt>
      <trkpt lat="48.04643" lon="-3.66557">
        <ele>157.6</ele>
        <time>2023-04-05T14:15:23Z</time>
      </trkpt>
      <trkpt lat="48.04638" lon="-3.66564">
        <ele>157.5</ele>
        <time>2023-04-05T14:15:24Z</time>
      </trkpt>
      <trkpt lat="48.04634" lon="-3.6657">
        <ele>157.4</ele>
        <time>2023-04-05T14:15:25Z</time>
      </trkpt>
      <trkpt lat="48.04629" lon="-3.66577">
        <ele>157.3</ele>
        <time>2023-04-05T14:15:26Z</time>
      </trkpt>
      <trkpt lat="48.04624" lon="-3.66584">
        <ele>157.2</ele>
        <time>2023-04-05T14:15:27Z</time>
      </trkpt>
      <trkpt lat="48.0462" lon="-3.66591">
        <ele>157.1</ele>
        <time>2023-04-05T14:15:28Z</time>
      </trkpt>
      <trkpt lat="48.04615" lon="-3.66598">
        <ele>157</ele>
        <time>2023-04-05T14:15:29Z</time>
      </trkpt>
      <trkpt lat="48.04611" lon="-3.66604">
        <ele>156.9</ele>
        <time>2023-04-05T14:15:30Z</time>
      </trkpt>
      <trkpt lat="48.04606" lon="-3.66611">
        <ele>156.8</ele>
        <time>2023-04-05T14:15:31Z</time>
      </trkpt>
      <trkpt lat="48.04601" lon="-3.66617">
        <ele>156.7</ele>
        <time>2023-04-05T14:15:32Z</time>
      </trkpt>
      <trkpt lat="48.04596" lon="-3.66624">
        <ele>156.5</ele>
        <time>2023-04-05T14:15:33Z</time>
      </trkpt>
      <trkpt lat="48.04592" lon="-3.66631">
        <ele>156.4</ele>
        <time>2023-04-05T14:15:34Z</time>
      </trkpt>
      <trkpt lat="48.04587" lon="-3.66638">
        <ele>156.3</ele>
        <time>2023-04-05T14:15:35Z</time>
      </trkpt>
      <trkpt lat="48.04583" lon="-3.66646">
        <ele>156.2</ele>
        <time>2023-04-05T14:15:36Z</time>
      </trkpt>
      <trkpt lat="48.04579" lon="-3.66653">
        <ele>156.1</ele>
        <time>2023-04-05T14:15:37Z</time>
      </trkpt>
      <trkpt lat="48.04574" lon="-3.6666">
        <ele>156</ele>
        <time>2023-04-05T14:15:38Z</time>
      </trkpt>
      <trkpt lat="48.04569" lon="-3.66666">
        <ele>155.9</ele>
        <time>2023-04-05T14:15:39Z</time>
      </trkpt>
      <trkpt lat="48.04565" lon="-3.66673">
        <ele>155.9</ele>
        <time>2023-04-05T14:15:40Z</time>
      </trkpt>
      <trkpt lat="48.0456" lon="-3.6668">
        <ele>155.8</ele>
        <time>2023-04-05T14:15:41Z</time>
      </trkpt>
      <trkpt lat="48.04556" lon="-3.66686">
        <ele>155.7</ele>
        <time>2023-04-05T14:15:42Z</time>
      </trkpt>
      <trkpt lat="48.04551" lon="-3.66693">
        <ele>155.7</ele>
        <time>2023-04-05T14:15:43Z</time>
      </trkpt>
      <trkpt lat="48.04546" lon="-3.66699">
        <ele>155.7</ele>
        <time>2023-04-05T14:15:44Z</time>
      </trkpt>
      <trkpt lat="48.04542" lon="-3.66705">
        <ele>155.6</ele>
        <time>2023-04-05T14:15:45Z</time>
      </trkpt>
      <trkpt lat="48.04538" lon="-3.66712">
        <ele>155.6</ele>
        <time>2023-04-05T14:15:46Z</time>
      </trkpt>
      <trkpt lat="48.04533" lon="-3.66719">
        <ele>155.5</ele>
        <time>2023-04-05T14:15:47Z</time>
      </trkpt>
      <trkpt lat="48.04529" lon="-3.66726">
        <ele>155.5</ele>
        <time>2023-04-05T14:15:48Z</time>
      </trkpt>
      <trkpt lat="48.04525" lon="-3.66732">
        <ele>155.4</ele>
        <time>2023-04-05T14:15:49Z</time>
      </trkpt>
      <trkpt lat="48.04521" lon="-3.66738">
        <ele>155.4</ele>
        <time>2023-04-05T14:15:50Z</time>
      </trkpt>
      <trkpt lat="48.04517" lon="-3.66745">
        <ele>155.3</ele>
        <time>2023-04-05T14:15:51Z</time>
      </trkpt>
      <trkpt lat="48.04513" lon="-3.66751">
        <ele>155.3</ele>
        <time>2023-04-05T14:15:52Z</time>
      </trkpt>
      <trkpt lat="48.04508" lon="-3.66757">
        <ele>155.2</ele>
        <time>2023-04-05T14:15:53Z</time>
      </trkpt>
      <trkpt lat="48.04504" lon="-3.66764">
        <ele>155.2</ele>
        <time>2023-04-05T14:15:54Z</time>
      </trkpt>
      <trkpt lat="48.045" lon="-3.6677">
        <ele>155.2</ele>
        <time>2023-04-05T14:15:55Z</time>
      </trkpt>
      <trkpt lat="48.04495" lon="-3.66775">
        <ele>155.1</ele>
        <time>2023-04-05T14:15:56Z</time>
      </trkpt>
      <trkpt lat="48.04491" lon="-3.66781">
        <ele>155.1</ele>
        <time>2023-04-05T14:15:57Z</time>
      </trkpt>
      <trkpt lat="48.04487" lon="-3.66787">
        <ele>155.1</ele>
        <time>2023-04-05T14:15:58Z</time>
      </trkpt>
      <trkpt lat="48.04483" lon="-3.66793">
        <ele>155.1</ele>
        <time>2023-04-05T14:15:59Z</time>
      </trkpt>
      <trkpt lat="48.04478" lon="-3.66799">
        <ele>155</ele>
        <time>2023-04-05T14:16:00Z</time>
      </trkpt>
      <trkpt lat="48.04473" lon="-3.66804">
        <ele>155</ele>
        <time>2023-04-05T14:16:01Z</time>
      </trkpt>
      <trkpt lat="48.04469" lon="-3.66811">
        <ele>155</ele>
        <time>2023-04-05T14:16:02Z</time>
      </trkpt>
      <trkpt lat="48.04464" lon="-3.66817">
        <ele>154.9</ele>
        <time>2023-04-05T14:16:03Z</time>
      </trkpt>
      <trkpt lat="48.0446" lon="-3.66823">
        <ele>154.9</ele>
        <time>2023-04-05T14:16:04Z</time>
      </trkpt>
      <trkpt lat="48.04455" lon="-3.6683">
        <ele>154.9</ele>
        <time>2023-04-05T14:16:05Z</time>
      </trkpt>
      <trkpt lat="48.04451" lon="-3.66836">
        <ele>154.9</ele>
        <time>2023-04-05T14:16:06Z</time>
      </trkpt>
      <trkpt lat="48.04447" lon="-3.66841">
        <ele>154.9</ele>
        <time>2023-04-05T14:16:07Z</time>
      </trkpt>
      <trkpt lat="48.04443" lon="-3.66847">
        <ele>154.8</ele>
        <time>2023-04-05T14:16:08Z</time>
      </trkpt>
      <trkpt lat="48.04439" lon="-3.66853">
        <ele>154.8</ele>
        <time>2023-04-05T14:16:09Z</time>
      </trkpt>
      <trkpt lat="48.04436" lon="-3.6686">
        <ele>154.7</ele>
        <time>2023-04-05T14:16:10Z</time>
      </trkpt>
      <trkpt lat="48.04431" lon="-3.66866">
        <ele>154.7</ele>
        <time>2023-04-05T14:16:11Z</time>
      </trkpt>
      <trkpt lat="48.04427" lon="-3.66871">
        <ele>154.7</ele>
        <time>2023-04-05T14:16:12Z</time>
      </trkpt>
      <trkpt lat="48.04423" lon="-3.66877">
        <ele>154.6</ele>
        <time>2023-04-05T14:16:13Z</time>
      </trkpt>
      <trkpt lat="48.04419" lon="-3.66882">
        <ele>154.6</ele>
        <time>2023-04-05T14:16:14Z</time>
      </trkpt>
      <trkpt lat="48.04415" lon="-3.66888">
        <ele>154.5</ele>
        <time>2023-04-05T14:16:15Z</time>
      </trkpt>
      <trkpt lat="48.04411" lon="-3.66895">
        <ele>154.5</ele>
        <time>2023-04-05T14:16:16Z</time>
      </trkpt>
      <trkpt lat="48.04407" lon="-3.66901">
        <ele>154.5</ele>
        <time>2023-04-05T14:16:17Z</time>
      </trkpt>
      <trkpt lat="48.04404" lon="-3.66907">
        <ele>154.4</ele>
        <time>2023-04-05T14:16:18Z</time>
      </trkpt>
      <trkpt lat="48.044" lon="-3.66913">
        <ele>154.4</ele>
        <time>2023-04-05T14:16:19Z</time>
      </trkpt>
      <trkpt lat="48.04396" lon="-3.66918">
        <ele>154.4</ele>
        <time>2023-04-05T14:16:20Z</time>
      </trkpt>
      <trkpt lat="48.04392" lon="-3.66924">
        <ele>154.4</ele>
        <time>2023-04-05T14:16:21Z</time>
      </trkpt>
      <trkpt lat="48.04387" lon="-3.66929">
        <ele>154.3</ele>
        <time>2023-04-05T14:16:22Z</time>
      </trkpt>
      <trkpt lat="48.04384" lon="-3.66934">
        <ele>154.3</ele>
        <time>2023-04-05T14:16:23Z</time>
      </trkpt>
      <trkpt lat="48.0438" lon="-3.6694">
        <ele>154.3</ele>
        <time>2023-04-05T14:16:24Z</time>
      </trkpt>
      <trkpt lat="48.04376" lon="-3.66946">
        <ele>154.3</ele>
        <time>2023-04-05T14:16:25Z</time>
      </trkpt>
      <trkpt lat="48.04372" lon="-3.6695">
        <ele>154.3</ele>
        <time>2023-04-05T14:16:26Z</time>
      </trkpt>
      <trkpt lat="48.04368" lon="-3.66955">
        <ele>154.3</ele>
        <time>2023-04-05T14:16:27Z</time>
      </trkpt>
      <trkpt lat="48.04364" lon="-3.66961">
        <ele>154.2</ele>
        <time>2023-04-05T14:16:28Z</time>
      </trkpt>
      <trkpt lat="48.04361" lon="-3.66967">
        <ele>154.2</ele>
        <time>2023-04-05T14:16:29Z</time>
      </trkpt>
      <trkpt lat="48.04358" lon="-3.66973">
        <ele>154.2</ele>
        <time>2023-04-05T14:16:30Z</time>
      </trkpt>
      <trkpt lat="48.04354" lon="-3.66978">
        <ele>154.2</ele>
        <time>2023-04-05T14:16:31Z</time>
      </trkpt>
      <trkpt lat="48.0435" lon="-3.66984">
        <ele>154.2</ele>
        <time>2023-04-05T14:16:32Z</time>
      </trkpt>
      <trkpt lat="48.04346" lon="-3.6699">
        <ele>154.1</ele>
        <time>2023-04-05T14:16:33Z</time>
      </trkpt>
      <trkpt lat="48.04341" lon="-3.66996">
        <ele>154.1</ele>
        <time>2023-04-05T14:16:34Z</time>
      </trkpt>
      <trkpt lat="48.04337" lon="-3.67002">
        <ele>154.1</ele>
        <time>2023-04-05T14:16:35Z</time>
      </trkpt>
      <trkpt lat="48.04333" lon="-3.67007">
        <ele>154.1</ele>
        <time>2023-04-05T14:16:36Z</time>
      </trkpt>
      <trkpt lat="48.04328" lon="-3.67013">
        <ele>154</ele>
        <time>2023-04-05T14:16:37Z</time>
      </trkpt>
      <trkpt lat="48.04324" lon="-3.67019">
        <ele>154</ele>
        <time>2023-04-05T14:16:38Z</time>
      </trkpt>
      <trkpt lat="48.0432" lon="-3.67025">
        <ele>154</ele>
        <time>2023-04-05T14:16:39Z</time>
      </trkpt>
      <trkpt lat="48.04315" lon="-3.67031">
        <ele>154</ele>
        <time>2023-04-05T14:16:40Z</time>
      </trkpt>
      <trkpt lat="48.04311" lon="-3.67036">
        <ele>154</ele>
        <time>2023-04-05T14:16:41Z</time>
      </trkpt>
      <trkpt lat="48.04307" lon="-3.67042">
        <ele>154</ele>
        <time>2023-04-05T14:16:42Z</time>
      </trkpt>
      <trkpt lat="48.04303" lon="-3.67048">
        <ele>154</ele>
        <time>2023-04-05T14:16:43Z</time>
      </trkpt>
      <trkpt lat="48.04299" lon="-3.67053">
        <ele>153.9</ele>
        <time>2023-04-05T14:16:44Z</time>
      </trkpt>
      <trkpt lat="48.04295" lon="-3.67059">
        <ele>153.9</ele>
        <time>2023-04-05T14:16:45Z</time>
      </trkpt>
      <trkpt lat="48.04291" lon="-3.67064">
        <ele>153.9</ele>
        <time>2023-04-05T14:16:46Z</time>
      </trkpt>
      <trkpt lat="48.04287" lon="-3.67069">
        <ele>153.9</ele>
        <time>2023-04-05T14:16:47Z</time>
      </trkpt>
      <trkpt lat="48.04283" lon="-3.67074">
        <ele>153.9</ele>
        <time>2023-04-05T14:16:48Z</time>
      </trkpt>
      <trkpt lat="48.04279" lon="-3.6708">
        <ele>153.9</ele>
        <time>2023-04-05T14:16:49Z</time>
      </trkpt>
      <trkpt lat="48.04275" lon="-3.67087">
        <ele>153.9</ele>
        <time>2023-04-05T14:16:50Z</time>
      </trkpt>
      <trkpt lat="48.04272" lon="-3.67093">
        <ele>153.9</ele>
        <time>2023-04-05T14:16:51Z</time>
      </trkpt>
      <trkpt lat="48.04268" lon="-3.67099">
        <ele>153.9</ele>
        <time>2023-04-05T14:16:52Z</time>
      </trkpt>
      <trkpt lat="48.04264" lon="-3.67104">
        <ele>154</ele>
        <time>2023-04-05T14:16:53Z</time>
      </trkpt>
      <trkpt lat="48.0426" lon="-3.67109">
        <ele>154</ele>
        <time>2023-04-05T14:16:54Z</time>
      </trkpt>
      <trkpt lat="48.04256" lon="-3.67113">
        <ele>154</ele>
        <time>2023-04-05T14:16:55Z</time>
      </trkpt>
      <trkpt lat="48.04253" lon="-3.67118">
        <ele>154.1</ele>
        <time>2023-04-05T14:16:56Z</time>
      </trkpt>
      <trkpt lat="48.04249" lon="-3.67123">
        <ele>154.2</ele>
        <time>2023-04-05T14:16:57Z</time>
      </trkpt>
      <trkpt lat="48.04245" lon="-3.67128">
        <ele>154.2</ele>
        <time>2023-04-05T14:16:58Z</time>
      </trkpt>
      <trkpt lat="48.04242" lon="-3.67134">
        <ele>154.3</ele>
        <time>2023-04-05T14:16:59Z</time>
      </trkpt>
      <trkpt lat="48.04239" lon="-3.6714">
        <ele>154.4</ele>
        <time>2023-04-05T14:17:00Z</time>
      </trkpt>
      <trkpt lat="48.04235" lon="-3.67145">
        <ele>154.4</ele>
        <time>2023-04-05T14:17:01Z</time>
      </trkpt>
      <trkpt lat="48.04231" lon="-3.6715">
        <ele>154.5</ele>
        <time>2023-04-05T14:17:02Z</time>
      </trkpt>
      <trkpt lat="48.04228" lon="-3.67155">
        <ele>154.6</ele>
        <time>2023-04-05T14:17:03Z</time>
      </trkpt>
      <trkpt lat="48.04224" lon="-3.6716">
        <ele>154.6</ele>
        <time>2023-04-05T14:17:04Z</time>
      </trkpt>
      <trkpt lat="48.04221" lon="-3.67166">
        <ele>154.7</ele>
        <time>2023-04-05T14:17:05Z</time>
      </trkpt>
      <trkpt lat="48.04217" lon="-3.6717">
        <ele>154.8</ele>
        <time>2023-04-05T14:17:06Z</time>
      </trkpt>
      <trkpt lat="48.04214" lon="-3.67176">
        <ele>154.8</ele>
        <time>2023-04-05T14:17:07Z</time>
      </trkpt>
      <trkpt lat="48.04212" lon="-3.67181">
        <ele>154.9</ele>
        <time>2023-04-05T14:17:08Z</time>
      </trkpt>
      <trkpt lat="48.04209" lon="-3.67185">
        <ele>155</ele>
        <time>2023-04-05T14:17:09Z</time>
      </trkpt>
      <trkpt lat="48.04206" lon="-3.67189">
        <ele>155</ele>
        <time>2023-04-05T14:17:10Z</time>
      </trkpt>
      <trkpt lat="48.04202" lon="-3.67195">
        <ele>155.1</ele>
        <time>2023-04-05T14:17:11Z</time>
      </trkpt>
      <trkpt lat="48.04199" lon="-3.672">
        <ele>155.2</ele>
        <time>2023-04-05T14:17:12Z</time>
      </trkpt>
      <trkpt lat="48.04197" lon="-3.67204">
        <ele>155.2</ele>
        <time>2023-04-05T14:17:13Z</time>
      </trkpt>
      <trkpt lat="48.04195" lon="-3.67206">
        <ele>155.3</ele>
        <time>2023-04-05T14:17:14Z</time>
      </trkpt>
      <trkpt lat="48.0419" lon="-3.67215">
        <ele>155.4</ele>
        <time>2023-04-05T14:17:15Z</time>
      </trkpt>
      <trkpt lat="48.04187" lon="-3.6722">
        <ele>155.4</ele>
        <time>2023-04-05T14:17:16Z</time>
      </trkpt>
      <trkpt lat="48.04184" lon="-3.67225">
        <ele>155.5</ele>
        <time>2023-04-05T14:17:17Z</time>
      </trkpt>
      <trkpt lat="48.04181" lon="-3.67228">
        <ele>155.5</ele>
        <time>2023-04-05T14:17:18Z</time>
      </trkpt>
      <trkpt lat="48.04177" lon="-3.67234">
        <ele>155.6</ele>
        <time>2023-04-05T14:17:19Z</time>
      </trkpt>
      <trkpt lat="48.04173" lon="-3.67239">
        <ele>155.7</ele>
        <time>2023-04-05T14:17:20Z</time>
      </trkpt>
      <trkpt lat="48.04169" lon="-3.67244">
        <ele>155.7</ele>
        <time>2023-04-05T14:17:21Z</time>
      </trkpt>
      <trkpt lat="48.04166" lon="-3.67249">
        <ele>155.8</ele>
        <time>2023-04-05T14:17:22Z</time>
      </trkpt>
      <trkpt lat="48.04163" lon="-3.67255">
        <ele>155.9</ele>
        <time>2023-04-05T14:17:23Z</time>
      </trkpt>
      <trkpt lat="48.04159" lon="-3.6726">
        <ele>155.9</ele>
        <time>2023-04-05T14:17:24Z</time>
      </trkpt>
      <trkpt lat="48.04155" lon="-3.67264">
        <ele>156</ele>
        <time>2023-04-05T14:17:25Z</time>
      </trkpt>
      <trkpt lat="48.04152" lon="-3.67269">
        <ele>156</ele>
        <time>2023-04-05T14:17:26Z</time>
      </trkpt>
      <trkpt lat="48.04148" lon="-3.67275">
        <ele>156.1</ele>
        <time>2023-04-05T14:17:27Z</time>
      </trkpt>
      <trkpt lat="48.04145" lon="-3.6728">
        <ele>156.1</ele>
        <time>2023-04-05T14:17:28Z</time>
      </trkpt>
      <trkpt lat="48.04141" lon="-3.67286">
        <ele>156.2</ele>
        <time>2023-04-05T14:17:29Z</time>
      </trkpt>
      <trkpt lat="48.04138" lon="-3.6729">
        <ele>156.3</ele>
        <time>2023-04-05T14:17:30Z</time>
      </trkpt>
      <trkpt lat="48.04135" lon="-3.67294">
        <ele>156.3</ele>
        <time>2023-04-05T14:17:31Z</time>
      </trkpt>
      <trkpt lat="48.04131" lon="-3.67299">
        <ele>156.4</ele>
        <time>2023-04-05T14:17:32Z</time>
      </trkpt>
      <trkpt lat="48.04127" lon="-3.67304">
        <ele>156.5</ele>
        <time>2023-04-05T14:17:33Z</time>
      </trkpt>
      <trkpt lat="48.04123" lon="-3.6731">
        <ele>156.6</ele>
        <time>2023-04-05T14:17:34Z</time>
      </trkpt>
      <trkpt lat="48.0412" lon="-3.67316">
        <ele>156.6</ele>
        <time>2023-04-05T14:17:35Z</time>
      </trkpt>
      <trkpt lat="48.04117" lon="-3.67321">
        <ele>156.7</ele>
        <time>2023-04-05T14:17:36Z</time>
      </trkpt>
      <trkpt lat="48.04114" lon="-3.67325">
        <ele>156.8</ele>
        <time>2023-04-05T14:17:37Z</time>
      </trkpt>
      <trkpt lat="48.0411" lon="-3.67331">
        <ele>156.8</ele>
        <time>2023-04-05T14:17:38Z</time>
      </trkpt>
      <trkpt lat="48.04106" lon="-3.67336">
        <ele>156.9</ele>
        <time>2023-04-05T14:17:39Z</time>
      </trkpt>
      <trkpt lat="48.04104" lon="-3.67338">
        <ele>156.9</ele>
        <time>2023-04-05T14:17:40Z</time>
      </trkpt>
      <trkpt lat="48.04098" lon="-3.67347">
        <ele>157</ele>
        <time>2023-04-05T14:17:42Z</time>
      </trkpt>
      <trkpt lat="48.04095" lon="-3.67352">
        <ele>157.1</ele>
        <time>2023-04-05T14:17:43Z</time>
      </trkpt>
      <trkpt lat="48.04092" lon="-3.67357">
        <ele>157.1</ele>
        <time>2023-04-05T14:17:44Z</time>
      </trkpt>
      <trkpt lat="48.04088" lon="-3.67362">
        <ele>157.2</ele>
        <time>2023-04-05T14:17:45Z</time>
      </trkpt>
      <trkpt lat="48.04085" lon="-3.67368">
        <ele>157.3</ele>
        <time>2023-04-05T14:17:46Z</time>
      </trkpt>
      <trkpt lat="48.04082" lon="-3.67373">
        <ele>157.4</ele>
        <time>2023-04-05T14:17:47Z</time>
      </trkpt>
      <trkpt lat="48.04078" lon="-3.67377">
        <ele>157.4</ele>
        <time>2023-04-05T14:17:48Z</time>
      </trkpt>
      <trkpt lat="48.04075" lon="-3.67382">
        <ele>157.5</ele>
        <time>2023-04-05T14:17:49Z</time>
      </trkpt>
      <trkpt lat="48.04072" lon="-3.67387">
        <ele>157.6</ele>
        <time>2023-04-05T14:17:50Z</time>
      </trkpt>
      <trkpt lat="48.04067" lon="-3.67394">
        <ele>157.6</ele>
        <time>2023-04-05T14:17:52Z</time>
      </trkpt>
      <trkpt lat="48.04061" lon="-3.67402">
        <ele>157.8</ele>
        <time>2023-04-05T14:17:53Z</time>
      </trkpt>
      <trkpt lat="48.04056" lon="-3.67407">
        <ele>157.8</ele>
        <time>2023-04-05T14:17:54Z</time>
      </trkpt>
      <trkpt lat="48.04053" lon="-3.67413">
        <ele>157.9</ele>
        <time>2023-04-05T14:17:55Z</time>
      </trkpt>
      <trkpt lat="48.04049" lon="-3.67418">
        <ele>157.9</ele>
        <time>2023-04-05T14:17:56Z</time>
      </trkpt>
      <trkpt lat="48.04046" lon="-3.67423">
        <ele>158</ele>
        <time>2023-04-05T14:17:57Z</time>
      </trkpt>
      <trkpt lat="48.04042" lon="-3.67429">
        <ele>158</ele>
        <time>2023-04-05T14:17:58Z</time>
      </trkpt>
      <trkpt lat="48.04038" lon="-3.67435">
        <ele>158.1</ele>
        <time>2023-04-05T14:17:59Z</time>
      </trkpt>
      <trkpt lat="48.04035" lon="-3.67439">
        <ele>158.1</ele>
        <time>2023-04-05T14:18:00Z</time>
      </trkpt>
      <trkpt lat="48.04032" lon="-3.67444">
        <ele>158.2</ele>
        <time>2023-04-05T14:18:01Z</time>
      </trkpt>
      <trkpt lat="48.04028" lon="-3.67449">
        <ele>158.3</ele>
        <time>2023-04-05T14:18:02Z</time>
      </trkpt>
      <trkpt lat="48.04024" lon="-3.67454">
        <ele>158.3</ele>
        <time>2023-04-05T14:18:03Z</time>
      </trkpt>
      <trkpt lat="48.04021" lon="-3.67459">
        <ele>158.4</ele>
        <time>2023-04-05T14:18:04Z</time>
      </trkpt>
      <trkpt lat="48.04017" lon="-3.67464">
        <ele>158.5</ele>
        <time>2023-04-05T14:18:05Z</time>
      </trkpt>
      <trkpt lat="48.04013" lon="-3.67468">
        <ele>158.5</ele>
        <time>2023-04-05T14:18:06Z</time>
      </trkpt>
      <trkpt lat="48.0401" lon="-3.67473">
        <ele>158.6</ele>
        <time>2023-04-05T14:18:07Z</time>
      </trkpt>
      <trkpt lat="48.04006" lon="-3.67478">
        <ele>158.7</ele>
        <time>2023-04-05T14:18:08Z</time>
      </trkpt>
      <trkpt lat="48.04002" lon="-3.67483">
        <ele>158.8</ele>
        <time>2023-04-05T14:18:09Z</time>
      </trkpt>
      <trkpt lat="48.03999" lon="-3.67489">
        <ele>158.9</ele>
        <time>2023-04-05T14:18:10Z</time>
      </trkpt>
      <trkpt lat="48.03997" lon="-3.67493">
        <ele>158.9</ele>
        <time>2023-04-05T14:18:11Z</time>
      </trkpt>
      <trkpt lat="48.03993" lon="-3.67498">
        <ele>159</ele>
        <time>2023-04-05T14:18:12Z</time>
      </trkpt>
      <trkpt lat="48.03988" lon="-3.67504">
        <ele>159.2</ele>
        <time>2023-04-05T14:18:13Z</time>
      </trkpt>
      <trkpt lat="48.03986" lon="-3.67509">
        <ele>159.2</ele>
        <time>2023-04-05T14:18:14Z</time>
      </trkpt>
      <trkpt lat="48.03983" lon="-3.67514">
        <ele>159.3</ele>
        <time>2023-04-05T14:18:15Z</time>
      </trkpt>
      <trkpt lat="48.0398" lon="-3.67518">
        <ele>159.4</ele>
        <time>2023-04-05T14:18:16Z</time>
      </trkpt>
      <trkpt lat="48.03977" lon="-3.67522">
        <ele>159.4</ele>
        <time>2023-04-05T14:18:17Z</time>
      </trkpt>
      <trkpt lat="48.03973" lon="-3.67528">
        <ele>159.5</ele>
        <time>2023-04-05T14:18:18Z</time>
      </trkpt>
      <trkpt lat="48.0397" lon="-3.67533">
        <ele>159.6</ele>
        <time>2023-04-05T14:18:19Z</time>
      </trkpt>
      <trkpt lat="48.03966" lon="-3.67538">
        <ele>159.6</ele>
        <time>2023-04-05T14:18:20Z</time>
      </trkpt>
      <trkpt lat="48.03963" lon="-3.67543">
        <ele>159.6</ele>
        <time>2023-04-05T14:18:21Z</time>
      </trkpt>
      <trkpt lat="48.0396" lon="-3.67548">
        <ele>159.7</ele>
        <time>2023-04-05T14:18:22Z</time>
      </trkpt>
      <trkpt lat="48.03956" lon="-3.67552">
        <ele>159.7</ele>
        <time>2023-04-05T14:18:23Z</time>
      </trkpt>
      <trkpt lat="48.03952" lon="-3.67556">
        <ele>159.8</ele>
        <time>2023-04-05T14:18:24Z</time>
      </trkpt>
      <trkpt lat="48.03949" lon="-3.67561">
        <ele>159.8</ele>
        <time>2023-04-05T14:18:25Z</time>
      </trkpt>
      <trkpt lat="48.03945" lon="-3.67565">
        <ele>159.9</ele>
        <time>2023-04-05T14:18:26Z</time>
      </trkpt>
      <trkpt lat="48.03941" lon="-3.6757">
        <ele>159.9</ele>
        <time>2023-04-05T14:18:27Z</time>
      </trkpt>
      <trkpt lat="48.03937" lon="-3.67575">
        <ele>160</ele>
        <time>2023-04-05T14:18:28Z</time>
      </trkpt>
      <trkpt lat="48.03934" lon="-3.6758">
        <ele>160</ele>
        <time>2023-04-05T14:18:29Z</time>
      </trkpt>
      <trkpt lat="48.0393" lon="-3.67585">
        <ele>160.1</ele>
        <time>2023-04-05T14:18:30Z</time>
      </trkpt>
      <trkpt lat="48.03927" lon="-3.6759">
        <ele>160.1</ele>
        <time>2023-04-05T14:18:31Z</time>
      </trkpt>
      <trkpt lat="48.03923" lon="-3.67596">
        <ele>160.2</ele>
        <time>2023-04-05T14:18:32Z</time>
      </trkpt>
      <trkpt lat="48.0392" lon="-3.67601">
        <ele>160.2</ele>
        <time>2023-04-05T14:18:33Z</time>
      </trkpt>
      <trkpt lat="48.03916" lon="-3.67607">
        <ele>160.3</ele>
        <time>2023-04-05T14:18:34Z</time>
      </trkpt>
      <trkpt lat="48.03913" lon="-3.67612">
        <ele>160.3</ele>
        <time>2023-04-05T14:18:35Z</time>
      </trkpt>
      <trkpt lat="48.03909" lon="-3.67618">
        <ele>160.4</ele>
        <time>2023-04-05T14:18:36Z</time>
      </trkpt>
      <trkpt lat="48.03905" lon="-3.67624">
        <ele>160.5</ele>
        <time>2023-04-05T14:18:37Z</time>
      </trkpt>
      <trkpt lat="48.03902" lon="-3.67629">
        <ele>160.5</ele>
        <time>2023-04-05T14:18:38Z</time>
      </trkpt>
      <trkpt lat="48.03899" lon="-3.67633">
        <ele>160.6</ele>
        <time>2023-04-05T14:18:39Z</time>
      </trkpt>
      <trkpt lat="48.03895" lon="-3.67638">
        <ele>160.7</ele>
        <time>2023-04-05T14:18:40Z</time>
      </trkpt>
      <trkpt lat="48.03892" lon="-3.67643">
        <ele>160.8</ele>
        <time>2023-04-05T14:18:41Z</time>
      </trkpt>
      <trkpt lat="48.03889" lon="-3.67647">
        <ele>160.8</ele>
        <time>2023-04-05T14:18:42Z</time>
      </trkpt>
      <trkpt lat="48.03887" lon="-3.67651">
        <ele>160.9</ele>
        <time>2023-04-05T14:18:43Z</time>
      </trkpt>
      <trkpt lat="48.03883" lon="-3.67657">
        <ele>161</ele>
        <time>2023-04-05T14:18:44Z</time>
      </trkpt>
      <trkpt lat="48.03881" lon="-3.67662">
        <ele>161</ele>
        <time>2023-04-05T14:18:45Z</time>
      </trkpt>
      <trkpt lat="48.03877" lon="-3.67667">
        <ele>161.1</ele>
        <time>2023-04-05T14:18:46Z</time>
      </trkpt>
      <trkpt lat="48.03873" lon="-3.67673">
        <ele>161.2</ele>
        <time>2023-04-05T14:18:47Z</time>
      </trkpt>
      <trkpt lat="48.0387" lon="-3.67677">
        <ele>161.3</ele>
        <time>2023-04-05T14:18:48Z</time>
      </trkpt>
      <trkpt lat="48.03866" lon="-3.67683">
        <ele>161.3</ele>
        <time>2023-04-05T14:18:49Z</time>
      </trkpt>
      <trkpt lat="48.03863" lon="-3.67688">
        <ele>161.4</ele>
        <time>2023-04-05T14:18:50Z</time>
      </trkpt>
      <trkpt lat="48.0386" lon="-3.67692">
        <ele>161.4</ele>
        <time>2023-04-05T14:18:51Z</time>
      </trkpt>
      <trkpt lat="48.03855" lon="-3.67698">
        <ele>161.5</ele>
        <time>2023-04-05T14:18:52Z</time>
      </trkpt>
      <trkpt lat="48.03852" lon="-3.67705">
        <ele>161.6</ele>
        <time>2023-04-05T14:18:53Z</time>
      </trkpt>
      <trkpt lat="48.03848" lon="-3.67709">
        <ele>161.6</ele>
        <time>2023-04-05T14:18:54Z</time>
      </trkpt>
      <trkpt lat="48.03844" lon="-3.67714">
        <ele>161.7</ele>
        <time>2023-04-05T14:18:55Z</time>
      </trkpt>
      <trkpt lat="48.0384" lon="-3.67719">
        <ele>161.7</ele>
        <time>2023-04-05T14:18:56Z</time>
      </trkpt>
      <trkpt lat="48.03837" lon="-3.67724">
        <ele>161.8</ele>
        <time>2023-04-05T14:18:57Z</time>
      </trkpt>
      <trkpt lat="48.03834" lon="-3.67726">
        <ele>161.8</ele>
        <time>2023-04-05T14:18:58Z</time>
      </trkpt>
      <trkpt lat="48.0383" lon="-3.67733">
        <ele>161.9</ele>
        <time>2023-04-05T14:18:59Z</time>
      </trkpt>
      <trkpt lat="48.03824" lon="-3.67742">
        <ele>162</ele>
        <time>2023-04-05T14:19:01Z</time>
      </trkpt>
      <trkpt lat="48.03821" lon="-3.67746">
        <ele>162</ele>
        <time>2023-04-05T14:19:02Z</time>
      </trkpt>
      <trkpt lat="48.03817" lon="-3.67752">
        <ele>162.1</ele>
        <time>2023-04-05T14:19:03Z</time>
      </trkpt>
      <trkpt lat="48.03814" lon="-3.67757">
        <ele>162.1</ele>
        <time>2023-04-05T14:19:04Z</time>
      </trkpt>
      <trkpt lat="48.03811" lon="-3.67761">
        <ele>162.2</ele>
        <time>2023-04-05T14:19:05Z</time>
      </trkpt>
      <trkpt lat="48.03807" lon="-3.67766">
        <ele>162.2</ele>
        <time>2023-04-05T14:19:06Z</time>
      </trkpt>
      <trkpt lat="48.03805" lon="-3.67771">
        <ele>162.2</ele>
        <time>2023-04-05T14:19:07Z</time>
      </trkpt>
      <trkpt lat="48.03801" lon="-3.67777">
        <ele>162.3</ele>
        <time>2023-04-05T14:19:08Z</time>
      </trkpt>
      <trkpt lat="48.03798" lon="-3.67782">
        <ele>162.3</ele>
        <time>2023-04-05T14:19:09Z</time>
      </trkpt>
      <trkpt lat="48.03795" lon="-3.67787">
        <ele>162.3</ele>
        <time>2023-04-05T14:19:10Z</time>
      </trkpt>
      <trkpt lat="48.03792" lon="-3.67789">
        <ele>162.4</ele>
        <time>2023-04-05T14:19:11Z</time>
      </trkpt>
      <trkpt lat="48.03788" lon="-3.67797">
        <ele>162.4</ele>
        <time>2023-04-05T14:19:12Z</time>
      </trkpt>
      <trkpt lat="48.03783" lon="-3.67803">
        <ele>162.5</ele>
        <time>2023-04-05T14:19:14Z</time>
      </trkpt>
      <trkpt lat="48.03779" lon="-3.6781">
        <ele>162.5</ele>
        <time>2023-04-05T14:19:15Z</time>
      </trkpt>
      <trkpt lat="48.03775" lon="-3.67815">
        <ele>162.5</ele>
        <time>2023-04-05T14:19:16Z</time>
      </trkpt>
      <trkpt lat="48.03772" lon="-3.67821">
        <ele>162.5</ele>
        <time>2023-04-05T14:19:17Z</time>
      </trkpt>
      <trkpt lat="48.03768" lon="-3.67826">
        <ele>162.5</ele>
        <time>2023-04-05T14:19:18Z</time>
      </trkpt>
      <trkpt lat="48.03764" lon="-3.67831">
        <ele>162.6</ele>
        <time>2023-04-05T14:19:19Z</time>
      </trkpt>
      <trkpt lat="48.03761" lon="-3.67837">
        <ele>162.6</ele>
        <time>2023-04-05T14:19:20Z</time>
      </trkpt>
      <trkpt lat="48.03757" lon="-3.67843">
        <ele>162.6</ele>
        <time>2023-04-05T14:19:21Z</time>
      </trkpt>
      <trkpt lat="48.03753" lon="-3.67848">
        <ele>162.6</ele>
        <time>2023-04-05T14:19:22Z</time>
      </trkpt>
      <trkpt lat="48.03749" lon="-3.67853">
        <ele>162.6</ele>
        <time>2023-04-05T14:19:23Z</time>
      </trkpt>
      <trkpt lat="48.03745" lon="-3.67858">
        <ele>162.6</ele>
        <time>2023-04-05T14:19:24Z</time>
      </trkpt>
      <trkpt lat="48.03742" lon="-3.67862">
        <ele>162.6</ele>
        <time>2023-04-05T14:19:25Z</time>
      </trkpt>
      <trkpt lat="48.03739" lon="-3.67868">
        <ele>162.6</ele>
        <time>2023-04-05T14:19:26Z</time>
      </trkpt>
      <trkpt lat="48.03735" lon="-3.67874">
        <ele>162.6</ele>
        <time>2023-04-05T14:19:27Z</time>
      </trkpt>
      <trkpt lat="48.03731" lon="-3.67879">
        <ele>162.6</ele>
        <time>2023-04-05T14:19:28Z</time>
      </trkpt>
      <trkpt lat="48.03728" lon="-3.67884">
        <ele>162.6</ele>
        <time>2023-04-05T14:19:29Z</time>
      </trkpt>
      <trkpt lat="48.03725" lon="-3.67889">
        <ele>162.6</ele>
        <time>2023-04-05T14:19:30Z</time>
      </trkpt>
      <trkpt lat="48.03722" lon="-3.67894">
        <ele>162.6</ele>
        <time>2023-04-05T14:19:31Z</time>
      </trkpt>
      <trkpt lat="48.03718" lon="-3.67899">
        <ele>162.6</ele>
        <time>2023-04-05T14:19:32Z</time>
      </trkpt>
      <trkpt lat="48.03714" lon="-3.67904">
        <ele>162.6</ele>
        <time>2023-04-05T14:19:33Z</time>
      </trkpt>
      <trkpt lat="48.0371" lon="-3.6791">
        <ele>162.5</ele>
        <time>2023-04-05T14:19:34Z</time>
      </trkpt>
      <trkpt lat="48.03706" lon="-3.67915">
        <ele>162.5</ele>
        <time>2023-04-05T14:19:35Z</time>
      </trkpt>
      <trkpt lat="48.03702" lon="-3.67922">
        <ele>162.4</ele>
        <time>2023-04-05T14:19:36Z</time>
      </trkpt>
      <trkpt lat="48.03699" lon="-3.67927">
        <ele>162.3</ele>
        <time>2023-04-05T14:19:37Z</time>
      </trkpt>
      <trkpt lat="48.03696" lon="-3.67933">
        <ele>162.3</ele>
        <time>2023-04-05T14:19:38Z</time>
      </trkpt>
      <trkpt lat="48.03692" lon="-3.67937">
        <ele>162.2</ele>
        <time>2023-04-05T14:19:39Z</time>
      </trkpt>
      <trkpt lat="48.03687" lon="-3.67943">
        <ele>162.1</ele>
        <time>2023-04-05T14:19:40Z</time>
      </trkpt>
      <trkpt lat="48.03683" lon="-3.67948">
        <ele>162</ele>
        <time>2023-04-05T14:19:41Z</time>
      </trkpt>
      <trkpt lat="48.03679" lon="-3.67954">
        <ele>161.9</ele>
        <time>2023-04-05T14:19:42Z</time>
      </trkpt>
      <trkpt lat="48.03676" lon="-3.6796">
        <ele>161.8</ele>
        <time>2023-04-05T14:19:43Z</time>
      </trkpt>
      <trkpt lat="48.03672" lon="-3.67966">
        <ele>161.7</ele>
        <time>2023-04-05T14:19:44Z</time>
      </trkpt>
      <trkpt lat="48.03669" lon="-3.67973">
        <ele>161.6</ele>
        <time>2023-04-05T14:19:45Z</time>
      </trkpt>
      <trkpt lat="48.03665" lon="-3.67979">
        <ele>161.5</ele>
        <time>2023-04-05T14:19:46Z</time>
      </trkpt>
      <trkpt lat="48.03661" lon="-3.67986">
        <ele>161.4</ele>
        <time>2023-04-05T14:19:47Z</time>
      </trkpt>
      <trkpt lat="48.03657" lon="-3.67991">
        <ele>161.3</ele>
        <time>2023-04-05T14:19:48Z</time>
      </trkpt>
      <trkpt lat="48.03652" lon="-3.67997">
        <ele>161.2</ele>
        <time>2023-04-05T14:19:49Z</time>
      </trkpt>
      <trkpt lat="48.03648" lon="-3.68004">
        <ele>161.1</ele>
        <time>2023-04-05T14:19:50Z</time>
      </trkpt>
      <trkpt lat="48.03645" lon="-3.68009">
        <ele>161</ele>
        <time>2023-04-05T14:19:51Z</time>
      </trkpt>
      <trkpt lat="48.03641" lon="-3.68016">
        <ele>160.9</ele>
        <time>2023-04-05T14:19:52Z</time>
      </trkpt>
      <trkpt lat="48.03635" lon="-3.68022">
        <ele>160.8</ele>
        <time>2023-04-05T14:19:53Z</time>
      </trkpt>
      <trkpt lat="48.03631" lon="-3.68028">
        <ele>160.7</ele>
        <time>2023-04-05T14:19:54Z</time>
      </trkpt>
      <trkpt lat="48.03626" lon="-3.68034">
        <ele>160.6</ele>
        <time>2023-04-05T14:19:55Z</time>
      </trkpt>
      <trkpt lat="48.03622" lon="-3.6804">
        <ele>160.5</ele>
        <time>2023-04-05T14:19:56Z</time>
      </trkpt>
      <trkpt lat="48.03618" lon="-3.68045">
        <ele>160.4</ele>
        <time>2023-04-05T14:19:57Z</time>
      </trkpt>
      <trkpt lat="48.03614" lon="-3.68052">
        <ele>160.3</ele>
        <time>2023-04-05T14:19:58Z</time>
      </trkpt>
      <trkpt lat="48.0361" lon="-3.68058">
        <ele>160.2</ele>
        <time>2023-04-05T14:19:59Z</time>
      </trkpt>
      <trkpt lat="48.03606" lon="-3.68064">
        <ele>160.2</ele>
        <time>2023-04-05T14:20:00Z</time>
      </trkpt>
      <trkpt lat="48.03602" lon="-3.68071">
        <ele>160.1</ele>
        <time>2023-04-05T14:20:01Z</time>
      </trkpt>
      <trkpt lat="48.03597" lon="-3.68078">
        <ele>160</ele>
        <time>2023-04-05T14:20:02Z</time>
      </trkpt>
      <trkpt lat="48.03593" lon="-3.68084">
        <ele>159.9</ele>
        <time>2023-04-05T14:20:03Z</time>
      </trkpt>
      <trkpt lat="48.03588" lon="-3.68089">
        <ele>159.9</ele>
        <time>2023-04-05T14:20:04Z</time>
      </trkpt>
      <trkpt lat="48.03584" lon="-3.68094">
        <ele>159.8</ele>
        <time>2023-04-05T14:20:05Z</time>
      </trkpt>
      <trkpt lat="48.03579" lon="-3.681">
        <ele>159.8</ele>
        <time>2023-04-05T14:20:06Z</time>
      </trkpt>
      <trkpt lat="48.03576" lon="-3.68105">
        <ele>159.7</ele>
        <time>2023-04-05T14:20:07Z</time>
      </trkpt>
      <trkpt lat="48.03573" lon="-3.68109">
        <ele>159.7</ele>
        <time>2023-04-05T14:20:08Z</time>
      </trkpt>
      <trkpt lat="48.03568" lon="-3.68111">
        <ele>159.6</ele>
        <time>2023-04-05T14:20:09Z</time>
      </trkpt>
      <trkpt lat="48.03566" lon="-3.68113">
        <ele>159.5</ele>
        <time>2023-04-05T14:20:10Z</time>
      </trkpt>
      <trkpt lat="48.03563" lon="-3.68115">
        <ele>159.5</ele>
        <time>2023-04-05T14:20:11Z</time>
      </trkpt>
      <trkpt lat="48.03559" lon="-3.68117">
        <ele>159.3</ele>
        <time>2023-04-05T14:20:12Z</time>
      </trkpt>
      <trkpt lat="48.03555" lon="-3.68118">
        <ele>159.2</ele>
        <time>2023-04-05T14:20:13Z</time>
      </trkpt>
      <trkpt lat="48.03552" lon="-3.68119">
        <ele>159.1</ele>
        <time>2023-04-05T14:20:14Z</time>
      </trkpt>
      <trkpt lat="48.03546" lon="-3.68122">
        <ele>158.9</ele>
        <time>2023-04-05T14:20:15Z</time>
      </trkpt>
      <trkpt lat="48.03546" lon="-3.68125">
        <ele>158.9</ele>
        <time>2023-04-05T14:20:16Z</time>
      </trkpt>
      <trkpt lat="48.03545" lon="-3.68135">
        <ele>158.5</ele>
        <time>2023-04-05T14:20:18Z</time>
      </trkpt>
      <trkpt lat="48.03545" lon="-3.68141">
        <ele>158.3</ele>
        <time>2023-04-05T14:20:19Z</time>
      </trkpt>
      <trkpt lat="48.03545" lon="-3.68146">
        <ele>158.3</ele>
        <time>2023-04-05T14:20:20Z</time>
      </trkpt>
      <trkpt lat="48.03541" lon="-3.68149">
        <ele>158.4</ele>
        <time>2023-04-05T14:20:21Z</time>
      </trkpt>
      <trkpt lat="48.03539" lon="-3.6815">
        <ele>158.4</ele>
        <time>2023-04-05T14:20:23Z</time>
      </trkpt>
      <trkpt lat="48.03534" lon="-3.68159">
        <ele>158.5</ele>
        <time>2023-04-05T14:20:24Z</time>
      </trkpt>
      <trkpt lat="48.0353" lon="-3.68163">
        <ele>158.6</ele>
        <time>2023-04-05T14:20:26Z</time>
      </trkpt>
      <trkpt lat="48.03527" lon="-3.68167">
        <ele>158.5</ele>
        <time>2023-04-05T14:20:27Z</time>
      </trkpt>
      <trkpt lat="48.03523" lon="-3.68174">
        <ele>158.4</ele>
        <time>2023-04-05T14:20:28Z</time>
      </trkpt>
      <trkpt lat="48.03516" lon="-3.68181">
        <ele>158.3</ele>
        <time>2023-04-05T14:20:29Z</time>
      </trkpt>
      <trkpt lat="48.03512" lon="-3.68186">
        <ele>158.2</ele>
        <time>2023-04-05T14:20:31Z</time>
      </trkpt>
      <trkpt lat="48.03509" lon="-3.6819">
        <ele>158.2</ele>
        <time>2023-04-05T14:20:32Z</time>
      </trkpt>
      <trkpt lat="48.03505" lon="-3.68195">
        <ele>158.1</ele>
        <time>2023-04-05T14:20:33Z</time>
      </trkpt>
      <trkpt lat="48.03501" lon="-3.68201">
        <ele>158.1</ele>
        <time>2023-04-05T14:20:34Z</time>
      </trkpt>
      <trkpt lat="48.03497" lon="-3.68206">
        <ele>158</ele>
        <time>2023-04-05T14:20:35Z</time>
      </trkpt>
      <trkpt lat="48.03494" lon="-3.68211">
        <ele>158</ele>
        <time>2023-04-05T14:20:36Z</time>
      </trkpt>
      <trkpt lat="48.0349" lon="-3.68216">
        <ele>157.9</ele>
        <time>2023-04-05T14:20:37Z</time>
      </trkpt>
      <trkpt lat="48.03486" lon="-3.68221">
        <ele>157.9</ele>
        <time>2023-04-05T14:20:38Z</time>
      </trkpt>
      <trkpt lat="48.03481" lon="-3.68227">
        <ele>157.8</ele>
        <time>2023-04-05T14:20:39Z</time>
      </trkpt>
      <trkpt lat="48.03477" lon="-3.68233">
        <ele>157.8</ele>
        <time>2023-04-05T14:20:40Z</time>
      </trkpt>
      <trkpt lat="48.03473" lon="-3.68238">
        <ele>157.7</ele>
        <time>2023-04-05T14:20:41Z</time>
      </trkpt>
      <trkpt lat="48.03469" lon="-3.68243">
        <ele>157.7</ele>
        <time>2023-04-05T14:20:42Z</time>
      </trkpt>
      <trkpt lat="48.03465" lon="-3.68248">
        <ele>157.7</ele>
        <time>2023-04-05T14:20:43Z</time>
      </trkpt>
      <trkpt lat="48.03461" lon="-3.68254">
        <ele>157.6</ele>
        <time>2023-04-05T14:20:44Z</time>
      </trkpt>
      <trkpt lat="48.03458" lon="-3.68259">
        <ele>157.6</ele>
        <time>2023-04-05T14:20:45Z</time>
      </trkpt>
      <trkpt lat="48.03454" lon="-3.68264">
        <ele>157.6</ele>
        <time>2023-04-05T14:20:46Z</time>
      </trkpt>
      <trkpt lat="48.0345" lon="-3.68269">
        <ele>157.6</ele>
        <time>2023-04-05T14:20:47Z</time>
      </trkpt>
      <trkpt lat="48.03445" lon="-3.68274">
        <ele>157.6</ele>
        <time>2023-04-05T14:20:48Z</time>
      </trkpt>
      <trkpt lat="48.03441" lon="-3.6828">
        <ele>157.6</ele>
        <time>2023-04-05T14:20:49Z</time>
      </trkpt>
      <trkpt lat="48.03437" lon="-3.68285">
        <ele>157.6</ele>
        <time>2023-04-05T14:20:50Z</time>
      </trkpt>
      <trkpt lat="48.03433" lon="-3.6829">
        <ele>157.6</ele>
        <time>2023-04-05T14:20:51Z</time>
      </trkpt>
      <trkpt lat="48.03429" lon="-3.68295">
        <ele>157.6</ele>
        <time>2023-04-05T14:20:52Z</time>
      </trkpt>
      <trkpt lat="48.03425" lon="-3.683">
        <ele>157.6</ele>
        <time>2023-04-05T14:20:53Z</time>
      </trkpt>
      <trkpt lat="48.03421" lon="-3.68305">
        <ele>157.6</ele>
        <time>2023-04-05T14:20:54Z</time>
      </trkpt>
      <trkpt lat="48.03417" lon="-3.6831">
        <ele>157.6</ele>
        <time>2023-04-05T14:20:55Z</time>
      </trkpt>
      <trkpt lat="48.03413" lon="-3.68315">
        <ele>157.6</ele>
        <time>2023-04-05T14:20:56Z</time>
      </trkpt>
      <trkpt lat="48.03409" lon="-3.68321">
        <ele>157.6</ele>
        <time>2023-04-05T14:20:57Z</time>
      </trkpt>
      <trkpt lat="48.03405" lon="-3.68326">
        <ele>157.6</ele>
        <time>2023-04-05T14:20:58Z</time>
      </trkpt>
      <trkpt lat="48.03402" lon="-3.68331">
        <ele>157.6</ele>
        <time>2023-04-05T14:20:59Z</time>
      </trkpt>
      <trkpt lat="48.03399" lon="-3.68336">
        <ele>157.6</ele>
        <time>2023-04-05T14:21:00Z</time>
      </trkpt>
      <trkpt lat="48.03396" lon="-3.68341">
        <ele>157.6</ele>
        <time>2023-04-05T14:21:01Z</time>
      </trkpt>
      <trkpt lat="48.03391" lon="-3.68347">
        <ele>157.6</ele>
        <time>2023-04-05T14:21:02Z</time>
      </trkpt>
      <trkpt lat="48.03387" lon="-3.68352">
        <ele>157.6</ele>
        <time>2023-04-05T14:21:03Z</time>
      </trkpt>
      <trkpt lat="48.03383" lon="-3.68357">
        <ele>157.6</ele>
        <time>2023-04-05T14:21:04Z</time>
      </trkpt>
      <trkpt lat="48.03378" lon="-3.68362">
        <ele>157.6</ele>
        <time>2023-04-05T14:21:05Z</time>
      </trkpt>
      <trkpt lat="48.03374" lon="-3.68367">
        <ele>157.6</ele>
        <time>2023-04-05T14:21:06Z</time>
      </trkpt>
      <trkpt lat="48.03371" lon="-3.68373">
        <ele>157.6</ele>
        <time>2023-04-05T14:21:07Z</time>
      </trkpt>
      <trkpt lat="48.03367" lon="-3.68379">
        <ele>157.7</ele>
        <time>2023-04-05T14:21:08Z</time>
      </trkpt>
      <trkpt lat="48.03362" lon="-3.68383">
        <ele>157.7</ele>
        <time>2023-04-05T14:21:09Z</time>
      </trkpt>
      <trkpt lat="48.03358" lon="-3.68388">
        <ele>157.7</ele>
        <time>2023-04-05T14:21:10Z</time>
      </trkpt>
      <trkpt lat="48.03354" lon="-3.68394">
        <ele>157.7</ele>
        <time>2023-04-05T14:21:11Z</time>
      </trkpt>
      <trkpt lat="48.0335" lon="-3.68399">
        <ele>157.7</ele>
        <time>2023-04-05T14:21:12Z</time>
      </trkpt>
      <trkpt lat="48.03346" lon="-3.68405">
        <ele>157.8</ele>
        <time>2023-04-05T14:21:13Z</time>
      </trkpt>
      <trkpt lat="48.03342" lon="-3.6841">
        <ele>157.8</ele>
        <time>2023-04-05T14:21:14Z</time>
      </trkpt>
      <trkpt lat="48.03338" lon="-3.68416">
        <ele>157.8</ele>
        <time>2023-04-05T14:21:15Z</time>
      </trkpt>
      <trkpt lat="48.03335" lon="-3.68422">
        <ele>157.8</ele>
        <time>2023-04-05T14:21:16Z</time>
      </trkpt>
      <trkpt lat="48.03331" lon="-3.68427">
        <ele>157.8</ele>
        <time>2023-04-05T14:21:17Z</time>
      </trkpt>
      <trkpt lat="48.03327" lon="-3.68432">
        <ele>157.8</ele>
        <time>2023-04-05T14:21:18Z</time>
      </trkpt>
      <trkpt lat="48.03323" lon="-3.68437">
        <ele>157.8</ele>
        <time>2023-04-05T14:21:19Z</time>
      </trkpt>
      <trkpt lat="48.03321" lon="-3.6844">
        <ele>157.8</ele>
        <time>2023-04-05T14:21:20Z</time>
      </trkpt>
      <trkpt lat="48.03317" lon="-3.68444">
        <ele>157.8</ele>
        <time>2023-04-05T14:21:21Z</time>
      </trkpt>
      <trkpt lat="48.03314" lon="-3.68448">
        <ele>157.8</ele>
        <time>2023-04-05T14:21:22Z</time>
      </trkpt>
      <trkpt lat="48.03309" lon="-3.68454">
        <ele>157.8</ele>
        <time>2023-04-05T14:21:23Z</time>
      </trkpt>
      <trkpt lat="48.03305" lon="-3.6846">
        <ele>157.9</ele>
        <time>2023-04-05T14:21:24Z</time>
      </trkpt>
      <trkpt lat="48.033" lon="-3.68466">
        <ele>157.9</ele>
        <time>2023-04-05T14:21:25Z</time>
      </trkpt>
      <trkpt lat="48.03296" lon="-3.6847">
        <ele>157.9</ele>
        <time>2023-04-05T14:21:26Z</time>
      </trkpt>
      <trkpt lat="48.03291" lon="-3.68474">
        <ele>157.9</ele>
        <time>2023-04-05T14:21:27Z</time>
      </trkpt>
      <trkpt lat="48.03288" lon="-3.68479">
        <ele>157.9</ele>
        <time>2023-04-05T14:21:28Z</time>
      </trkpt>
      <trkpt lat="48.03283" lon="-3.68485">
        <ele>157.9</ele>
        <time>2023-04-05T14:21:29Z</time>
      </trkpt>
      <trkpt lat="48.03279" lon="-3.6849">
        <ele>157.8</ele>
        <time>2023-04-05T14:21:30Z</time>
      </trkpt>
      <trkpt lat="48.03275" lon="-3.68496">
        <ele>157.8</ele>
        <time>2023-04-05T14:21:31Z</time>
      </trkpt>
      <trkpt lat="48.03271" lon="-3.68502">
        <ele>157.7</ele>
        <time>2023-04-05T14:21:32Z</time>
      </trkpt>
      <trkpt lat="48.03267" lon="-3.68508">
        <ele>157.7</ele>
        <time>2023-04-05T14:21:33Z</time>
      </trkpt>
      <trkpt lat="48.03263" lon="-3.68514">
        <ele>157.6</ele>
        <time>2023-04-05T14:21:34Z</time>
      </trkpt>
      <trkpt lat="48.03258" lon="-3.6852">
        <ele>157.5</ele>
        <time>2023-04-05T14:21:35Z</time>
      </trkpt>
      <trkpt lat="48.03253" lon="-3.68525">
        <ele>157.4</ele>
        <time>2023-04-05T14:21:36Z</time>
      </trkpt>
      <trkpt lat="48.03249" lon="-3.68531">
        <ele>157.3</ele>
        <time>2023-04-05T14:21:37Z</time>
      </trkpt>
      <trkpt lat="48.03245" lon="-3.68538">
        <ele>157.2</ele>
        <time>2023-04-05T14:21:38Z</time>
      </trkpt>
      <trkpt lat="48.03241" lon="-3.68543">
        <ele>157.1</ele>
        <time>2023-04-05T14:21:39Z</time>
      </trkpt>
      <trkpt lat="48.03235" lon="-3.68547">
        <ele>157</ele>
        <time>2023-04-05T14:21:40Z</time>
      </trkpt>
      <trkpt lat="48.0323" lon="-3.68553">
        <ele>156.9</ele>
        <time>2023-04-05T14:21:41Z</time>
      </trkpt>
      <trkpt lat="48.03226" lon="-3.68558">
        <ele>156.8</ele>
        <time>2023-04-05T14:21:42Z</time>
      </trkpt>
      <trkpt lat="48.03222" lon="-3.68564">
        <ele>156.7</ele>
        <time>2023-04-05T14:21:43Z</time>
      </trkpt>
      <trkpt lat="48.03218" lon="-3.68571">
        <ele>156.5</ele>
        <time>2023-04-05T14:21:44Z</time>
      </trkpt>
      <trkpt lat="48.03214" lon="-3.68578">
        <ele>156.4</ele>
        <time>2023-04-05T14:21:45Z</time>
      </trkpt>
      <trkpt lat="48.0321" lon="-3.68582">
        <ele>156.3</ele>
        <time>2023-04-05T14:21:46Z</time>
      </trkpt>
      <trkpt lat="48.03205" lon="-3.68588">
        <ele>156.2</ele>
        <time>2023-04-05T14:21:47Z</time>
      </trkpt>
      <trkpt lat="48.032" lon="-3.68596">
        <ele>156</ele>
        <time>2023-04-05T14:21:48Z</time>
      </trkpt>
      <trkpt lat="48.03195" lon="-3.68603">
        <ele>155.9</ele>
        <time>2023-04-05T14:21:49Z</time>
      </trkpt>
      <trkpt lat="48.03191" lon="-3.68609">
        <ele>155.7</ele>
        <time>2023-04-05T14:21:50Z</time>
      </trkpt>
      <trkpt lat="48.03186" lon="-3.68616">
        <ele>155.6</ele>
        <time>2023-04-05T14:21:51Z</time>
      </trkpt>
      <trkpt lat="48.03182" lon="-3.68622">
        <ele>155.5</ele>
        <time>2023-04-05T14:21:52Z</time>
      </trkpt>
      <trkpt lat="48.03177" lon="-3.68629">
        <ele>155.3</ele>
        <time>2023-04-05T14:21:53Z</time>
      </trkpt>
      <trkpt lat="48.03172" lon="-3.68635">
        <ele>155.2</ele>
        <time>2023-04-05T14:21:54Z</time>
      </trkpt>
      <trkpt lat="48.03167" lon="-3.68641">
        <ele>155</ele>
        <time>2023-04-05T14:21:55Z</time>
      </trkpt>
      <trkpt lat="48.03163" lon="-3.68648">
        <ele>154.8</ele>
        <time>2023-04-05T14:21:56Z</time>
      </trkpt>
      <trkpt lat="48.03158" lon="-3.68653">
        <ele>154.7</ele>
        <time>2023-04-05T14:21:57Z</time>
      </trkpt>
      <trkpt lat="48.03154" lon="-3.68661">
        <ele>154.5</ele>
        <time>2023-04-05T14:21:58Z</time>
      </trkpt>
      <trkpt lat="48.03149" lon="-3.68668">
        <ele>154.4</ele>
        <time>2023-04-05T14:21:59Z</time>
      </trkpt>
      <trkpt lat="48.03144" lon="-3.68674">
        <ele>154.2</ele>
        <time>2023-04-05T14:22:00Z</time>
      </trkpt>
      <trkpt lat="48.03138" lon="-3.68682">
        <ele>154.1</ele>
        <time>2023-04-05T14:22:01Z</time>
      </trkpt>
      <trkpt lat="48.03133" lon="-3.68688">
        <ele>153.9</ele>
        <time>2023-04-05T14:22:02Z</time>
      </trkpt>
      <trkpt lat="48.03128" lon="-3.68693">
        <ele>153.8</ele>
        <time>2023-04-05T14:22:03Z</time>
      </trkpt>
      <trkpt lat="48.03124" lon="-3.687">
        <ele>153.7</ele>
        <time>2023-04-05T14:22:04Z</time>
      </trkpt>
      <trkpt lat="48.0312" lon="-3.68706">
        <ele>153.5</ele>
        <time>2023-04-05T14:22:05Z</time>
      </trkpt>
      <trkpt lat="48.03114" lon="-3.68713">
        <ele>153.4</ele>
        <time>2023-04-05T14:22:06Z</time>
      </trkpt>
      <trkpt lat="48.0311" lon="-3.68719">
        <ele>153.3</ele>
        <time>2023-04-05T14:22:07Z</time>
      </trkpt>
      <trkpt lat="48.03105" lon="-3.68726">
        <ele>153.1</ele>
        <time>2023-04-05T14:22:08Z</time>
      </trkpt>
      <trkpt lat="48.03099" lon="-3.68732">
        <ele>153</ele>
        <time>2023-04-05T14:22:09Z</time>
      </trkpt>
      <trkpt lat="48.03094" lon="-3.68738">
        <ele>152.8</ele>
        <time>2023-04-05T14:22:10Z</time>
      </trkpt>
      <trkpt lat="48.03088" lon="-3.68745">
        <ele>152.7</ele>
        <time>2023-04-05T14:22:11Z</time>
      </trkpt>
      <trkpt lat="48.03083" lon="-3.68751">
        <ele>152.5</ele>
        <time>2023-04-05T14:22:12Z</time>
      </trkpt>
      <trkpt lat="48.03078" lon="-3.68758">
        <ele>152.4</ele>
        <time>2023-04-05T14:22:13Z</time>
      </trkpt>
      <trkpt lat="48.03072" lon="-3.68764">
        <ele>152.3</ele>
        <time>2023-04-05T14:22:14Z</time>
      </trkpt>
      <trkpt lat="48.03067" lon="-3.68771">
        <ele>152.2</ele>
        <time>2023-04-05T14:22:15Z</time>
      </trkpt>
      <trkpt lat="48.03062" lon="-3.68777">
        <ele>152.2</ele>
        <time>2023-04-05T14:22:16Z</time>
      </trkpt>
      <trkpt lat="48.03057" lon="-3.68784">
        <ele>152.1</ele>
        <time>2023-04-05T14:22:17Z</time>
      </trkpt>
      <trkpt lat="48.03052" lon="-3.68791">
        <ele>152.1</ele>
        <time>2023-04-05T14:22:18Z</time>
      </trkpt>
      <trkpt lat="48.03047" lon="-3.68796">
        <ele>152</ele>
        <time>2023-04-05T14:22:19Z</time>
      </trkpt>
      <trkpt lat="48.03042" lon="-3.68803">
        <ele>152</ele>
        <time>2023-04-05T14:22:20Z</time>
      </trkpt>
      <trkpt lat="48.03037" lon="-3.68809">
        <ele>152</ele>
        <time>2023-04-05T14:22:21Z</time>
      </trkpt>
      <trkpt lat="48.03031" lon="-3.68817">
        <ele>152</ele>
        <time>2023-04-05T14:22:22Z</time>
      </trkpt>
      <trkpt lat="48.03027" lon="-3.68824">
        <ele>152</ele>
        <time>2023-04-05T14:22:23Z</time>
      </trkpt>
      <trkpt lat="48.03022" lon="-3.6883">
        <ele>152</ele>
        <time>2023-04-05T14:22:24Z</time>
      </trkpt>
      <trkpt lat="48.03017" lon="-3.68836">
        <ele>152</ele>
        <time>2023-04-05T14:22:25Z</time>
      </trkpt>
      <trkpt lat="48.03013" lon="-3.68841">
        <ele>152.1</ele>
        <time>2023-04-05T14:22:26Z</time>
      </trkpt>
      <trkpt lat="48.03008" lon="-3.68847">
        <ele>152.1</ele>
        <time>2023-04-05T14:22:27Z</time>
      </trkpt>
      <trkpt lat="48.03004" lon="-3.68852">
        <ele>152.2</ele>
        <time>2023-04-05T14:22:28Z</time>
      </trkpt>
      <trkpt lat="48.03" lon="-3.68858">
        <ele>152.2</ele>
        <time>2023-04-05T14:22:29Z</time>
      </trkpt>
      <trkpt lat="48.02995" lon="-3.68864">
        <ele>152.3</ele>
        <time>2023-04-05T14:22:30Z</time>
      </trkpt>
      <trkpt lat="48.02991" lon="-3.68868">
        <ele>152.4</ele>
        <time>2023-04-05T14:22:31Z</time>
      </trkpt>
      <trkpt lat="48.02987" lon="-3.68873">
        <ele>152.4</ele>
        <time>2023-04-05T14:22:32Z</time>
      </trkpt>
      <trkpt lat="48.02983" lon="-3.68878">
        <ele>152.5</ele>
        <time>2023-04-05T14:22:33Z</time>
      </trkpt>
      <trkpt lat="48.0298" lon="-3.68883">
        <ele>152.6</ele>
        <time>2023-04-05T14:22:34Z</time>
      </trkpt>
      <trkpt lat="48.02976" lon="-3.68888">
        <ele>152.6</ele>
        <time>2023-04-05T14:22:35Z</time>
      </trkpt>
      <trkpt lat="48.02973" lon="-3.68894">
        <ele>152.7</ele>
        <time>2023-04-05T14:22:36Z</time>
      </trkpt>
      <trkpt lat="48.02971" lon="-3.68898">
        <ele>152.7</ele>
        <time>2023-04-05T14:22:37Z</time>
      </trkpt>
      <trkpt lat="48.02967" lon="-3.68903">
        <ele>152.8</ele>
        <time>2023-04-05T14:22:38Z</time>
      </trkpt>
      <trkpt lat="48.02963" lon="-3.68908">
        <ele>152.9</ele>
        <time>2023-04-05T14:22:39Z</time>
      </trkpt>
      <trkpt lat="48.02959" lon="-3.68912">
        <ele>152.9</ele>
        <time>2023-04-05T14:22:40Z</time>
      </trkpt>
      <trkpt lat="48.02955" lon="-3.68916">
        <ele>153</ele>
        <time>2023-04-05T14:22:41Z</time>
      </trkpt>
      <trkpt lat="48.02951" lon="-3.6892">
        <ele>153.1</ele>
        <time>2023-04-05T14:22:42Z</time>
      </trkpt>
      <trkpt lat="48.02947" lon="-3.68923">
        <ele>153.2</ele>
        <time>2023-04-05T14:22:43Z</time>
      </trkpt>
      <trkpt lat="48.02944" lon="-3.68928">
        <ele>153.2</ele>
        <time>2023-04-05T14:22:44Z</time>
      </trkpt>
      <trkpt lat="48.0294" lon="-3.68934">
        <ele>153.3</ele>
        <time>2023-04-05T14:22:45Z</time>
      </trkpt>
      <trkpt lat="48.02937" lon="-3.68939">
        <ele>153.4</ele>
        <time>2023-04-05T14:22:46Z</time>
      </trkpt>
      <trkpt lat="48.02935" lon="-3.68942">
        <ele>153.4</ele>
        <time>2023-04-05T14:22:47Z</time>
      </trkpt>
      <trkpt lat="48.0293" lon="-3.68948">
        <ele>153.6</ele>
        <time>2023-04-05T14:22:48Z</time>
      </trkpt>
      <trkpt lat="48.02925" lon="-3.68954">
        <ele>153.7</ele>
        <time>2023-04-05T14:22:49Z</time>
      </trkpt>
      <trkpt lat="48.02921" lon="-3.68959">
        <ele>153.8</ele>
        <time>2023-04-05T14:22:50Z</time>
      </trkpt>
      <trkpt lat="48.02919" lon="-3.68964">
        <ele>153.9</ele>
        <time>2023-04-05T14:22:51Z</time>
      </trkpt>
      <trkpt lat="48.02916" lon="-3.68968">
        <ele>154</ele>
        <time>2023-04-05T14:22:52Z</time>
      </trkpt>
      <trkpt lat="48.02914" lon="-3.6897">
        <ele>154.1</ele>
        <time>2023-04-05T14:22:53Z</time>
      </trkpt>
      <trkpt lat="48.0291" lon="-3.68976">
        <ele>154.2</ele>
        <time>2023-04-05T14:22:54Z</time>
      </trkpt>
      <trkpt lat="48.02907" lon="-3.68981">
        <ele>154.3</ele>
        <time>2023-04-05T14:22:55Z</time>
      </trkpt>
      <trkpt lat="48.02903" lon="-3.68985">
        <ele>154.4</ele>
        <time>2023-04-05T14:22:56Z</time>
      </trkpt>
      <trkpt lat="48.029" lon="-3.6899">
        <ele>154.5</ele>
        <time>2023-04-05T14:22:57Z</time>
      </trkpt>
      <trkpt lat="48.02898" lon="-3.68993">
        <ele>154.6</ele>
        <time>2023-04-05T14:22:58Z</time>
      </trkpt>
      <trkpt lat="48.0289" lon="-3.69007">
        <ele>154.9</ele>
        <time>2023-04-05T14:23:00Z</time>
      </trkpt>
      <trkpt lat="48.02883" lon="-3.69014">
        <ele>155</ele>
        <time>2023-04-05T14:23:02Z</time>
      </trkpt>
      <trkpt lat="48.02879" lon="-3.69018">
        <ele>155.1</ele>
        <time>2023-04-05T14:23:04Z</time>
      </trkpt>
      <trkpt lat="48.02873" lon="-3.69025">
        <ele>155.2</ele>
        <time>2023-04-05T14:23:05Z</time>
      </trkpt>
      <trkpt lat="48.0287" lon="-3.6903">
        <ele>155.3</ele>
        <time>2023-04-05T14:23:07Z</time>
      </trkpt>
      <trkpt lat="48.02863" lon="-3.6904">
        <ele>155.4</ele>
        <time>2023-04-05T14:23:08Z</time>
      </trkpt>
      <trkpt lat="48.0286" lon="-3.69045">
        <ele>155.5</ele>
        <time>2023-04-05T14:23:10Z</time>
      </trkpt>
      <trkpt lat="48.02855" lon="-3.69051">
        <ele>155.6</ele>
        <time>2023-04-05T14:23:11Z</time>
      </trkpt>
      <trkpt lat="48.02852" lon="-3.69054">
        <ele>155.7</ele>
        <time>2023-04-05T14:23:12Z</time>
      </trkpt>
      <trkpt lat="48.02849" lon="-3.69059">
        <ele>155.8</ele>
        <time>2023-04-05T14:23:13Z</time>
      </trkpt>
      <trkpt lat="48.02844" lon="-3.69069">
        <ele>156</ele>
        <time>2023-04-05T14:23:15Z</time>
      </trkpt>
      <trkpt lat="48.0284" lon="-3.69074">
        <ele>156.2</ele>
        <time>2023-04-05T14:23:17Z</time>
      </trkpt>
      <trkpt lat="48.02834" lon="-3.69081">
        <ele>156.4</ele>
        <time>2023-04-05T14:23:18Z</time>
      </trkpt>
      <trkpt lat="48.02832" lon="-3.69083">
        <ele>156.5</ele>
        <time>2023-04-05T14:23:19Z</time>
      </trkpt>
      <trkpt lat="48.02826" lon="-3.69086">
        <ele>156.6</ele>
        <time>2023-04-05T14:23:20Z</time>
      </trkpt>
      <trkpt lat="48.02824" lon="-3.6909">
        <ele>156.7</ele>
        <time>2023-04-05T14:23:21Z</time>
      </trkpt>
      <trkpt lat="48.02821" lon="-3.69097">
        <ele>156.9</ele>
        <time>2023-04-05T14:23:22Z</time>
      </trkpt>
      <trkpt lat="48.02818" lon="-3.691">
        <ele>157</ele>
        <time>2023-04-05T14:23:23Z</time>
      </trkpt>
      <trkpt lat="48.02814" lon="-3.69105">
        <ele>157.1</ele>
        <time>2023-04-05T14:23:24Z</time>
      </trkpt>
      <trkpt lat="48.02812" lon="-3.69107">
        <ele>157.2</ele>
        <time>2023-04-05T14:23:25Z</time>
      </trkpt>
      <trkpt lat="48.02809" lon="-3.69116">
        <ele>157.3</ele>
        <time>2023-04-05T14:23:27Z</time>
      </trkpt>
      <trkpt lat="48.02805" lon="-3.69121">
        <ele>157.5</ele>
        <time>2023-04-05T14:23:28Z</time>
      </trkpt>
      <trkpt lat="48.028" lon="-3.69131">
        <ele>157.7</ele>
        <time>2023-04-05T14:23:29Z</time>
      </trkpt>
      <trkpt lat="48.02796" lon="-3.69136">
        <ele>157.8</ele>
        <time>2023-04-05T14:23:30Z</time>
      </trkpt>
      <trkpt lat="48.02794" lon="-3.69141">
        <ele>157.9</ele>
        <time>2023-04-05T14:23:31Z</time>
      </trkpt>
      <trkpt lat="48.02791" lon="-3.69148">
        <ele>158</ele>
        <time>2023-04-05T14:23:32Z</time>
      </trkpt>
      <trkpt lat="48.02789" lon="-3.69154">
        <ele>158.1</ele>
        <time>2023-04-05T14:23:33Z</time>
      </trkpt>
      <trkpt lat="48.02787" lon="-3.69158">
        <ele>158.2</ele>
        <time>2023-04-05T14:23:34Z</time>
      </trkpt>
      <trkpt lat="48.02784" lon="-3.69165">
        <ele>158.3</ele>
        <time>2023-04-05T14:23:35Z</time>
      </trkpt>
      <trkpt lat="48.02781" lon="-3.6917">
        <ele>158.4</ele>
        <time>2023-04-05T14:23:36Z</time>
      </trkpt>
      <trkpt lat="48.02778" lon="-3.69177">
        <ele>158.6</ele>
        <time>2023-04-05T14:23:37Z</time>
      </trkpt>
      <trkpt lat="48.02776" lon="-3.69183">
        <ele>158.7</ele>
        <time>2023-04-05T14:23:39Z</time>
      </trkpt>
      <trkpt lat="48.02775" lon="-3.69188">
        <ele>158.8</ele>
        <time>2023-04-05T14:23:40Z</time>
      </trkpt>
      <trkpt lat="48.02772" lon="-3.69193">
        <ele>158.9</ele>
        <time>2023-04-05T14:23:41Z</time>
      </trkpt>
      <trkpt lat="48.02768" lon="-3.69202">
        <ele>159</ele>
        <time>2023-04-05T14:23:42Z</time>
      </trkpt>
      <trkpt lat="48.02766" lon="-3.6921">
        <ele>159.1</ele>
        <time>2023-04-05T14:23:44Z</time>
      </trkpt>
      <trkpt lat="48.02764" lon="-3.69216">
        <ele>159.2</ele>
        <time>2023-04-05T14:23:45Z</time>
      </trkpt>
      <trkpt lat="48.02762" lon="-3.69221">
        <ele>159.3</ele>
        <time>2023-04-05T14:23:46Z</time>
      </trkpt>
      <trkpt lat="48.02761" lon="-3.69225">
        <ele>159.3</ele>
        <time>2023-04-05T14:23:47Z</time>
      </trkpt>
      <trkpt lat="48.02758" lon="-3.69232">
        <ele>159.4</ele>
        <time>2023-04-05T14:23:48Z</time>
      </trkpt>
      <trkpt lat="48.02756" lon="-3.69238">
        <ele>159.5</ele>
        <time>2023-04-05T14:23:49Z</time>
      </trkpt>
      <trkpt lat="48.02754" lon="-3.69243">
        <ele>159.6</ele>
        <time>2023-04-05T14:23:50Z</time>
      </trkpt>
      <trkpt lat="48.02753" lon="-3.6925">
        <ele>159.7</ele>
        <time>2023-04-05T14:23:51Z</time>
      </trkpt>
      <trkpt lat="48.02749" lon="-3.69258">
        <ele>159.8</ele>
        <time>2023-04-05T14:23:52Z</time>
      </trkpt>
      <trkpt lat="48.02747" lon="-3.69264">
        <ele>159.9</ele>
        <time>2023-04-05T14:23:53Z</time>
      </trkpt>
      <trkpt lat="48.02745" lon="-3.6927">
        <ele>160</ele>
        <time>2023-04-05T14:23:54Z</time>
      </trkpt>
      <trkpt lat="48.02745" lon="-3.6928">
        <ele>160.1</ele>
        <time>2023-04-05T14:23:56Z</time>
      </trkpt>
      <trkpt lat="48.02742" lon="-3.69286">
        <ele>160.2</ele>
        <time>2023-04-05T14:23:57Z</time>
      </trkpt>
      <trkpt lat="48.0274" lon="-3.69296">
        <ele>160.3</ele>
        <time>2023-04-05T14:23:58Z</time>
      </trkpt>
      <trkpt lat="48.02738" lon="-3.69301">
        <ele>160.3</ele>
        <time>2023-04-05T14:23:59Z</time>
      </trkpt>
      <trkpt lat="48.02735" lon="-3.69307">
        <ele>160.4</ele>
        <time>2023-04-05T14:24:00Z</time>
      </trkpt>
      <trkpt lat="48.02732" lon="-3.69312">
        <ele>160.5</ele>
        <time>2023-04-05T14:24:01Z</time>
      </trkpt>
      <trkpt lat="48.02729" lon="-3.69324">
        <ele>160.7</ele>
        <time>2023-04-05T14:24:03Z</time>
      </trkpt>
      <trkpt lat="48.02727" lon="-3.6933">
        <ele>160.8</ele>
        <time>2023-04-05T14:24:05Z</time>
      </trkpt>
      <trkpt lat="48.02724" lon="-3.6934">
        <ele>160.9</ele>
        <time>2023-04-05T14:24:06Z</time>
      </trkpt>
      <trkpt lat="48.02723" lon="-3.69344">
        <ele>161</ele>
        <time>2023-04-05T14:24:08Z</time>
      </trkpt>
      <trkpt lat="48.02722" lon="-3.69348">
        <ele>161</ele>
        <time>2023-04-05T14:24:09Z</time>
      </trkpt>
      <trkpt lat="48.02719" lon="-3.69355">
        <ele>161.2</ele>
        <time>2023-04-05T14:24:10Z</time>
      </trkpt>
      <trkpt lat="48.02718" lon="-3.69358">
        <ele>161.2</ele>
        <time>2023-04-05T14:24:11Z</time>
      </trkpt>
      <trkpt lat="48.02715" lon="-3.69364">
        <ele>161.3</ele>
        <time>2023-04-05T14:24:12Z</time>
      </trkpt>
      <trkpt lat="48.02714" lon="-3.69369">
        <ele>161.4</ele>
        <time>2023-04-05T14:24:13Z</time>
      </trkpt>
      <trkpt lat="48.02712" lon="-3.69375">
        <ele>161.5</ele>
        <time>2023-04-05T14:24:15Z</time>
      </trkpt>
      <trkpt lat="48.02711" lon="-3.69379">
        <ele>161.6</ele>
        <time>2023-04-05T14:24:16Z</time>
      </trkpt>
      <trkpt lat="48.02709" lon="-3.69384">
        <ele>161.7</ele>
        <time>2023-04-05T14:24:17Z</time>
      </trkpt>
      <trkpt lat="48.02706" lon="-3.69394">
        <ele>161.8</ele>
        <time>2023-04-05T14:24:18Z</time>
      </trkpt>
      <trkpt lat="48.02705" lon="-3.69399">
        <ele>161.9</ele>
        <time>2023-04-05T14:24:20Z</time>
      </trkpt>
      <trkpt lat="48.02701" lon="-3.69407">
        <ele>162.1</ele>
        <time>2023-04-05T14:24:21Z</time>
      </trkpt>
      <trkpt lat="48.027" lon="-3.69411">
        <ele>162.2</ele>
        <time>2023-04-05T14:24:23Z</time>
      </trkpt>
      <trkpt lat="48.02697" lon="-3.69419">
        <ele>162.3</ele>
        <time>2023-04-05T14:24:24Z</time>
      </trkpt>
      <trkpt lat="48.02695" lon="-3.69428">
        <ele>162.4</ele>
        <time>2023-04-05T14:24:26Z</time>
      </trkpt>
      <trkpt lat="48.02693" lon="-3.69433">
        <ele>162.5</ele>
        <time>2023-04-05T14:24:28Z</time>
      </trkpt>
      <trkpt lat="48.02691" lon="-3.69438">
        <ele>162.6</ele>
        <time>2023-04-05T14:24:29Z</time>
      </trkpt>
      <trkpt lat="48.02689" lon="-3.69443">
        <ele>162.7</ele>
        <time>2023-04-05T14:24:30Z</time>
      </trkpt>
      <trkpt lat="48.02688" lon="-3.69448">
        <ele>162.7</ele>
        <time>2023-04-05T14:24:31Z</time>
      </trkpt>
      <trkpt lat="48.02686" lon="-3.69454">
        <ele>162.8</ele>
        <time>2023-04-05T14:24:32Z</time>
      </trkpt>
      <trkpt lat="48.02683" lon="-3.6946">
        <ele>163</ele>
        <time>2023-04-05T14:24:33Z</time>
      </trkpt>
      <trkpt lat="48.02682" lon="-3.69466">
        <ele>163.1</ele>
        <time>2023-04-05T14:24:34Z</time>
      </trkpt>
      <trkpt lat="48.0268" lon="-3.69471">
        <ele>163.2</ele>
        <time>2023-04-05T14:24:35Z</time>
      </trkpt>
      <trkpt lat="48.02679" lon="-3.69476">
        <ele>163.2</ele>
        <time>2023-04-05T14:24:36Z</time>
      </trkpt>
      <trkpt lat="48.02677" lon="-3.69482">
        <ele>163.3</ele>
        <time>2023-04-05T14:24:37Z</time>
      </trkpt>
      <trkpt lat="48.02676" lon="-3.69486">
        <ele>163.4</ele>
        <time>2023-04-05T14:24:38Z</time>
      </trkpt>
      <trkpt lat="48.02674" lon="-3.69491">
        <ele>163.5</ele>
        <time>2023-04-05T14:24:39Z</time>
      </trkpt>
      <trkpt lat="48.02672" lon="-3.69496">
        <ele>163.6</ele>
        <time>2023-04-05T14:24:40Z</time>
      </trkpt>
      <trkpt lat="48.0267" lon="-3.69502">
        <ele>163.7</ele>
        <time>2023-04-05T14:24:41Z</time>
      </trkpt>
      <trkpt lat="48.02669" lon="-3.69508">
        <ele>163.7</ele>
        <time>2023-04-05T14:24:42Z</time>
      </trkpt>
      <trkpt lat="48.02667" lon="-3.69513">
        <ele>163.8</ele>
        <time>2023-04-05T14:24:43Z</time>
      </trkpt>
      <trkpt lat="48.02665" lon="-3.69518">
        <ele>163.9</ele>
        <time>2023-04-05T14:24:44Z</time>
      </trkpt>
      <trkpt lat="48.02664" lon="-3.69524">
        <ele>164</ele>
        <time>2023-04-05T14:24:45Z</time>
      </trkpt>
      <trkpt lat="48.02664" lon="-3.6953">
        <ele>164.2</ele>
        <time>2023-04-05T14:24:46Z</time>
      </trkpt>
      <trkpt lat="48.02662" lon="-3.69535">
        <ele>164.3</ele>
        <time>2023-04-05T14:24:47Z</time>
      </trkpt>
      <trkpt lat="48.0266" lon="-3.6954">
        <ele>164.4</ele>
        <time>2023-04-05T14:24:48Z</time>
      </trkpt>
      <trkpt lat="48.02657" lon="-3.69544">
        <ele>164.5</ele>
        <time>2023-04-05T14:24:49Z</time>
      </trkpt>
      <trkpt lat="48.02655" lon="-3.69551">
        <ele>164.6</ele>
        <time>2023-04-05T14:24:50Z</time>
      </trkpt>
      <trkpt lat="48.02654" lon="-3.69557">
        <ele>164.7</ele>
        <time>2023-04-05T14:24:52Z</time>
      </trkpt>
      <trkpt lat="48.02652" lon="-3.69562">
        <ele>164.8</ele>
        <time>2023-04-05T14:24:53Z</time>
      </trkpt>
      <trkpt lat="48.0265" lon="-3.69567">
        <ele>164.9</ele>
        <time>2023-04-05T14:24:54Z</time>
      </trkpt>
      <trkpt lat="48.02648" lon="-3.69577">
        <ele>165.1</ele>
        <time>2023-04-05T14:24:55Z</time>
      </trkpt>
      <trkpt lat="48.02646" lon="-3.69583">
        <ele>165.2</ele>
        <time>2023-04-05T14:24:57Z</time>
      </trkpt>
      <trkpt lat="48.02645" lon="-3.69588">
        <ele>165.3</ele>
        <time>2023-04-05T14:24:58Z</time>
      </trkpt>
      <trkpt lat="48.02644" lon="-3.69593">
        <ele>165.4</ele>
        <time>2023-04-05T14:24:59Z</time>
      </trkpt>
      <trkpt lat="48.02643" lon="-3.69598">
        <ele>165.5</ele>
        <time>2023-04-05T14:25:00Z</time>
      </trkpt>
      <trkpt lat="48.02641" lon="-3.69603">
        <ele>165.5</ele>
        <time>2023-04-05T14:25:01Z</time>
      </trkpt>
      <trkpt lat="48.0264" lon="-3.69607">
        <ele>165.5</ele>
        <time>2023-04-05T14:25:02Z</time>
      </trkpt>
      <trkpt lat="48.02638" lon="-3.69611">
        <ele>165.5</ele>
        <time>2023-04-05T14:25:03Z</time>
      </trkpt>
      <trkpt lat="48.02635" lon="-3.69615">
        <ele>165.5</ele>
        <time>2023-04-05T14:25:04Z</time>
      </trkpt>
      <trkpt lat="48.02634" lon="-3.69617">
        <ele>165.5</ele>
        <time>2023-04-05T14:25:05Z</time>
      </trkpt>
      <trkpt lat="48.02634" lon="-3.69621">
        <ele>165.5</ele>
        <time>2023-04-05T14:25:06Z</time>
      </trkpt>
      <trkpt lat="48.02634" lon="-3.69622">
        <ele>165.5</ele>
        <time>2023-04-05T14:25:07Z</time>
      </trkpt>
      <trkpt lat="48.02634" lon="-3.69624">
        <ele>165.5</ele>
        <time>2023-04-05T14:25:08Z</time>
      </trkpt>
      <trkpt lat="48.02633" lon="-3.69624">
        <ele>165.5</ele>
        <time>2023-04-05T14:25:09Z</time>
      </trkpt>
      <trkpt lat="48.02633" lon="-3.69624">
        <ele>165.5</ele>
        <time>2023-04-05T14:25:10Z</time>
      </trkpt>
      <trkpt lat="48.02633" lon="-3.69625">
        <ele>165.5</ele>
        <time>2023-04-05T14:25:11Z</time>
      </trkpt>
      <trkpt lat="48.02633" lon="-3.69625">
        <ele>165.5</ele>
        <time>2023-04-05T14:25:12Z</time>
      </trkpt>
      <trkpt lat="48.02632" lon="-3.69625">
        <ele>165.5</ele>
        <time>2023-04-05T14:25:13Z</time>
      </trkpt>
      <trkpt lat="48.02632" lon="-3.69625">
        <ele>165.5</ele>
        <time>2023-04-05T14:25:14Z</time>
      </trkpt>
      <trkpt lat="48.02632" lon="-3.69626">
        <ele>165.6</ele>
        <time>2023-04-05T14:25:15Z</time>
      </trkpt>
      <trkpt lat="48.02632" lon="-3.69626">
        <ele>165.6</ele>
        <time>2023-04-05T14:25:16Z</time>
      </trkpt>
      <trkpt lat="48.02631" lon="-3.69626">
        <ele>165.6</ele>
        <time>2023-04-05T14:25:17Z</time>
      </trkpt>
      <trkpt lat="48.0263" lon="-3.69628">
        <ele>165.6</ele>
        <time>2023-04-05T14:25:18Z</time>
      </trkpt>
      <trkpt lat="48.02629" lon="-3.6963">
        <ele>165.6</ele>
        <time>2023-04-05T14:25:19Z</time>
      </trkpt>
      <trkpt lat="48.02628" lon="-3.69634">
        <ele>165.7</ele>
        <time>2023-04-05T14:25:20Z</time>
      </trkpt>
      <trkpt lat="48.02628" lon="-3.69635">
        <ele>165.7</ele>
        <time>2023-04-05T14:25:21Z</time>
      </trkpt>
      <trkpt lat="48.02626" lon="-3.69641">
        <ele>165.7</ele>
        <time>2023-04-05T14:25:22Z</time>
      </trkpt>
      <trkpt lat="48.02625" lon="-3.69643">
        <ele>165.8</ele>
        <time>2023-04-05T14:25:23Z</time>
      </trkpt>
      <trkpt lat="48.02624" lon="-3.69648">
        <ele>165.8</ele>
        <time>2023-04-05T14:25:24Z</time>
      </trkpt>
      <trkpt lat="48.02622" lon="-3.69653">
        <ele>165.9</ele>
        <time>2023-04-05T14:25:25Z</time>
      </trkpt>
      <trkpt lat="48.0262" lon="-3.69658">
        <ele>165.9</ele>
        <time>2023-04-05T14:25:26Z</time>
      </trkpt>
      <trkpt lat="48.02618" lon="-3.69662">
        <ele>166</ele>
        <time>2023-04-05T14:25:27Z</time>
      </trkpt>
      <trkpt lat="48.02617" lon="-3.69667">
        <ele>166</ele>
        <time>2023-04-05T14:25:28Z</time>
      </trkpt>
      <trkpt lat="48.02615" lon="-3.69673">
        <ele>166.1</ele>
        <time>2023-04-05T14:25:29Z</time>
      </trkpt>
      <trkpt lat="48.02614" lon="-3.69678">
        <ele>166.1</ele>
        <time>2023-04-05T14:25:30Z</time>
      </trkpt>
      <trkpt lat="48.02612" lon="-3.69684">
        <ele>166.2</ele>
        <time>2023-04-05T14:25:31Z</time>
      </trkpt>
      <trkpt lat="48.0261" lon="-3.69689">
        <ele>166.3</ele>
        <time>2023-04-05T14:25:32Z</time>
      </trkpt>
      <trkpt lat="48.02608" lon="-3.69695">
        <ele>166.4</ele>
        <time>2023-04-05T14:25:33Z</time>
      </trkpt>
      <trkpt lat="48.02607" lon="-3.697">
        <ele>166.5</ele>
        <time>2023-04-05T14:25:34Z</time>
      </trkpt>
      <trkpt lat="48.02604" lon="-3.69709">
        <ele>166.6</ele>
        <time>2023-04-05T14:25:35Z</time>
      </trkpt>
      <trkpt lat="48.02602" lon="-3.69715">
        <ele>166.7</ele>
        <time>2023-04-05T14:25:37Z</time>
      </trkpt>
      <trkpt lat="48.026" lon="-3.69721">
        <ele>166.8</ele>
        <time>2023-04-05T14:25:38Z</time>
      </trkpt>
      <trkpt lat="48.02598" lon="-3.69726">
        <ele>166.9</ele>
        <time>2023-04-05T14:25:39Z</time>
      </trkpt>
      <trkpt lat="48.02596" lon="-3.6973">
        <ele>167</ele>
        <time>2023-04-05T14:25:40Z</time>
      </trkpt>
      <trkpt lat="48.02594" lon="-3.69736">
        <ele>167.1</ele>
        <time>2023-04-05T14:25:41Z</time>
      </trkpt>
      <trkpt lat="48.02591" lon="-3.69746">
        <ele>167.3</ele>
        <time>2023-04-05T14:25:42Z</time>
      </trkpt>
      <trkpt lat="48.02589" lon="-3.69752">
        <ele>167.4</ele>
        <time>2023-04-05T14:25:43Z</time>
      </trkpt>
      <trkpt lat="48.02587" lon="-3.69758">
        <ele>167.5</ele>
        <time>2023-04-05T14:25:45Z</time>
      </trkpt>
      <trkpt lat="48.02585" lon="-3.69764">
        <ele>167.6</ele>
        <time>2023-04-05T14:25:46Z</time>
      </trkpt>
      <trkpt lat="48.02584" lon="-3.69769">
        <ele>167.7</ele>
        <time>2023-04-05T14:25:47Z</time>
      </trkpt>
      <trkpt lat="48.02582" lon="-3.69775">
        <ele>167.8</ele>
        <time>2023-04-05T14:25:48Z</time>
      </trkpt>
      <trkpt lat="48.0258" lon="-3.69781">
        <ele>167.9</ele>
        <time>2023-04-05T14:25:49Z</time>
      </trkpt>
      <trkpt lat="48.02579" lon="-3.69786">
        <ele>168</ele>
        <time>2023-04-05T14:25:50Z</time>
      </trkpt>
      <trkpt lat="48.02577" lon="-3.69792">
        <ele>168.1</ele>
        <time>2023-04-05T14:25:51Z</time>
      </trkpt>
      <trkpt lat="48.02575" lon="-3.69799">
        <ele>168.2</ele>
        <time>2023-04-05T14:25:52Z</time>
      </trkpt>
      <trkpt lat="48.02574" lon="-3.69803">
        <ele>168.3</ele>
        <time>2023-04-05T14:25:53Z</time>
      </trkpt>
      <trkpt lat="48.02572" lon="-3.69809">
        <ele>168.5</ele>
        <time>2023-04-05T14:25:54Z</time>
      </trkpt>
      <trkpt lat="48.0257" lon="-3.69815">
        <ele>168.6</ele>
        <time>2023-04-05T14:25:55Z</time>
      </trkpt>
      <trkpt lat="48.02568" lon="-3.69821">
        <ele>168.7</ele>
        <time>2023-04-05T14:25:56Z</time>
      </trkpt>
      <trkpt lat="48.02566" lon="-3.69827">
        <ele>168.8</ele>
        <time>2023-04-05T14:25:57Z</time>
      </trkpt>
      <trkpt lat="48.02564" lon="-3.69832">
        <ele>168.9</ele>
        <time>2023-04-05T14:25:58Z</time>
      </trkpt>
      <trkpt lat="48.02562" lon="-3.69838">
        <ele>169</ele>
        <time>2023-04-05T14:25:59Z</time>
      </trkpt>
      <trkpt lat="48.02561" lon="-3.69843">
        <ele>169.1</ele>
        <time>2023-04-05T14:26:00Z</time>
      </trkpt>
      <trkpt lat="48.02559" lon="-3.6985">
        <ele>169.2</ele>
        <time>2023-04-05T14:26:01Z</time>
      </trkpt>
      <trkpt lat="48.02557" lon="-3.69854">
        <ele>169.3</ele>
        <time>2023-04-05T14:26:02Z</time>
      </trkpt>
      <trkpt lat="48.02556" lon="-3.6986">
        <ele>169.4</ele>
        <time>2023-04-05T14:26:03Z</time>
      </trkpt>
      <trkpt lat="48.02554" lon="-3.69866">
        <ele>169.5</ele>
        <time>2023-04-05T14:26:04Z</time>
      </trkpt>
      <trkpt lat="48.02552" lon="-3.69873">
        <ele>169.7</ele>
        <time>2023-04-05T14:26:05Z</time>
      </trkpt>
      <trkpt lat="48.0255" lon="-3.6988">
        <ele>169.8</ele>
        <time>2023-04-05T14:26:07Z</time>
      </trkpt>
      <trkpt lat="48.02548" lon="-3.69885">
        <ele>169.9</ele>
        <time>2023-04-05T14:26:08Z</time>
      </trkpt>
      <trkpt lat="48.02546" lon="-3.69889">
        <ele>170</ele>
        <time>2023-04-05T14:26:09Z</time>
      </trkpt>
      <trkpt lat="48.02543" lon="-3.69899">
        <ele>170.2</ele>
        <time>2023-04-05T14:26:10Z</time>
      </trkpt>
      <trkpt lat="48.02541" lon="-3.69905">
        <ele>170.3</ele>
        <time>2023-04-05T14:26:12Z</time>
      </trkpt>
      <trkpt lat="48.02539" lon="-3.6991">
        <ele>170.4</ele>
        <time>2023-04-05T14:26:13Z</time>
      </trkpt>
      <trkpt lat="48.02537" lon="-3.69915">
        <ele>170.5</ele>
        <time>2023-04-05T14:26:14Z</time>
      </trkpt>
      <trkpt lat="48.02535" lon="-3.6992">
        <ele>170.6</ele>
        <time>2023-04-05T14:26:15Z</time>
      </trkpt>
      <trkpt lat="48.02532" lon="-3.69929">
        <ele>170.8</ele>
        <time>2023-04-05T14:26:16Z</time>
      </trkpt>
      <trkpt lat="48.02529" lon="-3.69935">
        <ele>170.9</ele>
        <time>2023-04-05T14:26:17Z</time>
      </trkpt>
      <trkpt lat="48.02528" lon="-3.69942">
        <ele>171</ele>
        <time>2023-04-05T14:26:19Z</time>
      </trkpt>
      <trkpt lat="48.02526" lon="-3.69948">
        <ele>171.2</ele>
        <time>2023-04-05T14:26:20Z</time>
      </trkpt>
      <trkpt lat="48.02524" lon="-3.69953">
        <ele>171.2</ele>
        <time>2023-04-05T14:26:21Z</time>
      </trkpt>
      <trkpt lat="48.02523" lon="-3.69959">
        <ele>171.3</ele>
        <time>2023-04-05T14:26:22Z</time>
      </trkpt>
      <trkpt lat="48.02522" lon="-3.69964">
        <ele>171.5</ele>
        <time>2023-04-05T14:26:23Z</time>
      </trkpt>
      <trkpt lat="48.0252" lon="-3.69971">
        <ele>171.6</ele>
        <time>2023-04-05T14:26:24Z</time>
      </trkpt>
      <trkpt lat="48.02518" lon="-3.69976">
        <ele>171.7</ele>
        <time>2023-04-05T14:26:25Z</time>
      </trkpt>
      <trkpt lat="48.02516" lon="-3.69982">
        <ele>171.8</ele>
        <time>2023-04-05T14:26:26Z</time>
      </trkpt>
      <trkpt lat="48.02515" lon="-3.69988">
        <ele>171.9</ele>
        <time>2023-04-05T14:26:27Z</time>
      </trkpt>
      <trkpt lat="48.02513" lon="-3.69994">
        <ele>172</ele>
        <time>2023-04-05T14:26:28Z</time>
      </trkpt>
      <trkpt lat="48.02511" lon="-3.70002">
        <ele>172.2</ele>
        <time>2023-04-05T14:26:29Z</time>
      </trkpt>
      <trkpt lat="48.02509" lon="-3.70007">
        <ele>172.2</ele>
        <time>2023-04-05T14:26:30Z</time>
      </trkpt>
      <trkpt lat="48.02504" lon="-3.70018">
        <ele>172.5</ele>
        <time>2023-04-05T14:26:32Z</time>
      </trkpt>
      <trkpt lat="48.02503" lon="-3.70023">
        <ele>172.6</ele>
        <time>2023-04-05T14:26:33Z</time>
      </trkpt>
      <trkpt lat="48.02501" lon="-3.70028">
        <ele>172.7</ele>
        <time>2023-04-05T14:26:34Z</time>
      </trkpt>
      <trkpt lat="48.02499" lon="-3.70034">
        <ele>172.8</ele>
        <time>2023-04-05T14:26:36Z</time>
      </trkpt>
      <trkpt lat="48.02497" lon="-3.70039">
        <ele>172.9</ele>
        <time>2023-04-05T14:26:37Z</time>
      </trkpt>
      <trkpt lat="48.02496" lon="-3.70044">
        <ele>173</ele>
        <time>2023-04-05T14:26:38Z</time>
      </trkpt>
      <trkpt lat="48.02493" lon="-3.70053">
        <ele>173.2</ele>
        <time>2023-04-05T14:26:39Z</time>
      </trkpt>
      <trkpt lat="48.02491" lon="-3.7006">
        <ele>173.3</ele>
        <time>2023-04-05T14:26:41Z</time>
      </trkpt>
      <trkpt lat="48.02489" lon="-3.70065">
        <ele>173.4</ele>
        <time>2023-04-05T14:26:42Z</time>
      </trkpt>
      <trkpt lat="48.02488" lon="-3.70071">
        <ele>173.5</ele>
        <time>2023-04-05T14:26:43Z</time>
      </trkpt>
      <trkpt lat="48.02486" lon="-3.70076">
        <ele>173.6</ele>
        <time>2023-04-05T14:26:44Z</time>
      </trkpt>
      <trkpt lat="48.02484" lon="-3.70081">
        <ele>173.7</ele>
        <time>2023-04-05T14:26:45Z</time>
      </trkpt>
      <trkpt lat="48.02482" lon="-3.70087">
        <ele>173.8</ele>
        <time>2023-04-05T14:26:46Z</time>
      </trkpt>
      <trkpt lat="48.02481" lon="-3.70092">
        <ele>174</ele>
        <time>2023-04-05T14:26:47Z</time>
      </trkpt>
      <trkpt lat="48.02479" lon="-3.70097">
        <ele>174.1</ele>
        <time>2023-04-05T14:26:48Z</time>
      </trkpt>
      <trkpt lat="48.02478" lon="-3.70102">
        <ele>174.2</ele>
        <time>2023-04-05T14:26:49Z</time>
      </trkpt>
      <trkpt lat="48.02477" lon="-3.70108">
        <ele>174.4</ele>
        <time>2023-04-05T14:26:50Z</time>
      </trkpt>
      <trkpt lat="48.02475" lon="-3.70113">
        <ele>174.5</ele>
        <time>2023-04-05T14:26:51Z</time>
      </trkpt>
      <trkpt lat="48.02474" lon="-3.70118">
        <ele>174.6</ele>
        <time>2023-04-05T14:26:52Z</time>
      </trkpt>
      <trkpt lat="48.02474" lon="-3.70123">
        <ele>174.7</ele>
        <time>2023-04-05T14:26:53Z</time>
      </trkpt>
      <trkpt lat="48.02473" lon="-3.70126">
        <ele>174.8</ele>
        <time>2023-04-05T14:26:54Z</time>
      </trkpt>
      <trkpt lat="48.02473" lon="-3.70128">
        <ele>174.8</ele>
        <time>2023-04-05T14:26:55Z</time>
      </trkpt>
      <trkpt lat="48.02473" lon="-3.70129">
        <ele>174.9</ele>
        <time>2023-04-05T14:26:56Z</time>
      </trkpt>
      <trkpt lat="48.0247" lon="-3.70132">
        <ele>175</ele>
        <time>2023-04-05T14:26:57Z</time>
      </trkpt>
      <trkpt lat="48.02469" lon="-3.70134">
        <ele>175</ele>
        <time>2023-04-05T14:26:58Z</time>
      </trkpt>
      <trkpt lat="48.02468" lon="-3.70138">
        <ele>175.1</ele>
        <time>2023-04-05T14:26:59Z</time>
      </trkpt>
      <trkpt lat="48.02469" lon="-3.70157">
        <ele>175.2</ele>
        <time>2023-04-05T14:27:00Z</time>
      </trkpt>
      <trkpt lat="48.02468" lon="-3.70165">
        <ele>175.2</ele>
        <time>2023-04-05T14:27:01Z</time>
      </trkpt>
      <trkpt lat="48.02468" lon="-3.70173">
        <ele>175.3</ele>
        <time>2023-04-05T14:27:02Z</time>
      </trkpt>
      <trkpt lat="48.02467" lon="-3.70181">
        <ele>175.3</ele>
        <time>2023-04-05T14:27:03Z</time>
      </trkpt>
      <trkpt lat="48.02466" lon="-3.70188">
        <ele>175.4</ele>
        <time>2023-04-05T14:27:04Z</time>
      </trkpt>
      <trkpt lat="48.02465" lon="-3.70193">
        <ele>175.4</ele>
        <time>2023-04-05T14:27:05Z</time>
      </trkpt>
      <trkpt lat="48.02464" lon="-3.70202">
        <ele>175.5</ele>
        <time>2023-04-05T14:27:06Z</time>
      </trkpt>
      <trkpt lat="48.02464" lon="-3.7021">
        <ele>175.6</ele>
        <time>2023-04-05T14:27:08Z</time>
      </trkpt>
      <trkpt lat="48.02464" lon="-3.70221">
        <ele>175.7</ele>
        <time>2023-04-05T14:27:09Z</time>
      </trkpt>
      <trkpt lat="48.02464" lon="-3.70228">
        <ele>175.7</ele>
        <time>2023-04-05T14:27:11Z</time>
      </trkpt>
      <trkpt lat="48.02464" lon="-3.7024">
        <ele>175.8</ele>
        <time>2023-04-05T14:27:12Z</time>
      </trkpt>
      <trkpt lat="48.02464" lon="-3.70247">
        <ele>175.9</ele>
        <time>2023-04-05T14:27:14Z</time>
      </trkpt>
      <trkpt lat="48.02464" lon="-3.70254">
        <ele>175.9</ele>
        <time>2023-04-05T14:27:15Z</time>
      </trkpt>
      <trkpt lat="48.02465" lon="-3.70261">
        <ele>175.9</ele>
        <time>2023-04-05T14:27:16Z</time>
      </trkpt>
      <trkpt lat="48.02465" lon="-3.70266">
        <ele>176</ele>
        <time>2023-04-05T14:27:17Z</time>
      </trkpt>
      <trkpt lat="48.02465" lon="-3.70273">
        <ele>176</ele>
        <time>2023-04-05T14:27:18Z</time>
      </trkpt>
      <trkpt lat="48.02466" lon="-3.70279">
        <ele>176</ele>
        <time>2023-04-05T14:27:19Z</time>
      </trkpt>
      <trkpt lat="48.02466" lon="-3.70287">
        <ele>176.1</ele>
        <time>2023-04-05T14:27:20Z</time>
      </trkpt>
      <trkpt lat="48.02466" lon="-3.70294">
        <ele>176.1</ele>
        <time>2023-04-05T14:27:21Z</time>
      </trkpt>
      <trkpt lat="48.02467" lon="-3.70304">
        <ele>176.2</ele>
        <time>2023-04-05T14:27:23Z</time>
      </trkpt>
      <trkpt lat="48.02468" lon="-3.70316">
        <ele>176.2</ele>
        <time>2023-04-05T14:27:24Z</time>
      </trkpt>
      <trkpt lat="48.02469" lon="-3.70324">
        <ele>176.3</ele>
        <time>2023-04-05T14:27:26Z</time>
      </trkpt>
      <trkpt lat="48.02469" lon="-3.7033">
        <ele>176.3</ele>
        <time>2023-04-05T14:27:27Z</time>
      </trkpt>
      <trkpt lat="48.02471" lon="-3.70341">
        <ele>176.3</ele>
        <time>2023-04-05T14:27:28Z</time>
      </trkpt>
      <trkpt lat="48.02472" lon="-3.70348">
        <ele>176.3</ele>
        <time>2023-04-05T14:27:29Z</time>
      </trkpt>
      <trkpt lat="48.02473" lon="-3.70354">
        <ele>176.3</ele>
        <time>2023-04-05T14:27:30Z</time>
      </trkpt>
      <trkpt lat="48.02475" lon="-3.70361">
        <ele>176.3</ele>
        <time>2023-04-05T14:27:31Z</time>
      </trkpt>
      <trkpt lat="48.02475" lon="-3.70368">
        <ele>176.4</ele>
        <time>2023-04-05T14:27:33Z</time>
      </trkpt>
      <trkpt lat="48.02476" lon="-3.70374">
        <ele>176.4</ele>
        <time>2023-04-05T14:27:34Z</time>
      </trkpt>
      <trkpt lat="48.02477" lon="-3.7038">
        <ele>176.4</ele>
        <time>2023-04-05T14:27:35Z</time>
      </trkpt>
      <trkpt lat="48.02478" lon="-3.70387">
        <ele>176.4</ele>
        <time>2023-04-05T14:27:36Z</time>
      </trkpt>
      <trkpt lat="48.02478" lon="-3.70394">
        <ele>176.5</ele>
        <time>2023-04-05T14:27:37Z</time>
      </trkpt>
      <trkpt lat="48.02478" lon="-3.7041">
        <ele>176.6</ele>
        <time>2023-04-05T14:27:39Z</time>
      </trkpt>
      <trkpt lat="48.02481" lon="-3.70423">
        <ele>176.6</ele>
        <time>2023-04-05T14:27:41Z</time>
      </trkpt>
      <trkpt lat="48.02481" lon="-3.7043">
        <ele>176.7</ele>
        <time>2023-04-05T14:27:42Z</time>
      </trkpt>
      <trkpt lat="48.02481" lon="-3.70437">
        <ele>176.7</ele>
        <time>2023-04-05T14:27:43Z</time>
      </trkpt>
      <trkpt lat="48.02484" lon="-3.70444">
        <ele>176.8</ele>
        <time>2023-04-05T14:27:44Z</time>
      </trkpt>
      <trkpt lat="48.02483" lon="-3.70454">
        <ele>176.8</ele>
        <time>2023-04-05T14:27:46Z</time>
      </trkpt>
      <trkpt lat="48.02483" lon="-3.7046">
        <ele>176.8</ele>
        <time>2023-04-05T14:27:47Z</time>
      </trkpt>
      <trkpt lat="48.02484" lon="-3.70465">
        <ele>176.8</ele>
        <time>2023-04-05T14:27:48Z</time>
      </trkpt>
      <trkpt lat="48.02485" lon="-3.7047">
        <ele>176.8</ele>
        <time>2023-04-05T14:27:49Z</time>
      </trkpt>
      <trkpt lat="48.02486" lon="-3.70476">
        <ele>176.8</ele>
        <time>2023-04-05T14:27:50Z</time>
      </trkpt>
      <trkpt lat="48.02486" lon="-3.70478">
        <ele>176.7</ele>
        <time>2023-04-05T14:27:51Z</time>
      </trkpt>
      <trkpt lat="48.02488" lon="-3.70482">
        <ele>176.7</ele>
        <time>2023-04-05T14:27:52Z</time>
      </trkpt>
      <trkpt lat="48.02489" lon="-3.70488">
        <ele>176.7</ele>
        <time>2023-04-05T14:27:53Z</time>
      </trkpt>
      <trkpt lat="48.0249" lon="-3.70495">
        <ele>176.6</ele>
        <time>2023-04-05T14:27:54Z</time>
      </trkpt>
      <trkpt lat="48.02492" lon="-3.70507">
        <ele>176.6</ele>
        <time>2023-04-05T14:27:55Z</time>
      </trkpt>
      <trkpt lat="48.02493" lon="-3.7052">
        <ele>176.5</ele>
        <time>2023-04-05T14:27:57Z</time>
      </trkpt>
      <trkpt lat="48.02493" lon="-3.70528">
        <ele>176.5</ele>
        <time>2023-04-05T14:27:59Z</time>
      </trkpt>
      <trkpt lat="48.02493" lon="-3.70535">
        <ele>176.4</ele>
        <time>2023-04-05T14:28:00Z</time>
      </trkpt>
      <trkpt lat="48.02493" lon="-3.70542">
        <ele>176.4</ele>
        <time>2023-04-05T14:28:01Z</time>
      </trkpt>
      <trkpt lat="48.02493" lon="-3.70549">
        <ele>176.4</ele>
        <time>2023-04-05T14:28:02Z</time>
      </trkpt>
      <trkpt lat="48.02494" lon="-3.70557">
        <ele>176.3</ele>
        <time>2023-04-05T14:28:03Z</time>
      </trkpt>
      <trkpt lat="48.02495" lon="-3.70564">
        <ele>176.3</ele>
        <time>2023-04-05T14:28:04Z</time>
      </trkpt>
      <trkpt lat="48.02496" lon="-3.7057">
        <ele>176.3</ele>
        <time>2023-04-05T14:28:05Z</time>
      </trkpt>
      <trkpt lat="48.02496" lon="-3.70577">
        <ele>176.3</ele>
        <time>2023-04-05T14:28:06Z</time>
      </trkpt>
      <trkpt lat="48.02497" lon="-3.70585">
        <ele>176.2</ele>
        <time>2023-04-05T14:28:07Z</time>
      </trkpt>
      <trkpt lat="48.02499" lon="-3.70592">
        <ele>176.2</ele>
        <time>2023-04-05T14:28:08Z</time>
      </trkpt>
      <trkpt lat="48.025" lon="-3.706">
        <ele>176.2</ele>
        <time>2023-04-05T14:28:09Z</time>
      </trkpt>
      <trkpt lat="48.02501" lon="-3.70607">
        <ele>176.1</ele>
        <time>2023-04-05T14:28:10Z</time>
      </trkpt>
      <trkpt lat="48.02502" lon="-3.70614">
        <ele>176.1</ele>
        <time>2023-04-05T14:28:11Z</time>
      </trkpt>
      <trkpt lat="48.02503" lon="-3.70621">
        <ele>176.1</ele>
        <time>2023-04-05T14:28:12Z</time>
      </trkpt>
      <trkpt lat="48.02504" lon="-3.70628">
        <ele>176.1</ele>
        <time>2023-04-05T14:28:13Z</time>
      </trkpt>
      <trkpt lat="48.02505" lon="-3.70635">
        <ele>176.1</ele>
        <time>2023-04-05T14:28:14Z</time>
      </trkpt>
      <trkpt lat="48.02506" lon="-3.70643">
        <ele>176.1</ele>
        <time>2023-04-05T14:28:15Z</time>
      </trkpt>
      <trkpt lat="48.02506" lon="-3.7065">
        <ele>176.1</ele>
        <time>2023-04-05T14:28:16Z</time>
      </trkpt>
      <trkpt lat="48.02507" lon="-3.70657">
        <ele>176.1</ele>
        <time>2023-04-05T14:28:17Z</time>
      </trkpt>
      <trkpt lat="48.02508" lon="-3.70664">
        <ele>176.1</ele>
        <time>2023-04-05T14:28:18Z</time>
      </trkpt>
      <trkpt lat="48.02509" lon="-3.70671">
        <ele>176.1</ele>
        <time>2023-04-05T14:28:19Z</time>
      </trkpt>
      <trkpt lat="48.02511" lon="-3.7068">
        <ele>176.1</ele>
        <time>2023-04-05T14:28:20Z</time>
      </trkpt>
      <trkpt lat="48.02513" lon="-3.70688">
        <ele>176.1</ele>
        <time>2023-04-05T14:28:21Z</time>
      </trkpt>
      <trkpt lat="48.02513" lon="-3.70696">
        <ele>176.1</ele>
        <time>2023-04-05T14:28:22Z</time>
      </trkpt>
      <trkpt lat="48.02514" lon="-3.70703">
        <ele>176.1</ele>
        <time>2023-04-05T14:28:23Z</time>
      </trkpt>
      <trkpt lat="48.02515" lon="-3.7071">
        <ele>176.1</ele>
        <time>2023-04-05T14:28:24Z</time>
      </trkpt>
      <trkpt lat="48.02516" lon="-3.70717">
        <ele>176.1</ele>
        <time>2023-04-05T14:28:25Z</time>
      </trkpt>
      <trkpt lat="48.02516" lon="-3.70724">
        <ele>176.1</ele>
        <time>2023-04-05T14:28:26Z</time>
      </trkpt>
      <trkpt lat="48.02517" lon="-3.70731">
        <ele>176.1</ele>
        <time>2023-04-05T14:28:27Z</time>
      </trkpt>
      <trkpt lat="48.02517" lon="-3.70738">
        <ele>176.1</ele>
        <time>2023-04-05T14:28:28Z</time>
      </trkpt>
      <trkpt lat="48.02517" lon="-3.70744">
        <ele>176.1</ele>
        <time>2023-04-05T14:28:29Z</time>
      </trkpt>
      <trkpt lat="48.02517" lon="-3.70751">
        <ele>176.1</ele>
        <time>2023-04-05T14:28:30Z</time>
      </trkpt>
      <trkpt lat="48.02517" lon="-3.70758">
        <ele>176.1</ele>
        <time>2023-04-05T14:28:31Z</time>
      </trkpt>
      <trkpt lat="48.02518" lon="-3.70765">
        <ele>176.1</ele>
        <time>2023-04-05T14:28:32Z</time>
      </trkpt>
      <trkpt lat="48.02518" lon="-3.70772">
        <ele>176.1</ele>
        <time>2023-04-05T14:28:33Z</time>
      </trkpt>
      <trkpt lat="48.02518" lon="-3.70779">
        <ele>176.1</ele>
        <time>2023-04-05T14:28:34Z</time>
      </trkpt>
      <trkpt lat="48.02519" lon="-3.70786">
        <ele>176.1</ele>
        <time>2023-04-05T14:28:35Z</time>
      </trkpt>
      <trkpt lat="48.02519" lon="-3.70793">
        <ele>176.1</ele>
        <time>2023-04-05T14:28:36Z</time>
      </trkpt>
      <trkpt lat="48.02518" lon="-3.70801">
        <ele>176</ele>
        <time>2023-04-05T14:28:37Z</time>
      </trkpt>
      <trkpt lat="48.02518" lon="-3.70809">
        <ele>176</ele>
        <time>2023-04-05T14:28:38Z</time>
      </trkpt>
      <trkpt lat="48.02517" lon="-3.70816">
        <ele>176</ele>
        <time>2023-04-05T14:28:39Z</time>
      </trkpt>
      <trkpt lat="48.02516" lon="-3.70824">
        <ele>176</ele>
        <time>2023-04-05T14:28:40Z</time>
      </trkpt>
      <trkpt lat="48.02516" lon="-3.70831">
        <ele>176</ele>
        <time>2023-04-05T14:28:41Z</time>
      </trkpt>
      <trkpt lat="48.02514" lon="-3.70839">
        <ele>176</ele>
        <time>2023-04-05T14:28:42Z</time>
      </trkpt>
      <trkpt lat="48.02513" lon="-3.70846">
        <ele>176</ele>
        <time>2023-04-05T14:28:43Z</time>
      </trkpt>
      <trkpt lat="48.02511" lon="-3.70853">
        <ele>176</ele>
        <time>2023-04-05T14:28:44Z</time>
      </trkpt>
      <trkpt lat="48.02509" lon="-3.70859">
        <ele>176</ele>
        <time>2023-04-05T14:28:45Z</time>
      </trkpt>
      <trkpt lat="48.02507" lon="-3.70866">
        <ele>176</ele>
        <time>2023-04-05T14:28:46Z</time>
      </trkpt>
      <trkpt lat="48.02505" lon="-3.70872">
        <ele>176</ele>
        <time>2023-04-05T14:28:47Z</time>
      </trkpt>
      <trkpt lat="48.02504" lon="-3.70878">
        <ele>176</ele>
        <time>2023-04-05T14:28:48Z</time>
      </trkpt>
      <trkpt lat="48.02502" lon="-3.70884">
        <ele>176.1</ele>
        <time>2023-04-05T14:28:49Z</time>
      </trkpt>
      <trkpt lat="48.025" lon="-3.70891">
        <ele>176.1</ele>
        <time>2023-04-05T14:28:50Z</time>
      </trkpt>
      <trkpt lat="48.02498" lon="-3.70898">
        <ele>176.1</ele>
        <time>2023-04-05T14:28:51Z</time>
      </trkpt>
      <trkpt lat="48.02497" lon="-3.70905">
        <ele>176</ele>
        <time>2023-04-05T14:28:52Z</time>
      </trkpt>
      <trkpt lat="48.02494" lon="-3.70911">
        <ele>176</ele>
        <time>2023-04-05T14:28:53Z</time>
      </trkpt>
      <trkpt lat="48.02492" lon="-3.70918">
        <ele>176</ele>
        <time>2023-04-05T14:28:54Z</time>
      </trkpt>
      <trkpt lat="48.0249" lon="-3.70925">
        <ele>176</ele>
        <time>2023-04-05T14:28:55Z</time>
      </trkpt>
      <trkpt lat="48.02487" lon="-3.70931">
        <ele>176</ele>
        <time>2023-04-05T14:28:56Z</time>
      </trkpt>
      <trkpt lat="48.02485" lon="-3.70938">
        <ele>176</ele>
        <time>2023-04-05T14:28:57Z</time>
      </trkpt>
      <trkpt lat="48.02483" lon="-3.70945">
        <ele>176</ele>
        <time>2023-04-05T14:28:58Z</time>
      </trkpt>
      <trkpt lat="48.02481" lon="-3.70951">
        <ele>176</ele>
        <time>2023-04-05T14:28:59Z</time>
      </trkpt>
      <trkpt lat="48.02477" lon="-3.70957">
        <ele>176</ele>
        <time>2023-04-05T14:29:00Z</time>
      </trkpt>
      <trkpt lat="48.02475" lon="-3.70963">
        <ele>176</ele>
        <time>2023-04-05T14:29:01Z</time>
      </trkpt>
      <trkpt lat="48.02473" lon="-3.7097">
        <ele>176</ele>
        <time>2023-04-05T14:29:02Z</time>
      </trkpt>
      <trkpt lat="48.0247" lon="-3.70976">
        <ele>176</ele>
        <time>2023-04-05T14:29:03Z</time>
      </trkpt>
      <trkpt lat="48.02467" lon="-3.70982">
        <ele>175.9</ele>
        <time>2023-04-05T14:29:04Z</time>
      </trkpt>
      <trkpt lat="48.02464" lon="-3.70988">
        <ele>175.9</ele>
        <time>2023-04-05T14:29:05Z</time>
      </trkpt>
      <trkpt lat="48.02461" lon="-3.70993">
        <ele>175.9</ele>
        <time>2023-04-05T14:29:06Z</time>
      </trkpt>
      <trkpt lat="48.02459" lon="-3.71">
        <ele>175.9</ele>
        <time>2023-04-05T14:29:07Z</time>
      </trkpt>
      <trkpt lat="48.02457" lon="-3.71007">
        <ele>175.9</ele>
        <time>2023-04-05T14:29:08Z</time>
      </trkpt>
      <trkpt lat="48.02454" lon="-3.71014">
        <ele>175.9</ele>
        <time>2023-04-05T14:29:09Z</time>
      </trkpt>
      <trkpt lat="48.02452" lon="-3.71021">
        <ele>175.9</ele>
        <time>2023-04-05T14:29:10Z</time>
      </trkpt>
      <trkpt lat="48.02449" lon="-3.71027">
        <ele>175.9</ele>
        <time>2023-04-05T14:29:11Z</time>
      </trkpt>
      <trkpt lat="48.02447" lon="-3.71033">
        <ele>175.9</ele>
        <time>2023-04-05T14:29:12Z</time>
      </trkpt>
      <trkpt lat="48.02444" lon="-3.71039">
        <ele>175.9</ele>
        <time>2023-04-05T14:29:13Z</time>
      </trkpt>
      <trkpt lat="48.02442" lon="-3.71046">
        <ele>175.9</ele>
        <time>2023-04-05T14:29:14Z</time>
      </trkpt>
      <trkpt lat="48.02439" lon="-3.71052">
        <ele>175.9</ele>
        <time>2023-04-05T14:29:15Z</time>
      </trkpt>
      <trkpt lat="48.02437" lon="-3.71058">
        <ele>175.9</ele>
        <time>2023-04-05T14:29:16Z</time>
      </trkpt>
      <trkpt lat="48.02435" lon="-3.71064">
        <ele>175.9</ele>
        <time>2023-04-05T14:29:17Z</time>
      </trkpt>
      <trkpt lat="48.02432" lon="-3.7107">
        <ele>175.9</ele>
        <time>2023-04-05T14:29:18Z</time>
      </trkpt>
      <trkpt lat="48.02429" lon="-3.71076">
        <ele>175.9</ele>
        <time>2023-04-05T14:29:19Z</time>
      </trkpt>
      <trkpt lat="48.02425" lon="-3.71082">
        <ele>175.8</ele>
        <time>2023-04-05T14:29:20Z</time>
      </trkpt>
      <trkpt lat="48.02422" lon="-3.71089">
        <ele>175.8</ele>
        <time>2023-04-05T14:29:21Z</time>
      </trkpt>
      <trkpt lat="48.02419" lon="-3.71096">
        <ele>175.8</ele>
        <time>2023-04-05T14:29:22Z</time>
      </trkpt>
      <trkpt lat="48.02417" lon="-3.71103">
        <ele>175.8</ele>
        <time>2023-04-05T14:29:23Z</time>
      </trkpt>
      <trkpt lat="48.02414" lon="-3.71109">
        <ele>175.9</ele>
        <time>2023-04-05T14:29:24Z</time>
      </trkpt>
      <trkpt lat="48.02411" lon="-3.71116">
        <ele>175.9</ele>
        <time>2023-04-05T14:29:25Z</time>
      </trkpt>
      <trkpt lat="48.02409" lon="-3.71123">
        <ele>175.9</ele>
        <time>2023-04-05T14:29:26Z</time>
      </trkpt>
      <trkpt lat="48.02406" lon="-3.7113">
        <ele>175.9</ele>
        <time>2023-04-05T14:29:27Z</time>
      </trkpt>
      <trkpt lat="48.02403" lon="-3.71136">
        <ele>175.9</ele>
        <time>2023-04-05T14:29:28Z</time>
      </trkpt>
      <trkpt lat="48.02401" lon="-3.71143">
        <ele>175.8</ele>
        <time>2023-04-05T14:29:29Z</time>
      </trkpt>
      <trkpt lat="48.02399" lon="-3.71149">
        <ele>175.8</ele>
        <time>2023-04-05T14:29:30Z</time>
      </trkpt>
      <trkpt lat="48.02396" lon="-3.71156">
        <ele>175.8</ele>
        <time>2023-04-05T14:29:31Z</time>
      </trkpt>
      <trkpt lat="48.02393" lon="-3.71162">
        <ele>175.8</ele>
        <time>2023-04-05T14:29:32Z</time>
      </trkpt>
      <trkpt lat="48.0239" lon="-3.71169">
        <ele>175.8</ele>
        <time>2023-04-05T14:29:33Z</time>
      </trkpt>
      <trkpt lat="48.02387" lon="-3.71175">
        <ele>175.8</ele>
        <time>2023-04-05T14:29:34Z</time>
      </trkpt>
      <trkpt lat="48.02384" lon="-3.71182">
        <ele>175.8</ele>
        <time>2023-04-05T14:29:35Z</time>
      </trkpt>
      <trkpt lat="48.02381" lon="-3.71188">
        <ele>175.8</ele>
        <time>2023-04-05T14:29:36Z</time>
      </trkpt>
      <trkpt lat="48.02379" lon="-3.71194">
        <ele>175.9</ele>
        <time>2023-04-05T14:29:37Z</time>
      </trkpt>
      <trkpt lat="48.02376" lon="-3.71201">
        <ele>175.9</ele>
        <time>2023-04-05T14:29:38Z</time>
      </trkpt>
      <trkpt lat="48.02373" lon="-3.71207">
        <ele>175.9</ele>
        <time>2023-04-05T14:29:39Z</time>
      </trkpt>
      <trkpt lat="48.02371" lon="-3.71212">
        <ele>175.9</ele>
        <time>2023-04-05T14:29:40Z</time>
      </trkpt>
      <trkpt lat="48.02368" lon="-3.71217">
        <ele>175.9</ele>
        <time>2023-04-05T14:29:41Z</time>
      </trkpt>
      <trkpt lat="48.02366" lon="-3.71222">
        <ele>175.8</ele>
        <time>2023-04-05T14:29:42Z</time>
      </trkpt>
      <trkpt lat="48.02362" lon="-3.71229">
        <ele>175.7</ele>
        <time>2023-04-05T14:29:43Z</time>
      </trkpt>
      <trkpt lat="48.02359" lon="-3.71236">
        <ele>175.6</ele>
        <time>2023-04-05T14:29:44Z</time>
      </trkpt>
      <trkpt lat="48.02356" lon="-3.71243">
        <ele>175.5</ele>
        <time>2023-04-05T14:29:45Z</time>
      </trkpt>
      <trkpt lat="48.02353" lon="-3.7125">
        <ele>175.4</ele>
        <time>2023-04-05T14:29:46Z</time>
      </trkpt>
      <trkpt lat="48.0235" lon="-3.71257">
        <ele>175.3</ele>
        <time>2023-04-05T14:29:47Z</time>
      </trkpt>
      <trkpt lat="48.02347" lon="-3.71265">
        <ele>175.3</ele>
        <time>2023-04-05T14:29:48Z</time>
      </trkpt>
      <trkpt lat="48.02345" lon="-3.71271">
        <ele>175.3</ele>
        <time>2023-04-05T14:29:49Z</time>
      </trkpt>
      <trkpt lat="48.02343" lon="-3.71278">
        <ele>175.2</ele>
        <time>2023-04-05T14:29:50Z</time>
      </trkpt>
      <trkpt lat="48.0234" lon="-3.71284">
        <ele>175.2</ele>
        <time>2023-04-05T14:29:51Z</time>
      </trkpt>
      <trkpt lat="48.02338" lon="-3.7129">
        <ele>175.2</ele>
        <time>2023-04-05T14:29:52Z</time>
      </trkpt>
      <trkpt lat="48.02335" lon="-3.71296">
        <ele>175.2</ele>
        <time>2023-04-05T14:29:53Z</time>
      </trkpt>
      <trkpt lat="48.02332" lon="-3.71302">
        <ele>175.2</ele>
        <time>2023-04-05T14:29:54Z</time>
      </trkpt>
      <trkpt lat="48.02328" lon="-3.71309">
        <ele>175.2</ele>
        <time>2023-04-05T14:29:55Z</time>
      </trkpt>
      <trkpt lat="48.02325" lon="-3.71315">
        <ele>175.2</ele>
        <time>2023-04-05T14:29:56Z</time>
      </trkpt>
      <trkpt lat="48.02322" lon="-3.71321">
        <ele>175.3</ele>
        <time>2023-04-05T14:29:57Z</time>
      </trkpt>
      <trkpt lat="48.02319" lon="-3.71327">
        <ele>175.3</ele>
        <time>2023-04-05T14:29:58Z</time>
      </trkpt>
      <trkpt lat="48.02316" lon="-3.71334">
        <ele>175.2</ele>
        <time>2023-04-05T14:29:59Z</time>
      </trkpt>
      <trkpt lat="48.02314" lon="-3.71341">
        <ele>175.2</ele>
        <time>2023-04-05T14:30:00Z</time>
      </trkpt>
      <trkpt lat="48.02312" lon="-3.71348">
        <ele>175.2</ele>
        <time>2023-04-05T14:30:01Z</time>
      </trkpt>
      <trkpt lat="48.0231" lon="-3.71354">
        <ele>175.2</ele>
        <time>2023-04-05T14:30:02Z</time>
      </trkpt>
      <trkpt lat="48.02307" lon="-3.71361">
        <ele>175.2</ele>
        <time>2023-04-05T14:30:03Z</time>
      </trkpt>
      <trkpt lat="48.02305" lon="-3.71367">
        <ele>175.3</ele>
        <time>2023-04-05T14:30:04Z</time>
      </trkpt>
      <trkpt lat="48.02302" lon="-3.71374">
        <ele>175.3</ele>
        <time>2023-04-05T14:30:05Z</time>
      </trkpt>
      <trkpt lat="48.02299" lon="-3.71379">
        <ele>175.3</ele>
        <time>2023-04-05T14:30:06Z</time>
      </trkpt>
      <trkpt lat="48.02297" lon="-3.71384">
        <ele>175.3</ele>
        <time>2023-04-05T14:30:07Z</time>
      </trkpt>
      <trkpt lat="48.02295" lon="-3.71391">
        <ele>175.4</ele>
        <time>2023-04-05T14:30:08Z</time>
      </trkpt>
      <trkpt lat="48.02292" lon="-3.71398">
        <ele>175.4</ele>
        <time>2023-04-05T14:30:09Z</time>
      </trkpt>
      <trkpt lat="48.02289" lon="-3.71404">
        <ele>175.5</ele>
        <time>2023-04-05T14:30:10Z</time>
      </trkpt>
      <trkpt lat="48.02287" lon="-3.71411">
        <ele>175.5</ele>
        <time>2023-04-05T14:30:11Z</time>
      </trkpt>
      <trkpt lat="48.02284" lon="-3.71417">
        <ele>175.6</ele>
        <time>2023-04-05T14:30:12Z</time>
      </trkpt>
      <trkpt lat="48.02282" lon="-3.71423">
        <ele>175.6</ele>
        <time>2023-04-05T14:30:13Z</time>
      </trkpt>
      <trkpt lat="48.0228" lon="-3.7143">
        <ele>175.7</ele>
        <time>2023-04-05T14:30:14Z</time>
      </trkpt>
      <trkpt lat="48.02277" lon="-3.71436">
        <ele>175.7</ele>
        <time>2023-04-05T14:30:15Z</time>
      </trkpt>
      <trkpt lat="48.02274" lon="-3.71442">
        <ele>175.8</ele>
        <time>2023-04-05T14:30:16Z</time>
      </trkpt>
      <trkpt lat="48.02272" lon="-3.71448">
        <ele>175.8</ele>
        <time>2023-04-05T14:30:17Z</time>
      </trkpt>
      <trkpt lat="48.0227" lon="-3.71453">
        <ele>175.9</ele>
        <time>2023-04-05T14:30:18Z</time>
      </trkpt>
      <trkpt lat="48.02267" lon="-3.71458">
        <ele>175.9</ele>
        <time>2023-04-05T14:30:19Z</time>
      </trkpt>
      <trkpt lat="48.02265" lon="-3.71465">
        <ele>176</ele>
        <time>2023-04-05T14:30:20Z</time>
      </trkpt>
      <trkpt lat="48.02263" lon="-3.7147">
        <ele>176</ele>
        <time>2023-04-05T14:30:21Z</time>
      </trkpt>
      <trkpt lat="48.02261" lon="-3.71475">
        <ele>176.1</ele>
        <time>2023-04-05T14:30:22Z</time>
      </trkpt>
      <trkpt lat="48.02259" lon="-3.71479">
        <ele>176.1</ele>
        <time>2023-04-05T14:30:23Z</time>
      </trkpt>
      <trkpt lat="48.02256" lon="-3.71485">
        <ele>176.2</ele>
        <time>2023-04-05T14:30:24Z</time>
      </trkpt>
      <trkpt lat="48.02252" lon="-3.71493">
        <ele>176.3</ele>
        <time>2023-04-05T14:30:25Z</time>
      </trkpt>
      <trkpt lat="48.02247" lon="-3.71507">
        <ele>176.5</ele>
        <time>2023-04-05T14:30:27Z</time>
      </trkpt>
      <trkpt lat="48.02245" lon="-3.71513">
        <ele>176.6</ele>
        <time>2023-04-05T14:30:29Z</time>
      </trkpt>
      <trkpt lat="48.02243" lon="-3.71518">
        <ele>176.7</ele>
        <time>2023-04-05T14:30:30Z</time>
      </trkpt>
      <trkpt lat="48.0224" lon="-3.71523">
        <ele>176.7</ele>
        <time>2023-04-05T14:30:31Z</time>
      </trkpt>
      <trkpt lat="48.02238" lon="-3.71528">
        <ele>176.8</ele>
        <time>2023-04-05T14:30:32Z</time>
      </trkpt>
      <trkpt lat="48.02235" lon="-3.71538">
        <ele>176.9</ele>
        <time>2023-04-05T14:30:33Z</time>
      </trkpt>
      <trkpt lat="48.02232" lon="-3.71544">
        <ele>177</ele>
        <time>2023-04-05T14:30:35Z</time>
      </trkpt>
      <trkpt lat="48.02229" lon="-3.71549">
        <ele>177.1</ele>
        <time>2023-04-05T14:30:36Z</time>
      </trkpt>
      <trkpt lat="48.02224" lon="-3.7156">
        <ele>177.2</ele>
        <time>2023-04-05T14:30:37Z</time>
      </trkpt>
      <trkpt lat="48.02222" lon="-3.71565">
        <ele>177.3</ele>
        <time>2023-04-05T14:30:38Z</time>
      </trkpt>
      <trkpt lat="48.0222" lon="-3.71572">
        <ele>177.4</ele>
        <time>2023-04-05T14:30:40Z</time>
      </trkpt>
      <trkpt lat="48.02215" lon="-3.71581">
        <ele>177.5</ele>
        <time>2023-04-05T14:30:41Z</time>
      </trkpt>
      <trkpt lat="48.02213" lon="-3.71587">
        <ele>177.5</ele>
        <time>2023-04-05T14:30:42Z</time>
      </trkpt>
      <trkpt lat="48.02209" lon="-3.71599">
        <ele>177.7</ele>
        <time>2023-04-05T14:30:44Z</time>
      </trkpt>
      <trkpt lat="48.02207" lon="-3.71604">
        <ele>177.8</ele>
        <time>2023-04-05T14:30:46Z</time>
      </trkpt>
      <trkpt lat="48.02204" lon="-3.7161">
        <ele>177.9</ele>
        <time>2023-04-05T14:30:47Z</time>
      </trkpt>
      <trkpt lat="48.02203" lon="-3.71617">
        <ele>178</ele>
        <time>2023-04-05T14:30:48Z</time>
      </trkpt>
      <trkpt lat="48.02201" lon="-3.71622">
        <ele>178</ele>
        <time>2023-04-05T14:30:49Z</time>
      </trkpt>
      <trkpt lat="48.02198" lon="-3.71626">
        <ele>178.1</ele>
        <time>2023-04-05T14:30:50Z</time>
      </trkpt>
      <trkpt lat="48.02196" lon="-3.71631">
        <ele>178.2</ele>
        <time>2023-04-05T14:30:51Z</time>
      </trkpt>
      <trkpt lat="48.02194" lon="-3.71636">
        <ele>178.3</ele>
        <time>2023-04-05T14:30:52Z</time>
      </trkpt>
      <trkpt lat="48.02192" lon="-3.71642">
        <ele>178.4</ele>
        <time>2023-04-05T14:30:53Z</time>
      </trkpt>
      <trkpt lat="48.0219" lon="-3.71647">
        <ele>178.4</ele>
        <time>2023-04-05T14:30:54Z</time>
      </trkpt>
      <trkpt lat="48.02188" lon="-3.71652">
        <ele>178.5</ele>
        <time>2023-04-05T14:30:55Z</time>
      </trkpt>
      <trkpt lat="48.02185" lon="-3.71656">
        <ele>178.5</ele>
        <time>2023-04-05T14:30:56Z</time>
      </trkpt>
      <trkpt lat="48.02184" lon="-3.7166">
        <ele>178.6</ele>
        <time>2023-04-05T14:30:57Z</time>
      </trkpt>
      <trkpt lat="48.02181" lon="-3.71665">
        <ele>178.7</ele>
        <time>2023-04-05T14:30:58Z</time>
      </trkpt>
      <trkpt lat="48.02179" lon="-3.7167">
        <ele>178.7</ele>
        <time>2023-04-05T14:30:59Z</time>
      </trkpt>
      <trkpt lat="48.02178" lon="-3.71672">
        <ele>178.8</ele>
        <time>2023-04-05T14:31:00Z</time>
      </trkpt>
      <trkpt lat="48.02178" lon="-3.71673">
        <ele>178.8</ele>
        <time>2023-04-05T14:31:01Z</time>
      </trkpt>
      <trkpt lat="48.02176" lon="-3.71677">
        <ele>178.8</ele>
        <time>2023-04-05T14:31:02Z</time>
      </trkpt>
      <trkpt lat="48.02174" lon="-3.71682">
        <ele>178.9</ele>
        <time>2023-04-05T14:31:03Z</time>
      </trkpt>
      <trkpt lat="48.02173" lon="-3.71683">
        <ele>178.9</ele>
        <time>2023-04-05T14:31:04Z</time>
      </trkpt>
      <trkpt lat="48.02172" lon="-3.71687">
        <ele>179</ele>
        <time>2023-04-05T14:31:05Z</time>
      </trkpt>
      <trkpt lat="48.0217" lon="-3.71691">
        <ele>179</ele>
        <time>2023-04-05T14:31:06Z</time>
      </trkpt>
      <trkpt lat="48.02168" lon="-3.71696">
        <ele>179.1</ele>
        <time>2023-04-05T14:31:07Z</time>
      </trkpt>
      <trkpt lat="48.02165" lon="-3.71701">
        <ele>179.2</ele>
        <time>2023-04-05T14:31:08Z</time>
      </trkpt>
      <trkpt lat="48.02162" lon="-3.71707">
        <ele>179.3</ele>
        <time>2023-04-05T14:31:09Z</time>
      </trkpt>
      <trkpt lat="48.0216" lon="-3.71712">
        <ele>179.3</ele>
        <time>2023-04-05T14:31:10Z</time>
      </trkpt>
      <trkpt lat="48.02158" lon="-3.71718">
        <ele>179.4</ele>
        <time>2023-04-05T14:31:11Z</time>
      </trkpt>
      <trkpt lat="48.02154" lon="-3.71725">
        <ele>179.5</ele>
        <time>2023-04-05T14:31:12Z</time>
      </trkpt>
      <trkpt lat="48.02151" lon="-3.71736">
        <ele>179.6</ele>
        <time>2023-04-05T14:31:14Z</time>
      </trkpt>
      <trkpt lat="48.02149" lon="-3.71741">
        <ele>179.6</ele>
        <time>2023-04-05T14:31:16Z</time>
      </trkpt>
      <trkpt lat="48.02147" lon="-3.71745">
        <ele>179.7</ele>
        <time>2023-04-05T14:31:17Z</time>
      </trkpt>
      <trkpt lat="48.02145" lon="-3.7175">
        <ele>179.7</ele>
        <time>2023-04-05T14:31:18Z</time>
      </trkpt>
      <trkpt lat="48.02142" lon="-3.71756">
        <ele>179.8</ele>
        <time>2023-04-05T14:31:19Z</time>
      </trkpt>
      <trkpt lat="48.0214" lon="-3.71761">
        <ele>179.9</ele>
        <time>2023-04-05T14:31:20Z</time>
      </trkpt>
      <trkpt lat="48.02138" lon="-3.71766">
        <ele>179.9</ele>
        <time>2023-04-05T14:31:21Z</time>
      </trkpt>
      <trkpt lat="48.02135" lon="-3.71771">
        <ele>180</ele>
        <time>2023-04-05T14:31:22Z</time>
      </trkpt>
      <trkpt lat="48.02133" lon="-3.71775">
        <ele>180</ele>
        <time>2023-04-05T14:31:23Z</time>
      </trkpt>
      <trkpt lat="48.02131" lon="-3.7178">
        <ele>180.1</ele>
        <time>2023-04-05T14:31:24Z</time>
      </trkpt>
      <trkpt lat="48.02129" lon="-3.71785">
        <ele>180.1</ele>
        <time>2023-04-05T14:31:25Z</time>
      </trkpt>
      <trkpt lat="48.02128" lon="-3.7179">
        <ele>180.2</ele>
        <time>2023-04-05T14:31:26Z</time>
      </trkpt>
      <trkpt lat="48.02124" lon="-3.718">
        <ele>180.3</ele>
        <time>2023-04-05T14:31:27Z</time>
      </trkpt>
      <trkpt lat="48.02122" lon="-3.71805">
        <ele>180.4</ele>
        <time>2023-04-05T14:31:28Z</time>
      </trkpt>
      <trkpt lat="48.0212" lon="-3.71809">
        <ele>180.4</ele>
        <time>2023-04-05T14:31:30Z</time>
      </trkpt>
      <trkpt lat="48.02119" lon="-3.71815">
        <ele>180.4</ele>
        <time>2023-04-05T14:31:31Z</time>
      </trkpt>
      <trkpt lat="48.02116" lon="-3.71821">
        <ele>180.5</ele>
        <time>2023-04-05T14:31:32Z</time>
      </trkpt>
      <trkpt lat="48.02114" lon="-3.71826">
        <ele>180.5</ele>
        <time>2023-04-05T14:31:33Z</time>
      </trkpt>
      <trkpt lat="48.02111" lon="-3.7183">
        <ele>180.5</ele>
        <time>2023-04-05T14:31:34Z</time>
      </trkpt>
      <trkpt lat="48.02108" lon="-3.71836">
        <ele>180.5</ele>
        <time>2023-04-05T14:31:35Z</time>
      </trkpt>
      <trkpt lat="48.02106" lon="-3.71842">
        <ele>180.5</ele>
        <time>2023-04-05T14:31:36Z</time>
      </trkpt>
      <trkpt lat="48.02103" lon="-3.71847">
        <ele>180.6</ele>
        <time>2023-04-05T14:31:37Z</time>
      </trkpt>
      <trkpt lat="48.02102" lon="-3.71851">
        <ele>180.6</ele>
        <time>2023-04-05T14:31:38Z</time>
      </trkpt>
      <trkpt lat="48.02099" lon="-3.71857">
        <ele>180.6</ele>
        <time>2023-04-05T14:31:39Z</time>
      </trkpt>
      <trkpt lat="48.02097" lon="-3.71863">
        <ele>180.6</ele>
        <time>2023-04-05T14:31:40Z</time>
      </trkpt>
      <trkpt lat="48.02095" lon="-3.71869">
        <ele>180.6</ele>
        <time>2023-04-05T14:31:41Z</time>
      </trkpt>
      <trkpt lat="48.02092" lon="-3.71874">
        <ele>180.7</ele>
        <time>2023-04-05T14:31:42Z</time>
      </trkpt>
      <trkpt lat="48.02089" lon="-3.71882">
        <ele>180.7</ele>
        <time>2023-04-05T14:31:43Z</time>
      </trkpt>
      <trkpt lat="48.02087" lon="-3.71886">
        <ele>180.7</ele>
        <time>2023-04-05T14:31:44Z</time>
      </trkpt>
      <trkpt lat="48.02084" lon="-3.71892">
        <ele>180.7</ele>
        <time>2023-04-05T14:31:46Z</time>
      </trkpt>
      <trkpt lat="48.02082" lon="-3.71897">
        <ele>180.7</ele>
        <time>2023-04-05T14:31:47Z</time>
      </trkpt>
      <trkpt lat="48.02077" lon="-3.71908">
        <ele>180.8</ele>
        <time>2023-04-05T14:31:48Z</time>
      </trkpt>
      <trkpt lat="48.02074" lon="-3.71915">
        <ele>180.8</ele>
        <time>2023-04-05T14:31:50Z</time>
      </trkpt>
      <trkpt lat="48.02072" lon="-3.7192">
        <ele>180.8</ele>
        <time>2023-04-05T14:31:51Z</time>
      </trkpt>
      <trkpt lat="48.0207" lon="-3.71925">
        <ele>180.9</ele>
        <time>2023-04-05T14:31:52Z</time>
      </trkpt>
      <trkpt lat="48.02065" lon="-3.71936">
        <ele>181</ele>
        <time>2023-04-05T14:31:53Z</time>
      </trkpt>
      <trkpt lat="48.02061" lon="-3.71945">
        <ele>181.1</ele>
        <time>2023-04-05T14:31:55Z</time>
      </trkpt>
      <trkpt lat="48.02059" lon="-3.71951">
        <ele>181.2</ele>
        <time>2023-04-05T14:31:57Z</time>
      </trkpt>
      <trkpt lat="48.02056" lon="-3.71956">
        <ele>181.2</ele>
        <time>2023-04-05T14:31:58Z</time>
      </trkpt>
      <trkpt lat="48.02053" lon="-3.71961">
        <ele>181.3</ele>
        <time>2023-04-05T14:31:59Z</time>
      </trkpt>
      <trkpt lat="48.02051" lon="-3.71967">
        <ele>181.4</ele>
        <time>2023-04-05T14:32:00Z</time>
      </trkpt>
      <trkpt lat="48.02049" lon="-3.71972">
        <ele>181.4</ele>
        <time>2023-04-05T14:32:01Z</time>
      </trkpt>
      <trkpt lat="48.02044" lon="-3.71979">
        <ele>181.6</ele>
        <time>2023-04-05T14:32:02Z</time>
      </trkpt>
      <trkpt lat="48.0204" lon="-3.71982">
        <ele>181.6</ele>
        <time>2023-04-05T14:32:04Z</time>
      </trkpt>
      <trkpt lat="48.02037" lon="-3.71983">
        <ele>181.6</ele>
        <time>2023-04-05T14:32:05Z</time>
      </trkpt>
      <trkpt lat="48.02034" lon="-3.71984">
        <ele>181.7</ele>
        <time>2023-04-05T14:32:06Z</time>
      </trkpt>
      <trkpt lat="48.02032" lon="-3.71988">
        <ele>181.7</ele>
        <time>2023-04-05T14:32:07Z</time>
      </trkpt>
      <trkpt lat="48.02033" lon="-3.71994">
        <ele>181.7</ele>
        <time>2023-04-05T14:32:08Z</time>
      </trkpt>
      <trkpt lat="48.02033" lon="-3.71995">
        <ele>181.7</ele>
        <time>2023-04-05T14:32:09Z</time>
      </trkpt>
      <trkpt lat="48.02032" lon="-3.72">
        <ele>181.7</ele>
        <time>2023-04-05T14:32:10Z</time>
      </trkpt>
      <trkpt lat="48.02031" lon="-3.72002">
        <ele>181.6</ele>
        <time>2023-04-05T14:32:11Z</time>
      </trkpt>
      <trkpt lat="48.02028" lon="-3.72006">
        <ele>181.6</ele>
        <time>2023-04-05T14:32:12Z</time>
      </trkpt>
      <trkpt lat="48.02027" lon="-3.72007">
        <ele>181.6</ele>
        <time>2023-04-05T14:32:13Z</time>
      </trkpt>
      <trkpt lat="48.02023" lon="-3.7201">
        <ele>181.5</ele>
        <time>2023-04-05T14:32:14Z</time>
      </trkpt>
      <trkpt lat="48.0202" lon="-3.72013">
        <ele>181.5</ele>
        <time>2023-04-05T14:32:15Z</time>
      </trkpt>
      <trkpt lat="48.02014" lon="-3.7202">
        <ele>181.4</ele>
        <time>2023-04-05T14:32:16Z</time>
      </trkpt>
      <trkpt lat="48.0201" lon="-3.72024">
        <ele>181.4</ele>
        <time>2023-04-05T14:32:18Z</time>
      </trkpt>
      <trkpt lat="48.02007" lon="-3.72028">
        <ele>181.3</ele>
        <time>2023-04-05T14:32:19Z</time>
      </trkpt>
      <trkpt lat="48.02005" lon="-3.72033">
        <ele>181.3</ele>
        <time>2023-04-05T14:32:20Z</time>
      </trkpt>
      <trkpt lat="48.02002" lon="-3.72037">
        <ele>181.3</ele>
        <time>2023-04-05T14:32:21Z</time>
      </trkpt>
      <trkpt lat="48.01999" lon="-3.72039">
        <ele>181.2</ele>
        <time>2023-04-05T14:32:22Z</time>
      </trkpt>
      <trkpt lat="48.01997" lon="-3.72041">
        <ele>181.3</ele>
        <time>2023-04-05T14:32:23Z</time>
      </trkpt>
      <trkpt lat="48.01994" lon="-3.72044">
        <ele>181.3</ele>
        <time>2023-04-05T14:32:24Z</time>
      </trkpt>
      <trkpt lat="48.01991" lon="-3.72047">
        <ele>181.3</ele>
        <time>2023-04-05T14:32:25Z</time>
      </trkpt>
      <trkpt lat="48.01987" lon="-3.7205">
        <ele>181.3</ele>
        <time>2023-04-05T14:32:26Z</time>
      </trkpt>
      <trkpt lat="48.01984" lon="-3.72054">
        <ele>181.3</ele>
        <time>2023-04-05T14:32:27Z</time>
      </trkpt>
      <trkpt lat="48.0198" lon="-3.72057">
        <ele>181.3</ele>
        <time>2023-04-05T14:32:28Z</time>
      </trkpt>
      <trkpt lat="48.01976" lon="-3.72061">
        <ele>181.3</ele>
        <time>2023-04-05T14:32:29Z</time>
      </trkpt>
      <trkpt lat="48.01973" lon="-3.72065">
        <ele>181.3</ele>
        <time>2023-04-05T14:32:30Z</time>
      </trkpt>
      <trkpt lat="48.01969" lon="-3.72068">
        <ele>181.3</ele>
        <time>2023-04-05T14:32:31Z</time>
      </trkpt>
      <trkpt lat="48.01966" lon="-3.72072">
        <ele>181.3</ele>
        <time>2023-04-05T14:32:32Z</time>
      </trkpt>
      <trkpt lat="48.01963" lon="-3.72074">
        <ele>181.3</ele>
        <time>2023-04-05T14:32:33Z</time>
      </trkpt>
      <trkpt lat="48.01958" lon="-3.72077">
        <ele>181.3</ele>
        <time>2023-04-05T14:32:34Z</time>
      </trkpt>
      <trkpt lat="48.01954" lon="-3.7208">
        <ele>181.3</ele>
        <time>2023-04-05T14:32:35Z</time>
      </trkpt>
      <trkpt lat="48.01943" lon="-3.72086">
        <ele>181.3</ele>
        <time>2023-04-05T14:32:37Z</time>
      </trkpt>
      <trkpt lat="48.01934" lon="-3.7209">
        <ele>181.3</ele>
        <time>2023-04-05T14:32:39Z</time>
      </trkpt>
      <trkpt lat="48.0193" lon="-3.72092">
        <ele>181.4</ele>
        <time>2023-04-05T14:32:41Z</time>
      </trkpt>
      <trkpt lat="48.01926" lon="-3.72094">
        <ele>181.4</ele>
        <time>2023-04-05T14:32:42Z</time>
      </trkpt>
      <trkpt lat="48.01923" lon="-3.72096">
        <ele>181.4</ele>
        <time>2023-04-05T14:32:43Z</time>
      </trkpt>
      <trkpt lat="48.01919" lon="-3.72098">
        <ele>181.5</ele>
        <time>2023-04-05T14:32:44Z</time>
      </trkpt>
      <trkpt lat="48.01916" lon="-3.721">
        <ele>181.5</ele>
        <time>2023-04-05T14:32:45Z</time>
      </trkpt>
      <trkpt lat="48.01913" lon="-3.72101">
        <ele>181.6</ele>
        <time>2023-04-05T14:32:46Z</time>
      </trkpt>
      <trkpt lat="48.01909" lon="-3.72101">
        <ele>181.6</ele>
        <time>2023-04-05T14:32:47Z</time>
      </trkpt>
      <trkpt lat="48.01906" lon="-3.72102">
        <ele>181.7</ele>
        <time>2023-04-05T14:32:48Z</time>
      </trkpt>
      <trkpt lat="48.01904" lon="-3.72102">
        <ele>181.7</ele>
        <time>2023-04-05T14:32:49Z</time>
      </trkpt>
      <trkpt lat="48.01902" lon="-3.72103">
        <ele>181.7</ele>
        <time>2023-04-05T14:32:50Z</time>
      </trkpt>
      <trkpt lat="48.019" lon="-3.72103">
        <ele>181.7</ele>
        <time>2023-04-05T14:32:51Z</time>
      </trkpt>
      <trkpt lat="48.01898" lon="-3.72103">
        <ele>181.8</ele>
        <time>2023-04-05T14:32:52Z</time>
      </trkpt>
      <trkpt lat="48.01895" lon="-3.72103">
        <ele>181.8</ele>
        <time>2023-04-05T14:32:53Z</time>
      </trkpt>
      <trkpt lat="48.01891" lon="-3.72104">
        <ele>181.8</ele>
        <time>2023-04-05T14:32:54Z</time>
      </trkpt>
      <trkpt lat="48.01888" lon="-3.72104">
        <ele>181.9</ele>
        <time>2023-04-05T14:32:55Z</time>
      </trkpt>
      <trkpt lat="48.01884" lon="-3.72105">
        <ele>181.9</ele>
        <time>2023-04-05T14:32:56Z</time>
      </trkpt>
      <trkpt lat="48.0188" lon="-3.72105">
        <ele>182</ele>
        <time>2023-04-05T14:32:57Z</time>
      </trkpt>
      <trkpt lat="48.01877" lon="-3.72106">
        <ele>182.1</ele>
        <time>2023-04-05T14:32:58Z</time>
      </trkpt>
      <trkpt lat="48.01873" lon="-3.72106">
        <ele>182.1</ele>
        <time>2023-04-05T14:32:59Z</time>
      </trkpt>
      <trkpt lat="48.0187" lon="-3.72107">
        <ele>182.2</ele>
        <time>2023-04-05T14:33:00Z</time>
      </trkpt>
      <trkpt lat="48.01865" lon="-3.72107">
        <ele>182.3</ele>
        <time>2023-04-05T14:33:01Z</time>
      </trkpt>
      <trkpt lat="48.01861" lon="-3.72107">
        <ele>182.3</ele>
        <time>2023-04-05T14:33:02Z</time>
      </trkpt>
      <trkpt lat="48.01857" lon="-3.72106">
        <ele>182.4</ele>
        <time>2023-04-05T14:33:03Z</time>
      </trkpt>
      <trkpt lat="48.01853" lon="-3.72106">
        <ele>182.5</ele>
        <time>2023-04-05T14:33:04Z</time>
      </trkpt>
      <trkpt lat="48.01849" lon="-3.72106">
        <ele>182.5</ele>
        <time>2023-04-05T14:33:05Z</time>
      </trkpt>
      <trkpt lat="48.01845" lon="-3.72105">
        <ele>182.6</ele>
        <time>2023-04-05T14:33:06Z</time>
      </trkpt>
      <trkpt lat="48.01841" lon="-3.72105">
        <ele>182.7</ele>
        <time>2023-04-05T14:33:07Z</time>
      </trkpt>
      <trkpt lat="48.01837" lon="-3.72105">
        <ele>182.7</ele>
        <time>2023-04-05T14:33:08Z</time>
      </trkpt>
      <trkpt lat="48.01833" lon="-3.72105">
        <ele>182.8</ele>
        <time>2023-04-05T14:33:09Z</time>
      </trkpt>
      <trkpt lat="48.0183" lon="-3.72105">
        <ele>182.9</ele>
        <time>2023-04-05T14:33:10Z</time>
      </trkpt>
      <trkpt lat="48.01826" lon="-3.72106">
        <ele>182.9</ele>
        <time>2023-04-05T14:33:11Z</time>
      </trkpt>
      <trkpt lat="48.01822" lon="-3.72106">
        <ele>183</ele>
        <time>2023-04-05T14:33:12Z</time>
      </trkpt>
      <trkpt lat="48.01818" lon="-3.72106">
        <ele>183.1</ele>
        <time>2023-04-05T14:33:13Z</time>
      </trkpt>
      <trkpt lat="48.01815" lon="-3.72106">
        <ele>183.1</ele>
        <time>2023-04-05T14:33:14Z</time>
      </trkpt>
      <trkpt lat="48.01811" lon="-3.72107">
        <ele>183.2</ele>
        <time>2023-04-05T14:33:15Z</time>
      </trkpt>
      <trkpt lat="48.01807" lon="-3.72107">
        <ele>183.3</ele>
        <time>2023-04-05T14:33:16Z</time>
      </trkpt>
      <trkpt lat="48.01804" lon="-3.72107">
        <ele>183.4</ele>
        <time>2023-04-05T14:33:17Z</time>
      </trkpt>
      <trkpt lat="48.018" lon="-3.72106">
        <ele>183.5</ele>
        <time>2023-04-05T14:33:18Z</time>
      </trkpt>
      <trkpt lat="48.01796" lon="-3.72107">
        <ele>183.6</ele>
        <time>2023-04-05T14:33:19Z</time>
      </trkpt>
      <trkpt lat="48.01792" lon="-3.72107">
        <ele>183.7</ele>
        <time>2023-04-05T14:33:20Z</time>
      </trkpt>
      <trkpt lat="48.01788" lon="-3.72107">
        <ele>183.8</ele>
        <time>2023-04-05T14:33:21Z</time>
      </trkpt>
      <trkpt lat="48.01785" lon="-3.72107">
        <ele>183.9</ele>
        <time>2023-04-05T14:33:22Z</time>
      </trkpt>
      <trkpt lat="48.0178" lon="-3.72107">
        <ele>184</ele>
        <time>2023-04-05T14:33:23Z</time>
      </trkpt>
      <trkpt lat="48.01775" lon="-3.72107">
        <ele>184.1</ele>
        <time>2023-04-05T14:33:24Z</time>
      </trkpt>
      <trkpt lat="48.01768" lon="-3.72107">
        <ele>184.2</ele>
        <time>2023-04-05T14:33:26Z</time>
      </trkpt>
      <trkpt lat="48.01764" lon="-3.72107">
        <ele>184.3</ele>
        <time>2023-04-05T14:33:28Z</time>
      </trkpt>
      <trkpt lat="48.01761" lon="-3.72107">
        <ele>184.4</ele>
        <time>2023-04-05T14:33:29Z</time>
      </trkpt>
      <trkpt lat="48.01756" lon="-3.72108">
        <ele>184.5</ele>
        <time>2023-04-05T14:33:30Z</time>
      </trkpt>
      <trkpt lat="48.01753" lon="-3.72108">
        <ele>184.6</ele>
        <time>2023-04-05T14:33:31Z</time>
      </trkpt>
      <trkpt lat="48.01749" lon="-3.72108">
        <ele>184.7</ele>
        <time>2023-04-05T14:33:32Z</time>
      </trkpt>
      <trkpt lat="48.01745" lon="-3.72107">
        <ele>184.8</ele>
        <time>2023-04-05T14:33:33Z</time>
      </trkpt>
      <trkpt lat="48.01738" lon="-3.72108">
        <ele>184.9</ele>
        <time>2023-04-05T14:33:34Z</time>
      </trkpt>
      <trkpt lat="48.01734" lon="-3.72107">
        <ele>185</ele>
        <time>2023-04-05T14:33:35Z</time>
      </trkpt>
      <trkpt lat="48.0173" lon="-3.72109">
        <ele>185.1</ele>
        <time>2023-04-05T14:33:37Z</time>
      </trkpt>
      <trkpt lat="48.01726" lon="-3.72109">
        <ele>185.1</ele>
        <time>2023-04-05T14:33:38Z</time>
      </trkpt>
      <trkpt lat="48.01722" lon="-3.72109">
        <ele>185.2</ele>
        <time>2023-04-05T14:33:39Z</time>
      </trkpt>
      <trkpt lat="48.01719" lon="-3.72109">
        <ele>185.3</ele>
        <time>2023-04-05T14:33:40Z</time>
      </trkpt>
      <trkpt lat="48.01715" lon="-3.72109">
        <ele>185.3</ele>
        <time>2023-04-05T14:33:41Z</time>
      </trkpt>
      <trkpt lat="48.01708" lon="-3.72109">
        <ele>185.4</ele>
        <time>2023-04-05T14:33:42Z</time>
      </trkpt>
      <trkpt lat="48.01703" lon="-3.72108">
        <ele>185.5</ele>
        <time>2023-04-05T14:33:44Z</time>
      </trkpt>
      <trkpt lat="48.017" lon="-3.72108">
        <ele>185.6</ele>
        <time>2023-04-05T14:33:45Z</time>
      </trkpt>
      <trkpt lat="48.01696" lon="-3.72108">
        <ele>185.6</ele>
        <time>2023-04-05T14:33:46Z</time>
      </trkpt>
      <trkpt lat="48.0169" lon="-3.72109">
        <ele>185.7</ele>
        <time>2023-04-05T14:33:47Z</time>
      </trkpt>
      <trkpt lat="48.01685" lon="-3.7211">
        <ele>185.8</ele>
        <time>2023-04-05T14:33:49Z</time>
      </trkpt>
      <trkpt lat="48.01681" lon="-3.72111">
        <ele>185.8</ele>
        <time>2023-04-05T14:33:50Z</time>
      </trkpt>
      <trkpt lat="48.01677" lon="-3.72111">
        <ele>185.9</ele>
        <time>2023-04-05T14:33:51Z</time>
      </trkpt>
      <trkpt lat="48.0167" lon="-3.72111">
        <ele>185.9</ele>
        <time>2023-04-05T14:33:52Z</time>
      </trkpt>
      <trkpt lat="48.01666" lon="-3.7211">
        <ele>186</ele>
        <time>2023-04-05T14:33:54Z</time>
      </trkpt>
      <trkpt lat="48.01662" lon="-3.7211">
        <ele>186</ele>
        <time>2023-04-05T14:33:55Z</time>
      </trkpt>
      <trkpt lat="48.01659" lon="-3.7211">
        <ele>186</ele>
        <time>2023-04-05T14:33:56Z</time>
      </trkpt>
      <trkpt lat="48.01656" lon="-3.7211">
        <ele>186</ele>
        <time>2023-04-05T14:33:57Z</time>
      </trkpt>
      <trkpt lat="48.01652" lon="-3.7211">
        <ele>186</ele>
        <time>2023-04-05T14:33:58Z</time>
      </trkpt>
      <trkpt lat="48.01648" lon="-3.72109">
        <ele>186.1</ele>
        <time>2023-04-05T14:33:59Z</time>
      </trkpt>
      <trkpt lat="48.01645" lon="-3.72108">
        <ele>186.1</ele>
        <time>2023-04-05T14:34:00Z</time>
      </trkpt>
      <trkpt lat="48.01641" lon="-3.72108">
        <ele>186.1</ele>
        <time>2023-04-05T14:34:01Z</time>
      </trkpt>
      <trkpt lat="48.01638" lon="-3.72109">
        <ele>186.1</ele>
        <time>2023-04-05T14:34:02Z</time>
      </trkpt>
      <trkpt lat="48.01634" lon="-3.72109">
        <ele>186.2</ele>
        <time>2023-04-05T14:34:03Z</time>
      </trkpt>
      <trkpt lat="48.0163" lon="-3.7211">
        <ele>186.2</ele>
        <time>2023-04-05T14:34:04Z</time>
      </trkpt>
      <trkpt lat="48.01626" lon="-3.7211">
        <ele>186.2</ele>
        <time>2023-04-05T14:34:05Z</time>
      </trkpt>
      <trkpt lat="48.01623" lon="-3.7211">
        <ele>186.2</ele>
        <time>2023-04-05T14:34:06Z</time>
      </trkpt>
      <trkpt lat="48.01615" lon="-3.72111">
        <ele>186.3</ele>
        <time>2023-04-05T14:34:07Z</time>
      </trkpt>
      <trkpt lat="48.0161" lon="-3.72111">
        <ele>186.3</ele>
        <time>2023-04-05T14:34:09Z</time>
      </trkpt>
      <trkpt lat="48.01605" lon="-3.72111">
        <ele>186.3</ele>
        <time>2023-04-05T14:34:10Z</time>
      </trkpt>
      <trkpt lat="48.01601" lon="-3.72112">
        <ele>186.3</ele>
        <time>2023-04-05T14:34:11Z</time>
      </trkpt>
      <trkpt lat="48.01597" lon="-3.72113">
        <ele>186.3</ele>
        <time>2023-04-05T14:34:12Z</time>
      </trkpt>
      <trkpt lat="48.01593" lon="-3.72115">
        <ele>186.3</ele>
        <time>2023-04-05T14:34:13Z</time>
      </trkpt>
      <trkpt lat="48.01589" lon="-3.72115">
        <ele>186.2</ele>
        <time>2023-04-05T14:34:14Z</time>
      </trkpt>
      <trkpt lat="48.01585" lon="-3.72117">
        <ele>186.2</ele>
        <time>2023-04-05T14:34:15Z</time>
      </trkpt>
      <trkpt lat="48.0158" lon="-3.72118">
        <ele>186.2</ele>
        <time>2023-04-05T14:34:16Z</time>
      </trkpt>
      <trkpt lat="48.01576" lon="-3.72119">
        <ele>186.2</ele>
        <time>2023-04-05T14:34:17Z</time>
      </trkpt>
      <trkpt lat="48.01572" lon="-3.72121">
        <ele>186.1</ele>
        <time>2023-04-05T14:34:18Z</time>
      </trkpt>
      <trkpt lat="48.01567" lon="-3.72122">
        <ele>186.1</ele>
        <time>2023-04-05T14:34:19Z</time>
      </trkpt>
      <trkpt lat="48.01562" lon="-3.72125">
        <ele>186.1</ele>
        <time>2023-04-05T14:34:20Z</time>
      </trkpt>
      <trkpt lat="48.01558" lon="-3.72127">
        <ele>186</ele>
        <time>2023-04-05T14:34:21Z</time>
      </trkpt>
      <trkpt lat="48.01553" lon="-3.72129">
        <ele>186</ele>
        <time>2023-04-05T14:34:22Z</time>
      </trkpt>
      <trkpt lat="48.01548" lon="-3.72131">
        <ele>186</ele>
        <time>2023-04-05T14:34:23Z</time>
      </trkpt>
      <trkpt lat="48.01544" lon="-3.72132">
        <ele>186</ele>
        <time>2023-04-05T14:34:24Z</time>
      </trkpt>
      <trkpt lat="48.01539" lon="-3.72134">
        <ele>186</ele>
        <time>2023-04-05T14:34:25Z</time>
      </trkpt>
      <trkpt lat="48.01535" lon="-3.72137">
        <ele>186</ele>
        <time>2023-04-05T14:34:26Z</time>
      </trkpt>
      <trkpt lat="48.01531" lon="-3.72139">
        <ele>186</ele>
        <time>2023-04-05T14:34:27Z</time>
      </trkpt>
      <trkpt lat="48.01528" lon="-3.72142">
        <ele>186</ele>
        <time>2023-04-05T14:34:29Z</time>
      </trkpt>
      <trkpt lat="48.01527" lon="-3.72143">
        <ele>186</ele>
        <time>2023-04-05T14:34:30Z</time>
      </trkpt>
      <trkpt lat="48.01523" lon="-3.72145">
        <ele>186</ele>
        <time>2023-04-05T14:34:31Z</time>
      </trkpt>
      <trkpt lat="48.01522" lon="-3.72144">
        <ele>186</ele>
        <time>2023-04-05T14:34:32Z</time>
      </trkpt>
      <trkpt lat="48.01518" lon="-3.72146">
        <ele>185.8</ele>
        <time>2023-04-05T14:34:33Z</time>
      </trkpt>
      <trkpt lat="48.01516" lon="-3.72147">
        <ele>185.8</ele>
        <time>2023-04-05T14:34:34Z</time>
      </trkpt>
      <trkpt lat="48.01512" lon="-3.72148">
        <ele>185.6</ele>
        <time>2023-04-05T14:34:35Z</time>
      </trkpt>
      <trkpt lat="48.01507" lon="-3.72149">
        <ele>185.4</ele>
        <time>2023-04-05T14:34:36Z</time>
      </trkpt>
      <trkpt lat="48.01503" lon="-3.72151">
        <ele>185.2</ele>
        <time>2023-04-05T14:34:37Z</time>
      </trkpt>
      <trkpt lat="48.01497" lon="-3.72156">
        <ele>184.9</ele>
        <time>2023-04-05T14:34:38Z</time>
      </trkpt>
      <trkpt lat="48.01492" lon="-3.72159">
        <ele>184.7</ele>
        <time>2023-04-05T14:34:39Z</time>
      </trkpt>
      <trkpt lat="48.01488" lon="-3.72163">
        <ele>184.5</ele>
        <time>2023-04-05T14:34:40Z</time>
      </trkpt>
      <trkpt lat="48.01484" lon="-3.72167">
        <ele>184.3</ele>
        <time>2023-04-05T14:34:41Z</time>
      </trkpt>
      <trkpt lat="48.01479" lon="-3.72171">
        <ele>184.1</ele>
        <time>2023-04-05T14:34:42Z</time>
      </trkpt>
      <trkpt lat="48.01475" lon="-3.72175">
        <ele>183.9</ele>
        <time>2023-04-05T14:34:43Z</time>
      </trkpt>
      <trkpt lat="48.0147" lon="-3.72179">
        <ele>183.8</ele>
        <time>2023-04-05T14:34:44Z</time>
      </trkpt>
      <trkpt lat="48.01465" lon="-3.72183">
        <ele>183.6</ele>
        <time>2023-04-05T14:34:45Z</time>
      </trkpt>
      <trkpt lat="48.0146" lon="-3.72187">
        <ele>183.5</ele>
        <time>2023-04-05T14:34:46Z</time>
      </trkpt>
      <trkpt lat="48.01455" lon="-3.72191">
        <ele>183.4</ele>
        <time>2023-04-05T14:34:47Z</time>
      </trkpt>
      <trkpt lat="48.01451" lon="-3.72196">
        <ele>183.3</ele>
        <time>2023-04-05T14:34:48Z</time>
      </trkpt>
      <trkpt lat="48.01446" lon="-3.72201">
        <ele>183.2</ele>
        <time>2023-04-05T14:34:49Z</time>
      </trkpt>
      <trkpt lat="48.01442" lon="-3.72206">
        <ele>183.1</ele>
        <time>2023-04-05T14:34:50Z</time>
      </trkpt>
      <trkpt lat="48.01437" lon="-3.7221">
        <ele>183</ele>
        <time>2023-04-05T14:34:51Z</time>
      </trkpt>
      <trkpt lat="48.01432" lon="-3.72214">
        <ele>182.9</ele>
        <time>2023-04-05T14:34:52Z</time>
      </trkpt>
      <trkpt lat="48.01427" lon="-3.72219">
        <ele>182.8</ele>
        <time>2023-04-05T14:34:53Z</time>
      </trkpt>
      <trkpt lat="48.01423" lon="-3.72224">
        <ele>182.8</ele>
        <time>2023-04-05T14:34:54Z</time>
      </trkpt>
      <trkpt lat="48.01418" lon="-3.72229">
        <ele>182.7</ele>
        <time>2023-04-05T14:34:55Z</time>
      </trkpt>
      <trkpt lat="48.01413" lon="-3.72236">
        <ele>182.6</ele>
        <time>2023-04-05T14:34:56Z</time>
      </trkpt>
      <trkpt lat="48.01409" lon="-3.72242">
        <ele>182.5</ele>
        <time>2023-04-05T14:34:57Z</time>
      </trkpt>
      <trkpt lat="48.01405" lon="-3.72249">
        <ele>182.4</ele>
        <time>2023-04-05T14:34:58Z</time>
      </trkpt>
      <trkpt lat="48.01401" lon="-3.72255">
        <ele>182.3</ele>
        <time>2023-04-05T14:34:59Z</time>
      </trkpt>
      <trkpt lat="48.01396" lon="-3.72261">
        <ele>182.2</ele>
        <time>2023-04-05T14:35:00Z</time>
      </trkpt>
      <trkpt lat="48.01392" lon="-3.72267">
        <ele>182.1</ele>
        <time>2023-04-05T14:35:01Z</time>
      </trkpt>
      <trkpt lat="48.01388" lon="-3.72272">
        <ele>182</ele>
        <time>2023-04-05T14:35:02Z</time>
      </trkpt>
      <trkpt lat="48.01385" lon="-3.72278">
        <ele>181.9</ele>
        <time>2023-04-05T14:35:03Z</time>
      </trkpt>
      <trkpt lat="48.01381" lon="-3.72285">
        <ele>181.8</ele>
        <time>2023-04-05T14:35:04Z</time>
      </trkpt>
      <trkpt lat="48.01377" lon="-3.72291">
        <ele>181.6</ele>
        <time>2023-04-05T14:35:05Z</time>
      </trkpt>
      <trkpt lat="48.01373" lon="-3.72298">
        <ele>181.5</ele>
        <time>2023-04-05T14:35:06Z</time>
      </trkpt>
      <trkpt lat="48.01369" lon="-3.72304">
        <ele>181.4</ele>
        <time>2023-04-05T14:35:07Z</time>
      </trkpt>
      <trkpt lat="48.01366" lon="-3.72311">
        <ele>181.3</ele>
        <time>2023-04-05T14:35:08Z</time>
      </trkpt>
      <trkpt lat="48.01362" lon="-3.72318">
        <ele>181.1</ele>
        <time>2023-04-05T14:35:09Z</time>
      </trkpt>
      <trkpt lat="48.01359" lon="-3.72326">
        <ele>181</ele>
        <time>2023-04-05T14:35:10Z</time>
      </trkpt>
      <trkpt lat="48.01355" lon="-3.72333">
        <ele>180.9</ele>
        <time>2023-04-05T14:35:11Z</time>
      </trkpt>
      <trkpt lat="48.01352" lon="-3.7234">
        <ele>180.8</ele>
        <time>2023-04-05T14:35:12Z</time>
      </trkpt>
      <trkpt lat="48.01348" lon="-3.72348">
        <ele>180.6</ele>
        <time>2023-04-05T14:35:13Z</time>
      </trkpt>
      <trkpt lat="48.01345" lon="-3.72357">
        <ele>180.4</ele>
        <time>2023-04-05T14:35:14Z</time>
      </trkpt>
      <trkpt lat="48.01341" lon="-3.72365">
        <ele>180.3</ele>
        <time>2023-04-05T14:35:15Z</time>
      </trkpt>
      <trkpt lat="48.01337" lon="-3.72371">
        <ele>180.2</ele>
        <time>2023-04-05T14:35:16Z</time>
      </trkpt>
      <trkpt lat="48.01334" lon="-3.72379">
        <ele>180</ele>
        <time>2023-04-05T14:35:17Z</time>
      </trkpt>
      <trkpt lat="48.0133" lon="-3.72386">
        <ele>179.9</ele>
        <time>2023-04-05T14:35:18Z</time>
      </trkpt>
      <trkpt lat="48.01326" lon="-3.72393">
        <ele>179.8</ele>
        <time>2023-04-05T14:35:19Z</time>
      </trkpt>
      <trkpt lat="48.01322" lon="-3.72401">
        <ele>179.6</ele>
        <time>2023-04-05T14:35:20Z</time>
      </trkpt>
      <trkpt lat="48.01319" lon="-3.72408">
        <ele>179.5</ele>
        <time>2023-04-05T14:35:21Z</time>
      </trkpt>
      <trkpt lat="48.01315" lon="-3.72415">
        <ele>179.3</ele>
        <time>2023-04-05T14:35:22Z</time>
      </trkpt>
      <trkpt lat="48.01311" lon="-3.72424">
        <ele>179.2</ele>
        <time>2023-04-05T14:35:23Z</time>
      </trkpt>
      <trkpt lat="48.01306" lon="-3.72432">
        <ele>179</ele>
        <time>2023-04-05T14:35:24Z</time>
      </trkpt>
      <trkpt lat="48.01302" lon="-3.7244">
        <ele>178.9</ele>
        <time>2023-04-05T14:35:25Z</time>
      </trkpt>
      <trkpt lat="48.01297" lon="-3.72448">
        <ele>178.8</ele>
        <time>2023-04-05T14:35:26Z</time>
      </trkpt>
      <trkpt lat="48.01293" lon="-3.72455">
        <ele>178.7</ele>
        <time>2023-04-05T14:35:27Z</time>
      </trkpt>
      <trkpt lat="48.01289" lon="-3.72462">
        <ele>178.6</ele>
        <time>2023-04-05T14:35:28Z</time>
      </trkpt>
      <trkpt lat="48.01285" lon="-3.72469">
        <ele>178.4</ele>
        <time>2023-04-05T14:35:29Z</time>
      </trkpt>
      <trkpt lat="48.01281" lon="-3.72477">
        <ele>178.2</ele>
        <time>2023-04-05T14:35:30Z</time>
      </trkpt>
      <trkpt lat="48.01276" lon="-3.72486">
        <ele>178.1</ele>
        <time>2023-04-05T14:35:31Z</time>
      </trkpt>
      <trkpt lat="48.01273" lon="-3.72493">
        <ele>177.9</ele>
        <time>2023-04-05T14:35:32Z</time>
      </trkpt>
      <trkpt lat="48.01269" lon="-3.725">
        <ele>177.8</ele>
        <time>2023-04-05T14:35:33Z</time>
      </trkpt>
      <trkpt lat="48.01265" lon="-3.72508">
        <ele>177.6</ele>
        <time>2023-04-05T14:35:34Z</time>
      </trkpt>
      <trkpt lat="48.01261" lon="-3.72515">
        <ele>177.5</ele>
        <time>2023-04-05T14:35:35Z</time>
      </trkpt>
      <trkpt lat="48.01257" lon="-3.72521">
        <ele>177.3</ele>
        <time>2023-04-05T14:35:36Z</time>
      </trkpt>
      <trkpt lat="48.01254" lon="-3.72529">
        <ele>177.2</ele>
        <time>2023-04-05T14:35:37Z</time>
      </trkpt>
      <trkpt lat="48.0125" lon="-3.72539">
        <ele>177</ele>
        <time>2023-04-05T14:35:38Z</time>
      </trkpt>
      <trkpt lat="48.01245" lon="-3.72546">
        <ele>176.8</ele>
        <time>2023-04-05T14:35:39Z</time>
      </trkpt>
      <trkpt lat="48.01241" lon="-3.72553">
        <ele>176.7</ele>
        <time>2023-04-05T14:35:40Z</time>
      </trkpt>
      <trkpt lat="48.01237" lon="-3.72561">
        <ele>176.5</ele>
        <time>2023-04-05T14:35:41Z</time>
      </trkpt>
      <trkpt lat="48.01233" lon="-3.72569">
        <ele>176.3</ele>
        <time>2023-04-05T14:35:42Z</time>
      </trkpt>
      <trkpt lat="48.01228" lon="-3.72577">
        <ele>176.1</ele>
        <time>2023-04-05T14:35:43Z</time>
      </trkpt>
      <trkpt lat="48.01224" lon="-3.72584">
        <ele>176</ele>
        <time>2023-04-05T14:35:44Z</time>
      </trkpt>
      <trkpt lat="48.0122" lon="-3.72593">
        <ele>175.8</ele>
        <time>2023-04-05T14:35:45Z</time>
      </trkpt>
      <trkpt lat="48.01215" lon="-3.72601">
        <ele>175.7</ele>
        <time>2023-04-05T14:35:46Z</time>
      </trkpt>
      <trkpt lat="48.01211" lon="-3.72609">
        <ele>175.5</ele>
        <time>2023-04-05T14:35:47Z</time>
      </trkpt>
      <trkpt lat="48.01208" lon="-3.72617">
        <ele>175.4</ele>
        <time>2023-04-05T14:35:48Z</time>
      </trkpt>
      <trkpt lat="48.01204" lon="-3.72624">
        <ele>175.2</ele>
        <time>2023-04-05T14:35:49Z</time>
      </trkpt>
      <trkpt lat="48.01199" lon="-3.72632">
        <ele>175</ele>
        <time>2023-04-05T14:35:50Z</time>
      </trkpt>
      <trkpt lat="48.01195" lon="-3.7264">
        <ele>174.9</ele>
        <time>2023-04-05T14:35:51Z</time>
      </trkpt>
      <trkpt lat="48.0119" lon="-3.72648">
        <ele>174.7</ele>
        <time>2023-04-05T14:35:52Z</time>
      </trkpt>
      <trkpt lat="48.01186" lon="-3.72656">
        <ele>174.6</ele>
        <time>2023-04-05T14:35:53Z</time>
      </trkpt>
      <trkpt lat="48.01182" lon="-3.72664">
        <ele>174.5</ele>
        <time>2023-04-05T14:35:54Z</time>
      </trkpt>
      <trkpt lat="48.01178" lon="-3.72671">
        <ele>174.4</ele>
        <time>2023-04-05T14:35:55Z</time>
      </trkpt>
      <trkpt lat="48.01174" lon="-3.72678">
        <ele>174.2</ele>
        <time>2023-04-05T14:35:56Z</time>
      </trkpt>
      <trkpt lat="48.01169" lon="-3.72687">
        <ele>174.1</ele>
        <time>2023-04-05T14:35:57Z</time>
      </trkpt>
      <trkpt lat="48.01165" lon="-3.72695">
        <ele>173.9</ele>
        <time>2023-04-05T14:35:58Z</time>
      </trkpt>
      <trkpt lat="48.01161" lon="-3.72702">
        <ele>173.8</ele>
        <time>2023-04-05T14:35:59Z</time>
      </trkpt>
      <trkpt lat="48.01157" lon="-3.72709">
        <ele>173.7</ele>
        <time>2023-04-05T14:36:00Z</time>
      </trkpt>
      <trkpt lat="48.01153" lon="-3.72717">
        <ele>173.5</ele>
        <time>2023-04-05T14:36:01Z</time>
      </trkpt>
      <trkpt lat="48.01149" lon="-3.72725">
        <ele>173.4</ele>
        <time>2023-04-05T14:36:02Z</time>
      </trkpt>
      <trkpt lat="48.01145" lon="-3.72733">
        <ele>173.2</ele>
        <time>2023-04-05T14:36:03Z</time>
      </trkpt>
      <trkpt lat="48.01141" lon="-3.72741">
        <ele>173.1</ele>
        <time>2023-04-05T14:36:04Z</time>
      </trkpt>
      <trkpt lat="48.01137" lon="-3.72749">
        <ele>172.9</ele>
        <time>2023-04-05T14:36:05Z</time>
      </trkpt>
      <trkpt lat="48.01133" lon="-3.72756">
        <ele>172.8</ele>
        <time>2023-04-05T14:36:06Z</time>
      </trkpt>
      <trkpt lat="48.01129" lon="-3.72764">
        <ele>172.7</ele>
        <time>2023-04-05T14:36:07Z</time>
      </trkpt>
      <trkpt lat="48.01125" lon="-3.72772">
        <ele>172.6</ele>
        <time>2023-04-05T14:36:08Z</time>
      </trkpt>
      <trkpt lat="48.01122" lon="-3.7278">
        <ele>172.5</ele>
        <time>2023-04-05T14:36:09Z</time>
      </trkpt>
      <trkpt lat="48.01118" lon="-3.72787">
        <ele>172.4</ele>
        <time>2023-04-05T14:36:10Z</time>
      </trkpt>
      <trkpt lat="48.01113" lon="-3.72796">
        <ele>172.3</ele>
        <time>2023-04-05T14:36:11Z</time>
      </trkpt>
      <trkpt lat="48.01109" lon="-3.72804">
        <ele>172.2</ele>
        <time>2023-04-05T14:36:12Z</time>
      </trkpt>
      <trkpt lat="48.01105" lon="-3.72812">
        <ele>172</ele>
        <time>2023-04-05T14:36:13Z</time>
      </trkpt>
      <trkpt lat="48.01101" lon="-3.72821">
        <ele>171.9</ele>
        <time>2023-04-05T14:36:14Z</time>
      </trkpt>
      <trkpt lat="48.01097" lon="-3.7283">
        <ele>171.7</ele>
        <time>2023-04-05T14:36:15Z</time>
      </trkpt>
      <trkpt lat="48.01093" lon="-3.72838">
        <ele>171.5</ele>
        <time>2023-04-05T14:36:16Z</time>
      </trkpt>
      <trkpt lat="48.01091" lon="-3.72846">
        <ele>171.4</ele>
        <time>2023-04-05T14:36:17Z</time>
      </trkpt>
      <trkpt lat="48.01088" lon="-3.72853">
        <ele>171.3</ele>
        <time>2023-04-05T14:36:18Z</time>
      </trkpt>
      <trkpt lat="48.01084" lon="-3.72861">
        <ele>171.2</ele>
        <time>2023-04-05T14:36:19Z</time>
      </trkpt>
      <trkpt lat="48.0108" lon="-3.7287">
        <ele>171.1</ele>
        <time>2023-04-05T14:36:20Z</time>
      </trkpt>
      <trkpt lat="48.01077" lon="-3.72878">
        <ele>170.9</ele>
        <time>2023-04-05T14:36:21Z</time>
      </trkpt>
      <trkpt lat="48.01074" lon="-3.72887">
        <ele>170.8</ele>
        <time>2023-04-05T14:36:22Z</time>
      </trkpt>
      <trkpt lat="48.01071" lon="-3.72896">
        <ele>170.7</ele>
        <time>2023-04-05T14:36:23Z</time>
      </trkpt>
      <trkpt lat="48.01068" lon="-3.72905">
        <ele>170.5</ele>
        <time>2023-04-05T14:36:24Z</time>
      </trkpt>
      <trkpt lat="48.01065" lon="-3.72914">
        <ele>170.3</ele>
        <time>2023-04-05T14:36:25Z</time>
      </trkpt>
      <trkpt lat="48.01061" lon="-3.72922">
        <ele>170.2</ele>
        <time>2023-04-05T14:36:26Z</time>
      </trkpt>
      <trkpt lat="48.01058" lon="-3.7293">
        <ele>170</ele>
        <time>2023-04-05T14:36:27Z</time>
      </trkpt>
      <trkpt lat="48.01055" lon="-3.72939">
        <ele>169.9</ele>
        <time>2023-04-05T14:36:28Z</time>
      </trkpt>
      <trkpt lat="48.01052" lon="-3.72948">
        <ele>169.7</ele>
        <time>2023-04-05T14:36:29Z</time>
      </trkpt>
      <trkpt lat="48.0105" lon="-3.72957">
        <ele>169.6</ele>
        <time>2023-04-05T14:36:30Z</time>
      </trkpt>
      <trkpt lat="48.01046" lon="-3.72966">
        <ele>169.5</ele>
        <time>2023-04-05T14:36:31Z</time>
      </trkpt>
      <trkpt lat="48.01043" lon="-3.72974">
        <ele>169.4</ele>
        <time>2023-04-05T14:36:32Z</time>
      </trkpt>
      <trkpt lat="48.0104" lon="-3.72983">
        <ele>169.2</ele>
        <time>2023-04-05T14:36:33Z</time>
      </trkpt>
      <trkpt lat="48.01037" lon="-3.72991">
        <ele>169.1</ele>
        <time>2023-04-05T14:36:34Z</time>
      </trkpt>
      <trkpt lat="48.01034" lon="-3.72999">
        <ele>169</ele>
        <time>2023-04-05T14:36:35Z</time>
      </trkpt>
      <trkpt lat="48.01031" lon="-3.73009">
        <ele>168.9</ele>
        <time>2023-04-05T14:36:36Z</time>
      </trkpt>
      <trkpt lat="48.01028" lon="-3.73018">
        <ele>168.7</ele>
        <time>2023-04-05T14:36:37Z</time>
      </trkpt>
      <trkpt lat="48.01025" lon="-3.73027">
        <ele>168.6</ele>
        <time>2023-04-05T14:36:38Z</time>
      </trkpt>
      <trkpt lat="48.01021" lon="-3.73036">
        <ele>168.5</ele>
        <time>2023-04-05T14:36:39Z</time>
      </trkpt>
      <trkpt lat="48.01018" lon="-3.73044">
        <ele>168.3</ele>
        <time>2023-04-05T14:36:40Z</time>
      </trkpt>
      <trkpt lat="48.01015" lon="-3.73053">
        <ele>168.2</ele>
        <time>2023-04-05T14:36:41Z</time>
      </trkpt>
      <trkpt lat="48.01011" lon="-3.73062">
        <ele>168</ele>
        <time>2023-04-05T14:36:42Z</time>
      </trkpt>
      <trkpt lat="48.01008" lon="-3.73071">
        <ele>167.9</ele>
        <time>2023-04-05T14:36:43Z</time>
      </trkpt>
      <trkpt lat="48.01006" lon="-3.73079">
        <ele>167.7</ele>
        <time>2023-04-05T14:36:44Z</time>
      </trkpt>
      <trkpt lat="48.01003" lon="-3.73088">
        <ele>167.6</ele>
        <time>2023-04-05T14:36:45Z</time>
      </trkpt>
      <trkpt lat="48.01" lon="-3.73096">
        <ele>167.5</ele>
        <time>2023-04-05T14:36:46Z</time>
      </trkpt>
      <trkpt lat="48.00997" lon="-3.73104">
        <ele>167.4</ele>
        <time>2023-04-05T14:36:47Z</time>
      </trkpt>
      <trkpt lat="48.00994" lon="-3.73113">
        <ele>167.2</ele>
        <time>2023-04-05T14:36:48Z</time>
      </trkpt>
      <trkpt lat="48.00991" lon="-3.73121">
        <ele>167.1</ele>
        <time>2023-04-05T14:36:49Z</time>
      </trkpt>
      <trkpt lat="48.00988" lon="-3.73128">
        <ele>167</ele>
        <time>2023-04-05T14:36:50Z</time>
      </trkpt>
      <trkpt lat="48.00986" lon="-3.73137">
        <ele>166.9</ele>
        <time>2023-04-05T14:36:51Z</time>
      </trkpt>
      <trkpt lat="48.00983" lon="-3.73145">
        <ele>166.8</ele>
        <time>2023-04-05T14:36:52Z</time>
      </trkpt>
      <trkpt lat="48.0098" lon="-3.7315">
        <ele>166.7</ele>
        <time>2023-04-05T14:36:53Z</time>
      </trkpt>
      <trkpt lat="48.00979" lon="-3.7316">
        <ele>166.6</ele>
        <time>2023-04-05T14:36:54Z</time>
      </trkpt>
      <trkpt lat="48.00977" lon="-3.7317">
        <ele>166.5</ele>
        <time>2023-04-05T14:36:55Z</time>
      </trkpt>
      <trkpt lat="48.00974" lon="-3.73179">
        <ele>166.3</ele>
        <time>2023-04-05T14:36:56Z</time>
      </trkpt>
      <trkpt lat="48.00971" lon="-3.73186">
        <ele>166.2</ele>
        <time>2023-04-05T14:36:57Z</time>
      </trkpt>
      <trkpt lat="48.00969" lon="-3.73194">
        <ele>166</ele>
        <time>2023-04-05T14:36:58Z</time>
      </trkpt>
      <trkpt lat="48.00966" lon="-3.732">
        <ele>165.9</ele>
        <time>2023-04-05T14:36:59Z</time>
      </trkpt>
      <trkpt lat="48.00964" lon="-3.73208">
        <ele>165.8</ele>
        <time>2023-04-05T14:37:00Z</time>
      </trkpt>
      <trkpt lat="48.00961" lon="-3.73217">
        <ele>165.7</ele>
        <time>2023-04-05T14:37:01Z</time>
      </trkpt>
      <trkpt lat="48.00958" lon="-3.73225">
        <ele>165.5</ele>
        <time>2023-04-05T14:37:02Z</time>
      </trkpt>
      <trkpt lat="48.00955" lon="-3.73233">
        <ele>165.4</ele>
        <time>2023-04-05T14:37:03Z</time>
      </trkpt>
      <trkpt lat="48.00951" lon="-3.7324">
        <ele>165.2</ele>
        <time>2023-04-05T14:37:04Z</time>
      </trkpt>
      <trkpt lat="48.00949" lon="-3.73249">
        <ele>165.1</ele>
        <time>2023-04-05T14:37:05Z</time>
      </trkpt>
      <trkpt lat="48.00946" lon="-3.73259">
        <ele>164.9</ele>
        <time>2023-04-05T14:37:06Z</time>
      </trkpt>
      <trkpt lat="48.00943" lon="-3.73267">
        <ele>164.8</ele>
        <time>2023-04-05T14:37:07Z</time>
      </trkpt>
      <trkpt lat="48.00939" lon="-3.73275">
        <ele>164.6</ele>
        <time>2023-04-05T14:37:08Z</time>
      </trkpt>
      <trkpt lat="48.00935" lon="-3.73285">
        <ele>164.4</ele>
        <time>2023-04-05T14:37:09Z</time>
      </trkpt>
      <trkpt lat="48.00931" lon="-3.73294">
        <ele>164.2</ele>
        <time>2023-04-05T14:37:10Z</time>
      </trkpt>
      <trkpt lat="48.00927" lon="-3.73303">
        <ele>164</ele>
        <time>2023-04-05T14:37:11Z</time>
      </trkpt>
      <trkpt lat="48.00923" lon="-3.73311">
        <ele>163.9</ele>
        <time>2023-04-05T14:37:12Z</time>
      </trkpt>
      <trkpt lat="48.0092" lon="-3.73319">
        <ele>163.8</ele>
        <time>2023-04-05T14:37:13Z</time>
      </trkpt>
      <trkpt lat="48.00916" lon="-3.73327">
        <ele>163.6</ele>
        <time>2023-04-05T14:37:14Z</time>
      </trkpt>
      <trkpt lat="48.00913" lon="-3.73335">
        <ele>163.5</ele>
        <time>2023-04-05T14:37:15Z</time>
      </trkpt>
      <trkpt lat="48.00909" lon="-3.73342">
        <ele>163.3</ele>
        <time>2023-04-05T14:37:16Z</time>
      </trkpt>
      <trkpt lat="48.00906" lon="-3.7335">
        <ele>163.2</ele>
        <time>2023-04-05T14:37:17Z</time>
      </trkpt>
      <trkpt lat="48.00902" lon="-3.73357">
        <ele>163</ele>
        <time>2023-04-05T14:37:18Z</time>
      </trkpt>
      <trkpt lat="48.00898" lon="-3.73365">
        <ele>162.9</ele>
        <time>2023-04-05T14:37:19Z</time>
      </trkpt>
      <trkpt lat="48.00893" lon="-3.73372">
        <ele>162.7</ele>
        <time>2023-04-05T14:37:20Z</time>
      </trkpt>
      <trkpt lat="48.00889" lon="-3.7338">
        <ele>162.6</ele>
        <time>2023-04-05T14:37:21Z</time>
      </trkpt>
      <trkpt lat="48.00884" lon="-3.73386">
        <ele>162.5</ele>
        <time>2023-04-05T14:37:22Z</time>
      </trkpt>
      <trkpt lat="48.00879" lon="-3.73392">
        <ele>162.4</ele>
        <time>2023-04-05T14:37:23Z</time>
      </trkpt>
      <trkpt lat="48.00874" lon="-3.73398">
        <ele>162.3</ele>
        <time>2023-04-05T14:37:24Z</time>
      </trkpt>
      <trkpt lat="48.00869" lon="-3.73404">
        <ele>162.2</ele>
        <time>2023-04-05T14:37:25Z</time>
      </trkpt>
      <trkpt lat="48.00865" lon="-3.7341">
        <ele>162.1</ele>
        <time>2023-04-05T14:37:26Z</time>
      </trkpt>
      <trkpt lat="48.0086" lon="-3.73417">
        <ele>162</ele>
        <time>2023-04-05T14:37:27Z</time>
      </trkpt>
      <trkpt lat="48.00855" lon="-3.73422">
        <ele>161.8</ele>
        <time>2023-04-05T14:37:28Z</time>
      </trkpt>
      <trkpt lat="48.00851" lon="-3.73428">
        <ele>161.7</ele>
        <time>2023-04-05T14:37:29Z</time>
      </trkpt>
      <trkpt lat="48.00846" lon="-3.73434">
        <ele>161.5</ele>
        <time>2023-04-05T14:37:30Z</time>
      </trkpt>
      <trkpt lat="48.0084" lon="-3.7344">
        <ele>161.4</ele>
        <time>2023-04-05T14:37:31Z</time>
      </trkpt>
      <trkpt lat="48.00835" lon="-3.73445">
        <ele>161.2</ele>
        <time>2023-04-05T14:37:32Z</time>
      </trkpt>
      <trkpt lat="48.0083" lon="-3.73451">
        <ele>161.1</ele>
        <time>2023-04-05T14:37:33Z</time>
      </trkpt>
      <trkpt lat="48.00826" lon="-3.73458">
        <ele>161</ele>
        <time>2023-04-05T14:37:34Z</time>
      </trkpt>
      <trkpt lat="48.00821" lon="-3.73465">
        <ele>160.8</ele>
        <time>2023-04-05T14:37:35Z</time>
      </trkpt>
      <trkpt lat="48.00816" lon="-3.73471">
        <ele>160.7</ele>
        <time>2023-04-05T14:37:36Z</time>
      </trkpt>
      <trkpt lat="48.0081" lon="-3.73478">
        <ele>160.5</ele>
        <time>2023-04-05T14:37:37Z</time>
      </trkpt>
      <trkpt lat="48.00805" lon="-3.73484">
        <ele>160.4</ele>
        <time>2023-04-05T14:37:38Z</time>
      </trkpt>
      <trkpt lat="48.008" lon="-3.73491">
        <ele>160.3</ele>
        <time>2023-04-05T14:37:39Z</time>
      </trkpt>
      <trkpt lat="48.00795" lon="-3.73497">
        <ele>160.1</ele>
        <time>2023-04-05T14:37:40Z</time>
      </trkpt>
      <trkpt lat="48.0079" lon="-3.73503">
        <ele>160</ele>
        <time>2023-04-05T14:37:41Z</time>
      </trkpt>
      <trkpt lat="48.00784" lon="-3.73509">
        <ele>159.9</ele>
        <time>2023-04-05T14:37:42Z</time>
      </trkpt>
      <trkpt lat="48.00778" lon="-3.73516">
        <ele>159.8</ele>
        <time>2023-04-05T14:37:43Z</time>
      </trkpt>
      <trkpt lat="48.00773" lon="-3.73522">
        <ele>159.6</ele>
        <time>2023-04-05T14:37:44Z</time>
      </trkpt>
      <trkpt lat="48.00769" lon="-3.7353">
        <ele>159.5</ele>
        <time>2023-04-05T14:37:45Z</time>
      </trkpt>
      <trkpt lat="48.00764" lon="-3.73536">
        <ele>159.4</ele>
        <time>2023-04-05T14:37:46Z</time>
      </trkpt>
      <trkpt lat="48.00759" lon="-3.73541">
        <ele>159.2</ele>
        <time>2023-04-05T14:37:47Z</time>
      </trkpt>
      <trkpt lat="48.00754" lon="-3.73547">
        <ele>159.1</ele>
        <time>2023-04-05T14:37:48Z</time>
      </trkpt>
      <trkpt lat="48.00749" lon="-3.73553">
        <ele>159</ele>
        <time>2023-04-05T14:37:49Z</time>
      </trkpt>
      <trkpt lat="48.00744" lon="-3.73558">
        <ele>158.8</ele>
        <time>2023-04-05T14:37:50Z</time>
      </trkpt>
      <trkpt lat="48.00739" lon="-3.73565">
        <ele>158.6</ele>
        <time>2023-04-05T14:37:51Z</time>
      </trkpt>
      <trkpt lat="48.00734" lon="-3.73571">
        <ele>158.4</ele>
        <time>2023-04-05T14:37:52Z</time>
      </trkpt>
      <trkpt lat="48.00729" lon="-3.73576">
        <ele>158.3</ele>
        <time>2023-04-05T14:37:53Z</time>
      </trkpt>
      <trkpt lat="48.00725" lon="-3.73581">
        <ele>158.2</ele>
        <time>2023-04-05T14:37:54Z</time>
      </trkpt>
      <trkpt lat="48.0072" lon="-3.73587">
        <ele>158.1</ele>
        <time>2023-04-05T14:37:55Z</time>
      </trkpt>
      <trkpt lat="48.00715" lon="-3.73595">
        <ele>157.9</ele>
        <time>2023-04-05T14:37:56Z</time>
      </trkpt>
      <trkpt lat="48.00711" lon="-3.73602">
        <ele>157.8</ele>
        <time>2023-04-05T14:37:57Z</time>
      </trkpt>
      <trkpt lat="48.00706" lon="-3.73609">
        <ele>157.6</ele>
        <time>2023-04-05T14:37:58Z</time>
      </trkpt>
      <trkpt lat="48.00702" lon="-3.73617">
        <ele>157.5</ele>
        <time>2023-04-05T14:37:59Z</time>
      </trkpt>
      <trkpt lat="48.00698" lon="-3.73625">
        <ele>157.3</ele>
        <time>2023-04-05T14:38:00Z</time>
      </trkpt>
      <trkpt lat="48.00694" lon="-3.73633">
        <ele>157.2</ele>
        <time>2023-04-05T14:38:01Z</time>
      </trkpt>
      <trkpt lat="48.00689" lon="-3.73639">
        <ele>157</ele>
        <time>2023-04-05T14:38:02Z</time>
      </trkpt>
      <trkpt lat="48.00686" lon="-3.73647">
        <ele>156.9</ele>
        <time>2023-04-05T14:38:03Z</time>
      </trkpt>
      <trkpt lat="48.00682" lon="-3.73655">
        <ele>156.7</ele>
        <time>2023-04-05T14:38:04Z</time>
      </trkpt>
      <trkpt lat="48.00679" lon="-3.73663">
        <ele>156.6</ele>
        <time>2023-04-05T14:38:05Z</time>
      </trkpt>
      <trkpt lat="48.00676" lon="-3.73671">
        <ele>156.4</ele>
        <time>2023-04-05T14:38:06Z</time>
      </trkpt>
      <trkpt lat="48.00672" lon="-3.7368">
        <ele>156.3</ele>
        <time>2023-04-05T14:38:07Z</time>
      </trkpt>
      <trkpt lat="48.00669" lon="-3.73689">
        <ele>156.1</ele>
        <time>2023-04-05T14:38:08Z</time>
      </trkpt>
      <trkpt lat="48.00666" lon="-3.73698">
        <ele>156</ele>
        <time>2023-04-05T14:38:09Z</time>
      </trkpt>
      <trkpt lat="48.00663" lon="-3.73707">
        <ele>155.8</ele>
        <time>2023-04-05T14:38:10Z</time>
      </trkpt>
      <trkpt lat="48.00661" lon="-3.73717">
        <ele>155.7</ele>
        <time>2023-04-05T14:38:11Z</time>
      </trkpt>
      <trkpt lat="48.00659" lon="-3.73727">
        <ele>155.5</ele>
        <time>2023-04-05T14:38:12Z</time>
      </trkpt>
      <trkpt lat="48.00657" lon="-3.73736">
        <ele>155.4</ele>
        <time>2023-04-05T14:38:13Z</time>
      </trkpt>
      <trkpt lat="48.00655" lon="-3.73744">
        <ele>155.3</ele>
        <time>2023-04-05T14:38:14Z</time>
      </trkpt>
      <trkpt lat="48.00653" lon="-3.73754">
        <ele>155.2</ele>
        <time>2023-04-05T14:38:15Z</time>
      </trkpt>
      <trkpt lat="48.00652" lon="-3.73764">
        <ele>155.1</ele>
        <time>2023-04-05T14:38:16Z</time>
      </trkpt>
      <trkpt lat="48.0065" lon="-3.73773">
        <ele>154.9</ele>
        <time>2023-04-05T14:38:17Z</time>
      </trkpt>
      <trkpt lat="48.00649" lon="-3.73783">
        <ele>154.8</ele>
        <time>2023-04-05T14:38:18Z</time>
      </trkpt>
      <trkpt lat="48.00648" lon="-3.73792">
        <ele>154.7</ele>
        <time>2023-04-05T14:38:19Z</time>
      </trkpt>
      <trkpt lat="48.00648" lon="-3.73802">
        <ele>154.5</ele>
        <time>2023-04-05T14:38:20Z</time>
      </trkpt>
      <trkpt lat="48.00647" lon="-3.73811">
        <ele>154.4</ele>
        <time>2023-04-05T14:38:21Z</time>
      </trkpt>
      <trkpt lat="48.00647" lon="-3.7382">
        <ele>154.3</ele>
        <time>2023-04-05T14:38:22Z</time>
      </trkpt>
      <trkpt lat="48.00647" lon="-3.7383">
        <ele>154.1</ele>
        <time>2023-04-05T14:38:23Z</time>
      </trkpt>
      <trkpt lat="48.00646" lon="-3.7384">
        <ele>154</ele>
        <time>2023-04-05T14:38:24Z</time>
      </trkpt>
      <trkpt lat="48.00647" lon="-3.73849">
        <ele>153.9</ele>
        <time>2023-04-05T14:38:25Z</time>
      </trkpt>
      <trkpt lat="48.00648" lon="-3.73859">
        <ele>153.7</ele>
        <time>2023-04-05T14:38:26Z</time>
      </trkpt>
      <trkpt lat="48.00648" lon="-3.73868">
        <ele>153.6</ele>
        <time>2023-04-05T14:38:27Z</time>
      </trkpt>
      <trkpt lat="48.00648" lon="-3.73877">
        <ele>153.4</ele>
        <time>2023-04-05T14:38:28Z</time>
      </trkpt>
      <trkpt lat="48.00649" lon="-3.73886">
        <ele>153.3</ele>
        <time>2023-04-05T14:38:29Z</time>
      </trkpt>
      <trkpt lat="48.0065" lon="-3.73896">
        <ele>153.1</ele>
        <time>2023-04-05T14:38:30Z</time>
      </trkpt>
      <trkpt lat="48.00651" lon="-3.73906">
        <ele>152.9</ele>
        <time>2023-04-05T14:38:31Z</time>
      </trkpt>
      <trkpt lat="48.00653" lon="-3.73915">
        <ele>152.7</ele>
        <time>2023-04-05T14:38:32Z</time>
      </trkpt>
      <trkpt lat="48.00654" lon="-3.73924">
        <ele>152.5</ele>
        <time>2023-04-05T14:38:33Z</time>
      </trkpt>
      <trkpt lat="48.00656" lon="-3.73933">
        <ele>152.4</ele>
        <time>2023-04-05T14:38:34Z</time>
      </trkpt>
      <trkpt lat="48.00658" lon="-3.73942">
        <ele>152.2</ele>
        <time>2023-04-05T14:38:35Z</time>
      </trkpt>
      <trkpt lat="48.0066" lon="-3.73952">
        <ele>152</ele>
        <time>2023-04-05T14:38:36Z</time>
      </trkpt>
      <trkpt lat="48.00661" lon="-3.73962">
        <ele>151.8</ele>
        <time>2023-04-05T14:38:37Z</time>
      </trkpt>
      <trkpt lat="48.00663" lon="-3.7397">
        <ele>151.7</ele>
        <time>2023-04-05T14:38:38Z</time>
      </trkpt>
      <trkpt lat="48.00666" lon="-3.73979">
        <ele>151.6</ele>
        <time>2023-04-05T14:38:39Z</time>
      </trkpt>
      <trkpt lat="48.00667" lon="-3.73989">
        <ele>151.5</ele>
        <time>2023-04-05T14:38:40Z</time>
      </trkpt>
      <trkpt lat="48.00667" lon="-3.73999">
        <ele>151.4</ele>
        <time>2023-04-05T14:38:41Z</time>
      </trkpt>
      <trkpt lat="48.00669" lon="-3.74008">
        <ele>151.3</ele>
        <time>2023-04-05T14:38:42Z</time>
      </trkpt>
      <trkpt lat="48.00671" lon="-3.74018">
        <ele>151.2</ele>
        <time>2023-04-05T14:38:43Z</time>
      </trkpt>
      <trkpt lat="48.00672" lon="-3.74027">
        <ele>151.1</ele>
        <time>2023-04-05T14:38:44Z</time>
      </trkpt>
      <trkpt lat="48.00674" lon="-3.74036">
        <ele>151</ele>
        <time>2023-04-05T14:38:45Z</time>
      </trkpt>
      <trkpt lat="48.00676" lon="-3.74046">
        <ele>150.9</ele>
        <time>2023-04-05T14:38:46Z</time>
      </trkpt>
      <trkpt lat="48.00678" lon="-3.74056">
        <ele>150.7</ele>
        <time>2023-04-05T14:38:47Z</time>
      </trkpt>
      <trkpt lat="48.00679" lon="-3.74066">
        <ele>150.6</ele>
        <time>2023-04-05T14:38:48Z</time>
      </trkpt>
      <trkpt lat="48.00681" lon="-3.74075">
        <ele>150.5</ele>
        <time>2023-04-05T14:38:49Z</time>
      </trkpt>
      <trkpt lat="48.00682" lon="-3.74084">
        <ele>150.5</ele>
        <time>2023-04-05T14:38:50Z</time>
      </trkpt>
      <trkpt lat="48.00683" lon="-3.74093">
        <ele>150.4</ele>
        <time>2023-04-05T14:38:51Z</time>
      </trkpt>
      <trkpt lat="48.00684" lon="-3.74103">
        <ele>150.2</ele>
        <time>2023-04-05T14:38:52Z</time>
      </trkpt>
      <trkpt lat="48.00685" lon="-3.74112">
        <ele>150.1</ele>
        <time>2023-04-05T14:38:53Z</time>
      </trkpt>
      <trkpt lat="48.00685" lon="-3.7412">
        <ele>150</ele>
        <time>2023-04-05T14:38:54Z</time>
      </trkpt>
      <trkpt lat="48.00686" lon="-3.74128">
        <ele>149.9</ele>
        <time>2023-04-05T14:38:55Z</time>
      </trkpt>
      <trkpt lat="48.00686" lon="-3.74137">
        <ele>149.8</ele>
        <time>2023-04-05T14:38:56Z</time>
      </trkpt>
      <trkpt lat="48.00686" lon="-3.74146">
        <ele>149.7</ele>
        <time>2023-04-05T14:38:57Z</time>
      </trkpt>
      <trkpt lat="48.00685" lon="-3.74154">
        <ele>149.5</ele>
        <time>2023-04-05T14:38:58Z</time>
      </trkpt>
      <trkpt lat="48.00684" lon="-3.74164">
        <ele>149.3</ele>
        <time>2023-04-05T14:38:59Z</time>
      </trkpt>
      <trkpt lat="48.00683" lon="-3.74174">
        <ele>149.2</ele>
        <time>2023-04-05T14:39:00Z</time>
      </trkpt>
      <trkpt lat="48.00682" lon="-3.74183">
        <ele>149.1</ele>
        <time>2023-04-05T14:39:01Z</time>
      </trkpt>
      <trkpt lat="48.00681" lon="-3.74193">
        <ele>149</ele>
        <time>2023-04-05T14:39:02Z</time>
      </trkpt>
      <trkpt lat="48.00679" lon="-3.74202">
        <ele>148.8</ele>
        <time>2023-04-05T14:39:03Z</time>
      </trkpt>
      <trkpt lat="48.00678" lon="-3.74211">
        <ele>148.7</ele>
        <time>2023-04-05T14:39:04Z</time>
      </trkpt>
      <trkpt lat="48.00677" lon="-3.74219">
        <ele>148.5</ele>
        <time>2023-04-05T14:39:05Z</time>
      </trkpt>
      <trkpt lat="48.00675" lon="-3.74229">
        <ele>148.3</ele>
        <time>2023-04-05T14:39:06Z</time>
      </trkpt>
      <trkpt lat="48.00672" lon="-3.74238">
        <ele>148.2</ele>
        <time>2023-04-05T14:39:07Z</time>
      </trkpt>
      <trkpt lat="48.00669" lon="-3.74247">
        <ele>148</ele>
        <time>2023-04-05T14:39:08Z</time>
      </trkpt>
      <trkpt lat="48.00667" lon="-3.74256">
        <ele>147.8</ele>
        <time>2023-04-05T14:39:09Z</time>
      </trkpt>
      <trkpt lat="48.00665" lon="-3.74265">
        <ele>147.7</ele>
        <time>2023-04-05T14:39:10Z</time>
      </trkpt>
      <trkpt lat="48.00663" lon="-3.74274">
        <ele>147.6</ele>
        <time>2023-04-05T14:39:11Z</time>
      </trkpt>
      <trkpt lat="48.0066" lon="-3.74284">
        <ele>147.4</ele>
        <time>2023-04-05T14:39:12Z</time>
      </trkpt>
      <trkpt lat="48.00657" lon="-3.74294">
        <ele>147.3</ele>
        <time>2023-04-05T14:39:13Z</time>
      </trkpt>
      <trkpt lat="48.00655" lon="-3.74304">
        <ele>147.2</ele>
        <time>2023-04-05T14:39:14Z</time>
      </trkpt>
      <trkpt lat="48.00653" lon="-3.74313">
        <ele>147</ele>
        <time>2023-04-05T14:39:15Z</time>
      </trkpt>
      <trkpt lat="48.0065" lon="-3.74321">
        <ele>146.9</ele>
        <time>2023-04-05T14:39:16Z</time>
      </trkpt>
      <trkpt lat="48.00648" lon="-3.7433">
        <ele>146.8</ele>
        <time>2023-04-05T14:39:17Z</time>
      </trkpt>
      <trkpt lat="48.00646" lon="-3.74339">
        <ele>146.7</ele>
        <time>2023-04-05T14:39:18Z</time>
      </trkpt>
      <trkpt lat="48.00644" lon="-3.74349">
        <ele>146.5</ele>
        <time>2023-04-05T14:39:19Z</time>
      </trkpt>
      <trkpt lat="48.00641" lon="-3.74357">
        <ele>146.4</ele>
        <time>2023-04-05T14:39:20Z</time>
      </trkpt>
      <trkpt lat="48.00638" lon="-3.74364">
        <ele>146.3</ele>
        <time>2023-04-05T14:39:21Z</time>
      </trkpt>
      <trkpt lat="48.00636" lon="-3.74373">
        <ele>146.1</ele>
        <time>2023-04-05T14:39:22Z</time>
      </trkpt>
      <trkpt lat="48.00634" lon="-3.74381">
        <ele>146</ele>
        <time>2023-04-05T14:39:23Z</time>
      </trkpt>
      <trkpt lat="48.00632" lon="-3.74388">
        <ele>145.9</ele>
        <time>2023-04-05T14:39:24Z</time>
      </trkpt>
      <trkpt lat="48.00629" lon="-3.74397">
        <ele>145.7</ele>
        <time>2023-04-05T14:39:25Z</time>
      </trkpt>
      <trkpt lat="48.00626" lon="-3.74406">
        <ele>145.6</ele>
        <time>2023-04-05T14:39:26Z</time>
      </trkpt>
      <trkpt lat="48.00622" lon="-3.74414">
        <ele>145.4</ele>
        <time>2023-04-05T14:39:27Z</time>
      </trkpt>
      <trkpt lat="48.0062" lon="-3.74422">
        <ele>145.3</ele>
        <time>2023-04-05T14:39:28Z</time>
      </trkpt>
      <trkpt lat="48.00618" lon="-3.7443">
        <ele>145.2</ele>
        <time>2023-04-05T14:39:29Z</time>
      </trkpt>
      <trkpt lat="48.00616" lon="-3.74439">
        <ele>145.1</ele>
        <time>2023-04-05T14:39:30Z</time>
      </trkpt>
      <trkpt lat="48.00614" lon="-3.74447">
        <ele>145</ele>
        <time>2023-04-05T14:39:31Z</time>
      </trkpt>
      <trkpt lat="48.00612" lon="-3.74454">
        <ele>144.9</ele>
        <time>2023-04-05T14:39:32Z</time>
      </trkpt>
      <trkpt lat="48.0061" lon="-3.74461">
        <ele>144.8</ele>
        <time>2023-04-05T14:39:33Z</time>
      </trkpt>
      <trkpt lat="48.00608" lon="-3.7447">
        <ele>144.7</ele>
        <time>2023-04-05T14:39:34Z</time>
      </trkpt>
      <trkpt lat="48.00605" lon="-3.74477">
        <ele>144.5</ele>
        <time>2023-04-05T14:39:35Z</time>
      </trkpt>
      <trkpt lat="48.00603" lon="-3.74485">
        <ele>144.4</ele>
        <time>2023-04-05T14:39:36Z</time>
      </trkpt>
      <trkpt lat="48.00601" lon="-3.74494">
        <ele>144.3</ele>
        <time>2023-04-05T14:39:37Z</time>
      </trkpt>
      <trkpt lat="48.00599" lon="-3.74502">
        <ele>144.2</ele>
        <time>2023-04-05T14:39:38Z</time>
      </trkpt>
      <trkpt lat="48.00597" lon="-3.7451">
        <ele>144.1</ele>
        <time>2023-04-05T14:39:39Z</time>
      </trkpt>
      <trkpt lat="48.00595" lon="-3.74518">
        <ele>144</ele>
        <time>2023-04-05T14:39:40Z</time>
      </trkpt>
      <trkpt lat="48.00592" lon="-3.74526">
        <ele>143.9</ele>
        <time>2023-04-05T14:39:41Z</time>
      </trkpt>
      <trkpt lat="48.0059" lon="-3.74535">
        <ele>143.8</ele>
        <time>2023-04-05T14:39:42Z</time>
      </trkpt>
      <trkpt lat="48.00588" lon="-3.74544">
        <ele>143.7</ele>
        <time>2023-04-05T14:39:43Z</time>
      </trkpt>
      <trkpt lat="48.00585" lon="-3.74552">
        <ele>143.6</ele>
        <time>2023-04-05T14:39:44Z</time>
      </trkpt>
      <trkpt lat="48.00583" lon="-3.74561">
        <ele>143.5</ele>
        <time>2023-04-05T14:39:45Z</time>
      </trkpt>
      <trkpt lat="48.0058" lon="-3.74569">
        <ele>143.4</ele>
        <time>2023-04-05T14:39:46Z</time>
      </trkpt>
      <trkpt lat="48.00578" lon="-3.74578">
        <ele>143.3</ele>
        <time>2023-04-05T14:39:47Z</time>
      </trkpt>
      <trkpt lat="48.00575" lon="-3.74586">
        <ele>143.2</ele>
        <time>2023-04-05T14:39:48Z</time>
      </trkpt>
      <trkpt lat="48.00573" lon="-3.74593">
        <ele>143.1</ele>
        <time>2023-04-05T14:39:49Z</time>
      </trkpt>
      <trkpt lat="48.00572" lon="-3.74602">
        <ele>143</ele>
        <time>2023-04-05T14:39:50Z</time>
      </trkpt>
      <trkpt lat="48.00569" lon="-3.7461">
        <ele>142.9</ele>
        <time>2023-04-05T14:39:51Z</time>
      </trkpt>
      <trkpt lat="48.00567" lon="-3.74619">
        <ele>142.7</ele>
        <time>2023-04-05T14:39:52Z</time>
      </trkpt>
      <trkpt lat="48.00564" lon="-3.74626">
        <ele>142.6</ele>
        <time>2023-04-05T14:39:53Z</time>
      </trkpt>
      <trkpt lat="48.00562" lon="-3.74636">
        <ele>142.5</ele>
        <time>2023-04-05T14:39:54Z</time>
      </trkpt>
      <trkpt lat="48.00559" lon="-3.74645">
        <ele>142.4</ele>
        <time>2023-04-05T14:39:55Z</time>
      </trkpt>
      <trkpt lat="48.00555" lon="-3.74653">
        <ele>142.3</ele>
        <time>2023-04-05T14:39:56Z</time>
      </trkpt>
      <trkpt lat="48.00552" lon="-3.74659">
        <ele>142.2</ele>
        <time>2023-04-05T14:39:57Z</time>
      </trkpt>
      <trkpt lat="48.0055" lon="-3.74666">
        <ele>142.1</ele>
        <time>2023-04-05T14:39:58Z</time>
      </trkpt>
      <trkpt lat="48.00548" lon="-3.74673">
        <ele>142</ele>
        <time>2023-04-05T14:39:59Z</time>
      </trkpt>
      <trkpt lat="48.00544" lon="-3.74681">
        <ele>141.8</ele>
        <time>2023-04-05T14:40:00Z</time>
      </trkpt>
      <trkpt lat="48.00541" lon="-3.74689">
        <ele>141.7</ele>
        <time>2023-04-05T14:40:01Z</time>
      </trkpt>
      <trkpt lat="48.00538" lon="-3.74697">
        <ele>141.6</ele>
        <time>2023-04-05T14:40:02Z</time>
      </trkpt>
      <trkpt lat="48.00534" lon="-3.74705">
        <ele>141.4</ele>
        <time>2023-04-05T14:40:03Z</time>
      </trkpt>
      <trkpt lat="48.0053" lon="-3.74711">
        <ele>141.3</ele>
        <time>2023-04-05T14:40:04Z</time>
      </trkpt>
      <trkpt lat="48.00526" lon="-3.74718">
        <ele>141.2</ele>
        <time>2023-04-05T14:40:05Z</time>
      </trkpt>
      <trkpt lat="48.00522" lon="-3.74726">
        <ele>141.1</ele>
        <time>2023-04-05T14:40:06Z</time>
      </trkpt>
      <trkpt lat="48.00519" lon="-3.74734">
        <ele>140.9</ele>
        <time>2023-04-05T14:40:07Z</time>
      </trkpt>
      <trkpt lat="48.00516" lon="-3.7474">
        <ele>140.8</ele>
        <time>2023-04-05T14:40:08Z</time>
      </trkpt>
      <trkpt lat="48.00512" lon="-3.74748">
        <ele>140.7</ele>
        <time>2023-04-05T14:40:09Z</time>
      </trkpt>
      <trkpt lat="48.00507" lon="-3.74755">
        <ele>140.6</ele>
        <time>2023-04-05T14:40:10Z</time>
      </trkpt>
      <trkpt lat="48.00503" lon="-3.74761">
        <ele>140.4</ele>
        <time>2023-04-05T14:40:11Z</time>
      </trkpt>
      <trkpt lat="48.00498" lon="-3.74767">
        <ele>140.3</ele>
        <time>2023-04-05T14:40:12Z</time>
      </trkpt>
      <trkpt lat="48.00494" lon="-3.74774">
        <ele>140.2</ele>
        <time>2023-04-05T14:40:13Z</time>
      </trkpt>
      <trkpt lat="48.0049" lon="-3.74781">
        <ele>140.1</ele>
        <time>2023-04-05T14:40:14Z</time>
      </trkpt>
      <trkpt lat="48.00485" lon="-3.74787">
        <ele>140</ele>
        <time>2023-04-05T14:40:15Z</time>
      </trkpt>
      <trkpt lat="48.00481" lon="-3.74793">
        <ele>139.9</ele>
        <time>2023-04-05T14:40:16Z</time>
      </trkpt>
      <trkpt lat="48.00478" lon="-3.74799">
        <ele>139.8</ele>
        <time>2023-04-05T14:40:17Z</time>
      </trkpt>
      <trkpt lat="48.00473" lon="-3.74804">
        <ele>139.7</ele>
        <time>2023-04-05T14:40:18Z</time>
      </trkpt>
      <trkpt lat="48.00468" lon="-3.7481">
        <ele>139.6</ele>
        <time>2023-04-05T14:40:19Z</time>
      </trkpt>
      <trkpt lat="48.00463" lon="-3.74816">
        <ele>139.5</ele>
        <time>2023-04-05T14:40:20Z</time>
      </trkpt>
      <trkpt lat="48.00457" lon="-3.74821">
        <ele>139.4</ele>
        <time>2023-04-05T14:40:21Z</time>
      </trkpt>
      <trkpt lat="48.00452" lon="-3.74827">
        <ele>139.3</ele>
        <time>2023-04-05T14:40:22Z</time>
      </trkpt>
      <trkpt lat="48.00446" lon="-3.74831">
        <ele>139.2</ele>
        <time>2023-04-05T14:40:23Z</time>
      </trkpt>
      <trkpt lat="48.00442" lon="-3.74837">
        <ele>139.1</ele>
        <time>2023-04-05T14:40:24Z</time>
      </trkpt>
      <trkpt lat="48.00437" lon="-3.74841">
        <ele>139</ele>
        <time>2023-04-05T14:40:25Z</time>
      </trkpt>
      <trkpt lat="48.00431" lon="-3.74845">
        <ele>138.9</ele>
        <time>2023-04-05T14:40:26Z</time>
      </trkpt>
      <trkpt lat="48.00426" lon="-3.74851">
        <ele>138.8</ele>
        <time>2023-04-05T14:40:27Z</time>
      </trkpt>
      <trkpt lat="48.00422" lon="-3.74855">
        <ele>138.7</ele>
        <time>2023-04-05T14:40:28Z</time>
      </trkpt>
      <trkpt lat="48.00417" lon="-3.7486">
        <ele>138.6</ele>
        <time>2023-04-05T14:40:29Z</time>
      </trkpt>
      <trkpt lat="48.00411" lon="-3.74865">
        <ele>138.5</ele>
        <time>2023-04-05T14:40:30Z</time>
      </trkpt>
      <trkpt lat="48.00405" lon="-3.74869">
        <ele>138.4</ele>
        <time>2023-04-05T14:40:31Z</time>
      </trkpt>
      <trkpt lat="48.00399" lon="-3.74873">
        <ele>138.2</ele>
        <time>2023-04-05T14:40:32Z</time>
      </trkpt>
      <trkpt lat="48.00394" lon="-3.74876">
        <ele>138.1</ele>
        <time>2023-04-05T14:40:33Z</time>
      </trkpt>
      <trkpt lat="48.0039" lon="-3.7488">
        <ele>138</ele>
        <time>2023-04-05T14:40:34Z</time>
      </trkpt>
      <trkpt lat="48.00386" lon="-3.74885">
        <ele>137.9</ele>
        <time>2023-04-05T14:40:35Z</time>
      </trkpt>
      <trkpt lat="48.00381" lon="-3.74889">
        <ele>137.8</ele>
        <time>2023-04-05T14:40:36Z</time>
      </trkpt>
      <trkpt lat="48.00375" lon="-3.74893">
        <ele>137.7</ele>
        <time>2023-04-05T14:40:37Z</time>
      </trkpt>
      <trkpt lat="48.0037" lon="-3.74898">
        <ele>137.6</ele>
        <time>2023-04-05T14:40:38Z</time>
      </trkpt>
      <trkpt lat="48.00365" lon="-3.74901">
        <ele>137.5</ele>
        <time>2023-04-05T14:40:39Z</time>
      </trkpt>
      <trkpt lat="48.00361" lon="-3.74905">
        <ele>137.4</ele>
        <time>2023-04-05T14:40:40Z</time>
      </trkpt>
      <trkpt lat="48.00355" lon="-3.74909">
        <ele>137.3</ele>
        <time>2023-04-05T14:40:41Z</time>
      </trkpt>
      <trkpt lat="48.00349" lon="-3.74912">
        <ele>137.2</ele>
        <time>2023-04-05T14:40:42Z</time>
      </trkpt>
      <trkpt lat="48.00343" lon="-3.74915">
        <ele>137.1</ele>
        <time>2023-04-05T14:40:43Z</time>
      </trkpt>
      <trkpt lat="48.00338" lon="-3.7492">
        <ele>137</ele>
        <time>2023-04-05T14:40:44Z</time>
      </trkpt>
      <trkpt lat="48.00334" lon="-3.74924">
        <ele>136.9</ele>
        <time>2023-04-05T14:40:45Z</time>
      </trkpt>
      <trkpt lat="48.00329" lon="-3.74929">
        <ele>136.7</ele>
        <time>2023-04-05T14:40:46Z</time>
      </trkpt>
      <trkpt lat="48.00323" lon="-3.74933">
        <ele>136.6</ele>
        <time>2023-04-05T14:40:47Z</time>
      </trkpt>
      <trkpt lat="48.00318" lon="-3.74937">
        <ele>136.5</ele>
        <time>2023-04-05T14:40:48Z</time>
      </trkpt>
      <trkpt lat="48.00311" lon="-3.7494">
        <ele>136.4</ele>
        <time>2023-04-05T14:40:49Z</time>
      </trkpt>
      <trkpt lat="48.00305" lon="-3.74943">
        <ele>136.2</ele>
        <time>2023-04-05T14:40:50Z</time>
      </trkpt>
      <trkpt lat="48.003" lon="-3.74948">
        <ele>136.1</ele>
        <time>2023-04-05T14:40:51Z</time>
      </trkpt>
      <trkpt lat="48.00294" lon="-3.74953">
        <ele>136</ele>
        <time>2023-04-05T14:40:52Z</time>
      </trkpt>
      <trkpt lat="48.00289" lon="-3.74957">
        <ele>135.8</ele>
        <time>2023-04-05T14:40:53Z</time>
      </trkpt>
      <trkpt lat="48.00282" lon="-3.74962">
        <ele>135.7</ele>
        <time>2023-04-05T14:40:54Z</time>
      </trkpt>
      <trkpt lat="48.00278" lon="-3.74967">
        <ele>135.5</ele>
        <time>2023-04-05T14:40:55Z</time>
      </trkpt>
      <trkpt lat="48.00274" lon="-3.74972">
        <ele>135.4</ele>
        <time>2023-04-05T14:40:56Z</time>
      </trkpt>
      <trkpt lat="48.00268" lon="-3.74977">
        <ele>135.2</ele>
        <time>2023-04-05T14:40:57Z</time>
      </trkpt>
      <trkpt lat="48.00261" lon="-3.7498">
        <ele>135.1</ele>
        <time>2023-04-05T14:40:58Z</time>
      </trkpt>
      <trkpt lat="48.00254" lon="-3.74983">
        <ele>134.9</ele>
        <time>2023-04-05T14:40:59Z</time>
      </trkpt>
      <trkpt lat="48.00248" lon="-3.74987">
        <ele>134.8</ele>
        <time>2023-04-05T14:41:00Z</time>
      </trkpt>
      <trkpt lat="48.00242" lon="-3.74992">
        <ele>134.7</ele>
        <time>2023-04-05T14:41:01Z</time>
      </trkpt>
      <trkpt lat="48.00237" lon="-3.74997">
        <ele>134.6</ele>
        <time>2023-04-05T14:41:02Z</time>
      </trkpt>
      <trkpt lat="48.00232" lon="-3.75001">
        <ele>134.6</ele>
        <time>2023-04-05T14:41:03Z</time>
      </trkpt>
      <trkpt lat="48.00226" lon="-3.75006">
        <ele>134.5</ele>
        <time>2023-04-05T14:41:04Z</time>
      </trkpt>
      <trkpt lat="48.0022" lon="-3.7501">
        <ele>134.4</ele>
        <time>2023-04-05T14:41:05Z</time>
      </trkpt>
      <trkpt lat="48.00214" lon="-3.75015">
        <ele>134.3</ele>
        <time>2023-04-05T14:41:06Z</time>
      </trkpt>
      <trkpt lat="48.00209" lon="-3.7502">
        <ele>134.3</ele>
        <time>2023-04-05T14:41:07Z</time>
      </trkpt>
      <trkpt lat="48.00204" lon="-3.75025">
        <ele>134.3</ele>
        <time>2023-04-05T14:41:08Z</time>
      </trkpt>
      <trkpt lat="48.00199" lon="-3.75031">
        <ele>134.4</ele>
        <time>2023-04-05T14:41:09Z</time>
      </trkpt>
      <trkpt lat="48.00195" lon="-3.75036">
        <ele>134.4</ele>
        <time>2023-04-05T14:41:10Z</time>
      </trkpt>
      <trkpt lat="48.00191" lon="-3.75041">
        <ele>134.5</ele>
        <time>2023-04-05T14:41:11Z</time>
      </trkpt>
      <trkpt lat="48.00188" lon="-3.75046">
        <ele>134.5</ele>
        <time>2023-04-05T14:41:12Z</time>
      </trkpt>
      <trkpt lat="48.00185" lon="-3.75049">
        <ele>134.5</ele>
        <time>2023-04-05T14:41:13Z</time>
      </trkpt>
      <trkpt lat="48.00184" lon="-3.7505">
        <ele>134.5</ele>
        <time>2023-04-05T14:41:14Z</time>
      </trkpt>
      <trkpt lat="48.00181" lon="-3.75053">
        <ele>134.5</ele>
        <time>2023-04-05T14:41:15Z</time>
      </trkpt>
      <trkpt lat="48.00179" lon="-3.75056">
        <ele>134.5</ele>
        <time>2023-04-05T14:41:16Z</time>
      </trkpt>
      <trkpt lat="48.00177" lon="-3.75059">
        <ele>134.5</ele>
        <time>2023-04-05T14:41:17Z</time>
      </trkpt>
      <trkpt lat="48.00175" lon="-3.75063">
        <ele>134.5</ele>
        <time>2023-04-05T14:41:18Z</time>
      </trkpt>
      <trkpt lat="48.00174" lon="-3.75064">
        <ele>134.5</ele>
        <time>2023-04-05T14:41:19Z</time>
      </trkpt>
      <trkpt lat="48.00173" lon="-3.75065">
        <ele>134.5</ele>
        <time>2023-04-05T14:41:20Z</time>
      </trkpt>
      <trkpt lat="48.00167" lon="-3.75073">
        <ele>134.4</ele>
        <time>2023-04-05T14:41:22Z</time>
      </trkpt>
      <trkpt lat="48.00163" lon="-3.75078">
        <ele>134.3</ele>
        <time>2023-04-05T14:41:24Z</time>
      </trkpt>
      <trkpt lat="48.00159" lon="-3.75079">
        <ele>134.2</ele>
        <time>2023-04-05T14:41:25Z</time>
      </trkpt>
      <trkpt lat="48.00156" lon="-3.75081">
        <ele>134.1</ele>
        <time>2023-04-05T14:41:26Z</time>
      </trkpt>
      <trkpt lat="48.00152" lon="-3.75086">
        <ele>134</ele>
        <time>2023-04-05T14:41:27Z</time>
      </trkpt>
      <trkpt lat="48.00149" lon="-3.75089">
        <ele>133.9</ele>
        <time>2023-04-05T14:41:28Z</time>
      </trkpt>
      <trkpt lat="48.00146" lon="-3.75092">
        <ele>133.9</ele>
        <time>2023-04-05T14:41:29Z</time>
      </trkpt>
      <trkpt lat="48.00144" lon="-3.75097">
        <ele>133.8</ele>
        <time>2023-04-05T14:41:30Z</time>
      </trkpt>
      <trkpt lat="48.00142" lon="-3.75101">
        <ele>133.7</ele>
        <time>2023-04-05T14:41:31Z</time>
      </trkpt>
      <trkpt lat="48.0014" lon="-3.75105">
        <ele>133.7</ele>
        <time>2023-04-05T14:41:32Z</time>
      </trkpt>
      <trkpt lat="48.00138" lon="-3.75109">
        <ele>133.6</ele>
        <time>2023-04-05T14:41:33Z</time>
      </trkpt>
      <trkpt lat="48.00134" lon="-3.75117">
        <ele>133.5</ele>
        <time>2023-04-05T14:41:34Z</time>
      </trkpt>
      <trkpt lat="48.00131" lon="-3.75122">
        <ele>133.4</ele>
        <time>2023-04-05T14:41:36Z</time>
      </trkpt>
      <trkpt lat="48.0013" lon="-3.75126">
        <ele>133.4</ele>
        <time>2023-04-05T14:41:37Z</time>
      </trkpt>
      <trkpt lat="48.00127" lon="-3.7513">
        <ele>133.4</ele>
        <time>2023-04-05T14:41:38Z</time>
      </trkpt>
      <trkpt lat="48.00125" lon="-3.75134">
        <ele>133.3</ele>
        <time>2023-04-05T14:41:39Z</time>
      </trkpt>
      <trkpt lat="48.00122" lon="-3.7514">
        <ele>133.3</ele>
        <time>2023-04-05T14:41:40Z</time>
      </trkpt>
      <trkpt lat="48.0012" lon="-3.75144">
        <ele>133.2</ele>
        <time>2023-04-05T14:41:42Z</time>
      </trkpt>
      <trkpt lat="48.00117" lon="-3.75151">
        <ele>133.2</ele>
        <time>2023-04-05T14:41:43Z</time>
      </trkpt>
      <trkpt lat="48.00114" lon="-3.75155">
        <ele>133.1</ele>
        <time>2023-04-05T14:41:45Z</time>
      </trkpt>
      <trkpt lat="48.00112" lon="-3.75158">
        <ele>133.1</ele>
        <time>2023-04-05T14:41:46Z</time>
      </trkpt>
      <trkpt lat="48.0011" lon="-3.75162">
        <ele>133.1</ele>
        <time>2023-04-05T14:41:47Z</time>
      </trkpt>
      <trkpt lat="48.00109" lon="-3.75167">
        <ele>133</ele>
        <time>2023-04-05T14:41:48Z</time>
      </trkpt>
      <trkpt lat="48.00108" lon="-3.75169">
        <ele>133</ele>
        <time>2023-04-05T14:41:49Z</time>
      </trkpt>
      <trkpt lat="48.00107" lon="-3.75172">
        <ele>133</ele>
        <time>2023-04-05T14:41:50Z</time>
      </trkpt>
      <trkpt lat="48.00105" lon="-3.75175">
        <ele>133</ele>
        <time>2023-04-05T14:41:51Z</time>
      </trkpt>
      <trkpt lat="48.00103" lon="-3.75179">
        <ele>132.9</ele>
        <time>2023-04-05T14:41:52Z</time>
      </trkpt>
      <trkpt lat="48.00102" lon="-3.75183">
        <ele>132.9</ele>
        <time>2023-04-05T14:41:53Z</time>
      </trkpt>
      <trkpt lat="48.001" lon="-3.75186">
        <ele>132.9</ele>
        <time>2023-04-05T14:41:54Z</time>
      </trkpt>
      <trkpt lat="48.00098" lon="-3.75191">
        <ele>132.9</ele>
        <time>2023-04-05T14:41:55Z</time>
      </trkpt>
      <trkpt lat="48.00098" lon="-3.75193">
        <ele>132.9</ele>
        <time>2023-04-05T14:41:56Z</time>
      </trkpt>
      <trkpt lat="48.00096" lon="-3.75197">
        <ele>132.8</ele>
        <time>2023-04-05T14:41:57Z</time>
      </trkpt>
      <trkpt lat="48.00094" lon="-3.75201">
        <ele>132.8</ele>
        <time>2023-04-05T14:41:58Z</time>
      </trkpt>
      <trkpt lat="48.00092" lon="-3.75206">
        <ele>132.8</ele>
        <time>2023-04-05T14:41:59Z</time>
      </trkpt>
      <trkpt lat="48.00089" lon="-3.75211">
        <ele>132.8</ele>
        <time>2023-04-05T14:42:00Z</time>
      </trkpt>
      <trkpt lat="48.00088" lon="-3.75216">
        <ele>132.8</ele>
        <time>2023-04-05T14:42:01Z</time>
      </trkpt>
      <trkpt lat="48.00086" lon="-3.7522">
        <ele>132.8</ele>
        <time>2023-04-05T14:42:02Z</time>
      </trkpt>
      <trkpt lat="48.00084" lon="-3.75224">
        <ele>132.8</ele>
        <time>2023-04-05T14:42:03Z</time>
      </trkpt>
      <trkpt lat="48.00082" lon="-3.75227">
        <ele>132.8</ele>
        <time>2023-04-05T14:42:04Z</time>
      </trkpt>
      <trkpt lat="48.00081" lon="-3.75231">
        <ele>132.8</ele>
        <time>2023-04-05T14:42:05Z</time>
      </trkpt>
      <trkpt lat="48.0008" lon="-3.75232">
        <ele>132.8</ele>
        <time>2023-04-05T14:42:06Z</time>
      </trkpt>
      <trkpt lat="48.00079" lon="-3.75233">
        <ele>132.8</ele>
        <time>2023-04-05T14:42:07Z</time>
      </trkpt>
      <trkpt lat="48.00079" lon="-3.75234">
        <ele>132.8</ele>
        <time>2023-04-05T14:42:08Z</time>
      </trkpt>
      <trkpt lat="48.00079" lon="-3.75233">
        <ele>132.8</ele>
        <time>2023-04-05T14:42:09Z</time>
      </trkpt>
      <trkpt lat="48.00079" lon="-3.75233">
        <ele>132.8</ele>
        <time>2023-04-05T14:42:10Z</time>
      </trkpt>
      <trkpt lat="48.00079" lon="-3.75233">
        <ele>132.8</ele>
        <time>2023-04-05T14:42:11Z</time>
      </trkpt>
      <trkpt lat="48.00079" lon="-3.75233">
        <ele>132.8</ele>
        <time>2023-04-05T14:42:12Z</time>
      </trkpt>
      <trkpt lat="48.00079" lon="-3.75233">
        <ele>132.8</ele>
        <time>2023-04-05T14:42:13Z</time>
      </trkpt>
      <trkpt lat="48.00079" lon="-3.75233">
        <ele>132.8</ele>
        <time>2023-04-05T14:42:14Z</time>
      </trkpt>
      <trkpt lat="48.00079" lon="-3.75233">
        <ele>132.8</ele>
        <time>2023-04-05T14:42:15Z</time>
      </trkpt>
      <trkpt lat="48.00079" lon="-3.75233">
        <ele>132.8</ele>
        <time>2023-04-05T14:42:16Z</time>
      </trkpt>
      <trkpt lat="48.00079" lon="-3.75233">
        <ele>132.8</ele>
        <time>2023-04-05T14:42:17Z</time>
      </trkpt>
      <trkpt lat="48.0008" lon="-3.75233">
        <ele>132.8</ele>
        <time>2023-04-05T14:42:18Z</time>
      </trkpt>
      <trkpt lat="48.00078" lon="-3.75236">
        <ele>132.8</ele>
        <time>2023-04-05T14:42:57Z</time>
      </trkpt>
      <trkpt lat="48.00077" lon="-3.75238">
        <ele>132.8</ele>
        <time>2023-04-05T14:42:58Z</time>
      </trkpt>
      <trkpt lat="48.00076" lon="-3.75239">
        <ele>132.8</ele>
        <time>2023-04-05T14:42:59Z</time>
      </trkpt>
      <trkpt lat="48.00074" lon="-3.75243">
        <ele>132.8</ele>
        <time>2023-04-05T14:43:00Z</time>
      </trkpt>
      <trkpt lat="48.00073" lon="-3.75245">
        <ele>132.8</ele>
        <time>2023-04-05T14:43:01Z</time>
      </trkpt>
      <trkpt lat="48.00072" lon="-3.75248">
        <ele>132.8</ele>
        <time>2023-04-05T14:43:02Z</time>
      </trkpt>
      <trkpt lat="48.00071" lon="-3.75252">
        <ele>132.8</ele>
        <time>2023-04-05T14:43:03Z</time>
      </trkpt>
      <trkpt lat="48.0007" lon="-3.75254">
        <ele>132.8</ele>
        <time>2023-04-05T14:43:04Z</time>
      </trkpt>
      <trkpt lat="48.00068" lon="-3.75258">
        <ele>132.8</ele>
        <time>2023-04-05T14:43:05Z</time>
      </trkpt>
      <trkpt lat="48.00065" lon="-3.75264">
        <ele>132.7</ele>
        <time>2023-04-05T14:43:07Z</time>
      </trkpt>
      <trkpt lat="48.00062" lon="-3.75271">
        <ele>132.7</ele>
        <time>2023-04-05T14:43:08Z</time>
      </trkpt>
      <trkpt lat="48.00061" lon="-3.75275">
        <ele>132.7</ele>
        <time>2023-04-05T14:43:09Z</time>
      </trkpt>
      <trkpt lat="48.00059" lon="-3.75279">
        <ele>132.7</ele>
        <time>2023-04-05T14:43:11Z</time>
      </trkpt>
      <trkpt lat="48.00056" lon="-3.75283">
        <ele>132.7</ele>
        <time>2023-04-05T14:43:12Z</time>
      </trkpt>
      <trkpt lat="48.00054" lon="-3.75288">
        <ele>132.7</ele>
        <time>2023-04-05T14:43:13Z</time>
      </trkpt>
      <trkpt lat="48.0005" lon="-3.75297">
        <ele>132.7</ele>
        <time>2023-04-05T14:43:15Z</time>
      </trkpt>
      <trkpt lat="48.00049" lon="-3.753">
        <ele>132.7</ele>
        <time>2023-04-05T14:43:16Z</time>
      </trkpt>
      <trkpt lat="48.00044" lon="-3.75308">
        <ele>132.7</ele>
        <time>2023-04-05T14:43:18Z</time>
      </trkpt>
      <trkpt lat="48.00041" lon="-3.75312">
        <ele>132.6</ele>
        <time>2023-04-05T14:43:20Z</time>
      </trkpt>
      <trkpt lat="48.00036" lon="-3.75323">
        <ele>132.6</ele>
        <time>2023-04-05T14:43:21Z</time>
      </trkpt>
      <trkpt lat="48.0003" lon="-3.75334">
        <ele>132.6</ele>
        <time>2023-04-05T14:43:23Z</time>
      </trkpt>
      <trkpt lat="48.00027" lon="-3.75339">
        <ele>132.5</ele>
        <time>2023-04-05T14:43:25Z</time>
      </trkpt>
      <trkpt lat="48.00025" lon="-3.75344">
        <ele>132.5</ele>
        <time>2023-04-05T14:43:26Z</time>
      </trkpt>
      <trkpt lat="48.00023" lon="-3.75349">
        <ele>132.5</ele>
        <time>2023-04-05T14:43:27Z</time>
      </trkpt>
      <trkpt lat="48.00021" lon="-3.75354">
        <ele>132.5</ele>
        <time>2023-04-05T14:43:28Z</time>
      </trkpt>
      <trkpt lat="48.0002" lon="-3.75356">
        <ele>132.4</ele>
        <time>2023-04-05T14:43:29Z</time>
      </trkpt>
      <trkpt lat="48.00018" lon="-3.75363">
        <ele>132.4</ele>
        <time>2023-04-05T14:43:30Z</time>
      </trkpt>
      <trkpt lat="48.00016" lon="-3.7537">
        <ele>132.4</ele>
        <time>2023-04-05T14:43:31Z</time>
      </trkpt>
      <trkpt lat="48.00013" lon="-3.75374">
        <ele>132.4</ele>
        <time>2023-04-05T14:43:32Z</time>
      </trkpt>
      <trkpt lat="48.00011" lon="-3.75381">
        <ele>132.4</ele>
        <time>2023-04-05T14:43:33Z</time>
      </trkpt>
      <trkpt lat="48.0001" lon="-3.75387">
        <ele>132.4</ele>
        <time>2023-04-05T14:43:34Z</time>
      </trkpt>
      <trkpt lat="48.00008" lon="-3.75392">
        <ele>132.4</ele>
        <time>2023-04-05T14:43:35Z</time>
      </trkpt>
      <trkpt lat="48.00006" lon="-3.75397">
        <ele>132.4</ele>
        <time>2023-04-05T14:43:36Z</time>
      </trkpt>
      <trkpt lat="48.00004" lon="-3.75403">
        <ele>132.4</ele>
        <time>2023-04-05T14:43:37Z</time>
      </trkpt>
      <trkpt lat="48.00002" lon="-3.75411">
        <ele>132.4</ele>
        <time>2023-04-05T14:43:38Z</time>
      </trkpt>
      <trkpt lat="48" lon="-3.75418">
        <ele>132.4</ele>
        <time>2023-04-05T14:43:40Z</time>
      </trkpt>
      <trkpt lat="47.99997" lon="-3.75424">
        <ele>132.4</ele>
        <time>2023-04-05T14:43:41Z</time>
      </trkpt>
      <trkpt lat="47.99995" lon="-3.7543">
        <ele>132.4</ele>
        <time>2023-04-05T14:43:42Z</time>
      </trkpt>
      <trkpt lat="47.99992" lon="-3.75439">
        <ele>132.4</ele>
        <time>2023-04-05T14:43:43Z</time>
      </trkpt>
      <trkpt lat="47.99989" lon="-3.75445">
        <ele>132.4</ele>
        <time>2023-04-05T14:43:44Z</time>
      </trkpt>
      <trkpt lat="47.99987" lon="-3.75452">
        <ele>132.4</ele>
        <time>2023-04-05T14:43:45Z</time>
      </trkpt>
      <trkpt lat="47.99985" lon="-3.75458">
        <ele>132.4</ele>
        <time>2023-04-05T14:43:46Z</time>
      </trkpt>
      <trkpt lat="47.99983" lon="-3.75465">
        <ele>132.4</ele>
        <time>2023-04-05T14:43:47Z</time>
      </trkpt>
      <trkpt lat="47.99981" lon="-3.75471">
        <ele>132.4</ele>
        <time>2023-04-05T14:43:48Z</time>
      </trkpt>
      <trkpt lat="47.99978" lon="-3.75478">
        <ele>132.4</ele>
        <time>2023-04-05T14:43:49Z</time>
      </trkpt>
      <trkpt lat="47.99976" lon="-3.75484">
        <ele>132.4</ele>
        <time>2023-04-05T14:43:50Z</time>
      </trkpt>
      <trkpt lat="47.99974" lon="-3.75491">
        <ele>132.4</ele>
        <time>2023-04-05T14:43:51Z</time>
      </trkpt>
      <trkpt lat="47.99972" lon="-3.75498">
        <ele>132.4</ele>
        <time>2023-04-05T14:43:52Z</time>
      </trkpt>
      <trkpt lat="47.9997" lon="-3.75505">
        <ele>132.4</ele>
        <time>2023-04-05T14:43:53Z</time>
      </trkpt>
      <trkpt lat="47.99968" lon="-3.75512">
        <ele>132.5</ele>
        <time>2023-04-05T14:43:54Z</time>
      </trkpt>
      <trkpt lat="47.99966" lon="-3.75519">
        <ele>132.5</ele>
        <time>2023-04-05T14:43:55Z</time>
      </trkpt>
      <trkpt lat="47.99964" lon="-3.75526">
        <ele>132.5</ele>
        <time>2023-04-05T14:43:56Z</time>
      </trkpt>
      <trkpt lat="47.99963" lon="-3.75533">
        <ele>132.5</ele>
        <time>2023-04-05T14:43:57Z</time>
      </trkpt>
      <trkpt lat="47.99961" lon="-3.7554">
        <ele>132.5</ele>
        <time>2023-04-05T14:43:58Z</time>
      </trkpt>
      <trkpt lat="47.9996" lon="-3.75548">
        <ele>132.5</ele>
        <time>2023-04-05T14:43:59Z</time>
      </trkpt>
      <trkpt lat="47.99958" lon="-3.75556">
        <ele>132.5</ele>
        <time>2023-04-05T14:44:00Z</time>
      </trkpt>
      <trkpt lat="47.99957" lon="-3.75563">
        <ele>132.5</ele>
        <time>2023-04-05T14:44:01Z</time>
      </trkpt>
      <trkpt lat="47.99956" lon="-3.75571">
        <ele>132.5</ele>
        <time>2023-04-05T14:44:02Z</time>
      </trkpt>
      <trkpt lat="47.99955" lon="-3.75578">
        <ele>132.5</ele>
        <time>2023-04-05T14:44:03Z</time>
      </trkpt>
      <trkpt lat="47.99954" lon="-3.75585">
        <ele>132.5</ele>
        <time>2023-04-05T14:44:04Z</time>
      </trkpt>
      <trkpt lat="47.99953" lon="-3.75593">
        <ele>132.5</ele>
        <time>2023-04-05T14:44:05Z</time>
      </trkpt>
      <trkpt lat="47.99952" lon="-3.756">
        <ele>132.5</ele>
        <time>2023-04-05T14:44:06Z</time>
      </trkpt>
      <trkpt lat="47.99951" lon="-3.75608">
        <ele>132.5</ele>
        <time>2023-04-05T14:44:07Z</time>
      </trkpt>
      <trkpt lat="47.9995" lon="-3.75615">
        <ele>132.5</ele>
        <time>2023-04-05T14:44:08Z</time>
      </trkpt>
      <trkpt lat="47.99949" lon="-3.75622">
        <ele>132.5</ele>
        <time>2023-04-05T14:44:09Z</time>
      </trkpt>
      <trkpt lat="47.99948" lon="-3.75629">
        <ele>132.5</ele>
        <time>2023-04-05T14:44:10Z</time>
      </trkpt>
      <trkpt lat="47.99947" lon="-3.75636">
        <ele>132.6</ele>
        <time>2023-04-05T14:44:11Z</time>
      </trkpt>
      <trkpt lat="47.99945" lon="-3.75643">
        <ele>132.6</ele>
        <time>2023-04-05T14:44:12Z</time>
      </trkpt>
      <trkpt lat="47.99944" lon="-3.75651">
        <ele>132.6</ele>
        <time>2023-04-05T14:44:13Z</time>
      </trkpt>
      <trkpt lat="47.99943" lon="-3.75657">
        <ele>132.7</ele>
        <time>2023-04-05T14:44:14Z</time>
      </trkpt>
      <trkpt lat="47.99942" lon="-3.75664">
        <ele>132.7</ele>
        <time>2023-04-05T14:44:15Z</time>
      </trkpt>
      <trkpt lat="47.9994" lon="-3.75671">
        <ele>132.7</ele>
        <time>2023-04-05T14:44:16Z</time>
      </trkpt>
      <trkpt lat="47.9994" lon="-3.75678">
        <ele>132.8</ele>
        <time>2023-04-05T14:44:17Z</time>
      </trkpt>
      <trkpt lat="47.99939" lon="-3.75683">
        <ele>132.8</ele>
        <time>2023-04-05T14:44:18Z</time>
      </trkpt>
      <trkpt lat="47.99938" lon="-3.7569">
        <ele>132.9</ele>
        <time>2023-04-05T14:44:19Z</time>
      </trkpt>
      <trkpt lat="47.99937" lon="-3.75696">
        <ele>132.9</ele>
        <time>2023-04-05T14:44:20Z</time>
      </trkpt>
      <trkpt lat="47.99935" lon="-3.75703">
        <ele>133</ele>
        <time>2023-04-05T14:44:21Z</time>
      </trkpt>
      <trkpt lat="47.99934" lon="-3.75709">
        <ele>133.1</ele>
        <time>2023-04-05T14:44:22Z</time>
      </trkpt>
      <trkpt lat="47.99933" lon="-3.75715">
        <ele>133.1</ele>
        <time>2023-04-05T14:44:23Z</time>
      </trkpt>
      <trkpt lat="47.99932" lon="-3.75724">
        <ele>133.2</ele>
        <time>2023-04-05T14:44:24Z</time>
      </trkpt>
      <trkpt lat="47.99931" lon="-3.75731">
        <ele>133.3</ele>
        <time>2023-04-05T14:44:25Z</time>
      </trkpt>
      <trkpt lat="47.9993" lon="-3.75736">
        <ele>133.3</ele>
        <time>2023-04-05T14:44:26Z</time>
      </trkpt>
      <trkpt lat="47.99927" lon="-3.75748">
        <ele>133.4</ele>
        <time>2023-04-05T14:44:28Z</time>
      </trkpt>
      <trkpt lat="47.99926" lon="-3.75755">
        <ele>133.5</ele>
        <time>2023-04-05T14:44:29Z</time>
      </trkpt>
      <trkpt lat="47.99925" lon="-3.75762">
        <ele>133.6</ele>
        <time>2023-04-05T14:44:30Z</time>
      </trkpt>
      <trkpt lat="47.99923" lon="-3.75767">
        <ele>133.6</ele>
        <time>2023-04-05T14:44:31Z</time>
      </trkpt>
      <trkpt lat="47.99922" lon="-3.75774">
        <ele>133.7</ele>
        <time>2023-04-05T14:44:32Z</time>
      </trkpt>
      <trkpt lat="47.99921" lon="-3.75782">
        <ele>133.7</ele>
        <time>2023-04-05T14:44:33Z</time>
      </trkpt>
      <trkpt lat="47.99921" lon="-3.75789">
        <ele>133.8</ele>
        <time>2023-04-05T14:44:34Z</time>
      </trkpt>
      <trkpt lat="47.9992" lon="-3.75795">
        <ele>133.8</ele>
        <time>2023-04-05T14:44:35Z</time>
      </trkpt>
      <trkpt lat="47.99919" lon="-3.758">
        <ele>133.9</ele>
        <time>2023-04-05T14:44:36Z</time>
      </trkpt>
      <trkpt lat="47.99916" lon="-3.75808">
        <ele>134</ele>
        <time>2023-04-05T14:44:37Z</time>
      </trkpt>
      <trkpt lat="47.99914" lon="-3.75823">
        <ele>134.1</ele>
        <time>2023-04-05T14:44:39Z</time>
      </trkpt>
      <trkpt lat="47.99913" lon="-3.7583">
        <ele>134.1</ele>
        <time>2023-04-05T14:44:40Z</time>
      </trkpt>
      <trkpt lat="47.9991" lon="-3.75835">
        <ele>134.2</ele>
        <time>2023-04-05T14:44:41Z</time>
      </trkpt>
      <trkpt lat="47.99908" lon="-3.7584">
        <ele>134.2</ele>
        <time>2023-04-05T14:44:42Z</time>
      </trkpt>
      <trkpt lat="47.99906" lon="-3.75847">
        <ele>134.3</ele>
        <time>2023-04-05T14:44:43Z</time>
      </trkpt>
      <trkpt lat="47.99907" lon="-3.75852">
        <ele>134.4</ele>
        <time>2023-04-05T14:44:44Z</time>
      </trkpt>
      <trkpt lat="47.99904" lon="-3.75859">
        <ele>134.4</ele>
        <time>2023-04-05T14:44:45Z</time>
      </trkpt>
      <trkpt lat="47.99902" lon="-3.75865">
        <ele>134.5</ele>
        <time>2023-04-05T14:44:46Z</time>
      </trkpt>
      <trkpt lat="47.99899" lon="-3.75871">
        <ele>134.7</ele>
        <time>2023-04-05T14:44:47Z</time>
      </trkpt>
      <trkpt lat="47.99897" lon="-3.75877">
        <ele>134.8</ele>
        <time>2023-04-05T14:44:48Z</time>
      </trkpt>
      <trkpt lat="47.99895" lon="-3.75885">
        <ele>134.9</ele>
        <time>2023-04-05T14:44:49Z</time>
      </trkpt>
      <trkpt lat="47.9989" lon="-3.75899">
        <ele>135.2</ele>
        <time>2023-04-05T14:44:51Z</time>
      </trkpt>
      <trkpt lat="47.99888" lon="-3.75905">
        <ele>135.4</ele>
        <time>2023-04-05T14:44:53Z</time>
      </trkpt>
      <trkpt lat="47.99887" lon="-3.7591">
        <ele>135.5</ele>
        <time>2023-04-05T14:44:54Z</time>
      </trkpt>
      <trkpt lat="47.99885" lon="-3.75915">
        <ele>135.6</ele>
        <time>2023-04-05T14:44:55Z</time>
      </trkpt>
      <trkpt lat="47.99883" lon="-3.7592">
        <ele>135.7</ele>
        <time>2023-04-05T14:44:56Z</time>
      </trkpt>
      <trkpt lat="47.99881" lon="-3.75923">
        <ele>135.8</ele>
        <time>2023-04-05T14:44:57Z</time>
      </trkpt>
      <trkpt lat="47.99876" lon="-3.75934">
        <ele>136.1</ele>
        <time>2023-04-05T14:44:58Z</time>
      </trkpt>
      <trkpt lat="47.99874" lon="-3.7594">
        <ele>136.2</ele>
        <time>2023-04-05T14:45:00Z</time>
      </trkpt>
      <trkpt lat="47.99873" lon="-3.75945">
        <ele>136.3</ele>
        <time>2023-04-05T14:45:01Z</time>
      </trkpt>
      <trkpt lat="47.99872" lon="-3.75948">
        <ele>136.4</ele>
        <time>2023-04-05T14:45:02Z</time>
      </trkpt>
      <trkpt lat="47.9987" lon="-3.75952">
        <ele>136.4</ele>
        <time>2023-04-05T14:45:03Z</time>
      </trkpt>
      <trkpt lat="47.99866" lon="-3.7596">
        <ele>136.6</ele>
        <time>2023-04-05T14:45:04Z</time>
      </trkpt>
      <trkpt lat="47.99863" lon="-3.75964">
        <ele>136.6</ele>
        <time>2023-04-05T14:45:06Z</time>
      </trkpt>
      <trkpt lat="47.99859" lon="-3.75971">
        <ele>136.8</ele>
        <time>2023-04-05T14:45:07Z</time>
      </trkpt>
      <trkpt lat="47.99856" lon="-3.75976">
        <ele>136.8</ele>
        <time>2023-04-05T14:45:09Z</time>
      </trkpt>
      <trkpt lat="47.99854" lon="-3.7598">
        <ele>136.9</ele>
        <time>2023-04-05T14:45:10Z</time>
      </trkpt>
      <trkpt lat="47.99851" lon="-3.75984">
        <ele>137</ele>
        <time>2023-04-05T14:45:11Z</time>
      </trkpt>
      <trkpt lat="47.99848" lon="-3.75989">
        <ele>137</ele>
        <time>2023-04-05T14:45:12Z</time>
      </trkpt>
      <trkpt lat="47.99843" lon="-3.75999">
        <ele>137.1</ele>
        <time>2023-04-05T14:45:13Z</time>
      </trkpt>
      <trkpt lat="47.99841" lon="-3.76004">
        <ele>137.1</ele>
        <time>2023-04-05T14:45:15Z</time>
      </trkpt>
      <trkpt lat="47.99839" lon="-3.76009">
        <ele>137.2</ele>
        <time>2023-04-05T14:45:16Z</time>
      </trkpt>
      <trkpt lat="47.99836" lon="-3.76014">
        <ele>137.2</ele>
        <time>2023-04-05T14:45:17Z</time>
      </trkpt>
      <trkpt lat="47.99833" lon="-3.76018">
        <ele>137.3</ele>
        <time>2023-04-05T14:45:18Z</time>
      </trkpt>
      <trkpt lat="47.99829" lon="-3.76025">
        <ele>137.3</ele>
        <time>2023-04-05T14:45:19Z</time>
      </trkpt>
      <trkpt lat="47.99825" lon="-3.7603">
        <ele>137.4</ele>
        <time>2023-04-05T14:45:20Z</time>
      </trkpt>
      <trkpt lat="47.99823" lon="-3.76034">
        <ele>137.5</ele>
        <time>2023-04-05T14:45:21Z</time>
      </trkpt>
      <trkpt lat="47.9982" lon="-3.76038">
        <ele>137.6</ele>
        <time>2023-04-05T14:45:22Z</time>
      </trkpt>
      <trkpt lat="47.99816" lon="-3.76045">
        <ele>137.7</ele>
        <time>2023-04-05T14:45:23Z</time>
      </trkpt>
      <trkpt lat="47.99813" lon="-3.7605">
        <ele>137.8</ele>
        <time>2023-04-05T14:45:24Z</time>
      </trkpt>
      <trkpt lat="47.9981" lon="-3.76054">
        <ele>137.9</ele>
        <time>2023-04-05T14:45:25Z</time>
      </trkpt>
      <trkpt lat="47.99807" lon="-3.76059">
        <ele>138</ele>
        <time>2023-04-05T14:45:26Z</time>
      </trkpt>
      <trkpt lat="47.99803" lon="-3.76065">
        <ele>138.1</ele>
        <time>2023-04-05T14:45:27Z</time>
      </trkpt>
      <trkpt lat="47.998" lon="-3.76069">
        <ele>138.2</ele>
        <time>2023-04-05T14:45:28Z</time>
      </trkpt>
      <trkpt lat="47.99796" lon="-3.76073">
        <ele>138.3</ele>
        <time>2023-04-05T14:45:30Z</time>
      </trkpt>
      <trkpt lat="47.99793" lon="-3.76077">
        <ele>138.4</ele>
        <time>2023-04-05T14:45:31Z</time>
      </trkpt>
      <trkpt lat="47.99791" lon="-3.76081">
        <ele>138.5</ele>
        <time>2023-04-05T14:45:32Z</time>
      </trkpt>
      <trkpt lat="47.99788" lon="-3.76087">
        <ele>138.6</ele>
        <time>2023-04-05T14:45:33Z</time>
      </trkpt>
      <trkpt lat="47.99786" lon="-3.76091">
        <ele>138.7</ele>
        <time>2023-04-05T14:45:34Z</time>
      </trkpt>
      <trkpt lat="47.99784" lon="-3.76095">
        <ele>138.8</ele>
        <time>2023-04-05T14:45:35Z</time>
      </trkpt>
      <trkpt lat="47.99781" lon="-3.76099">
        <ele>138.9</ele>
        <time>2023-04-05T14:45:36Z</time>
      </trkpt>
      <trkpt lat="47.99778" lon="-3.76101">
        <ele>138.9</ele>
        <time>2023-04-05T14:45:37Z</time>
      </trkpt>
      <trkpt lat="47.99775" lon="-3.76106">
        <ele>139</ele>
        <time>2023-04-05T14:45:38Z</time>
      </trkpt>
      <trkpt lat="47.9977" lon="-3.76113">
        <ele>139.2</ele>
        <time>2023-04-05T14:45:39Z</time>
      </trkpt>
      <trkpt lat="47.99767" lon="-3.76118">
        <ele>139.3</ele>
        <time>2023-04-05T14:45:41Z</time>
      </trkpt>
      <trkpt lat="47.99763" lon="-3.76122">
        <ele>139.4</ele>
        <time>2023-04-05T14:45:42Z</time>
      </trkpt>
      <trkpt lat="47.9976" lon="-3.76127">
        <ele>139.5</ele>
        <time>2023-04-05T14:45:43Z</time>
      </trkpt>
      <trkpt lat="47.99758" lon="-3.76131">
        <ele>139.6</ele>
        <time>2023-04-05T14:45:44Z</time>
      </trkpt>
      <trkpt lat="47.99755" lon="-3.76135">
        <ele>139.7</ele>
        <time>2023-04-05T14:45:45Z</time>
      </trkpt>
      <trkpt lat="47.99752" lon="-3.7614">
        <ele>139.8</ele>
        <time>2023-04-05T14:45:46Z</time>
      </trkpt>
      <trkpt lat="47.99749" lon="-3.76144">
        <ele>139.9</ele>
        <time>2023-04-05T14:45:47Z</time>
      </trkpt>
      <trkpt lat="47.99746" lon="-3.76147">
        <ele>140</ele>
        <time>2023-04-05T14:45:48Z</time>
      </trkpt>
      <trkpt lat="47.99743" lon="-3.76152">
        <ele>140.1</ele>
        <time>2023-04-05T14:45:49Z</time>
      </trkpt>
      <trkpt lat="47.9974" lon="-3.76156">
        <ele>140.1</ele>
        <time>2023-04-05T14:45:50Z</time>
      </trkpt>
      <trkpt lat="47.99737" lon="-3.76161">
        <ele>140.2</ele>
        <time>2023-04-05T14:45:51Z</time>
      </trkpt>
      <trkpt lat="47.99735" lon="-3.76167">
        <ele>140.3</ele>
        <time>2023-04-05T14:45:52Z</time>
      </trkpt>
      <trkpt lat="47.99732" lon="-3.76172">
        <ele>140.4</ele>
        <time>2023-04-05T14:45:53Z</time>
      </trkpt>
      <trkpt lat="47.99729" lon="-3.76175">
        <ele>140.5</ele>
        <time>2023-04-05T14:45:54Z</time>
      </trkpt>
      <trkpt lat="47.99725" lon="-3.76179">
        <ele>140.6</ele>
        <time>2023-04-05T14:45:55Z</time>
      </trkpt>
      <trkpt lat="47.99722" lon="-3.76183">
        <ele>140.7</ele>
        <time>2023-04-05T14:45:56Z</time>
      </trkpt>
      <trkpt lat="47.99718" lon="-3.76189">
        <ele>140.8</ele>
        <time>2023-04-05T14:45:57Z</time>
      </trkpt>
      <trkpt lat="47.99714" lon="-3.76194">
        <ele>140.9</ele>
        <time>2023-04-05T14:45:58Z</time>
      </trkpt>
      <trkpt lat="47.99711" lon="-3.76198">
        <ele>141</ele>
        <time>2023-04-05T14:45:59Z</time>
      </trkpt>
      <trkpt lat="47.99708" lon="-3.76203">
        <ele>141</ele>
        <time>2023-04-05T14:46:00Z</time>
      </trkpt>
      <trkpt lat="47.99703" lon="-3.76208">
        <ele>141.2</ele>
        <time>2023-04-05T14:46:02Z</time>
      </trkpt>
      <trkpt lat="47.997" lon="-3.76213">
        <ele>141.3</ele>
        <time>2023-04-05T14:46:03Z</time>
      </trkpt>
      <trkpt lat="47.99698" lon="-3.76216">
        <ele>141.4</ele>
        <time>2023-04-05T14:46:04Z</time>
      </trkpt>
      <trkpt lat="47.99695" lon="-3.7622">
        <ele>141.5</ele>
        <time>2023-04-05T14:46:05Z</time>
      </trkpt>
      <trkpt lat="47.99692" lon="-3.76224">
        <ele>141.6</ele>
        <time>2023-04-05T14:46:06Z</time>
      </trkpt>
      <trkpt lat="47.99689" lon="-3.76228">
        <ele>141.7</ele>
        <time>2023-04-05T14:46:07Z</time>
      </trkpt>
      <trkpt lat="47.99686" lon="-3.76233">
        <ele>141.8</ele>
        <time>2023-04-05T14:46:08Z</time>
      </trkpt>
      <trkpt lat="47.99684" lon="-3.76237">
        <ele>141.9</ele>
        <time>2023-04-05T14:46:09Z</time>
      </trkpt>
      <trkpt lat="47.99679" lon="-3.76241">
        <ele>142</ele>
        <time>2023-04-05T14:46:10Z</time>
      </trkpt>
      <trkpt lat="47.99676" lon="-3.76246">
        <ele>142.1</ele>
        <time>2023-04-05T14:46:11Z</time>
      </trkpt>
      <trkpt lat="47.99674" lon="-3.76249">
        <ele>142.2</ele>
        <time>2023-04-05T14:46:12Z</time>
      </trkpt>
      <trkpt lat="47.99668" lon="-3.76258">
        <ele>142.3</ele>
        <time>2023-04-05T14:46:13Z</time>
      </trkpt>
      <trkpt lat="47.99665" lon="-3.76262">
        <ele>142.4</ele>
        <time>2023-04-05T14:46:15Z</time>
      </trkpt>
      <trkpt lat="47.99663" lon="-3.76266">
        <ele>142.5</ele>
        <time>2023-04-05T14:46:16Z</time>
      </trkpt>
      <trkpt lat="47.99657" lon="-3.76274">
        <ele>142.7</ele>
        <time>2023-04-05T14:46:17Z</time>
      </trkpt>
      <trkpt lat="47.99651" lon="-3.76282">
        <ele>142.8</ele>
        <time>2023-04-05T14:46:19Z</time>
      </trkpt>
      <trkpt lat="47.99646" lon="-3.76291">
        <ele>143</ele>
        <time>2023-04-05T14:46:21Z</time>
      </trkpt>
      <trkpt lat="47.99642" lon="-3.76296">
        <ele>143.1</ele>
        <time>2023-04-05T14:46:23Z</time>
      </trkpt>
      <trkpt lat="47.99638" lon="-3.76303">
        <ele>143.2</ele>
        <time>2023-04-05T14:46:24Z</time>
      </trkpt>
      <trkpt lat="47.99635" lon="-3.76307">
        <ele>143.3</ele>
        <time>2023-04-05T14:46:26Z</time>
      </trkpt>
      <trkpt lat="47.99632" lon="-3.7631">
        <ele>143.4</ele>
        <time>2023-04-05T14:46:27Z</time>
      </trkpt>
      <trkpt lat="47.9963" lon="-3.76313">
        <ele>143.4</ele>
        <time>2023-04-05T14:46:28Z</time>
      </trkpt>
      <trkpt lat="47.99627" lon="-3.76317">
        <ele>143.5</ele>
        <time>2023-04-05T14:46:29Z</time>
      </trkpt>
      <trkpt lat="47.99625" lon="-3.76322">
        <ele>143.6</ele>
        <time>2023-04-05T14:46:30Z</time>
      </trkpt>
      <trkpt lat="47.99622" lon="-3.76326">
        <ele>143.6</ele>
        <time>2023-04-05T14:46:31Z</time>
      </trkpt>
      <trkpt lat="47.99618" lon="-3.7633">
        <ele>143.7</ele>
        <time>2023-04-05T14:46:32Z</time>
      </trkpt>
      <trkpt lat="47.99615" lon="-3.76333">
        <ele>143.8</ele>
        <time>2023-04-05T14:46:33Z</time>
      </trkpt>
      <trkpt lat="47.99612" lon="-3.76337">
        <ele>143.9</ele>
        <time>2023-04-05T14:46:34Z</time>
      </trkpt>
      <trkpt lat="47.99609" lon="-3.76341">
        <ele>144</ele>
        <time>2023-04-05T14:46:35Z</time>
      </trkpt>
      <trkpt lat="47.99606" lon="-3.76345">
        <ele>144.1</ele>
        <time>2023-04-05T14:46:36Z</time>
      </trkpt>
      <trkpt lat="47.99604" lon="-3.76348">
        <ele>144.1</ele>
        <time>2023-04-05T14:46:37Z</time>
      </trkpt>
      <trkpt lat="47.996" lon="-3.76353">
        <ele>144.3</ele>
        <time>2023-04-05T14:46:38Z</time>
      </trkpt>
      <trkpt lat="47.99596" lon="-3.76356">
        <ele>144.4</ele>
        <time>2023-04-05T14:46:39Z</time>
      </trkpt>
      <trkpt lat="47.99592" lon="-3.76359">
        <ele>144.5</ele>
        <time>2023-04-05T14:46:40Z</time>
      </trkpt>
      <trkpt lat="47.99589" lon="-3.76364">
        <ele>144.6</ele>
        <time>2023-04-05T14:46:41Z</time>
      </trkpt>
      <trkpt lat="47.99585" lon="-3.76367">
        <ele>144.6</ele>
        <time>2023-04-05T14:46:42Z</time>
      </trkpt>
      <trkpt lat="47.99582" lon="-3.7637">
        <ele>144.7</ele>
        <time>2023-04-05T14:46:43Z</time>
      </trkpt>
      <trkpt lat="47.99578" lon="-3.76375">
        <ele>144.8</ele>
        <time>2023-04-05T14:46:44Z</time>
      </trkpt>
      <trkpt lat="47.99575" lon="-3.76379">
        <ele>144.9</ele>
        <time>2023-04-05T14:46:45Z</time>
      </trkpt>
      <trkpt lat="47.99572" lon="-3.76382">
        <ele>145</ele>
        <time>2023-04-05T14:46:46Z</time>
      </trkpt>
      <trkpt lat="47.99567" lon="-3.76386">
        <ele>145.1</ele>
        <time>2023-04-05T14:46:47Z</time>
      </trkpt>
      <trkpt lat="47.99564" lon="-3.76389">
        <ele>145.1</ele>
        <time>2023-04-05T14:46:48Z</time>
      </trkpt>
      <trkpt lat="47.9956" lon="-3.76394">
        <ele>145.2</ele>
        <time>2023-04-05T14:46:49Z</time>
      </trkpt>
      <trkpt lat="47.99552" lon="-3.76402">
        <ele>145.4</ele>
        <time>2023-04-05T14:46:51Z</time>
      </trkpt>
      <trkpt lat="47.99548" lon="-3.76405">
        <ele>145.4</ele>
        <time>2023-04-05T14:46:52Z</time>
      </trkpt>
      <trkpt lat="47.99544" lon="-3.76408">
        <ele>145.5</ele>
        <time>2023-04-05T14:46:53Z</time>
      </trkpt>
      <trkpt lat="47.99537" lon="-3.76414">
        <ele>145.7</ele>
        <time>2023-04-05T14:46:55Z</time>
      </trkpt>
      <trkpt lat="47.99533" lon="-3.76417">
        <ele>145.8</ele>
        <time>2023-04-05T14:46:57Z</time>
      </trkpt>
      <trkpt lat="47.9953" lon="-3.7642">
        <ele>145.8</ele>
        <time>2023-04-05T14:46:58Z</time>
      </trkpt>
      <trkpt lat="47.99527" lon="-3.76423">
        <ele>145.9</ele>
        <time>2023-04-05T14:46:59Z</time>
      </trkpt>
      <trkpt lat="47.99523" lon="-3.76426">
        <ele>146</ele>
        <time>2023-04-05T14:47:00Z</time>
      </trkpt>
      <trkpt lat="47.9952" lon="-3.76429">
        <ele>146.1</ele>
        <time>2023-04-05T14:47:01Z</time>
      </trkpt>
      <trkpt lat="47.99516" lon="-3.76432">
        <ele>146.2</ele>
        <time>2023-04-05T14:47:02Z</time>
      </trkpt>
      <trkpt lat="47.99512" lon="-3.76435">
        <ele>146.3</ele>
        <time>2023-04-05T14:47:03Z</time>
      </trkpt>
      <trkpt lat="47.99509" lon="-3.76438">
        <ele>146.4</ele>
        <time>2023-04-05T14:47:04Z</time>
      </trkpt>
      <trkpt lat="47.99505" lon="-3.76442">
        <ele>146.5</ele>
        <time>2023-04-05T14:47:05Z</time>
      </trkpt>
      <trkpt lat="47.99502" lon="-3.76445">
        <ele>146.6</ele>
        <time>2023-04-05T14:47:06Z</time>
      </trkpt>
      <trkpt lat="47.99499" lon="-3.76447">
        <ele>146.6</ele>
        <time>2023-04-05T14:47:07Z</time>
      </trkpt>
      <trkpt lat="47.99495" lon="-3.7645">
        <ele>146.7</ele>
        <time>2023-04-05T14:47:08Z</time>
      </trkpt>
      <trkpt lat="47.99492" lon="-3.76452">
        <ele>146.8</ele>
        <time>2023-04-05T14:47:09Z</time>
      </trkpt>
      <trkpt lat="47.99488" lon="-3.76455">
        <ele>146.9</ele>
        <time>2023-04-05T14:47:10Z</time>
      </trkpt>
      <trkpt lat="47.99486" lon="-3.76456">
        <ele>147</ele>
        <time>2023-04-05T14:47:11Z</time>
      </trkpt>
      <trkpt lat="47.99483" lon="-3.76459">
        <ele>147.1</ele>
        <time>2023-04-05T14:47:12Z</time>
      </trkpt>
      <trkpt lat="47.99479" lon="-3.76461">
        <ele>147.1</ele>
        <time>2023-04-05T14:47:13Z</time>
      </trkpt>
      <trkpt lat="47.99476" lon="-3.76464">
        <ele>147.2</ele>
        <time>2023-04-05T14:47:14Z</time>
      </trkpt>
      <trkpt lat="47.99472" lon="-3.76468">
        <ele>147.3</ele>
        <time>2023-04-05T14:47:15Z</time>
      </trkpt>
      <trkpt lat="47.99469" lon="-3.76471">
        <ele>147.4</ele>
        <time>2023-04-05T14:47:16Z</time>
      </trkpt>
      <trkpt lat="47.99465" lon="-3.76474">
        <ele>147.5</ele>
        <time>2023-04-05T14:47:17Z</time>
      </trkpt>
      <trkpt lat="47.99462" lon="-3.76478">
        <ele>147.6</ele>
        <time>2023-04-05T14:47:18Z</time>
      </trkpt>
      <trkpt lat="47.99459" lon="-3.76482">
        <ele>147.7</ele>
        <time>2023-04-05T14:47:19Z</time>
      </trkpt>
      <trkpt lat="47.99456" lon="-3.76486">
        <ele>147.8</ele>
        <time>2023-04-05T14:47:20Z</time>
      </trkpt>
      <trkpt lat="47.99452" lon="-3.7649">
        <ele>147.9</ele>
        <time>2023-04-05T14:47:21Z</time>
      </trkpt>
      <trkpt lat="47.99449" lon="-3.76494">
        <ele>147.9</ele>
        <time>2023-04-05T14:47:22Z</time>
      </trkpt>
      <trkpt lat="47.99446" lon="-3.76498">
        <ele>148</ele>
        <time>2023-04-05T14:47:23Z</time>
      </trkpt>
      <trkpt lat="47.99444" lon="-3.76501">
        <ele>148.1</ele>
        <time>2023-04-05T14:47:24Z</time>
      </trkpt>
      <trkpt lat="47.9944" lon="-3.76506">
        <ele>148.2</ele>
        <time>2023-04-05T14:47:25Z</time>
      </trkpt>
      <trkpt lat="47.99435" lon="-3.76514">
        <ele>148.4</ele>
        <time>2023-04-05T14:47:26Z</time>
      </trkpt>
      <trkpt lat="47.99432" lon="-3.76519">
        <ele>148.5</ele>
        <time>2023-04-05T14:47:27Z</time>
      </trkpt>
      <trkpt lat="47.99428" lon="-3.76529">
        <ele>148.7</ele>
        <time>2023-04-05T14:47:29Z</time>
      </trkpt>
      <trkpt lat="47.99425" lon="-3.76535">
        <ele>148.8</ele>
        <time>2023-04-05T14:47:30Z</time>
      </trkpt>
      <trkpt lat="47.99423" lon="-3.7654">
        <ele>148.8</ele>
        <time>2023-04-05T14:47:31Z</time>
      </trkpt>
      <trkpt lat="47.99421" lon="-3.76544">
        <ele>148.9</ele>
        <time>2023-04-05T14:47:32Z</time>
      </trkpt>
      <trkpt lat="47.99419" lon="-3.7655">
        <ele>149</ele>
        <time>2023-04-05T14:47:33Z</time>
      </trkpt>
      <trkpt lat="47.99417" lon="-3.76555">
        <ele>149.1</ele>
        <time>2023-04-05T14:47:34Z</time>
      </trkpt>
      <trkpt lat="47.99415" lon="-3.7656">
        <ele>149.2</ele>
        <time>2023-04-05T14:47:36Z</time>
      </trkpt>
      <trkpt lat="47.99413" lon="-3.76565">
        <ele>149.3</ele>
        <time>2023-04-05T14:47:37Z</time>
      </trkpt>
      <trkpt lat="47.99411" lon="-3.76569">
        <ele>149.3</ele>
        <time>2023-04-05T14:47:38Z</time>
      </trkpt>
      <trkpt lat="47.9941" lon="-3.76574">
        <ele>149.4</ele>
        <time>2023-04-05T14:47:39Z</time>
      </trkpt>
      <trkpt lat="47.99408" lon="-3.7658">
        <ele>149.5</ele>
        <time>2023-04-05T14:47:40Z</time>
      </trkpt>
      <trkpt lat="47.99406" lon="-3.76586">
        <ele>149.5</ele>
        <time>2023-04-05T14:47:41Z</time>
      </trkpt>
      <trkpt lat="47.99405" lon="-3.76592">
        <ele>149.6</ele>
        <time>2023-04-05T14:47:42Z</time>
      </trkpt>
      <trkpt lat="47.99403" lon="-3.76598">
        <ele>149.6</ele>
        <time>2023-04-05T14:47:43Z</time>
      </trkpt>
      <trkpt lat="47.99402" lon="-3.76605">
        <ele>149.7</ele>
        <time>2023-04-05T14:47:44Z</time>
      </trkpt>
      <trkpt lat="47.994" lon="-3.7661">
        <ele>149.7</ele>
        <time>2023-04-05T14:47:45Z</time>
      </trkpt>
      <trkpt lat="47.99399" lon="-3.76617">
        <ele>149.7</ele>
        <time>2023-04-05T14:47:46Z</time>
      </trkpt>
      <trkpt lat="47.99397" lon="-3.76623">
        <ele>149.8</ele>
        <time>2023-04-05T14:47:47Z</time>
      </trkpt>
      <trkpt lat="47.99396" lon="-3.76631">
        <ele>149.8</ele>
        <time>2023-04-05T14:47:48Z</time>
      </trkpt>
      <trkpt lat="47.99394" lon="-3.76639">
        <ele>149.8</ele>
        <time>2023-04-05T14:47:49Z</time>
      </trkpt>
      <trkpt lat="47.99393" lon="-3.76646">
        <ele>149.8</ele>
        <time>2023-04-05T14:47:50Z</time>
      </trkpt>
      <trkpt lat="47.99391" lon="-3.76652">
        <ele>149.9</ele>
        <time>2023-04-05T14:47:51Z</time>
      </trkpt>
      <trkpt lat="47.9939" lon="-3.76656">
        <ele>149.9</ele>
        <time>2023-04-05T14:47:52Z</time>
      </trkpt>
      <trkpt lat="47.99389" lon="-3.7667">
        <ele>149.9</ele>
        <time>2023-04-05T14:47:54Z</time>
      </trkpt>
      <trkpt lat="47.99389" lon="-3.76677">
        <ele>150</ele>
        <time>2023-04-05T14:47:55Z</time>
      </trkpt>
      <trkpt lat="47.99387" lon="-3.76683">
        <ele>149.9</ele>
        <time>2023-04-05T14:47:56Z</time>
      </trkpt>
      <trkpt lat="47.99386" lon="-3.76693">
        <ele>149.9</ele>
        <time>2023-04-05T14:47:57Z</time>
      </trkpt>
      <trkpt lat="47.99385" lon="-3.76705">
        <ele>149.8</ele>
        <time>2023-04-05T14:47:59Z</time>
      </trkpt>
      <trkpt lat="47.99384" lon="-3.76713">
        <ele>149.7</ele>
        <time>2023-04-05T14:48:00Z</time>
      </trkpt>
      <trkpt lat="47.99383" lon="-3.76721">
        <ele>149.6</ele>
        <time>2023-04-05T14:48:01Z</time>
      </trkpt>
      <trkpt lat="47.99382" lon="-3.76728">
        <ele>149.6</ele>
        <time>2023-04-05T14:48:02Z</time>
      </trkpt>
      <trkpt lat="47.9938" lon="-3.76736">
        <ele>149.5</ele>
        <time>2023-04-05T14:48:03Z</time>
      </trkpt>
      <trkpt lat="47.99379" lon="-3.76744">
        <ele>149.4</ele>
        <time>2023-04-05T14:48:04Z</time>
      </trkpt>
      <trkpt lat="47.99378" lon="-3.76751">
        <ele>149.3</ele>
        <time>2023-04-05T14:48:05Z</time>
      </trkpt>
      <trkpt lat="47.99376" lon="-3.76758">
        <ele>149.2</ele>
        <time>2023-04-05T14:48:06Z</time>
      </trkpt>
      <trkpt lat="47.99375" lon="-3.76766">
        <ele>149.1</ele>
        <time>2023-04-05T14:48:07Z</time>
      </trkpt>
      <trkpt lat="47.99373" lon="-3.76774">
        <ele>149</ele>
        <time>2023-04-05T14:48:08Z</time>
      </trkpt>
      <trkpt lat="47.99371" lon="-3.76782">
        <ele>148.9</ele>
        <time>2023-04-05T14:48:09Z</time>
      </trkpt>
      <trkpt lat="47.99368" lon="-3.76789">
        <ele>148.9</ele>
        <time>2023-04-05T14:48:10Z</time>
      </trkpt>
      <trkpt lat="47.99366" lon="-3.76796">
        <ele>148.8</ele>
        <time>2023-04-05T14:48:11Z</time>
      </trkpt>
      <trkpt lat="47.99364" lon="-3.76804">
        <ele>148.8</ele>
        <time>2023-04-05T14:48:12Z</time>
      </trkpt>
      <trkpt lat="47.99361" lon="-3.76812">
        <ele>148.7</ele>
        <time>2023-04-05T14:48:13Z</time>
      </trkpt>
      <trkpt lat="47.99358" lon="-3.76819">
        <ele>148.6</ele>
        <time>2023-04-05T14:48:14Z</time>
      </trkpt>
      <trkpt lat="47.99355" lon="-3.76826">
        <ele>148.5</ele>
        <time>2023-04-05T14:48:15Z</time>
      </trkpt>
      <trkpt lat="47.99352" lon="-3.76833">
        <ele>148.4</ele>
        <time>2023-04-05T14:48:16Z</time>
      </trkpt>
      <trkpt lat="47.99349" lon="-3.76839">
        <ele>148.3</ele>
        <time>2023-04-05T14:48:17Z</time>
      </trkpt>
      <trkpt lat="47.99346" lon="-3.76846">
        <ele>148.3</ele>
        <time>2023-04-05T14:48:18Z</time>
      </trkpt>
      <trkpt lat="47.99343" lon="-3.76852">
        <ele>148.2</ele>
        <time>2023-04-05T14:48:19Z</time>
      </trkpt>
      <trkpt lat="47.9934" lon="-3.76859">
        <ele>148.1</ele>
        <time>2023-04-05T14:48:20Z</time>
      </trkpt>
      <trkpt lat="47.99336" lon="-3.76865">
        <ele>148.1</ele>
        <time>2023-04-05T14:48:21Z</time>
      </trkpt>
      <trkpt lat="47.99333" lon="-3.76871">
        <ele>148</ele>
        <time>2023-04-05T14:48:22Z</time>
      </trkpt>
      <trkpt lat="47.99328" lon="-3.76877">
        <ele>148</ele>
        <time>2023-04-05T14:48:23Z</time>
      </trkpt>
      <trkpt lat="47.99324" lon="-3.76883">
        <ele>147.9</ele>
        <time>2023-04-05T14:48:24Z</time>
      </trkpt>
      <trkpt lat="47.9932" lon="-3.76888">
        <ele>147.9</ele>
        <time>2023-04-05T14:48:25Z</time>
      </trkpt>
      <trkpt lat="47.99315" lon="-3.76892">
        <ele>147.8</ele>
        <time>2023-04-05T14:48:26Z</time>
      </trkpt>
      <trkpt lat="47.99311" lon="-3.76896">
        <ele>147.8</ele>
        <time>2023-04-05T14:48:27Z</time>
      </trkpt>
      <trkpt lat="47.99306" lon="-3.76901">
        <ele>147.8</ele>
        <time>2023-04-05T14:48:28Z</time>
      </trkpt>
      <trkpt lat="47.99301" lon="-3.76905">
        <ele>147.7</ele>
        <time>2023-04-05T14:48:29Z</time>
      </trkpt>
      <trkpt lat="47.99296" lon="-3.76909">
        <ele>147.7</ele>
        <time>2023-04-05T14:48:30Z</time>
      </trkpt>
      <trkpt lat="47.99291" lon="-3.76914">
        <ele>147.7</ele>
        <time>2023-04-05T14:48:31Z</time>
      </trkpt>
      <trkpt lat="47.99286" lon="-3.76918">
        <ele>147.8</ele>
        <time>2023-04-05T14:48:32Z</time>
      </trkpt>
      <trkpt lat="47.99281" lon="-3.76922">
        <ele>147.8</ele>
        <time>2023-04-05T14:48:33Z</time>
      </trkpt>
      <trkpt lat="47.99276" lon="-3.76926">
        <ele>147.8</ele>
        <time>2023-04-05T14:48:34Z</time>
      </trkpt>
      <trkpt lat="47.99271" lon="-3.76929">
        <ele>147.8</ele>
        <time>2023-04-05T14:48:35Z</time>
      </trkpt>
      <trkpt lat="47.99266" lon="-3.76933">
        <ele>147.8</ele>
        <time>2023-04-05T14:48:36Z</time>
      </trkpt>
      <trkpt lat="47.99262" lon="-3.76937">
        <ele>147.8</ele>
        <time>2023-04-05T14:48:37Z</time>
      </trkpt>
      <trkpt lat="47.99256" lon="-3.7694">
        <ele>147.9</ele>
        <time>2023-04-05T14:48:38Z</time>
      </trkpt>
      <trkpt lat="47.99251" lon="-3.76944">
        <ele>147.9</ele>
        <time>2023-04-05T14:48:39Z</time>
      </trkpt>
      <trkpt lat="47.99247" lon="-3.76948">
        <ele>147.9</ele>
        <time>2023-04-05T14:48:40Z</time>
      </trkpt>
      <trkpt lat="47.99242" lon="-3.76952">
        <ele>148</ele>
        <time>2023-04-05T14:48:41Z</time>
      </trkpt>
      <trkpt lat="47.99237" lon="-3.76956">
        <ele>148</ele>
        <time>2023-04-05T14:48:42Z</time>
      </trkpt>
      <trkpt lat="47.99232" lon="-3.76959">
        <ele>148.1</ele>
        <time>2023-04-05T14:48:43Z</time>
      </trkpt>
      <trkpt lat="47.99227" lon="-3.76963">
        <ele>148.2</ele>
        <time>2023-04-05T14:48:44Z</time>
      </trkpt>
      <trkpt lat="47.99222" lon="-3.76967">
        <ele>148.3</ele>
        <time>2023-04-05T14:48:45Z</time>
      </trkpt>
      <trkpt lat="47.99218" lon="-3.76971">
        <ele>148.4</ele>
        <time>2023-04-05T14:48:46Z</time>
      </trkpt>
      <trkpt lat="47.99213" lon="-3.76974">
        <ele>148.5</ele>
        <time>2023-04-05T14:48:47Z</time>
      </trkpt>
      <trkpt lat="47.99209" lon="-3.76978">
        <ele>148.6</ele>
        <time>2023-04-05T14:48:48Z</time>
      </trkpt>
      <trkpt lat="47.99205" lon="-3.76982">
        <ele>148.6</ele>
        <time>2023-04-05T14:48:49Z</time>
      </trkpt>
      <trkpt lat="47.99201" lon="-3.76986">
        <ele>148.7</ele>
        <time>2023-04-05T14:48:50Z</time>
      </trkpt>
      <trkpt lat="47.99197" lon="-3.7699">
        <ele>148.8</ele>
        <time>2023-04-05T14:48:51Z</time>
      </trkpt>
      <trkpt lat="47.99192" lon="-3.76994">
        <ele>148.9</ele>
        <time>2023-04-05T14:48:52Z</time>
      </trkpt>
      <trkpt lat="47.99188" lon="-3.76999">
        <ele>149</ele>
        <time>2023-04-05T14:48:53Z</time>
      </trkpt>
      <trkpt lat="47.99185" lon="-3.77003">
        <ele>149.1</ele>
        <time>2023-04-05T14:48:54Z</time>
      </trkpt>
      <trkpt lat="47.99181" lon="-3.77008">
        <ele>149.2</ele>
        <time>2023-04-05T14:48:55Z</time>
      </trkpt>
      <trkpt lat="47.99177" lon="-3.77013">
        <ele>149.4</ele>
        <time>2023-04-05T14:48:56Z</time>
      </trkpt>
      <trkpt lat="47.99174" lon="-3.77019">
        <ele>149.5</ele>
        <time>2023-04-05T14:48:57Z</time>
      </trkpt>
      <trkpt lat="47.9917" lon="-3.77024">
        <ele>149.6</ele>
        <time>2023-04-05T14:48:58Z</time>
      </trkpt>
      <trkpt lat="47.99167" lon="-3.77029">
        <ele>149.6</ele>
        <time>2023-04-05T14:48:59Z</time>
      </trkpt>
      <trkpt lat="47.99165" lon="-3.77035">
        <ele>149.7</ele>
        <time>2023-04-05T14:49:00Z</time>
      </trkpt>
      <trkpt lat="47.99161" lon="-3.7704">
        <ele>149.8</ele>
        <time>2023-04-05T14:49:01Z</time>
      </trkpt>
      <trkpt lat="47.99158" lon="-3.77045">
        <ele>149.9</ele>
        <time>2023-04-05T14:49:02Z</time>
      </trkpt>
      <trkpt lat="47.99155" lon="-3.77051">
        <ele>149.9</ele>
        <time>2023-04-05T14:49:03Z</time>
      </trkpt>
      <trkpt lat="47.99153" lon="-3.77057">
        <ele>150</ele>
        <time>2023-04-05T14:49:04Z</time>
      </trkpt>
      <trkpt lat="47.9915" lon="-3.77063">
        <ele>150.1</ele>
        <time>2023-04-05T14:49:05Z</time>
      </trkpt>
      <trkpt lat="47.99148" lon="-3.7707">
        <ele>150.2</ele>
        <time>2023-04-05T14:49:06Z</time>
      </trkpt>
      <trkpt lat="47.99145" lon="-3.77075">
        <ele>150.2</ele>
        <time>2023-04-05T14:49:07Z</time>
      </trkpt>
      <trkpt lat="47.99143" lon="-3.77079">
        <ele>150.3</ele>
        <time>2023-04-05T14:49:08Z</time>
      </trkpt>
      <trkpt lat="47.99141" lon="-3.77084">
        <ele>150.3</ele>
        <time>2023-04-05T14:49:09Z</time>
      </trkpt>
      <trkpt lat="47.99139" lon="-3.77091">
        <ele>150.3</ele>
        <time>2023-04-05T14:49:10Z</time>
      </trkpt>
      <trkpt lat="47.99136" lon="-3.77097">
        <ele>150.4</ele>
        <time>2023-04-05T14:49:11Z</time>
      </trkpt>
      <trkpt lat="47.99133" lon="-3.77103">
        <ele>150.4</ele>
        <time>2023-04-05T14:49:12Z</time>
      </trkpt>
      <trkpt lat="47.99132" lon="-3.77109">
        <ele>150.4</ele>
        <time>2023-04-05T14:49:13Z</time>
      </trkpt>
      <trkpt lat="47.9913" lon="-3.77118">
        <ele>150.4</ele>
        <time>2023-04-05T14:49:14Z</time>
      </trkpt>
      <trkpt lat="47.99128" lon="-3.77125">
        <ele>150.4</ele>
        <time>2023-04-05T14:49:15Z</time>
      </trkpt>
      <trkpt lat="47.99127" lon="-3.77131">
        <ele>150.4</ele>
        <time>2023-04-05T14:49:16Z</time>
      </trkpt>
      <trkpt lat="47.99126" lon="-3.77136">
        <ele>150.4</ele>
        <time>2023-04-05T14:49:17Z</time>
      </trkpt>
      <trkpt lat="47.99125" lon="-3.77143">
        <ele>150.4</ele>
        <time>2023-04-05T14:49:18Z</time>
      </trkpt>
      <trkpt lat="47.99124" lon="-3.77147">
        <ele>150.4</ele>
        <time>2023-04-05T14:49:19Z</time>
      </trkpt>
      <trkpt lat="47.99123" lon="-3.77154">
        <ele>150.4</ele>
        <time>2023-04-05T14:49:20Z</time>
      </trkpt>
      <trkpt lat="47.99122" lon="-3.77162">
        <ele>150.4</ele>
        <time>2023-04-05T14:49:21Z</time>
      </trkpt>
      <trkpt lat="47.99121" lon="-3.77171">
        <ele>150.4</ele>
        <time>2023-04-05T14:49:22Z</time>
      </trkpt>
      <trkpt lat="47.99121" lon="-3.77178">
        <ele>150.4</ele>
        <time>2023-04-05T14:49:23Z</time>
      </trkpt>
      <trkpt lat="47.99122" lon="-3.77184">
        <ele>150.3</ele>
        <time>2023-04-05T14:49:24Z</time>
      </trkpt>
      <trkpt lat="47.99122" lon="-3.77191">
        <ele>150.3</ele>
        <time>2023-04-05T14:49:25Z</time>
      </trkpt>
      <trkpt lat="47.99122" lon="-3.77199">
        <ele>150.3</ele>
        <time>2023-04-05T14:49:26Z</time>
      </trkpt>
      <trkpt lat="47.99121" lon="-3.77207">
        <ele>150.2</ele>
        <time>2023-04-05T14:49:27Z</time>
      </trkpt>
      <trkpt lat="47.99121" lon="-3.77215">
        <ele>150.2</ele>
        <time>2023-04-05T14:49:28Z</time>
      </trkpt>
      <trkpt lat="47.9912" lon="-3.77223">
        <ele>150.2</ele>
        <time>2023-04-05T14:49:29Z</time>
      </trkpt>
      <trkpt lat="47.9912" lon="-3.77231">
        <ele>150.1</ele>
        <time>2023-04-05T14:49:30Z</time>
      </trkpt>
      <trkpt lat="47.9912" lon="-3.77239">
        <ele>150.1</ele>
        <time>2023-04-05T14:49:31Z</time>
      </trkpt>
      <trkpt lat="47.9912" lon="-3.77246">
        <ele>150.1</ele>
        <time>2023-04-05T14:49:32Z</time>
      </trkpt>
      <trkpt lat="47.99121" lon="-3.77252">
        <ele>150</ele>
        <time>2023-04-05T14:49:33Z</time>
      </trkpt>
      <trkpt lat="47.99121" lon="-3.77259">
        <ele>150</ele>
        <time>2023-04-05T14:49:34Z</time>
      </trkpt>
      <trkpt lat="47.9912" lon="-3.77269">
        <ele>150</ele>
        <time>2023-04-05T14:49:35Z</time>
      </trkpt>
      <trkpt lat="47.9912" lon="-3.77277">
        <ele>150</ele>
        <time>2023-04-05T14:49:36Z</time>
      </trkpt>
      <trkpt lat="47.99121" lon="-3.77284">
        <ele>149.9</ele>
        <time>2023-04-05T14:49:37Z</time>
      </trkpt>
      <trkpt lat="47.99121" lon="-3.77293">
        <ele>149.9</ele>
        <time>2023-04-05T14:49:38Z</time>
      </trkpt>
      <trkpt lat="47.99121" lon="-3.77301">
        <ele>149.9</ele>
        <time>2023-04-05T14:49:39Z</time>
      </trkpt>
      <trkpt lat="47.99121" lon="-3.77309">
        <ele>149.9</ele>
        <time>2023-04-05T14:49:40Z</time>
      </trkpt>
      <trkpt lat="47.99122" lon="-3.77315">
        <ele>149.9</ele>
        <time>2023-04-05T14:49:41Z</time>
      </trkpt>
      <trkpt lat="47.99123" lon="-3.77323">
        <ele>149.9</ele>
        <time>2023-04-05T14:49:42Z</time>
      </trkpt>
      <trkpt lat="47.99122" lon="-3.7733">
        <ele>149.8</ele>
        <time>2023-04-05T14:49:43Z</time>
      </trkpt>
      <trkpt lat="47.99122" lon="-3.77338">
        <ele>149.8</ele>
        <time>2023-04-05T14:49:44Z</time>
      </trkpt>
      <trkpt lat="47.99121" lon="-3.77346">
        <ele>149.8</ele>
        <time>2023-04-05T14:49:45Z</time>
      </trkpt>
      <trkpt lat="47.9912" lon="-3.77355">
        <ele>149.7</ele>
        <time>2023-04-05T14:49:46Z</time>
      </trkpt>
      <trkpt lat="47.9912" lon="-3.77363">
        <ele>149.7</ele>
        <time>2023-04-05T14:49:47Z</time>
      </trkpt>
      <trkpt lat="47.9912" lon="-3.77371">
        <ele>149.7</ele>
        <time>2023-04-05T14:49:48Z</time>
      </trkpt>
      <trkpt lat="47.99121" lon="-3.77379">
        <ele>149.7</ele>
        <time>2023-04-05T14:49:49Z</time>
      </trkpt>
      <trkpt lat="47.99121" lon="-3.77387">
        <ele>149.7</ele>
        <time>2023-04-05T14:49:50Z</time>
      </trkpt>
      <trkpt lat="47.99121" lon="-3.77394">
        <ele>149.7</ele>
        <time>2023-04-05T14:49:51Z</time>
      </trkpt>
      <trkpt lat="47.99121" lon="-3.77401">
        <ele>149.7</ele>
        <time>2023-04-05T14:49:52Z</time>
      </trkpt>
      <trkpt lat="47.99121" lon="-3.77408">
        <ele>149.7</ele>
        <time>2023-04-05T14:49:53Z</time>
      </trkpt>
      <trkpt lat="47.99121" lon="-3.77416">
        <ele>149.7</ele>
        <time>2023-04-05T14:49:54Z</time>
      </trkpt>
      <trkpt lat="47.99122" lon="-3.77424">
        <ele>149.7</ele>
        <time>2023-04-05T14:49:55Z</time>
      </trkpt>
      <trkpt lat="47.99122" lon="-3.77432">
        <ele>149.7</ele>
        <time>2023-04-05T14:49:56Z</time>
      </trkpt>
      <trkpt lat="47.99122" lon="-3.77439">
        <ele>149.6</ele>
        <time>2023-04-05T14:49:57Z</time>
      </trkpt>
      <trkpt lat="47.99122" lon="-3.77447">
        <ele>149.6</ele>
        <time>2023-04-05T14:49:58Z</time>
      </trkpt>
      <trkpt lat="47.99122" lon="-3.77455">
        <ele>149.6</ele>
        <time>2023-04-05T14:49:59Z</time>
      </trkpt>
      <trkpt lat="47.99122" lon="-3.77463">
        <ele>149.5</ele>
        <time>2023-04-05T14:50:00Z</time>
      </trkpt>
      <trkpt lat="47.99122" lon="-3.7747">
        <ele>149.5</ele>
        <time>2023-04-05T14:50:01Z</time>
      </trkpt>
      <trkpt lat="47.99122" lon="-3.77478">
        <ele>149.5</ele>
        <time>2023-04-05T14:50:02Z</time>
      </trkpt>
      <trkpt lat="47.99122" lon="-3.77486">
        <ele>149.4</ele>
        <time>2023-04-05T14:50:03Z</time>
      </trkpt>
      <trkpt lat="47.99122" lon="-3.77494">
        <ele>149.4</ele>
        <time>2023-04-05T14:50:04Z</time>
      </trkpt>
      <trkpt lat="47.99121" lon="-3.77501">
        <ele>149.4</ele>
        <time>2023-04-05T14:50:05Z</time>
      </trkpt>
      <trkpt lat="47.9912" lon="-3.77509">
        <ele>149.4</ele>
        <time>2023-04-05T14:50:06Z</time>
      </trkpt>
      <trkpt lat="47.9912" lon="-3.77517">
        <ele>149.4</ele>
        <time>2023-04-05T14:50:07Z</time>
      </trkpt>
      <trkpt lat="47.9912" lon="-3.77524">
        <ele>149.3</ele>
        <time>2023-04-05T14:50:08Z</time>
      </trkpt>
      <trkpt lat="47.99119" lon="-3.77532">
        <ele>149.3</ele>
        <time>2023-04-05T14:50:09Z</time>
      </trkpt>
      <trkpt lat="47.99118" lon="-3.77539">
        <ele>149.3</ele>
        <time>2023-04-05T14:50:10Z</time>
      </trkpt>
      <trkpt lat="47.99116" lon="-3.77547">
        <ele>149.3</ele>
        <time>2023-04-05T14:50:11Z</time>
      </trkpt>
      <trkpt lat="47.99115" lon="-3.77554">
        <ele>149.3</ele>
        <time>2023-04-05T14:50:12Z</time>
      </trkpt>
      <trkpt lat="47.99114" lon="-3.77562">
        <ele>149.3</ele>
        <time>2023-04-05T14:50:13Z</time>
      </trkpt>
      <trkpt lat="47.99113" lon="-3.7757">
        <ele>149.3</ele>
        <time>2023-04-05T14:50:14Z</time>
      </trkpt>
      <trkpt lat="47.99111" lon="-3.77577">
        <ele>149.3</ele>
        <time>2023-04-05T14:50:15Z</time>
      </trkpt>
      <trkpt lat="47.9911" lon="-3.77584">
        <ele>149.2</ele>
        <time>2023-04-05T14:50:16Z</time>
      </trkpt>
      <trkpt lat="47.99108" lon="-3.77592">
        <ele>149.2</ele>
        <time>2023-04-05T14:50:17Z</time>
      </trkpt>
      <trkpt lat="47.99107" lon="-3.77599">
        <ele>149.2</ele>
        <time>2023-04-05T14:50:18Z</time>
      </trkpt>
      <trkpt lat="47.99106" lon="-3.77606">
        <ele>149.2</ele>
        <time>2023-04-05T14:50:19Z</time>
      </trkpt>
      <trkpt lat="47.99104" lon="-3.77613">
        <ele>149.2</ele>
        <time>2023-04-05T14:50:20Z</time>
      </trkpt>
      <trkpt lat="47.99102" lon="-3.7762">
        <ele>149.2</ele>
        <time>2023-04-05T14:50:21Z</time>
      </trkpt>
      <trkpt lat="47.991" lon="-3.77628">
        <ele>149.1</ele>
        <time>2023-04-05T14:50:22Z</time>
      </trkpt>
      <trkpt lat="47.99098" lon="-3.77635">
        <ele>149.1</ele>
        <time>2023-04-05T14:50:23Z</time>
      </trkpt>
      <trkpt lat="47.99097" lon="-3.77641">
        <ele>149.1</ele>
        <time>2023-04-05T14:50:24Z</time>
      </trkpt>
      <trkpt lat="47.99093" lon="-3.77648">
        <ele>149.1</ele>
        <time>2023-04-05T14:50:25Z</time>
      </trkpt>
      <trkpt lat="47.9909" lon="-3.77654">
        <ele>149.1</ele>
        <time>2023-04-05T14:50:26Z</time>
      </trkpt>
      <trkpt lat="47.99088" lon="-3.7766">
        <ele>149</ele>
        <time>2023-04-05T14:50:27Z</time>
      </trkpt>
      <trkpt lat="47.99085" lon="-3.77666">
        <ele>149</ele>
        <time>2023-04-05T14:50:28Z</time>
      </trkpt>
      <trkpt lat="47.99082" lon="-3.77673">
        <ele>149</ele>
        <time>2023-04-05T14:50:29Z</time>
      </trkpt>
      <trkpt lat="47.99079" lon="-3.7768">
        <ele>149</ele>
        <time>2023-04-05T14:50:30Z</time>
      </trkpt>
      <trkpt lat="47.99077" lon="-3.77687">
        <ele>149</ele>
        <time>2023-04-05T14:50:31Z</time>
      </trkpt>
      <trkpt lat="47.99074" lon="-3.77693">
        <ele>148.9</ele>
        <time>2023-04-05T14:50:32Z</time>
      </trkpt>
      <trkpt lat="47.99071" lon="-3.77699">
        <ele>148.9</ele>
        <time>2023-04-05T14:50:33Z</time>
      </trkpt>
      <trkpt lat="47.9907" lon="-3.77703">
        <ele>148.9</ele>
        <time>2023-04-05T14:50:34Z</time>
      </trkpt>
      <trkpt lat="47.99068" lon="-3.77712">
        <ele>148.9</ele>
        <time>2023-04-05T14:50:35Z</time>
      </trkpt>
      <trkpt lat="47.99065" lon="-3.7772">
        <ele>148.8</ele>
        <time>2023-04-05T14:50:36Z</time>
      </trkpt>
      <trkpt lat="47.99062" lon="-3.77727">
        <ele>148.8</ele>
        <time>2023-04-05T14:50:37Z</time>
      </trkpt>
      <trkpt lat="47.99059" lon="-3.77733">
        <ele>148.8</ele>
        <time>2023-04-05T14:50:38Z</time>
      </trkpt>
      <trkpt lat="47.99056" lon="-3.7774">
        <ele>148.8</ele>
        <time>2023-04-05T14:50:39Z</time>
      </trkpt>
      <trkpt lat="47.99054" lon="-3.77747">
        <ele>148.7</ele>
        <time>2023-04-05T14:50:40Z</time>
      </trkpt>
      <trkpt lat="47.99051" lon="-3.77755">
        <ele>148.7</ele>
        <time>2023-04-05T14:50:41Z</time>
      </trkpt>
      <trkpt lat="47.99048" lon="-3.77762">
        <ele>148.7</ele>
        <time>2023-04-05T14:50:42Z</time>
      </trkpt>
      <trkpt lat="47.99045" lon="-3.77769">
        <ele>148.7</ele>
        <time>2023-04-05T14:50:43Z</time>
      </trkpt>
      <trkpt lat="47.99042" lon="-3.77776">
        <ele>148.6</ele>
        <time>2023-04-05T14:50:44Z</time>
      </trkpt>
      <trkpt lat="47.99039" lon="-3.77783">
        <ele>148.6</ele>
        <time>2023-04-05T14:50:45Z</time>
      </trkpt>
      <trkpt lat="47.99037" lon="-3.77789">
        <ele>148.6</ele>
        <time>2023-04-05T14:50:46Z</time>
      </trkpt>
      <trkpt lat="47.99034" lon="-3.77795">
        <ele>148.5</ele>
        <time>2023-04-05T14:50:47Z</time>
      </trkpt>
      <trkpt lat="47.99031" lon="-3.77801">
        <ele>148.5</ele>
        <time>2023-04-05T14:50:48Z</time>
      </trkpt>
      <trkpt lat="47.99027" lon="-3.7781">
        <ele>148.5</ele>
        <time>2023-04-05T14:50:49Z</time>
      </trkpt>
      <trkpt lat="47.99024" lon="-3.77818">
        <ele>148.5</ele>
        <time>2023-04-05T14:50:50Z</time>
      </trkpt>
      <trkpt lat="47.99022" lon="-3.77824">
        <ele>148.5</ele>
        <time>2023-04-05T14:50:51Z</time>
      </trkpt>
      <trkpt lat="47.99019" lon="-3.77832">
        <ele>148.5</ele>
        <time>2023-04-05T14:50:52Z</time>
      </trkpt>
      <trkpt lat="47.99017" lon="-3.7784">
        <ele>148.5</ele>
        <time>2023-04-05T14:50:53Z</time>
      </trkpt>
      <trkpt lat="47.99014" lon="-3.77847">
        <ele>148.5</ele>
        <time>2023-04-05T14:50:54Z</time>
      </trkpt>
      <trkpt lat="47.99012" lon="-3.77854">
        <ele>148.4</ele>
        <time>2023-04-05T14:50:55Z</time>
      </trkpt>
      <trkpt lat="47.9901" lon="-3.77861">
        <ele>148.4</ele>
        <time>2023-04-05T14:50:56Z</time>
      </trkpt>
      <trkpt lat="47.99008" lon="-3.77867">
        <ele>148.4</ele>
        <time>2023-04-05T14:50:57Z</time>
      </trkpt>
      <trkpt lat="47.99005" lon="-3.77872">
        <ele>148.4</ele>
        <time>2023-04-05T14:50:58Z</time>
      </trkpt>
      <trkpt lat="47.99001" lon="-3.7788">
        <ele>148.3</ele>
        <time>2023-04-05T14:50:59Z</time>
      </trkpt>
      <trkpt lat="47.98997" lon="-3.77887">
        <ele>148.3</ele>
        <time>2023-04-05T14:51:00Z</time>
      </trkpt>
      <trkpt lat="47.98995" lon="-3.77895">
        <ele>148.2</ele>
        <time>2023-04-05T14:51:01Z</time>
      </trkpt>
      <trkpt lat="47.98992" lon="-3.77902">
        <ele>148.2</ele>
        <time>2023-04-05T14:51:02Z</time>
      </trkpt>
      <trkpt lat="47.98989" lon="-3.7791">
        <ele>148.1</ele>
        <time>2023-04-05T14:51:03Z</time>
      </trkpt>
      <trkpt lat="47.98987" lon="-3.77917">
        <ele>148.1</ele>
        <time>2023-04-05T14:51:04Z</time>
      </trkpt>
      <trkpt lat="47.98985" lon="-3.77924">
        <ele>148</ele>
        <time>2023-04-05T14:51:05Z</time>
      </trkpt>
      <trkpt lat="47.98982" lon="-3.77931">
        <ele>147.9</ele>
        <time>2023-04-05T14:51:06Z</time>
      </trkpt>
      <trkpt lat="47.9898" lon="-3.77939">
        <ele>147.8</ele>
        <time>2023-04-05T14:51:07Z</time>
      </trkpt>
      <trkpt lat="47.98978" lon="-3.77948">
        <ele>147.7</ele>
        <time>2023-04-05T14:51:08Z</time>
      </trkpt>
      <trkpt lat="47.98976" lon="-3.77955">
        <ele>147.6</ele>
        <time>2023-04-05T14:51:09Z</time>
      </trkpt>
      <trkpt lat="47.98974" lon="-3.77964">
        <ele>147.4</ele>
        <time>2023-04-05T14:51:10Z</time>
      </trkpt>
      <trkpt lat="47.98972" lon="-3.77972">
        <ele>147.3</ele>
        <time>2023-04-05T14:51:11Z</time>
      </trkpt>
      <trkpt lat="47.9897" lon="-3.7798">
        <ele>147.2</ele>
        <time>2023-04-05T14:51:12Z</time>
      </trkpt>
      <trkpt lat="47.98968" lon="-3.77989">
        <ele>147</ele>
        <time>2023-04-05T14:51:13Z</time>
      </trkpt>
      <trkpt lat="47.98966" lon="-3.77997">
        <ele>146.9</ele>
        <time>2023-04-05T14:51:14Z</time>
      </trkpt>
      <trkpt lat="47.98964" lon="-3.78006">
        <ele>146.8</ele>
        <time>2023-04-05T14:51:15Z</time>
      </trkpt>
      <trkpt lat="47.98963" lon="-3.78015">
        <ele>146.6</ele>
        <time>2023-04-05T14:51:16Z</time>
      </trkpt>
      <trkpt lat="47.98963" lon="-3.78025">
        <ele>146.5</ele>
        <time>2023-04-05T14:51:17Z</time>
      </trkpt>
      <trkpt lat="47.98962" lon="-3.78034">
        <ele>146.4</ele>
        <time>2023-04-05T14:51:18Z</time>
      </trkpt>
      <trkpt lat="47.98961" lon="-3.78043">
        <ele>146.3</ele>
        <time>2023-04-05T14:51:19Z</time>
      </trkpt>
      <trkpt lat="47.9896" lon="-3.78052">
        <ele>146.2</ele>
        <time>2023-04-05T14:51:20Z</time>
      </trkpt>
      <trkpt lat="47.9896" lon="-3.78062">
        <ele>146</ele>
        <time>2023-04-05T14:51:21Z</time>
      </trkpt>
      <trkpt lat="47.9896" lon="-3.78071">
        <ele>145.9</ele>
        <time>2023-04-05T14:51:22Z</time>
      </trkpt>
      <trkpt lat="47.98958" lon="-3.78079">
        <ele>145.7</ele>
        <time>2023-04-05T14:51:23Z</time>
      </trkpt>
      <trkpt lat="47.98957" lon="-3.78087">
        <ele>145.6</ele>
        <time>2023-04-05T14:51:24Z</time>
      </trkpt>
      <trkpt lat="47.98956" lon="-3.78096">
        <ele>145.5</ele>
        <time>2023-04-05T14:51:25Z</time>
      </trkpt>
      <trkpt lat="47.98956" lon="-3.78103">
        <ele>145.3</ele>
        <time>2023-04-05T14:51:26Z</time>
      </trkpt>
      <trkpt lat="47.98956" lon="-3.78112">
        <ele>145.2</ele>
        <time>2023-04-05T14:51:27Z</time>
      </trkpt>
      <trkpt lat="47.98955" lon="-3.78121">
        <ele>145</ele>
        <time>2023-04-05T14:51:28Z</time>
      </trkpt>
      <trkpt lat="47.98954" lon="-3.7813">
        <ele>144.9</ele>
        <time>2023-04-05T14:51:29Z</time>
      </trkpt>
      <trkpt lat="47.98953" lon="-3.78139">
        <ele>144.7</ele>
        <time>2023-04-05T14:51:30Z</time>
      </trkpt>
      <trkpt lat="47.98952" lon="-3.78149">
        <ele>144.6</ele>
        <time>2023-04-05T14:51:31Z</time>
      </trkpt>
      <trkpt lat="47.9895" lon="-3.78158">
        <ele>144.4</ele>
        <time>2023-04-05T14:51:32Z</time>
      </trkpt>
      <trkpt lat="47.9895" lon="-3.78167">
        <ele>144.3</ele>
        <time>2023-04-05T14:51:33Z</time>
      </trkpt>
      <trkpt lat="47.98948" lon="-3.78177">
        <ele>144.1</ele>
        <time>2023-04-05T14:51:34Z</time>
      </trkpt>
      <trkpt lat="47.98947" lon="-3.78186">
        <ele>144</ele>
        <time>2023-04-05T14:51:35Z</time>
      </trkpt>
      <trkpt lat="47.98947" lon="-3.78195">
        <ele>143.8</ele>
        <time>2023-04-05T14:51:36Z</time>
      </trkpt>
      <trkpt lat="47.98945" lon="-3.78203">
        <ele>143.7</ele>
        <time>2023-04-05T14:51:37Z</time>
      </trkpt>
      <trkpt lat="47.98944" lon="-3.7821">
        <ele>143.5</ele>
        <time>2023-04-05T14:51:38Z</time>
      </trkpt>
      <trkpt lat="47.98943" lon="-3.78218">
        <ele>143.4</ele>
        <time>2023-04-05T14:51:39Z</time>
      </trkpt>
      <trkpt lat="47.98943" lon="-3.78227">
        <ele>143.2</ele>
        <time>2023-04-05T14:51:40Z</time>
      </trkpt>
      <trkpt lat="47.98943" lon="-3.78235">
        <ele>143.1</ele>
        <time>2023-04-05T14:51:41Z</time>
      </trkpt>
      <trkpt lat="47.98942" lon="-3.78243">
        <ele>143</ele>
        <time>2023-04-05T14:51:42Z</time>
      </trkpt>
      <trkpt lat="47.98941" lon="-3.78251">
        <ele>142.9</ele>
        <time>2023-04-05T14:51:43Z</time>
      </trkpt>
      <trkpt lat="47.9894" lon="-3.78259">
        <ele>142.8</ele>
        <time>2023-04-05T14:51:44Z</time>
      </trkpt>
      <trkpt lat="47.9894" lon="-3.78267">
        <ele>142.7</ele>
        <time>2023-04-05T14:51:45Z</time>
      </trkpt>
      <trkpt lat="47.98941" lon="-3.78275">
        <ele>142.6</ele>
        <time>2023-04-05T14:51:46Z</time>
      </trkpt>
      <trkpt lat="47.9894" lon="-3.78283">
        <ele>142.5</ele>
        <time>2023-04-05T14:51:47Z</time>
      </trkpt>
      <trkpt lat="47.98938" lon="-3.78291">
        <ele>142.4</ele>
        <time>2023-04-05T14:51:48Z</time>
      </trkpt>
      <trkpt lat="47.98937" lon="-3.783">
        <ele>142.3</ele>
        <time>2023-04-05T14:51:49Z</time>
      </trkpt>
      <trkpt lat="47.98937" lon="-3.78308">
        <ele>142.2</ele>
        <time>2023-04-05T14:51:50Z</time>
      </trkpt>
      <trkpt lat="47.98936" lon="-3.78316">
        <ele>142.2</ele>
        <time>2023-04-05T14:51:51Z</time>
      </trkpt>
      <trkpt lat="47.98935" lon="-3.78323">
        <ele>142.1</ele>
        <time>2023-04-05T14:51:52Z</time>
      </trkpt>
      <trkpt lat="47.98935" lon="-3.78332">
        <ele>142.1</ele>
        <time>2023-04-05T14:51:53Z</time>
      </trkpt>
      <trkpt lat="47.98934" lon="-3.78341">
        <ele>142</ele>
        <time>2023-04-05T14:51:54Z</time>
      </trkpt>
      <trkpt lat="47.98933" lon="-3.7835">
        <ele>142</ele>
        <time>2023-04-05T14:51:55Z</time>
      </trkpt>
      <trkpt lat="47.98932" lon="-3.78359">
        <ele>142</ele>
        <time>2023-04-05T14:51:56Z</time>
      </trkpt>
      <trkpt lat="47.98932" lon="-3.78367">
        <ele>142</ele>
        <time>2023-04-05T14:51:57Z</time>
      </trkpt>
      <trkpt lat="47.98931" lon="-3.78375">
        <ele>142</ele>
        <time>2023-04-05T14:51:58Z</time>
      </trkpt>
      <trkpt lat="47.98931" lon="-3.78383">
        <ele>142</ele>
        <time>2023-04-05T14:51:59Z</time>
      </trkpt>
      <trkpt lat="47.9893" lon="-3.78391">
        <ele>142</ele>
        <time>2023-04-05T14:52:00Z</time>
      </trkpt>
      <trkpt lat="47.9893" lon="-3.78398">
        <ele>142</ele>
        <time>2023-04-05T14:52:01Z</time>
      </trkpt>
      <trkpt lat="47.98929" lon="-3.78406">
        <ele>142</ele>
        <time>2023-04-05T14:52:02Z</time>
      </trkpt>
      <trkpt lat="47.98928" lon="-3.78414">
        <ele>141.9</ele>
        <time>2023-04-05T14:52:03Z</time>
      </trkpt>
      <trkpt lat="47.98927" lon="-3.78421">
        <ele>141.9</ele>
        <time>2023-04-05T14:52:04Z</time>
      </trkpt>
      <trkpt lat="47.98927" lon="-3.78428">
        <ele>141.8</ele>
        <time>2023-04-05T14:52:05Z</time>
      </trkpt>
      <trkpt lat="47.98926" lon="-3.78434">
        <ele>141.7</ele>
        <time>2023-04-05T14:52:06Z</time>
      </trkpt>
      <trkpt lat="47.98926" lon="-3.78439">
        <ele>141.7</ele>
        <time>2023-04-05T14:52:07Z</time>
      </trkpt>
      <trkpt lat="47.98926" lon="-3.78448">
        <ele>141.5</ele>
        <time>2023-04-05T14:52:08Z</time>
      </trkpt>
      <trkpt lat="47.98925" lon="-3.78457">
        <ele>141.3</ele>
        <time>2023-04-05T14:52:09Z</time>
      </trkpt>
      <trkpt lat="47.98924" lon="-3.78467">
        <ele>141.2</ele>
        <time>2023-04-05T14:52:10Z</time>
      </trkpt>
      <trkpt lat="47.98923" lon="-3.78475">
        <ele>141.1</ele>
        <time>2023-04-05T14:52:11Z</time>
      </trkpt>
      <trkpt lat="47.98922" lon="-3.78484">
        <ele>141</ele>
        <time>2023-04-05T14:52:12Z</time>
      </trkpt>
      <trkpt lat="47.98921" lon="-3.78492">
        <ele>141</ele>
        <time>2023-04-05T14:52:13Z</time>
      </trkpt>
      <trkpt lat="47.98919" lon="-3.78501">
        <ele>141</ele>
        <time>2023-04-05T14:52:14Z</time>
      </trkpt>
      <trkpt lat="47.98918" lon="-3.78508">
        <ele>141.1</ele>
        <time>2023-04-05T14:52:15Z</time>
      </trkpt>
      <trkpt lat="47.98916" lon="-3.78516">
        <ele>141.2</ele>
        <time>2023-04-05T14:52:16Z</time>
      </trkpt>
      <trkpt lat="47.98914" lon="-3.78523">
        <ele>141.5</ele>
        <time>2023-04-05T14:52:17Z</time>
      </trkpt>
      <trkpt lat="47.98914" lon="-3.7853">
        <ele>141.7</ele>
        <time>2023-04-05T14:52:18Z</time>
      </trkpt>
      <trkpt lat="47.98913" lon="-3.78538">
        <ele>142</ele>
        <time>2023-04-05T14:52:19Z</time>
      </trkpt>
      <trkpt lat="47.98913" lon="-3.78545">
        <ele>142.2</ele>
        <time>2023-04-05T14:52:20Z</time>
      </trkpt>
      <trkpt lat="47.98913" lon="-3.78552">
        <ele>142.5</ele>
        <time>2023-04-05T14:52:21Z</time>
      </trkpt>
      <trkpt lat="47.98913" lon="-3.78559">
        <ele>142.7</ele>
        <time>2023-04-05T14:52:22Z</time>
      </trkpt>
      <trkpt lat="47.98913" lon="-3.78564">
        <ele>142.9</ele>
        <time>2023-04-05T14:52:23Z</time>
      </trkpt>
      <trkpt lat="47.98912" lon="-3.78571">
        <ele>143.1</ele>
        <time>2023-04-05T14:52:24Z</time>
      </trkpt>
      <trkpt lat="47.98912" lon="-3.78578">
        <ele>143.2</ele>
        <time>2023-04-05T14:52:25Z</time>
      </trkpt>
      <trkpt lat="47.98912" lon="-3.78582">
        <ele>143.4</ele>
        <time>2023-04-05T14:52:26Z</time>
      </trkpt>
      <trkpt lat="47.98912" lon="-3.78591">
        <ele>143.5</ele>
        <time>2023-04-05T14:52:27Z</time>
      </trkpt>
      <trkpt lat="47.98912" lon="-3.78596">
        <ele>143.6</ele>
        <time>2023-04-05T14:52:28Z</time>
      </trkpt>
      <trkpt lat="47.98911" lon="-3.78605">
        <ele>143.7</ele>
        <time>2023-04-05T14:52:29Z</time>
      </trkpt>
      <trkpt lat="47.98911" lon="-3.78612">
        <ele>143.8</ele>
        <time>2023-04-05T14:52:30Z</time>
      </trkpt>
      <trkpt lat="47.98911" lon="-3.78617">
        <ele>143.8</ele>
        <time>2023-04-05T14:52:31Z</time>
      </trkpt>
      <trkpt lat="47.9891" lon="-3.78625">
        <ele>143.9</ele>
        <time>2023-04-05T14:52:32Z</time>
      </trkpt>
      <trkpt lat="47.98909" lon="-3.78631">
        <ele>143.9</ele>
        <time>2023-04-05T14:52:33Z</time>
      </trkpt>
      <trkpt lat="47.98908" lon="-3.78634">
        <ele>143.9</ele>
        <time>2023-04-05T14:52:34Z</time>
      </trkpt>
      <trkpt lat="47.98907" lon="-3.78646">
        <ele>144</ele>
        <time>2023-04-05T14:52:36Z</time>
      </trkpt>
      <trkpt lat="47.98906" lon="-3.78652">
        <ele>144</ele>
        <time>2023-04-05T14:52:37Z</time>
      </trkpt>
      <trkpt lat="47.98906" lon="-3.78659">
        <ele>144</ele>
        <time>2023-04-05T14:52:38Z</time>
      </trkpt>
      <trkpt lat="47.98906" lon="-3.78669">
        <ele>144</ele>
        <time>2023-04-05T14:52:39Z</time>
      </trkpt>
      <trkpt lat="47.98905" lon="-3.78677">
        <ele>143.9</ele>
        <time>2023-04-05T14:52:40Z</time>
      </trkpt>
      <trkpt lat="47.98905" lon="-3.78685">
        <ele>143.9</ele>
        <time>2023-04-05T14:52:41Z</time>
      </trkpt>
      <trkpt lat="47.98904" lon="-3.78692">
        <ele>143.9</ele>
        <time>2023-04-05T14:52:42Z</time>
      </trkpt>
      <trkpt lat="47.98902" lon="-3.78703">
        <ele>143.8</ele>
        <time>2023-04-05T14:52:43Z</time>
      </trkpt>
      <trkpt lat="47.989" lon="-3.78713">
        <ele>143.7</ele>
        <time>2023-04-05T14:52:44Z</time>
      </trkpt>
      <trkpt lat="47.989" lon="-3.7872">
        <ele>143.7</ele>
        <time>2023-04-05T14:52:45Z</time>
      </trkpt>
      <trkpt lat="47.98898" lon="-3.78728">
        <ele>143.6</ele>
        <time>2023-04-05T14:52:46Z</time>
      </trkpt>
      <trkpt lat="47.98896" lon="-3.78735">
        <ele>143.5</ele>
        <time>2023-04-05T14:52:47Z</time>
      </trkpt>
      <trkpt lat="47.98896" lon="-3.78744">
        <ele>143.4</ele>
        <time>2023-04-05T14:52:48Z</time>
      </trkpt>
      <trkpt lat="47.98896" lon="-3.7875">
        <ele>143.3</ele>
        <time>2023-04-05T14:52:49Z</time>
      </trkpt>
      <trkpt lat="47.98896" lon="-3.78758">
        <ele>143.2</ele>
        <time>2023-04-05T14:52:50Z</time>
      </trkpt>
      <trkpt lat="47.98896" lon="-3.78766">
        <ele>143.1</ele>
        <time>2023-04-05T14:52:51Z</time>
      </trkpt>
      <trkpt lat="47.98896" lon="-3.78776">
        <ele>142.9</ele>
        <time>2023-04-05T14:52:52Z</time>
      </trkpt>
      <trkpt lat="47.98895" lon="-3.78786">
        <ele>142.8</ele>
        <time>2023-04-05T14:52:53Z</time>
      </trkpt>
      <trkpt lat="47.98895" lon="-3.78797">
        <ele>142.6</ele>
        <time>2023-04-05T14:52:54Z</time>
      </trkpt>
      <trkpt lat="47.98895" lon="-3.78807">
        <ele>142.5</ele>
        <time>2023-04-05T14:52:55Z</time>
      </trkpt>
      <trkpt lat="47.98894" lon="-3.78817">
        <ele>142.3</ele>
        <time>2023-04-05T14:52:56Z</time>
      </trkpt>
      <trkpt lat="47.98893" lon="-3.78826">
        <ele>142.2</ele>
        <time>2023-04-05T14:52:57Z</time>
      </trkpt>
      <trkpt lat="47.98892" lon="-3.78835">
        <ele>142</ele>
        <time>2023-04-05T14:52:58Z</time>
      </trkpt>
      <trkpt lat="47.98891" lon="-3.78845">
        <ele>141.9</ele>
        <time>2023-04-05T14:52:59Z</time>
      </trkpt>
      <trkpt lat="47.9889" lon="-3.78855">
        <ele>141.8</ele>
        <time>2023-04-05T14:53:00Z</time>
      </trkpt>
      <trkpt lat="47.98889" lon="-3.78864">
        <ele>141.7</ele>
        <time>2023-04-05T14:53:01Z</time>
      </trkpt>
      <trkpt lat="47.98888" lon="-3.78872">
        <ele>141.6</ele>
        <time>2023-04-05T14:53:02Z</time>
      </trkpt>
      <trkpt lat="47.98887" lon="-3.78881">
        <ele>141.5</ele>
        <time>2023-04-05T14:53:03Z</time>
      </trkpt>
      <trkpt lat="47.98886" lon="-3.78891">
        <ele>141.4</ele>
        <time>2023-04-05T14:53:04Z</time>
      </trkpt>
      <trkpt lat="47.98885" lon="-3.789">
        <ele>141.3</ele>
        <time>2023-04-05T14:53:05Z</time>
      </trkpt>
      <trkpt lat="47.98884" lon="-3.7891">
        <ele>141.2</ele>
        <time>2023-04-05T14:53:06Z</time>
      </trkpt>
      <trkpt lat="47.98883" lon="-3.7892">
        <ele>141.1</ele>
        <time>2023-04-05T14:53:07Z</time>
      </trkpt>
      <trkpt lat="47.98881" lon="-3.7893">
        <ele>140.9</ele>
        <time>2023-04-05T14:53:08Z</time>
      </trkpt>
      <trkpt lat="47.98879" lon="-3.78939">
        <ele>140.8</ele>
        <time>2023-04-05T14:53:09Z</time>
      </trkpt>
      <trkpt lat="47.98877" lon="-3.78949">
        <ele>140.7</ele>
        <time>2023-04-05T14:53:10Z</time>
      </trkpt>
      <trkpt lat="47.98875" lon="-3.78958">
        <ele>140.6</ele>
        <time>2023-04-05T14:53:11Z</time>
      </trkpt>
      <trkpt lat="47.98874" lon="-3.78966">
        <ele>140.5</ele>
        <time>2023-04-05T14:53:12Z</time>
      </trkpt>
      <trkpt lat="47.98872" lon="-3.78974">
        <ele>140.4</ele>
        <time>2023-04-05T14:53:13Z</time>
      </trkpt>
      <trkpt lat="47.98869" lon="-3.78982">
        <ele>140.3</ele>
        <time>2023-04-05T14:53:14Z</time>
      </trkpt>
      <trkpt lat="47.98866" lon="-3.78991">
        <ele>140.1</ele>
        <time>2023-04-05T14:53:15Z</time>
      </trkpt>
      <trkpt lat="47.98863" lon="-3.79">
        <ele>140</ele>
        <time>2023-04-05T14:53:16Z</time>
      </trkpt>
      <trkpt lat="47.98861" lon="-3.79009">
        <ele>139.8</ele>
        <time>2023-04-05T14:53:17Z</time>
      </trkpt>
      <trkpt lat="47.98858" lon="-3.79018">
        <ele>139.7</ele>
        <time>2023-04-05T14:53:18Z</time>
      </trkpt>
      <trkpt lat="47.98855" lon="-3.79027">
        <ele>139.5</ele>
        <time>2023-04-05T14:53:19Z</time>
      </trkpt>
      <trkpt lat="47.98852" lon="-3.79035">
        <ele>139.4</ele>
        <time>2023-04-05T14:53:20Z</time>
      </trkpt>
      <trkpt lat="47.98849" lon="-3.79044">
        <ele>139.2</ele>
        <time>2023-04-05T14:53:21Z</time>
      </trkpt>
      <trkpt lat="47.98846" lon="-3.79053">
        <ele>139</ele>
        <time>2023-04-05T14:53:22Z</time>
      </trkpt>
      <trkpt lat="47.98843" lon="-3.79061">
        <ele>138.9</ele>
        <time>2023-04-05T14:53:23Z</time>
      </trkpt>
      <trkpt lat="47.9884" lon="-3.79068">
        <ele>138.7</ele>
        <time>2023-04-05T14:53:24Z</time>
      </trkpt>
      <trkpt lat="47.98836" lon="-3.79076">
        <ele>138.6</ele>
        <time>2023-04-05T14:53:25Z</time>
      </trkpt>
      <trkpt lat="47.98833" lon="-3.79084">
        <ele>138.4</ele>
        <time>2023-04-05T14:53:26Z</time>
      </trkpt>
      <trkpt lat="47.9883" lon="-3.79091">
        <ele>138.2</ele>
        <time>2023-04-05T14:53:27Z</time>
      </trkpt>
      <trkpt lat="47.98828" lon="-3.79099">
        <ele>138.1</ele>
        <time>2023-04-05T14:53:28Z</time>
      </trkpt>
      <trkpt lat="47.98824" lon="-3.79108">
        <ele>137.9</ele>
        <time>2023-04-05T14:53:29Z</time>
      </trkpt>
      <trkpt lat="47.98819" lon="-3.79117">
        <ele>137.8</ele>
        <time>2023-04-05T14:53:30Z</time>
      </trkpt>
      <trkpt lat="47.98816" lon="-3.79127">
        <ele>137.6</ele>
        <time>2023-04-05T14:53:31Z</time>
      </trkpt>
      <trkpt lat="47.98813" lon="-3.79135">
        <ele>137.5</ele>
        <time>2023-04-05T14:53:32Z</time>
      </trkpt>
      <trkpt lat="47.9881" lon="-3.79145">
        <ele>137.4</ele>
        <time>2023-04-05T14:53:33Z</time>
      </trkpt>
      <trkpt lat="47.98809" lon="-3.79154">
        <ele>137.3</ele>
        <time>2023-04-05T14:53:34Z</time>
      </trkpt>
      <trkpt lat="47.98804" lon="-3.79162">
        <ele>137.2</ele>
        <time>2023-04-05T14:53:35Z</time>
      </trkpt>
      <trkpt lat="47.988" lon="-3.79171">
        <ele>137.1</ele>
        <time>2023-04-05T14:53:36Z</time>
      </trkpt>
      <trkpt lat="47.98796" lon="-3.79179">
        <ele>137</ele>
        <time>2023-04-05T14:53:37Z</time>
      </trkpt>
      <trkpt lat="47.98793" lon="-3.79188">
        <ele>136.9</ele>
        <time>2023-04-05T14:53:38Z</time>
      </trkpt>
      <trkpt lat="47.98789" lon="-3.79197">
        <ele>136.8</ele>
        <time>2023-04-05T14:53:39Z</time>
      </trkpt>
      <trkpt lat="47.98785" lon="-3.79206">
        <ele>136.7</ele>
        <time>2023-04-05T14:53:40Z</time>
      </trkpt>
      <trkpt lat="47.98782" lon="-3.79213">
        <ele>136.6</ele>
        <time>2023-04-05T14:53:41Z</time>
      </trkpt>
      <trkpt lat="47.9878" lon="-3.79219">
        <ele>136.6</ele>
        <time>2023-04-05T14:53:42Z</time>
      </trkpt>
      <trkpt lat="47.98777" lon="-3.79226">
        <ele>136.5</ele>
        <time>2023-04-05T14:53:43Z</time>
      </trkpt>
      <trkpt lat="47.98773" lon="-3.79234">
        <ele>136.5</ele>
        <time>2023-04-05T14:53:44Z</time>
      </trkpt>
      <trkpt lat="47.9877" lon="-3.79242">
        <ele>136.4</ele>
        <time>2023-04-05T14:53:45Z</time>
      </trkpt>
      <trkpt lat="47.98767" lon="-3.79249">
        <ele>136.3</ele>
        <time>2023-04-05T14:53:46Z</time>
      </trkpt>
      <trkpt lat="47.98763" lon="-3.79257">
        <ele>136.3</ele>
        <time>2023-04-05T14:53:47Z</time>
      </trkpt>
      <trkpt lat="47.98761" lon="-3.79264">
        <ele>136.2</ele>
        <time>2023-04-05T14:53:48Z</time>
      </trkpt>
      <trkpt lat="47.98757" lon="-3.7927">
        <ele>136.1</ele>
        <time>2023-04-05T14:53:49Z</time>
      </trkpt>
      <trkpt lat="47.98754" lon="-3.79278">
        <ele>136.1</ele>
        <time>2023-04-05T14:53:50Z</time>
      </trkpt>
      <trkpt lat="47.98751" lon="-3.79286">
        <ele>136</ele>
        <time>2023-04-05T14:53:51Z</time>
      </trkpt>
      <trkpt lat="47.98748" lon="-3.79294">
        <ele>136</ele>
        <time>2023-04-05T14:53:52Z</time>
      </trkpt>
      <trkpt lat="47.98745" lon="-3.79302">
        <ele>135.9</ele>
        <time>2023-04-05T14:53:53Z</time>
      </trkpt>
      <trkpt lat="47.98741" lon="-3.79308">
        <ele>135.9</ele>
        <time>2023-04-05T14:53:54Z</time>
      </trkpt>
      <trkpt lat="47.98738" lon="-3.79315">
        <ele>135.8</ele>
        <time>2023-04-05T14:53:55Z</time>
      </trkpt>
      <trkpt lat="47.98735" lon="-3.79322">
        <ele>135.8</ele>
        <time>2023-04-05T14:53:56Z</time>
      </trkpt>
      <trkpt lat="47.98733" lon="-3.7933">
        <ele>135.7</ele>
        <time>2023-04-05T14:53:57Z</time>
      </trkpt>
      <trkpt lat="47.9873" lon="-3.79337">
        <ele>135.6</ele>
        <time>2023-04-05T14:53:58Z</time>
      </trkpt>
      <trkpt lat="47.98727" lon="-3.79345">
        <ele>135.6</ele>
        <time>2023-04-05T14:53:59Z</time>
      </trkpt>
      <trkpt lat="47.98725" lon="-3.79352">
        <ele>135.6</ele>
        <time>2023-04-05T14:54:00Z</time>
      </trkpt>
      <trkpt lat="47.98722" lon="-3.79359">
        <ele>135.5</ele>
        <time>2023-04-05T14:54:01Z</time>
      </trkpt>
      <trkpt lat="47.9872" lon="-3.79366">
        <ele>135.5</ele>
        <time>2023-04-05T14:54:02Z</time>
      </trkpt>
      <trkpt lat="47.98718" lon="-3.7937">
        <ele>135.5</ele>
        <time>2023-04-05T14:54:03Z</time>
      </trkpt>
      <trkpt lat="47.98714" lon="-3.79379">
        <ele>135.4</ele>
        <time>2023-04-05T14:54:04Z</time>
      </trkpt>
      <trkpt lat="47.9871" lon="-3.79388">
        <ele>135.4</ele>
        <time>2023-04-05T14:54:05Z</time>
      </trkpt>
      <trkpt lat="47.98705" lon="-3.79395">
        <ele>135.4</ele>
        <time>2023-04-05T14:54:06Z</time>
      </trkpt>
      <trkpt lat="47.98702" lon="-3.79402">
        <ele>135.4</ele>
        <time>2023-04-05T14:54:07Z</time>
      </trkpt>
      <trkpt lat="47.98699" lon="-3.7941">
        <ele>135.4</ele>
        <time>2023-04-05T14:54:08Z</time>
      </trkpt>
      <trkpt lat="47.98696" lon="-3.79418">
        <ele>135.3</ele>
        <time>2023-04-05T14:54:09Z</time>
      </trkpt>
      <trkpt lat="47.98693" lon="-3.79424">
        <ele>135.3</ele>
        <time>2023-04-05T14:54:10Z</time>
      </trkpt>
      <trkpt lat="47.9869" lon="-3.79431">
        <ele>135.2</ele>
        <time>2023-04-05T14:54:11Z</time>
      </trkpt>
      <trkpt lat="47.98687" lon="-3.79439">
        <ele>135.2</ele>
        <time>2023-04-05T14:54:12Z</time>
      </trkpt>
      <trkpt lat="47.98683" lon="-3.79447">
        <ele>135.1</ele>
        <time>2023-04-05T14:54:13Z</time>
      </trkpt>
      <trkpt lat="47.98679" lon="-3.79454">
        <ele>135</ele>
        <time>2023-04-05T14:54:14Z</time>
      </trkpt>
      <trkpt lat="47.98676" lon="-3.7946">
        <ele>135</ele>
        <time>2023-04-05T14:54:15Z</time>
      </trkpt>
      <trkpt lat="47.98672" lon="-3.79467">
        <ele>134.9</ele>
        <time>2023-04-05T14:54:16Z</time>
      </trkpt>
      <trkpt lat="47.98668" lon="-3.79473">
        <ele>134.8</ele>
        <time>2023-04-05T14:54:17Z</time>
      </trkpt>
      <trkpt lat="47.98664" lon="-3.79481">
        <ele>134.7</ele>
        <time>2023-04-05T14:54:18Z</time>
      </trkpt>
      <trkpt lat="47.98661" lon="-3.79486">
        <ele>134.6</ele>
        <time>2023-04-05T14:54:19Z</time>
      </trkpt>
      <trkpt lat="47.98657" lon="-3.79491">
        <ele>134.5</ele>
        <time>2023-04-05T14:54:20Z</time>
      </trkpt>
      <trkpt lat="47.98652" lon="-3.79498">
        <ele>134.5</ele>
        <time>2023-04-05T14:54:21Z</time>
      </trkpt>
      <trkpt lat="47.98647" lon="-3.79504">
        <ele>134.4</ele>
        <time>2023-04-05T14:54:22Z</time>
      </trkpt>
      <trkpt lat="47.98643" lon="-3.79509">
        <ele>134.4</ele>
        <time>2023-04-05T14:54:23Z</time>
      </trkpt>
      <trkpt lat="47.98637" lon="-3.79514">
        <ele>134.3</ele>
        <time>2023-04-05T14:54:24Z</time>
      </trkpt>
      <trkpt lat="47.98633" lon="-3.79519">
        <ele>134.3</ele>
        <time>2023-04-05T14:54:25Z</time>
      </trkpt>
      <trkpt lat="47.98628" lon="-3.79525">
        <ele>134.3</ele>
        <time>2023-04-05T14:54:26Z</time>
      </trkpt>
      <trkpt lat="47.98622" lon="-3.7953">
        <ele>134.3</ele>
        <time>2023-04-05T14:54:27Z</time>
      </trkpt>
      <trkpt lat="47.98617" lon="-3.79533">
        <ele>134.3</ele>
        <time>2023-04-05T14:54:28Z</time>
      </trkpt>
      <trkpt lat="47.98612" lon="-3.79537">
        <ele>134.3</ele>
        <time>2023-04-05T14:54:29Z</time>
      </trkpt>
      <trkpt lat="47.98608" lon="-3.79541">
        <ele>134.3</ele>
        <time>2023-04-05T14:54:30Z</time>
      </trkpt>
      <trkpt lat="47.98604" lon="-3.79545">
        <ele>134.3</ele>
        <time>2023-04-05T14:54:31Z</time>
      </trkpt>
      <trkpt lat="47.98599" lon="-3.79549">
        <ele>134.2</ele>
        <time>2023-04-05T14:54:32Z</time>
      </trkpt>
      <trkpt lat="47.98594" lon="-3.79553">
        <ele>134.2</ele>
        <time>2023-04-05T14:54:33Z</time>
      </trkpt>
      <trkpt lat="47.9859" lon="-3.79556">
        <ele>134.2</ele>
        <time>2023-04-05T14:54:34Z</time>
      </trkpt>
      <trkpt lat="47.98585" lon="-3.79559">
        <ele>134.2</ele>
        <time>2023-04-05T14:54:35Z</time>
      </trkpt>
      <trkpt lat="47.98579" lon="-3.7956">
        <ele>134.2</ele>
        <time>2023-04-05T14:54:36Z</time>
      </trkpt>
      <trkpt lat="47.98574" lon="-3.79563">
        <ele>134.2</ele>
        <time>2023-04-05T14:54:37Z</time>
      </trkpt>
      <trkpt lat="47.98568" lon="-3.79566">
        <ele>134.1</ele>
        <time>2023-04-05T14:54:38Z</time>
      </trkpt>
      <trkpt lat="47.98562" lon="-3.79568">
        <ele>134.1</ele>
        <time>2023-04-05T14:54:39Z</time>
      </trkpt>
      <trkpt lat="47.98557" lon="-3.79571">
        <ele>134</ele>
        <time>2023-04-05T14:54:40Z</time>
      </trkpt>
      <trkpt lat="47.98552" lon="-3.79574">
        <ele>133.9</ele>
        <time>2023-04-05T14:54:41Z</time>
      </trkpt>
      <trkpt lat="47.98546" lon="-3.79576">
        <ele>133.7</ele>
        <time>2023-04-05T14:54:42Z</time>
      </trkpt>
      <trkpt lat="47.9854" lon="-3.79578">
        <ele>133.6</ele>
        <time>2023-04-05T14:54:43Z</time>
      </trkpt>
      <trkpt lat="47.98534" lon="-3.79579">
        <ele>133.5</ele>
        <time>2023-04-05T14:54:44Z</time>
      </trkpt>
      <trkpt lat="47.98528" lon="-3.7958">
        <ele>133.5</ele>
        <time>2023-04-05T14:54:45Z</time>
      </trkpt>
      <trkpt lat="47.98523" lon="-3.79582">
        <ele>133.4</ele>
        <time>2023-04-05T14:54:46Z</time>
      </trkpt>
      <trkpt lat="47.98518" lon="-3.79586">
        <ele>133.4</ele>
        <time>2023-04-05T14:54:47Z</time>
      </trkpt>
      <trkpt lat="47.98513" lon="-3.79588">
        <ele>133.3</ele>
        <time>2023-04-05T14:54:48Z</time>
      </trkpt>
      <trkpt lat="47.98508" lon="-3.79589">
        <ele>133.3</ele>
        <time>2023-04-05T14:54:49Z</time>
      </trkpt>
      <trkpt lat="47.98503" lon="-3.79589">
        <ele>133.2</ele>
        <time>2023-04-05T14:54:50Z</time>
      </trkpt>
      <trkpt lat="47.98498" lon="-3.7959">
        <ele>133.2</ele>
        <time>2023-04-05T14:54:51Z</time>
      </trkpt>
      <trkpt lat="47.98495" lon="-3.79591">
        <ele>133.2</ele>
        <time>2023-04-05T14:54:52Z</time>
      </trkpt>
      <trkpt lat="47.98488" lon="-3.79594">
        <ele>133.1</ele>
        <time>2023-04-05T14:54:53Z</time>
      </trkpt>
      <trkpt lat="47.98481" lon="-3.79595">
        <ele>133.1</ele>
        <time>2023-04-05T14:54:54Z</time>
      </trkpt>
      <trkpt lat="47.98476" lon="-3.79596">
        <ele>133.1</ele>
        <time>2023-04-05T14:54:55Z</time>
      </trkpt>
      <trkpt lat="47.9847" lon="-3.79599">
        <ele>133</ele>
        <time>2023-04-05T14:54:56Z</time>
      </trkpt>
      <trkpt lat="47.98464" lon="-3.79601">
        <ele>133</ele>
        <time>2023-04-05T14:54:57Z</time>
      </trkpt>
      <trkpt lat="47.98459" lon="-3.79602">
        <ele>133</ele>
        <time>2023-04-05T14:54:58Z</time>
      </trkpt>
      <trkpt lat="47.98454" lon="-3.79604">
        <ele>133</ele>
        <time>2023-04-05T14:54:59Z</time>
      </trkpt>
      <trkpt lat="47.9845" lon="-3.79606">
        <ele>132.9</ele>
        <time>2023-04-05T14:55:00Z</time>
      </trkpt>
      <trkpt lat="47.98445" lon="-3.79609">
        <ele>132.9</ele>
        <time>2023-04-05T14:55:01Z</time>
      </trkpt>
      <trkpt lat="47.98441" lon="-3.79611">
        <ele>132.8</ele>
        <time>2023-04-05T14:55:02Z</time>
      </trkpt>
      <trkpt lat="47.98435" lon="-3.79612">
        <ele>132.8</ele>
        <time>2023-04-05T14:55:03Z</time>
      </trkpt>
      <trkpt lat="47.98429" lon="-3.79614">
        <ele>132.7</ele>
        <time>2023-04-05T14:55:04Z</time>
      </trkpt>
      <trkpt lat="47.98424" lon="-3.79615">
        <ele>132.7</ele>
        <time>2023-04-05T14:55:05Z</time>
      </trkpt>
      <trkpt lat="47.98419" lon="-3.79616">
        <ele>132.7</ele>
        <time>2023-04-05T14:55:06Z</time>
      </trkpt>
      <trkpt lat="47.98416" lon="-3.79617">
        <ele>132.6</ele>
        <time>2023-04-05T14:55:07Z</time>
      </trkpt>
      <trkpt lat="47.98409" lon="-3.79619">
        <ele>132.6</ele>
        <time>2023-04-05T14:55:08Z</time>
      </trkpt>
      <trkpt lat="47.98403" lon="-3.79621">
        <ele>132.5</ele>
        <time>2023-04-05T14:55:09Z</time>
      </trkpt>
      <trkpt lat="47.98398" lon="-3.79623">
        <ele>132.5</ele>
        <time>2023-04-05T14:55:10Z</time>
      </trkpt>
      <trkpt lat="47.98392" lon="-3.79626">
        <ele>132.4</ele>
        <time>2023-04-05T14:55:11Z</time>
      </trkpt>
      <trkpt lat="47.98387" lon="-3.79627">
        <ele>132.4</ele>
        <time>2023-04-05T14:55:12Z</time>
      </trkpt>
      <trkpt lat="47.98382" lon="-3.79627">
        <ele>132.4</ele>
        <time>2023-04-05T14:55:13Z</time>
      </trkpt>
      <trkpt lat="47.98376" lon="-3.7963">
        <ele>132.3</ele>
        <time>2023-04-05T14:55:14Z</time>
      </trkpt>
      <trkpt lat="47.98371" lon="-3.79633">
        <ele>132.3</ele>
        <time>2023-04-05T14:55:15Z</time>
      </trkpt>
      <trkpt lat="47.98366" lon="-3.79636">
        <ele>132.3</ele>
        <time>2023-04-05T14:55:16Z</time>
      </trkpt>
      <trkpt lat="47.9836" lon="-3.79639">
        <ele>132.2</ele>
        <time>2023-04-05T14:55:17Z</time>
      </trkpt>
      <trkpt lat="47.98355" lon="-3.79642">
        <ele>132.2</ele>
        <time>2023-04-05T14:55:18Z</time>
      </trkpt>
      <trkpt lat="47.9835" lon="-3.79645">
        <ele>132.1</ele>
        <time>2023-04-05T14:55:19Z</time>
      </trkpt>
      <trkpt lat="47.98344" lon="-3.79649">
        <ele>132.1</ele>
        <time>2023-04-05T14:55:20Z</time>
      </trkpt>
      <trkpt lat="47.9834" lon="-3.79653">
        <ele>132.1</ele>
        <time>2023-04-05T14:55:21Z</time>
      </trkpt>
      <trkpt lat="47.98336" lon="-3.79657">
        <ele>132</ele>
        <time>2023-04-05T14:55:22Z</time>
      </trkpt>
      <trkpt lat="47.98331" lon="-3.7966">
        <ele>132</ele>
        <time>2023-04-05T14:55:23Z</time>
      </trkpt>
      <trkpt lat="47.98327" lon="-3.79665">
        <ele>132</ele>
        <time>2023-04-05T14:55:24Z</time>
      </trkpt>
      <trkpt lat="47.98321" lon="-3.7967">
        <ele>131.9</ele>
        <time>2023-04-05T14:55:25Z</time>
      </trkpt>
      <trkpt lat="47.98317" lon="-3.79674">
        <ele>131.9</ele>
        <time>2023-04-05T14:55:26Z</time>
      </trkpt>
      <trkpt lat="47.98314" lon="-3.79678">
        <ele>131.9</ele>
        <time>2023-04-05T14:55:27Z</time>
      </trkpt>
      <trkpt lat="47.98311" lon="-3.79681">
        <ele>131.9</ele>
        <time>2023-04-05T14:55:28Z</time>
      </trkpt>
      <trkpt lat="47.98305" lon="-3.79686">
        <ele>131.8</ele>
        <time>2023-04-05T14:55:29Z</time>
      </trkpt>
      <trkpt lat="47.98299" lon="-3.79691">
        <ele>131.7</ele>
        <time>2023-04-05T14:55:30Z</time>
      </trkpt>
      <trkpt lat="47.98294" lon="-3.79695">
        <ele>131.7</ele>
        <time>2023-04-05T14:55:31Z</time>
      </trkpt>
      <trkpt lat="47.9829" lon="-3.79699">
        <ele>131.6</ele>
        <time>2023-04-05T14:55:32Z</time>
      </trkpt>
      <trkpt lat="47.98286" lon="-3.79703">
        <ele>131.6</ele>
        <time>2023-04-05T14:55:33Z</time>
      </trkpt>
      <trkpt lat="47.98281" lon="-3.79708">
        <ele>131.6</ele>
        <time>2023-04-05T14:55:34Z</time>
      </trkpt>
      <trkpt lat="47.98276" lon="-3.79712">
        <ele>131.5</ele>
        <time>2023-04-05T14:55:35Z</time>
      </trkpt>
      <trkpt lat="47.98272" lon="-3.79717">
        <ele>131.5</ele>
        <time>2023-04-05T14:55:36Z</time>
      </trkpt>
      <trkpt lat="47.98267" lon="-3.79721">
        <ele>131.4</ele>
        <time>2023-04-05T14:55:37Z</time>
      </trkpt>
      <trkpt lat="47.98263" lon="-3.79725">
        <ele>131.4</ele>
        <time>2023-04-05T14:55:38Z</time>
      </trkpt>
      <trkpt lat="47.98258" lon="-3.79729">
        <ele>131.3</ele>
        <time>2023-04-05T14:55:39Z</time>
      </trkpt>
      <trkpt lat="47.98253" lon="-3.79733">
        <ele>131.3</ele>
        <time>2023-04-05T14:55:40Z</time>
      </trkpt>
      <trkpt lat="47.98249" lon="-3.79738">
        <ele>131.2</ele>
        <time>2023-04-05T14:55:41Z</time>
      </trkpt>
      <trkpt lat="47.98245" lon="-3.79741">
        <ele>131.2</ele>
        <time>2023-04-05T14:55:42Z</time>
      </trkpt>
      <trkpt lat="47.98241" lon="-3.79746">
        <ele>131.1</ele>
        <time>2023-04-05T14:55:43Z</time>
      </trkpt>
      <trkpt lat="47.98235" lon="-3.7975">
        <ele>131.1</ele>
        <time>2023-04-05T14:55:44Z</time>
      </trkpt>
      <trkpt lat="47.9823" lon="-3.79754">
        <ele>131.1</ele>
        <time>2023-04-05T14:55:45Z</time>
      </trkpt>
      <trkpt lat="47.98225" lon="-3.79758">
        <ele>131</ele>
        <time>2023-04-05T14:55:46Z</time>
      </trkpt>
      <trkpt lat="47.9822" lon="-3.79762">
        <ele>130.9</ele>
        <time>2023-04-05T14:55:47Z</time>
      </trkpt>
      <trkpt lat="47.98216" lon="-3.79767">
        <ele>130.9</ele>
        <time>2023-04-05T14:55:48Z</time>
      </trkpt>
      <trkpt lat="47.9821" lon="-3.79772">
        <ele>130.8</ele>
        <time>2023-04-05T14:55:49Z</time>
      </trkpt>
      <trkpt lat="47.98206" lon="-3.79777">
        <ele>130.8</ele>
        <time>2023-04-05T14:55:50Z</time>
      </trkpt>
      <trkpt lat="47.98201" lon="-3.79782">
        <ele>130.7</ele>
        <time>2023-04-05T14:55:51Z</time>
      </trkpt>
      <trkpt lat="47.98197" lon="-3.79787">
        <ele>130.7</ele>
        <time>2023-04-05T14:55:52Z</time>
      </trkpt>
      <trkpt lat="47.98192" lon="-3.79792">
        <ele>130.6</ele>
        <time>2023-04-05T14:55:53Z</time>
      </trkpt>
      <trkpt lat="47.98187" lon="-3.79796">
        <ele>130.6</ele>
        <time>2023-04-05T14:55:54Z</time>
      </trkpt>
      <trkpt lat="47.98182" lon="-3.79802">
        <ele>130.5</ele>
        <time>2023-04-05T14:55:55Z</time>
      </trkpt>
      <trkpt lat="47.98178" lon="-3.79806">
        <ele>130.5</ele>
        <time>2023-04-05T14:55:56Z</time>
      </trkpt>
      <trkpt lat="47.98174" lon="-3.79811">
        <ele>130.5</ele>
        <time>2023-04-05T14:55:57Z</time>
      </trkpt>
      <trkpt lat="47.98169" lon="-3.79816">
        <ele>130.4</ele>
        <time>2023-04-05T14:55:58Z</time>
      </trkpt>
      <trkpt lat="47.98165" lon="-3.7982">
        <ele>130.4</ele>
        <time>2023-04-05T14:55:59Z</time>
      </trkpt>
      <trkpt lat="47.98161" lon="-3.79824">
        <ele>130.4</ele>
        <time>2023-04-05T14:56:00Z</time>
      </trkpt>
      <trkpt lat="47.98157" lon="-3.79829">
        <ele>130.3</ele>
        <time>2023-04-05T14:56:01Z</time>
      </trkpt>
      <trkpt lat="47.98152" lon="-3.79834">
        <ele>130.3</ele>
        <time>2023-04-05T14:56:02Z</time>
      </trkpt>
      <trkpt lat="47.98148" lon="-3.79838">
        <ele>130.4</ele>
        <time>2023-04-05T14:56:03Z</time>
      </trkpt>
      <trkpt lat="47.98144" lon="-3.79842">
        <ele>130.4</ele>
        <time>2023-04-05T14:56:04Z</time>
      </trkpt>
      <trkpt lat="47.9814" lon="-3.79846">
        <ele>130.4</ele>
        <time>2023-04-05T14:56:05Z</time>
      </trkpt>
      <trkpt lat="47.98136" lon="-3.79849">
        <ele>130.4</ele>
        <time>2023-04-05T14:56:06Z</time>
      </trkpt>
      <trkpt lat="47.98133" lon="-3.79852">
        <ele>130.4</ele>
        <time>2023-04-05T14:56:07Z</time>
      </trkpt>
      <trkpt lat="47.98129" lon="-3.79856">
        <ele>130.4</ele>
        <time>2023-04-05T14:56:08Z</time>
      </trkpt>
      <trkpt lat="47.98126" lon="-3.79859">
        <ele>130.4</ele>
        <time>2023-04-05T14:56:09Z</time>
      </trkpt>
      <trkpt lat="47.98123" lon="-3.79862">
        <ele>130.4</ele>
        <time>2023-04-05T14:56:10Z</time>
      </trkpt>
      <trkpt lat="47.9812" lon="-3.79866">
        <ele>130.4</ele>
        <time>2023-04-05T14:56:11Z</time>
      </trkpt>
      <trkpt lat="47.98119" lon="-3.7987">
        <ele>130.3</ele>
        <time>2023-04-05T14:56:12Z</time>
      </trkpt>
      <trkpt lat="47.98116" lon="-3.79874">
        <ele>130.2</ele>
        <time>2023-04-05T14:56:13Z</time>
      </trkpt>
      <trkpt lat="47.98113" lon="-3.79876">
        <ele>130.1</ele>
        <time>2023-04-05T14:56:14Z</time>
      </trkpt>
      <trkpt lat="47.9811" lon="-3.7988">
        <ele>129.9</ele>
        <time>2023-04-05T14:56:15Z</time>
      </trkpt>
      <trkpt lat="47.98107" lon="-3.79885">
        <ele>129.7</ele>
        <time>2023-04-05T14:56:16Z</time>
      </trkpt>
      <trkpt lat="47.98104" lon="-3.7989">
        <ele>129.6</ele>
        <time>2023-04-05T14:56:17Z</time>
      </trkpt>
      <trkpt lat="47.98101" lon="-3.79895">
        <ele>129.5</ele>
        <time>2023-04-05T14:56:18Z</time>
      </trkpt>
      <trkpt lat="47.98097" lon="-3.79901">
        <ele>129.3</ele>
        <time>2023-04-05T14:56:19Z</time>
      </trkpt>
      <trkpt lat="47.98094" lon="-3.79907">
        <ele>129.2</ele>
        <time>2023-04-05T14:56:20Z</time>
      </trkpt>
      <trkpt lat="47.9809" lon="-3.79912">
        <ele>129.1</ele>
        <time>2023-04-05T14:56:21Z</time>
      </trkpt>
      <trkpt lat="47.98087" lon="-3.79918">
        <ele>128.9</ele>
        <time>2023-04-05T14:56:22Z</time>
      </trkpt>
      <trkpt lat="47.98084" lon="-3.79924">
        <ele>128.8</ele>
        <time>2023-04-05T14:56:23Z</time>
      </trkpt>
      <trkpt lat="47.98081" lon="-3.79929">
        <ele>128.7</ele>
        <time>2023-04-05T14:56:24Z</time>
      </trkpt>
      <trkpt lat="47.98078" lon="-3.79936">
        <ele>128.5</ele>
        <time>2023-04-05T14:56:25Z</time>
      </trkpt>
      <trkpt lat="47.98075" lon="-3.79942">
        <ele>128.4</ele>
        <time>2023-04-05T14:56:26Z</time>
      </trkpt>
      <trkpt lat="47.98072" lon="-3.79948">
        <ele>128.3</ele>
        <time>2023-04-05T14:56:27Z</time>
      </trkpt>
      <trkpt lat="47.98069" lon="-3.79955">
        <ele>128.1</ele>
        <time>2023-04-05T14:56:28Z</time>
      </trkpt>
      <trkpt lat="47.98065" lon="-3.79962">
        <ele>128</ele>
        <time>2023-04-05T14:56:29Z</time>
      </trkpt>
      <trkpt lat="47.98061" lon="-3.79969">
        <ele>127.9</ele>
        <time>2023-04-05T14:56:30Z</time>
      </trkpt>
      <trkpt lat="47.98057" lon="-3.79975">
        <ele>127.7</ele>
        <time>2023-04-05T14:56:31Z</time>
      </trkpt>
      <trkpt lat="47.98054" lon="-3.79981">
        <ele>127.6</ele>
        <time>2023-04-05T14:56:32Z</time>
      </trkpt>
      <trkpt lat="47.98051" lon="-3.79987">
        <ele>127.5</ele>
        <time>2023-04-05T14:56:33Z</time>
      </trkpt>
      <trkpt lat="47.98047" lon="-3.79994">
        <ele>127.4</ele>
        <time>2023-04-05T14:56:34Z</time>
      </trkpt>
      <trkpt lat="47.98044" lon="-3.80001">
        <ele>127.2</ele>
        <time>2023-04-05T14:56:35Z</time>
      </trkpt>
      <trkpt lat="47.9804" lon="-3.80008">
        <ele>127.1</ele>
        <time>2023-04-05T14:56:36Z</time>
      </trkpt>
      <trkpt lat="47.98037" lon="-3.80015">
        <ele>127</ele>
        <time>2023-04-05T14:56:37Z</time>
      </trkpt>
      <trkpt lat="47.98033" lon="-3.80021">
        <ele>126.9</ele>
        <time>2023-04-05T14:56:38Z</time>
      </trkpt>
      <trkpt lat="47.98029" lon="-3.80027">
        <ele>126.8</ele>
        <time>2023-04-05T14:56:39Z</time>
      </trkpt>
      <trkpt lat="47.98026" lon="-3.80034">
        <ele>126.7</ele>
        <time>2023-04-05T14:56:40Z</time>
      </trkpt>
      <trkpt lat="47.98022" lon="-3.80042">
        <ele>126.6</ele>
        <time>2023-04-05T14:56:41Z</time>
      </trkpt>
      <trkpt lat="47.98019" lon="-3.80049">
        <ele>126.5</ele>
        <time>2023-04-05T14:56:42Z</time>
      </trkpt>
      <trkpt lat="47.98015" lon="-3.80056">
        <ele>126.4</ele>
        <time>2023-04-05T14:56:43Z</time>
      </trkpt>
      <trkpt lat="47.98011" lon="-3.80063">
        <ele>126.3</ele>
        <time>2023-04-05T14:56:44Z</time>
      </trkpt>
      <trkpt lat="47.98008" lon="-3.80069">
        <ele>126.2</ele>
        <time>2023-04-05T14:56:45Z</time>
      </trkpt>
      <trkpt lat="47.98005" lon="-3.80075">
        <ele>126.2</ele>
        <time>2023-04-05T14:56:46Z</time>
      </trkpt>
      <trkpt lat="47.98001" lon="-3.80082">
        <ele>126.1</ele>
        <time>2023-04-05T14:56:47Z</time>
      </trkpt>
      <trkpt lat="47.97996" lon="-3.80089">
        <ele>126.1</ele>
        <time>2023-04-05T14:56:48Z</time>
      </trkpt>
      <trkpt lat="47.97992" lon="-3.80096">
        <ele>126.1</ele>
        <time>2023-04-05T14:56:49Z</time>
      </trkpt>
      <trkpt lat="47.97988" lon="-3.80103">
        <ele>126.1</ele>
        <time>2023-04-05T14:56:50Z</time>
      </trkpt>
      <trkpt lat="47.97985" lon="-3.8011">
        <ele>126.1</ele>
        <time>2023-04-05T14:56:51Z</time>
      </trkpt>
      <trkpt lat="47.97982" lon="-3.80117">
        <ele>126.2</ele>
        <time>2023-04-05T14:56:52Z</time>
      </trkpt>
      <trkpt lat="47.97979" lon="-3.80123">
        <ele>126.2</ele>
        <time>2023-04-05T14:56:53Z</time>
      </trkpt>
      <trkpt lat="47.97976" lon="-3.80129">
        <ele>126.3</ele>
        <time>2023-04-05T14:56:54Z</time>
      </trkpt>
      <trkpt lat="47.97973" lon="-3.80135">
        <ele>126.3</ele>
        <time>2023-04-05T14:56:55Z</time>
      </trkpt>
      <trkpt lat="47.97971" lon="-3.80139">
        <ele>126.3</ele>
        <time>2023-04-05T14:56:56Z</time>
      </trkpt>
      <trkpt lat="47.97968" lon="-3.80142">
        <ele>126.4</ele>
        <time>2023-04-05T14:56:57Z</time>
      </trkpt>
      <trkpt lat="47.97966" lon="-3.80146">
        <ele>126.4</ele>
        <time>2023-04-05T14:56:58Z</time>
      </trkpt>
      <trkpt lat="47.97965" lon="-3.80151">
        <ele>126.5</ele>
        <time>2023-04-05T14:56:59Z</time>
      </trkpt>
      <trkpt lat="47.97963" lon="-3.80157">
        <ele>126.5</ele>
        <time>2023-04-05T14:57:00Z</time>
      </trkpt>
      <trkpt lat="47.97959" lon="-3.8016">
        <ele>126.5</ele>
        <time>2023-04-05T14:57:01Z</time>
      </trkpt>
      <trkpt lat="47.97956" lon="-3.80163">
        <ele>126.6</ele>
        <time>2023-04-05T14:57:02Z</time>
      </trkpt>
      <trkpt lat="47.97953" lon="-3.8017">
        <ele>126.6</ele>
        <time>2023-04-05T14:57:03Z</time>
      </trkpt>
      <trkpt lat="47.97949" lon="-3.80176">
        <ele>126.6</ele>
        <time>2023-04-05T14:57:04Z</time>
      </trkpt>
      <trkpt lat="47.97946" lon="-3.80181">
        <ele>126.6</ele>
        <time>2023-04-05T14:57:05Z</time>
      </trkpt>
      <trkpt lat="47.97942" lon="-3.80185">
        <ele>126.6</ele>
        <time>2023-04-05T14:57:06Z</time>
      </trkpt>
      <trkpt lat="47.9794" lon="-3.80191">
        <ele>126.6</ele>
        <time>2023-04-05T14:57:07Z</time>
      </trkpt>
      <trkpt lat="47.97938" lon="-3.80197">
        <ele>126.6</ele>
        <time>2023-04-05T14:57:08Z</time>
      </trkpt>
      <trkpt lat="47.97935" lon="-3.80203">
        <ele>126.6</ele>
        <time>2023-04-05T14:57:09Z</time>
      </trkpt>
      <trkpt lat="47.97932" lon="-3.80209">
        <ele>126.6</ele>
        <time>2023-04-05T14:57:10Z</time>
      </trkpt>
      <trkpt lat="47.9793" lon="-3.80214">
        <ele>126.6</ele>
        <time>2023-04-05T14:57:11Z</time>
      </trkpt>
      <trkpt lat="47.97927" lon="-3.8022">
        <ele>126.6</ele>
        <time>2023-04-05T14:57:12Z</time>
      </trkpt>
      <trkpt lat="47.97924" lon="-3.80225">
        <ele>126.7</ele>
        <time>2023-04-05T14:57:13Z</time>
      </trkpt>
      <trkpt lat="47.97921" lon="-3.8023">
        <ele>126.7</ele>
        <time>2023-04-05T14:57:14Z</time>
      </trkpt>
      <trkpt lat="47.97918" lon="-3.80235">
        <ele>126.8</ele>
        <time>2023-04-05T14:57:15Z</time>
      </trkpt>
      <trkpt lat="47.97915" lon="-3.8024">
        <ele>126.8</ele>
        <time>2023-04-05T14:57:16Z</time>
      </trkpt>
      <trkpt lat="47.97912" lon="-3.80245">
        <ele>126.9</ele>
        <time>2023-04-05T14:57:17Z</time>
      </trkpt>
      <trkpt lat="47.97909" lon="-3.80251">
        <ele>126.9</ele>
        <time>2023-04-05T14:57:18Z</time>
      </trkpt>
      <trkpt lat="47.97906" lon="-3.80257">
        <ele>127</ele>
        <time>2023-04-05T14:57:19Z</time>
      </trkpt>
      <trkpt lat="47.97904" lon="-3.8026">
        <ele>127</ele>
        <time>2023-04-05T14:57:20Z</time>
      </trkpt>
      <trkpt lat="47.97901" lon="-3.80266">
        <ele>127</ele>
        <time>2023-04-05T14:57:21Z</time>
      </trkpt>
      <trkpt lat="47.97899" lon="-3.8027">
        <ele>127.1</ele>
        <time>2023-04-05T14:57:22Z</time>
      </trkpt>
      <trkpt lat="47.97896" lon="-3.80275">
        <ele>127.1</ele>
        <time>2023-04-05T14:57:23Z</time>
      </trkpt>
      <trkpt lat="47.97893" lon="-3.80282">
        <ele>127.1</ele>
        <time>2023-04-05T14:57:24Z</time>
      </trkpt>
      <trkpt lat="47.9789" lon="-3.80287">
        <ele>127.2</ele>
        <time>2023-04-05T14:57:25Z</time>
      </trkpt>
      <trkpt lat="47.97887" lon="-3.80291">
        <ele>127.2</ele>
        <time>2023-04-05T14:57:26Z</time>
      </trkpt>
      <trkpt lat="47.97881" lon="-3.80303">
        <ele>127.3</ele>
        <time>2023-04-05T14:57:28Z</time>
      </trkpt>
      <trkpt lat="47.97878" lon="-3.80309">
        <ele>127.3</ele>
        <time>2023-04-05T14:57:29Z</time>
      </trkpt>
      <trkpt lat="47.97875" lon="-3.80315">
        <ele>127.4</ele>
        <time>2023-04-05T14:57:30Z</time>
      </trkpt>
      <trkpt lat="47.97872" lon="-3.80319">
        <ele>127.4</ele>
        <time>2023-04-05T14:57:31Z</time>
      </trkpt>
      <trkpt lat="47.97869" lon="-3.80325">
        <ele>127.5</ele>
        <time>2023-04-05T14:57:32Z</time>
      </trkpt>
      <trkpt lat="47.97867" lon="-3.8033">
        <ele>127.5</ele>
        <time>2023-04-05T14:57:33Z</time>
      </trkpt>
      <trkpt lat="47.97863" lon="-3.80338">
        <ele>127.6</ele>
        <time>2023-04-05T14:57:34Z</time>
      </trkpt>
      <trkpt lat="47.9786" lon="-3.80344">
        <ele>127.6</ele>
        <time>2023-04-05T14:57:36Z</time>
      </trkpt>
      <trkpt lat="47.97856" lon="-3.80351">
        <ele>127.7</ele>
        <time>2023-04-05T14:57:37Z</time>
      </trkpt>
      <trkpt lat="47.97853" lon="-3.80357">
        <ele>127.8</ele>
        <time>2023-04-05T14:57:38Z</time>
      </trkpt>
      <trkpt lat="47.9785" lon="-3.80362">
        <ele>127.8</ele>
        <time>2023-04-05T14:57:39Z</time>
      </trkpt>
      <trkpt lat="47.97847" lon="-3.80368">
        <ele>127.9</ele>
        <time>2023-04-05T14:57:40Z</time>
      </trkpt>
      <trkpt lat="47.97844" lon="-3.80373">
        <ele>128</ele>
        <time>2023-04-05T14:57:41Z</time>
      </trkpt>
      <trkpt lat="47.97841" lon="-3.80378">
        <ele>128</ele>
        <time>2023-04-05T14:57:42Z</time>
      </trkpt>
      <trkpt lat="47.97839" lon="-3.80382">
        <ele>128.1</ele>
        <time>2023-04-05T14:57:43Z</time>
      </trkpt>
      <trkpt lat="47.97833" lon="-3.80394">
        <ele>128.2</ele>
        <time>2023-04-05T14:57:45Z</time>
      </trkpt>
      <trkpt lat="47.97831" lon="-3.80399">
        <ele>128.3</ele>
        <time>2023-04-05T14:57:46Z</time>
      </trkpt>
      <trkpt lat="47.97828" lon="-3.80404">
        <ele>128.4</ele>
        <time>2023-04-05T14:57:47Z</time>
      </trkpt>
      <trkpt lat="47.97826" lon="-3.80407">
        <ele>128.4</ele>
        <time>2023-04-05T14:57:48Z</time>
      </trkpt>
      <trkpt lat="47.97822" lon="-3.80418">
        <ele>128.5</ele>
        <time>2023-04-05T14:57:49Z</time>
      </trkpt>
      <trkpt lat="47.97817" lon="-3.80426">
        <ele>128.6</ele>
        <time>2023-04-05T14:57:51Z</time>
      </trkpt>
      <trkpt lat="47.97814" lon="-3.80431">
        <ele>128.6</ele>
        <time>2023-04-05T14:57:52Z</time>
      </trkpt>
      <trkpt lat="47.97811" lon="-3.80437">
        <ele>128.6</ele>
        <time>2023-04-05T14:57:53Z</time>
      </trkpt>
      <trkpt lat="47.97808" lon="-3.80442">
        <ele>128.7</ele>
        <time>2023-04-05T14:57:54Z</time>
      </trkpt>
      <trkpt lat="47.97805" lon="-3.80448">
        <ele>128.7</ele>
        <time>2023-04-05T14:57:55Z</time>
      </trkpt>
      <trkpt lat="47.97801" lon="-3.80453">
        <ele>128.8</ele>
        <time>2023-04-05T14:57:56Z</time>
      </trkpt>
      <trkpt lat="47.97798" lon="-3.80459">
        <ele>128.8</ele>
        <time>2023-04-05T14:57:57Z</time>
      </trkpt>
      <trkpt lat="47.97796" lon="-3.80464">
        <ele>128.9</ele>
        <time>2023-04-05T14:57:58Z</time>
      </trkpt>
      <trkpt lat="47.97792" lon="-3.80469">
        <ele>128.9</ele>
        <time>2023-04-05T14:57:59Z</time>
      </trkpt>
      <trkpt lat="47.97789" lon="-3.80475">
        <ele>129</ele>
        <time>2023-04-05T14:58:00Z</time>
      </trkpt>
      <trkpt lat="47.97786" lon="-3.8048">
        <ele>129.1</ele>
        <time>2023-04-05T14:58:01Z</time>
      </trkpt>
      <trkpt lat="47.97783" lon="-3.80486">
        <ele>129.1</ele>
        <time>2023-04-05T14:58:02Z</time>
      </trkpt>
      <trkpt lat="47.9778" lon="-3.80491">
        <ele>129.2</ele>
        <time>2023-04-05T14:58:03Z</time>
      </trkpt>
      <trkpt lat="47.97777" lon="-3.80496">
        <ele>129.2</ele>
        <time>2023-04-05T14:58:04Z</time>
      </trkpt>
      <trkpt lat="47.97774" lon="-3.80502">
        <ele>129.3</ele>
        <time>2023-04-05T14:58:05Z</time>
      </trkpt>
      <trkpt lat="47.97771" lon="-3.80507">
        <ele>129.3</ele>
        <time>2023-04-05T14:58:06Z</time>
      </trkpt>
      <trkpt lat="47.97768" lon="-3.80512">
        <ele>129.4</ele>
        <time>2023-04-05T14:58:07Z</time>
      </trkpt>
      <trkpt lat="47.97766" lon="-3.80518">
        <ele>129.5</ele>
        <time>2023-04-05T14:58:08Z</time>
      </trkpt>
      <trkpt lat="47.97763" lon="-3.80523">
        <ele>129.5</ele>
        <time>2023-04-05T14:58:09Z</time>
      </trkpt>
      <trkpt lat="47.97763" lon="-3.80531">
        <ele>129.6</ele>
        <time>2023-04-05T14:58:11Z</time>
      </trkpt>
      <trkpt lat="47.97758" lon="-3.80536">
        <ele>129.7</ele>
        <time>2023-04-05T14:58:12Z</time>
      </trkpt>
      <trkpt lat="47.97753" lon="-3.80543">
        <ele>129.7</ele>
        <time>2023-04-05T14:58:13Z</time>
      </trkpt>
      <trkpt lat="47.9775" lon="-3.80549">
        <ele>129.8</ele>
        <time>2023-04-05T14:58:14Z</time>
      </trkpt>
      <trkpt lat="47.97747" lon="-3.80554">
        <ele>129.8</ele>
        <time>2023-04-05T14:58:15Z</time>
      </trkpt>
      <trkpt lat="47.97745" lon="-3.80558">
        <ele>129.9</ele>
        <time>2023-04-05T14:58:16Z</time>
      </trkpt>
      <trkpt lat="47.9774" lon="-3.80569">
        <ele>130</ele>
        <time>2023-04-05T14:58:18Z</time>
      </trkpt>
      <trkpt lat="47.97737" lon="-3.80574">
        <ele>130</ele>
        <time>2023-04-05T14:58:19Z</time>
      </trkpt>
      <trkpt lat="47.97735" lon="-3.8058">
        <ele>130.1</ele>
        <time>2023-04-05T14:58:20Z</time>
      </trkpt>
      <trkpt lat="47.97732" lon="-3.80585">
        <ele>130.1</ele>
        <time>2023-04-05T14:58:21Z</time>
      </trkpt>
      <trkpt lat="47.97729" lon="-3.80589">
        <ele>130.2</ele>
        <time>2023-04-05T14:58:22Z</time>
      </trkpt>
      <trkpt lat="47.97723" lon="-3.80599">
        <ele>130.3</ele>
        <time>2023-04-05T14:58:23Z</time>
      </trkpt>
      <trkpt lat="47.97721" lon="-3.80605">
        <ele>130.3</ele>
        <time>2023-04-05T14:58:25Z</time>
      </trkpt>
      <trkpt lat="47.97718" lon="-3.8061">
        <ele>130.4</ele>
        <time>2023-04-05T14:58:26Z</time>
      </trkpt>
      <trkpt lat="47.97715" lon="-3.80615">
        <ele>130.5</ele>
        <time>2023-04-05T14:58:27Z</time>
      </trkpt>
      <trkpt lat="47.97711" lon="-3.80621">
        <ele>130.5</ele>
        <time>2023-04-05T14:58:28Z</time>
      </trkpt>
      <trkpt lat="47.97707" lon="-3.80626">
        <ele>130.6</ele>
        <time>2023-04-05T14:58:29Z</time>
      </trkpt>
      <trkpt lat="47.97704" lon="-3.80631">
        <ele>130.7</ele>
        <time>2023-04-05T14:58:30Z</time>
      </trkpt>
      <trkpt lat="47.97701" lon="-3.80637">
        <ele>130.7</ele>
        <time>2023-04-05T14:58:31Z</time>
      </trkpt>
      <trkpt lat="47.97698" lon="-3.80643">
        <ele>130.8</ele>
        <time>2023-04-05T14:58:32Z</time>
      </trkpt>
      <trkpt lat="47.97695" lon="-3.80648">
        <ele>130.9</ele>
        <time>2023-04-05T14:58:33Z</time>
      </trkpt>
      <trkpt lat="47.97692" lon="-3.80654">
        <ele>130.9</ele>
        <time>2023-04-05T14:58:34Z</time>
      </trkpt>
      <trkpt lat="47.97689" lon="-3.80659">
        <ele>131</ele>
        <time>2023-04-05T14:58:35Z</time>
      </trkpt>
      <trkpt lat="47.97686" lon="-3.80665">
        <ele>131.1</ele>
        <time>2023-04-05T14:58:36Z</time>
      </trkpt>
      <trkpt lat="47.97684" lon="-3.80671">
        <ele>131.1</ele>
        <time>2023-04-05T14:58:37Z</time>
      </trkpt>
      <trkpt lat="47.97681" lon="-3.80676">
        <ele>131.2</ele>
        <time>2023-04-05T14:58:38Z</time>
      </trkpt>
      <trkpt lat="47.97678" lon="-3.80681">
        <ele>131.2</ele>
        <time>2023-04-05T14:58:39Z</time>
      </trkpt>
      <trkpt lat="47.97675" lon="-3.80686">
        <ele>131.3</ele>
        <time>2023-04-05T14:58:40Z</time>
      </trkpt>
      <trkpt lat="47.97672" lon="-3.80692">
        <ele>131.4</ele>
        <time>2023-04-05T14:58:41Z</time>
      </trkpt>
      <trkpt lat="47.97669" lon="-3.80697">
        <ele>131.4</ele>
        <time>2023-04-05T14:58:42Z</time>
      </trkpt>
      <trkpt lat="47.97666" lon="-3.80702">
        <ele>131.5</ele>
        <time>2023-04-05T14:58:43Z</time>
      </trkpt>
      <trkpt lat="47.97664" lon="-3.80706">
        <ele>131.5</ele>
        <time>2023-04-05T14:58:44Z</time>
      </trkpt>
      <trkpt lat="47.97661" lon="-3.80712">
        <ele>131.5</ele>
        <time>2023-04-05T14:58:45Z</time>
      </trkpt>
      <trkpt lat="47.97659" lon="-3.80715">
        <ele>131.6</ele>
        <time>2023-04-05T14:58:46Z</time>
      </trkpt>
      <trkpt lat="47.97656" lon="-3.80721">
        <ele>131.6</ele>
        <time>2023-04-05T14:58:47Z</time>
      </trkpt>
      <trkpt lat="47.97654" lon="-3.80727">
        <ele>131.6</ele>
        <time>2023-04-05T14:58:48Z</time>
      </trkpt>
      <trkpt lat="47.9765" lon="-3.80733">
        <ele>131.6</ele>
        <time>2023-04-05T14:58:49Z</time>
      </trkpt>
      <trkpt lat="47.97647" lon="-3.80737">
        <ele>131.6</ele>
        <time>2023-04-05T14:58:50Z</time>
      </trkpt>
      <trkpt lat="47.97644" lon="-3.80743">
        <ele>131.6</ele>
        <time>2023-04-05T14:58:51Z</time>
      </trkpt>
      <trkpt lat="47.97641" lon="-3.80749">
        <ele>131.6</ele>
        <time>2023-04-05T14:58:52Z</time>
      </trkpt>
      <trkpt lat="47.97638" lon="-3.80755">
        <ele>131.6</ele>
        <time>2023-04-05T14:58:53Z</time>
      </trkpt>
      <trkpt lat="47.97635" lon="-3.80761">
        <ele>131.6</ele>
        <time>2023-04-05T14:58:54Z</time>
      </trkpt>
      <trkpt lat="47.97632" lon="-3.80767">
        <ele>131.6</ele>
        <time>2023-04-05T14:58:55Z</time>
      </trkpt>
      <trkpt lat="47.97629" lon="-3.80772">
        <ele>131.6</ele>
        <time>2023-04-05T14:58:56Z</time>
      </trkpt>
      <trkpt lat="47.97625" lon="-3.80778">
        <ele>131.6</ele>
        <time>2023-04-05T14:58:57Z</time>
      </trkpt>
      <trkpt lat="47.97623" lon="-3.80784">
        <ele>131.6</ele>
        <time>2023-04-05T14:58:58Z</time>
      </trkpt>
      <trkpt lat="47.9762" lon="-3.8079">
        <ele>131.6</ele>
        <time>2023-04-05T14:58:59Z</time>
      </trkpt>
      <trkpt lat="47.97616" lon="-3.80796">
        <ele>131.6</ele>
        <time>2023-04-05T14:59:00Z</time>
      </trkpt>
      <trkpt lat="47.97613" lon="-3.80802">
        <ele>131.6</ele>
        <time>2023-04-05T14:59:01Z</time>
      </trkpt>
      <trkpt lat="47.9761" lon="-3.80808">
        <ele>131.5</ele>
        <time>2023-04-05T14:59:02Z</time>
      </trkpt>
      <trkpt lat="47.97607" lon="-3.80814">
        <ele>131.5</ele>
        <time>2023-04-05T14:59:03Z</time>
      </trkpt>
      <trkpt lat="47.97604" lon="-3.80818">
        <ele>131.5</ele>
        <time>2023-04-05T14:59:04Z</time>
      </trkpt>
      <trkpt lat="47.976" lon="-3.80824">
        <ele>131.5</ele>
        <time>2023-04-05T14:59:05Z</time>
      </trkpt>
      <trkpt lat="47.97597" lon="-3.8083">
        <ele>131.5</ele>
        <time>2023-04-05T14:59:06Z</time>
      </trkpt>
      <trkpt lat="47.97593" lon="-3.80837">
        <ele>131.4</ele>
        <time>2023-04-05T14:59:07Z</time>
      </trkpt>
      <trkpt lat="47.9759" lon="-3.80843">
        <ele>131.4</ele>
        <time>2023-04-05T14:59:08Z</time>
      </trkpt>
      <trkpt lat="47.97587" lon="-3.80849">
        <ele>131.4</ele>
        <time>2023-04-05T14:59:09Z</time>
      </trkpt>
      <trkpt lat="47.97584" lon="-3.80855">
        <ele>131.4</ele>
        <time>2023-04-05T14:59:10Z</time>
      </trkpt>
      <trkpt lat="47.9758" lon="-3.80862">
        <ele>131.4</ele>
        <time>2023-04-05T14:59:11Z</time>
      </trkpt>
      <trkpt lat="47.97578" lon="-3.80868">
        <ele>131.4</ele>
        <time>2023-04-05T14:59:12Z</time>
      </trkpt>
      <trkpt lat="47.97575" lon="-3.80874">
        <ele>131.4</ele>
        <time>2023-04-05T14:59:13Z</time>
      </trkpt>
      <trkpt lat="47.97571" lon="-3.8088">
        <ele>131.4</ele>
        <time>2023-04-05T14:59:14Z</time>
      </trkpt>
      <trkpt lat="47.97568" lon="-3.80886">
        <ele>131.4</ele>
        <time>2023-04-05T14:59:15Z</time>
      </trkpt>
      <trkpt lat="47.97565" lon="-3.80891">
        <ele>131.4</ele>
        <time>2023-04-05T14:59:16Z</time>
      </trkpt>
      <trkpt lat="47.97561" lon="-3.80897">
        <ele>131.4</ele>
        <time>2023-04-05T14:59:17Z</time>
      </trkpt>
      <trkpt lat="47.97558" lon="-3.80903">
        <ele>131.4</ele>
        <time>2023-04-05T14:59:18Z</time>
      </trkpt>
      <trkpt lat="47.97554" lon="-3.80909">
        <ele>131.4</ele>
        <time>2023-04-05T14:59:19Z</time>
      </trkpt>
      <trkpt lat="47.97551" lon="-3.80914">
        <ele>131.3</ele>
        <time>2023-04-05T14:59:20Z</time>
      </trkpt>
      <trkpt lat="47.97548" lon="-3.8092">
        <ele>131.3</ele>
        <time>2023-04-05T14:59:21Z</time>
      </trkpt>
      <trkpt lat="47.97545" lon="-3.80926">
        <ele>131.3</ele>
        <time>2023-04-05T14:59:22Z</time>
      </trkpt>
      <trkpt lat="47.97542" lon="-3.80932">
        <ele>131.3</ele>
        <time>2023-04-05T14:59:23Z</time>
      </trkpt>
      <trkpt lat="47.97539" lon="-3.80937">
        <ele>131.3</ele>
        <time>2023-04-05T14:59:24Z</time>
      </trkpt>
      <trkpt lat="47.97536" lon="-3.80943">
        <ele>131.3</ele>
        <time>2023-04-05T14:59:25Z</time>
      </trkpt>
      <trkpt lat="47.97533" lon="-3.80949">
        <ele>131.3</ele>
        <time>2023-04-05T14:59:26Z</time>
      </trkpt>
      <trkpt lat="47.97529" lon="-3.80954">
        <ele>131.3</ele>
        <time>2023-04-05T14:59:27Z</time>
      </trkpt>
      <trkpt lat="47.97526" lon="-3.8096">
        <ele>131.2</ele>
        <time>2023-04-05T14:59:28Z</time>
      </trkpt>
      <trkpt lat="47.97523" lon="-3.80966">
        <ele>131.2</ele>
        <time>2023-04-05T14:59:29Z</time>
      </trkpt>
      <trkpt lat="47.9752" lon="-3.80972">
        <ele>131.2</ele>
        <time>2023-04-05T14:59:30Z</time>
      </trkpt>
      <trkpt lat="47.97517" lon="-3.80978">
        <ele>131.2</ele>
        <time>2023-04-05T14:59:31Z</time>
      </trkpt>
      <trkpt lat="47.97514" lon="-3.80984">
        <ele>131.2</ele>
        <time>2023-04-05T14:59:32Z</time>
      </trkpt>
      <trkpt lat="47.97511" lon="-3.80989">
        <ele>131.1</ele>
        <time>2023-04-05T14:59:33Z</time>
      </trkpt>
      <trkpt lat="47.97508" lon="-3.80995">
        <ele>131.1</ele>
        <time>2023-04-05T14:59:34Z</time>
      </trkpt>
      <trkpt lat="47.97504" lon="-3.81001">
        <ele>131.2</ele>
        <time>2023-04-05T14:59:35Z</time>
      </trkpt>
      <trkpt lat="47.97501" lon="-3.81007">
        <ele>131.2</ele>
        <time>2023-04-05T14:59:36Z</time>
      </trkpt>
      <trkpt lat="47.97498" lon="-3.81012">
        <ele>131.2</ele>
        <time>2023-04-05T14:59:37Z</time>
      </trkpt>
      <trkpt lat="47.97495" lon="-3.81018">
        <ele>131.2</ele>
        <time>2023-04-05T14:59:38Z</time>
      </trkpt>
      <trkpt lat="47.97492" lon="-3.81024">
        <ele>131.3</ele>
        <time>2023-04-05T14:59:39Z</time>
      </trkpt>
      <trkpt lat="47.97489" lon="-3.8103">
        <ele>131.3</ele>
        <time>2023-04-05T14:59:40Z</time>
      </trkpt>
      <trkpt lat="47.97487" lon="-3.81035">
        <ele>131.3</ele>
        <time>2023-04-05T14:59:41Z</time>
      </trkpt>
      <trkpt lat="47.97484" lon="-3.81041">
        <ele>131.3</ele>
        <time>2023-04-05T14:59:42Z</time>
      </trkpt>
      <trkpt lat="47.97481" lon="-3.81047">
        <ele>131.3</ele>
        <time>2023-04-05T14:59:43Z</time>
      </trkpt>
      <trkpt lat="47.97478" lon="-3.81052">
        <ele>131.3</ele>
        <time>2023-04-05T14:59:44Z</time>
      </trkpt>
      <trkpt lat="47.97475" lon="-3.81058">
        <ele>131.3</ele>
        <time>2023-04-05T14:59:45Z</time>
      </trkpt>
      <trkpt lat="47.97472" lon="-3.81064">
        <ele>131.3</ele>
        <time>2023-04-05T14:59:46Z</time>
      </trkpt>
      <trkpt lat="47.97469" lon="-3.81069">
        <ele>131.3</ele>
        <time>2023-04-05T14:59:47Z</time>
      </trkpt>
      <trkpt lat="47.97466" lon="-3.81075">
        <ele>131.3</ele>
        <time>2023-04-05T14:59:48Z</time>
      </trkpt>
      <trkpt lat="47.97463" lon="-3.81081">
        <ele>131.3</ele>
        <time>2023-04-05T14:59:49Z</time>
      </trkpt>
      <trkpt lat="47.9746" lon="-3.81086">
        <ele>131.3</ele>
        <time>2023-04-05T14:59:50Z</time>
      </trkpt>
      <trkpt lat="47.97456" lon="-3.81092">
        <ele>131.3</ele>
        <time>2023-04-05T14:59:51Z</time>
      </trkpt>
      <trkpt lat="47.97453" lon="-3.81098">
        <ele>131.3</ele>
        <time>2023-04-05T14:59:52Z</time>
      </trkpt>
      <trkpt lat="47.9745" lon="-3.81104">
        <ele>131.3</ele>
        <time>2023-04-05T14:59:53Z</time>
      </trkpt>
      <trkpt lat="47.97447" lon="-3.8111">
        <ele>131.2</ele>
        <time>2023-04-05T14:59:54Z</time>
      </trkpt>
      <trkpt lat="47.97443" lon="-3.81116">
        <ele>131.2</ele>
        <time>2023-04-05T14:59:55Z</time>
      </trkpt>
      <trkpt lat="47.9744" lon="-3.81122">
        <ele>131.2</ele>
        <time>2023-04-05T14:59:56Z</time>
      </trkpt>
      <trkpt lat="47.97437" lon="-3.81129">
        <ele>131.2</ele>
        <time>2023-04-05T14:59:57Z</time>
      </trkpt>
      <trkpt lat="47.97434" lon="-3.81135">
        <ele>131.2</ele>
        <time>2023-04-05T14:59:58Z</time>
      </trkpt>
      <trkpt lat="47.97431" lon="-3.81141">
        <ele>131.1</ele>
        <time>2023-04-05T14:59:59Z</time>
      </trkpt>
      <trkpt lat="47.97428" lon="-3.81147">
        <ele>131.1</ele>
        <time>2023-04-05T15:00:00Z</time>
      </trkpt>
      <trkpt lat="47.97425" lon="-3.81153">
        <ele>131.1</ele>
        <time>2023-04-05T15:00:01Z</time>
      </trkpt>
      <trkpt lat="47.97422" lon="-3.81159">
        <ele>131.1</ele>
        <time>2023-04-05T15:00:02Z</time>
      </trkpt>
      <trkpt lat="47.97418" lon="-3.81164">
        <ele>131.1</ele>
        <time>2023-04-05T15:00:03Z</time>
      </trkpt>
      <trkpt lat="47.97415" lon="-3.8117">
        <ele>131.1</ele>
        <time>2023-04-05T15:00:04Z</time>
      </trkpt>
      <trkpt lat="47.97412" lon="-3.81176">
        <ele>131.2</ele>
        <time>2023-04-05T15:00:05Z</time>
      </trkpt>
      <trkpt lat="47.97409" lon="-3.81182">
        <ele>131.2</ele>
        <time>2023-04-05T15:00:06Z</time>
      </trkpt>
      <trkpt lat="47.97405" lon="-3.81188">
        <ele>131.2</ele>
        <time>2023-04-05T15:00:07Z</time>
      </trkpt>
      <trkpt lat="47.97402" lon="-3.81195">
        <ele>131.2</ele>
        <time>2023-04-05T15:00:08Z</time>
      </trkpt>
      <trkpt lat="47.97399" lon="-3.81201">
        <ele>131.2</ele>
        <time>2023-04-05T15:00:09Z</time>
      </trkpt>
      <trkpt lat="47.97396" lon="-3.81207">
        <ele>131.2</ele>
        <time>2023-04-05T15:00:10Z</time>
      </trkpt>
      <trkpt lat="47.97392" lon="-3.81213">
        <ele>131.3</ele>
        <time>2023-04-05T15:00:11Z</time>
      </trkpt>
      <trkpt lat="47.97389" lon="-3.81219">
        <ele>131.3</ele>
        <time>2023-04-05T15:00:12Z</time>
      </trkpt>
      <trkpt lat="47.97386" lon="-3.81225">
        <ele>131.3</ele>
        <time>2023-04-05T15:00:13Z</time>
      </trkpt>
      <trkpt lat="47.97383" lon="-3.81231">
        <ele>131.4</ele>
        <time>2023-04-05T15:00:14Z</time>
      </trkpt>
      <trkpt lat="47.97379" lon="-3.81237">
        <ele>131.4</ele>
        <time>2023-04-05T15:00:15Z</time>
      </trkpt>
      <trkpt lat="47.97376" lon="-3.81243">
        <ele>131.4</ele>
        <time>2023-04-05T15:00:16Z</time>
      </trkpt>
      <trkpt lat="47.97372" lon="-3.81249">
        <ele>131.4</ele>
        <time>2023-04-05T15:00:17Z</time>
      </trkpt>
      <trkpt lat="47.97369" lon="-3.81255">
        <ele>131.4</ele>
        <time>2023-04-05T15:00:18Z</time>
      </trkpt>
      <trkpt lat="47.97366" lon="-3.8126">
        <ele>131.5</ele>
        <time>2023-04-05T15:00:19Z</time>
      </trkpt>
      <trkpt lat="47.97362" lon="-3.81266">
        <ele>131.5</ele>
        <time>2023-04-05T15:00:20Z</time>
      </trkpt>
      <trkpt lat="47.97359" lon="-3.81272">
        <ele>131.5</ele>
        <time>2023-04-05T15:00:21Z</time>
      </trkpt>
      <trkpt lat="47.97356" lon="-3.81278">
        <ele>131.5</ele>
        <time>2023-04-05T15:00:22Z</time>
      </trkpt>
      <trkpt lat="47.97353" lon="-3.81284">
        <ele>131.5</ele>
        <time>2023-04-05T15:00:23Z</time>
      </trkpt>
      <trkpt lat="47.9735" lon="-3.81289">
        <ele>131.5</ele>
        <time>2023-04-05T15:00:24Z</time>
      </trkpt>
      <trkpt lat="47.97347" lon="-3.81295">
        <ele>131.6</ele>
        <time>2023-04-05T15:00:25Z</time>
      </trkpt>
      <trkpt lat="47.97344" lon="-3.81301">
        <ele>131.6</ele>
        <time>2023-04-05T15:00:26Z</time>
      </trkpt>
      <trkpt lat="47.97341" lon="-3.81307">
        <ele>131.6</ele>
        <time>2023-04-05T15:00:27Z</time>
      </trkpt>
      <trkpt lat="47.97338" lon="-3.81312">
        <ele>131.6</ele>
        <time>2023-04-05T15:00:28Z</time>
      </trkpt>
      <trkpt lat="47.97335" lon="-3.81317">
        <ele>131.7</ele>
        <time>2023-04-05T15:00:29Z</time>
      </trkpt>
      <trkpt lat="47.97332" lon="-3.81323">
        <ele>131.7</ele>
        <time>2023-04-05T15:00:30Z</time>
      </trkpt>
      <trkpt lat="47.97329" lon="-3.81329">
        <ele>131.7</ele>
        <time>2023-04-05T15:00:31Z</time>
      </trkpt>
      <trkpt lat="47.97327" lon="-3.81335">
        <ele>131.7</ele>
        <time>2023-04-05T15:00:32Z</time>
      </trkpt>
      <trkpt lat="47.97324" lon="-3.81341">
        <ele>131.8</ele>
        <time>2023-04-05T15:00:33Z</time>
      </trkpt>
      <trkpt lat="47.97321" lon="-3.81346">
        <ele>131.8</ele>
        <time>2023-04-05T15:00:34Z</time>
      </trkpt>
      <trkpt lat="47.97318" lon="-3.81352">
        <ele>131.8</ele>
        <time>2023-04-05T15:00:35Z</time>
      </trkpt>
      <trkpt lat="47.97316" lon="-3.81358">
        <ele>131.9</ele>
        <time>2023-04-05T15:00:36Z</time>
      </trkpt>
      <trkpt lat="47.97313" lon="-3.81363">
        <ele>131.9</ele>
        <time>2023-04-05T15:00:37Z</time>
      </trkpt>
      <trkpt lat="47.9731" lon="-3.81369">
        <ele>131.9</ele>
        <time>2023-04-05T15:00:38Z</time>
      </trkpt>
      <trkpt lat="47.97308" lon="-3.81372">
        <ele>131.9</ele>
        <time>2023-04-05T15:00:39Z</time>
      </trkpt>
      <trkpt lat="47.97304" lon="-3.81379">
        <ele>131.9</ele>
        <time>2023-04-05T15:00:40Z</time>
      </trkpt>
      <trkpt lat="47.97301" lon="-3.81385">
        <ele>131.9</ele>
        <time>2023-04-05T15:00:41Z</time>
      </trkpt>
      <trkpt lat="47.97298" lon="-3.81391">
        <ele>131.9</ele>
        <time>2023-04-05T15:00:42Z</time>
      </trkpt>
      <trkpt lat="47.97295" lon="-3.81396">
        <ele>131.9</ele>
        <time>2023-04-05T15:00:43Z</time>
      </trkpt>
      <trkpt lat="47.97292" lon="-3.814">
        <ele>131.9</ele>
        <time>2023-04-05T15:00:44Z</time>
      </trkpt>
      <trkpt lat="47.97289" lon="-3.81405">
        <ele>131.9</ele>
        <time>2023-04-05T15:00:45Z</time>
      </trkpt>
      <trkpt lat="47.97286" lon="-3.81411">
        <ele>131.9</ele>
        <time>2023-04-05T15:00:46Z</time>
      </trkpt>
      <trkpt lat="47.97283" lon="-3.81417">
        <ele>132</ele>
        <time>2023-04-05T15:00:47Z</time>
      </trkpt>
      <trkpt lat="47.9728" lon="-3.81423">
        <ele>132</ele>
        <time>2023-04-05T15:00:48Z</time>
      </trkpt>
      <trkpt lat="47.97277" lon="-3.8143">
        <ele>132</ele>
        <time>2023-04-05T15:00:49Z</time>
      </trkpt>
      <trkpt lat="47.97274" lon="-3.81435">
        <ele>132</ele>
        <time>2023-04-05T15:00:50Z</time>
      </trkpt>
      <trkpt lat="47.97273" lon="-3.8144">
        <ele>132</ele>
        <time>2023-04-05T15:00:51Z</time>
      </trkpt>
      <trkpt lat="47.97269" lon="-3.81447">
        <ele>132</ele>
        <time>2023-04-05T15:00:52Z</time>
      </trkpt>
      <trkpt lat="47.97266" lon="-3.81453">
        <ele>132</ele>
        <time>2023-04-05T15:00:53Z</time>
      </trkpt>
      <trkpt lat="47.97263" lon="-3.81457">
        <ele>132</ele>
        <time>2023-04-05T15:00:54Z</time>
      </trkpt>
      <trkpt lat="47.9726" lon="-3.81462">
        <ele>132</ele>
        <time>2023-04-05T15:00:55Z</time>
      </trkpt>
      <trkpt lat="47.97257" lon="-3.81467">
        <ele>132.1</ele>
        <time>2023-04-05T15:00:56Z</time>
      </trkpt>
      <trkpt lat="47.97254" lon="-3.81472">
        <ele>132.1</ele>
        <time>2023-04-05T15:00:57Z</time>
      </trkpt>
      <trkpt lat="47.9725" lon="-3.81479">
        <ele>132.1</ele>
        <time>2023-04-05T15:00:58Z</time>
      </trkpt>
      <trkpt lat="47.97247" lon="-3.81486">
        <ele>132</ele>
        <time>2023-04-05T15:00:59Z</time>
      </trkpt>
      <trkpt lat="47.97245" lon="-3.81493">
        <ele>132</ele>
        <time>2023-04-05T15:01:00Z</time>
      </trkpt>
      <trkpt lat="47.9724" lon="-3.81497">
        <ele>131.9</ele>
        <time>2023-04-05T15:01:01Z</time>
      </trkpt>
      <trkpt lat="47.97237" lon="-3.81502">
        <ele>131.9</ele>
        <time>2023-04-05T15:01:02Z</time>
      </trkpt>
      <trkpt lat="47.97233" lon="-3.81508">
        <ele>131.8</ele>
        <time>2023-04-05T15:01:03Z</time>
      </trkpt>
      <trkpt lat="47.97229" lon="-3.81514">
        <ele>131.8</ele>
        <time>2023-04-05T15:01:04Z</time>
      </trkpt>
      <trkpt lat="47.97226" lon="-3.8152">
        <ele>131.8</ele>
        <time>2023-04-05T15:01:05Z</time>
      </trkpt>
      <trkpt lat="47.97223" lon="-3.81527">
        <ele>131.7</ele>
        <time>2023-04-05T15:01:06Z</time>
      </trkpt>
      <trkpt lat="47.97219" lon="-3.81533">
        <ele>131.7</ele>
        <time>2023-04-05T15:01:07Z</time>
      </trkpt>
      <trkpt lat="47.97216" lon="-3.81538">
        <ele>131.7</ele>
        <time>2023-04-05T15:01:08Z</time>
      </trkpt>
      <trkpt lat="47.97212" lon="-3.81544">
        <ele>131.6</ele>
        <time>2023-04-05T15:01:09Z</time>
      </trkpt>
      <trkpt lat="47.97209" lon="-3.81551">
        <ele>131.6</ele>
        <time>2023-04-05T15:01:10Z</time>
      </trkpt>
      <trkpt lat="47.97206" lon="-3.81557">
        <ele>131.6</ele>
        <time>2023-04-05T15:01:11Z</time>
      </trkpt>
      <trkpt lat="47.97203" lon="-3.81563">
        <ele>131.6</ele>
        <time>2023-04-05T15:01:12Z</time>
      </trkpt>
      <trkpt lat="47.972" lon="-3.81569">
        <ele>131.5</ele>
        <time>2023-04-05T15:01:13Z</time>
      </trkpt>
      <trkpt lat="47.97197" lon="-3.81575">
        <ele>131.5</ele>
        <time>2023-04-05T15:01:14Z</time>
      </trkpt>
      <trkpt lat="47.97194" lon="-3.81581">
        <ele>131.4</ele>
        <time>2023-04-05T15:01:15Z</time>
      </trkpt>
      <trkpt lat="47.97191" lon="-3.81587">
        <ele>131.4</ele>
        <time>2023-04-05T15:01:16Z</time>
      </trkpt>
      <trkpt lat="47.97187" lon="-3.81593">
        <ele>131.4</ele>
        <time>2023-04-05T15:01:17Z</time>
      </trkpt>
      <trkpt lat="47.97184" lon="-3.81599">
        <ele>131.3</ele>
        <time>2023-04-05T15:01:18Z</time>
      </trkpt>
      <trkpt lat="47.9718" lon="-3.81605">
        <ele>131.3</ele>
        <time>2023-04-05T15:01:19Z</time>
      </trkpt>
      <trkpt lat="47.97177" lon="-3.8161">
        <ele>131.2</ele>
        <time>2023-04-05T15:01:20Z</time>
      </trkpt>
      <trkpt lat="47.97173" lon="-3.81615">
        <ele>131.2</ele>
        <time>2023-04-05T15:01:21Z</time>
      </trkpt>
      <trkpt lat="47.9717" lon="-3.8162">
        <ele>131.2</ele>
        <time>2023-04-05T15:01:22Z</time>
      </trkpt>
      <trkpt lat="47.97167" lon="-3.81625">
        <ele>131.1</ele>
        <time>2023-04-05T15:01:23Z</time>
      </trkpt>
      <trkpt lat="47.97165" lon="-3.81633">
        <ele>131.1</ele>
        <time>2023-04-05T15:01:24Z</time>
      </trkpt>
      <trkpt lat="47.97162" lon="-3.8164">
        <ele>131</ele>
        <time>2023-04-05T15:01:25Z</time>
      </trkpt>
      <trkpt lat="47.97159" lon="-3.81646">
        <ele>131</ele>
        <time>2023-04-05T15:01:26Z</time>
      </trkpt>
      <trkpt lat="47.97156" lon="-3.81652">
        <ele>130.9</ele>
        <time>2023-04-05T15:01:27Z</time>
      </trkpt>
      <trkpt lat="47.97153" lon="-3.81658">
        <ele>130.9</ele>
        <time>2023-04-05T15:01:28Z</time>
      </trkpt>
      <trkpt lat="47.97149" lon="-3.81664">
        <ele>130.9</ele>
        <time>2023-04-05T15:01:29Z</time>
      </trkpt>
      <trkpt lat="47.97146" lon="-3.8167">
        <ele>130.8</ele>
        <time>2023-04-05T15:01:30Z</time>
      </trkpt>
      <trkpt lat="47.97144" lon="-3.81676">
        <ele>130.8</ele>
        <time>2023-04-05T15:01:31Z</time>
      </trkpt>
      <trkpt lat="47.9714" lon="-3.81682">
        <ele>130.7</ele>
        <time>2023-04-05T15:01:32Z</time>
      </trkpt>
      <trkpt lat="47.97137" lon="-3.81688">
        <ele>130.7</ele>
        <time>2023-04-05T15:01:33Z</time>
      </trkpt>
      <trkpt lat="47.97133" lon="-3.81694">
        <ele>130.7</ele>
        <time>2023-04-05T15:01:34Z</time>
      </trkpt>
      <trkpt lat="47.9713" lon="-3.817">
        <ele>130.6</ele>
        <time>2023-04-05T15:01:35Z</time>
      </trkpt>
      <trkpt lat="47.97127" lon="-3.81706">
        <ele>130.6</ele>
        <time>2023-04-05T15:01:36Z</time>
      </trkpt>
      <trkpt lat="47.97124" lon="-3.81713">
        <ele>130.6</ele>
        <time>2023-04-05T15:01:37Z</time>
      </trkpt>
      <trkpt lat="47.97121" lon="-3.81719">
        <ele>130.5</ele>
        <time>2023-04-05T15:01:38Z</time>
      </trkpt>
      <trkpt lat="47.97118" lon="-3.81725">
        <ele>130.5</ele>
        <time>2023-04-05T15:01:39Z</time>
      </trkpt>
      <trkpt lat="47.97114" lon="-3.81731">
        <ele>130.5</ele>
        <time>2023-04-05T15:01:40Z</time>
      </trkpt>
      <trkpt lat="47.97111" lon="-3.81736">
        <ele>130.4</ele>
        <time>2023-04-05T15:01:41Z</time>
      </trkpt>
      <trkpt lat="47.97107" lon="-3.81742">
        <ele>130.4</ele>
        <time>2023-04-05T15:01:42Z</time>
      </trkpt>
      <trkpt lat="47.97102" lon="-3.81748">
        <ele>130.4</ele>
        <time>2023-04-05T15:01:43Z</time>
      </trkpt>
      <trkpt lat="47.97099" lon="-3.81754">
        <ele>130.3</ele>
        <time>2023-04-05T15:01:44Z</time>
      </trkpt>
      <trkpt lat="47.97095" lon="-3.8176">
        <ele>130.3</ele>
        <time>2023-04-05T15:01:45Z</time>
      </trkpt>
      <trkpt lat="47.97091" lon="-3.81765">
        <ele>130.2</ele>
        <time>2023-04-05T15:01:46Z</time>
      </trkpt>
      <trkpt lat="47.97088" lon="-3.81771">
        <ele>130.2</ele>
        <time>2023-04-05T15:01:47Z</time>
      </trkpt>
      <trkpt lat="47.97084" lon="-3.81776">
        <ele>130.2</ele>
        <time>2023-04-05T15:01:48Z</time>
      </trkpt>
      <trkpt lat="47.9708" lon="-3.81782">
        <ele>130.2</ele>
        <time>2023-04-05T15:01:49Z</time>
      </trkpt>
      <trkpt lat="47.97076" lon="-3.81788">
        <ele>130.1</ele>
        <time>2023-04-05T15:01:50Z</time>
      </trkpt>
      <trkpt lat="47.97073" lon="-3.81794">
        <ele>130.1</ele>
        <time>2023-04-05T15:01:51Z</time>
      </trkpt>
      <trkpt lat="47.97069" lon="-3.818">
        <ele>130.1</ele>
        <time>2023-04-05T15:01:52Z</time>
      </trkpt>
      <trkpt lat="47.97064" lon="-3.81805">
        <ele>130</ele>
        <time>2023-04-05T15:01:53Z</time>
      </trkpt>
      <trkpt lat="47.9706" lon="-3.81811">
        <ele>130</ele>
        <time>2023-04-05T15:01:54Z</time>
      </trkpt>
      <trkpt lat="47.97056" lon="-3.81816">
        <ele>129.9</ele>
        <time>2023-04-05T15:01:55Z</time>
      </trkpt>
      <trkpt lat="47.97052" lon="-3.81821">
        <ele>129.9</ele>
        <time>2023-04-05T15:01:56Z</time>
      </trkpt>
      <trkpt lat="47.97047" lon="-3.81825">
        <ele>129.8</ele>
        <time>2023-04-05T15:01:57Z</time>
      </trkpt>
      <trkpt lat="47.97042" lon="-3.8183">
        <ele>129.8</ele>
        <time>2023-04-05T15:01:58Z</time>
      </trkpt>
      <trkpt lat="47.97038" lon="-3.81835">
        <ele>129.7</ele>
        <time>2023-04-05T15:01:59Z</time>
      </trkpt>
      <trkpt lat="47.97033" lon="-3.81839">
        <ele>129.7</ele>
        <time>2023-04-05T15:02:00Z</time>
      </trkpt>
      <trkpt lat="47.97028" lon="-3.81843">
        <ele>129.6</ele>
        <time>2023-04-05T15:02:01Z</time>
      </trkpt>
      <trkpt lat="47.97023" lon="-3.81847">
        <ele>129.6</ele>
        <time>2023-04-05T15:02:02Z</time>
      </trkpt>
      <trkpt lat="47.97018" lon="-3.81852">
        <ele>129.5</ele>
        <time>2023-04-05T15:02:03Z</time>
      </trkpt>
      <trkpt lat="47.97014" lon="-3.81856">
        <ele>129.5</ele>
        <time>2023-04-05T15:02:04Z</time>
      </trkpt>
      <trkpt lat="47.97009" lon="-3.81861">
        <ele>129.4</ele>
        <time>2023-04-05T15:02:05Z</time>
      </trkpt>
      <trkpt lat="47.97004" lon="-3.81866">
        <ele>129.3</ele>
        <time>2023-04-05T15:02:06Z</time>
      </trkpt>
      <trkpt lat="47.97" lon="-3.8187">
        <ele>129.3</ele>
        <time>2023-04-05T15:02:07Z</time>
      </trkpt>
      <trkpt lat="47.96995" lon="-3.81875">
        <ele>129.2</ele>
        <time>2023-04-05T15:02:08Z</time>
      </trkpt>
      <trkpt lat="47.96991" lon="-3.8188">
        <ele>129.1</ele>
        <time>2023-04-05T15:02:09Z</time>
      </trkpt>
      <trkpt lat="47.96986" lon="-3.81885">
        <ele>129.1</ele>
        <time>2023-04-05T15:02:10Z</time>
      </trkpt>
      <trkpt lat="47.96982" lon="-3.8189">
        <ele>129</ele>
        <time>2023-04-05T15:02:11Z</time>
      </trkpt>
      <trkpt lat="47.96977" lon="-3.81894">
        <ele>129</ele>
        <time>2023-04-05T15:02:12Z</time>
      </trkpt>
      <trkpt lat="47.96972" lon="-3.81899">
        <ele>129</ele>
        <time>2023-04-05T15:02:13Z</time>
      </trkpt>
      <trkpt lat="47.96968" lon="-3.81903">
        <ele>129</ele>
        <time>2023-04-05T15:02:14Z</time>
      </trkpt>
      <trkpt lat="47.96963" lon="-3.81907">
        <ele>128.9</ele>
        <time>2023-04-05T15:02:15Z</time>
      </trkpt>
      <trkpt lat="47.96958" lon="-3.81911">
        <ele>128.9</ele>
        <time>2023-04-05T15:02:16Z</time>
      </trkpt>
      <trkpt lat="47.96953" lon="-3.81916">
        <ele>128.9</ele>
        <time>2023-04-05T15:02:17Z</time>
      </trkpt>
      <trkpt lat="47.96949" lon="-3.8192">
        <ele>128.9</ele>
        <time>2023-04-05T15:02:18Z</time>
      </trkpt>
      <trkpt lat="47.96945" lon="-3.81925">
        <ele>129</ele>
        <time>2023-04-05T15:02:19Z</time>
      </trkpt>
      <trkpt lat="47.96941" lon="-3.81929">
        <ele>129</ele>
        <time>2023-04-05T15:02:20Z</time>
      </trkpt>
      <trkpt lat="47.96938" lon="-3.81933">
        <ele>129</ele>
        <time>2023-04-05T15:02:21Z</time>
      </trkpt>
      <trkpt lat="47.96934" lon="-3.81937">
        <ele>129</ele>
        <time>2023-04-05T15:02:22Z</time>
      </trkpt>
      <trkpt lat="47.96933" lon="-3.81938">
        <ele>129</ele>
        <time>2023-04-05T15:02:23Z</time>
      </trkpt>
      <trkpt lat="47.9693" lon="-3.81939">
        <ele>129</ele>
        <time>2023-04-05T15:02:24Z</time>
      </trkpt>
      <trkpt lat="47.96927" lon="-3.81941">
        <ele>129</ele>
        <time>2023-04-05T15:02:25Z</time>
      </trkpt>
      <trkpt lat="47.96927" lon="-3.81942">
        <ele>129</ele>
        <time>2023-04-05T15:02:26Z</time>
      </trkpt>
      <trkpt lat="47.96924" lon="-3.81944">
        <ele>129</ele>
        <time>2023-04-05T15:02:27Z</time>
      </trkpt>
      <trkpt lat="47.96922" lon="-3.81946">
        <ele>129</ele>
        <time>2023-04-05T15:02:28Z</time>
      </trkpt>
      <trkpt lat="47.96921" lon="-3.81949">
        <ele>128.9</ele>
        <time>2023-04-05T15:02:30Z</time>
      </trkpt>
      <trkpt lat="47.96919" lon="-3.81951">
        <ele>128.9</ele>
        <time>2023-04-05T15:02:31Z</time>
      </trkpt>
      <trkpt lat="47.96913" lon="-3.81952">
        <ele>128.8</ele>
        <time>2023-04-05T15:02:32Z</time>
      </trkpt>
      <trkpt lat="47.9691" lon="-3.81954">
        <ele>128.7</ele>
        <time>2023-04-05T15:02:34Z</time>
      </trkpt>
      <trkpt lat="47.96908" lon="-3.81957">
        <ele>128.7</ele>
        <time>2023-04-05T15:02:35Z</time>
      </trkpt>
      <trkpt lat="47.96905" lon="-3.81959">
        <ele>128.6</ele>
        <time>2023-04-05T15:02:36Z</time>
      </trkpt>
      <trkpt lat="47.96902" lon="-3.81962">
        <ele>128.5</ele>
        <time>2023-04-05T15:02:37Z</time>
      </trkpt>
      <trkpt lat="47.96895" lon="-3.81972">
        <ele>128.2</ele>
        <time>2023-04-05T15:02:38Z</time>
      </trkpt>
      <trkpt lat="47.96892" lon="-3.81976">
        <ele>128.1</ele>
        <time>2023-04-05T15:02:40Z</time>
      </trkpt>
      <trkpt lat="47.96887" lon="-3.8198">
        <ele>128</ele>
        <time>2023-04-05T15:02:41Z</time>
      </trkpt>
      <trkpt lat="47.96884" lon="-3.81983">
        <ele>127.9</ele>
        <time>2023-04-05T15:02:42Z</time>
      </trkpt>
      <trkpt lat="47.96879" lon="-3.81988">
        <ele>127.8</ele>
        <time>2023-04-05T15:02:43Z</time>
      </trkpt>
      <trkpt lat="47.96874" lon="-3.81994">
        <ele>127.6</ele>
        <time>2023-04-05T15:02:44Z</time>
      </trkpt>
      <trkpt lat="47.9687" lon="-3.81999">
        <ele>127.5</ele>
        <time>2023-04-05T15:02:45Z</time>
      </trkpt>
      <trkpt lat="47.96865" lon="-3.82003">
        <ele>127.4</ele>
        <time>2023-04-05T15:02:46Z</time>
      </trkpt>
      <trkpt lat="47.96861" lon="-3.82008">
        <ele>127.2</ele>
        <time>2023-04-05T15:02:47Z</time>
      </trkpt>
      <trkpt lat="47.96857" lon="-3.82014">
        <ele>127.1</ele>
        <time>2023-04-05T15:02:48Z</time>
      </trkpt>
      <trkpt lat="47.96852" lon="-3.82018">
        <ele>127</ele>
        <time>2023-04-05T15:02:49Z</time>
      </trkpt>
      <trkpt lat="47.96848" lon="-3.82023">
        <ele>126.9</ele>
        <time>2023-04-05T15:02:50Z</time>
      </trkpt>
      <trkpt lat="47.96842" lon="-3.82027">
        <ele>126.8</ele>
        <time>2023-04-05T15:02:51Z</time>
      </trkpt>
      <trkpt lat="47.96837" lon="-3.82031">
        <ele>126.7</ele>
        <time>2023-04-05T15:02:52Z</time>
      </trkpt>
      <trkpt lat="47.96831" lon="-3.82035">
        <ele>126.5</ele>
        <time>2023-04-05T15:02:53Z</time>
      </trkpt>
      <trkpt lat="47.96826" lon="-3.8204">
        <ele>126.4</ele>
        <time>2023-04-05T15:02:54Z</time>
      </trkpt>
      <trkpt lat="47.96821" lon="-3.82045">
        <ele>126.3</ele>
        <time>2023-04-05T15:02:55Z</time>
      </trkpt>
      <trkpt lat="47.96816" lon="-3.8205">
        <ele>126.2</ele>
        <time>2023-04-05T15:02:56Z</time>
      </trkpt>
      <trkpt lat="47.96811" lon="-3.82055">
        <ele>126</ele>
        <time>2023-04-05T15:02:57Z</time>
      </trkpt>
      <trkpt lat="47.96806" lon="-3.82059">
        <ele>125.9</ele>
        <time>2023-04-05T15:02:58Z</time>
      </trkpt>
      <trkpt lat="47.96801" lon="-3.82065">
        <ele>125.7</ele>
        <time>2023-04-05T15:02:59Z</time>
      </trkpt>
      <trkpt lat="47.96796" lon="-3.82069">
        <ele>125.6</ele>
        <time>2023-04-05T15:03:00Z</time>
      </trkpt>
      <trkpt lat="47.96791" lon="-3.82074">
        <ele>125.5</ele>
        <time>2023-04-05T15:03:01Z</time>
      </trkpt>
      <trkpt lat="47.96786" lon="-3.82079">
        <ele>125.4</ele>
        <time>2023-04-05T15:03:02Z</time>
      </trkpt>
      <trkpt lat="47.96781" lon="-3.82084">
        <ele>125.3</ele>
        <time>2023-04-05T15:03:03Z</time>
      </trkpt>
      <trkpt lat="47.96776" lon="-3.8209">
        <ele>125.2</ele>
        <time>2023-04-05T15:03:04Z</time>
      </trkpt>
      <trkpt lat="47.96771" lon="-3.82095">
        <ele>125.1</ele>
        <time>2023-04-05T15:03:05Z</time>
      </trkpt>
      <trkpt lat="47.96766" lon="-3.82099">
        <ele>125</ele>
        <time>2023-04-05T15:03:06Z</time>
      </trkpt>
      <trkpt lat="47.96761" lon="-3.82104">
        <ele>124.9</ele>
        <time>2023-04-05T15:03:07Z</time>
      </trkpt>
      <trkpt lat="47.96756" lon="-3.82109">
        <ele>124.8</ele>
        <time>2023-04-05T15:03:08Z</time>
      </trkpt>
      <trkpt lat="47.9675" lon="-3.82113">
        <ele>124.7</ele>
        <time>2023-04-05T15:03:09Z</time>
      </trkpt>
      <trkpt lat="47.96745" lon="-3.82118">
        <ele>124.5</ele>
        <time>2023-04-05T15:03:10Z</time>
      </trkpt>
      <trkpt lat="47.96741" lon="-3.82122">
        <ele>124.4</ele>
        <time>2023-04-05T15:03:11Z</time>
      </trkpt>
      <trkpt lat="47.96737" lon="-3.82126">
        <ele>124.3</ele>
        <time>2023-04-05T15:03:12Z</time>
      </trkpt>
      <trkpt lat="47.96732" lon="-3.8213">
        <ele>124.3</ele>
        <time>2023-04-05T15:03:13Z</time>
      </trkpt>
      <trkpt lat="47.96727" lon="-3.82134">
        <ele>124.2</ele>
        <time>2023-04-05T15:03:14Z</time>
      </trkpt>
      <trkpt lat="47.96722" lon="-3.82139">
        <ele>124.1</ele>
        <time>2023-04-05T15:03:15Z</time>
      </trkpt>
      <trkpt lat="47.96718" lon="-3.82141">
        <ele>124</ele>
        <time>2023-04-05T15:03:16Z</time>
      </trkpt>
      <trkpt lat="47.96715" lon="-3.82145">
        <ele>123.9</ele>
        <time>2023-04-05T15:03:17Z</time>
      </trkpt>
      <trkpt lat="47.96712" lon="-3.82149">
        <ele>123.8</ele>
        <time>2023-04-05T15:03:18Z</time>
      </trkpt>
      <trkpt lat="47.96707" lon="-3.82156">
        <ele>123.7</ele>
        <time>2023-04-05T15:03:19Z</time>
      </trkpt>
      <trkpt lat="47.96703" lon="-3.8216">
        <ele>123.6</ele>
        <time>2023-04-05T15:03:20Z</time>
      </trkpt>
      <trkpt lat="47.96701" lon="-3.82162">
        <ele>123.6</ele>
        <time>2023-04-05T15:03:21Z</time>
      </trkpt>
      <trkpt lat="47.96694" lon="-3.82168">
        <ele>123.4</ele>
        <time>2023-04-05T15:03:22Z</time>
      </trkpt>
      <trkpt lat="47.96687" lon="-3.82173">
        <ele>123.2</ele>
        <time>2023-04-05T15:03:23Z</time>
      </trkpt>
      <trkpt lat="47.9668" lon="-3.82179">
        <ele>123</ele>
        <time>2023-04-05T15:03:24Z</time>
      </trkpt>
      <trkpt lat="47.96675" lon="-3.82183">
        <ele>122.9</ele>
        <time>2023-04-05T15:03:25Z</time>
      </trkpt>
      <trkpt lat="47.9667" lon="-3.82188">
        <ele>122.8</ele>
        <time>2023-04-05T15:03:26Z</time>
      </trkpt>
      <trkpt lat="47.96665" lon="-3.82193">
        <ele>122.6</ele>
        <time>2023-04-05T15:03:27Z</time>
      </trkpt>
      <trkpt lat="47.9666" lon="-3.82198">
        <ele>122.4</ele>
        <time>2023-04-05T15:03:28Z</time>
      </trkpt>
      <trkpt lat="47.96655" lon="-3.82202">
        <ele>122.3</ele>
        <time>2023-04-05T15:03:29Z</time>
      </trkpt>
      <trkpt lat="47.96651" lon="-3.82207">
        <ele>122.2</ele>
        <time>2023-04-05T15:03:30Z</time>
      </trkpt>
      <trkpt lat="47.96646" lon="-3.82213">
        <ele>122</ele>
        <time>2023-04-05T15:03:31Z</time>
      </trkpt>
      <trkpt lat="47.96642" lon="-3.82216">
        <ele>121.9</ele>
        <time>2023-04-05T15:03:32Z</time>
      </trkpt>
      <trkpt lat="47.96637" lon="-3.82221">
        <ele>121.8</ele>
        <time>2023-04-05T15:03:33Z</time>
      </trkpt>
      <trkpt lat="47.96633" lon="-3.82228">
        <ele>121.7</ele>
        <time>2023-04-05T15:03:34Z</time>
      </trkpt>
      <trkpt lat="47.96628" lon="-3.82233">
        <ele>121.6</ele>
        <time>2023-04-05T15:03:35Z</time>
      </trkpt>
      <trkpt lat="47.96623" lon="-3.82238">
        <ele>121.4</ele>
        <time>2023-04-05T15:03:36Z</time>
      </trkpt>
      <trkpt lat="47.96617" lon="-3.82244">
        <ele>121.3</ele>
        <time>2023-04-05T15:03:37Z</time>
      </trkpt>
      <trkpt lat="47.96612" lon="-3.82249">
        <ele>121.2</ele>
        <time>2023-04-05T15:03:38Z</time>
      </trkpt>
      <trkpt lat="47.96607" lon="-3.82254">
        <ele>121.1</ele>
        <time>2023-04-05T15:03:39Z</time>
      </trkpt>
      <trkpt lat="47.96602" lon="-3.82258">
        <ele>121</ele>
        <time>2023-04-05T15:03:40Z</time>
      </trkpt>
      <trkpt lat="47.96598" lon="-3.82263">
        <ele>120.9</ele>
        <time>2023-04-05T15:03:41Z</time>
      </trkpt>
      <trkpt lat="47.96591" lon="-3.82267">
        <ele>120.7</ele>
        <time>2023-04-05T15:03:42Z</time>
      </trkpt>
      <trkpt lat="47.96586" lon="-3.82271">
        <ele>120.6</ele>
        <time>2023-04-05T15:03:43Z</time>
      </trkpt>
      <trkpt lat="47.96582" lon="-3.82276">
        <ele>120.5</ele>
        <time>2023-04-05T15:03:44Z</time>
      </trkpt>
      <trkpt lat="47.96576" lon="-3.82282">
        <ele>120.4</ele>
        <time>2023-04-05T15:03:45Z</time>
      </trkpt>
      <trkpt lat="47.96571" lon="-3.82286">
        <ele>120.2</ele>
        <time>2023-04-05T15:03:46Z</time>
      </trkpt>
      <trkpt lat="47.96566" lon="-3.82291">
        <ele>120.1</ele>
        <time>2023-04-05T15:03:47Z</time>
      </trkpt>
      <trkpt lat="47.96561" lon="-3.82295">
        <ele>120</ele>
        <time>2023-04-05T15:03:48Z</time>
      </trkpt>
      <trkpt lat="47.96556" lon="-3.823">
        <ele>119.9</ele>
        <time>2023-04-05T15:03:49Z</time>
      </trkpt>
      <trkpt lat="47.96552" lon="-3.82306">
        <ele>119.8</ele>
        <time>2023-04-05T15:03:50Z</time>
      </trkpt>
      <trkpt lat="47.96548" lon="-3.82311">
        <ele>119.7</ele>
        <time>2023-04-05T15:03:51Z</time>
      </trkpt>
      <trkpt lat="47.96545" lon="-3.82316">
        <ele>119.5</ele>
        <time>2023-04-05T15:03:52Z</time>
      </trkpt>
      <trkpt lat="47.96539" lon="-3.82322">
        <ele>119.4</ele>
        <time>2023-04-05T15:03:53Z</time>
      </trkpt>
      <trkpt lat="47.96535" lon="-3.82328">
        <ele>119.2</ele>
        <time>2023-04-05T15:03:54Z</time>
      </trkpt>
      <trkpt lat="47.9653" lon="-3.82334">
        <ele>119.1</ele>
        <time>2023-04-05T15:03:55Z</time>
      </trkpt>
      <trkpt lat="47.96525" lon="-3.82341">
        <ele>118.9</ele>
        <time>2023-04-05T15:03:56Z</time>
      </trkpt>
      <trkpt lat="47.96521" lon="-3.82346">
        <ele>118.8</ele>
        <time>2023-04-05T15:03:57Z</time>
      </trkpt>
      <trkpt lat="47.96517" lon="-3.82352">
        <ele>118.6</ele>
        <time>2023-04-05T15:03:58Z</time>
      </trkpt>
      <trkpt lat="47.96512" lon="-3.82359">
        <ele>118.5</ele>
        <time>2023-04-05T15:03:59Z</time>
      </trkpt>
      <trkpt lat="47.96507" lon="-3.82366">
        <ele>118.4</ele>
        <time>2023-04-05T15:04:00Z</time>
      </trkpt>
      <trkpt lat="47.96502" lon="-3.82372">
        <ele>118.2</ele>
        <time>2023-04-05T15:04:01Z</time>
      </trkpt>
      <trkpt lat="47.96497" lon="-3.82379">
        <ele>118</ele>
        <time>2023-04-05T15:04:02Z</time>
      </trkpt>
      <trkpt lat="47.96493" lon="-3.82386">
        <ele>117.9</ele>
        <time>2023-04-05T15:04:03Z</time>
      </trkpt>
      <trkpt lat="47.96489" lon="-3.82392">
        <ele>117.8</ele>
        <time>2023-04-05T15:04:04Z</time>
      </trkpt>
      <trkpt lat="47.96485" lon="-3.82398">
        <ele>117.7</ele>
        <time>2023-04-05T15:04:05Z</time>
      </trkpt>
      <trkpt lat="47.96481" lon="-3.82406">
        <ele>117.6</ele>
        <time>2023-04-05T15:04:06Z</time>
      </trkpt>
      <trkpt lat="47.96477" lon="-3.82412">
        <ele>117.5</ele>
        <time>2023-04-05T15:04:07Z</time>
      </trkpt>
      <trkpt lat="47.96474" lon="-3.8242">
        <ele>117.4</ele>
        <time>2023-04-05T15:04:08Z</time>
      </trkpt>
      <trkpt lat="47.9647" lon="-3.82426">
        <ele>117.3</ele>
        <time>2023-04-05T15:04:09Z</time>
      </trkpt>
      <trkpt lat="47.96466" lon="-3.82433">
        <ele>117.2</ele>
        <time>2023-04-05T15:04:10Z</time>
      </trkpt>
      <trkpt lat="47.96462" lon="-3.82439">
        <ele>117.1</ele>
        <time>2023-04-05T15:04:11Z</time>
      </trkpt>
      <trkpt lat="47.96459" lon="-3.82445">
        <ele>117.1</ele>
        <time>2023-04-05T15:04:12Z</time>
      </trkpt>
      <trkpt lat="47.96455" lon="-3.82451">
        <ele>117</ele>
        <time>2023-04-05T15:04:13Z</time>
      </trkpt>
      <trkpt lat="47.96452" lon="-3.82456">
        <ele>117</ele>
        <time>2023-04-05T15:04:14Z</time>
      </trkpt>
      <trkpt lat="47.9645" lon="-3.82462">
        <ele>117</ele>
        <time>2023-04-05T15:04:15Z</time>
      </trkpt>
      <trkpt lat="47.96446" lon="-3.82467">
        <ele>117</ele>
        <time>2023-04-05T15:04:16Z</time>
      </trkpt>
      <trkpt lat="47.96443" lon="-3.8247">
        <ele>116.9</ele>
        <time>2023-04-05T15:04:17Z</time>
      </trkpt>
      <trkpt lat="47.9644" lon="-3.82473">
        <ele>116.9</ele>
        <time>2023-04-05T15:04:18Z</time>
      </trkpt>
      <trkpt lat="47.96437" lon="-3.82475">
        <ele>116.9</ele>
        <time>2023-04-05T15:04:19Z</time>
      </trkpt>
      <trkpt lat="47.96435" lon="-3.82477">
        <ele>116.9</ele>
        <time>2023-04-05T15:04:20Z</time>
      </trkpt>
      <trkpt lat="47.96431" lon="-3.82477">
        <ele>116.9</ele>
        <time>2023-04-05T15:04:21Z</time>
      </trkpt>
      <trkpt lat="47.96429" lon="-3.82477">
        <ele>116.9</ele>
        <time>2023-04-05T15:04:22Z</time>
      </trkpt>
      <trkpt lat="47.96427" lon="-3.82477">
        <ele>116.9</ele>
        <time>2023-04-05T15:04:23Z</time>
      </trkpt>
      <trkpt lat="47.96427" lon="-3.82476">
        <ele>116.9</ele>
        <time>2023-04-05T15:04:25Z</time>
      </trkpt>
      <trkpt lat="47.96426" lon="-3.82476">
        <ele>116.9</ele>
        <time>2023-04-05T15:04:26Z</time>
      </trkpt>
      <trkpt lat="47.96426" lon="-3.82476">
        <ele>116.9</ele>
        <time>2023-04-05T15:04:27Z</time>
      </trkpt>
      <trkpt lat="47.96426" lon="-3.82476">
        <ele>116.9</ele>
        <time>2023-04-05T15:04:28Z</time>
      </trkpt>
      <trkpt lat="47.96425" lon="-3.82476">
        <ele>116.9</ele>
        <time>2023-04-05T15:04:29Z</time>
      </trkpt>
      <trkpt lat="47.96425" lon="-3.82476">
        <ele>116.9</ele>
        <time>2023-04-05T15:04:30Z</time>
      </trkpt>
      <trkpt lat="47.96425" lon="-3.82476">
        <ele>116.9</ele>
        <time>2023-04-05T15:04:31Z</time>
      </trkpt>
      <trkpt lat="47.96425" lon="-3.82476">
        <ele>116.9</ele>
        <time>2023-04-05T15:04:32Z</time>
      </trkpt>
      <trkpt lat="47.96425" lon="-3.82476">
        <ele>116.9</ele>
        <time>2023-04-05T15:04:33Z</time>
      </trkpt>
      <trkpt lat="47.96425" lon="-3.82476">
        <ele>116.9</ele>
        <time>2023-04-05T15:04:34Z</time>
      </trkpt>
      <trkpt lat="47.96425" lon="-3.82476">
        <ele>116.9</ele>
        <time>2023-04-05T15:04:35Z</time>
      </trkpt>
      <trkpt lat="47.96425" lon="-3.82476">
        <ele>116.9</ele>
        <time>2023-04-05T15:04:36Z</time>
      </trkpt>
      <trkpt lat="47.96425" lon="-3.82477">
        <ele>116.9</ele>
        <time>2023-04-05T15:04:37Z</time>
      </trkpt>
      <trkpt lat="47.96425" lon="-3.82477">
        <ele>116.9</ele>
        <time>2023-04-05T15:04:38Z</time>
      </trkpt>
      <trkpt lat="47.96425" lon="-3.82477">
        <ele>116.9</ele>
        <time>2023-04-05T15:04:39Z</time>
      </trkpt>
      <trkpt lat="47.96425" lon="-3.82478">
        <ele>116.9</ele>
        <time>2023-04-05T15:04:40Z</time>
      </trkpt>
      <trkpt lat="47.96429" lon="-3.82476">
        <ele>116.9</ele>
        <time>2023-04-05T15:04:48Z</time>
      </trkpt>
      <trkpt lat="47.9643" lon="-3.82476">
        <ele>116.9</ele>
        <time>2023-04-05T15:04:49Z</time>
      </trkpt>
      <trkpt lat="47.9643" lon="-3.82476">
        <ele>116.9</ele>
        <time>2023-04-05T15:04:50Z</time>
      </trkpt>
      <trkpt lat="47.9643" lon="-3.82476">
        <ele>116.9</ele>
        <time>2023-04-05T15:04:51Z</time>
      </trkpt>
      <trkpt lat="47.9643" lon="-3.82476">
        <ele>116.9</ele>
        <time>2023-04-05T15:04:52Z</time>
      </trkpt>
      <trkpt lat="47.9643" lon="-3.82476">
        <ele>116.9</ele>
        <time>2023-04-05T15:04:53Z</time>
      </trkpt>
      <trkpt lat="47.9643" lon="-3.82477">
        <ele>116.9</ele>
        <time>2023-04-05T15:04:54Z</time>
      </trkpt>
      <trkpt lat="47.96429" lon="-3.82477">
        <ele>116.9</ele>
        <time>2023-04-05T15:04:55Z</time>
      </trkpt>
      <trkpt lat="47.96428" lon="-3.82477">
        <ele>116.9</ele>
        <time>2023-04-05T15:04:56Z</time>
      </trkpt>
      <trkpt lat="47.96427" lon="-3.82477">
        <ele>116.9</ele>
        <time>2023-04-05T15:04:57Z</time>
      </trkpt>
      <trkpt lat="47.96427" lon="-3.82477">
        <ele>116.9</ele>
        <time>2023-04-05T15:04:58Z</time>
      </trkpt>
      <trkpt lat="47.96427" lon="-3.82477">
        <ele>116.9</ele>
        <time>2023-04-05T15:04:59Z</time>
      </trkpt>
      <trkpt lat="47.96427" lon="-3.82477">
        <ele>116.9</ele>
        <time>2023-04-05T15:05:00Z</time>
      </trkpt>
      <trkpt lat="47.96426" lon="-3.82477">
        <ele>116.9</ele>
        <time>2023-04-05T15:05:01Z</time>
      </trkpt>
      <trkpt lat="47.96426" lon="-3.82477">
        <ele>116.9</ele>
        <time>2023-04-05T15:05:02Z</time>
      </trkpt>
      <trkpt lat="47.96426" lon="-3.82478">
        <ele>116.9</ele>
        <time>2023-04-05T15:05:03Z</time>
      </trkpt>
      <trkpt lat="47.96426" lon="-3.82478">
        <ele>116.9</ele>
        <time>2023-04-05T15:05:04Z</time>
      </trkpt>
      <trkpt lat="47.96426" lon="-3.82478">
        <ele>116.9</ele>
        <time>2023-04-05T15:05:05Z</time>
      </trkpt>
      <trkpt lat="47.96426" lon="-3.82478">
        <ele>116.9</ele>
        <time>2023-04-05T15:05:06Z</time>
      </trkpt>
      <trkpt lat="47.96426" lon="-3.82478">
        <ele>116.9</ele>
        <time>2023-04-05T15:05:07Z</time>
      </trkpt>
      <trkpt lat="47.96426" lon="-3.82478">
        <ele>116.9</ele>
        <time>2023-04-05T15:05:08Z</time>
      </trkpt>
      <trkpt lat="47.96426" lon="-3.82478">
        <ele>116.9</ele>
        <time>2023-04-05T15:05:09Z</time>
      </trkpt>
      <trkpt lat="47.96426" lon="-3.82478">
        <ele>116.9</ele>
        <time>2023-04-05T15:05:10Z</time>
      </trkpt>
      <trkpt lat="47.96426" lon="-3.82478">
        <ele>116.9</ele>
        <time>2023-04-05T15:05:11Z</time>
      </trkpt>
      <trkpt lat="47.96427" lon="-3.82479">
        <ele>116.9</ele>
        <time>2023-04-05T15:05:12Z</time>
      </trkpt>
      <trkpt lat="47.96428" lon="-3.8248">
        <ele>116.9</ele>
        <time>2023-04-05T15:05:13Z</time>
      </trkpt>
      <trkpt lat="47.96428" lon="-3.82481">
        <ele>116.9</ele>
        <time>2023-04-05T15:05:14Z</time>
      </trkpt>
      <trkpt lat="47.9643" lon="-3.82482">
        <ele>116.9</ele>
        <time>2023-04-05T15:05:15Z</time>
      </trkpt>
      <trkpt lat="47.96431" lon="-3.82483">
        <ele>116.9</ele>
        <time>2023-04-05T15:05:16Z</time>
      </trkpt>
      <trkpt lat="47.96431" lon="-3.82482">
        <ele>116.9</ele>
        <time>2023-04-05T15:05:17Z</time>
      </trkpt>
      <trkpt lat="47.96432" lon="-3.82484">
        <ele>116.9</ele>
        <time>2023-04-05T15:05:18Z</time>
      </trkpt>
      <trkpt lat="47.96431" lon="-3.82489">
        <ele>116.9</ele>
        <time>2023-04-05T15:05:19Z</time>
      </trkpt>
      <trkpt lat="47.96431" lon="-3.82491">
        <ele>116.9</ele>
        <time>2023-04-05T15:05:20Z</time>
      </trkpt>
      <trkpt lat="47.96429" lon="-3.82495">
        <ele>116.9</ele>
        <time>2023-04-05T15:05:21Z</time>
      </trkpt>
      <trkpt lat="47.96427" lon="-3.82499">
        <ele>116.9</ele>
        <time>2023-04-05T15:05:22Z</time>
      </trkpt>
      <trkpt lat="47.96424" lon="-3.82501">
        <ele>116.9</ele>
        <time>2023-04-05T15:05:23Z</time>
      </trkpt>
      <trkpt lat="47.96421" lon="-3.82505">
        <ele>116.9</ele>
        <time>2023-04-05T15:05:24Z</time>
      </trkpt>
      <trkpt lat="47.96419" lon="-3.82508">
        <ele>116.9</ele>
        <time>2023-04-05T15:05:25Z</time>
      </trkpt>
      <trkpt lat="47.96417" lon="-3.82512">
        <ele>116.9</ele>
        <time>2023-04-05T15:05:26Z</time>
      </trkpt>
      <trkpt lat="47.96413" lon="-3.82519">
        <ele>116.9</ele>
        <time>2023-04-05T15:05:27Z</time>
      </trkpt>
      <trkpt lat="47.96408" lon="-3.82528">
        <ele>116.9</ele>
        <time>2023-04-05T15:05:29Z</time>
      </trkpt>
      <trkpt lat="47.96402" lon="-3.82537">
        <ele>116.9</ele>
        <time>2023-04-05T15:05:31Z</time>
      </trkpt>
      <trkpt lat="47.96396" lon="-3.82548">
        <ele>117</ele>
        <time>2023-04-05T15:05:33Z</time>
      </trkpt>
      <trkpt lat="47.96391" lon="-3.82558">
        <ele>117</ele>
        <time>2023-04-05T15:05:35Z</time>
      </trkpt>
      <trkpt lat="47.96389" lon="-3.82564">
        <ele>117</ele>
        <time>2023-04-05T15:05:37Z</time>
      </trkpt>
      <trkpt lat="47.96386" lon="-3.8257">
        <ele>117</ele>
        <time>2023-04-05T15:05:38Z</time>
      </trkpt>
      <trkpt lat="47.96383" lon="-3.82574">
        <ele>117</ele>
        <time>2023-04-05T15:05:39Z</time>
      </trkpt>
      <trkpt lat="47.96379" lon="-3.8258">
        <ele>117</ele>
        <time>2023-04-05T15:05:40Z</time>
      </trkpt>
      <trkpt lat="47.96377" lon="-3.82583">
        <ele>117</ele>
        <time>2023-04-05T15:05:41Z</time>
      </trkpt>
      <trkpt lat="47.96374" lon="-3.82588">
        <ele>117</ele>
        <time>2023-04-05T15:05:42Z</time>
      </trkpt>
      <trkpt lat="47.96371" lon="-3.82593">
        <ele>117</ele>
        <time>2023-04-05T15:05:43Z</time>
      </trkpt>
      <trkpt lat="47.96368" lon="-3.82597">
        <ele>117.1</ele>
        <time>2023-04-05T15:05:44Z</time>
      </trkpt>
      <trkpt lat="47.96365" lon="-3.82602">
        <ele>117.1</ele>
        <time>2023-04-05T15:05:45Z</time>
      </trkpt>
      <trkpt lat="47.96363" lon="-3.82609">
        <ele>117.1</ele>
        <time>2023-04-05T15:05:46Z</time>
      </trkpt>
      <trkpt lat="47.9636" lon="-3.82614">
        <ele>117.1</ele>
        <time>2023-04-05T15:05:47Z</time>
      </trkpt>
      <trkpt lat="47.96356" lon="-3.82618">
        <ele>117.1</ele>
        <time>2023-04-05T15:05:48Z</time>
      </trkpt>
      <trkpt lat="47.96353" lon="-3.82623">
        <ele>117.1</ele>
        <time>2023-04-05T15:05:49Z</time>
      </trkpt>
      <trkpt lat="47.9635" lon="-3.82629">
        <ele>117.1</ele>
        <time>2023-04-05T15:05:50Z</time>
      </trkpt>
      <trkpt lat="47.96347" lon="-3.82635">
        <ele>117.1</ele>
        <time>2023-04-05T15:05:51Z</time>
      </trkpt>
      <trkpt lat="47.96344" lon="-3.8264">
        <ele>117.1</ele>
        <time>2023-04-05T15:05:52Z</time>
      </trkpt>
      <trkpt lat="47.96342" lon="-3.82644">
        <ele>117.1</ele>
        <time>2023-04-05T15:05:53Z</time>
      </trkpt>
      <trkpt lat="47.96338" lon="-3.8265">
        <ele>117.1</ele>
        <time>2023-04-05T15:05:54Z</time>
      </trkpt>
      <trkpt lat="47.96335" lon="-3.82654">
        <ele>117.1</ele>
        <time>2023-04-05T15:05:55Z</time>
      </trkpt>
      <trkpt lat="47.96331" lon="-3.82663">
        <ele>117.1</ele>
        <time>2023-04-05T15:05:56Z</time>
      </trkpt>
      <trkpt lat="47.96328" lon="-3.82669">
        <ele>117.1</ele>
        <time>2023-04-05T15:05:57Z</time>
      </trkpt>
      <trkpt lat="47.96325" lon="-3.82674">
        <ele>117.1</ele>
        <time>2023-04-05T15:05:59Z</time>
      </trkpt>
      <trkpt lat="47.96319" lon="-3.82683">
        <ele>117.1</ele>
        <time>2023-04-05T15:06:00Z</time>
      </trkpt>
      <trkpt lat="47.96316" lon="-3.82689">
        <ele>117.1</ele>
        <time>2023-04-05T15:06:02Z</time>
      </trkpt>
      <trkpt lat="47.96313" lon="-3.82694">
        <ele>117.1</ele>
        <time>2023-04-05T15:06:03Z</time>
      </trkpt>
      <trkpt lat="47.9631" lon="-3.82699">
        <ele>117.1</ele>
        <time>2023-04-05T15:06:04Z</time>
      </trkpt>
      <trkpt lat="47.96304" lon="-3.82709">
        <ele>117</ele>
        <time>2023-04-05T15:06:05Z</time>
      </trkpt>
      <trkpt lat="47.96299" lon="-3.82718">
        <ele>117</ele>
        <time>2023-04-05T15:06:07Z</time>
      </trkpt>
      <trkpt lat="47.96296" lon="-3.82722">
        <ele>117</ele>
        <time>2023-04-05T15:06:08Z</time>
      </trkpt>
      <trkpt lat="47.96291" lon="-3.8273">
        <ele>117</ele>
        <time>2023-04-05T15:06:10Z</time>
      </trkpt>
      <trkpt lat="47.96288" lon="-3.82737">
        <ele>117</ele>
        <time>2023-04-05T15:06:11Z</time>
      </trkpt>
      <trkpt lat="47.96286" lon="-3.82741">
        <ele>117</ele>
        <time>2023-04-05T15:06:12Z</time>
      </trkpt>
      <trkpt lat="47.96283" lon="-3.82748">
        <ele>116.9</ele>
        <time>2023-04-05T15:06:13Z</time>
      </trkpt>
      <trkpt lat="47.9628" lon="-3.82753">
        <ele>116.9</ele>
        <time>2023-04-05T15:06:14Z</time>
      </trkpt>
      <trkpt lat="47.96278" lon="-3.82758">
        <ele>116.9</ele>
        <time>2023-04-05T15:06:15Z</time>
      </trkpt>
      <trkpt lat="47.96275" lon="-3.82763">
        <ele>116.9</ele>
        <time>2023-04-05T15:06:16Z</time>
      </trkpt>
      <trkpt lat="47.96272" lon="-3.82768">
        <ele>116.9</ele>
        <time>2023-04-05T15:06:17Z</time>
      </trkpt>
      <trkpt lat="47.96268" lon="-3.82774">
        <ele>116.9</ele>
        <time>2023-04-05T15:06:18Z</time>
      </trkpt>
      <trkpt lat="47.96265" lon="-3.8278">
        <ele>116.9</ele>
        <time>2023-04-05T15:06:19Z</time>
      </trkpt>
      <trkpt lat="47.96261" lon="-3.82785">
        <ele>116.9</ele>
        <time>2023-04-05T15:06:20Z</time>
      </trkpt>
      <trkpt lat="47.96258" lon="-3.8279">
        <ele>116.9</ele>
        <time>2023-04-05T15:06:21Z</time>
      </trkpt>
      <trkpt lat="47.96256" lon="-3.82794">
        <ele>116.9</ele>
        <time>2023-04-05T15:06:22Z</time>
      </trkpt>
      <trkpt lat="47.96252" lon="-3.828">
        <ele>116.9</ele>
        <time>2023-04-05T15:06:23Z</time>
      </trkpt>
      <trkpt lat="47.96248" lon="-3.82805">
        <ele>116.9</ele>
        <time>2023-04-05T15:06:24Z</time>
      </trkpt>
      <trkpt lat="47.96245" lon="-3.82811">
        <ele>116.9</ele>
        <time>2023-04-05T15:06:25Z</time>
      </trkpt>
      <trkpt lat="47.96242" lon="-3.82816">
        <ele>116.9</ele>
        <time>2023-04-05T15:06:26Z</time>
      </trkpt>
      <trkpt lat="47.96238" lon="-3.82822">
        <ele>116.9</ele>
        <time>2023-04-05T15:06:27Z</time>
      </trkpt>
      <trkpt lat="47.96235" lon="-3.82828">
        <ele>116.9</ele>
        <time>2023-04-05T15:06:28Z</time>
      </trkpt>
      <trkpt lat="47.96232" lon="-3.82833">
        <ele>116.9</ele>
        <time>2023-04-05T15:06:29Z</time>
      </trkpt>
      <trkpt lat="47.96228" lon="-3.82838">
        <ele>116.9</ele>
        <time>2023-04-05T15:06:30Z</time>
      </trkpt>
      <trkpt lat="47.96225" lon="-3.82843">
        <ele>116.9</ele>
        <time>2023-04-05T15:06:31Z</time>
      </trkpt>
      <trkpt lat="47.96221" lon="-3.82847">
        <ele>116.9</ele>
        <time>2023-04-05T15:06:32Z</time>
      </trkpt>
      <trkpt lat="47.9622" lon="-3.82852">
        <ele>116.9</ele>
        <time>2023-04-05T15:06:33Z</time>
      </trkpt>
      <trkpt lat="47.96216" lon="-3.82858">
        <ele>116.9</ele>
        <time>2023-04-05T15:06:34Z</time>
      </trkpt>
      <trkpt lat="47.96213" lon="-3.82864">
        <ele>116.9</ele>
        <time>2023-04-05T15:06:35Z</time>
      </trkpt>
      <trkpt lat="47.96211" lon="-3.82868">
        <ele>116.9</ele>
        <time>2023-04-05T15:06:36Z</time>
      </trkpt>
      <trkpt lat="47.96206" lon="-3.82875">
        <ele>116.9</ele>
        <time>2023-04-05T15:06:37Z</time>
      </trkpt>
      <trkpt lat="47.96202" lon="-3.8288">
        <ele>116.9</ele>
        <time>2023-04-05T15:06:38Z</time>
      </trkpt>
      <trkpt lat="47.962" lon="-3.82885">
        <ele>116.9</ele>
        <time>2023-04-05T15:06:40Z</time>
      </trkpt>
      <trkpt lat="47.96198" lon="-3.8289">
        <ele>116.9</ele>
        <time>2023-04-05T15:06:41Z</time>
      </trkpt>
      <trkpt lat="47.96193" lon="-3.82895">
        <ele>116.9</ele>
        <time>2023-04-05T15:06:42Z</time>
      </trkpt>
      <trkpt lat="47.9619" lon="-3.829">
        <ele>117</ele>
        <time>2023-04-05T15:06:43Z</time>
      </trkpt>
      <trkpt lat="47.96187" lon="-3.82905">
        <ele>117</ele>
        <time>2023-04-05T15:06:44Z</time>
      </trkpt>
      <trkpt lat="47.96186" lon="-3.82909">
        <ele>117</ele>
        <time>2023-04-05T15:06:45Z</time>
      </trkpt>
      <trkpt lat="47.96186" lon="-3.82913">
        <ele>117</ele>
        <time>2023-04-05T15:06:46Z</time>
      </trkpt>
      <trkpt lat="47.96183" lon="-3.82919">
        <ele>117.1</ele>
        <time>2023-04-05T15:06:47Z</time>
      </trkpt>
      <trkpt lat="47.9618" lon="-3.82923">
        <ele>117.1</ele>
        <time>2023-04-05T15:06:48Z</time>
      </trkpt>
      <trkpt lat="47.96178" lon="-3.82926">
        <ele>117.1</ele>
        <time>2023-04-05T15:06:49Z</time>
      </trkpt>
      <trkpt lat="47.96175" lon="-3.82928">
        <ele>117.1</ele>
        <time>2023-04-05T15:06:50Z</time>
      </trkpt>
      <trkpt lat="47.96172" lon="-3.8293">
        <ele>117.2</ele>
        <time>2023-04-05T15:06:51Z</time>
      </trkpt>
      <trkpt lat="47.96169" lon="-3.82935">
        <ele>117.2</ele>
        <time>2023-04-05T15:06:52Z</time>
      </trkpt>
      <trkpt lat="47.96167" lon="-3.8294">
        <ele>117.3</ele>
        <time>2023-04-05T15:06:53Z</time>
      </trkpt>
      <trkpt lat="47.96167" lon="-3.82945">
        <ele>117.3</ele>
        <time>2023-04-05T15:06:54Z</time>
      </trkpt>
      <trkpt lat="47.96167" lon="-3.8295">
        <ele>117.3</ele>
        <time>2023-04-05T15:06:55Z</time>
      </trkpt>
      <trkpt lat="47.96166" lon="-3.82955">
        <ele>117.3</ele>
        <time>2023-04-05T15:06:56Z</time>
      </trkpt>
      <trkpt lat="47.96166" lon="-3.82961">
        <ele>117.3</ele>
        <time>2023-04-05T15:06:57Z</time>
      </trkpt>
      <trkpt lat="47.96166" lon="-3.82966">
        <ele>117.3</ele>
        <time>2023-04-05T15:06:58Z</time>
      </trkpt>
      <trkpt lat="47.96166" lon="-3.8297">
        <ele>117.2</ele>
        <time>2023-04-05T15:06:59Z</time>
      </trkpt>
      <trkpt lat="47.96165" lon="-3.82974">
        <ele>117.2</ele>
        <time>2023-04-05T15:07:00Z</time>
      </trkpt>
      <trkpt lat="47.96164" lon="-3.82975">
        <ele>117.2</ele>
        <time>2023-04-05T15:07:01Z</time>
      </trkpt>
      <trkpt lat="47.96162" lon="-3.82979">
        <ele>117.2</ele>
        <time>2023-04-05T15:07:02Z</time>
      </trkpt>
      <trkpt lat="47.96159" lon="-3.82981">
        <ele>117.2</ele>
        <time>2023-04-05T15:07:03Z</time>
      </trkpt>
      <trkpt lat="47.96155" lon="-3.82983">
        <ele>117.2</ele>
        <time>2023-04-05T15:07:04Z</time>
      </trkpt>
      <trkpt lat="47.96151" lon="-3.82984">
        <ele>117.2</ele>
        <time>2023-04-05T15:07:05Z</time>
      </trkpt>
      <trkpt lat="47.96147" lon="-3.82984">
        <ele>117.2</ele>
        <time>2023-04-05T15:07:06Z</time>
      </trkpt>
      <trkpt lat="47.96142" lon="-3.82983">
        <ele>117.2</ele>
        <time>2023-04-05T15:07:07Z</time>
      </trkpt>
      <trkpt lat="47.96138" lon="-3.82981">
        <ele>117.2</ele>
        <time>2023-04-05T15:07:08Z</time>
      </trkpt>
      <trkpt lat="47.96134" lon="-3.82979">
        <ele>117.2</ele>
        <time>2023-04-05T15:07:09Z</time>
      </trkpt>
      <trkpt lat="47.96129" lon="-3.82971">
        <ele>117.2</ele>
        <time>2023-04-05T15:07:10Z</time>
      </trkpt>
      <trkpt lat="47.96124" lon="-3.82967">
        <ele>117.3</ele>
        <time>2023-04-05T15:07:11Z</time>
      </trkpt>
      <trkpt lat="47.96119" lon="-3.82963">
        <ele>117.3</ele>
        <time>2023-04-05T15:07:12Z</time>
      </trkpt>
      <trkpt lat="47.96115" lon="-3.82958">
        <ele>117.3</ele>
        <time>2023-04-05T15:07:13Z</time>
      </trkpt>
      <trkpt lat="47.9611" lon="-3.82954">
        <ele>117.4</ele>
        <time>2023-04-05T15:07:14Z</time>
      </trkpt>
      <trkpt lat="47.96105" lon="-3.8295">
        <ele>117.4</ele>
        <time>2023-04-05T15:07:15Z</time>
      </trkpt>
      <trkpt lat="47.961" lon="-3.82947">
        <ele>117.4</ele>
        <time>2023-04-05T15:07:16Z</time>
      </trkpt>
      <trkpt lat="47.96095" lon="-3.82945">
        <ele>117.5</ele>
        <time>2023-04-05T15:07:17Z</time>
      </trkpt>
      <trkpt lat="47.9609" lon="-3.82942">
        <ele>117.6</ele>
        <time>2023-04-05T15:07:18Z</time>
      </trkpt>
      <trkpt lat="47.96085" lon="-3.82941">
        <ele>117.7</ele>
        <time>2023-04-05T15:07:19Z</time>
      </trkpt>
      <trkpt lat="47.9608" lon="-3.8294">
        <ele>117.8</ele>
        <time>2023-04-05T15:07:20Z</time>
      </trkpt>
      <trkpt lat="47.96075" lon="-3.82939">
        <ele>118</ele>
        <time>2023-04-05T15:07:21Z</time>
      </trkpt>
      <trkpt lat="47.9607" lon="-3.82938">
        <ele>118.1</ele>
        <time>2023-04-05T15:07:22Z</time>
      </trkpt>
      <trkpt lat="47.96066" lon="-3.82937">
        <ele>118.2</ele>
        <time>2023-04-05T15:07:23Z</time>
      </trkpt>
      <trkpt lat="47.96061" lon="-3.82937">
        <ele>118.3</ele>
        <time>2023-04-05T15:07:24Z</time>
      </trkpt>
      <trkpt lat="47.96057" lon="-3.82936">
        <ele>118.4</ele>
        <time>2023-04-05T15:07:25Z</time>
      </trkpt>
      <trkpt lat="47.96052" lon="-3.82935">
        <ele>118.5</ele>
        <time>2023-04-05T15:07:26Z</time>
      </trkpt>
      <trkpt lat="47.96048" lon="-3.82935">
        <ele>118.6</ele>
        <time>2023-04-05T15:07:27Z</time>
      </trkpt>
      <trkpt lat="47.96045" lon="-3.82934">
        <ele>118.7</ele>
        <time>2023-04-05T15:07:28Z</time>
      </trkpt>
      <trkpt lat="47.9604" lon="-3.82933">
        <ele>118.8</ele>
        <time>2023-04-05T15:07:29Z</time>
      </trkpt>
      <trkpt lat="47.96035" lon="-3.82933">
        <ele>118.9</ele>
        <time>2023-04-05T15:07:30Z</time>
      </trkpt>
      <trkpt lat="47.96032" lon="-3.82933">
        <ele>118.9</ele>
        <time>2023-04-05T15:07:31Z</time>
      </trkpt>
      <trkpt lat="47.96028" lon="-3.82931">
        <ele>119</ele>
        <time>2023-04-05T15:07:32Z</time>
      </trkpt>
      <trkpt lat="47.96015" lon="-3.82925">
        <ele>119.3</ele>
        <time>2023-04-05T15:07:34Z</time>
      </trkpt>
      <trkpt lat="47.96012" lon="-3.82925">
        <ele>119.3</ele>
        <time>2023-04-05T15:07:35Z</time>
      </trkpt>
      <trkpt lat="47.9601" lon="-3.82926">
        <ele>119.3</ele>
        <time>2023-04-05T15:07:36Z</time>
      </trkpt>
      <trkpt lat="47.96006" lon="-3.8293">
        <ele>119.4</ele>
        <time>2023-04-05T15:07:37Z</time>
      </trkpt>
      <trkpt lat="47.96002" lon="-3.8293">
        <ele>119.4</ele>
        <time>2023-04-05T15:07:38Z</time>
      </trkpt>
      <trkpt lat="47.95997" lon="-3.8293">
        <ele>119.4</ele>
        <time>2023-04-05T15:07:39Z</time>
      </trkpt>
      <trkpt lat="47.95993" lon="-3.82928">
        <ele>119.4</ele>
        <time>2023-04-05T15:07:40Z</time>
      </trkpt>
      <trkpt lat="47.95988" lon="-3.82927">
        <ele>119.5</ele>
        <time>2023-04-05T15:07:41Z</time>
      </trkpt>
      <trkpt lat="47.95984" lon="-3.82926">
        <ele>119.5</ele>
        <time>2023-04-05T15:07:42Z</time>
      </trkpt>
      <trkpt lat="47.9598" lon="-3.82925">
        <ele>119.5</ele>
        <time>2023-04-05T15:07:43Z</time>
      </trkpt>
      <trkpt lat="47.95975" lon="-3.82923">
        <ele>119.5</ele>
        <time>2023-04-05T15:07:44Z</time>
      </trkpt>
      <trkpt lat="47.95971" lon="-3.82922">
        <ele>119.5</ele>
        <time>2023-04-05T15:07:45Z</time>
      </trkpt>
      <trkpt lat="47.95967" lon="-3.82922">
        <ele>119.5</ele>
        <time>2023-04-05T15:07:46Z</time>
      </trkpt>
      <trkpt lat="47.95962" lon="-3.82922">
        <ele>119.5</ele>
        <time>2023-04-05T15:07:47Z</time>
      </trkpt>
      <trkpt lat="47.95957" lon="-3.82921">
        <ele>119.5</ele>
        <time>2023-04-05T15:07:48Z</time>
      </trkpt>
      <trkpt lat="47.95952" lon="-3.8292">
        <ele>119.5</ele>
        <time>2023-04-05T15:07:49Z</time>
      </trkpt>
      <trkpt lat="47.95947" lon="-3.82918">
        <ele>119.4</ele>
        <time>2023-04-05T15:07:50Z</time>
      </trkpt>
      <trkpt lat="47.95942" lon="-3.82916">
        <ele>119.4</ele>
        <time>2023-04-05T15:07:51Z</time>
      </trkpt>
      <trkpt lat="47.95938" lon="-3.82915">
        <ele>119.3</ele>
        <time>2023-04-05T15:07:52Z</time>
      </trkpt>
      <trkpt lat="47.95934" lon="-3.82916">
        <ele>119.2</ele>
        <time>2023-04-05T15:07:54Z</time>
      </trkpt>
      <trkpt lat="47.95932" lon="-3.82919">
        <ele>119.1</ele>
        <time>2023-04-05T15:07:55Z</time>
      </trkpt>
      <trkpt lat="47.9593" lon="-3.82923">
        <ele>119.1</ele>
        <time>2023-04-05T15:07:56Z</time>
      </trkpt>
      <trkpt lat="47.95929" lon="-3.82928">
        <ele>119</ele>
        <time>2023-04-05T15:07:57Z</time>
      </trkpt>
      <trkpt lat="47.95928" lon="-3.82934">
        <ele>118.9</ele>
        <time>2023-04-05T15:07:58Z</time>
      </trkpt>
      <trkpt lat="47.95926" lon="-3.82941">
        <ele>118.8</ele>
        <time>2023-04-05T15:07:59Z</time>
      </trkpt>
      <trkpt lat="47.95924" lon="-3.82954">
        <ele>118.6</ele>
        <time>2023-04-05T15:08:00Z</time>
      </trkpt>
      <trkpt lat="47.95923" lon="-3.82962">
        <ele>118.4</ele>
        <time>2023-04-05T15:08:02Z</time>
      </trkpt>
      <trkpt lat="47.95921" lon="-3.82969">
        <ele>118.3</ele>
        <time>2023-04-05T15:08:03Z</time>
      </trkpt>
      <trkpt lat="47.95919" lon="-3.82973">
        <ele>118.3</ele>
        <time>2023-04-05T15:08:04Z</time>
      </trkpt>
      <trkpt lat="47.95913" lon="-3.82975">
        <ele>118.1</ele>
        <time>2023-04-05T15:08:05Z</time>
      </trkpt>
      <trkpt lat="47.95909" lon="-3.82972">
        <ele>118.1</ele>
        <time>2023-04-05T15:08:07Z</time>
      </trkpt>
      <trkpt lat="47.95907" lon="-3.8297">
        <ele>118.1</ele>
        <time>2023-04-05T15:08:08Z</time>
      </trkpt>
      <trkpt lat="47.95903" lon="-3.82971">
        <ele>118.1</ele>
        <time>2023-04-05T15:08:09Z</time>
      </trkpt>
      <trkpt lat="47.95902" lon="-3.82972">
        <ele>118.2</ele>
        <time>2023-04-05T15:08:10Z</time>
      </trkpt>
      <trkpt lat="47.959" lon="-3.82974">
        <ele>118.2</ele>
        <time>2023-04-05T15:08:11Z</time>
      </trkpt>
      <trkpt lat="47.95897" lon="-3.82978">
        <ele>118.2</ele>
        <time>2023-04-05T15:08:12Z</time>
      </trkpt>
      <trkpt lat="47.95895" lon="-3.82983">
        <ele>118.3</ele>
        <time>2023-04-05T15:08:13Z</time>
      </trkpt>
      <trkpt lat="47.95893" lon="-3.82989">
        <ele>118.3</ele>
        <time>2023-04-05T15:08:14Z</time>
      </trkpt>
      <trkpt lat="47.9589" lon="-3.82993">
        <ele>118.3</ele>
        <time>2023-04-05T15:08:15Z</time>
      </trkpt>
      <trkpt lat="47.95888" lon="-3.82997">
        <ele>118.4</ele>
        <time>2023-04-05T15:08:16Z</time>
      </trkpt>
      <trkpt lat="47.95886" lon="-3.83003">
        <ele>118.5</ele>
        <time>2023-04-05T15:08:17Z</time>
      </trkpt>
      <trkpt lat="47.95885" lon="-3.83009">
        <ele>118.5</ele>
        <time>2023-04-05T15:08:18Z</time>
      </trkpt>
      <trkpt lat="47.95885" lon="-3.83016">
        <ele>118.5</ele>
        <time>2023-04-05T15:08:19Z</time>
      </trkpt>
      <trkpt lat="47.95886" lon="-3.83023">
        <ele>118.6</ele>
        <time>2023-04-05T15:08:20Z</time>
      </trkpt>
      <trkpt lat="47.95886" lon="-3.83029">
        <ele>118.7</ele>
        <time>2023-04-05T15:08:21Z</time>
      </trkpt>
      <trkpt lat="47.95887" lon="-3.83035">
        <ele>118.7</ele>
        <time>2023-04-05T15:08:22Z</time>
      </trkpt>
      <trkpt lat="47.95887" lon="-3.83041">
        <ele>118.8</ele>
        <time>2023-04-05T15:08:23Z</time>
      </trkpt>
      <trkpt lat="47.95887" lon="-3.83046">
        <ele>118.9</ele>
        <time>2023-04-05T15:08:24Z</time>
      </trkpt>
      <trkpt lat="47.95889" lon="-3.83053">
        <ele>119</ele>
        <time>2023-04-05T15:08:25Z</time>
      </trkpt>
      <trkpt lat="47.95891" lon="-3.83059">
        <ele>119.1</ele>
        <time>2023-04-05T15:08:26Z</time>
      </trkpt>
      <trkpt lat="47.95892" lon="-3.83064">
        <ele>119.2</ele>
        <time>2023-04-05T15:08:27Z</time>
      </trkpt>
      <trkpt lat="47.95893" lon="-3.8307">
        <ele>119.3</ele>
        <time>2023-04-05T15:08:28Z</time>
      </trkpt>
      <trkpt lat="47.95894" lon="-3.83076">
        <ele>119.4</ele>
        <time>2023-04-05T15:08:29Z</time>
      </trkpt>
      <trkpt lat="47.95895" lon="-3.83081">
        <ele>119.6</ele>
        <time>2023-04-05T15:08:30Z</time>
      </trkpt>
      <trkpt lat="47.95895" lon="-3.83087">
        <ele>119.7</ele>
        <time>2023-04-05T15:08:31Z</time>
      </trkpt>
      <trkpt lat="47.95896" lon="-3.83092">
        <ele>119.8</ele>
        <time>2023-04-05T15:08:32Z</time>
      </trkpt>
      <trkpt lat="47.95896" lon="-3.83098">
        <ele>120</ele>
        <time>2023-04-05T15:08:33Z</time>
      </trkpt>
      <trkpt lat="47.95897" lon="-3.83103">
        <ele>120.1</ele>
        <time>2023-04-05T15:08:34Z</time>
      </trkpt>
      <trkpt lat="47.95897" lon="-3.83109">
        <ele>120.2</ele>
        <time>2023-04-05T15:08:35Z</time>
      </trkpt>
      <trkpt lat="47.95898" lon="-3.83115">
        <ele>120.4</ele>
        <time>2023-04-05T15:08:36Z</time>
      </trkpt>
      <trkpt lat="47.95899" lon="-3.8312">
        <ele>120.5</ele>
        <time>2023-04-05T15:08:37Z</time>
      </trkpt>
      <trkpt lat="47.95899" lon="-3.83126">
        <ele>120.6</ele>
        <time>2023-04-05T15:08:38Z</time>
      </trkpt>
      <trkpt lat="47.959" lon="-3.83131">
        <ele>120.7</ele>
        <time>2023-04-05T15:08:39Z</time>
      </trkpt>
      <trkpt lat="47.959" lon="-3.83135">
        <ele>120.8</ele>
        <time>2023-04-05T15:08:40Z</time>
      </trkpt>
      <trkpt lat="47.95901" lon="-3.8314">
        <ele>120.9</ele>
        <time>2023-04-05T15:08:41Z</time>
      </trkpt>
      <trkpt lat="47.95901" lon="-3.83146">
        <ele>121.1</ele>
        <time>2023-04-05T15:08:42Z</time>
      </trkpt>
      <trkpt lat="47.959" lon="-3.83152">
        <ele>121.2</ele>
        <time>2023-04-05T15:08:43Z</time>
      </trkpt>
      <trkpt lat="47.959" lon="-3.83155">
        <ele>121.2</ele>
        <time>2023-04-05T15:08:44Z</time>
      </trkpt>
      <trkpt lat="47.95899" lon="-3.83159">
        <ele>121.4</ele>
        <time>2023-04-05T15:08:45Z</time>
      </trkpt>
      <trkpt lat="47.95896" lon="-3.83163">
        <ele>121.6</ele>
        <time>2023-04-05T15:08:46Z</time>
      </trkpt>
      <trkpt lat="47.95894" lon="-3.83167">
        <ele>121.7</ele>
        <time>2023-04-05T15:08:47Z</time>
      </trkpt>
      <trkpt lat="47.95892" lon="-3.83171">
        <ele>121.9</ele>
        <time>2023-04-05T15:08:48Z</time>
      </trkpt>
      <trkpt lat="47.9589" lon="-3.83175">
        <ele>122.1</ele>
        <time>2023-04-05T15:08:49Z</time>
      </trkpt>
      <trkpt lat="47.95889" lon="-3.8318">
        <ele>122.3</ele>
        <time>2023-04-05T15:08:50Z</time>
      </trkpt>
      <trkpt lat="47.95888" lon="-3.83184">
        <ele>122.5</ele>
        <time>2023-04-05T15:08:51Z</time>
      </trkpt>
      <trkpt lat="47.95888" lon="-3.83189">
        <ele>122.6</ele>
        <time>2023-04-05T15:08:52Z</time>
      </trkpt>
      <trkpt lat="47.95888" lon="-3.83194">
        <ele>122.8</ele>
        <time>2023-04-05T15:08:53Z</time>
      </trkpt>
      <trkpt lat="47.95888" lon="-3.83199">
        <ele>123</ele>
        <time>2023-04-05T15:08:54Z</time>
      </trkpt>
      <trkpt lat="47.95887" lon="-3.83203">
        <ele>123.2</ele>
        <time>2023-04-05T15:08:55Z</time>
      </trkpt>
      <trkpt lat="47.95887" lon="-3.83208">
        <ele>123.4</ele>
        <time>2023-04-05T15:08:56Z</time>
      </trkpt>
      <trkpt lat="47.95888" lon="-3.83213">
        <ele>123.6</ele>
        <time>2023-04-05T15:08:57Z</time>
      </trkpt>
      <trkpt lat="47.95888" lon="-3.83218">
        <ele>123.8</ele>
        <time>2023-04-05T15:08:58Z</time>
      </trkpt>
      <trkpt lat="47.95888" lon="-3.83223">
        <ele>124</ele>
        <time>2023-04-05T15:08:59Z</time>
      </trkpt>
      <trkpt lat="47.95888" lon="-3.83227">
        <ele>124.2</ele>
        <time>2023-04-05T15:09:00Z</time>
      </trkpt>
      <trkpt lat="47.95888" lon="-3.83232">
        <ele>124.4</ele>
        <time>2023-04-05T15:09:01Z</time>
      </trkpt>
      <trkpt lat="47.95889" lon="-3.83237">
        <ele>124.7</ele>
        <time>2023-04-05T15:09:02Z</time>
      </trkpt>
      <trkpt lat="47.95889" lon="-3.83242">
        <ele>124.9</ele>
        <time>2023-04-05T15:09:03Z</time>
      </trkpt>
      <trkpt lat="47.9589" lon="-3.83246">
        <ele>125.1</ele>
        <time>2023-04-05T15:09:04Z</time>
      </trkpt>
      <trkpt lat="47.95891" lon="-3.83251">
        <ele>125.3</ele>
        <time>2023-04-05T15:09:05Z</time>
      </trkpt>
      <trkpt lat="47.95891" lon="-3.83255">
        <ele>125.5</ele>
        <time>2023-04-05T15:09:06Z</time>
      </trkpt>
      <trkpt lat="47.95892" lon="-3.83259">
        <ele>125.7</ele>
        <time>2023-04-05T15:09:07Z</time>
      </trkpt>
      <trkpt lat="47.95892" lon="-3.83264">
        <ele>125.9</ele>
        <time>2023-04-05T15:09:08Z</time>
      </trkpt>
      <trkpt lat="47.95892" lon="-3.83268">
        <ele>126.1</ele>
        <time>2023-04-05T15:09:09Z</time>
      </trkpt>
      <trkpt lat="47.95893" lon="-3.83273">
        <ele>126.2</ele>
        <time>2023-04-05T15:09:10Z</time>
      </trkpt>
      <trkpt lat="47.95893" lon="-3.83277">
        <ele>126.4</ele>
        <time>2023-04-05T15:09:11Z</time>
      </trkpt>
      <trkpt lat="47.95893" lon="-3.83282">
        <ele>126.6</ele>
        <time>2023-04-05T15:09:12Z</time>
      </trkpt>
      <trkpt lat="47.95894" lon="-3.83286">
        <ele>126.8</ele>
        <time>2023-04-05T15:09:13Z</time>
      </trkpt>
      <trkpt lat="47.95894" lon="-3.83291">
        <ele>127</ele>
        <time>2023-04-05T15:09:14Z</time>
      </trkpt>
      <trkpt lat="47.95894" lon="-3.83296">
        <ele>127.2</ele>
        <time>2023-04-05T15:09:15Z</time>
      </trkpt>
      <trkpt lat="47.95894" lon="-3.83301">
        <ele>127.4</ele>
        <time>2023-04-05T15:09:16Z</time>
      </trkpt>
      <trkpt lat="47.95895" lon="-3.83305">
        <ele>127.6</ele>
        <time>2023-04-05T15:09:17Z</time>
      </trkpt>
      <trkpt lat="47.95895" lon="-3.8331">
        <ele>127.7</ele>
        <time>2023-04-05T15:09:18Z</time>
      </trkpt>
      <trkpt lat="47.95895" lon="-3.83314">
        <ele>127.9</ele>
        <time>2023-04-05T15:09:19Z</time>
      </trkpt>
      <trkpt lat="47.95896" lon="-3.83319">
        <ele>128.1</ele>
        <time>2023-04-05T15:09:20Z</time>
      </trkpt>
      <trkpt lat="47.95896" lon="-3.83324">
        <ele>128.2</ele>
        <time>2023-04-05T15:09:21Z</time>
      </trkpt>
      <trkpt lat="47.95896" lon="-3.8333">
        <ele>128.5</ele>
        <time>2023-04-05T15:09:22Z</time>
      </trkpt>
      <trkpt lat="47.95896" lon="-3.83333">
        <ele>128.6</ele>
        <time>2023-04-05T15:09:23Z</time>
      </trkpt>
      <trkpt lat="47.95896" lon="-3.83339">
        <ele>128.8</ele>
        <time>2023-04-05T15:09:24Z</time>
      </trkpt>
      <trkpt lat="47.95896" lon="-3.83344">
        <ele>129</ele>
        <time>2023-04-05T15:09:25Z</time>
      </trkpt>
      <trkpt lat="47.95896" lon="-3.83348">
        <ele>129.1</ele>
        <time>2023-04-05T15:09:26Z</time>
      </trkpt>
      <trkpt lat="47.95896" lon="-3.83353">
        <ele>129.3</ele>
        <time>2023-04-05T15:09:27Z</time>
      </trkpt>
      <trkpt lat="47.95896" lon="-3.83358">
        <ele>129.5</ele>
        <time>2023-04-05T15:09:28Z</time>
      </trkpt>
      <trkpt lat="47.95897" lon="-3.83363">
        <ele>129.6</ele>
        <time>2023-04-05T15:09:29Z</time>
      </trkpt>
      <trkpt lat="47.95897" lon="-3.83368">
        <ele>129.8</ele>
        <time>2023-04-05T15:09:30Z</time>
      </trkpt>
      <trkpt lat="47.95898" lon="-3.83372">
        <ele>129.9</ele>
        <time>2023-04-05T15:09:31Z</time>
      </trkpt>
      <trkpt lat="47.95899" lon="-3.83377">
        <ele>130.1</ele>
        <time>2023-04-05T15:09:32Z</time>
      </trkpt>
      <trkpt lat="47.95899" lon="-3.83382">
        <ele>130.3</ele>
        <time>2023-04-05T15:09:33Z</time>
      </trkpt>
      <trkpt lat="47.959" lon="-3.83387">
        <ele>130.4</ele>
        <time>2023-04-05T15:09:34Z</time>
      </trkpt>
      <trkpt lat="47.959" lon="-3.83392">
        <ele>130.6</ele>
        <time>2023-04-05T15:09:35Z</time>
      </trkpt>
      <trkpt lat="47.959" lon="-3.83397">
        <ele>130.7</ele>
        <time>2023-04-05T15:09:36Z</time>
      </trkpt>
      <trkpt lat="47.959" lon="-3.83402">
        <ele>130.9</ele>
        <time>2023-04-05T15:09:37Z</time>
      </trkpt>
      <trkpt lat="47.959" lon="-3.83407">
        <ele>131</ele>
        <time>2023-04-05T15:09:38Z</time>
      </trkpt>
      <trkpt lat="47.959" lon="-3.83411">
        <ele>131.2</ele>
        <time>2023-04-05T15:09:39Z</time>
      </trkpt>
      <trkpt lat="47.959" lon="-3.83416">
        <ele>131.3</ele>
        <time>2023-04-05T15:09:40Z</time>
      </trkpt>
      <trkpt lat="47.959" lon="-3.83421">
        <ele>131.5</ele>
        <time>2023-04-05T15:09:41Z</time>
      </trkpt>
      <trkpt lat="47.959" lon="-3.83425">
        <ele>131.6</ele>
        <time>2023-04-05T15:09:42Z</time>
      </trkpt>
      <trkpt lat="47.959" lon="-3.83431">
        <ele>131.8</ele>
        <time>2023-04-05T15:09:43Z</time>
      </trkpt>
      <trkpt lat="47.959" lon="-3.83435">
        <ele>131.9</ele>
        <time>2023-04-05T15:09:44Z</time>
      </trkpt>
      <trkpt lat="47.959" lon="-3.8344">
        <ele>132.1</ele>
        <time>2023-04-05T15:09:45Z</time>
      </trkpt>
      <trkpt lat="47.95899" lon="-3.83444">
        <ele>132.2</ele>
        <time>2023-04-05T15:09:46Z</time>
      </trkpt>
      <trkpt lat="47.95899" lon="-3.8345">
        <ele>132.4</ele>
        <time>2023-04-05T15:09:47Z</time>
      </trkpt>
      <trkpt lat="47.959" lon="-3.83455">
        <ele>132.5</ele>
        <time>2023-04-05T15:09:48Z</time>
      </trkpt>
      <trkpt lat="47.959" lon="-3.83459">
        <ele>132.7</ele>
        <time>2023-04-05T15:09:49Z</time>
      </trkpt>
      <trkpt lat="47.959" lon="-3.83465">
        <ele>132.8</ele>
        <time>2023-04-05T15:09:50Z</time>
      </trkpt>
      <trkpt lat="47.959" lon="-3.8347">
        <ele>133</ele>
        <time>2023-04-05T15:09:51Z</time>
      </trkpt>
      <trkpt lat="47.959" lon="-3.83475">
        <ele>133.1</ele>
        <time>2023-04-05T15:09:52Z</time>
      </trkpt>
      <trkpt lat="47.959" lon="-3.8348">
        <ele>133.2</ele>
        <time>2023-04-05T15:09:53Z</time>
      </trkpt>
      <trkpt lat="47.959" lon="-3.83485">
        <ele>133.3</ele>
        <time>2023-04-05T15:09:54Z</time>
      </trkpt>
      <trkpt lat="47.95899" lon="-3.83489">
        <ele>133.3</ele>
        <time>2023-04-05T15:09:55Z</time>
      </trkpt>
      <trkpt lat="47.95899" lon="-3.83495">
        <ele>133.5</ele>
        <time>2023-04-05T15:09:56Z</time>
      </trkpt>
      <trkpt lat="47.95898" lon="-3.835">
        <ele>133.6</ele>
        <time>2023-04-05T15:09:57Z</time>
      </trkpt>
      <trkpt lat="47.95899" lon="-3.83505">
        <ele>133.7</ele>
        <time>2023-04-05T15:09:58Z</time>
      </trkpt>
      <trkpt lat="47.95899" lon="-3.8351">
        <ele>133.8</ele>
        <time>2023-04-05T15:09:59Z</time>
      </trkpt>
      <trkpt lat="47.95898" lon="-3.83515">
        <ele>133.9</ele>
        <time>2023-04-05T15:10:00Z</time>
      </trkpt>
      <trkpt lat="47.95898" lon="-3.8352">
        <ele>134</ele>
        <time>2023-04-05T15:10:01Z</time>
      </trkpt>
      <trkpt lat="47.95898" lon="-3.83525">
        <ele>134.1</ele>
        <time>2023-04-05T15:10:02Z</time>
      </trkpt>
      <trkpt lat="47.95898" lon="-3.83531">
        <ele>134.2</ele>
        <time>2023-04-05T15:10:03Z</time>
      </trkpt>
      <trkpt lat="47.95898" lon="-3.83534">
        <ele>134.3</ele>
        <time>2023-04-05T15:10:04Z</time>
      </trkpt>
      <trkpt lat="47.95898" lon="-3.83539">
        <ele>134.4</ele>
        <time>2023-04-05T15:10:05Z</time>
      </trkpt>
      <trkpt lat="47.95898" lon="-3.83543">
        <ele>134.4</ele>
        <time>2023-04-05T15:10:06Z</time>
      </trkpt>
      <trkpt lat="47.95898" lon="-3.83552">
        <ele>134.6</ele>
        <time>2023-04-05T15:10:08Z</time>
      </trkpt>
      <trkpt lat="47.95899" lon="-3.83557">
        <ele>134.7</ele>
        <time>2023-04-05T15:10:09Z</time>
      </trkpt>
      <trkpt lat="47.95899" lon="-3.83562">
        <ele>134.8</ele>
        <time>2023-04-05T15:10:10Z</time>
      </trkpt>
      <trkpt lat="47.95899" lon="-3.83567">
        <ele>134.8</ele>
        <time>2023-04-05T15:10:11Z</time>
      </trkpt>
      <trkpt lat="47.95899" lon="-3.83572">
        <ele>134.9</ele>
        <time>2023-04-05T15:10:12Z</time>
      </trkpt>
      <trkpt lat="47.95899" lon="-3.83577">
        <ele>135</ele>
        <time>2023-04-05T15:10:13Z</time>
      </trkpt>
      <trkpt lat="47.95899" lon="-3.83582">
        <ele>135.1</ele>
        <time>2023-04-05T15:10:14Z</time>
      </trkpt>
      <trkpt lat="47.95898" lon="-3.83587">
        <ele>135.2</ele>
        <time>2023-04-05T15:10:15Z</time>
      </trkpt>
      <trkpt lat="47.95898" lon="-3.83592">
        <ele>135.2</ele>
        <time>2023-04-05T15:10:16Z</time>
      </trkpt>
      <trkpt lat="47.95898" lon="-3.83597">
        <ele>135.3</ele>
        <time>2023-04-05T15:10:17Z</time>
      </trkpt>
      <trkpt lat="47.95898" lon="-3.83602">
        <ele>135.4</ele>
        <time>2023-04-05T15:10:18Z</time>
      </trkpt>
      <trkpt lat="47.95898" lon="-3.83608">
        <ele>135.5</ele>
        <time>2023-04-05T15:10:19Z</time>
      </trkpt>
      <trkpt lat="47.95898" lon="-3.83611">
        <ele>135.5</ele>
        <time>2023-04-05T15:10:20Z</time>
      </trkpt>
      <trkpt lat="47.95898" lon="-3.83617">
        <ele>135.6</ele>
        <time>2023-04-05T15:10:21Z</time>
      </trkpt>
      <trkpt lat="47.95898" lon="-3.83622">
        <ele>135.7</ele>
        <time>2023-04-05T15:10:22Z</time>
      </trkpt>
      <trkpt lat="47.95898" lon="-3.83627">
        <ele>135.7</ele>
        <time>2023-04-05T15:10:23Z</time>
      </trkpt>
      <trkpt lat="47.95898" lon="-3.83633">
        <ele>135.8</ele>
        <time>2023-04-05T15:10:24Z</time>
      </trkpt>
      <trkpt lat="47.95898" lon="-3.83638">
        <ele>135.9</ele>
        <time>2023-04-05T15:10:25Z</time>
      </trkpt>
      <trkpt lat="47.95898" lon="-3.83644">
        <ele>136</ele>
        <time>2023-04-05T15:10:26Z</time>
      </trkpt>
      <trkpt lat="47.95898" lon="-3.83649">
        <ele>136</ele>
        <time>2023-04-05T15:10:27Z</time>
      </trkpt>
      <trkpt lat="47.95899" lon="-3.83655">
        <ele>136</ele>
        <time>2023-04-05T15:10:28Z</time>
      </trkpt>
      <trkpt lat="47.95899" lon="-3.83661">
        <ele>136.1</ele>
        <time>2023-04-05T15:10:29Z</time>
      </trkpt>
      <trkpt lat="47.959" lon="-3.83667">
        <ele>136.1</ele>
        <time>2023-04-05T15:10:30Z</time>
      </trkpt>
      <trkpt lat="47.959" lon="-3.83673">
        <ele>136.2</ele>
        <time>2023-04-05T15:10:31Z</time>
      </trkpt>
      <trkpt lat="47.95901" lon="-3.83678">
        <ele>136.3</ele>
        <time>2023-04-05T15:10:32Z</time>
      </trkpt>
      <trkpt lat="47.95902" lon="-3.83684">
        <ele>136.3</ele>
        <time>2023-04-05T15:10:33Z</time>
      </trkpt>
      <trkpt lat="47.95903" lon="-3.8369">
        <ele>136.4</ele>
        <time>2023-04-05T15:10:34Z</time>
      </trkpt>
      <trkpt lat="47.95904" lon="-3.83695">
        <ele>136.4</ele>
        <time>2023-04-05T15:10:35Z</time>
      </trkpt>
      <trkpt lat="47.95905" lon="-3.83701">
        <ele>136.5</ele>
        <time>2023-04-05T15:10:36Z</time>
      </trkpt>
      <trkpt lat="47.95907" lon="-3.83706">
        <ele>136.6</ele>
        <time>2023-04-05T15:10:37Z</time>
      </trkpt>
      <trkpt lat="47.95908" lon="-3.83712">
        <ele>136.7</ele>
        <time>2023-04-05T15:10:38Z</time>
      </trkpt>
      <trkpt lat="47.95909" lon="-3.83717">
        <ele>136.7</ele>
        <time>2023-04-05T15:10:39Z</time>
      </trkpt>
      <trkpt lat="47.9591" lon="-3.83723">
        <ele>136.8</ele>
        <time>2023-04-05T15:10:40Z</time>
      </trkpt>
      <trkpt lat="47.95911" lon="-3.83728">
        <ele>136.9</ele>
        <time>2023-04-05T15:10:41Z</time>
      </trkpt>
      <trkpt lat="47.95912" lon="-3.83734">
        <ele>137</ele>
        <time>2023-04-05T15:10:42Z</time>
      </trkpt>
      <trkpt lat="47.95913" lon="-3.83739">
        <ele>137</ele>
        <time>2023-04-05T15:10:43Z</time>
      </trkpt>
      <trkpt lat="47.95914" lon="-3.83744">
        <ele>137.1</ele>
        <time>2023-04-05T15:10:44Z</time>
      </trkpt>
      <trkpt lat="47.95915" lon="-3.83749">
        <ele>137.2</ele>
        <time>2023-04-05T15:10:45Z</time>
      </trkpt>
      <trkpt lat="47.95916" lon="-3.83754">
        <ele>137.3</ele>
        <time>2023-04-05T15:10:46Z</time>
      </trkpt>
      <trkpt lat="47.95917" lon="-3.83759">
        <ele>137.4</ele>
        <time>2023-04-05T15:10:47Z</time>
      </trkpt>
      <trkpt lat="47.95917" lon="-3.83764">
        <ele>137.5</ele>
        <time>2023-04-05T15:10:48Z</time>
      </trkpt>
      <trkpt lat="47.95918" lon="-3.8377">
        <ele>137.6</ele>
        <time>2023-04-05T15:10:49Z</time>
      </trkpt>
      <trkpt lat="47.95919" lon="-3.83775">
        <ele>137.7</ele>
        <time>2023-04-05T15:10:50Z</time>
      </trkpt>
      <trkpt lat="47.9592" lon="-3.83782">
        <ele>137.9</ele>
        <time>2023-04-05T15:10:51Z</time>
      </trkpt>
      <trkpt lat="47.9592" lon="-3.83786">
        <ele>138</ele>
        <time>2023-04-05T15:10:52Z</time>
      </trkpt>
      <trkpt lat="47.95921" lon="-3.83791">
        <ele>138.1</ele>
        <time>2023-04-05T15:10:53Z</time>
      </trkpt>
      <trkpt lat="47.95921" lon="-3.83796">
        <ele>138.3</ele>
        <time>2023-04-05T15:10:54Z</time>
      </trkpt>
      <trkpt lat="47.95922" lon="-3.83802">
        <ele>138.4</ele>
        <time>2023-04-05T15:10:55Z</time>
      </trkpt>
      <trkpt lat="47.95923" lon="-3.83806">
        <ele>138.5</ele>
        <time>2023-04-05T15:10:56Z</time>
      </trkpt>
      <trkpt lat="47.95923" lon="-3.83811">
        <ele>138.7</ele>
        <time>2023-04-05T15:10:57Z</time>
      </trkpt>
      <trkpt lat="47.95923" lon="-3.83817">
        <ele>138.9</ele>
        <time>2023-04-05T15:10:58Z</time>
      </trkpt>
      <trkpt lat="47.95924" lon="-3.8382">
        <ele>139</ele>
        <time>2023-04-05T15:10:59Z</time>
      </trkpt>
      <trkpt lat="47.95924" lon="-3.83828">
        <ele>139.2</ele>
        <time>2023-04-05T15:11:00Z</time>
      </trkpt>
      <trkpt lat="47.95924" lon="-3.83833">
        <ele>139.3</ele>
        <time>2023-04-05T15:11:01Z</time>
      </trkpt>
      <trkpt lat="47.95924" lon="-3.83837">
        <ele>139.4</ele>
        <time>2023-04-05T15:11:02Z</time>
      </trkpt>
      <trkpt lat="47.95924" lon="-3.83842">
        <ele>139.6</ele>
        <time>2023-04-05T15:11:03Z</time>
      </trkpt>
      <trkpt lat="47.95925" lon="-3.83847">
        <ele>139.7</ele>
        <time>2023-04-05T15:11:04Z</time>
      </trkpt>
      <trkpt lat="47.95925" lon="-3.83853">
        <ele>139.9</ele>
        <time>2023-04-05T15:11:05Z</time>
      </trkpt>
      <trkpt lat="47.95925" lon="-3.83858">
        <ele>140</ele>
        <time>2023-04-05T15:11:06Z</time>
      </trkpt>
      <trkpt lat="47.95924" lon="-3.83864">
        <ele>140.2</ele>
        <time>2023-04-05T15:11:07Z</time>
      </trkpt>
      <trkpt lat="47.95924" lon="-3.83869">
        <ele>140.3</ele>
        <time>2023-04-05T15:11:08Z</time>
      </trkpt>
      <trkpt lat="47.95924" lon="-3.83875">
        <ele>140.5</ele>
        <time>2023-04-05T15:11:09Z</time>
      </trkpt>
      <trkpt lat="47.95924" lon="-3.8388">
        <ele>140.6</ele>
        <time>2023-04-05T15:11:10Z</time>
      </trkpt>
      <trkpt lat="47.95924" lon="-3.83885">
        <ele>140.8</ele>
        <time>2023-04-05T15:11:11Z</time>
      </trkpt>
      <trkpt lat="47.95924" lon="-3.83891">
        <ele>140.9</ele>
        <time>2023-04-05T15:11:12Z</time>
      </trkpt>
      <trkpt lat="47.95923" lon="-3.83896">
        <ele>141.1</ele>
        <time>2023-04-05T15:11:13Z</time>
      </trkpt>
      <trkpt lat="47.95922" lon="-3.83901">
        <ele>141.2</ele>
        <time>2023-04-05T15:11:14Z</time>
      </trkpt>
      <trkpt lat="47.95922" lon="-3.83906">
        <ele>141.4</ele>
        <time>2023-04-05T15:11:15Z</time>
      </trkpt>
      <trkpt lat="47.95921" lon="-3.83913">
        <ele>141.6</ele>
        <time>2023-04-05T15:11:16Z</time>
      </trkpt>
      <trkpt lat="47.9592" lon="-3.83916">
        <ele>141.7</ele>
        <time>2023-04-05T15:11:17Z</time>
      </trkpt>
      <trkpt lat="47.9592" lon="-3.83922">
        <ele>141.9</ele>
        <time>2023-04-05T15:11:18Z</time>
      </trkpt>
      <trkpt lat="47.95919" lon="-3.83927">
        <ele>142</ele>
        <time>2023-04-05T15:11:19Z</time>
      </trkpt>
      <trkpt lat="47.95919" lon="-3.83932">
        <ele>142.2</ele>
        <time>2023-04-05T15:11:20Z</time>
      </trkpt>
      <trkpt lat="47.95919" lon="-3.83938">
        <ele>142.3</ele>
        <time>2023-04-05T15:11:21Z</time>
      </trkpt>
      <trkpt lat="47.95918" lon="-3.83942">
        <ele>142.4</ele>
        <time>2023-04-05T15:11:22Z</time>
      </trkpt>
      <trkpt lat="47.95918" lon="-3.83947">
        <ele>142.6</ele>
        <time>2023-04-05T15:11:23Z</time>
      </trkpt>
      <trkpt lat="47.95917" lon="-3.83952">
        <ele>142.7</ele>
        <time>2023-04-05T15:11:24Z</time>
      </trkpt>
      <trkpt lat="47.95917" lon="-3.83957">
        <ele>142.8</ele>
        <time>2023-04-05T15:11:25Z</time>
      </trkpt>
      <trkpt lat="47.95917" lon="-3.83961">
        <ele>142.9</ele>
        <time>2023-04-05T15:11:26Z</time>
      </trkpt>
      <trkpt lat="47.95916" lon="-3.83966">
        <ele>143.1</ele>
        <time>2023-04-05T15:11:27Z</time>
      </trkpt>
      <trkpt lat="47.95915" lon="-3.8397">
        <ele>143.2</ele>
        <time>2023-04-05T15:11:28Z</time>
      </trkpt>
      <trkpt lat="47.95915" lon="-3.83975">
        <ele>143.3</ele>
        <time>2023-04-05T15:11:29Z</time>
      </trkpt>
      <trkpt lat="47.95914" lon="-3.8398">
        <ele>143.4</ele>
        <time>2023-04-05T15:11:30Z</time>
      </trkpt>
      <trkpt lat="47.95914" lon="-3.83985">
        <ele>143.5</ele>
        <time>2023-04-05T15:11:31Z</time>
      </trkpt>
      <trkpt lat="47.95914" lon="-3.83992">
        <ele>143.6</ele>
        <time>2023-04-05T15:11:32Z</time>
      </trkpt>
      <trkpt lat="47.95914" lon="-3.83995">
        <ele>143.6</ele>
        <time>2023-04-05T15:11:33Z</time>
      </trkpt>
      <trkpt lat="47.95913" lon="-3.84">
        <ele>143.7</ele>
        <time>2023-04-05T15:11:34Z</time>
      </trkpt>
      <trkpt lat="47.95913" lon="-3.84006">
        <ele>143.8</ele>
        <time>2023-04-05T15:11:35Z</time>
      </trkpt>
      <trkpt lat="47.95913" lon="-3.84012">
        <ele>143.9</ele>
        <time>2023-04-05T15:11:36Z</time>
      </trkpt>
      <trkpt lat="47.95912" lon="-3.84017">
        <ele>143.9</ele>
        <time>2023-04-05T15:11:37Z</time>
      </trkpt>
      <trkpt lat="47.95912" lon="-3.84023">
        <ele>143.9</ele>
        <time>2023-04-05T15:11:38Z</time>
      </trkpt>
      <trkpt lat="47.95911" lon="-3.84028">
        <ele>144</ele>
        <time>2023-04-05T15:11:39Z</time>
      </trkpt>
      <trkpt lat="47.95911" lon="-3.84034">
        <ele>144</ele>
        <time>2023-04-05T15:11:40Z</time>
      </trkpt>
      <trkpt lat="47.95911" lon="-3.84039">
        <ele>144</ele>
        <time>2023-04-05T15:11:41Z</time>
      </trkpt>
      <trkpt lat="47.9591" lon="-3.84044">
        <ele>144</ele>
        <time>2023-04-05T15:11:42Z</time>
      </trkpt>
      <trkpt lat="47.9591" lon="-3.84049">
        <ele>144</ele>
        <time>2023-04-05T15:11:43Z</time>
      </trkpt>
      <trkpt lat="47.9591" lon="-3.84054">
        <ele>144.1</ele>
        <time>2023-04-05T15:11:44Z</time>
      </trkpt>
      <trkpt lat="47.95908" lon="-3.84059">
        <ele>144.1</ele>
        <time>2023-04-05T15:11:45Z</time>
      </trkpt>
      <trkpt lat="47.95906" lon="-3.84063">
        <ele>144.1</ele>
        <time>2023-04-05T15:11:46Z</time>
      </trkpt>
      <trkpt lat="47.95904" lon="-3.84067">
        <ele>144.2</ele>
        <time>2023-04-05T15:11:47Z</time>
      </trkpt>
      <trkpt lat="47.959" lon="-3.8407">
        <ele>144.2</ele>
        <time>2023-04-05T15:11:48Z</time>
      </trkpt>
      <trkpt lat="47.95897" lon="-3.84074">
        <ele>144.3</ele>
        <time>2023-04-05T15:11:49Z</time>
      </trkpt>
      <trkpt lat="47.95894" lon="-3.84077">
        <ele>144.3</ele>
        <time>2023-04-05T15:11:50Z</time>
      </trkpt>
      <trkpt lat="47.95891" lon="-3.8408">
        <ele>144.4</ele>
        <time>2023-04-05T15:11:51Z</time>
      </trkpt>
      <trkpt lat="47.95888" lon="-3.84082">
        <ele>144.4</ele>
        <time>2023-04-05T15:11:52Z</time>
      </trkpt>
      <trkpt lat="47.95885" lon="-3.84085">
        <ele>144.5</ele>
        <time>2023-04-05T15:11:53Z</time>
      </trkpt>
      <trkpt lat="47.95882" lon="-3.84088">
        <ele>144.5</ele>
        <time>2023-04-05T15:11:54Z</time>
      </trkpt>
      <trkpt lat="47.95879" lon="-3.84091">
        <ele>144.6</ele>
        <time>2023-04-05T15:11:55Z</time>
      </trkpt>
      <trkpt lat="47.95875" lon="-3.84093">
        <ele>144.6</ele>
        <time>2023-04-05T15:11:56Z</time>
      </trkpt>
      <trkpt lat="47.95872" lon="-3.84096">
        <ele>144.7</ele>
        <time>2023-04-05T15:11:57Z</time>
      </trkpt>
      <trkpt lat="47.95868" lon="-3.84099">
        <ele>144.7</ele>
        <time>2023-04-05T15:11:58Z</time>
      </trkpt>
      <trkpt lat="47.95862" lon="-3.84104">
        <ele>144.7</ele>
        <time>2023-04-05T15:12:00Z</time>
      </trkpt>
      <trkpt lat="47.95858" lon="-3.84107">
        <ele>144.7</ele>
        <time>2023-04-05T15:12:01Z</time>
      </trkpt>
      <trkpt lat="47.95855" lon="-3.8411">
        <ele>144.7</ele>
        <time>2023-04-05T15:12:02Z</time>
      </trkpt>
      <trkpt lat="47.95851" lon="-3.84113">
        <ele>144.8</ele>
        <time>2023-04-05T15:12:03Z</time>
      </trkpt>
      <trkpt lat="47.95847" lon="-3.84117">
        <ele>144.8</ele>
        <time>2023-04-05T15:12:04Z</time>
      </trkpt>
      <trkpt lat="47.95842" lon="-3.84121">
        <ele>144.8</ele>
        <time>2023-04-05T15:12:05Z</time>
      </trkpt>
      <trkpt lat="47.95838" lon="-3.84126">
        <ele>144.8</ele>
        <time>2023-04-05T15:12:06Z</time>
      </trkpt>
      <trkpt lat="47.95835" lon="-3.84132">
        <ele>144.8</ele>
        <time>2023-04-05T15:12:07Z</time>
      </trkpt>
      <trkpt lat="47.95832" lon="-3.84137">
        <ele>144.8</ele>
        <time>2023-04-05T15:12:08Z</time>
      </trkpt>
      <trkpt lat="47.95829" lon="-3.84143">
        <ele>144.8</ele>
        <time>2023-04-05T15:12:09Z</time>
      </trkpt>
      <trkpt lat="47.95826" lon="-3.84149">
        <ele>144.8</ele>
        <time>2023-04-05T15:12:10Z</time>
      </trkpt>
      <trkpt lat="47.95824" lon="-3.84156">
        <ele>144.7</ele>
        <time>2023-04-05T15:12:11Z</time>
      </trkpt>
      <trkpt lat="47.95822" lon="-3.84163">
        <ele>144.7</ele>
        <time>2023-04-05T15:12:12Z</time>
      </trkpt>
      <trkpt lat="47.9582" lon="-3.8417">
        <ele>144.7</ele>
        <time>2023-04-05T15:12:13Z</time>
      </trkpt>
      <trkpt lat="47.95818" lon="-3.84177">
        <ele>144.7</ele>
        <time>2023-04-05T15:12:14Z</time>
      </trkpt>
      <trkpt lat="47.95817" lon="-3.84184">
        <ele>144.7</ele>
        <time>2023-04-05T15:12:15Z</time>
      </trkpt>
      <trkpt lat="47.95816" lon="-3.84191">
        <ele>144.7</ele>
        <time>2023-04-05T15:12:16Z</time>
      </trkpt>
      <trkpt lat="47.95815" lon="-3.84199">
        <ele>144.6</ele>
        <time>2023-04-05T15:12:17Z</time>
      </trkpt>
      <trkpt lat="47.95815" lon="-3.84207">
        <ele>144.6</ele>
        <time>2023-04-05T15:12:18Z</time>
      </trkpt>
      <trkpt lat="47.95815" lon="-3.84214">
        <ele>144.6</ele>
        <time>2023-04-05T15:12:19Z</time>
      </trkpt>
      <trkpt lat="47.95815" lon="-3.84222">
        <ele>144.6</ele>
        <time>2023-04-05T15:12:20Z</time>
      </trkpt>
      <trkpt lat="47.95815" lon="-3.8423">
        <ele>144.6</ele>
        <time>2023-04-05T15:12:21Z</time>
      </trkpt>
      <trkpt lat="47.95815" lon="-3.84237">
        <ele>144.6</ele>
        <time>2023-04-05T15:12:22Z</time>
      </trkpt>
      <trkpt lat="47.95815" lon="-3.84245">
        <ele>144.5</ele>
        <time>2023-04-05T15:12:23Z</time>
      </trkpt>
      <trkpt lat="47.95816" lon="-3.84253">
        <ele>144.5</ele>
        <time>2023-04-05T15:12:24Z</time>
      </trkpt>
      <trkpt lat="47.95816" lon="-3.84261">
        <ele>144.5</ele>
        <time>2023-04-05T15:12:25Z</time>
      </trkpt>
      <trkpt lat="47.95816" lon="-3.84269">
        <ele>144.5</ele>
        <time>2023-04-05T15:12:26Z</time>
      </trkpt>
      <trkpt lat="47.95817" lon="-3.84277">
        <ele>144.5</ele>
        <time>2023-04-05T15:12:27Z</time>
      </trkpt>
      <trkpt lat="47.95817" lon="-3.84284">
        <ele>144.5</ele>
        <time>2023-04-05T15:12:28Z</time>
      </trkpt>
      <trkpt lat="47.95818" lon="-3.84292">
        <ele>144.5</ele>
        <time>2023-04-05T15:12:29Z</time>
      </trkpt>
      <trkpt lat="47.95818" lon="-3.843">
        <ele>144.5</ele>
        <time>2023-04-05T15:12:30Z</time>
      </trkpt>
      <trkpt lat="47.95818" lon="-3.84308">
        <ele>144.5</ele>
        <time>2023-04-05T15:12:31Z</time>
      </trkpt>
      <trkpt lat="47.95819" lon="-3.84316">
        <ele>144.4</ele>
        <time>2023-04-05T15:12:32Z</time>
      </trkpt>
      <trkpt lat="47.95819" lon="-3.84324">
        <ele>144.4</ele>
        <time>2023-04-05T15:12:33Z</time>
      </trkpt>
      <trkpt lat="47.95819" lon="-3.84332">
        <ele>144.4</ele>
        <time>2023-04-05T15:12:34Z</time>
      </trkpt>
      <trkpt lat="47.9582" lon="-3.8434">
        <ele>144.4</ele>
        <time>2023-04-05T15:12:35Z</time>
      </trkpt>
      <trkpt lat="47.9582" lon="-3.84349">
        <ele>144.4</ele>
        <time>2023-04-05T15:12:36Z</time>
      </trkpt>
      <trkpt lat="47.95821" lon="-3.84357">
        <ele>144.4</ele>
        <time>2023-04-05T15:12:37Z</time>
      </trkpt>
      <trkpt lat="47.95821" lon="-3.84365">
        <ele>144.4</ele>
        <time>2023-04-05T15:12:38Z</time>
      </trkpt>
      <trkpt lat="47.95821" lon="-3.84373">
        <ele>144.4</ele>
        <time>2023-04-05T15:12:39Z</time>
      </trkpt>
      <trkpt lat="47.95822" lon="-3.84381">
        <ele>144.4</ele>
        <time>2023-04-05T15:12:40Z</time>
      </trkpt>
      <trkpt lat="47.95822" lon="-3.84389">
        <ele>144.4</ele>
        <time>2023-04-05T15:12:41Z</time>
      </trkpt>
      <trkpt lat="47.95822" lon="-3.84397">
        <ele>144.4</ele>
        <time>2023-04-05T15:12:42Z</time>
      </trkpt>
      <trkpt lat="47.95823" lon="-3.84406">
        <ele>144.4</ele>
        <time>2023-04-05T15:12:43Z</time>
      </trkpt>
      <trkpt lat="47.95823" lon="-3.84413">
        <ele>144.4</ele>
        <time>2023-04-05T15:12:44Z</time>
      </trkpt>
      <trkpt lat="47.95823" lon="-3.84421">
        <ele>144.5</ele>
        <time>2023-04-05T15:12:45Z</time>
      </trkpt>
      <trkpt lat="47.95823" lon="-3.84429">
        <ele>144.5</ele>
        <time>2023-04-05T15:12:46Z</time>
      </trkpt>
      <trkpt lat="47.95824" lon="-3.84436">
        <ele>144.5</ele>
        <time>2023-04-05T15:12:47Z</time>
      </trkpt>
      <trkpt lat="47.95824" lon="-3.84444">
        <ele>144.5</ele>
        <time>2023-04-05T15:12:48Z</time>
      </trkpt>
      <trkpt lat="47.95824" lon="-3.84451">
        <ele>144.5</ele>
        <time>2023-04-05T15:12:49Z</time>
      </trkpt>
      <trkpt lat="47.95824" lon="-3.84458">
        <ele>144.6</ele>
        <time>2023-04-05T15:12:50Z</time>
      </trkpt>
      <trkpt lat="47.95824" lon="-3.84466">
        <ele>144.6</ele>
        <time>2023-04-05T15:12:51Z</time>
      </trkpt>
      <trkpt lat="47.95824" lon="-3.84473">
        <ele>144.6</ele>
        <time>2023-04-05T15:12:52Z</time>
      </trkpt>
      <trkpt lat="47.95825" lon="-3.8448">
        <ele>144.6</ele>
        <time>2023-04-05T15:12:53Z</time>
      </trkpt>
      <trkpt lat="47.95825" lon="-3.84487">
        <ele>144.6</ele>
        <time>2023-04-05T15:12:54Z</time>
      </trkpt>
      <trkpt lat="47.95825" lon="-3.84495">
        <ele>144.6</ele>
        <time>2023-04-05T15:12:55Z</time>
      </trkpt>
      <trkpt lat="47.95825" lon="-3.84502">
        <ele>144.6</ele>
        <time>2023-04-05T15:12:56Z</time>
      </trkpt>
      <trkpt lat="47.95825" lon="-3.84508">
        <ele>144.7</ele>
        <time>2023-04-05T15:12:57Z</time>
      </trkpt>
      <trkpt lat="47.95825" lon="-3.84515">
        <ele>144.7</ele>
        <time>2023-04-05T15:12:58Z</time>
      </trkpt>
      <trkpt lat="47.95825" lon="-3.84522">
        <ele>144.7</ele>
        <time>2023-04-05T15:12:59Z</time>
      </trkpt>
      <trkpt lat="47.95825" lon="-3.84529">
        <ele>144.7</ele>
        <time>2023-04-05T15:13:00Z</time>
      </trkpt>
      <trkpt lat="47.95825" lon="-3.84536">
        <ele>144.7</ele>
        <time>2023-04-05T15:13:01Z</time>
      </trkpt>
      <trkpt lat="47.95824" lon="-3.84542">
        <ele>144.7</ele>
        <time>2023-04-05T15:13:02Z</time>
      </trkpt>
      <trkpt lat="47.95822" lon="-3.84549">
        <ele>144.7</ele>
        <time>2023-04-05T15:13:03Z</time>
      </trkpt>
      <trkpt lat="47.9582" lon="-3.84554">
        <ele>144.6</ele>
        <time>2023-04-05T15:13:04Z</time>
      </trkpt>
      <trkpt lat="47.95817" lon="-3.84555">
        <ele>144.5</ele>
        <time>2023-04-05T15:13:05Z</time>
      </trkpt>
      <trkpt lat="47.95813" lon="-3.84556">
        <ele>144.3</ele>
        <time>2023-04-05T15:13:06Z</time>
      </trkpt>
      <trkpt lat="47.95807" lon="-3.84554">
        <ele>144.1</ele>
        <time>2023-04-05T15:13:07Z</time>
      </trkpt>
      <trkpt lat="47.95802" lon="-3.8455">
        <ele>143.8</ele>
        <time>2023-04-05T15:13:08Z</time>
      </trkpt>
      <trkpt lat="47.95796" lon="-3.84546">
        <ele>143.6</ele>
        <time>2023-04-05T15:13:09Z</time>
      </trkpt>
      <trkpt lat="47.9579" lon="-3.84543">
        <ele>143.4</ele>
        <time>2023-04-05T15:13:10Z</time>
      </trkpt>
      <trkpt lat="47.95783" lon="-3.84542">
        <ele>143.1</ele>
        <time>2023-04-05T15:13:11Z</time>
      </trkpt>
      <trkpt lat="47.95776" lon="-3.84544">
        <ele>143</ele>
        <time>2023-04-05T15:13:12Z</time>
      </trkpt>
      <trkpt lat="47.9577" lon="-3.84548">
        <ele>143</ele>
        <time>2023-04-05T15:13:13Z</time>
      </trkpt>
      <trkpt lat="47.95766" lon="-3.84553">
        <ele>143</ele>
        <time>2023-04-05T15:13:14Z</time>
      </trkpt>
      <trkpt lat="47.95763" lon="-3.84559">
        <ele>143</ele>
        <time>2023-04-05T15:13:15Z</time>
      </trkpt>
      <trkpt lat="47.95761" lon="-3.84564">
        <ele>142.9</ele>
        <time>2023-04-05T15:13:16Z</time>
      </trkpt>
      <trkpt lat="47.95761" lon="-3.8457">
        <ele>142.9</ele>
        <time>2023-04-05T15:13:17Z</time>
      </trkpt>
      <trkpt lat="47.9576" lon="-3.84577">
        <ele>142.8</ele>
        <time>2023-04-05T15:13:18Z</time>
      </trkpt>
      <trkpt lat="47.95758" lon="-3.84585">
        <ele>142.8</ele>
        <time>2023-04-05T15:13:19Z</time>
      </trkpt>
      <trkpt lat="47.95756" lon="-3.84593">
        <ele>142.7</ele>
        <time>2023-04-05T15:13:20Z</time>
      </trkpt>
      <trkpt lat="47.95755" lon="-3.84601">
        <ele>142.6</ele>
        <time>2023-04-05T15:13:21Z</time>
      </trkpt>
      <trkpt lat="47.95753" lon="-3.84609">
        <ele>142.5</ele>
        <time>2023-04-05T15:13:22Z</time>
      </trkpt>
      <trkpt lat="47.95751" lon="-3.84617">
        <ele>142.4</ele>
        <time>2023-04-05T15:13:23Z</time>
      </trkpt>
      <trkpt lat="47.95749" lon="-3.84625">
        <ele>142.2</ele>
        <time>2023-04-05T15:13:24Z</time>
      </trkpt>
      <trkpt lat="47.95748" lon="-3.84633">
        <ele>142.1</ele>
        <time>2023-04-05T15:13:25Z</time>
      </trkpt>
      <trkpt lat="47.95746" lon="-3.84642">
        <ele>141.9</ele>
        <time>2023-04-05T15:13:26Z</time>
      </trkpt>
      <trkpt lat="47.95743" lon="-3.8465">
        <ele>141.8</ele>
        <time>2023-04-05T15:13:27Z</time>
      </trkpt>
      <trkpt lat="47.95741" lon="-3.84659">
        <ele>141.7</ele>
        <time>2023-04-05T15:13:28Z</time>
      </trkpt>
      <trkpt lat="47.95739" lon="-3.84668">
        <ele>141.6</ele>
        <time>2023-04-05T15:13:29Z</time>
      </trkpt>
      <trkpt lat="47.95736" lon="-3.84677">
        <ele>141.4</ele>
        <time>2023-04-05T15:13:30Z</time>
      </trkpt>
      <trkpt lat="47.95733" lon="-3.84686">
        <ele>141.3</ele>
        <time>2023-04-05T15:13:31Z</time>
      </trkpt>
      <trkpt lat="47.95729" lon="-3.84694">
        <ele>141.2</ele>
        <time>2023-04-05T15:13:32Z</time>
      </trkpt>
      <trkpt lat="47.95725" lon="-3.84701">
        <ele>141.1</ele>
        <time>2023-04-05T15:13:33Z</time>
      </trkpt>
      <trkpt lat="47.9572" lon="-3.84708">
        <ele>141</ele>
        <time>2023-04-05T15:13:34Z</time>
      </trkpt>
      <trkpt lat="47.95715" lon="-3.84714">
        <ele>140.9</ele>
        <time>2023-04-05T15:13:35Z</time>
      </trkpt>
      <trkpt lat="47.9571" lon="-3.8472">
        <ele>140.8</ele>
        <time>2023-04-05T15:13:36Z</time>
      </trkpt>
      <trkpt lat="47.95705" lon="-3.84726">
        <ele>140.7</ele>
        <time>2023-04-05T15:13:37Z</time>
      </trkpt>
      <trkpt lat="47.95699" lon="-3.84732">
        <ele>140.5</ele>
        <time>2023-04-05T15:13:38Z</time>
      </trkpt>
      <trkpt lat="47.95694" lon="-3.84738">
        <ele>140.4</ele>
        <time>2023-04-05T15:13:39Z</time>
      </trkpt>
      <trkpt lat="47.95689" lon="-3.84745">
        <ele>140.4</ele>
        <time>2023-04-05T15:13:40Z</time>
      </trkpt>
      <trkpt lat="47.95683" lon="-3.84751">
        <ele>140.3</ele>
        <time>2023-04-05T15:13:41Z</time>
      </trkpt>
      <trkpt lat="47.95678" lon="-3.84757">
        <ele>140.2</ele>
        <time>2023-04-05T15:13:42Z</time>
      </trkpt>
      <trkpt lat="47.95673" lon="-3.84764">
        <ele>140.1</ele>
        <time>2023-04-05T15:13:43Z</time>
      </trkpt>
      <trkpt lat="47.95668" lon="-3.8477">
        <ele>140.1</ele>
        <time>2023-04-05T15:13:44Z</time>
      </trkpt>
      <trkpt lat="47.95664" lon="-3.84776">
        <ele>140</ele>
        <time>2023-04-05T15:13:45Z</time>
      </trkpt>
      <trkpt lat="47.95659" lon="-3.84783">
        <ele>139.9</ele>
        <time>2023-04-05T15:13:46Z</time>
      </trkpt>
      <trkpt lat="47.95654" lon="-3.84789">
        <ele>139.9</ele>
        <time>2023-04-05T15:13:47Z</time>
      </trkpt>
      <trkpt lat="47.95649" lon="-3.84796">
        <ele>139.8</ele>
        <time>2023-04-05T15:13:48Z</time>
      </trkpt>
      <trkpt lat="47.95645" lon="-3.84803">
        <ele>139.8</ele>
        <time>2023-04-05T15:13:49Z</time>
      </trkpt>
      <trkpt lat="47.95641" lon="-3.84811">
        <ele>139.7</ele>
        <time>2023-04-05T15:13:50Z</time>
      </trkpt>
      <trkpt lat="47.95637" lon="-3.84818">
        <ele>139.7</ele>
        <time>2023-04-05T15:13:51Z</time>
      </trkpt>
      <trkpt lat="47.95634" lon="-3.84825">
        <ele>139.6</ele>
        <time>2023-04-05T15:13:52Z</time>
      </trkpt>
      <trkpt lat="47.9563" lon="-3.84833">
        <ele>139.6</ele>
        <time>2023-04-05T15:13:53Z</time>
      </trkpt>
      <trkpt lat="47.95626" lon="-3.8484">
        <ele>139.5</ele>
        <time>2023-04-05T15:13:54Z</time>
      </trkpt>
      <trkpt lat="47.95623" lon="-3.84847">
        <ele>139.5</ele>
        <time>2023-04-05T15:13:55Z</time>
      </trkpt>
      <trkpt lat="47.95619" lon="-3.84854">
        <ele>139.5</ele>
        <time>2023-04-05T15:13:56Z</time>
      </trkpt>
      <trkpt lat="47.95615" lon="-3.84861">
        <ele>139.4</ele>
        <time>2023-04-05T15:13:57Z</time>
      </trkpt>
      <trkpt lat="47.95611" lon="-3.84867">
        <ele>139.4</ele>
        <time>2023-04-05T15:13:58Z</time>
      </trkpt>
      <trkpt lat="47.95607" lon="-3.84873">
        <ele>139.4</ele>
        <time>2023-04-05T15:13:59Z</time>
      </trkpt>
      <trkpt lat="47.95603" lon="-3.8488">
        <ele>139.4</ele>
        <time>2023-04-05T15:14:00Z</time>
      </trkpt>
      <trkpt lat="47.95599" lon="-3.84887">
        <ele>139.3</ele>
        <time>2023-04-05T15:14:01Z</time>
      </trkpt>
      <trkpt lat="47.95595" lon="-3.84893">
        <ele>139.3</ele>
        <time>2023-04-05T15:14:02Z</time>
      </trkpt>
      <trkpt lat="47.95591" lon="-3.849">
        <ele>139.3</ele>
        <time>2023-04-05T15:14:03Z</time>
      </trkpt>
      <trkpt lat="47.95587" lon="-3.84906">
        <ele>139.2</ele>
        <time>2023-04-05T15:14:04Z</time>
      </trkpt>
      <trkpt lat="47.95584" lon="-3.84913">
        <ele>139.1</ele>
        <time>2023-04-05T15:14:05Z</time>
      </trkpt>
      <trkpt lat="47.9558" lon="-3.8492">
        <ele>139.1</ele>
        <time>2023-04-05T15:14:06Z</time>
      </trkpt>
      <trkpt lat="47.95578" lon="-3.84928">
        <ele>139</ele>
        <time>2023-04-05T15:14:07Z</time>
      </trkpt>
      <trkpt lat="47.95575" lon="-3.84935">
        <ele>138.9</ele>
        <time>2023-04-05T15:14:08Z</time>
      </trkpt>
      <trkpt lat="47.95572" lon="-3.84943">
        <ele>138.8</ele>
        <time>2023-04-05T15:14:09Z</time>
      </trkpt>
      <trkpt lat="47.95569" lon="-3.8495">
        <ele>138.7</ele>
        <time>2023-04-05T15:14:10Z</time>
      </trkpt>
      <trkpt lat="47.95567" lon="-3.84958">
        <ele>138.6</ele>
        <time>2023-04-05T15:14:11Z</time>
      </trkpt>
      <trkpt lat="47.95565" lon="-3.84967">
        <ele>138.5</ele>
        <time>2023-04-05T15:14:12Z</time>
      </trkpt>
      <trkpt lat="47.95563" lon="-3.84975">
        <ele>138.5</ele>
        <time>2023-04-05T15:14:13Z</time>
      </trkpt>
      <trkpt lat="47.95561" lon="-3.84984">
        <ele>138.4</ele>
        <time>2023-04-05T15:14:14Z</time>
      </trkpt>
      <trkpt lat="47.9556" lon="-3.84993">
        <ele>138.3</ele>
        <time>2023-04-05T15:14:15Z</time>
      </trkpt>
      <trkpt lat="47.95558" lon="-3.85002">
        <ele>138.2</ele>
        <time>2023-04-05T15:14:16Z</time>
      </trkpt>
      <trkpt lat="47.95558" lon="-3.8501">
        <ele>138.2</ele>
        <time>2023-04-05T15:14:17Z</time>
      </trkpt>
      <trkpt lat="47.95557" lon="-3.85019">
        <ele>138.2</ele>
        <time>2023-04-05T15:14:18Z</time>
      </trkpt>
      <trkpt lat="47.95556" lon="-3.85028">
        <ele>138.2</ele>
        <time>2023-04-05T15:14:19Z</time>
      </trkpt>
      <trkpt lat="47.95555" lon="-3.85036">
        <ele>138.1</ele>
        <time>2023-04-05T15:14:20Z</time>
      </trkpt>
      <trkpt lat="47.95555" lon="-3.85045">
        <ele>138.1</ele>
        <time>2023-04-05T15:14:21Z</time>
      </trkpt>
      <trkpt lat="47.95554" lon="-3.85053">
        <ele>138.1</ele>
        <time>2023-04-05T15:14:22Z</time>
      </trkpt>
      <trkpt lat="47.95554" lon="-3.85061">
        <ele>138.1</ele>
        <time>2023-04-05T15:14:23Z</time>
      </trkpt>
      <trkpt lat="47.95553" lon="-3.85069">
        <ele>138.1</ele>
        <time>2023-04-05T15:14:24Z</time>
      </trkpt>
      <trkpt lat="47.95552" lon="-3.85077">
        <ele>138.1</ele>
        <time>2023-04-05T15:14:25Z</time>
      </trkpt>
      <trkpt lat="47.9555" lon="-3.85085">
        <ele>138.1</ele>
        <time>2023-04-05T15:14:26Z</time>
      </trkpt>
      <trkpt lat="47.95549" lon="-3.85093">
        <ele>138.2</ele>
        <time>2023-04-05T15:14:27Z</time>
      </trkpt>
      <trkpt lat="47.95548" lon="-3.85101">
        <ele>138.2</ele>
        <time>2023-04-05T15:14:28Z</time>
      </trkpt>
      <trkpt lat="47.95546" lon="-3.85109">
        <ele>138.2</ele>
        <time>2023-04-05T15:14:29Z</time>
      </trkpt>
      <trkpt lat="47.95545" lon="-3.85117">
        <ele>138.3</ele>
        <time>2023-04-05T15:14:30Z</time>
      </trkpt>
      <trkpt lat="47.95543" lon="-3.85124">
        <ele>138.3</ele>
        <time>2023-04-05T15:14:31Z</time>
      </trkpt>
      <trkpt lat="47.95541" lon="-3.85131">
        <ele>138.3</ele>
        <time>2023-04-05T15:14:32Z</time>
      </trkpt>
      <trkpt lat="47.95539" lon="-3.85138">
        <ele>138.4</ele>
        <time>2023-04-05T15:14:33Z</time>
      </trkpt>
      <trkpt lat="47.95536" lon="-3.85145">
        <ele>138.4</ele>
        <time>2023-04-05T15:14:34Z</time>
      </trkpt>
      <trkpt lat="47.95534" lon="-3.85152">
        <ele>138.5</ele>
        <time>2023-04-05T15:14:35Z</time>
      </trkpt>
      <trkpt lat="47.95532" lon="-3.85159">
        <ele>138.5</ele>
        <time>2023-04-05T15:14:36Z</time>
      </trkpt>
      <trkpt lat="47.9553" lon="-3.85166">
        <ele>138.6</ele>
        <time>2023-04-05T15:14:37Z</time>
      </trkpt>
      <trkpt lat="47.95527" lon="-3.85172">
        <ele>138.7</ele>
        <time>2023-04-05T15:14:38Z</time>
      </trkpt>
      <trkpt lat="47.95524" lon="-3.85179">
        <ele>138.7</ele>
        <time>2023-04-05T15:14:39Z</time>
      </trkpt>
      <trkpt lat="47.95522" lon="-3.85185">
        <ele>138.8</ele>
        <time>2023-04-05T15:14:40Z</time>
      </trkpt>
      <trkpt lat="47.95521" lon="-3.85192">
        <ele>138.9</ele>
        <time>2023-04-05T15:14:41Z</time>
      </trkpt>
      <trkpt lat="47.95519" lon="-3.85199">
        <ele>139</ele>
        <time>2023-04-05T15:14:42Z</time>
      </trkpt>
      <trkpt lat="47.95517" lon="-3.85205">
        <ele>139</ele>
        <time>2023-04-05T15:14:43Z</time>
      </trkpt>
      <trkpt lat="47.95516" lon="-3.85212">
        <ele>139.1</ele>
        <time>2023-04-05T15:14:44Z</time>
      </trkpt>
      <trkpt lat="47.95515" lon="-3.85218">
        <ele>139.2</ele>
        <time>2023-04-05T15:14:45Z</time>
      </trkpt>
      <trkpt lat="47.95513" lon="-3.85225">
        <ele>139.3</ele>
        <time>2023-04-05T15:14:46Z</time>
      </trkpt>
      <trkpt lat="47.95511" lon="-3.85231">
        <ele>139.3</ele>
        <time>2023-04-05T15:14:47Z</time>
      </trkpt>
      <trkpt lat="47.9551" lon="-3.85238">
        <ele>139.4</ele>
        <time>2023-04-05T15:14:48Z</time>
      </trkpt>
      <trkpt lat="47.95508" lon="-3.85244">
        <ele>139.5</ele>
        <time>2023-04-05T15:14:49Z</time>
      </trkpt>
      <trkpt lat="47.95506" lon="-3.85249">
        <ele>139.6</ele>
        <time>2023-04-05T15:14:50Z</time>
      </trkpt>
      <trkpt lat="47.95505" lon="-3.85256">
        <ele>139.6</ele>
        <time>2023-04-05T15:14:51Z</time>
      </trkpt>
      <trkpt lat="47.95504" lon="-3.85259">
        <ele>139.7</ele>
        <time>2023-04-05T15:14:52Z</time>
      </trkpt>
      <trkpt lat="47.95502" lon="-3.85265">
        <ele>139.8</ele>
        <time>2023-04-05T15:14:53Z</time>
      </trkpt>
      <trkpt lat="47.95501" lon="-3.85269">
        <ele>139.8</ele>
        <time>2023-04-05T15:14:54Z</time>
      </trkpt>
      <trkpt lat="47.95499" lon="-3.85276">
        <ele>139.9</ele>
        <time>2023-04-05T15:14:55Z</time>
      </trkpt>
      <trkpt lat="47.95497" lon="-3.85281">
        <ele>139.9</ele>
        <time>2023-04-05T15:14:56Z</time>
      </trkpt>
      <trkpt lat="47.95495" lon="-3.85285">
        <ele>140</ele>
        <time>2023-04-05T15:14:57Z</time>
      </trkpt>
      <trkpt lat="47.95495" lon="-3.85291">
        <ele>140</ele>
        <time>2023-04-05T15:14:59Z</time>
      </trkpt>
      <trkpt lat="47.95492" lon="-3.85297">
        <ele>140</ele>
        <time>2023-04-05T15:15:00Z</time>
      </trkpt>
      <trkpt lat="47.95489" lon="-3.85302">
        <ele>140</ele>
        <time>2023-04-05T15:15:01Z</time>
      </trkpt>
      <trkpt lat="47.95486" lon="-3.85306">
        <ele>140</ele>
        <time>2023-04-05T15:15:02Z</time>
      </trkpt>
      <trkpt lat="47.95484" lon="-3.85311">
        <ele>140</ele>
        <time>2023-04-05T15:15:03Z</time>
      </trkpt>
      <trkpt lat="47.95481" lon="-3.85318">
        <ele>140</ele>
        <time>2023-04-05T15:15:04Z</time>
      </trkpt>
      <trkpt lat="47.95478" lon="-3.85323">
        <ele>140</ele>
        <time>2023-04-05T15:15:05Z</time>
      </trkpt>
      <trkpt lat="47.95474" lon="-3.85329">
        <ele>140</ele>
        <time>2023-04-05T15:15:06Z</time>
      </trkpt>
      <trkpt lat="47.95471" lon="-3.85335">
        <ele>139.9</ele>
        <time>2023-04-05T15:15:07Z</time>
      </trkpt>
      <trkpt lat="47.95468" lon="-3.85341">
        <ele>139.9</ele>
        <time>2023-04-05T15:15:08Z</time>
      </trkpt>
      <trkpt lat="47.95465" lon="-3.85347">
        <ele>139.9</ele>
        <time>2023-04-05T15:15:09Z</time>
      </trkpt>
      <trkpt lat="47.95463" lon="-3.85354">
        <ele>139.9</ele>
        <time>2023-04-05T15:15:10Z</time>
      </trkpt>
      <trkpt lat="47.9546" lon="-3.8536">
        <ele>139.9</ele>
        <time>2023-04-05T15:15:11Z</time>
      </trkpt>
      <trkpt lat="47.95458" lon="-3.85367">
        <ele>139.9</ele>
        <time>2023-04-05T15:15:12Z</time>
      </trkpt>
      <trkpt lat="47.95456" lon="-3.85373">
        <ele>140</ele>
        <time>2023-04-05T15:15:13Z</time>
      </trkpt>
      <trkpt lat="47.95455" lon="-3.85381">
        <ele>140</ele>
        <time>2023-04-05T15:15:14Z</time>
      </trkpt>
      <trkpt lat="47.95453" lon="-3.85388">
        <ele>140</ele>
        <time>2023-04-05T15:15:15Z</time>
      </trkpt>
      <trkpt lat="47.95453" lon="-3.85395">
        <ele>140</ele>
        <time>2023-04-05T15:15:16Z</time>
      </trkpt>
      <trkpt lat="47.95451" lon="-3.85403">
        <ele>140</ele>
        <time>2023-04-05T15:15:17Z</time>
      </trkpt>
      <trkpt lat="47.9545" lon="-3.8541">
        <ele>140.1</ele>
        <time>2023-04-05T15:15:18Z</time>
      </trkpt>
      <trkpt lat="47.95449" lon="-3.85417">
        <ele>140.1</ele>
        <time>2023-04-05T15:15:19Z</time>
      </trkpt>
      <trkpt lat="47.95448" lon="-3.85423">
        <ele>140.1</ele>
        <time>2023-04-05T15:15:20Z</time>
      </trkpt>
      <trkpt lat="47.95447" lon="-3.85427">
        <ele>140.1</ele>
        <time>2023-04-05T15:15:21Z</time>
      </trkpt>
      <trkpt lat="47.95445" lon="-3.85435">
        <ele>140.1</ele>
        <time>2023-04-05T15:15:22Z</time>
      </trkpt>
      <trkpt lat="47.95444" lon="-3.8544">
        <ele>140.1</ele>
        <time>2023-04-05T15:15:23Z</time>
      </trkpt>
      <trkpt lat="47.95442" lon="-3.85448">
        <ele>140.1</ele>
        <time>2023-04-05T15:15:24Z</time>
      </trkpt>
      <trkpt lat="47.95442" lon="-3.85452">
        <ele>140.1</ele>
        <time>2023-04-05T15:15:25Z</time>
      </trkpt>
      <trkpt lat="47.95441" lon="-3.85459">
        <ele>140</ele>
        <time>2023-04-05T15:15:26Z</time>
      </trkpt>
      <trkpt lat="47.95439" lon="-3.85462">
        <ele>140</ele>
        <time>2023-04-05T15:15:27Z</time>
      </trkpt>
      <trkpt lat="47.95436" lon="-3.85472">
        <ele>140</ele>
        <time>2023-04-05T15:15:28Z</time>
      </trkpt>
      <trkpt lat="47.95434" lon="-3.85479">
        <ele>140</ele>
        <time>2023-04-05T15:15:30Z</time>
      </trkpt>
      <trkpt lat="47.95433" lon="-3.85485">
        <ele>140</ele>
        <time>2023-04-05T15:15:31Z</time>
      </trkpt>
      <trkpt lat="47.95431" lon="-3.85491">
        <ele>140</ele>
        <time>2023-04-05T15:15:32Z</time>
      </trkpt>
      <trkpt lat="47.95428" lon="-3.85503">
        <ele>140</ele>
        <time>2023-04-05T15:15:33Z</time>
      </trkpt>
      <trkpt lat="47.95426" lon="-3.85513">
        <ele>140</ele>
        <time>2023-04-05T15:15:35Z</time>
      </trkpt>
      <trkpt lat="47.95424" lon="-3.8552">
        <ele>140</ele>
        <time>2023-04-05T15:15:36Z</time>
      </trkpt>
      <trkpt lat="47.95423" lon="-3.85526">
        <ele>140</ele>
        <time>2023-04-05T15:15:37Z</time>
      </trkpt>
      <trkpt lat="47.95421" lon="-3.85533">
        <ele>140</ele>
        <time>2023-04-05T15:15:38Z</time>
      </trkpt>
      <trkpt lat="47.95419" lon="-3.8554">
        <ele>140</ele>
        <time>2023-04-05T15:15:39Z</time>
      </trkpt>
      <trkpt lat="47.95418" lon="-3.85546">
        <ele>140</ele>
        <time>2023-04-05T15:15:40Z</time>
      </trkpt>
      <trkpt lat="47.95416" lon="-3.85553">
        <ele>140</ele>
        <time>2023-04-05T15:15:41Z</time>
      </trkpt>
      <trkpt lat="47.95414" lon="-3.8556">
        <ele>140</ele>
        <time>2023-04-05T15:15:42Z</time>
      </trkpt>
      <trkpt lat="47.95412" lon="-3.85567">
        <ele>140</ele>
        <time>2023-04-05T15:15:43Z</time>
      </trkpt>
      <trkpt lat="47.95411" lon="-3.85574">
        <ele>140</ele>
        <time>2023-04-05T15:15:44Z</time>
      </trkpt>
      <trkpt lat="47.95409" lon="-3.85582">
        <ele>140</ele>
        <time>2023-04-05T15:15:45Z</time>
      </trkpt>
      <trkpt lat="47.95408" lon="-3.85589">
        <ele>140</ele>
        <time>2023-04-05T15:15:46Z</time>
      </trkpt>
      <trkpt lat="47.95407" lon="-3.85596">
        <ele>140.1</ele>
        <time>2023-04-05T15:15:47Z</time>
      </trkpt>
      <trkpt lat="47.95407" lon="-3.85604">
        <ele>140.1</ele>
        <time>2023-04-05T15:15:48Z</time>
      </trkpt>
      <trkpt lat="47.95406" lon="-3.85611">
        <ele>140.1</ele>
        <time>2023-04-05T15:15:49Z</time>
      </trkpt>
      <trkpt lat="47.95404" lon="-3.85619">
        <ele>140.2</ele>
        <time>2023-04-05T15:15:50Z</time>
      </trkpt>
      <trkpt lat="47.95403" lon="-3.85626">
        <ele>140.3</ele>
        <time>2023-04-05T15:15:51Z</time>
      </trkpt>
      <trkpt lat="47.95401" lon="-3.85633">
        <ele>140.4</ele>
        <time>2023-04-05T15:15:52Z</time>
      </trkpt>
      <trkpt lat="47.954" lon="-3.8564">
        <ele>140.4</ele>
        <time>2023-04-05T15:15:53Z</time>
      </trkpt>
      <trkpt lat="47.95398" lon="-3.85646">
        <ele>140.5</ele>
        <time>2023-04-05T15:15:54Z</time>
      </trkpt>
      <trkpt lat="47.95397" lon="-3.85653">
        <ele>140.5</ele>
        <time>2023-04-05T15:15:55Z</time>
      </trkpt>
      <trkpt lat="47.95395" lon="-3.8566">
        <ele>140.6</ele>
        <time>2023-04-05T15:15:56Z</time>
      </trkpt>
      <trkpt lat="47.95394" lon="-3.85667">
        <ele>140.6</ele>
        <time>2023-04-05T15:15:57Z</time>
      </trkpt>
      <trkpt lat="47.95393" lon="-3.85674">
        <ele>140.7</ele>
        <time>2023-04-05T15:15:58Z</time>
      </trkpt>
      <trkpt lat="47.95391" lon="-3.8568">
        <ele>140.8</ele>
        <time>2023-04-05T15:15:59Z</time>
      </trkpt>
      <trkpt lat="47.95389" lon="-3.85687">
        <ele>140.8</ele>
        <time>2023-04-05T15:16:00Z</time>
      </trkpt>
      <trkpt lat="47.95388" lon="-3.85694">
        <ele>140.9</ele>
        <time>2023-04-05T15:16:01Z</time>
      </trkpt>
      <trkpt lat="47.95387" lon="-3.85701">
        <ele>141</ele>
        <time>2023-04-05T15:16:02Z</time>
      </trkpt>
      <trkpt lat="47.95386" lon="-3.85707">
        <ele>141</ele>
        <time>2023-04-05T15:16:03Z</time>
      </trkpt>
      <trkpt lat="47.95384" lon="-3.85714">
        <ele>141.1</ele>
        <time>2023-04-05T15:16:04Z</time>
      </trkpt>
      <trkpt lat="47.95383" lon="-3.85721">
        <ele>141.2</ele>
        <time>2023-04-05T15:16:05Z</time>
      </trkpt>
      <trkpt lat="47.95382" lon="-3.85728">
        <ele>141.3</ele>
        <time>2023-04-05T15:16:06Z</time>
      </trkpt>
      <trkpt lat="47.95381" lon="-3.85735">
        <ele>141.3</ele>
        <time>2023-04-05T15:16:07Z</time>
      </trkpt>
      <trkpt lat="47.95379" lon="-3.85742">
        <ele>141.4</ele>
        <time>2023-04-05T15:16:08Z</time>
      </trkpt>
      <trkpt lat="47.95378" lon="-3.85749">
        <ele>141.5</ele>
        <time>2023-04-05T15:16:09Z</time>
      </trkpt>
      <trkpt lat="47.95376" lon="-3.85756">
        <ele>141.6</ele>
        <time>2023-04-05T15:16:10Z</time>
      </trkpt>
      <trkpt lat="47.95375" lon="-3.85763">
        <ele>141.7</ele>
        <time>2023-04-05T15:16:11Z</time>
      </trkpt>
      <trkpt lat="47.95373" lon="-3.85769">
        <ele>141.7</ele>
        <time>2023-04-05T15:16:12Z</time>
      </trkpt>
      <trkpt lat="47.95372" lon="-3.85776">
        <ele>141.8</ele>
        <time>2023-04-05T15:16:13Z</time>
      </trkpt>
      <trkpt lat="47.95371" lon="-3.85783">
        <ele>141.9</ele>
        <time>2023-04-05T15:16:14Z</time>
      </trkpt>
      <trkpt lat="47.95369" lon="-3.8579">
        <ele>142</ele>
        <time>2023-04-05T15:16:15Z</time>
      </trkpt>
      <trkpt lat="47.95368" lon="-3.85797">
        <ele>142.1</ele>
        <time>2023-04-05T15:16:16Z</time>
      </trkpt>
      <trkpt lat="47.95367" lon="-3.85801">
        <ele>142.2</ele>
        <time>2023-04-05T15:16:17Z</time>
      </trkpt>
      <trkpt lat="47.95366" lon="-3.85806">
        <ele>142.2</ele>
        <time>2023-04-05T15:16:18Z</time>
      </trkpt>
      <trkpt lat="47.95365" lon="-3.85811">
        <ele>142.3</ele>
        <time>2023-04-05T15:16:19Z</time>
      </trkpt>
      <trkpt lat="47.95364" lon="-3.85817">
        <ele>142.4</ele>
        <time>2023-04-05T15:16:20Z</time>
      </trkpt>
      <trkpt lat="47.95362" lon="-3.85824">
        <ele>142.5</ele>
        <time>2023-04-05T15:16:21Z</time>
      </trkpt>
      <trkpt lat="47.9536" lon="-3.85832">
        <ele>142.6</ele>
        <time>2023-04-05T15:16:22Z</time>
      </trkpt>
      <trkpt lat="47.9536" lon="-3.85836">
        <ele>142.7</ele>
        <time>2023-04-05T15:16:23Z</time>
      </trkpt>
      <trkpt lat="47.95359" lon="-3.85847">
        <ele>142.9</ele>
        <time>2023-04-05T15:16:24Z</time>
      </trkpt>
      <trkpt lat="47.95356" lon="-3.8586">
        <ele>143.1</ele>
        <time>2023-04-05T15:16:26Z</time>
      </trkpt>
      <trkpt lat="47.95353" lon="-3.85872">
        <ele>143.3</ele>
        <time>2023-04-05T15:16:28Z</time>
      </trkpt>
      <trkpt lat="47.95352" lon="-3.85878">
        <ele>143.5</ele>
        <time>2023-04-05T15:16:30Z</time>
      </trkpt>
      <trkpt lat="47.9535" lon="-3.85884">
        <ele>143.6</ele>
        <time>2023-04-05T15:16:31Z</time>
      </trkpt>
      <trkpt lat="47.95349" lon="-3.8589">
        <ele>143.7</ele>
        <time>2023-04-05T15:16:32Z</time>
      </trkpt>
      <trkpt lat="47.95348" lon="-3.85902">
        <ele>144</ele>
        <time>2023-04-05T15:16:33Z</time>
      </trkpt>
      <trkpt lat="47.95347" lon="-3.85909">
        <ele>144.2</ele>
        <time>2023-04-05T15:16:34Z</time>
      </trkpt>
      <trkpt lat="47.95346" lon="-3.85916">
        <ele>144.4</ele>
        <time>2023-04-05T15:16:36Z</time>
      </trkpt>
      <trkpt lat="47.95345" lon="-3.85923">
        <ele>144.6</ele>
        <time>2023-04-05T15:16:37Z</time>
      </trkpt>
      <trkpt lat="47.95345" lon="-3.85929">
        <ele>144.8</ele>
        <time>2023-04-05T15:16:38Z</time>
      </trkpt>
      <trkpt lat="47.95344" lon="-3.85935">
        <ele>144.9</ele>
        <time>2023-04-05T15:16:39Z</time>
      </trkpt>
      <trkpt lat="47.95343" lon="-3.85942">
        <ele>145.2</ele>
        <time>2023-04-05T15:16:40Z</time>
      </trkpt>
      <trkpt lat="47.95341" lon="-3.85953">
        <ele>145.5</ele>
        <time>2023-04-05T15:16:41Z</time>
      </trkpt>
      <trkpt lat="47.95341" lon="-3.85958">
        <ele>145.7</ele>
        <time>2023-04-05T15:16:42Z</time>
      </trkpt>
      <trkpt lat="47.9534" lon="-3.85969">
        <ele>146.1</ele>
        <time>2023-04-05T15:16:44Z</time>
      </trkpt>
      <trkpt lat="47.9534" lon="-3.85974">
        <ele>146.2</ele>
        <time>2023-04-05T15:16:45Z</time>
      </trkpt>
      <trkpt lat="47.95339" lon="-3.8598">
        <ele>146.5</ele>
        <time>2023-04-05T15:16:47Z</time>
      </trkpt>
      <trkpt lat="47.95338" lon="-3.85985">
        <ele>146.6</ele>
        <time>2023-04-05T15:16:48Z</time>
      </trkpt>
      <trkpt lat="47.95337" lon="-3.8599">
        <ele>146.8</ele>
        <time>2023-04-05T15:16:49Z</time>
      </trkpt>
      <trkpt lat="47.95337" lon="-3.85995">
        <ele>146.9</ele>
        <time>2023-04-05T15:16:50Z</time>
      </trkpt>
      <trkpt lat="47.95337" lon="-3.86">
        <ele>147</ele>
        <time>2023-04-05T15:16:51Z</time>
      </trkpt>
      <trkpt lat="47.95337" lon="-3.86005">
        <ele>147.2</ele>
        <time>2023-04-05T15:16:52Z</time>
      </trkpt>
      <trkpt lat="47.95337" lon="-3.86011">
        <ele>147.3</ele>
        <time>2023-04-05T15:16:53Z</time>
      </trkpt>
      <trkpt lat="47.95336" lon="-3.86017">
        <ele>147.5</ele>
        <time>2023-04-05T15:16:54Z</time>
      </trkpt>
      <trkpt lat="47.95336" lon="-3.86023">
        <ele>147.6</ele>
        <time>2023-04-05T15:16:55Z</time>
      </trkpt>
      <trkpt lat="47.95335" lon="-3.86033">
        <ele>147.8</ele>
        <time>2023-04-05T15:16:56Z</time>
      </trkpt>
      <trkpt lat="47.95334" lon="-3.8604">
        <ele>148</ele>
        <time>2023-04-05T15:16:58Z</time>
      </trkpt>
      <trkpt lat="47.95334" lon="-3.8605">
        <ele>148.3</ele>
        <time>2023-04-05T15:16:59Z</time>
      </trkpt>
      <trkpt lat="47.95333" lon="-3.86057">
        <ele>148.5</ele>
        <time>2023-04-05T15:17:00Z</time>
      </trkpt>
      <trkpt lat="47.95333" lon="-3.86064">
        <ele>148.6</ele>
        <time>2023-04-05T15:17:02Z</time>
      </trkpt>
      <trkpt lat="47.95332" lon="-3.8607">
        <ele>148.8</ele>
        <time>2023-04-05T15:17:03Z</time>
      </trkpt>
      <trkpt lat="47.95332" lon="-3.86076">
        <ele>148.9</ele>
        <time>2023-04-05T15:17:04Z</time>
      </trkpt>
      <trkpt lat="47.95332" lon="-3.86082">
        <ele>149</ele>
        <time>2023-04-05T15:17:05Z</time>
      </trkpt>
      <trkpt lat="47.95331" lon="-3.86089">
        <ele>149.1</ele>
        <time>2023-04-05T15:17:06Z</time>
      </trkpt>
      <trkpt lat="47.95331" lon="-3.86096">
        <ele>149.2</ele>
        <time>2023-04-05T15:17:07Z</time>
      </trkpt>
      <trkpt lat="47.9533" lon="-3.86104">
        <ele>149.3</ele>
        <time>2023-04-05T15:17:08Z</time>
      </trkpt>
      <trkpt lat="47.95329" lon="-3.86111">
        <ele>149.4</ele>
        <time>2023-04-05T15:17:09Z</time>
      </trkpt>
      <trkpt lat="47.95328" lon="-3.86117">
        <ele>149.5</ele>
        <time>2023-04-05T15:17:10Z</time>
      </trkpt>
      <trkpt lat="47.95327" lon="-3.86122">
        <ele>149.5</ele>
        <time>2023-04-05T15:17:11Z</time>
      </trkpt>
      <trkpt lat="47.95325" lon="-3.86134">
        <ele>149.7</ele>
        <time>2023-04-05T15:17:12Z</time>
      </trkpt>
      <trkpt lat="47.95324" lon="-3.8614">
        <ele>149.7</ele>
        <time>2023-04-05T15:17:14Z</time>
      </trkpt>
      <trkpt lat="47.95323" lon="-3.86146">
        <ele>149.8</ele>
        <time>2023-04-05T15:17:15Z</time>
      </trkpt>
      <trkpt lat="47.95321" lon="-3.86157">
        <ele>149.9</ele>
        <time>2023-04-05T15:17:16Z</time>
      </trkpt>
      <trkpt lat="47.95318" lon="-3.8617">
        <ele>150</ele>
        <time>2023-04-05T15:17:18Z</time>
      </trkpt>
      <trkpt lat="47.95317" lon="-3.86177">
        <ele>150.1</ele>
        <time>2023-04-05T15:17:20Z</time>
      </trkpt>
      <trkpt lat="47.95316" lon="-3.86185">
        <ele>150.1</ele>
        <time>2023-04-05T15:17:21Z</time>
      </trkpt>
      <trkpt lat="47.95315" lon="-3.86192">
        <ele>150.2</ele>
        <time>2023-04-05T15:17:22Z</time>
      </trkpt>
      <trkpt lat="47.95313" lon="-3.86199">
        <ele>150.2</ele>
        <time>2023-04-05T15:17:23Z</time>
      </trkpt>
      <trkpt lat="47.95312" lon="-3.86206">
        <ele>150.3</ele>
        <time>2023-04-05T15:17:24Z</time>
      </trkpt>
      <trkpt lat="47.95311" lon="-3.86213">
        <ele>150.3</ele>
        <time>2023-04-05T15:17:25Z</time>
      </trkpt>
      <trkpt lat="47.95309" lon="-3.86219">
        <ele>150.4</ele>
        <time>2023-04-05T15:17:26Z</time>
      </trkpt>
      <trkpt lat="47.95308" lon="-3.86226">
        <ele>150.4</ele>
        <time>2023-04-05T15:17:27Z</time>
      </trkpt>
      <trkpt lat="47.95307" lon="-3.86232">
        <ele>150.5</ele>
        <time>2023-04-05T15:17:28Z</time>
      </trkpt>
      <trkpt lat="47.95306" lon="-3.86239">
        <ele>150.5</ele>
        <time>2023-04-05T15:17:29Z</time>
      </trkpt>
      <trkpt lat="47.95305" lon="-3.86245">
        <ele>150.6</ele>
        <time>2023-04-05T15:17:30Z</time>
      </trkpt>
      <trkpt lat="47.95304" lon="-3.86252">
        <ele>150.6</ele>
        <time>2023-04-05T15:17:31Z</time>
      </trkpt>
      <trkpt lat="47.95303" lon="-3.86259">
        <ele>150.7</ele>
        <time>2023-04-05T15:17:32Z</time>
      </trkpt>
      <trkpt lat="47.95302" lon="-3.86266">
        <ele>150.7</ele>
        <time>2023-04-05T15:17:33Z</time>
      </trkpt>
      <trkpt lat="47.95301" lon="-3.86272">
        <ele>150.8</ele>
        <time>2023-04-05T15:17:34Z</time>
      </trkpt>
      <trkpt lat="47.953" lon="-3.86279">
        <ele>150.8</ele>
        <time>2023-04-05T15:17:35Z</time>
      </trkpt>
      <trkpt lat="47.95299" lon="-3.86286">
        <ele>150.8</ele>
        <time>2023-04-05T15:17:36Z</time>
      </trkpt>
      <trkpt lat="47.95299" lon="-3.86293">
        <ele>150.9</ele>
        <time>2023-04-05T15:17:37Z</time>
      </trkpt>
      <trkpt lat="47.95298" lon="-3.86299">
        <ele>150.9</ele>
        <time>2023-04-05T15:17:38Z</time>
      </trkpt>
      <trkpt lat="47.95297" lon="-3.86306">
        <ele>150.9</ele>
        <time>2023-04-05T15:17:39Z</time>
      </trkpt>
      <trkpt lat="47.95296" lon="-3.86312">
        <ele>151</ele>
        <time>2023-04-05T15:17:40Z</time>
      </trkpt>
      <trkpt lat="47.95295" lon="-3.86319">
        <ele>151</ele>
        <time>2023-04-05T15:17:41Z</time>
      </trkpt>
      <trkpt lat="47.95294" lon="-3.86325">
        <ele>151.1</ele>
        <time>2023-04-05T15:17:42Z</time>
      </trkpt>
      <trkpt lat="47.95294" lon="-3.86332">
        <ele>151.1</ele>
        <time>2023-04-05T15:17:43Z</time>
      </trkpt>
      <trkpt lat="47.95293" lon="-3.86339">
        <ele>151.1</ele>
        <time>2023-04-05T15:17:44Z</time>
      </trkpt>
      <trkpt lat="47.95292" lon="-3.86346">
        <ele>151.2</ele>
        <time>2023-04-05T15:17:45Z</time>
      </trkpt>
      <trkpt lat="47.95291" lon="-3.86353">
        <ele>151.2</ele>
        <time>2023-04-05T15:17:46Z</time>
      </trkpt>
      <trkpt lat="47.9529" lon="-3.8636">
        <ele>151.2</ele>
        <time>2023-04-05T15:17:47Z</time>
      </trkpt>
      <trkpt lat="47.95289" lon="-3.86367">
        <ele>151.2</ele>
        <time>2023-04-05T15:17:48Z</time>
      </trkpt>
      <trkpt lat="47.95288" lon="-3.86375">
        <ele>151.2</ele>
        <time>2023-04-05T15:17:49Z</time>
      </trkpt>
      <trkpt lat="47.95288" lon="-3.86382">
        <ele>151.2</ele>
        <time>2023-04-05T15:17:50Z</time>
      </trkpt>
      <trkpt lat="47.95287" lon="-3.86389">
        <ele>151.2</ele>
        <time>2023-04-05T15:17:51Z</time>
      </trkpt>
      <trkpt lat="47.95287" lon="-3.86397">
        <ele>151.2</ele>
        <time>2023-04-05T15:17:52Z</time>
      </trkpt>
      <trkpt lat="47.95286" lon="-3.86404">
        <ele>151.2</ele>
        <time>2023-04-05T15:17:53Z</time>
      </trkpt>
      <trkpt lat="47.95286" lon="-3.86411">
        <ele>151.2</ele>
        <time>2023-04-05T15:17:54Z</time>
      </trkpt>
      <trkpt lat="47.95285" lon="-3.86419">
        <ele>151.2</ele>
        <time>2023-04-05T15:17:55Z</time>
      </trkpt>
      <trkpt lat="47.95285" lon="-3.86426">
        <ele>151.2</ele>
        <time>2023-04-05T15:17:56Z</time>
      </trkpt>
      <trkpt lat="47.95284" lon="-3.86434">
        <ele>151.2</ele>
        <time>2023-04-05T15:17:57Z</time>
      </trkpt>
      <trkpt lat="47.95284" lon="-3.86441">
        <ele>151.2</ele>
        <time>2023-04-05T15:17:58Z</time>
      </trkpt>
      <trkpt lat="47.95283" lon="-3.86449">
        <ele>151.2</ele>
        <time>2023-04-05T15:17:59Z</time>
      </trkpt>
      <trkpt lat="47.95282" lon="-3.86456">
        <ele>151.2</ele>
        <time>2023-04-05T15:18:00Z</time>
      </trkpt>
      <trkpt lat="47.95281" lon="-3.86464">
        <ele>151.2</ele>
        <time>2023-04-05T15:18:01Z</time>
      </trkpt>
      <trkpt lat="47.9528" lon="-3.86471">
        <ele>151.3</ele>
        <time>2023-04-05T15:18:02Z</time>
      </trkpt>
      <trkpt lat="47.9528" lon="-3.86479">
        <ele>151.3</ele>
        <time>2023-04-05T15:18:03Z</time>
      </trkpt>
      <trkpt lat="47.95279" lon="-3.86486">
        <ele>151.3</ele>
        <time>2023-04-05T15:18:04Z</time>
      </trkpt>
      <trkpt lat="47.95278" lon="-3.86493">
        <ele>151.4</ele>
        <time>2023-04-05T15:18:05Z</time>
      </trkpt>
      <trkpt lat="47.95278" lon="-3.86501">
        <ele>151.4</ele>
        <time>2023-04-05T15:18:06Z</time>
      </trkpt>
      <trkpt lat="47.95277" lon="-3.86508">
        <ele>151.5</ele>
        <time>2023-04-05T15:18:07Z</time>
      </trkpt>
      <trkpt lat="47.95277" lon="-3.86514">
        <ele>151.5</ele>
        <time>2023-04-05T15:18:08Z</time>
      </trkpt>
      <trkpt lat="47.95276" lon="-3.86522">
        <ele>151.6</ele>
        <time>2023-04-05T15:18:09Z</time>
      </trkpt>
      <trkpt lat="47.95275" lon="-3.86528">
        <ele>151.7</ele>
        <time>2023-04-05T15:18:10Z</time>
      </trkpt>
      <trkpt lat="47.95274" lon="-3.86533">
        <ele>151.7</ele>
        <time>2023-04-05T15:18:11Z</time>
      </trkpt>
      <trkpt lat="47.95274" lon="-3.86539">
        <ele>151.8</ele>
        <time>2023-04-05T15:18:12Z</time>
      </trkpt>
      <trkpt lat="47.95274" lon="-3.86544">
        <ele>151.8</ele>
        <time>2023-04-05T15:18:13Z</time>
      </trkpt>
      <trkpt lat="47.95274" lon="-3.86548">
        <ele>151.9</ele>
        <time>2023-04-05T15:18:14Z</time>
      </trkpt>
      <trkpt lat="47.95274" lon="-3.86552">
        <ele>151.9</ele>
        <time>2023-04-05T15:18:15Z</time>
      </trkpt>
      <trkpt lat="47.95274" lon="-3.86557">
        <ele>151.9</ele>
        <time>2023-04-05T15:18:16Z</time>
      </trkpt>
      <trkpt lat="47.95273" lon="-3.86564">
        <ele>151.8</ele>
        <time>2023-04-05T15:18:17Z</time>
      </trkpt>
      <trkpt lat="47.95273" lon="-3.86569">
        <ele>151.8</ele>
        <time>2023-04-05T15:18:18Z</time>
      </trkpt>
      <trkpt lat="47.95273" lon="-3.86574">
        <ele>151.8</ele>
        <time>2023-04-05T15:18:19Z</time>
      </trkpt>
      <trkpt lat="47.95272" lon="-3.86581">
        <ele>151.8</ele>
        <time>2023-04-05T15:18:20Z</time>
      </trkpt>
      <trkpt lat="47.95272" lon="-3.86587">
        <ele>151.8</ele>
        <time>2023-04-05T15:18:21Z</time>
      </trkpt>
      <trkpt lat="47.95271" lon="-3.86594">
        <ele>151.8</ele>
        <time>2023-04-05T15:18:22Z</time>
      </trkpt>
      <trkpt lat="47.95271" lon="-3.86601">
        <ele>151.8</ele>
        <time>2023-04-05T15:18:23Z</time>
      </trkpt>
      <trkpt lat="47.95271" lon="-3.86608">
        <ele>151.8</ele>
        <time>2023-04-05T15:18:24Z</time>
      </trkpt>
      <trkpt lat="47.95271" lon="-3.86615">
        <ele>151.9</ele>
        <time>2023-04-05T15:18:25Z</time>
      </trkpt>
      <trkpt lat="47.9527" lon="-3.86622">
        <ele>151.9</ele>
        <time>2023-04-05T15:18:26Z</time>
      </trkpt>
      <trkpt lat="47.9527" lon="-3.86628">
        <ele>152</ele>
        <time>2023-04-05T15:18:27Z</time>
      </trkpt>
      <trkpt lat="47.95269" lon="-3.86635">
        <ele>152.1</ele>
        <time>2023-04-05T15:18:28Z</time>
      </trkpt>
      <trkpt lat="47.95268" lon="-3.86641">
        <ele>152.1</ele>
        <time>2023-04-05T15:18:29Z</time>
      </trkpt>
      <trkpt lat="47.95268" lon="-3.86648">
        <ele>152.2</ele>
        <time>2023-04-05T15:18:30Z</time>
      </trkpt>
      <trkpt lat="47.95268" lon="-3.86654">
        <ele>152.3</ele>
        <time>2023-04-05T15:18:31Z</time>
      </trkpt>
      <trkpt lat="47.95267" lon="-3.86661">
        <ele>152.4</ele>
        <time>2023-04-05T15:18:32Z</time>
      </trkpt>
      <trkpt lat="47.95267" lon="-3.86667">
        <ele>152.4</ele>
        <time>2023-04-05T15:18:33Z</time>
      </trkpt>
      <trkpt lat="47.95267" lon="-3.86673">
        <ele>152.5</ele>
        <time>2023-04-05T15:18:34Z</time>
      </trkpt>
      <trkpt lat="47.95266" lon="-3.86679">
        <ele>152.6</ele>
        <time>2023-04-05T15:18:35Z</time>
      </trkpt>
      <trkpt lat="47.95266" lon="-3.86685">
        <ele>152.7</ele>
        <time>2023-04-05T15:18:36Z</time>
      </trkpt>
      <trkpt lat="47.95265" lon="-3.86691">
        <ele>152.8</ele>
        <time>2023-04-05T15:18:37Z</time>
      </trkpt>
      <trkpt lat="47.95264" lon="-3.86698">
        <ele>152.9</ele>
        <time>2023-04-05T15:18:38Z</time>
      </trkpt>
      <trkpt lat="47.95264" lon="-3.86704">
        <ele>153</ele>
        <time>2023-04-05T15:18:39Z</time>
      </trkpt>
      <trkpt lat="47.95263" lon="-3.8671">
        <ele>153.1</ele>
        <time>2023-04-05T15:18:40Z</time>
      </trkpt>
      <trkpt lat="47.95263" lon="-3.86717">
        <ele>153.2</ele>
        <time>2023-04-05T15:18:41Z</time>
      </trkpt>
      <trkpt lat="47.95262" lon="-3.86723">
        <ele>153.3</ele>
        <time>2023-04-05T15:18:42Z</time>
      </trkpt>
      <trkpt lat="47.95262" lon="-3.86731">
        <ele>153.4</ele>
        <time>2023-04-05T15:18:43Z</time>
      </trkpt>
      <trkpt lat="47.95261" lon="-3.86738">
        <ele>153.5</ele>
        <time>2023-04-05T15:18:44Z</time>
      </trkpt>
      <trkpt lat="47.9526" lon="-3.86744">
        <ele>153.5</ele>
        <time>2023-04-05T15:18:45Z</time>
      </trkpt>
      <trkpt lat="47.95259" lon="-3.86751">
        <ele>153.6</ele>
        <time>2023-04-05T15:18:46Z</time>
      </trkpt>
      <trkpt lat="47.95259" lon="-3.86757">
        <ele>153.7</ele>
        <time>2023-04-05T15:18:47Z</time>
      </trkpt>
      <trkpt lat="47.95259" lon="-3.86764">
        <ele>153.8</ele>
        <time>2023-04-05T15:18:48Z</time>
      </trkpt>
      <trkpt lat="47.95258" lon="-3.86771">
        <ele>153.9</ele>
        <time>2023-04-05T15:18:49Z</time>
      </trkpt>
      <trkpt lat="47.95257" lon="-3.86778">
        <ele>154</ele>
        <time>2023-04-05T15:18:50Z</time>
      </trkpt>
      <trkpt lat="47.95256" lon="-3.86785">
        <ele>154.1</ele>
        <time>2023-04-05T15:18:51Z</time>
      </trkpt>
      <trkpt lat="47.95255" lon="-3.86792">
        <ele>154.2</ele>
        <time>2023-04-05T15:18:52Z</time>
      </trkpt>
      <trkpt lat="47.95254" lon="-3.86799">
        <ele>154.3</ele>
        <time>2023-04-05T15:18:53Z</time>
      </trkpt>
      <trkpt lat="47.95253" lon="-3.86806">
        <ele>154.4</ele>
        <time>2023-04-05T15:18:54Z</time>
      </trkpt>
      <trkpt lat="47.95252" lon="-3.86812">
        <ele>154.6</ele>
        <time>2023-04-05T15:18:55Z</time>
      </trkpt>
      <trkpt lat="47.9525" lon="-3.86818">
        <ele>154.7</ele>
        <time>2023-04-05T15:18:56Z</time>
      </trkpt>
      <trkpt lat="47.95248" lon="-3.86824">
        <ele>154.9</ele>
        <time>2023-04-05T15:18:57Z</time>
      </trkpt>
      <trkpt lat="47.95247" lon="-3.86829">
        <ele>155</ele>
        <time>2023-04-05T15:18:58Z</time>
      </trkpt>
      <trkpt lat="47.95246" lon="-3.86837">
        <ele>155.2</ele>
        <time>2023-04-05T15:18:59Z</time>
      </trkpt>
      <trkpt lat="47.95244" lon="-3.86842">
        <ele>155.3</ele>
        <time>2023-04-05T15:19:00Z</time>
      </trkpt>
      <trkpt lat="47.95243" lon="-3.86846">
        <ele>155.5</ele>
        <time>2023-04-05T15:19:01Z</time>
      </trkpt>
      <trkpt lat="47.95242" lon="-3.86852">
        <ele>155.6</ele>
        <time>2023-04-05T15:19:02Z</time>
      </trkpt>
      <trkpt lat="47.9524" lon="-3.8686">
        <ele>155.8</ele>
        <time>2023-04-05T15:19:03Z</time>
      </trkpt>
      <trkpt lat="47.95238" lon="-3.86869">
        <ele>156.1</ele>
        <time>2023-04-05T15:19:04Z</time>
      </trkpt>
      <trkpt lat="47.95237" lon="-3.86874">
        <ele>156.2</ele>
        <time>2023-04-05T15:19:05Z</time>
      </trkpt>
      <trkpt lat="47.95236" lon="-3.86877">
        <ele>156.3</ele>
        <time>2023-04-05T15:19:06Z</time>
      </trkpt>
      <trkpt lat="47.95234" lon="-3.86885">
        <ele>156.6</ele>
        <time>2023-04-05T15:19:07Z</time>
      </trkpt>
      <trkpt lat="47.95233" lon="-3.86892">
        <ele>156.8</ele>
        <time>2023-04-05T15:19:08Z</time>
      </trkpt>
      <trkpt lat="47.95231" lon="-3.86901">
        <ele>157.1</ele>
        <time>2023-04-05T15:19:10Z</time>
      </trkpt>
      <trkpt lat="47.95229" lon="-3.86906">
        <ele>157.2</ele>
        <time>2023-04-05T15:19:11Z</time>
      </trkpt>
      <trkpt lat="47.95228" lon="-3.86911">
        <ele>157.4</ele>
        <time>2023-04-05T15:19:12Z</time>
      </trkpt>
      <trkpt lat="47.95227" lon="-3.86916">
        <ele>157.5</ele>
        <time>2023-04-05T15:19:13Z</time>
      </trkpt>
      <trkpt lat="47.95225" lon="-3.86922">
        <ele>157.7</ele>
        <time>2023-04-05T15:19:14Z</time>
      </trkpt>
      <trkpt lat="47.95224" lon="-3.86927">
        <ele>157.8</ele>
        <time>2023-04-05T15:19:15Z</time>
      </trkpt>
      <trkpt lat="47.95222" lon="-3.86932">
        <ele>157.9</ele>
        <time>2023-04-05T15:19:16Z</time>
      </trkpt>
      <trkpt lat="47.9522" lon="-3.86937">
        <ele>158</ele>
        <time>2023-04-05T15:19:17Z</time>
      </trkpt>
      <trkpt lat="47.95219" lon="-3.86942">
        <ele>158.1</ele>
        <time>2023-04-05T15:19:18Z</time>
      </trkpt>
      <trkpt lat="47.95217" lon="-3.86948">
        <ele>158.2</ele>
        <time>2023-04-05T15:19:19Z</time>
      </trkpt>
      <trkpt lat="47.95215" lon="-3.86953">
        <ele>158.3</ele>
        <time>2023-04-05T15:19:20Z</time>
      </trkpt>
      <trkpt lat="47.95213" lon="-3.86959">
        <ele>158.4</ele>
        <time>2023-04-05T15:19:21Z</time>
      </trkpt>
      <trkpt lat="47.95211" lon="-3.86964">
        <ele>158.4</ele>
        <time>2023-04-05T15:19:22Z</time>
      </trkpt>
      <trkpt lat="47.95209" lon="-3.86969">
        <ele>158.5</ele>
        <time>2023-04-05T15:19:23Z</time>
      </trkpt>
      <trkpt lat="47.95207" lon="-3.86976">
        <ele>158.5</ele>
        <time>2023-04-05T15:19:24Z</time>
      </trkpt>
      <trkpt lat="47.95205" lon="-3.86981">
        <ele>158.5</ele>
        <time>2023-04-05T15:19:25Z</time>
      </trkpt>
      <trkpt lat="47.95202" lon="-3.86989">
        <ele>158.6</ele>
        <time>2023-04-05T15:19:26Z</time>
      </trkpt>
      <trkpt lat="47.952" lon="-3.86995">
        <ele>158.5</ele>
        <time>2023-04-05T15:19:27Z</time>
      </trkpt>
      <trkpt lat="47.95198" lon="-3.87">
        <ele>158.5</ele>
        <time>2023-04-05T15:19:28Z</time>
      </trkpt>
      <trkpt lat="47.95195" lon="-3.87006">
        <ele>158.5</ele>
        <time>2023-04-05T15:19:29Z</time>
      </trkpt>
      <trkpt lat="47.95193" lon="-3.87012">
        <ele>158.5</ele>
        <time>2023-04-05T15:19:30Z</time>
      </trkpt>
      <trkpt lat="47.95191" lon="-3.87017">
        <ele>158.5</ele>
        <time>2023-04-05T15:19:31Z</time>
      </trkpt>
      <trkpt lat="47.95188" lon="-3.87024">
        <ele>158.4</ele>
        <time>2023-04-05T15:19:32Z</time>
      </trkpt>
      <trkpt lat="47.95185" lon="-3.8703">
        <ele>158.4</ele>
        <time>2023-04-05T15:19:33Z</time>
      </trkpt>
      <trkpt lat="47.95182" lon="-3.87035">
        <ele>158.4</ele>
        <time>2023-04-05T15:19:34Z</time>
      </trkpt>
      <trkpt lat="47.9518" lon="-3.87041">
        <ele>158.4</ele>
        <time>2023-04-05T15:19:35Z</time>
      </trkpt>
      <trkpt lat="47.95177" lon="-3.87047">
        <ele>158.3</ele>
        <time>2023-04-05T15:19:36Z</time>
      </trkpt>
      <trkpt lat="47.95174" lon="-3.87053">
        <ele>158.3</ele>
        <time>2023-04-05T15:19:37Z</time>
      </trkpt>
      <trkpt lat="47.95171" lon="-3.87059">
        <ele>158.2</ele>
        <time>2023-04-05T15:19:38Z</time>
      </trkpt>
      <trkpt lat="47.95168" lon="-3.87065">
        <ele>158.1</ele>
        <time>2023-04-05T15:19:39Z</time>
      </trkpt>
      <trkpt lat="47.95164" lon="-3.87072">
        <ele>158</ele>
        <time>2023-04-05T15:19:40Z</time>
      </trkpt>
      <trkpt lat="47.95161" lon="-3.87079">
        <ele>157.9</ele>
        <time>2023-04-05T15:19:41Z</time>
      </trkpt>
      <trkpt lat="47.95157" lon="-3.87086">
        <ele>157.8</ele>
        <time>2023-04-05T15:19:42Z</time>
      </trkpt>
      <trkpt lat="47.95154" lon="-3.87094">
        <ele>157.7</ele>
        <time>2023-04-05T15:19:43Z</time>
      </trkpt>
      <trkpt lat="47.95152" lon="-3.87102">
        <ele>157.6</ele>
        <time>2023-04-05T15:19:44Z</time>
      </trkpt>
      <trkpt lat="47.9515" lon="-3.87111">
        <ele>157.5</ele>
        <time>2023-04-05T15:19:45Z</time>
      </trkpt>
      <trkpt lat="47.95147" lon="-3.87119">
        <ele>157.4</ele>
        <time>2023-04-05T15:19:46Z</time>
      </trkpt>
      <trkpt lat="47.95145" lon="-3.87128">
        <ele>157.3</ele>
        <time>2023-04-05T15:19:47Z</time>
      </trkpt>
      <trkpt lat="47.95143" lon="-3.87136">
        <ele>157.2</ele>
        <time>2023-04-05T15:19:48Z</time>
      </trkpt>
      <trkpt lat="47.95141" lon="-3.87145">
        <ele>157</ele>
        <time>2023-04-05T15:19:49Z</time>
      </trkpt>
      <trkpt lat="47.9514" lon="-3.87153">
        <ele>156.9</ele>
        <time>2023-04-05T15:19:50Z</time>
      </trkpt>
      <trkpt lat="47.95138" lon="-3.87162">
        <ele>156.8</ele>
        <time>2023-04-05T15:19:51Z</time>
      </trkpt>
      <trkpt lat="47.95137" lon="-3.8717">
        <ele>156.7</ele>
        <time>2023-04-05T15:19:52Z</time>
      </trkpt>
      <trkpt lat="47.95136" lon="-3.87179">
        <ele>156.6</ele>
        <time>2023-04-05T15:19:53Z</time>
      </trkpt>
      <trkpt lat="47.95135" lon="-3.87188">
        <ele>156.4</ele>
        <time>2023-04-05T15:19:54Z</time>
      </trkpt>
      <trkpt lat="47.95134" lon="-3.87196">
        <ele>156.3</ele>
        <time>2023-04-05T15:19:55Z</time>
      </trkpt>
      <trkpt lat="47.95133" lon="-3.87205">
        <ele>156.1</ele>
        <time>2023-04-05T15:19:56Z</time>
      </trkpt>
      <trkpt lat="47.95132" lon="-3.87214">
        <ele>155.9</ele>
        <time>2023-04-05T15:19:57Z</time>
      </trkpt>
      <trkpt lat="47.95131" lon="-3.87224">
        <ele>155.7</ele>
        <time>2023-04-05T15:19:58Z</time>
      </trkpt>
      <trkpt lat="47.9513" lon="-3.87234">
        <ele>155.5</ele>
        <time>2023-04-05T15:19:59Z</time>
      </trkpt>
      <trkpt lat="47.95129" lon="-3.87244">
        <ele>155.3</ele>
        <time>2023-04-05T15:20:00Z</time>
      </trkpt>
      <trkpt lat="47.95128" lon="-3.87254">
        <ele>155.1</ele>
        <time>2023-04-05T15:20:01Z</time>
      </trkpt>
      <trkpt lat="47.95128" lon="-3.87265">
        <ele>154.8</ele>
        <time>2023-04-05T15:20:02Z</time>
      </trkpt>
      <trkpt lat="47.95127" lon="-3.87275">
        <ele>154.6</ele>
        <time>2023-04-05T15:20:03Z</time>
      </trkpt>
      <trkpt lat="47.95127" lon="-3.87286">
        <ele>154.3</ele>
        <time>2023-04-05T15:20:04Z</time>
      </trkpt>
      <trkpt lat="47.95126" lon="-3.87296">
        <ele>154</ele>
        <time>2023-04-05T15:20:05Z</time>
      </trkpt>
      <trkpt lat="47.95126" lon="-3.87307">
        <ele>153.7</ele>
        <time>2023-04-05T15:20:06Z</time>
      </trkpt>
      <trkpt lat="47.95124" lon="-3.87317">
        <ele>153.5</ele>
        <time>2023-04-05T15:20:07Z</time>
      </trkpt>
      <trkpt lat="47.95123" lon="-3.87327">
        <ele>153.1</ele>
        <time>2023-04-05T15:20:08Z</time>
      </trkpt>
      <trkpt lat="47.9512" lon="-3.87337">
        <ele>152.7</ele>
        <time>2023-04-05T15:20:09Z</time>
      </trkpt>
      <trkpt lat="47.95118" lon="-3.87348">
        <ele>152.3</ele>
        <time>2023-04-05T15:20:10Z</time>
      </trkpt>
      <trkpt lat="47.95115" lon="-3.87358">
        <ele>151.8</ele>
        <time>2023-04-05T15:20:11Z</time>
      </trkpt>
      <trkpt lat="47.95112" lon="-3.87369">
        <ele>151.3</ele>
        <time>2023-04-05T15:20:12Z</time>
      </trkpt>
      <trkpt lat="47.95108" lon="-3.8738">
        <ele>150.9</ele>
        <time>2023-04-05T15:20:13Z</time>
      </trkpt>
      <trkpt lat="47.95104" lon="-3.87391">
        <ele>150.4</ele>
        <time>2023-04-05T15:20:14Z</time>
      </trkpt>
      <trkpt lat="47.951" lon="-3.87403">
        <ele>149.9</ele>
        <time>2023-04-05T15:20:15Z</time>
      </trkpt>
      <trkpt lat="47.95095" lon="-3.87414">
        <ele>149.5</ele>
        <time>2023-04-05T15:20:16Z</time>
      </trkpt>
      <trkpt lat="47.95091" lon="-3.87426">
        <ele>149</ele>
        <time>2023-04-05T15:20:17Z</time>
      </trkpt>
      <trkpt lat="47.95087" lon="-3.87437">
        <ele>148.7</ele>
        <time>2023-04-05T15:20:18Z</time>
      </trkpt>
      <trkpt lat="47.95084" lon="-3.87447">
        <ele>148.5</ele>
        <time>2023-04-05T15:20:19Z</time>
      </trkpt>
      <trkpt lat="47.95081" lon="-3.87457">
        <ele>148.3</ele>
        <time>2023-04-05T15:20:20Z</time>
      </trkpt>
      <trkpt lat="47.9508" lon="-3.87467">
        <ele>148.2</ele>
        <time>2023-04-05T15:20:21Z</time>
      </trkpt>
      <trkpt lat="47.95081" lon="-3.87477">
        <ele>148.1</ele>
        <time>2023-04-05T15:20:22Z</time>
      </trkpt>
      <trkpt lat="47.95081" lon="-3.87485">
        <ele>148</ele>
        <time>2023-04-05T15:20:23Z</time>
      </trkpt>
      <trkpt lat="47.95081" lon="-3.87492">
        <ele>147.8</ele>
        <time>2023-04-05T15:20:24Z</time>
      </trkpt>
      <trkpt lat="47.9508" lon="-3.87498">
        <ele>147.6</ele>
        <time>2023-04-05T15:20:25Z</time>
      </trkpt>
      <trkpt lat="47.95078" lon="-3.87501">
        <ele>147.4</ele>
        <time>2023-04-05T15:20:26Z</time>
      </trkpt>
      <trkpt lat="47.95074" lon="-3.87503">
        <ele>147.2</ele>
        <time>2023-04-05T15:20:27Z</time>
      </trkpt>
      <trkpt lat="47.9507" lon="-3.87504">
        <ele>146.9</ele>
        <time>2023-04-05T15:20:28Z</time>
      </trkpt>
      <trkpt lat="47.95064" lon="-3.87502">
        <ele>146.6</ele>
        <time>2023-04-05T15:20:29Z</time>
      </trkpt>
      <trkpt lat="47.9506" lon="-3.87499">
        <ele>146.3</ele>
        <time>2023-04-05T15:20:30Z</time>
      </trkpt>
      <trkpt lat="47.95056" lon="-3.87497">
        <ele>146</ele>
        <time>2023-04-05T15:20:31Z</time>
      </trkpt>
      <trkpt lat="47.9505" lon="-3.87497">
        <ele>145.6</ele>
        <time>2023-04-05T15:20:32Z</time>
      </trkpt>
      <trkpt lat="47.95044" lon="-3.87496">
        <ele>145.3</ele>
        <time>2023-04-05T15:20:33Z</time>
      </trkpt>
      <trkpt lat="47.95038" lon="-3.87496">
        <ele>144.9</ele>
        <time>2023-04-05T15:20:34Z</time>
      </trkpt>
      <trkpt lat="47.95035" lon="-3.87498">
        <ele>144.7</ele>
        <time>2023-04-05T15:20:35Z</time>
      </trkpt>
      <trkpt lat="47.95035" lon="-3.87499">
        <ele>144.6</ele>
        <time>2023-04-05T15:20:36Z</time>
      </trkpt>
      <trkpt lat="47.95034" lon="-3.875">
        <ele>144.6</ele>
        <time>2023-04-05T15:20:37Z</time>
      </trkpt>
      <trkpt lat="47.95034" lon="-3.87501">
        <ele>144.5</ele>
        <time>2023-04-05T15:20:39Z</time>
      </trkpt>
      <trkpt lat="47.95033" lon="-3.87502">
        <ele>144.5</ele>
        <time>2023-04-05T15:20:40Z</time>
      </trkpt>
      <trkpt lat="47.95033" lon="-3.87503">
        <ele>144.4</ele>
        <time>2023-04-05T15:20:41Z</time>
      </trkpt>
      <trkpt lat="47.95032" lon="-3.87504">
        <ele>144.3</ele>
        <time>2023-04-05T15:20:42Z</time>
      </trkpt>
      <trkpt lat="47.95032" lon="-3.87505">
        <ele>144.3</ele>
        <time>2023-04-05T15:20:43Z</time>
      </trkpt>
      <trkpt lat="47.95031" lon="-3.87506">
        <ele>144.2</ele>
        <time>2023-04-05T15:20:44Z</time>
      </trkpt>
      <trkpt lat="47.95031" lon="-3.87507">
        <ele>144.2</ele>
        <time>2023-04-05T15:20:45Z</time>
      </trkpt>
      <trkpt lat="47.9503" lon="-3.87508">
        <ele>144.1</ele>
        <time>2023-04-05T15:20:46Z</time>
      </trkpt>
      <trkpt lat="47.95029" lon="-3.8751">
        <ele>144.1</ele>
        <time>2023-04-05T15:20:51Z</time>
      </trkpt>
      <trkpt lat="47.95029" lon="-3.87511">
        <ele>144</ele>
        <time>2023-04-05T15:20:52Z</time>
      </trkpt>
      <trkpt lat="47.95023" lon="-3.87517">
        <ele>143.7</ele>
        <time>2023-04-05T15:20:53Z</time>
      </trkpt>
      <trkpt lat="47.95017" lon="-3.87524">
        <ele>143.4</ele>
        <time>2023-04-05T15:20:54Z</time>
      </trkpt>
      <trkpt lat="47.95013" lon="-3.87529">
        <ele>143.2</ele>
        <time>2023-04-05T15:20:55Z</time>
      </trkpt>
      <trkpt lat="47.95009" lon="-3.87535">
        <ele>143.1</ele>
        <time>2023-04-05T15:20:56Z</time>
      </trkpt>
      <trkpt lat="47.95005" lon="-3.87541">
        <ele>142.9</ele>
        <time>2023-04-05T15:20:57Z</time>
      </trkpt>
      <trkpt lat="47.95001" lon="-3.87548">
        <ele>142.8</ele>
        <time>2023-04-05T15:20:58Z</time>
      </trkpt>
      <trkpt lat="47.94997" lon="-3.87555">
        <ele>142.7</ele>
        <time>2023-04-05T15:20:59Z</time>
      </trkpt>
      <trkpt lat="47.94994" lon="-3.87562">
        <ele>142.6</ele>
        <time>2023-04-05T15:21:00Z</time>
      </trkpt>
      <trkpt lat="47.9499" lon="-3.87569">
        <ele>142.5</ele>
        <time>2023-04-05T15:21:01Z</time>
      </trkpt>
      <trkpt lat="47.94987" lon="-3.87577">
        <ele>142.4</ele>
        <time>2023-04-05T15:21:02Z</time>
      </trkpt>
      <trkpt lat="47.94984" lon="-3.87585">
        <ele>142.3</ele>
        <time>2023-04-05T15:21:03Z</time>
      </trkpt>
      <trkpt lat="47.9498" lon="-3.87592">
        <ele>142.1</ele>
        <time>2023-04-05T15:21:04Z</time>
      </trkpt>
      <trkpt lat="47.94976" lon="-3.87599">
        <ele>142</ele>
        <time>2023-04-05T15:21:05Z</time>
      </trkpt>
      <trkpt lat="47.94973" lon="-3.87605">
        <ele>142</ele>
        <time>2023-04-05T15:21:06Z</time>
      </trkpt>
      <trkpt lat="47.94968" lon="-3.8761">
        <ele>141.9</ele>
        <time>2023-04-05T15:21:07Z</time>
      </trkpt>
      <trkpt lat="47.94963" lon="-3.87616">
        <ele>141.8</ele>
        <time>2023-04-05T15:21:08Z</time>
      </trkpt>
      <trkpt lat="47.94958" lon="-3.87623">
        <ele>141.7</ele>
        <time>2023-04-05T15:21:09Z</time>
      </trkpt>
      <trkpt lat="47.94954" lon="-3.87629">
        <ele>141.6</ele>
        <time>2023-04-05T15:21:10Z</time>
      </trkpt>
      <trkpt lat="47.9495" lon="-3.87635">
        <ele>141.5</ele>
        <time>2023-04-05T15:21:11Z</time>
      </trkpt>
      <trkpt lat="47.94946" lon="-3.87641">
        <ele>141.4</ele>
        <time>2023-04-05T15:21:12Z</time>
      </trkpt>
      <trkpt lat="47.94942" lon="-3.87647">
        <ele>141.3</ele>
        <time>2023-04-05T15:21:13Z</time>
      </trkpt>
      <trkpt lat="47.94937" lon="-3.87654">
        <ele>141.1</ele>
        <time>2023-04-05T15:21:14Z</time>
      </trkpt>
      <trkpt lat="47.94932" lon="-3.87661">
        <ele>140.9</ele>
        <time>2023-04-05T15:21:15Z</time>
      </trkpt>
      <trkpt lat="47.94928" lon="-3.87669">
        <ele>140.7</ele>
        <time>2023-04-05T15:21:16Z</time>
      </trkpt>
      <trkpt lat="47.94924" lon="-3.87676">
        <ele>140.5</ele>
        <time>2023-04-05T15:21:17Z</time>
      </trkpt>
      <trkpt lat="47.9492" lon="-3.87683">
        <ele>140.3</ele>
        <time>2023-04-05T15:21:18Z</time>
      </trkpt>
      <trkpt lat="47.94915" lon="-3.8769">
        <ele>140.1</ele>
        <time>2023-04-05T15:21:19Z</time>
      </trkpt>
      <trkpt lat="47.94911" lon="-3.87697">
        <ele>139.8</ele>
        <time>2023-04-05T15:21:20Z</time>
      </trkpt>
      <trkpt lat="47.94906" lon="-3.87703">
        <ele>139.5</ele>
        <time>2023-04-05T15:21:21Z</time>
      </trkpt>
      <trkpt lat="47.94902" lon="-3.87711">
        <ele>139.1</ele>
        <time>2023-04-05T15:21:22Z</time>
      </trkpt>
      <trkpt lat="47.94897" lon="-3.87719">
        <ele>138.8</ele>
        <time>2023-04-05T15:21:23Z</time>
      </trkpt>
      <trkpt lat="47.94891" lon="-3.87727">
        <ele>138.4</ele>
        <time>2023-04-05T15:21:24Z</time>
      </trkpt>
      <trkpt lat="47.94887" lon="-3.87735">
        <ele>138</ele>
        <time>2023-04-05T15:21:25Z</time>
      </trkpt>
      <trkpt lat="47.94883" lon="-3.87743">
        <ele>137.7</ele>
        <time>2023-04-05T15:21:26Z</time>
      </trkpt>
      <trkpt lat="47.94877" lon="-3.87752">
        <ele>137.3</ele>
        <time>2023-04-05T15:21:27Z</time>
      </trkpt>
      <trkpt lat="47.94871" lon="-3.87761">
        <ele>137</ele>
        <time>2023-04-05T15:21:28Z</time>
      </trkpt>
      <trkpt lat="47.94866" lon="-3.8777">
        <ele>136.7</ele>
        <time>2023-04-05T15:21:29Z</time>
      </trkpt>
      <trkpt lat="47.94863" lon="-3.87778">
        <ele>136.5</ele>
        <time>2023-04-05T15:21:30Z</time>
      </trkpt>
      <trkpt lat="47.9486" lon="-3.87787">
        <ele>136.4</ele>
        <time>2023-04-05T15:21:31Z</time>
      </trkpt>
      <trkpt lat="47.94856" lon="-3.87796">
        <ele>136.2</ele>
        <time>2023-04-05T15:21:32Z</time>
      </trkpt>
      <trkpt lat="47.94852" lon="-3.87805">
        <ele>136</ele>
        <time>2023-04-05T15:21:33Z</time>
      </trkpt>
      <trkpt lat="47.94847" lon="-3.87814">
        <ele>135.9</ele>
        <time>2023-04-05T15:21:34Z</time>
      </trkpt>
      <trkpt lat="47.94843" lon="-3.87823">
        <ele>135.8</ele>
        <time>2023-04-05T15:21:35Z</time>
      </trkpt>
      <trkpt lat="47.94839" lon="-3.87831">
        <ele>135.8</ele>
        <time>2023-04-05T15:21:36Z</time>
      </trkpt>
      <trkpt lat="47.94835" lon="-3.87839">
        <ele>135.7</ele>
        <time>2023-04-05T15:21:37Z</time>
      </trkpt>
      <trkpt lat="47.9483" lon="-3.87847">
        <ele>135.7</ele>
        <time>2023-04-05T15:21:38Z</time>
      </trkpt>
      <trkpt lat="47.94825" lon="-3.87855">
        <ele>135.7</ele>
        <time>2023-04-05T15:21:39Z</time>
      </trkpt>
      <trkpt lat="47.94821" lon="-3.87862">
        <ele>135.7</ele>
        <time>2023-04-05T15:21:40Z</time>
      </trkpt>
      <trkpt lat="47.94817" lon="-3.87871">
        <ele>135.7</ele>
        <time>2023-04-05T15:21:41Z</time>
      </trkpt>
      <trkpt lat="47.94814" lon="-3.87878">
        <ele>135.8</ele>
        <time>2023-04-05T15:21:42Z</time>
      </trkpt>
      <trkpt lat="47.94812" lon="-3.87887">
        <ele>135.9</ele>
        <time>2023-04-05T15:21:43Z</time>
      </trkpt>
      <trkpt lat="47.9481" lon="-3.87896">
        <ele>135.9</ele>
        <time>2023-04-05T15:21:44Z</time>
      </trkpt>
      <trkpt lat="47.94809" lon="-3.87905">
        <ele>136</ele>
        <time>2023-04-05T15:21:45Z</time>
      </trkpt>
      <trkpt lat="47.94807" lon="-3.87914">
        <ele>136.1</ele>
        <time>2023-04-05T15:21:46Z</time>
      </trkpt>
      <trkpt lat="47.94807" lon="-3.87923">
        <ele>136.2</ele>
        <time>2023-04-05T15:21:47Z</time>
      </trkpt>
      <trkpt lat="47.94806" lon="-3.87931">
        <ele>136.3</ele>
        <time>2023-04-05T15:21:48Z</time>
      </trkpt>
      <trkpt lat="47.94806" lon="-3.87939">
        <ele>136.3</ele>
        <time>2023-04-05T15:21:49Z</time>
      </trkpt>
      <trkpt lat="47.94805" lon="-3.87946">
        <ele>136.4</ele>
        <time>2023-04-05T15:21:50Z</time>
      </trkpt>
      <trkpt lat="47.94805" lon="-3.87954">
        <ele>136.4</ele>
        <time>2023-04-05T15:21:51Z</time>
      </trkpt>
      <trkpt lat="47.94805" lon="-3.87962">
        <ele>136.4</ele>
        <time>2023-04-05T15:21:52Z</time>
      </trkpt>
      <trkpt lat="47.94804" lon="-3.8797">
        <ele>136.4</ele>
        <time>2023-04-05T15:21:53Z</time>
      </trkpt>
      <trkpt lat="47.94803" lon="-3.87977">
        <ele>136.4</ele>
        <time>2023-04-05T15:21:54Z</time>
      </trkpt>
      <trkpt lat="47.94801" lon="-3.87985">
        <ele>136.4</ele>
        <time>2023-04-05T15:21:55Z</time>
      </trkpt>
      <trkpt lat="47.948" lon="-3.87992">
        <ele>136.4</ele>
        <time>2023-04-05T15:21:56Z</time>
      </trkpt>
      <trkpt lat="47.94798" lon="-3.87999">
        <ele>136.4</ele>
        <time>2023-04-05T15:21:57Z</time>
      </trkpt>
      <trkpt lat="47.94796" lon="-3.88006">
        <ele>136.3</ele>
        <time>2023-04-05T15:21:58Z</time>
      </trkpt>
      <trkpt lat="47.94794" lon="-3.88013">
        <ele>136.3</ele>
        <time>2023-04-05T15:21:59Z</time>
      </trkpt>
      <trkpt lat="47.94791" lon="-3.8802">
        <ele>136.3</ele>
        <time>2023-04-05T15:22:00Z</time>
      </trkpt>
      <trkpt lat="47.94789" lon="-3.88027">
        <ele>136.2</ele>
        <time>2023-04-05T15:22:01Z</time>
      </trkpt>
      <trkpt lat="47.94787" lon="-3.88034">
        <ele>136.2</ele>
        <time>2023-04-05T15:22:02Z</time>
      </trkpt>
      <trkpt lat="47.94785" lon="-3.88041">
        <ele>136.2</ele>
        <time>2023-04-05T15:22:03Z</time>
      </trkpt>
      <trkpt lat="47.94782" lon="-3.88048">
        <ele>136.1</ele>
        <time>2023-04-05T15:22:04Z</time>
      </trkpt>
      <trkpt lat="47.94779" lon="-3.88056">
        <ele>136</ele>
        <time>2023-04-05T15:22:05Z</time>
      </trkpt>
      <trkpt lat="47.94777" lon="-3.88063">
        <ele>135.9</ele>
        <time>2023-04-05T15:22:06Z</time>
      </trkpt>
      <trkpt lat="47.94776" lon="-3.88071">
        <ele>135.9</ele>
        <time>2023-04-05T15:22:07Z</time>
      </trkpt>
      <trkpt lat="47.94774" lon="-3.88079">
        <ele>135.8</ele>
        <time>2023-04-05T15:22:08Z</time>
      </trkpt>
      <trkpt lat="47.94773" lon="-3.88088">
        <ele>135.7</ele>
        <time>2023-04-05T15:22:09Z</time>
      </trkpt>
      <trkpt lat="47.94771" lon="-3.88096">
        <ele>135.7</ele>
        <time>2023-04-05T15:22:10Z</time>
      </trkpt>
      <trkpt lat="47.9477" lon="-3.88104">
        <ele>135.6</ele>
        <time>2023-04-05T15:22:11Z</time>
      </trkpt>
      <trkpt lat="47.94769" lon="-3.88113">
        <ele>135.5</ele>
        <time>2023-04-05T15:22:12Z</time>
      </trkpt>
      <trkpt lat="47.94768" lon="-3.88121">
        <ele>135.5</ele>
        <time>2023-04-05T15:22:13Z</time>
      </trkpt>
      <trkpt lat="47.94767" lon="-3.88129">
        <ele>135.4</ele>
        <time>2023-04-05T15:22:14Z</time>
      </trkpt>
      <trkpt lat="47.94766" lon="-3.88138">
        <ele>135.3</ele>
        <time>2023-04-05T15:22:15Z</time>
      </trkpt>
      <trkpt lat="47.94764" lon="-3.88147">
        <ele>135.3</ele>
        <time>2023-04-05T15:22:16Z</time>
      </trkpt>
      <trkpt lat="47.94764" lon="-3.88155">
        <ele>135.2</ele>
        <time>2023-04-05T15:22:17Z</time>
      </trkpt>
      <trkpt lat="47.94763" lon="-3.88163">
        <ele>135.2</ele>
        <time>2023-04-05T15:22:18Z</time>
      </trkpt>
      <trkpt lat="47.94763" lon="-3.88171">
        <ele>135.1</ele>
        <time>2023-04-05T15:22:19Z</time>
      </trkpt>
      <trkpt lat="47.94762" lon="-3.88179">
        <ele>135.1</ele>
        <time>2023-04-05T15:22:20Z</time>
      </trkpt>
      <trkpt lat="47.94762" lon="-3.88187">
        <ele>135.1</ele>
        <time>2023-04-05T15:22:21Z</time>
      </trkpt>
      <trkpt lat="47.94761" lon="-3.88195">
        <ele>135.1</ele>
        <time>2023-04-05T15:22:22Z</time>
      </trkpt>
      <trkpt lat="47.9476" lon="-3.88203">
        <ele>135.1</ele>
        <time>2023-04-05T15:22:23Z</time>
      </trkpt>
      <trkpt lat="47.94758" lon="-3.88211">
        <ele>135</ele>
        <time>2023-04-05T15:22:24Z</time>
      </trkpt>
      <trkpt lat="47.94757" lon="-3.88219">
        <ele>135</ele>
        <time>2023-04-05T15:22:25Z</time>
      </trkpt>
      <trkpt lat="47.94756" lon="-3.88227">
        <ele>135</ele>
        <time>2023-04-05T15:22:26Z</time>
      </trkpt>
      <trkpt lat="47.94754" lon="-3.88235">
        <ele>134.9</ele>
        <time>2023-04-05T15:22:27Z</time>
      </trkpt>
      <trkpt lat="47.94752" lon="-3.88243">
        <ele>134.9</ele>
        <time>2023-04-05T15:22:28Z</time>
      </trkpt>
      <trkpt lat="47.9475" lon="-3.88251">
        <ele>134.8</ele>
        <time>2023-04-05T15:22:29Z</time>
      </trkpt>
      <trkpt lat="47.94749" lon="-3.88258">
        <ele>134.7</ele>
        <time>2023-04-05T15:22:30Z</time>
      </trkpt>
      <trkpt lat="47.94748" lon="-3.88266">
        <ele>134.6</ele>
        <time>2023-04-05T15:22:31Z</time>
      </trkpt>
      <trkpt lat="47.94748" lon="-3.88274">
        <ele>134.6</ele>
        <time>2023-04-05T15:22:32Z</time>
      </trkpt>
      <trkpt lat="47.94747" lon="-3.88282">
        <ele>134.5</ele>
        <time>2023-04-05T15:22:33Z</time>
      </trkpt>
      <trkpt lat="47.94746" lon="-3.88291">
        <ele>134.4</ele>
        <time>2023-04-05T15:22:34Z</time>
      </trkpt>
      <trkpt lat="47.94744" lon="-3.883">
        <ele>134.3</ele>
        <time>2023-04-05T15:22:35Z</time>
      </trkpt>
      <trkpt lat="47.94742" lon="-3.88308">
        <ele>134.2</ele>
        <time>2023-04-05T15:22:36Z</time>
      </trkpt>
      <trkpt lat="47.9474" lon="-3.88316">
        <ele>134</ele>
        <time>2023-04-05T15:22:37Z</time>
      </trkpt>
      <trkpt lat="47.94737" lon="-3.88323">
        <ele>133.9</ele>
        <time>2023-04-05T15:22:38Z</time>
      </trkpt>
      <trkpt lat="47.94733" lon="-3.8833">
        <ele>133.8</ele>
        <time>2023-04-05T15:22:39Z</time>
      </trkpt>
      <trkpt lat="47.9473" lon="-3.88337">
        <ele>133.6</ele>
        <time>2023-04-05T15:22:40Z</time>
      </trkpt>
      <trkpt lat="47.94727" lon="-3.88344">
        <ele>133.5</ele>
        <time>2023-04-05T15:22:41Z</time>
      </trkpt>
      <trkpt lat="47.94723" lon="-3.88351">
        <ele>133.3</ele>
        <time>2023-04-05T15:22:42Z</time>
      </trkpt>
      <trkpt lat="47.9472" lon="-3.88359">
        <ele>133.1</ele>
        <time>2023-04-05T15:22:43Z</time>
      </trkpt>
      <trkpt lat="47.94716" lon="-3.88367">
        <ele>132.9</ele>
        <time>2023-04-05T15:22:44Z</time>
      </trkpt>
      <trkpt lat="47.94713" lon="-3.88374">
        <ele>132.7</ele>
        <time>2023-04-05T15:22:45Z</time>
      </trkpt>
      <trkpt lat="47.9471" lon="-3.88382">
        <ele>132.4</ele>
        <time>2023-04-05T15:22:46Z</time>
      </trkpt>
      <trkpt lat="47.94707" lon="-3.88391">
        <ele>132.2</ele>
        <time>2023-04-05T15:22:47Z</time>
      </trkpt>
      <trkpt lat="47.94703" lon="-3.88399">
        <ele>131.9</ele>
        <time>2023-04-05T15:22:48Z</time>
      </trkpt>
      <trkpt lat="47.947" lon="-3.88408">
        <ele>131.6</ele>
        <time>2023-04-05T15:22:49Z</time>
      </trkpt>
      <trkpt lat="47.94696" lon="-3.88417">
        <ele>131.3</ele>
        <time>2023-04-05T15:22:50Z</time>
      </trkpt>
      <trkpt lat="47.94693" lon="-3.88426">
        <ele>130.9</ele>
        <time>2023-04-05T15:22:51Z</time>
      </trkpt>
      <trkpt lat="47.94689" lon="-3.88436">
        <ele>130.5</ele>
        <time>2023-04-05T15:22:52Z</time>
      </trkpt>
      <trkpt lat="47.94685" lon="-3.88445">
        <ele>130.1</ele>
        <time>2023-04-05T15:22:53Z</time>
      </trkpt>
      <trkpt lat="47.9468" lon="-3.88455">
        <ele>129.8</ele>
        <time>2023-04-05T15:22:54Z</time>
      </trkpt>
      <trkpt lat="47.94676" lon="-3.88464">
        <ele>129.4</ele>
        <time>2023-04-05T15:22:55Z</time>
      </trkpt>
      <trkpt lat="47.94671" lon="-3.88474">
        <ele>129</ele>
        <time>2023-04-05T15:22:56Z</time>
      </trkpt>
      <trkpt lat="47.94666" lon="-3.88483">
        <ele>128.7</ele>
        <time>2023-04-05T15:22:57Z</time>
      </trkpt>
      <trkpt lat="47.94661" lon="-3.88492">
        <ele>128.3</ele>
        <time>2023-04-05T15:22:58Z</time>
      </trkpt>
      <trkpt lat="47.94655" lon="-3.88502">
        <ele>128</ele>
        <time>2023-04-05T15:22:59Z</time>
      </trkpt>
      <trkpt lat="47.94649" lon="-3.88511">
        <ele>127.7</ele>
        <time>2023-04-05T15:23:00Z</time>
      </trkpt>
      <trkpt lat="47.94644" lon="-3.88519">
        <ele>127.4</ele>
        <time>2023-04-05T15:23:01Z</time>
      </trkpt>
      <trkpt lat="47.94638" lon="-3.88528">
        <ele>127.2</ele>
        <time>2023-04-05T15:23:02Z</time>
      </trkpt>
      <trkpt lat="47.94633" lon="-3.88537">
        <ele>126.9</ele>
        <time>2023-04-05T15:23:03Z</time>
      </trkpt>
      <trkpt lat="47.94627" lon="-3.88545">
        <ele>126.7</ele>
        <time>2023-04-05T15:23:04Z</time>
      </trkpt>
      <trkpt lat="47.94622" lon="-3.88554">
        <ele>126.5</ele>
        <time>2023-04-05T15:23:05Z</time>
      </trkpt>
      <trkpt lat="47.94616" lon="-3.88561">
        <ele>126.3</ele>
        <time>2023-04-05T15:23:06Z</time>
      </trkpt>
      <trkpt lat="47.9461" lon="-3.88568">
        <ele>126.2</ele>
        <time>2023-04-05T15:23:07Z</time>
      </trkpt>
      <trkpt lat="47.94604" lon="-3.88575">
        <ele>126.1</ele>
        <time>2023-04-05T15:23:08Z</time>
      </trkpt>
      <trkpt lat="47.94598" lon="-3.88581">
        <ele>125.9</ele>
        <time>2023-04-05T15:23:09Z</time>
      </trkpt>
      <trkpt lat="47.94592" lon="-3.88587">
        <ele>125.8</ele>
        <time>2023-04-05T15:23:10Z</time>
      </trkpt>
      <trkpt lat="47.94586" lon="-3.88593">
        <ele>125.7</ele>
        <time>2023-04-05T15:23:11Z</time>
      </trkpt>
      <trkpt lat="47.9458" lon="-3.88599">
        <ele>125.5</ele>
        <time>2023-04-05T15:23:12Z</time>
      </trkpt>
      <trkpt lat="47.94574" lon="-3.88605">
        <ele>125.4</ele>
        <time>2023-04-05T15:23:13Z</time>
      </trkpt>
      <trkpt lat="47.94568" lon="-3.88611">
        <ele>125.3</ele>
        <time>2023-04-05T15:23:14Z</time>
      </trkpt>
      <trkpt lat="47.94563" lon="-3.88617">
        <ele>125.2</ele>
        <time>2023-04-05T15:23:15Z</time>
      </trkpt>
      <trkpt lat="47.94557" lon="-3.88623">
        <ele>125.1</ele>
        <time>2023-04-05T15:23:16Z</time>
      </trkpt>
      <trkpt lat="47.94551" lon="-3.88629">
        <ele>125</ele>
        <time>2023-04-05T15:23:17Z</time>
      </trkpt>
      <trkpt lat="47.94545" lon="-3.88634">
        <ele>124.8</ele>
        <time>2023-04-05T15:23:18Z</time>
      </trkpt>
      <trkpt lat="47.9454" lon="-3.8864">
        <ele>124.6</ele>
        <time>2023-04-05T15:23:19Z</time>
      </trkpt>
      <trkpt lat="47.94534" lon="-3.88646">
        <ele>124.4</ele>
        <time>2023-04-05T15:23:20Z</time>
      </trkpt>
      <trkpt lat="47.94528" lon="-3.88652">
        <ele>124.1</ele>
        <time>2023-04-05T15:23:21Z</time>
      </trkpt>
      <trkpt lat="47.94523" lon="-3.88658">
        <ele>123.9</ele>
        <time>2023-04-05T15:23:22Z</time>
      </trkpt>
      <trkpt lat="47.94517" lon="-3.88664">
        <ele>123.6</ele>
        <time>2023-04-05T15:23:23Z</time>
      </trkpt>
      <trkpt lat="47.94511" lon="-3.8867">
        <ele>123.2</ele>
        <time>2023-04-05T15:23:24Z</time>
      </trkpt>
      <trkpt lat="47.94504" lon="-3.88677">
        <ele>122.9</ele>
        <time>2023-04-05T15:23:25Z</time>
      </trkpt>
      <trkpt lat="47.94499" lon="-3.88685">
        <ele>122.6</ele>
        <time>2023-04-05T15:23:26Z</time>
      </trkpt>
      <trkpt lat="47.94493" lon="-3.88693">
        <ele>122.3</ele>
        <time>2023-04-05T15:23:27Z</time>
      </trkpt>
      <trkpt lat="47.94488" lon="-3.88702">
        <ele>122</ele>
        <time>2023-04-05T15:23:28Z</time>
      </trkpt>
      <trkpt lat="47.94483" lon="-3.88711">
        <ele>121.7</ele>
        <time>2023-04-05T15:23:29Z</time>
      </trkpt>
      <trkpt lat="47.94479" lon="-3.88721">
        <ele>121.4</ele>
        <time>2023-04-05T15:23:30Z</time>
      </trkpt>
      <trkpt lat="47.94474" lon="-3.8873">
        <ele>121.1</ele>
        <time>2023-04-05T15:23:31Z</time>
      </trkpt>
      <trkpt lat="47.9447" lon="-3.8874">
        <ele>120.7</ele>
        <time>2023-04-05T15:23:32Z</time>
      </trkpt>
      <trkpt lat="47.94465" lon="-3.8875">
        <ele>120.3</ele>
        <time>2023-04-05T15:23:33Z</time>
      </trkpt>
      <trkpt lat="47.9446" lon="-3.8876">
        <ele>119.9</ele>
        <time>2023-04-05T15:23:34Z</time>
      </trkpt>
      <trkpt lat="47.94455" lon="-3.88769">
        <ele>119.4</ele>
        <time>2023-04-05T15:23:35Z</time>
      </trkpt>
      <trkpt lat="47.9445" lon="-3.88779">
        <ele>118.9</ele>
        <time>2023-04-05T15:23:36Z</time>
      </trkpt>
      <trkpt lat="47.94445" lon="-3.88789">
        <ele>118.4</ele>
        <time>2023-04-05T15:23:37Z</time>
      </trkpt>
      <trkpt lat="47.9444" lon="-3.888">
        <ele>117.9</ele>
        <time>2023-04-05T15:23:38Z</time>
      </trkpt>
      <trkpt lat="47.94435" lon="-3.8881">
        <ele>117.4</ele>
        <time>2023-04-05T15:23:39Z</time>
      </trkpt>
      <trkpt lat="47.94429" lon="-3.88822">
        <ele>116.8</ele>
        <time>2023-04-05T15:23:40Z</time>
      </trkpt>
      <trkpt lat="47.94424" lon="-3.88833">
        <ele>116.2</ele>
        <time>2023-04-05T15:23:41Z</time>
      </trkpt>
      <trkpt lat="47.94418" lon="-3.88844">
        <ele>115.7</ele>
        <time>2023-04-05T15:23:42Z</time>
      </trkpt>
      <trkpt lat="47.94412" lon="-3.88855">
        <ele>115.1</ele>
        <time>2023-04-05T15:23:43Z</time>
      </trkpt>
      <trkpt lat="47.94407" lon="-3.88867">
        <ele>114.6</ele>
        <time>2023-04-05T15:23:44Z</time>
      </trkpt>
      <trkpt lat="47.94402" lon="-3.88879">
        <ele>114.1</ele>
        <time>2023-04-05T15:23:45Z</time>
      </trkpt>
      <trkpt lat="47.94397" lon="-3.88891">
        <ele>113.6</ele>
        <time>2023-04-05T15:23:46Z</time>
      </trkpt>
      <trkpt lat="47.94393" lon="-3.88904">
        <ele>113</ele>
        <time>2023-04-05T15:23:47Z</time>
      </trkpt>
      <trkpt lat="47.94389" lon="-3.88918">
        <ele>112.4</ele>
        <time>2023-04-05T15:23:48Z</time>
      </trkpt>
      <trkpt lat="47.94385" lon="-3.88931">
        <ele>111.8</ele>
        <time>2023-04-05T15:23:49Z</time>
      </trkpt>
      <trkpt lat="47.9438" lon="-3.88944">
        <ele>111.2</ele>
        <time>2023-04-05T15:23:50Z</time>
      </trkpt>
      <trkpt lat="47.94375" lon="-3.88957">
        <ele>110.6</ele>
        <time>2023-04-05T15:23:51Z</time>
      </trkpt>
      <trkpt lat="47.9437" lon="-3.88969">
        <ele>109.9</ele>
        <time>2023-04-05T15:23:52Z</time>
      </trkpt>
      <trkpt lat="47.94364" lon="-3.88981">
        <ele>109.3</ele>
        <time>2023-04-05T15:23:53Z</time>
      </trkpt>
      <trkpt lat="47.94357" lon="-3.88994">
        <ele>108.6</ele>
        <time>2023-04-05T15:23:54Z</time>
      </trkpt>
      <trkpt lat="47.9435" lon="-3.89006">
        <ele>108</ele>
        <time>2023-04-05T15:23:55Z</time>
      </trkpt>
      <trkpt lat="47.94344" lon="-3.89018">
        <ele>107.4</ele>
        <time>2023-04-05T15:23:56Z</time>
      </trkpt>
      <trkpt lat="47.94337" lon="-3.8903">
        <ele>106.7</ele>
        <time>2023-04-05T15:23:57Z</time>
      </trkpt>
      <trkpt lat="47.9433" lon="-3.89043">
        <ele>106.1</ele>
        <time>2023-04-05T15:23:58Z</time>
      </trkpt>
      <trkpt lat="47.94323" lon="-3.89055">
        <ele>105.4</ele>
        <time>2023-04-05T15:23:59Z</time>
      </trkpt>
      <trkpt lat="47.94316" lon="-3.89067">
        <ele>104.8</ele>
        <time>2023-04-05T15:24:00Z</time>
      </trkpt>
      <trkpt lat="47.94309" lon="-3.89079">
        <ele>104.2</ele>
        <time>2023-04-05T15:24:01Z</time>
      </trkpt>
      <trkpt lat="47.94302" lon="-3.89091">
        <ele>103.6</ele>
        <time>2023-04-05T15:24:02Z</time>
      </trkpt>
      <trkpt lat="47.94296" lon="-3.89103">
        <ele>103.1</ele>
        <time>2023-04-05T15:24:03Z</time>
      </trkpt>
      <trkpt lat="47.94291" lon="-3.89115">
        <ele>102.6</ele>
        <time>2023-04-05T15:24:04Z</time>
      </trkpt>
      <trkpt lat="47.94289" lon="-3.89129">
        <ele>102.1</ele>
        <time>2023-04-05T15:24:05Z</time>
      </trkpt>
      <trkpt lat="47.94288" lon="-3.89143">
        <ele>101.6</ele>
        <time>2023-04-05T15:24:06Z</time>
      </trkpt>
      <trkpt lat="47.94287" lon="-3.89157">
        <ele>101</ele>
        <time>2023-04-05T15:24:07Z</time>
      </trkpt>
      <trkpt lat="47.94287" lon="-3.89171">
        <ele>100.3</ele>
        <time>2023-04-05T15:24:08Z</time>
      </trkpt>
      <trkpt lat="47.94287" lon="-3.89187">
        <ele>99.7</ele>
        <time>2023-04-05T15:24:09Z</time>
      </trkpt>
      <trkpt lat="47.94287" lon="-3.89202">
        <ele>99.1</ele>
        <time>2023-04-05T15:24:10Z</time>
      </trkpt>
      <trkpt lat="47.94287" lon="-3.89218">
        <ele>98.6</ele>
        <time>2023-04-05T15:24:11Z</time>
      </trkpt>
      <trkpt lat="47.94286" lon="-3.89232">
        <ele>98.2</ele>
        <time>2023-04-05T15:24:12Z</time>
      </trkpt>
      <trkpt lat="47.94284" lon="-3.89247">
        <ele>97.8</ele>
        <time>2023-04-05T15:24:13Z</time>
      </trkpt>
      <trkpt lat="47.94283" lon="-3.8926">
        <ele>97.4</ele>
        <time>2023-04-05T15:24:14Z</time>
      </trkpt>
      <trkpt lat="47.9428" lon="-3.89272">
        <ele>97</ele>
        <time>2023-04-05T15:24:15Z</time>
      </trkpt>
      <trkpt lat="47.94277" lon="-3.89283">
        <ele>96.5</ele>
        <time>2023-04-05T15:24:16Z</time>
      </trkpt>
      <trkpt lat="47.94272" lon="-3.89291">
        <ele>96.1</ele>
        <time>2023-04-05T15:24:17Z</time>
      </trkpt>
      <trkpt lat="47.94265" lon="-3.89296">
        <ele>95.6</ele>
        <time>2023-04-05T15:24:18Z</time>
      </trkpt>
      <trkpt lat="47.94258" lon="-3.89297">
        <ele>95.2</ele>
        <time>2023-04-05T15:24:19Z</time>
      </trkpt>
      <trkpt lat="47.9425" lon="-3.89296">
        <ele>95</ele>
        <time>2023-04-05T15:24:20Z</time>
      </trkpt>
      <trkpt lat="47.94243" lon="-3.89297">
        <ele>94.9</ele>
        <time>2023-04-05T15:24:21Z</time>
      </trkpt>
      <trkpt lat="47.94237" lon="-3.89297">
        <ele>94.8</ele>
        <time>2023-04-05T15:24:22Z</time>
      </trkpt>
      <trkpt lat="47.9423" lon="-3.89296">
        <ele>94.9</ele>
        <time>2023-04-05T15:24:23Z</time>
      </trkpt>
      <trkpt lat="47.94223" lon="-3.89297">
        <ele>95</ele>
        <time>2023-04-05T15:24:24Z</time>
      </trkpt>
      <trkpt lat="47.94217" lon="-3.89298">
        <ele>95.1</ele>
        <time>2023-04-05T15:24:25Z</time>
      </trkpt>
      <trkpt lat="47.94211" lon="-3.89299">
        <ele>95.3</ele>
        <time>2023-04-05T15:24:26Z</time>
      </trkpt>
      <trkpt lat="47.94205" lon="-3.893">
        <ele>95.4</ele>
        <time>2023-04-05T15:24:27Z</time>
      </trkpt>
      <trkpt lat="47.94199" lon="-3.893">
        <ele>95.6</ele>
        <time>2023-04-05T15:24:28Z</time>
      </trkpt>
      <trkpt lat="47.94194" lon="-3.89301">
        <ele>95.8</ele>
        <time>2023-04-05T15:24:29Z</time>
      </trkpt>
      <trkpt lat="47.94189" lon="-3.89301">
        <ele>96</ele>
        <time>2023-04-05T15:24:30Z</time>
      </trkpt>
      <trkpt lat="47.94183" lon="-3.89301">
        <ele>96.2</ele>
        <time>2023-04-05T15:24:31Z</time>
      </trkpt>
      <trkpt lat="47.94179" lon="-3.89302">
        <ele>96.3</ele>
        <time>2023-04-05T15:24:32Z</time>
      </trkpt>
      <trkpt lat="47.94174" lon="-3.89303">
        <ele>96.5</ele>
        <time>2023-04-05T15:24:33Z</time>
      </trkpt>
      <trkpt lat="47.94169" lon="-3.89303">
        <ele>96.6</ele>
        <time>2023-04-05T15:24:34Z</time>
      </trkpt>
      <trkpt lat="47.94164" lon="-3.89303">
        <ele>96.8</ele>
        <time>2023-04-05T15:24:35Z</time>
      </trkpt>
      <trkpt lat="47.94159" lon="-3.89304">
        <ele>96.8</ele>
        <time>2023-04-05T15:24:36Z</time>
      </trkpt>
      <trkpt lat="47.94153" lon="-3.89305">
        <ele>96.9</ele>
        <time>2023-04-05T15:24:37Z</time>
      </trkpt>
      <trkpt lat="47.94148" lon="-3.89306">
        <ele>97</ele>
        <time>2023-04-05T15:24:38Z</time>
      </trkpt>
      <trkpt lat="47.94143" lon="-3.89306">
        <ele>97.1</ele>
        <time>2023-04-05T15:24:39Z</time>
      </trkpt>
      <trkpt lat="47.94138" lon="-3.89307">
        <ele>97.2</ele>
        <time>2023-04-05T15:24:40Z</time>
      </trkpt>
      <trkpt lat="47.94133" lon="-3.89308">
        <ele>97.3</ele>
        <time>2023-04-05T15:24:41Z</time>
      </trkpt>
      <trkpt lat="47.94127" lon="-3.89308">
        <ele>97.4</ele>
        <time>2023-04-05T15:24:42Z</time>
      </trkpt>
      <trkpt lat="47.94123" lon="-3.89308">
        <ele>97.5</ele>
        <time>2023-04-05T15:24:43Z</time>
      </trkpt>
      <trkpt lat="47.94118" lon="-3.89308">
        <ele>97.6</ele>
        <time>2023-04-05T15:24:44Z</time>
      </trkpt>
      <trkpt lat="47.94113" lon="-3.8931">
        <ele>97.7</ele>
        <time>2023-04-05T15:24:45Z</time>
      </trkpt>
      <trkpt lat="47.94109" lon="-3.89312">
        <ele>97.7</ele>
        <time>2023-04-05T15:24:46Z</time>
      </trkpt>
      <trkpt lat="47.94106" lon="-3.89315">
        <ele>97.6</ele>
        <time>2023-04-05T15:24:47Z</time>
      </trkpt>
      <trkpt lat="47.94102" lon="-3.89319">
        <ele>97.5</ele>
        <time>2023-04-05T15:24:48Z</time>
      </trkpt>
      <trkpt lat="47.941" lon="-3.89322">
        <ele>97.5</ele>
        <time>2023-04-05T15:24:49Z</time>
      </trkpt>
      <trkpt lat="47.94096" lon="-3.89326">
        <ele>97.3</ele>
        <time>2023-04-05T15:24:50Z</time>
      </trkpt>
      <trkpt lat="47.94091" lon="-3.89334">
        <ele>97</ele>
        <time>2023-04-05T15:24:51Z</time>
      </trkpt>
      <trkpt lat="47.94087" lon="-3.89341">
        <ele>96.6</ele>
        <time>2023-04-05T15:24:52Z</time>
      </trkpt>
      <trkpt lat="47.94082" lon="-3.89347">
        <ele>96.1</ele>
        <time>2023-04-05T15:24:53Z</time>
      </trkpt>
      <trkpt lat="47.9408" lon="-3.89354">
        <ele>95.8</ele>
        <time>2023-04-05T15:24:54Z</time>
      </trkpt>
      <trkpt lat="47.94078" lon="-3.89361">
        <ele>95.4</ele>
        <time>2023-04-05T15:24:55Z</time>
      </trkpt>
      <trkpt lat="47.94076" lon="-3.89367">
        <ele>95.1</ele>
        <time>2023-04-05T15:24:56Z</time>
      </trkpt>
      <trkpt lat="47.94075" lon="-3.89372">
        <ele>94.8</ele>
        <time>2023-04-05T15:24:57Z</time>
      </trkpt>
      <trkpt lat="47.94074" lon="-3.89375">
        <ele>94.5</ele>
        <time>2023-04-05T15:24:58Z</time>
      </trkpt>
      <trkpt lat="47.94076" lon="-3.89393">
        <ele>93.7</ele>
        <time>2023-04-05T15:25:00Z</time>
      </trkpt>
      <trkpt lat="47.94078" lon="-3.89402">
        <ele>93.4</ele>
        <time>2023-04-05T15:25:01Z</time>
      </trkpt>
      <trkpt lat="47.9408" lon="-3.89412">
        <ele>93</ele>
        <time>2023-04-05T15:25:02Z</time>
      </trkpt>
      <trkpt lat="47.94082" lon="-3.89422">
        <ele>92.6</ele>
        <time>2023-04-05T15:25:03Z</time>
      </trkpt>
      <trkpt lat="47.94084" lon="-3.89433">
        <ele>92.2</ele>
        <time>2023-04-05T15:25:04Z</time>
      </trkpt>
      <trkpt lat="47.94085" lon="-3.89444">
        <ele>91.8</ele>
        <time>2023-04-05T15:25:05Z</time>
      </trkpt>
      <trkpt lat="47.94084" lon="-3.89454">
        <ele>91.4</ele>
        <time>2023-04-05T15:25:06Z</time>
      </trkpt>
      <trkpt lat="47.94079" lon="-3.89462">
        <ele>91.4</ele>
        <time>2023-04-05T15:25:07Z</time>
      </trkpt>
      <trkpt lat="47.94075" lon="-3.89466">
        <ele>91.4</ele>
        <time>2023-04-05T15:25:08Z</time>
      </trkpt>
      <trkpt lat="47.94072" lon="-3.89471">
        <ele>91.5</ele>
        <time>2023-04-05T15:25:09Z</time>
      </trkpt>
      <trkpt lat="47.94069" lon="-3.89476">
        <ele>91.5</ele>
        <time>2023-04-05T15:25:10Z</time>
      </trkpt>
      <trkpt lat="47.94066" lon="-3.89481">
        <ele>91.5</ele>
        <time>2023-04-05T15:25:11Z</time>
      </trkpt>
      <trkpt lat="47.94063" lon="-3.89487">
        <ele>91.5</ele>
        <time>2023-04-05T15:25:12Z</time>
      </trkpt>
      <trkpt lat="47.94061" lon="-3.89494">
        <ele>91.6</ele>
        <time>2023-04-05T15:25:13Z</time>
      </trkpt>
      <trkpt lat="47.94058" lon="-3.895">
        <ele>91.6</ele>
        <time>2023-04-05T15:25:14Z</time>
      </trkpt>
      <trkpt lat="47.94057" lon="-3.89506">
        <ele>91.7</ele>
        <time>2023-04-05T15:25:15Z</time>
      </trkpt>
      <trkpt lat="47.94055" lon="-3.89511">
        <ele>91.7</ele>
        <time>2023-04-05T15:25:16Z</time>
      </trkpt>
      <trkpt lat="47.94053" lon="-3.89516">
        <ele>91.7</ele>
        <time>2023-04-05T15:25:17Z</time>
      </trkpt>
      <trkpt lat="47.94051" lon="-3.89524">
        <ele>91.7</ele>
        <time>2023-04-05T15:25:18Z</time>
      </trkpt>
      <trkpt lat="47.94048" lon="-3.89532">
        <ele>91.7</ele>
        <time>2023-04-05T15:25:19Z</time>
      </trkpt>
      <trkpt lat="47.94046" lon="-3.8954">
        <ele>91.6</ele>
        <time>2023-04-05T15:25:20Z</time>
      </trkpt>
      <trkpt lat="47.94044" lon="-3.89548">
        <ele>91.4</ele>
        <time>2023-04-05T15:25:21Z</time>
      </trkpt>
      <trkpt lat="47.94042" lon="-3.89556">
        <ele>91.3</ele>
        <time>2023-04-05T15:25:22Z</time>
      </trkpt>
      <trkpt lat="47.9404" lon="-3.89564">
        <ele>91.1</ele>
        <time>2023-04-05T15:25:23Z</time>
      </trkpt>
      <trkpt lat="47.94037" lon="-3.89571">
        <ele>90.8</ele>
        <time>2023-04-05T15:25:24Z</time>
      </trkpt>
      <trkpt lat="47.94033" lon="-3.89577">
        <ele>90.5</ele>
        <time>2023-04-05T15:25:25Z</time>
      </trkpt>
      <trkpt lat="47.94027" lon="-3.89582">
        <ele>90.1</ele>
        <time>2023-04-05T15:25:26Z</time>
      </trkpt>
      <trkpt lat="47.94021" lon="-3.89586">
        <ele>89.5</ele>
        <time>2023-04-05T15:25:27Z</time>
      </trkpt>
      <trkpt lat="47.94014" lon="-3.8959">
        <ele>88.9</ele>
        <time>2023-04-05T15:25:28Z</time>
      </trkpt>
      <trkpt lat="47.94007" lon="-3.89589">
        <ele>88.2</ele>
        <time>2023-04-05T15:25:29Z</time>
      </trkpt>
      <trkpt lat="47.93999" lon="-3.89587">
        <ele>87.4</ele>
        <time>2023-04-05T15:25:30Z</time>
      </trkpt>
      <trkpt lat="47.93991" lon="-3.89585">
        <ele>86.7</ele>
        <time>2023-04-05T15:25:31Z</time>
      </trkpt>
      <trkpt lat="47.93983" lon="-3.89583">
        <ele>86</ele>
        <time>2023-04-05T15:25:32Z</time>
      </trkpt>
      <trkpt lat="47.93976" lon="-3.89582">
        <ele>85.4</ele>
        <time>2023-04-05T15:25:33Z</time>
      </trkpt>
      <trkpt lat="47.93968" lon="-3.89579">
        <ele>84.7</ele>
        <time>2023-04-05T15:25:34Z</time>
      </trkpt>
      <trkpt lat="47.93959" lon="-3.89575">
        <ele>84</ele>
        <time>2023-04-05T15:25:35Z</time>
      </trkpt>
      <trkpt lat="47.9395" lon="-3.89572">
        <ele>83.5</ele>
        <time>2023-04-05T15:25:36Z</time>
      </trkpt>
      <trkpt lat="47.93941" lon="-3.89569">
        <ele>83</ele>
        <time>2023-04-05T15:25:37Z</time>
      </trkpt>
      <trkpt lat="47.93932" lon="-3.89565">
        <ele>82.5</ele>
        <time>2023-04-05T15:25:38Z</time>
      </trkpt>
      <trkpt lat="47.93923" lon="-3.89562">
        <ele>82</ele>
        <time>2023-04-05T15:25:39Z</time>
      </trkpt>
      <trkpt lat="47.93913" lon="-3.89562">
        <ele>81.6</ele>
        <time>2023-04-05T15:25:40Z</time>
      </trkpt>
      <trkpt lat="47.93903" lon="-3.89564">
        <ele>81.4</ele>
        <time>2023-04-05T15:25:41Z</time>
      </trkpt>
      <trkpt lat="47.93892" lon="-3.89567">
        <ele>81.1</ele>
        <time>2023-04-05T15:25:42Z</time>
      </trkpt>
      <trkpt lat="47.93883" lon="-3.89571">
        <ele>81</ele>
        <time>2023-04-05T15:25:43Z</time>
      </trkpt>
      <trkpt lat="47.93875" lon="-3.89577">
        <ele>80.9</ele>
        <time>2023-04-05T15:25:44Z</time>
      </trkpt>
      <trkpt lat="47.93867" lon="-3.89584">
        <ele>80.9</ele>
        <time>2023-04-05T15:25:45Z</time>
      </trkpt>
      <trkpt lat="47.9386" lon="-3.89591">
        <ele>80.9</ele>
        <time>2023-04-05T15:25:46Z</time>
      </trkpt>
      <trkpt lat="47.93854" lon="-3.89598">
        <ele>81</ele>
        <time>2023-04-05T15:25:47Z</time>
      </trkpt>
      <trkpt lat="47.93847" lon="-3.89603">
        <ele>81.1</ele>
        <time>2023-04-05T15:25:48Z</time>
      </trkpt>
      <trkpt lat="47.9384" lon="-3.89606">
        <ele>81.2</ele>
        <time>2023-04-05T15:25:49Z</time>
      </trkpt>
      <trkpt lat="47.93834" lon="-3.89608">
        <ele>81.3</ele>
        <time>2023-04-05T15:25:50Z</time>
      </trkpt>
      <trkpt lat="47.93826" lon="-3.89604">
        <ele>81.5</ele>
        <time>2023-04-05T15:25:51Z</time>
      </trkpt>
      <trkpt lat="47.93819" lon="-3.896">
        <ele>81.6</ele>
        <time>2023-04-05T15:25:52Z</time>
      </trkpt>
      <trkpt lat="47.93812" lon="-3.89597">
        <ele>81.7</ele>
        <time>2023-04-05T15:25:53Z</time>
      </trkpt>
      <trkpt lat="47.93806" lon="-3.89595">
        <ele>81.9</ele>
        <time>2023-04-05T15:25:54Z</time>
      </trkpt>
      <trkpt lat="47.938" lon="-3.89592">
        <ele>82</ele>
        <time>2023-04-05T15:25:55Z</time>
      </trkpt>
      <trkpt lat="47.93794" lon="-3.89589">
        <ele>82.2</ele>
        <time>2023-04-05T15:25:56Z</time>
      </trkpt>
      <trkpt lat="47.93789" lon="-3.89587">
        <ele>82.3</ele>
        <time>2023-04-05T15:25:57Z</time>
      </trkpt>
      <trkpt lat="47.93784" lon="-3.89585">
        <ele>82.5</ele>
        <time>2023-04-05T15:25:58Z</time>
      </trkpt>
      <trkpt lat="47.93779" lon="-3.89584">
        <ele>82.7</ele>
        <time>2023-04-05T15:25:59Z</time>
      </trkpt>
      <trkpt lat="47.93773" lon="-3.89583">
        <ele>82.8</ele>
        <time>2023-04-05T15:26:00Z</time>
      </trkpt>
      <trkpt lat="47.93768" lon="-3.89582">
        <ele>82.9</ele>
        <time>2023-04-05T15:26:01Z</time>
      </trkpt>
      <trkpt lat="47.93763" lon="-3.89581">
        <ele>83</ele>
        <time>2023-04-05T15:26:02Z</time>
      </trkpt>
      <trkpt lat="47.93758" lon="-3.89582">
        <ele>83.2</ele>
        <time>2023-04-05T15:26:03Z</time>
      </trkpt>
      <trkpt lat="47.93753" lon="-3.89583">
        <ele>83.3</ele>
        <time>2023-04-05T15:26:04Z</time>
      </trkpt>
      <trkpt lat="47.93748" lon="-3.89583">
        <ele>83.4</ele>
        <time>2023-04-05T15:26:05Z</time>
      </trkpt>
      <trkpt lat="47.93743" lon="-3.89584">
        <ele>83.5</ele>
        <time>2023-04-05T15:26:06Z</time>
      </trkpt>
      <trkpt lat="47.93738" lon="-3.89584">
        <ele>83.6</ele>
        <time>2023-04-05T15:26:07Z</time>
      </trkpt>
      <trkpt lat="47.93734" lon="-3.89585">
        <ele>83.7</ele>
        <time>2023-04-05T15:26:08Z</time>
      </trkpt>
      <trkpt lat="47.93729" lon="-3.89586">
        <ele>83.9</ele>
        <time>2023-04-05T15:26:09Z</time>
      </trkpt>
      <trkpt lat="47.93724" lon="-3.89587">
        <ele>84</ele>
        <time>2023-04-05T15:26:10Z</time>
      </trkpt>
      <trkpt lat="47.93719" lon="-3.89588">
        <ele>84.2</ele>
        <time>2023-04-05T15:26:11Z</time>
      </trkpt>
      <trkpt lat="47.93714" lon="-3.89589">
        <ele>84.3</ele>
        <time>2023-04-05T15:26:12Z</time>
      </trkpt>
      <trkpt lat="47.9371" lon="-3.89591">
        <ele>84.5</ele>
        <time>2023-04-05T15:26:13Z</time>
      </trkpt>
      <trkpt lat="47.93706" lon="-3.89594">
        <ele>84.7</ele>
        <time>2023-04-05T15:26:14Z</time>
      </trkpt>
      <trkpt lat="47.93701" lon="-3.89596">
        <ele>84.8</ele>
        <time>2023-04-05T15:26:15Z</time>
      </trkpt>
      <trkpt lat="47.93697" lon="-3.89598">
        <ele>85</ele>
        <time>2023-04-05T15:26:16Z</time>
      </trkpt>
      <trkpt lat="47.93693" lon="-3.89601">
        <ele>85.2</ele>
        <time>2023-04-05T15:26:17Z</time>
      </trkpt>
      <trkpt lat="47.93691" lon="-3.89603">
        <ele>85.3</ele>
        <time>2023-04-05T15:26:18Z</time>
      </trkpt>
      <trkpt lat="47.93687" lon="-3.89604">
        <ele>85.5</ele>
        <time>2023-04-05T15:26:19Z</time>
      </trkpt>
      <trkpt lat="47.93683" lon="-3.89606">
        <ele>85.7</ele>
        <time>2023-04-05T15:26:20Z</time>
      </trkpt>
      <trkpt lat="47.9368" lon="-3.89607">
        <ele>85.8</ele>
        <time>2023-04-05T15:26:21Z</time>
      </trkpt>
      <trkpt lat="47.93676" lon="-3.89608">
        <ele>86</ele>
        <time>2023-04-05T15:26:22Z</time>
      </trkpt>
      <trkpt lat="47.93673" lon="-3.8961">
        <ele>86.3</ele>
        <time>2023-04-05T15:26:23Z</time>
      </trkpt>
      <trkpt lat="47.93672" lon="-3.89611">
        <ele>86.4</ele>
        <time>2023-04-05T15:26:24Z</time>
      </trkpt>
      <trkpt lat="47.93668" lon="-3.89611">
        <ele>86.6</ele>
        <time>2023-04-05T15:26:25Z</time>
      </trkpt>
      <trkpt lat="47.93664" lon="-3.89612">
        <ele>86.9</ele>
        <time>2023-04-05T15:26:26Z</time>
      </trkpt>
      <trkpt lat="47.9366" lon="-3.89613">
        <ele>87.2</ele>
        <time>2023-04-05T15:26:27Z</time>
      </trkpt>
      <trkpt lat="47.93657" lon="-3.89614">
        <ele>87.5</ele>
        <time>2023-04-05T15:26:28Z</time>
      </trkpt>
      <trkpt lat="47.93653" lon="-3.89616">
        <ele>87.8</ele>
        <time>2023-04-05T15:26:29Z</time>
      </trkpt>
      <trkpt lat="47.93651" lon="-3.89617">
        <ele>88</ele>
        <time>2023-04-05T15:26:30Z</time>
      </trkpt>
      <trkpt lat="47.93648" lon="-3.89617">
        <ele>88.3</ele>
        <time>2023-04-05T15:26:31Z</time>
      </trkpt>
      <trkpt lat="47.93645" lon="-3.89617">
        <ele>88.6</ele>
        <time>2023-04-05T15:26:32Z</time>
      </trkpt>
      <trkpt lat="47.93641" lon="-3.89618">
        <ele>89.1</ele>
        <time>2023-04-05T15:26:34Z</time>
      </trkpt>
      <trkpt lat="47.93636" lon="-3.89618">
        <ele>89.6</ele>
        <time>2023-04-05T15:26:35Z</time>
      </trkpt>
      <trkpt lat="47.93633" lon="-3.89619">
        <ele>89.9</ele>
        <time>2023-04-05T15:26:36Z</time>
      </trkpt>
      <trkpt lat="47.9363" lon="-3.8962">
        <ele>90.2</ele>
        <time>2023-04-05T15:26:38Z</time>
      </trkpt>
      <trkpt lat="47.93625" lon="-3.89621">
        <ele>90.7</ele>
        <time>2023-04-05T15:26:39Z</time>
      </trkpt>
      <trkpt lat="47.93619" lon="-3.8962">
        <ele>91.4</ele>
        <time>2023-04-05T15:26:41Z</time>
      </trkpt>
      <trkpt lat="47.93615" lon="-3.89619">
        <ele>91.9</ele>
        <time>2023-04-05T15:26:43Z</time>
      </trkpt>
      <trkpt lat="47.93612" lon="-3.89619">
        <ele>92.2</ele>
        <time>2023-04-05T15:26:44Z</time>
      </trkpt>
      <trkpt lat="47.93608" lon="-3.89618">
        <ele>92.6</ele>
        <time>2023-04-05T15:26:45Z</time>
      </trkpt>
      <trkpt lat="47.93607" lon="-3.89618">
        <ele>92.7</ele>
        <time>2023-04-05T15:26:46Z</time>
      </trkpt>
      <trkpt lat="47.93601" lon="-3.89616">
        <ele>93.4</ele>
        <time>2023-04-05T15:26:47Z</time>
      </trkpt>
      <trkpt lat="47.93595" lon="-3.89613">
        <ele>93.9</ele>
        <time>2023-04-05T15:26:49Z</time>
      </trkpt>
      <trkpt lat="47.93591" lon="-3.8961">
        <ele>94.4</ele>
        <time>2023-04-05T15:26:51Z</time>
      </trkpt>
      <trkpt lat="47.93584" lon="-3.89605">
        <ele>95.1</ele>
        <time>2023-04-05T15:26:52Z</time>
      </trkpt>
      <trkpt lat="47.93581" lon="-3.89602">
        <ele>95.5</ele>
        <time>2023-04-05T15:26:53Z</time>
      </trkpt>
      <trkpt lat="47.93576" lon="-3.896">
        <ele>95.9</ele>
        <time>2023-04-05T15:26:55Z</time>
      </trkpt>
      <trkpt lat="47.93575" lon="-3.896">
        <ele>96</ele>
        <time>2023-04-05T15:26:56Z</time>
      </trkpt>
      <trkpt lat="47.93574" lon="-3.89599">
        <ele>96.1</ele>
        <time>2023-04-05T15:26:57Z</time>
      </trkpt>
      <trkpt lat="47.93571" lon="-3.89597">
        <ele>96.4</ele>
        <time>2023-04-05T15:26:58Z</time>
      </trkpt>
      <trkpt lat="47.93568" lon="-3.89595">
        <ele>96.6</ele>
        <time>2023-04-05T15:26:59Z</time>
      </trkpt>
      <trkpt lat="47.93567" lon="-3.89595">
        <ele>96.7</ele>
        <time>2023-04-05T15:27:00Z</time>
      </trkpt>
      <trkpt lat="47.93564" lon="-3.89594">
        <ele>96.9</ele>
        <time>2023-04-05T15:27:01Z</time>
      </trkpt>
      <trkpt lat="47.93561" lon="-3.89593">
        <ele>97.1</ele>
        <time>2023-04-05T15:27:02Z</time>
      </trkpt>
      <trkpt lat="47.93558" lon="-3.89592">
        <ele>97.3</ele>
        <time>2023-04-05T15:27:03Z</time>
      </trkpt>
      <trkpt lat="47.93557" lon="-3.89591">
        <ele>97.3</ele>
        <time>2023-04-05T15:27:04Z</time>
      </trkpt>
      <trkpt lat="47.93553" lon="-3.89589">
        <ele>97.6</ele>
        <time>2023-04-05T15:27:05Z</time>
      </trkpt>
      <trkpt lat="47.93552" lon="-3.89588">
        <ele>97.7</ele>
        <time>2023-04-05T15:27:06Z</time>
      </trkpt>
      <trkpt lat="47.93549" lon="-3.89585">
        <ele>97.9</ele>
        <time>2023-04-05T15:27:07Z</time>
      </trkpt>
      <trkpt lat="47.93548" lon="-3.89584">
        <ele>98</ele>
        <time>2023-04-05T15:27:08Z</time>
      </trkpt>
      <trkpt lat="47.93545" lon="-3.89581">
        <ele>98.2</ele>
        <time>2023-04-05T15:27:09Z</time>
      </trkpt>
      <trkpt lat="47.93543" lon="-3.8958">
        <ele>98.3</ele>
        <time>2023-04-05T15:27:10Z</time>
      </trkpt>
      <trkpt lat="47.9354" lon="-3.89577">
        <ele>98.5</ele>
        <time>2023-04-05T15:27:11Z</time>
      </trkpt>
      <trkpt lat="47.93539" lon="-3.89576">
        <ele>98.6</ele>
        <time>2023-04-05T15:27:12Z</time>
      </trkpt>
      <trkpt lat="47.93536" lon="-3.89572">
        <ele>98.9</ele>
        <time>2023-04-05T15:27:13Z</time>
      </trkpt>
      <trkpt lat="47.93534" lon="-3.89571">
        <ele>98.9</ele>
        <time>2023-04-05T15:27:14Z</time>
      </trkpt>
      <trkpt lat="47.93532" lon="-3.89568">
        <ele>99.1</ele>
        <time>2023-04-05T15:27:15Z</time>
      </trkpt>
      <trkpt lat="47.93527" lon="-3.89562">
        <ele>99.5</ele>
        <time>2023-04-05T15:27:16Z</time>
      </trkpt>
      <trkpt lat="47.93522" lon="-3.89557">
        <ele>99.8</ele>
        <time>2023-04-05T15:27:17Z</time>
      </trkpt>
      <trkpt lat="47.93519" lon="-3.89554">
        <ele>100.1</ele>
        <time>2023-04-05T15:27:18Z</time>
      </trkpt>
      <trkpt lat="47.93516" lon="-3.89549">
        <ele>100.3</ele>
        <time>2023-04-05T15:27:19Z</time>
      </trkpt>
      <trkpt lat="47.93513" lon="-3.89546">
        <ele>100.5</ele>
        <time>2023-04-05T15:27:20Z</time>
      </trkpt>
      <trkpt lat="47.9351" lon="-3.89544">
        <ele>100.6</ele>
        <time>2023-04-05T15:27:21Z</time>
      </trkpt>
      <trkpt lat="47.93507" lon="-3.89542">
        <ele>100.7</ele>
        <time>2023-04-05T15:27:22Z</time>
      </trkpt>
      <trkpt lat="47.93505" lon="-3.8954">
        <ele>100.9</ele>
        <time>2023-04-05T15:27:23Z</time>
      </trkpt>
      <trkpt lat="47.93502" lon="-3.89538">
        <ele>101</ele>
        <time>2023-04-05T15:27:24Z</time>
      </trkpt>
      <trkpt lat="47.93499" lon="-3.89536">
        <ele>101.1</ele>
        <time>2023-04-05T15:27:25Z</time>
      </trkpt>
      <trkpt lat="47.93495" lon="-3.89534">
        <ele>101.2</ele>
        <time>2023-04-05T15:27:27Z</time>
      </trkpt>
      <trkpt lat="47.93491" lon="-3.89533">
        <ele>101.3</ele>
        <time>2023-04-05T15:27:28Z</time>
      </trkpt>
      <trkpt lat="47.93489" lon="-3.89532">
        <ele>101.3</ele>
        <time>2023-04-05T15:27:29Z</time>
      </trkpt>
      <trkpt lat="47.93486" lon="-3.89531">
        <ele>101.3</ele>
        <time>2023-04-05T15:27:30Z</time>
      </trkpt>
      <trkpt lat="47.93483" lon="-3.8953">
        <ele>101.3</ele>
        <time>2023-04-05T15:27:31Z</time>
      </trkpt>
      <trkpt lat="47.9348" lon="-3.89529">
        <ele>101.3</ele>
        <time>2023-04-05T15:27:32Z</time>
      </trkpt>
      <trkpt lat="47.93476" lon="-3.89528">
        <ele>101.3</ele>
        <time>2023-04-05T15:27:33Z</time>
      </trkpt>
      <trkpt lat="47.93468" lon="-3.89527">
        <ele>101.2</ele>
        <time>2023-04-05T15:27:34Z</time>
      </trkpt>
      <trkpt lat="47.93458" lon="-3.89526">
        <ele>100.9</ele>
        <time>2023-04-05T15:27:36Z</time>
      </trkpt>
      <trkpt lat="47.93451" lon="-3.89527">
        <ele>100.8</ele>
        <time>2023-04-05T15:27:38Z</time>
      </trkpt>
      <trkpt lat="47.93446" lon="-3.89527">
        <ele>100.6</ele>
        <time>2023-04-05T15:27:39Z</time>
      </trkpt>
      <trkpt lat="47.93441" lon="-3.89528">
        <ele>100.5</ele>
        <time>2023-04-05T15:27:40Z</time>
      </trkpt>
      <trkpt lat="47.93437" lon="-3.8953">
        <ele>100.4</ele>
        <time>2023-04-05T15:27:41Z</time>
      </trkpt>
      <trkpt lat="47.93432" lon="-3.89532">
        <ele>100.3</ele>
        <time>2023-04-05T15:27:42Z</time>
      </trkpt>
      <trkpt lat="47.93426" lon="-3.89534">
        <ele>100.1</ele>
        <time>2023-04-05T15:27:43Z</time>
      </trkpt>
      <trkpt lat="47.93421" lon="-3.89537">
        <ele>100</ele>
        <time>2023-04-05T15:27:44Z</time>
      </trkpt>
      <trkpt lat="47.93415" lon="-3.8954">
        <ele>99.8</ele>
        <time>2023-04-05T15:27:45Z</time>
      </trkpt>
      <trkpt lat="47.93409" lon="-3.89543">
        <ele>99.7</ele>
        <time>2023-04-05T15:27:46Z</time>
      </trkpt>
      <trkpt lat="47.93403" lon="-3.89545">
        <ele>99.6</ele>
        <time>2023-04-05T15:27:47Z</time>
      </trkpt>
      <trkpt lat="47.93398" lon="-3.89548">
        <ele>99.6</ele>
        <time>2023-04-05T15:27:48Z</time>
      </trkpt>
      <trkpt lat="47.93393" lon="-3.89551">
        <ele>99.5</ele>
        <time>2023-04-05T15:27:49Z</time>
      </trkpt>
      <trkpt lat="47.93388" lon="-3.89555">
        <ele>99.5</ele>
        <time>2023-04-05T15:27:50Z</time>
      </trkpt>
      <trkpt lat="47.93382" lon="-3.89559">
        <ele>99.4</ele>
        <time>2023-04-05T15:27:51Z</time>
      </trkpt>
      <trkpt lat="47.93377" lon="-3.89563">
        <ele>99.4</ele>
        <time>2023-04-05T15:27:52Z</time>
      </trkpt>
      <trkpt lat="47.93372" lon="-3.89566">
        <ele>99.4</ele>
        <time>2023-04-05T15:27:53Z</time>
      </trkpt>
      <trkpt lat="47.93367" lon="-3.8957">
        <ele>99.5</ele>
        <time>2023-04-05T15:27:54Z</time>
      </trkpt>
      <trkpt lat="47.93362" lon="-3.89574">
        <ele>99.6</ele>
        <time>2023-04-05T15:27:55Z</time>
      </trkpt>
      <trkpt lat="47.93357" lon="-3.89577">
        <ele>99.6</ele>
        <time>2023-04-05T15:27:56Z</time>
      </trkpt>
      <trkpt lat="47.93352" lon="-3.8958">
        <ele>99.7</ele>
        <time>2023-04-05T15:27:57Z</time>
      </trkpt>
      <trkpt lat="47.93347" lon="-3.89583">
        <ele>99.8</ele>
        <time>2023-04-05T15:27:58Z</time>
      </trkpt>
      <trkpt lat="47.93342" lon="-3.89585">
        <ele>99.9</ele>
        <time>2023-04-05T15:27:59Z</time>
      </trkpt>
      <trkpt lat="47.93337" lon="-3.89587">
        <ele>100</ele>
        <time>2023-04-05T15:28:00Z</time>
      </trkpt>
      <trkpt lat="47.93332" lon="-3.89589">
        <ele>100.1</ele>
        <time>2023-04-05T15:28:01Z</time>
      </trkpt>
      <trkpt lat="47.93327" lon="-3.8959">
        <ele>100.2</ele>
        <time>2023-04-05T15:28:02Z</time>
      </trkpt>
      <trkpt lat="47.93323" lon="-3.89592">
        <ele>100.4</ele>
        <time>2023-04-05T15:28:03Z</time>
      </trkpt>
      <trkpt lat="47.93318" lon="-3.89593">
        <ele>100.5</ele>
        <time>2023-04-05T15:28:04Z</time>
      </trkpt>
      <trkpt lat="47.93314" lon="-3.89594">
        <ele>100.6</ele>
        <time>2023-04-05T15:28:05Z</time>
      </trkpt>
      <trkpt lat="47.9331" lon="-3.89595">
        <ele>100.7</ele>
        <time>2023-04-05T15:28:06Z</time>
      </trkpt>
      <trkpt lat="47.93305" lon="-3.89595">
        <ele>100.9</ele>
        <time>2023-04-05T15:28:07Z</time>
      </trkpt>
      <trkpt lat="47.93302" lon="-3.89595">
        <ele>100.9</ele>
        <time>2023-04-05T15:28:08Z</time>
      </trkpt>
      <trkpt lat="47.93298" lon="-3.89595">
        <ele>101</ele>
        <time>2023-04-05T15:28:09Z</time>
      </trkpt>
      <trkpt lat="47.93294" lon="-3.89596">
        <ele>101.1</ele>
        <time>2023-04-05T15:28:10Z</time>
      </trkpt>
      <trkpt lat="47.9329" lon="-3.89597">
        <ele>101.2</ele>
        <time>2023-04-05T15:28:11Z</time>
      </trkpt>
      <trkpt lat="47.93285" lon="-3.89597">
        <ele>101.4</ele>
        <time>2023-04-05T15:28:12Z</time>
      </trkpt>
      <trkpt lat="47.93281" lon="-3.89597">
        <ele>101.4</ele>
        <time>2023-04-05T15:28:13Z</time>
      </trkpt>
      <trkpt lat="47.93277" lon="-3.89595">
        <ele>101.5</ele>
        <time>2023-04-05T15:28:14Z</time>
      </trkpt>
      <trkpt lat="47.93273" lon="-3.89595">
        <ele>101.6</ele>
        <time>2023-04-05T15:28:15Z</time>
      </trkpt>
      <trkpt lat="47.93261" lon="-3.89595">
        <ele>101.7</ele>
        <time>2023-04-05T15:28:17Z</time>
      </trkpt>
      <trkpt lat="47.93256" lon="-3.89594">
        <ele>101.6</ele>
        <time>2023-04-05T15:28:19Z</time>
      </trkpt>
      <trkpt lat="47.93248" lon="-3.89593">
        <ele>101.5</ele>
        <time>2023-04-05T15:28:20Z</time>
      </trkpt>
      <trkpt lat="47.93239" lon="-3.89589">
        <ele>101.4</ele>
        <time>2023-04-05T15:28:22Z</time>
      </trkpt>
      <trkpt lat="47.93233" lon="-3.89587">
        <ele>101.2</ele>
        <time>2023-04-05T15:28:24Z</time>
      </trkpt>
      <trkpt lat="47.93228" lon="-3.89586">
        <ele>101.1</ele>
        <time>2023-04-05T15:28:25Z</time>
      </trkpt>
      <trkpt lat="47.93223" lon="-3.89584">
        <ele>101</ele>
        <time>2023-04-05T15:28:26Z</time>
      </trkpt>
      <trkpt lat="47.93218" lon="-3.89582">
        <ele>100.9</ele>
        <time>2023-04-05T15:28:27Z</time>
      </trkpt>
      <trkpt lat="47.93213" lon="-3.89579">
        <ele>100.8</ele>
        <time>2023-04-05T15:28:28Z</time>
      </trkpt>
      <trkpt lat="47.93208" lon="-3.89577">
        <ele>100.7</ele>
        <time>2023-04-05T15:28:29Z</time>
      </trkpt>
      <trkpt lat="47.93202" lon="-3.89575">
        <ele>100.6</ele>
        <time>2023-04-05T15:28:30Z</time>
      </trkpt>
      <trkpt lat="47.93197" lon="-3.89572">
        <ele>100.5</ele>
        <time>2023-04-05T15:28:31Z</time>
      </trkpt>
      <trkpt lat="47.93191" lon="-3.89569">
        <ele>100.3</ele>
        <time>2023-04-05T15:28:32Z</time>
      </trkpt>
      <trkpt lat="47.93186" lon="-3.89567">
        <ele>100.2</ele>
        <time>2023-04-05T15:28:33Z</time>
      </trkpt>
      <trkpt lat="47.9318" lon="-3.89565">
        <ele>100.1</ele>
        <time>2023-04-05T15:28:34Z</time>
      </trkpt>
      <trkpt lat="47.93175" lon="-3.89562">
        <ele>100</ele>
        <time>2023-04-05T15:28:35Z</time>
      </trkpt>
      <trkpt lat="47.9317" lon="-3.8956">
        <ele>99.8</ele>
        <time>2023-04-05T15:28:36Z</time>
      </trkpt>
      <trkpt lat="47.93165" lon="-3.89558">
        <ele>99.7</ele>
        <time>2023-04-05T15:28:37Z</time>
      </trkpt>
      <trkpt lat="47.93158" lon="-3.89555">
        <ele>99.5</ele>
        <time>2023-04-05T15:28:38Z</time>
      </trkpt>
      <trkpt lat="47.93152" lon="-3.89552">
        <ele>99.3</ele>
        <time>2023-04-05T15:28:39Z</time>
      </trkpt>
      <trkpt lat="47.93146" lon="-3.89549">
        <ele>99.1</ele>
        <time>2023-04-05T15:28:40Z</time>
      </trkpt>
      <trkpt lat="47.93138" lon="-3.89545">
        <ele>98.9</ele>
        <time>2023-04-05T15:28:41Z</time>
      </trkpt>
      <trkpt lat="47.93132" lon="-3.89542">
        <ele>98.6</ele>
        <time>2023-04-05T15:28:42Z</time>
      </trkpt>
      <trkpt lat="47.93126" lon="-3.89541">
        <ele>98.4</ele>
        <time>2023-04-05T15:28:43Z</time>
      </trkpt>
      <trkpt lat="47.9312" lon="-3.89541">
        <ele>98.2</ele>
        <time>2023-04-05T15:28:44Z</time>
      </trkpt>
      <trkpt lat="47.93113" lon="-3.89543">
        <ele>97.9</ele>
        <time>2023-04-05T15:28:45Z</time>
      </trkpt>
      <trkpt lat="47.93108" lon="-3.89548">
        <ele>97.7</ele>
        <time>2023-04-05T15:28:46Z</time>
      </trkpt>
      <trkpt lat="47.93102" lon="-3.89553">
        <ele>97.5</ele>
        <time>2023-04-05T15:28:47Z</time>
      </trkpt>
      <trkpt lat="47.93097" lon="-3.89557">
        <ele>97.3</ele>
        <time>2023-04-05T15:28:48Z</time>
      </trkpt>
      <trkpt lat="47.93091" lon="-3.89563">
        <ele>97.1</ele>
        <time>2023-04-05T15:28:49Z</time>
      </trkpt>
      <trkpt lat="47.93086" lon="-3.89569">
        <ele>96.9</ele>
        <time>2023-04-05T15:28:50Z</time>
      </trkpt>
      <trkpt lat="47.93081" lon="-3.89574">
        <ele>96.6</ele>
        <time>2023-04-05T15:28:51Z</time>
      </trkpt>
      <trkpt lat="47.93075" lon="-3.89579">
        <ele>96.4</ele>
        <time>2023-04-05T15:28:52Z</time>
      </trkpt>
      <trkpt lat="47.93069" lon="-3.89584">
        <ele>96.2</ele>
        <time>2023-04-05T15:28:53Z</time>
      </trkpt>
      <trkpt lat="47.93063" lon="-3.89589">
        <ele>95.9</ele>
        <time>2023-04-05T15:28:54Z</time>
      </trkpt>
      <trkpt lat="47.93057" lon="-3.89594">
        <ele>95.7</ele>
        <time>2023-04-05T15:28:55Z</time>
      </trkpt>
      <trkpt lat="47.93051" lon="-3.896">
        <ele>95.5</ele>
        <time>2023-04-05T15:28:56Z</time>
      </trkpt>
      <trkpt lat="47.93044" lon="-3.89606">
        <ele>95.2</ele>
        <time>2023-04-05T15:28:57Z</time>
      </trkpt>
      <trkpt lat="47.93038" lon="-3.89612">
        <ele>94.9</ele>
        <time>2023-04-05T15:28:58Z</time>
      </trkpt>
      <trkpt lat="47.93032" lon="-3.89619">
        <ele>94.7</ele>
        <time>2023-04-05T15:28:59Z</time>
      </trkpt>
      <trkpt lat="47.93026" lon="-3.89624">
        <ele>94.5</ele>
        <time>2023-04-05T15:29:00Z</time>
      </trkpt>
      <trkpt lat="47.9302" lon="-3.8963">
        <ele>94.3</ele>
        <time>2023-04-05T15:29:01Z</time>
      </trkpt>
      <trkpt lat="47.93014" lon="-3.89635">
        <ele>94.1</ele>
        <time>2023-04-05T15:29:02Z</time>
      </trkpt>
      <trkpt lat="47.93007" lon="-3.8964">
        <ele>93.9</ele>
        <time>2023-04-05T15:29:03Z</time>
      </trkpt>
      <trkpt lat="47.93" lon="-3.89645">
        <ele>93.7</ele>
        <time>2023-04-05T15:29:04Z</time>
      </trkpt>
      <trkpt lat="47.92994" lon="-3.8965">
        <ele>93.5</ele>
        <time>2023-04-05T15:29:05Z</time>
      </trkpt>
      <trkpt lat="47.92988" lon="-3.89654">
        <ele>93.3</ele>
        <time>2023-04-05T15:29:06Z</time>
      </trkpt>
      <trkpt lat="47.92982" lon="-3.89656">
        <ele>93.1</ele>
        <time>2023-04-05T15:29:07Z</time>
      </trkpt>
      <trkpt lat="47.92976" lon="-3.89657">
        <ele>92.9</ele>
        <time>2023-04-05T15:29:08Z</time>
      </trkpt>
      <trkpt lat="47.9297" lon="-3.89659">
        <ele>92.7</ele>
        <time>2023-04-05T15:29:09Z</time>
      </trkpt>
      <trkpt lat="47.92964" lon="-3.89663">
        <ele>92.7</ele>
        <time>2023-04-05T15:29:10Z</time>
      </trkpt>
      <trkpt lat="47.92959" lon="-3.89668">
        <ele>92.5</ele>
        <time>2023-04-05T15:29:11Z</time>
      </trkpt>
      <trkpt lat="47.92953" lon="-3.89673">
        <ele>92.3</ele>
        <time>2023-04-05T15:29:12Z</time>
      </trkpt>
      <trkpt lat="47.92948" lon="-3.89678">
        <ele>92.1</ele>
        <time>2023-04-05T15:29:13Z</time>
      </trkpt>
      <trkpt lat="47.92942" lon="-3.89683">
        <ele>91.9</ele>
        <time>2023-04-05T15:29:14Z</time>
      </trkpt>
      <trkpt lat="47.92936" lon="-3.89688">
        <ele>91.7</ele>
        <time>2023-04-05T15:29:15Z</time>
      </trkpt>
      <trkpt lat="47.92931" lon="-3.89694">
        <ele>91.6</ele>
        <time>2023-04-05T15:29:16Z</time>
      </trkpt>
      <trkpt lat="47.92925" lon="-3.89699">
        <ele>91.4</ele>
        <time>2023-04-05T15:29:17Z</time>
      </trkpt>
      <trkpt lat="47.92919" lon="-3.89705">
        <ele>91.2</ele>
        <time>2023-04-05T15:29:18Z</time>
      </trkpt>
      <trkpt lat="47.92913" lon="-3.8971">
        <ele>91</ele>
        <time>2023-04-05T15:29:19Z</time>
      </trkpt>
      <trkpt lat="47.92907" lon="-3.89715">
        <ele>90.9</ele>
        <time>2023-04-05T15:29:20Z</time>
      </trkpt>
      <trkpt lat="47.92901" lon="-3.89721">
        <ele>90.7</ele>
        <time>2023-04-05T15:29:21Z</time>
      </trkpt>
      <trkpt lat="47.92896" lon="-3.89726">
        <ele>90.5</ele>
        <time>2023-04-05T15:29:22Z</time>
      </trkpt>
      <trkpt lat="47.9289" lon="-3.89731">
        <ele>90.4</ele>
        <time>2023-04-05T15:29:23Z</time>
      </trkpt>
      <trkpt lat="47.92884" lon="-3.89736">
        <ele>90.2</ele>
        <time>2023-04-05T15:29:24Z</time>
      </trkpt>
      <trkpt lat="47.92878" lon="-3.89742">
        <ele>90.1</ele>
        <time>2023-04-05T15:29:25Z</time>
      </trkpt>
      <trkpt lat="47.92872" lon="-3.89746">
        <ele>90</ele>
        <time>2023-04-05T15:29:26Z</time>
      </trkpt>
      <trkpt lat="47.92866" lon="-3.89751">
        <ele>89.8</ele>
        <time>2023-04-05T15:29:27Z</time>
      </trkpt>
      <trkpt lat="47.9286" lon="-3.89756">
        <ele>89.7</ele>
        <time>2023-04-05T15:29:28Z</time>
      </trkpt>
      <trkpt lat="47.92854" lon="-3.89762">
        <ele>89.6</ele>
        <time>2023-04-05T15:29:29Z</time>
      </trkpt>
      <trkpt lat="47.92848" lon="-3.89768">
        <ele>89.5</ele>
        <time>2023-04-05T15:29:30Z</time>
      </trkpt>
      <trkpt lat="47.92842" lon="-3.89773">
        <ele>89.4</ele>
        <time>2023-04-05T15:29:31Z</time>
      </trkpt>
      <trkpt lat="47.92836" lon="-3.89778">
        <ele>89.2</ele>
        <time>2023-04-05T15:29:32Z</time>
      </trkpt>
      <trkpt lat="47.9283" lon="-3.89784">
        <ele>89.1</ele>
        <time>2023-04-05T15:29:33Z</time>
      </trkpt>
      <trkpt lat="47.92824" lon="-3.89789">
        <ele>88.9</ele>
        <time>2023-04-05T15:29:34Z</time>
      </trkpt>
      <trkpt lat="47.92818" lon="-3.89794">
        <ele>88.8</ele>
        <time>2023-04-05T15:29:35Z</time>
      </trkpt>
      <trkpt lat="47.92811" lon="-3.89799">
        <ele>88.6</ele>
        <time>2023-04-05T15:29:36Z</time>
      </trkpt>
      <trkpt lat="47.92805" lon="-3.89804">
        <ele>88.4</ele>
        <time>2023-04-05T15:29:37Z</time>
      </trkpt>
      <trkpt lat="47.92799" lon="-3.8981">
        <ele>88.3</ele>
        <time>2023-04-05T15:29:38Z</time>
      </trkpt>
      <trkpt lat="47.92793" lon="-3.89815">
        <ele>88.1</ele>
        <time>2023-04-05T15:29:39Z</time>
      </trkpt>
      <trkpt lat="47.92787" lon="-3.89819">
        <ele>87.9</ele>
        <time>2023-04-05T15:29:40Z</time>
      </trkpt>
      <trkpt lat="47.92781" lon="-3.89825">
        <ele>87.8</ele>
        <time>2023-04-05T15:29:41Z</time>
      </trkpt>
      <trkpt lat="47.92775" lon="-3.8983">
        <ele>87.7</ele>
        <time>2023-04-05T15:29:42Z</time>
      </trkpt>
      <trkpt lat="47.92769" lon="-3.89835">
        <ele>87.5</ele>
        <time>2023-04-05T15:29:43Z</time>
      </trkpt>
      <trkpt lat="47.92764" lon="-3.89843">
        <ele>87.4</ele>
        <time>2023-04-05T15:29:44Z</time>
      </trkpt>
      <trkpt lat="47.9276" lon="-3.89849">
        <ele>87.2</ele>
        <time>2023-04-05T15:29:45Z</time>
      </trkpt>
      <trkpt lat="47.92754" lon="-3.89854">
        <ele>87.1</ele>
        <time>2023-04-05T15:29:46Z</time>
      </trkpt>
      <trkpt lat="47.92748" lon="-3.89859">
        <ele>86.9</ele>
        <time>2023-04-05T15:29:47Z</time>
      </trkpt>
      <trkpt lat="47.92741" lon="-3.89864">
        <ele>86.7</ele>
        <time>2023-04-05T15:29:48Z</time>
      </trkpt>
      <trkpt lat="47.92735" lon="-3.8987">
        <ele>86.5</ele>
        <time>2023-04-05T15:29:49Z</time>
      </trkpt>
      <trkpt lat="47.9273" lon="-3.89876">
        <ele>86.4</ele>
        <time>2023-04-05T15:29:50Z</time>
      </trkpt>
      <trkpt lat="47.92725" lon="-3.89881">
        <ele>86.4</ele>
        <time>2023-04-05T15:29:51Z</time>
      </trkpt>
      <trkpt lat="47.92719" lon="-3.89886">
        <ele>86.3</ele>
        <time>2023-04-05T15:29:52Z</time>
      </trkpt>
      <trkpt lat="47.9271" lon="-3.89891">
        <ele>86.2</ele>
        <time>2023-04-05T15:29:53Z</time>
      </trkpt>
      <trkpt lat="47.92703" lon="-3.89895">
        <ele>86.1</ele>
        <time>2023-04-05T15:29:54Z</time>
      </trkpt>
      <trkpt lat="47.92697" lon="-3.899">
        <ele>85.9</ele>
        <time>2023-04-05T15:29:55Z</time>
      </trkpt>
      <trkpt lat="47.9269" lon="-3.89905">
        <ele>85.7</ele>
        <time>2023-04-05T15:29:56Z</time>
      </trkpt>
      <trkpt lat="47.92683" lon="-3.89909">
        <ele>85.5</ele>
        <time>2023-04-05T15:29:57Z</time>
      </trkpt>
      <trkpt lat="47.92677" lon="-3.89914">
        <ele>85.3</ele>
        <time>2023-04-05T15:29:58Z</time>
      </trkpt>
      <trkpt lat="47.9267" lon="-3.89918">
        <ele>85.2</ele>
        <time>2023-04-05T15:29:59Z</time>
      </trkpt>
      <trkpt lat="47.92663" lon="-3.89923">
        <ele>85</ele>
        <time>2023-04-05T15:30:00Z</time>
      </trkpt>
      <trkpt lat="47.92656" lon="-3.89927">
        <ele>84.9</ele>
        <time>2023-04-05T15:30:01Z</time>
      </trkpt>
      <trkpt lat="47.9265" lon="-3.89931">
        <ele>84.7</ele>
        <time>2023-04-05T15:30:02Z</time>
      </trkpt>
      <trkpt lat="47.92644" lon="-3.89936">
        <ele>84.6</ele>
        <time>2023-04-05T15:30:03Z</time>
      </trkpt>
      <trkpt lat="47.92637" lon="-3.89941">
        <ele>84.4</ele>
        <time>2023-04-05T15:30:04Z</time>
      </trkpt>
      <trkpt lat="47.92631" lon="-3.89945">
        <ele>84.2</ele>
        <time>2023-04-05T15:30:05Z</time>
      </trkpt>
      <trkpt lat="47.92624" lon="-3.8995">
        <ele>84.1</ele>
        <time>2023-04-05T15:30:06Z</time>
      </trkpt>
      <trkpt lat="47.92618" lon="-3.89954">
        <ele>83.9</ele>
        <time>2023-04-05T15:30:07Z</time>
      </trkpt>
      <trkpt lat="47.92611" lon="-3.89958">
        <ele>83.7</ele>
        <time>2023-04-05T15:30:08Z</time>
      </trkpt>
      <trkpt lat="47.92605" lon="-3.89962">
        <ele>83.5</ele>
        <time>2023-04-05T15:30:09Z</time>
      </trkpt>
      <trkpt lat="47.92599" lon="-3.89966">
        <ele>83.3</ele>
        <time>2023-04-05T15:30:10Z</time>
      </trkpt>
      <trkpt lat="47.92592" lon="-3.8997">
        <ele>83.1</ele>
        <time>2023-04-05T15:30:11Z</time>
      </trkpt>
      <trkpt lat="47.92586" lon="-3.89974">
        <ele>83</ele>
        <time>2023-04-05T15:30:12Z</time>
      </trkpt>
      <trkpt lat="47.9258" lon="-3.89978">
        <ele>82.8</ele>
        <time>2023-04-05T15:30:13Z</time>
      </trkpt>
      <trkpt lat="47.92573" lon="-3.89983">
        <ele>82.6</ele>
        <time>2023-04-05T15:30:14Z</time>
      </trkpt>
      <trkpt lat="47.92567" lon="-3.89987">
        <ele>82.4</ele>
        <time>2023-04-05T15:30:15Z</time>
      </trkpt>
      <trkpt lat="47.9256" lon="-3.89991">
        <ele>82.2</ele>
        <time>2023-04-05T15:30:16Z</time>
      </trkpt>
      <trkpt lat="47.92554" lon="-3.89996">
        <ele>82</ele>
        <time>2023-04-05T15:30:17Z</time>
      </trkpt>
      <trkpt lat="47.92547" lon="-3.9">
        <ele>81.8</ele>
        <time>2023-04-05T15:30:18Z</time>
      </trkpt>
      <trkpt lat="47.9254" lon="-3.90003">
        <ele>81.6</ele>
        <time>2023-04-05T15:30:19Z</time>
      </trkpt>
      <trkpt lat="47.92534" lon="-3.90008">
        <ele>81.4</ele>
        <time>2023-04-05T15:30:20Z</time>
      </trkpt>
      <trkpt lat="47.92527" lon="-3.90012">
        <ele>81.3</ele>
        <time>2023-04-05T15:30:21Z</time>
      </trkpt>
      <trkpt lat="47.9252" lon="-3.90016">
        <ele>81.1</ele>
        <time>2023-04-05T15:30:22Z</time>
      </trkpt>
      <trkpt lat="47.92514" lon="-3.9002">
        <ele>81.1</ele>
        <time>2023-04-05T15:30:23Z</time>
      </trkpt>
      <trkpt lat="47.92507" lon="-3.90023">
        <ele>80.9</ele>
        <time>2023-04-05T15:30:24Z</time>
      </trkpt>
      <trkpt lat="47.92501" lon="-3.90028">
        <ele>80.8</ele>
        <time>2023-04-05T15:30:25Z</time>
      </trkpt>
      <trkpt lat="47.92495" lon="-3.90032">
        <ele>80.6</ele>
        <time>2023-04-05T15:30:26Z</time>
      </trkpt>
      <trkpt lat="47.92488" lon="-3.90036">
        <ele>80.4</ele>
        <time>2023-04-05T15:30:27Z</time>
      </trkpt>
      <trkpt lat="47.92481" lon="-3.9004">
        <ele>80.2</ele>
        <time>2023-04-05T15:30:28Z</time>
      </trkpt>
      <trkpt lat="47.92474" lon="-3.90043">
        <ele>80</ele>
        <time>2023-04-05T15:30:29Z</time>
      </trkpt>
      <trkpt lat="47.92466" lon="-3.90047">
        <ele>79.9</ele>
        <time>2023-04-05T15:30:30Z</time>
      </trkpt>
      <trkpt lat="47.9246" lon="-3.90052">
        <ele>79.7</ele>
        <time>2023-04-05T15:30:31Z</time>
      </trkpt>
      <trkpt lat="47.92453" lon="-3.90058">
        <ele>79.5</ele>
        <time>2023-04-05T15:30:32Z</time>
      </trkpt>
      <trkpt lat="47.92446" lon="-3.90062">
        <ele>79.3</ele>
        <time>2023-04-05T15:30:33Z</time>
      </trkpt>
      <trkpt lat="47.92439" lon="-3.90066">
        <ele>79.2</ele>
        <time>2023-04-05T15:30:34Z</time>
      </trkpt>
      <trkpt lat="47.92433" lon="-3.9007">
        <ele>79</ele>
        <time>2023-04-05T15:30:35Z</time>
      </trkpt>
      <trkpt lat="47.92426" lon="-3.90074">
        <ele>78.9</ele>
        <time>2023-04-05T15:30:36Z</time>
      </trkpt>
      <trkpt lat="47.92419" lon="-3.90078">
        <ele>78.8</ele>
        <time>2023-04-05T15:30:37Z</time>
      </trkpt>
      <trkpt lat="47.92412" lon="-3.90081">
        <ele>78.7</ele>
        <time>2023-04-05T15:30:38Z</time>
      </trkpt>
      <trkpt lat="47.92406" lon="-3.90086">
        <ele>78.5</ele>
        <time>2023-04-05T15:30:39Z</time>
      </trkpt>
      <trkpt lat="47.92399" lon="-3.9009">
        <ele>78.4</ele>
        <time>2023-04-05T15:30:40Z</time>
      </trkpt>
      <trkpt lat="47.92392" lon="-3.90094">
        <ele>78.3</ele>
        <time>2023-04-05T15:30:41Z</time>
      </trkpt>
      <trkpt lat="47.92385" lon="-3.90099">
        <ele>78.2</ele>
        <time>2023-04-05T15:30:42Z</time>
      </trkpt>
      <trkpt lat="47.92379" lon="-3.90103">
        <ele>78.1</ele>
        <time>2023-04-05T15:30:43Z</time>
      </trkpt>
      <trkpt lat="47.92374" lon="-3.90108">
        <ele>78</ele>
        <time>2023-04-05T15:30:44Z</time>
      </trkpt>
      <trkpt lat="47.92368" lon="-3.90113">
        <ele>77.9</ele>
        <time>2023-04-05T15:30:45Z</time>
      </trkpt>
      <trkpt lat="47.92361" lon="-3.90118">
        <ele>77.9</ele>
        <time>2023-04-05T15:30:46Z</time>
      </trkpt>
      <trkpt lat="47.92355" lon="-3.90122">
        <ele>77.8</ele>
        <time>2023-04-05T15:30:47Z</time>
      </trkpt>
      <trkpt lat="47.9235" lon="-3.90126">
        <ele>77.8</ele>
        <time>2023-04-05T15:30:48Z</time>
      </trkpt>
      <trkpt lat="47.92343" lon="-3.9013">
        <ele>77.7</ele>
        <time>2023-04-05T15:30:49Z</time>
      </trkpt>
      <trkpt lat="47.92338" lon="-3.90134">
        <ele>77.7</ele>
        <time>2023-04-05T15:30:50Z</time>
      </trkpt>
      <trkpt lat="47.92332" lon="-3.90138">
        <ele>77.7</ele>
        <time>2023-04-05T15:30:51Z</time>
      </trkpt>
      <trkpt lat="47.92326" lon="-3.90142">
        <ele>77.7</ele>
        <time>2023-04-05T15:30:52Z</time>
      </trkpt>
      <trkpt lat="47.9232" lon="-3.90146">
        <ele>77.7</ele>
        <time>2023-04-05T15:30:53Z</time>
      </trkpt>
      <trkpt lat="47.92314" lon="-3.90149">
        <ele>77.8</ele>
        <time>2023-04-05T15:30:54Z</time>
      </trkpt>
      <trkpt lat="47.92309" lon="-3.90153">
        <ele>77.8</ele>
        <time>2023-04-05T15:30:55Z</time>
      </trkpt>
      <trkpt lat="47.92303" lon="-3.90157">
        <ele>77.8</ele>
        <time>2023-04-05T15:30:56Z</time>
      </trkpt>
      <trkpt lat="47.92297" lon="-3.90161">
        <ele>77.8</ele>
        <time>2023-04-05T15:30:57Z</time>
      </trkpt>
      <trkpt lat="47.92292" lon="-3.90165">
        <ele>77.9</ele>
        <time>2023-04-05T15:30:58Z</time>
      </trkpt>
      <trkpt lat="47.92286" lon="-3.90169">
        <ele>78</ele>
        <time>2023-04-05T15:30:59Z</time>
      </trkpt>
      <trkpt lat="47.9228" lon="-3.90173">
        <ele>78.1</ele>
        <time>2023-04-05T15:31:00Z</time>
      </trkpt>
      <trkpt lat="47.92275" lon="-3.90176">
        <ele>78.2</ele>
        <time>2023-04-05T15:31:01Z</time>
      </trkpt>
      <trkpt lat="47.92269" lon="-3.9018">
        <ele>78.3</ele>
        <time>2023-04-05T15:31:02Z</time>
      </trkpt>
      <trkpt lat="47.92264" lon="-3.90183">
        <ele>78.4</ele>
        <time>2023-04-05T15:31:03Z</time>
      </trkpt>
      <trkpt lat="47.92259" lon="-3.90186">
        <ele>78.5</ele>
        <time>2023-04-05T15:31:04Z</time>
      </trkpt>
      <trkpt lat="47.92254" lon="-3.9019">
        <ele>78.6</ele>
        <time>2023-04-05T15:31:05Z</time>
      </trkpt>
      <trkpt lat="47.92249" lon="-3.90193">
        <ele>78.7</ele>
        <time>2023-04-05T15:31:06Z</time>
      </trkpt>
      <trkpt lat="47.92244" lon="-3.90197">
        <ele>78.8</ele>
        <time>2023-04-05T15:31:07Z</time>
      </trkpt>
      <trkpt lat="47.92239" lon="-3.902">
        <ele>78.9</ele>
        <time>2023-04-05T15:31:08Z</time>
      </trkpt>
      <trkpt lat="47.92234" lon="-3.90204">
        <ele>79</ele>
        <time>2023-04-05T15:31:09Z</time>
      </trkpt>
      <trkpt lat="47.92229" lon="-3.90207">
        <ele>79.2</ele>
        <time>2023-04-05T15:31:10Z</time>
      </trkpt>
      <trkpt lat="47.92224" lon="-3.90211">
        <ele>79.2</ele>
        <time>2023-04-05T15:31:11Z</time>
      </trkpt>
      <trkpt lat="47.92219" lon="-3.90214">
        <ele>79.3</ele>
        <time>2023-04-05T15:31:12Z</time>
      </trkpt>
      <trkpt lat="47.92214" lon="-3.90217">
        <ele>79.4</ele>
        <time>2023-04-05T15:31:13Z</time>
      </trkpt>
      <trkpt lat="47.92209" lon="-3.9022">
        <ele>79.5</ele>
        <time>2023-04-05T15:31:14Z</time>
      </trkpt>
      <trkpt lat="47.92203" lon="-3.90223">
        <ele>79.6</ele>
        <time>2023-04-05T15:31:15Z</time>
      </trkpt>
      <trkpt lat="47.92199" lon="-3.90226">
        <ele>79.7</ele>
        <time>2023-04-05T15:31:16Z</time>
      </trkpt>
      <trkpt lat="47.92194" lon="-3.90229">
        <ele>79.8</ele>
        <time>2023-04-05T15:31:17Z</time>
      </trkpt>
      <trkpt lat="47.9219" lon="-3.90233">
        <ele>79.9</ele>
        <time>2023-04-05T15:31:18Z</time>
      </trkpt>
      <trkpt lat="47.92185" lon="-3.90236">
        <ele>80</ele>
        <time>2023-04-05T15:31:19Z</time>
      </trkpt>
      <trkpt lat="47.92181" lon="-3.90239">
        <ele>80.1</ele>
        <time>2023-04-05T15:31:20Z</time>
      </trkpt>
      <trkpt lat="47.92176" lon="-3.90242">
        <ele>80.2</ele>
        <time>2023-04-05T15:31:21Z</time>
      </trkpt>
      <trkpt lat="47.92172" lon="-3.90246">
        <ele>80.3</ele>
        <time>2023-04-05T15:31:22Z</time>
      </trkpt>
      <trkpt lat="47.92167" lon="-3.90248">
        <ele>80.4</ele>
        <time>2023-04-05T15:31:23Z</time>
      </trkpt>
      <trkpt lat="47.92163" lon="-3.90251">
        <ele>80.5</ele>
        <time>2023-04-05T15:31:24Z</time>
      </trkpt>
      <trkpt lat="47.92158" lon="-3.90254">
        <ele>80.6</ele>
        <time>2023-04-05T15:31:25Z</time>
      </trkpt>
      <trkpt lat="47.92154" lon="-3.90257">
        <ele>80.7</ele>
        <time>2023-04-05T15:31:26Z</time>
      </trkpt>
      <trkpt lat="47.9215" lon="-3.9026">
        <ele>80.9</ele>
        <time>2023-04-05T15:31:27Z</time>
      </trkpt>
      <trkpt lat="47.92146" lon="-3.90263">
        <ele>81</ele>
        <time>2023-04-05T15:31:28Z</time>
      </trkpt>
      <trkpt lat="47.92143" lon="-3.90266">
        <ele>81.1</ele>
        <time>2023-04-05T15:31:29Z</time>
      </trkpt>
      <trkpt lat="47.92139" lon="-3.90269">
        <ele>81.2</ele>
        <time>2023-04-05T15:31:30Z</time>
      </trkpt>
      <trkpt lat="47.92136" lon="-3.90271">
        <ele>81.3</ele>
        <time>2023-04-05T15:31:31Z</time>
      </trkpt>
      <trkpt lat="47.92133" lon="-3.90272">
        <ele>81.4</ele>
        <time>2023-04-05T15:31:32Z</time>
      </trkpt>
      <trkpt lat="47.9213" lon="-3.90273">
        <ele>81.6</ele>
        <time>2023-04-05T15:31:33Z</time>
      </trkpt>
      <trkpt lat="47.92127" lon="-3.90275">
        <ele>81.7</ele>
        <time>2023-04-05T15:31:34Z</time>
      </trkpt>
      <trkpt lat="47.92126" lon="-3.90276">
        <ele>81.7</ele>
        <time>2023-04-05T15:31:35Z</time>
      </trkpt>
      <trkpt lat="47.92122" lon="-3.90278">
        <ele>81.9</ele>
        <time>2023-04-05T15:31:36Z</time>
      </trkpt>
      <trkpt lat="47.92121" lon="-3.90279">
        <ele>81.9</ele>
        <time>2023-04-05T15:31:37Z</time>
      </trkpt>
      <trkpt lat="47.92118" lon="-3.9028">
        <ele>81.9</ele>
        <time>2023-04-05T15:31:38Z</time>
      </trkpt>
      <trkpt lat="47.92112" lon="-3.90283">
        <ele>81.9</ele>
        <time>2023-04-05T15:31:40Z</time>
      </trkpt>
      <trkpt lat="47.92106" lon="-3.90285">
        <ele>81.9</ele>
        <time>2023-04-05T15:31:41Z</time>
      </trkpt>
      <trkpt lat="47.92102" lon="-3.90287">
        <ele>82</ele>
        <time>2023-04-05T15:31:43Z</time>
      </trkpt>
      <trkpt lat="47.92098" lon="-3.90289">
        <ele>82</ele>
        <time>2023-04-05T15:31:44Z</time>
      </trkpt>
      <trkpt lat="47.92094" lon="-3.90292">
        <ele>82</ele>
        <time>2023-04-05T15:31:45Z</time>
      </trkpt>
      <trkpt lat="47.92087" lon="-3.90297">
        <ele>82.1</ele>
        <time>2023-04-05T15:31:46Z</time>
      </trkpt>
      <trkpt lat="47.92082" lon="-3.90301">
        <ele>82.1</ele>
        <time>2023-04-05T15:31:48Z</time>
      </trkpt>
      <trkpt lat="47.92078" lon="-3.90303">
        <ele>82.2</ele>
        <time>2023-04-05T15:31:49Z</time>
      </trkpt>
      <trkpt lat="47.92073" lon="-3.90305">
        <ele>82.3</ele>
        <time>2023-04-05T15:31:50Z</time>
      </trkpt>
      <trkpt lat="47.92065" lon="-3.90308">
        <ele>82.4</ele>
        <time>2023-04-05T15:31:51Z</time>
      </trkpt>
      <trkpt lat="47.9206" lon="-3.9031">
        <ele>82.4</ele>
        <time>2023-04-05T15:31:53Z</time>
      </trkpt>
      <trkpt lat="47.92056" lon="-3.90311">
        <ele>82.5</ele>
        <time>2023-04-05T15:31:54Z</time>
      </trkpt>
      <trkpt lat="47.92051" lon="-3.90316">
        <ele>82.5</ele>
        <time>2023-04-05T15:31:55Z</time>
      </trkpt>
      <trkpt lat="47.92047" lon="-3.90319">
        <ele>82.5</ele>
        <time>2023-04-05T15:31:56Z</time>
      </trkpt>
      <trkpt lat="47.92042" lon="-3.90322">
        <ele>82.6</ele>
        <time>2023-04-05T15:31:57Z</time>
      </trkpt>
      <trkpt lat="47.92038" lon="-3.90325">
        <ele>82.6</ele>
        <time>2023-04-05T15:31:58Z</time>
      </trkpt>
      <trkpt lat="47.92034" lon="-3.90327">
        <ele>82.6</ele>
        <time>2023-04-05T15:31:59Z</time>
      </trkpt>
      <trkpt lat="47.9203" lon="-3.9033">
        <ele>82.6</ele>
        <time>2023-04-05T15:32:00Z</time>
      </trkpt>
      <trkpt lat="47.92025" lon="-3.90332">
        <ele>82.7</ele>
        <time>2023-04-05T15:32:01Z</time>
      </trkpt>
      <trkpt lat="47.92021" lon="-3.90334">
        <ele>82.7</ele>
        <time>2023-04-05T15:32:02Z</time>
      </trkpt>
      <trkpt lat="47.92016" lon="-3.90336">
        <ele>82.7</ele>
        <time>2023-04-05T15:32:03Z</time>
      </trkpt>
      <trkpt lat="47.92011" lon="-3.90339">
        <ele>82.7</ele>
        <time>2023-04-05T15:32:04Z</time>
      </trkpt>
      <trkpt lat="47.92006" lon="-3.90341">
        <ele>82.7</ele>
        <time>2023-04-05T15:32:05Z</time>
      </trkpt>
      <trkpt lat="47.92001" lon="-3.90344">
        <ele>82.7</ele>
        <time>2023-04-05T15:32:06Z</time>
      </trkpt>
      <trkpt lat="47.91996" lon="-3.90346">
        <ele>82.7</ele>
        <time>2023-04-05T15:32:07Z</time>
      </trkpt>
      <trkpt lat="47.91991" lon="-3.90349">
        <ele>82.7</ele>
        <time>2023-04-05T15:32:08Z</time>
      </trkpt>
      <trkpt lat="47.91986" lon="-3.90351">
        <ele>82.7</ele>
        <time>2023-04-05T15:32:09Z</time>
      </trkpt>
      <trkpt lat="47.91981" lon="-3.90354">
        <ele>82.8</ele>
        <time>2023-04-05T15:32:10Z</time>
      </trkpt>
      <trkpt lat="47.91976" lon="-3.90357">
        <ele>82.8</ele>
        <time>2023-04-05T15:32:11Z</time>
      </trkpt>
      <trkpt lat="47.91972" lon="-3.90359">
        <ele>82.8</ele>
        <time>2023-04-05T15:32:12Z</time>
      </trkpt>
      <trkpt lat="47.91967" lon="-3.90361">
        <ele>82.8</ele>
        <time>2023-04-05T15:32:13Z</time>
      </trkpt>
      <trkpt lat="47.91962" lon="-3.90364">
        <ele>82.8</ele>
        <time>2023-04-05T15:32:14Z</time>
      </trkpt>
      <trkpt lat="47.91956" lon="-3.90367">
        <ele>82.8</ele>
        <time>2023-04-05T15:32:15Z</time>
      </trkpt>
      <trkpt lat="47.91951" lon="-3.90369">
        <ele>82.7</ele>
        <time>2023-04-05T15:32:16Z</time>
      </trkpt>
      <trkpt lat="47.91946" lon="-3.90372">
        <ele>82.7</ele>
        <time>2023-04-05T15:32:17Z</time>
      </trkpt>
      <trkpt lat="47.9194" lon="-3.90375">
        <ele>82.7</ele>
        <time>2023-04-05T15:32:18Z</time>
      </trkpt>
      <trkpt lat="47.91935" lon="-3.90377">
        <ele>82.7</ele>
        <time>2023-04-05T15:32:19Z</time>
      </trkpt>
      <trkpt lat="47.91929" lon="-3.9038">
        <ele>82.7</ele>
        <time>2023-04-05T15:32:20Z</time>
      </trkpt>
      <trkpt lat="47.91924" lon="-3.90383">
        <ele>82.7</ele>
        <time>2023-04-05T15:32:21Z</time>
      </trkpt>
      <trkpt lat="47.91919" lon="-3.90385">
        <ele>82.8</ele>
        <time>2023-04-05T15:32:22Z</time>
      </trkpt>
      <trkpt lat="47.91914" lon="-3.90388">
        <ele>82.8</ele>
        <time>2023-04-05T15:32:23Z</time>
      </trkpt>
      <trkpt lat="47.91908" lon="-3.90391">
        <ele>82.8</ele>
        <time>2023-04-05T15:32:24Z</time>
      </trkpt>
      <trkpt lat="47.91903" lon="-3.90393">
        <ele>82.8</ele>
        <time>2023-04-05T15:32:25Z</time>
      </trkpt>
      <trkpt lat="47.91898" lon="-3.90395">
        <ele>82.8</ele>
        <time>2023-04-05T15:32:26Z</time>
      </trkpt>
      <trkpt lat="47.91892" lon="-3.90397">
        <ele>82.8</ele>
        <time>2023-04-05T15:32:27Z</time>
      </trkpt>
      <trkpt lat="47.91887" lon="-3.904">
        <ele>82.9</ele>
        <time>2023-04-05T15:32:28Z</time>
      </trkpt>
      <trkpt lat="47.91882" lon="-3.90403">
        <ele>82.9</ele>
        <time>2023-04-05T15:32:29Z</time>
      </trkpt>
      <trkpt lat="47.91876" lon="-3.90406">
        <ele>82.9</ele>
        <time>2023-04-05T15:32:30Z</time>
      </trkpt>
      <trkpt lat="47.91871" lon="-3.90409">
        <ele>82.9</ele>
        <time>2023-04-05T15:32:31Z</time>
      </trkpt>
      <trkpt lat="47.91866" lon="-3.90411">
        <ele>82.9</ele>
        <time>2023-04-05T15:32:32Z</time>
      </trkpt>
      <trkpt lat="47.91861" lon="-3.90413">
        <ele>83</ele>
        <time>2023-04-05T15:32:33Z</time>
      </trkpt>
      <trkpt lat="47.91856" lon="-3.90416">
        <ele>83</ele>
        <time>2023-04-05T15:32:34Z</time>
      </trkpt>
      <trkpt lat="47.91851" lon="-3.90418">
        <ele>83</ele>
        <time>2023-04-05T15:32:35Z</time>
      </trkpt>
      <trkpt lat="47.91846" lon="-3.9042">
        <ele>83</ele>
        <time>2023-04-05T15:32:36Z</time>
      </trkpt>
      <trkpt lat="47.91841" lon="-3.90422">
        <ele>83</ele>
        <time>2023-04-05T15:32:37Z</time>
      </trkpt>
      <trkpt lat="47.91836" lon="-3.90424">
        <ele>83</ele>
        <time>2023-04-05T15:32:38Z</time>
      </trkpt>
      <trkpt lat="47.9183" lon="-3.90426">
        <ele>83</ele>
        <time>2023-04-05T15:32:39Z</time>
      </trkpt>
      <trkpt lat="47.91826" lon="-3.90431">
        <ele>83</ele>
        <time>2023-04-05T15:32:40Z</time>
      </trkpt>
      <trkpt lat="47.91822" lon="-3.90434">
        <ele>83</ele>
        <time>2023-04-05T15:32:41Z</time>
      </trkpt>
      <trkpt lat="47.91817" lon="-3.90437">
        <ele>83</ele>
        <time>2023-04-05T15:32:42Z</time>
      </trkpt>
      <trkpt lat="47.91812" lon="-3.9044">
        <ele>82.9</ele>
        <time>2023-04-05T15:32:43Z</time>
      </trkpt>
      <trkpt lat="47.91806" lon="-3.90442">
        <ele>82.9</ele>
        <time>2023-04-05T15:32:44Z</time>
      </trkpt>
      <trkpt lat="47.91801" lon="-3.90445">
        <ele>82.9</ele>
        <time>2023-04-05T15:32:45Z</time>
      </trkpt>
      <trkpt lat="47.91796" lon="-3.90448">
        <ele>82.9</ele>
        <time>2023-04-05T15:32:46Z</time>
      </trkpt>
      <trkpt lat="47.9179" lon="-3.90451">
        <ele>82.9</ele>
        <time>2023-04-05T15:32:47Z</time>
      </trkpt>
      <trkpt lat="47.91784" lon="-3.90454">
        <ele>82.9</ele>
        <time>2023-04-05T15:32:48Z</time>
      </trkpt>
      <trkpt lat="47.91779" lon="-3.90457">
        <ele>82.9</ele>
        <time>2023-04-05T15:32:49Z</time>
      </trkpt>
      <trkpt lat="47.91774" lon="-3.9046">
        <ele>82.9</ele>
        <time>2023-04-05T15:32:50Z</time>
      </trkpt>
      <trkpt lat="47.91768" lon="-3.90462">
        <ele>82.8</ele>
        <time>2023-04-05T15:32:51Z</time>
      </trkpt>
      <trkpt lat="47.91762" lon="-3.90466">
        <ele>82.8</ele>
        <time>2023-04-05T15:32:52Z</time>
      </trkpt>
      <trkpt lat="47.91758" lon="-3.90469">
        <ele>82.8</ele>
        <time>2023-04-05T15:32:53Z</time>
      </trkpt>
      <trkpt lat="47.91752" lon="-3.90472">
        <ele>82.8</ele>
        <time>2023-04-05T15:32:54Z</time>
      </trkpt>
      <trkpt lat="47.91747" lon="-3.90476">
        <ele>82.8</ele>
        <time>2023-04-05T15:32:55Z</time>
      </trkpt>
      <trkpt lat="47.91741" lon="-3.90478">
        <ele>82.8</ele>
        <time>2023-04-05T15:32:56Z</time>
      </trkpt>
      <trkpt lat="47.91735" lon="-3.90481">
        <ele>82.8</ele>
        <time>2023-04-05T15:32:57Z</time>
      </trkpt>
      <trkpt lat="47.9173" lon="-3.90483">
        <ele>82.9</ele>
        <time>2023-04-05T15:32:58Z</time>
      </trkpt>
      <trkpt lat="47.91724" lon="-3.90486">
        <ele>82.9</ele>
        <time>2023-04-05T15:32:59Z</time>
      </trkpt>
      <trkpt lat="47.91718" lon="-3.90488">
        <ele>82.9</ele>
        <time>2023-04-05T15:33:00Z</time>
      </trkpt>
      <trkpt lat="47.91712" lon="-3.9049">
        <ele>82.9</ele>
        <time>2023-04-05T15:33:01Z</time>
      </trkpt>
      <trkpt lat="47.91707" lon="-3.90493">
        <ele>82.9</ele>
        <time>2023-04-05T15:33:02Z</time>
      </trkpt>
      <trkpt lat="47.91701" lon="-3.90495">
        <ele>82.9</ele>
        <time>2023-04-05T15:33:03Z</time>
      </trkpt>
      <trkpt lat="47.91695" lon="-3.90496">
        <ele>83</ele>
        <time>2023-04-05T15:33:04Z</time>
      </trkpt>
      <trkpt lat="47.9169" lon="-3.90498">
        <ele>83</ele>
        <time>2023-04-05T15:33:05Z</time>
      </trkpt>
      <trkpt lat="47.91684" lon="-3.905">
        <ele>83</ele>
        <time>2023-04-05T15:33:06Z</time>
      </trkpt>
      <trkpt lat="47.91679" lon="-3.90502">
        <ele>83</ele>
        <time>2023-04-05T15:33:07Z</time>
      </trkpt>
      <trkpt lat="47.91673" lon="-3.90504">
        <ele>83</ele>
        <time>2023-04-05T15:33:08Z</time>
      </trkpt>
      <trkpt lat="47.91667" lon="-3.90505">
        <ele>83</ele>
        <time>2023-04-05T15:33:09Z</time>
      </trkpt>
      <trkpt lat="47.91661" lon="-3.90506">
        <ele>82.9</ele>
        <time>2023-04-05T15:33:10Z</time>
      </trkpt>
      <trkpt lat="47.91655" lon="-3.90507">
        <ele>82.9</ele>
        <time>2023-04-05T15:33:11Z</time>
      </trkpt>
      <trkpt lat="47.9165" lon="-3.90508">
        <ele>82.9</ele>
        <time>2023-04-05T15:33:12Z</time>
      </trkpt>
      <trkpt lat="47.91644" lon="-3.90509">
        <ele>82.9</ele>
        <time>2023-04-05T15:33:13Z</time>
      </trkpt>
      <trkpt lat="47.91639" lon="-3.90511">
        <ele>82.9</ele>
        <time>2023-04-05T15:33:14Z</time>
      </trkpt>
      <trkpt lat="47.91634" lon="-3.90512">
        <ele>82.9</ele>
        <time>2023-04-05T15:33:15Z</time>
      </trkpt>
      <trkpt lat="47.91628" lon="-3.90513">
        <ele>82.9</ele>
        <time>2023-04-05T15:33:16Z</time>
      </trkpt>
      <trkpt lat="47.91622" lon="-3.90514">
        <ele>82.9</ele>
        <time>2023-04-05T15:33:17Z</time>
      </trkpt>
      <trkpt lat="47.91616" lon="-3.90515">
        <ele>82.8</ele>
        <time>2023-04-05T15:33:18Z</time>
      </trkpt>
      <trkpt lat="47.91611" lon="-3.90515">
        <ele>82.8</ele>
        <time>2023-04-05T15:33:19Z</time>
      </trkpt>
      <trkpt lat="47.91605" lon="-3.90515">
        <ele>82.7</ele>
        <time>2023-04-05T15:33:20Z</time>
      </trkpt>
      <trkpt lat="47.91599" lon="-3.90515">
        <ele>82.7</ele>
        <time>2023-04-05T15:33:21Z</time>
      </trkpt>
      <trkpt lat="47.91593" lon="-3.90516">
        <ele>82.7</ele>
        <time>2023-04-05T15:33:22Z</time>
      </trkpt>
      <trkpt lat="47.91588" lon="-3.90517">
        <ele>82.7</ele>
        <time>2023-04-05T15:33:23Z</time>
      </trkpt>
      <trkpt lat="47.91582" lon="-3.90518">
        <ele>82.7</ele>
        <time>2023-04-05T15:33:24Z</time>
      </trkpt>
      <trkpt lat="47.91576" lon="-3.9052">
        <ele>82.7</ele>
        <time>2023-04-05T15:33:25Z</time>
      </trkpt>
      <trkpt lat="47.91571" lon="-3.90522">
        <ele>82.7</ele>
        <time>2023-04-05T15:33:26Z</time>
      </trkpt>
      <trkpt lat="47.91565" lon="-3.90523">
        <ele>82.7</ele>
        <time>2023-04-05T15:33:27Z</time>
      </trkpt>
      <trkpt lat="47.9156" lon="-3.90524">
        <ele>82.7</ele>
        <time>2023-04-05T15:33:28Z</time>
      </trkpt>
      <trkpt lat="47.91554" lon="-3.90525">
        <ele>82.7</ele>
        <time>2023-04-05T15:33:29Z</time>
      </trkpt>
      <trkpt lat="47.91549" lon="-3.90526">
        <ele>82.7</ele>
        <time>2023-04-05T15:33:30Z</time>
      </trkpt>
      <trkpt lat="47.91543" lon="-3.90526">
        <ele>82.8</ele>
        <time>2023-04-05T15:33:31Z</time>
      </trkpt>
      <trkpt lat="47.91538" lon="-3.90527">
        <ele>82.8</ele>
        <time>2023-04-05T15:33:32Z</time>
      </trkpt>
      <trkpt lat="47.91532" lon="-3.90528">
        <ele>82.9</ele>
        <time>2023-04-05T15:33:33Z</time>
      </trkpt>
      <trkpt lat="47.91527" lon="-3.90529">
        <ele>82.9</ele>
        <time>2023-04-05T15:33:34Z</time>
      </trkpt>
      <trkpt lat="47.91521" lon="-3.9053">
        <ele>83</ele>
        <time>2023-04-05T15:33:35Z</time>
      </trkpt>
      <trkpt lat="47.91516" lon="-3.9053">
        <ele>83.1</ele>
        <time>2023-04-05T15:33:36Z</time>
      </trkpt>
      <trkpt lat="47.91511" lon="-3.9053">
        <ele>83.1</ele>
        <time>2023-04-05T15:33:37Z</time>
      </trkpt>
      <trkpt lat="47.91506" lon="-3.90531">
        <ele>83.2</ele>
        <time>2023-04-05T15:33:38Z</time>
      </trkpt>
      <trkpt lat="47.91501" lon="-3.90532">
        <ele>83.3</ele>
        <time>2023-04-05T15:33:39Z</time>
      </trkpt>
      <trkpt lat="47.91495" lon="-3.90532">
        <ele>83.4</ele>
        <time>2023-04-05T15:33:40Z</time>
      </trkpt>
      <trkpt lat="47.9149" lon="-3.90533">
        <ele>83.5</ele>
        <time>2023-04-05T15:33:41Z</time>
      </trkpt>
      <trkpt lat="47.91486" lon="-3.90536">
        <ele>83.5</ele>
        <time>2023-04-05T15:33:42Z</time>
      </trkpt>
      <trkpt lat="47.91483" lon="-3.90537">
        <ele>83.6</ele>
        <time>2023-04-05T15:33:43Z</time>
      </trkpt>
      <trkpt lat="47.91477" lon="-3.90539">
        <ele>83.7</ele>
        <time>2023-04-05T15:33:44Z</time>
      </trkpt>
      <trkpt lat="47.91472" lon="-3.90539">
        <ele>83.7</ele>
        <time>2023-04-05T15:33:45Z</time>
      </trkpt>
      <trkpt lat="47.91467" lon="-3.9054">
        <ele>83.8</ele>
        <time>2023-04-05T15:33:46Z</time>
      </trkpt>
      <trkpt lat="47.91462" lon="-3.90542">
        <ele>83.9</ele>
        <time>2023-04-05T15:33:47Z</time>
      </trkpt>
      <trkpt lat="47.91457" lon="-3.90542">
        <ele>84</ele>
        <time>2023-04-05T15:33:48Z</time>
      </trkpt>
      <trkpt lat="47.91452" lon="-3.90542">
        <ele>84</ele>
        <time>2023-04-05T15:33:49Z</time>
      </trkpt>
      <trkpt lat="47.91447" lon="-3.90543">
        <ele>84.1</ele>
        <time>2023-04-05T15:33:50Z</time>
      </trkpt>
      <trkpt lat="47.91442" lon="-3.90544">
        <ele>84.2</ele>
        <time>2023-04-05T15:33:51Z</time>
      </trkpt>
      <trkpt lat="47.91437" lon="-3.90544">
        <ele>84.3</ele>
        <time>2023-04-05T15:33:52Z</time>
      </trkpt>
      <trkpt lat="47.91432" lon="-3.90545">
        <ele>84.3</ele>
        <time>2023-04-05T15:33:53Z</time>
      </trkpt>
      <trkpt lat="47.91427" lon="-3.90546">
        <ele>84.4</ele>
        <time>2023-04-05T15:33:54Z</time>
      </trkpt>
      <trkpt lat="47.91424" lon="-3.90547">
        <ele>84.4</ele>
        <time>2023-04-05T15:33:55Z</time>
      </trkpt>
      <trkpt lat="47.91418" lon="-3.90548">
        <ele>84.5</ele>
        <time>2023-04-05T15:33:56Z</time>
      </trkpt>
      <trkpt lat="47.91413" lon="-3.90548">
        <ele>84.6</ele>
        <time>2023-04-05T15:33:57Z</time>
      </trkpt>
      <trkpt lat="47.91408" lon="-3.90548">
        <ele>84.7</ele>
        <time>2023-04-05T15:33:58Z</time>
      </trkpt>
      <trkpt lat="47.91403" lon="-3.9055">
        <ele>84.7</ele>
        <time>2023-04-05T15:33:59Z</time>
      </trkpt>
      <trkpt lat="47.91398" lon="-3.90551">
        <ele>84.8</ele>
        <time>2023-04-05T15:34:00Z</time>
      </trkpt>
      <trkpt lat="47.91394" lon="-3.90552">
        <ele>84.9</ele>
        <time>2023-04-05T15:34:01Z</time>
      </trkpt>
      <trkpt lat="47.9139" lon="-3.90553">
        <ele>84.9</ele>
        <time>2023-04-05T15:34:02Z</time>
      </trkpt>
      <trkpt lat="47.91384" lon="-3.90554">
        <ele>85</ele>
        <time>2023-04-05T15:34:03Z</time>
      </trkpt>
      <trkpt lat="47.91379" lon="-3.90554">
        <ele>85.1</ele>
        <time>2023-04-05T15:34:04Z</time>
      </trkpt>
      <trkpt lat="47.91375" lon="-3.90555">
        <ele>85.2</ele>
        <time>2023-04-05T15:34:05Z</time>
      </trkpt>
      <trkpt lat="47.91371" lon="-3.90555">
        <ele>85.2</ele>
        <time>2023-04-05T15:34:06Z</time>
      </trkpt>
      <trkpt lat="47.91366" lon="-3.90557">
        <ele>85.3</ele>
        <time>2023-04-05T15:34:08Z</time>
      </trkpt>
      <trkpt lat="47.91358" lon="-3.90559">
        <ele>85.4</ele>
        <time>2023-04-05T15:34:09Z</time>
      </trkpt>
      <trkpt lat="47.91355" lon="-3.9056">
        <ele>85.4</ele>
        <time>2023-04-05T15:34:10Z</time>
      </trkpt>
      <trkpt lat="47.91349" lon="-3.90559">
        <ele>85.5</ele>
        <time>2023-04-05T15:34:11Z</time>
      </trkpt>
      <trkpt lat="47.91344" lon="-3.9056">
        <ele>85.5</ele>
        <time>2023-04-05T15:34:12Z</time>
      </trkpt>
      <trkpt lat="47.91338" lon="-3.90562">
        <ele>85.6</ele>
        <time>2023-04-05T15:34:14Z</time>
      </trkpt>
      <trkpt lat="47.91333" lon="-3.90561">
        <ele>85.6</ele>
        <time>2023-04-05T15:34:15Z</time>
      </trkpt>
      <trkpt lat="47.91328" lon="-3.90561">
        <ele>85.7</ele>
        <time>2023-04-05T15:34:16Z</time>
      </trkpt>
      <trkpt lat="47.91324" lon="-3.9056">
        <ele>85.7</ele>
        <time>2023-04-05T15:34:17Z</time>
      </trkpt>
      <trkpt lat="47.91321" lon="-3.9056">
        <ele>85.8</ele>
        <time>2023-04-05T15:34:18Z</time>
      </trkpt>
      <trkpt lat="47.91317" lon="-3.9056">
        <ele>85.8</ele>
        <time>2023-04-05T15:34:19Z</time>
      </trkpt>
      <trkpt lat="47.91314" lon="-3.9056">
        <ele>85.8</ele>
        <time>2023-04-05T15:34:20Z</time>
      </trkpt>
      <trkpt lat="47.91311" lon="-3.90561">
        <ele>85.9</ele>
        <time>2023-04-05T15:34:21Z</time>
      </trkpt>
      <trkpt lat="47.91308" lon="-3.90562">
        <ele>85.9</ele>
        <time>2023-04-05T15:34:22Z</time>
      </trkpt>
      <trkpt lat="47.91305" lon="-3.90562">
        <ele>85.9</ele>
        <time>2023-04-05T15:34:23Z</time>
      </trkpt>
      <trkpt lat="47.91301" lon="-3.90563">
        <ele>85.9</ele>
        <time>2023-04-05T15:34:24Z</time>
      </trkpt>
      <trkpt lat="47.91297" lon="-3.90563">
        <ele>86</ele>
        <time>2023-04-05T15:34:25Z</time>
      </trkpt>
      <trkpt lat="47.91293" lon="-3.90563">
        <ele>86</ele>
        <time>2023-04-05T15:34:26Z</time>
      </trkpt>
      <trkpt lat="47.91289" lon="-3.90564">
        <ele>86</ele>
        <time>2023-04-05T15:34:27Z</time>
      </trkpt>
      <trkpt lat="47.91285" lon="-3.90565">
        <ele>86</ele>
        <time>2023-04-05T15:34:28Z</time>
      </trkpt>
      <trkpt lat="47.9128" lon="-3.90566">
        <ele>86</ele>
        <time>2023-04-05T15:34:29Z</time>
      </trkpt>
      <trkpt lat="47.91276" lon="-3.90567">
        <ele>86.1</ele>
        <time>2023-04-05T15:34:30Z</time>
      </trkpt>
      <trkpt lat="47.91271" lon="-3.90569">
        <ele>86.1</ele>
        <time>2023-04-05T15:34:31Z</time>
      </trkpt>
      <trkpt lat="47.91265" lon="-3.90571">
        <ele>86.1</ele>
        <time>2023-04-05T15:34:32Z</time>
      </trkpt>
      <trkpt lat="47.9126" lon="-3.90573">
        <ele>86.1</ele>
        <time>2023-04-05T15:34:33Z</time>
      </trkpt>
      <trkpt lat="47.91255" lon="-3.90574">
        <ele>86</ele>
        <time>2023-04-05T15:34:34Z</time>
      </trkpt>
      <trkpt lat="47.9125" lon="-3.90575">
        <ele>86</ele>
        <time>2023-04-05T15:34:35Z</time>
      </trkpt>
      <trkpt lat="47.91245" lon="-3.90578">
        <ele>86</ele>
        <time>2023-04-05T15:34:36Z</time>
      </trkpt>
      <trkpt lat="47.9124" lon="-3.9058">
        <ele>86</ele>
        <time>2023-04-05T15:34:37Z</time>
      </trkpt>
      <trkpt lat="47.91236" lon="-3.90582">
        <ele>85.9</ele>
        <time>2023-04-05T15:34:38Z</time>
      </trkpt>
      <trkpt lat="47.91231" lon="-3.90583">
        <ele>85.9</ele>
        <time>2023-04-05T15:34:39Z</time>
      </trkpt>
      <trkpt lat="47.91226" lon="-3.90585">
        <ele>85.9</ele>
        <time>2023-04-05T15:34:40Z</time>
      </trkpt>
      <trkpt lat="47.91221" lon="-3.90587">
        <ele>85.9</ele>
        <time>2023-04-05T15:34:41Z</time>
      </trkpt>
      <trkpt lat="47.91216" lon="-3.90589">
        <ele>85.9</ele>
        <time>2023-04-05T15:34:42Z</time>
      </trkpt>
      <trkpt lat="47.91212" lon="-3.90591">
        <ele>85.9</ele>
        <time>2023-04-05T15:34:43Z</time>
      </trkpt>
      <trkpt lat="47.91207" lon="-3.90593">
        <ele>85.9</ele>
        <time>2023-04-05T15:34:44Z</time>
      </trkpt>
      <trkpt lat="47.91203" lon="-3.90596">
        <ele>85.9</ele>
        <time>2023-04-05T15:34:45Z</time>
      </trkpt>
      <trkpt lat="47.91198" lon="-3.90598">
        <ele>85.9</ele>
        <time>2023-04-05T15:34:46Z</time>
      </trkpt>
      <trkpt lat="47.91193" lon="-3.90599">
        <ele>86</ele>
        <time>2023-04-05T15:34:47Z</time>
      </trkpt>
      <trkpt lat="47.91188" lon="-3.90601">
        <ele>86</ele>
        <time>2023-04-05T15:34:48Z</time>
      </trkpt>
      <trkpt lat="47.91184" lon="-3.90604">
        <ele>86</ele>
        <time>2023-04-05T15:34:49Z</time>
      </trkpt>
      <trkpt lat="47.91179" lon="-3.90608">
        <ele>86.1</ele>
        <time>2023-04-05T15:34:50Z</time>
      </trkpt>
      <trkpt lat="47.91175" lon="-3.90611">
        <ele>86.1</ele>
        <time>2023-04-05T15:34:51Z</time>
      </trkpt>
      <trkpt lat="47.9117" lon="-3.90614">
        <ele>86.1</ele>
        <time>2023-04-05T15:34:52Z</time>
      </trkpt>
      <trkpt lat="47.91166" lon="-3.90616">
        <ele>86.1</ele>
        <time>2023-04-05T15:34:53Z</time>
      </trkpt>
      <trkpt lat="47.91161" lon="-3.9062">
        <ele>86.2</ele>
        <time>2023-04-05T15:34:54Z</time>
      </trkpt>
      <trkpt lat="47.91157" lon="-3.90622">
        <ele>86.2</ele>
        <time>2023-04-05T15:34:55Z</time>
      </trkpt>
      <trkpt lat="47.91153" lon="-3.90624">
        <ele>86.2</ele>
        <time>2023-04-05T15:34:56Z</time>
      </trkpt>
      <trkpt lat="47.91149" lon="-3.90627">
        <ele>86.2</ele>
        <time>2023-04-05T15:34:57Z</time>
      </trkpt>
      <trkpt lat="47.91145" lon="-3.90629">
        <ele>86.1</ele>
        <time>2023-04-05T15:34:58Z</time>
      </trkpt>
      <trkpt lat="47.9114" lon="-3.90633">
        <ele>86.1</ele>
        <time>2023-04-05T15:34:59Z</time>
      </trkpt>
      <trkpt lat="47.91135" lon="-3.90636">
        <ele>86.1</ele>
        <time>2023-04-05T15:35:00Z</time>
      </trkpt>
      <trkpt lat="47.91132" lon="-3.90639">
        <ele>86.1</ele>
        <time>2023-04-05T15:35:01Z</time>
      </trkpt>
      <trkpt lat="47.91129" lon="-3.90642">
        <ele>86</ele>
        <time>2023-04-05T15:35:02Z</time>
      </trkpt>
      <trkpt lat="47.91127" lon="-3.90644">
        <ele>86</ele>
        <time>2023-04-05T15:35:03Z</time>
      </trkpt>
      <trkpt lat="47.91126" lon="-3.90645">
        <ele>86</ele>
        <time>2023-04-05T15:35:04Z</time>
      </trkpt>
      <trkpt lat="47.91124" lon="-3.90646">
        <ele>86</ele>
        <time>2023-04-05T15:35:05Z</time>
      </trkpt>
      <trkpt lat="47.91122" lon="-3.90649">
        <ele>85.9</ele>
        <time>2023-04-05T15:35:06Z</time>
      </trkpt>
      <trkpt lat="47.91119" lon="-3.90654">
        <ele>85.9</ele>
        <time>2023-04-05T15:35:07Z</time>
      </trkpt>
      <trkpt lat="47.91115" lon="-3.90656">
        <ele>85.8</ele>
        <time>2023-04-05T15:35:08Z</time>
      </trkpt>
      <trkpt lat="47.91107" lon="-3.90665">
        <ele>85.6</ele>
        <time>2023-04-05T15:35:10Z</time>
      </trkpt>
      <trkpt lat="47.91102" lon="-3.90669">
        <ele>85.5</ele>
        <time>2023-04-05T15:35:11Z</time>
      </trkpt>
      <trkpt lat="47.91097" lon="-3.90673">
        <ele>85.4</ele>
        <time>2023-04-05T15:35:12Z</time>
      </trkpt>
      <trkpt lat="47.91092" lon="-3.90677">
        <ele>85.2</ele>
        <time>2023-04-05T15:35:13Z</time>
      </trkpt>
      <trkpt lat="47.91087" lon="-3.90682">
        <ele>85.1</ele>
        <time>2023-04-05T15:35:14Z</time>
      </trkpt>
      <trkpt lat="47.91082" lon="-3.90686">
        <ele>84.9</ele>
        <time>2023-04-05T15:35:15Z</time>
      </trkpt>
      <trkpt lat="47.91077" lon="-3.90691">
        <ele>84.8</ele>
        <time>2023-04-05T15:35:16Z</time>
      </trkpt>
      <trkpt lat="47.91071" lon="-3.90695">
        <ele>84.7</ele>
        <time>2023-04-05T15:35:17Z</time>
      </trkpt>
      <trkpt lat="47.91066" lon="-3.90699">
        <ele>84.6</ele>
        <time>2023-04-05T15:35:18Z</time>
      </trkpt>
      <trkpt lat="47.91061" lon="-3.90703">
        <ele>84.5</ele>
        <time>2023-04-05T15:35:19Z</time>
      </trkpt>
      <trkpt lat="47.91055" lon="-3.90708">
        <ele>84.4</ele>
        <time>2023-04-05T15:35:20Z</time>
      </trkpt>
      <trkpt lat="47.9105" lon="-3.90713">
        <ele>84.4</ele>
        <time>2023-04-05T15:35:21Z</time>
      </trkpt>
      <trkpt lat="47.91045" lon="-3.90717">
        <ele>84.3</ele>
        <time>2023-04-05T15:35:22Z</time>
      </trkpt>
      <trkpt lat="47.9104" lon="-3.90722">
        <ele>84.3</ele>
        <time>2023-04-05T15:35:23Z</time>
      </trkpt>
      <trkpt lat="47.91035" lon="-3.90726">
        <ele>84.2</ele>
        <time>2023-04-05T15:35:24Z</time>
      </trkpt>
      <trkpt lat="47.9103" lon="-3.9073">
        <ele>84.1</ele>
        <time>2023-04-05T15:35:25Z</time>
      </trkpt>
      <trkpt lat="47.91025" lon="-3.90735">
        <ele>84.1</ele>
        <time>2023-04-05T15:35:26Z</time>
      </trkpt>
      <trkpt lat="47.91021" lon="-3.90739">
        <ele>84</ele>
        <time>2023-04-05T15:35:27Z</time>
      </trkpt>
      <trkpt lat="47.91015" lon="-3.90743">
        <ele>84</ele>
        <time>2023-04-05T15:35:28Z</time>
      </trkpt>
      <trkpt lat="47.9101" lon="-3.90748">
        <ele>83.9</ele>
        <time>2023-04-05T15:35:29Z</time>
      </trkpt>
      <trkpt lat="47.91005" lon="-3.90753">
        <ele>83.8</ele>
        <time>2023-04-05T15:35:30Z</time>
      </trkpt>
      <trkpt lat="47.91" lon="-3.90757">
        <ele>83.8</ele>
        <time>2023-04-05T15:35:31Z</time>
      </trkpt>
      <trkpt lat="47.90995" lon="-3.90762">
        <ele>83.7</ele>
        <time>2023-04-05T15:35:32Z</time>
      </trkpt>
      <trkpt lat="47.9099" lon="-3.90766">
        <ele>83.7</ele>
        <time>2023-04-05T15:35:33Z</time>
      </trkpt>
      <trkpt lat="47.90984" lon="-3.90771">
        <ele>83.6</ele>
        <time>2023-04-05T15:35:34Z</time>
      </trkpt>
      <trkpt lat="47.9098" lon="-3.90776">
        <ele>83.6</ele>
        <time>2023-04-05T15:35:35Z</time>
      </trkpt>
      <trkpt lat="47.90976" lon="-3.90779">
        <ele>83.5</ele>
        <time>2023-04-05T15:35:36Z</time>
      </trkpt>
      <trkpt lat="47.90972" lon="-3.90779">
        <ele>83.5</ele>
        <time>2023-04-05T15:35:37Z</time>
      </trkpt>
      <trkpt lat="47.90967" lon="-3.90781">
        <ele>83.4</ele>
        <time>2023-04-05T15:35:38Z</time>
      </trkpt>
      <trkpt lat="47.90963" lon="-3.90782">
        <ele>83.3</ele>
        <time>2023-04-05T15:35:39Z</time>
      </trkpt>
      <trkpt lat="47.90959" lon="-3.90782">
        <ele>83.3</ele>
        <time>2023-04-05T15:35:40Z</time>
      </trkpt>
      <trkpt lat="47.90955" lon="-3.90783">
        <ele>83.2</ele>
        <time>2023-04-05T15:35:41Z</time>
      </trkpt>
      <trkpt lat="47.90951" lon="-3.90786">
        <ele>83.2</ele>
        <time>2023-04-05T15:35:42Z</time>
      </trkpt>
      <trkpt lat="47.90949" lon="-3.90792">
        <ele>83.1</ele>
        <time>2023-04-05T15:35:43Z</time>
      </trkpt>
      <trkpt lat="47.90948" lon="-3.90794">
        <ele>83.1</ele>
        <time>2023-04-05T15:35:44Z</time>
      </trkpt>
      <trkpt lat="47.90945" lon="-3.90803">
        <ele>82.9</ele>
        <time>2023-04-05T15:35:45Z</time>
      </trkpt>
      <trkpt lat="47.90943" lon="-3.90806">
        <ele>82.8</ele>
        <time>2023-04-05T15:35:46Z</time>
      </trkpt>
      <trkpt lat="47.9094" lon="-3.90808">
        <ele>82.8</ele>
        <time>2023-04-05T15:35:47Z</time>
      </trkpt>
      <trkpt lat="47.90936" lon="-3.9081">
        <ele>82.6</ele>
        <time>2023-04-05T15:35:48Z</time>
      </trkpt>
      <trkpt lat="47.90931" lon="-3.90812">
        <ele>82.5</ele>
        <time>2023-04-05T15:35:49Z</time>
      </trkpt>
      <trkpt lat="47.90927" lon="-3.90817">
        <ele>82.4</ele>
        <time>2023-04-05T15:35:50Z</time>
      </trkpt>
      <trkpt lat="47.90922" lon="-3.90821">
        <ele>82.2</ele>
        <time>2023-04-05T15:35:51Z</time>
      </trkpt>
      <trkpt lat="47.90917" lon="-3.90826">
        <ele>82.1</ele>
        <time>2023-04-05T15:35:52Z</time>
      </trkpt>
      <trkpt lat="47.90912" lon="-3.9083">
        <ele>81.9</ele>
        <time>2023-04-05T15:35:53Z</time>
      </trkpt>
      <trkpt lat="47.90907" lon="-3.90835">
        <ele>81.8</ele>
        <time>2023-04-05T15:35:54Z</time>
      </trkpt>
      <trkpt lat="47.90903" lon="-3.9084">
        <ele>81.7</ele>
        <time>2023-04-05T15:35:55Z</time>
      </trkpt>
      <trkpt lat="47.90898" lon="-3.90845">
        <ele>81.6</ele>
        <time>2023-04-05T15:35:56Z</time>
      </trkpt>
      <trkpt lat="47.90892" lon="-3.90849">
        <ele>81.5</ele>
        <time>2023-04-05T15:35:57Z</time>
      </trkpt>
      <trkpt lat="47.90887" lon="-3.90854">
        <ele>81.4</ele>
        <time>2023-04-05T15:35:58Z</time>
      </trkpt>
      <trkpt lat="47.90882" lon="-3.90858">
        <ele>81.2</ele>
        <time>2023-04-05T15:35:59Z</time>
      </trkpt>
      <trkpt lat="47.90877" lon="-3.90863">
        <ele>81.1</ele>
        <time>2023-04-05T15:36:00Z</time>
      </trkpt>
      <trkpt lat="47.90872" lon="-3.90868">
        <ele>81</ele>
        <time>2023-04-05T15:36:01Z</time>
      </trkpt>
      <trkpt lat="47.90867" lon="-3.90873">
        <ele>81</ele>
        <time>2023-04-05T15:36:02Z</time>
      </trkpt>
      <trkpt lat="47.90862" lon="-3.90877">
        <ele>80.9</ele>
        <time>2023-04-05T15:36:03Z</time>
      </trkpt>
      <trkpt lat="47.90856" lon="-3.90882">
        <ele>80.8</ele>
        <time>2023-04-05T15:36:04Z</time>
      </trkpt>
      <trkpt lat="47.90851" lon="-3.90886">
        <ele>80.8</ele>
        <time>2023-04-05T15:36:05Z</time>
      </trkpt>
      <trkpt lat="47.90846" lon="-3.90891">
        <ele>80.7</ele>
        <time>2023-04-05T15:36:06Z</time>
      </trkpt>
      <trkpt lat="47.90841" lon="-3.90895">
        <ele>80.6</ele>
        <time>2023-04-05T15:36:07Z</time>
      </trkpt>
      <trkpt lat="47.90835" lon="-3.909">
        <ele>80.5</ele>
        <time>2023-04-05T15:36:08Z</time>
      </trkpt>
      <trkpt lat="47.9083" lon="-3.90905">
        <ele>80.5</ele>
        <time>2023-04-05T15:36:09Z</time>
      </trkpt>
      <trkpt lat="47.90825" lon="-3.9091">
        <ele>80.4</ele>
        <time>2023-04-05T15:36:10Z</time>
      </trkpt>
      <trkpt lat="47.9082" lon="-3.90914">
        <ele>80.3</ele>
        <time>2023-04-05T15:36:11Z</time>
      </trkpt>
      <trkpt lat="47.90815" lon="-3.90919">
        <ele>80.3</ele>
        <time>2023-04-05T15:36:12Z</time>
      </trkpt>
      <trkpt lat="47.9081" lon="-3.90924">
        <ele>80.2</ele>
        <time>2023-04-05T15:36:13Z</time>
      </trkpt>
      <trkpt lat="47.90805" lon="-3.90927">
        <ele>80.2</ele>
        <time>2023-04-05T15:36:14Z</time>
      </trkpt>
      <trkpt lat="47.908" lon="-3.90931">
        <ele>80.1</ele>
        <time>2023-04-05T15:36:15Z</time>
      </trkpt>
      <trkpt lat="47.90795" lon="-3.90935">
        <ele>80</ele>
        <time>2023-04-05T15:36:16Z</time>
      </trkpt>
      <trkpt lat="47.90791" lon="-3.90939">
        <ele>79.9</ele>
        <time>2023-04-05T15:36:17Z</time>
      </trkpt>
      <trkpt lat="47.90786" lon="-3.90943">
        <ele>79.8</ele>
        <time>2023-04-05T15:36:18Z</time>
      </trkpt>
      <trkpt lat="47.90782" lon="-3.90948">
        <ele>79.8</ele>
        <time>2023-04-05T15:36:19Z</time>
      </trkpt>
      <trkpt lat="47.90778" lon="-3.90952">
        <ele>79.7</ele>
        <time>2023-04-05T15:36:20Z</time>
      </trkpt>
      <trkpt lat="47.90774" lon="-3.90956">
        <ele>79.6</ele>
        <time>2023-04-05T15:36:21Z</time>
      </trkpt>
      <trkpt lat="47.90769" lon="-3.90959">
        <ele>79.5</ele>
        <time>2023-04-05T15:36:22Z</time>
      </trkpt>
      <trkpt lat="47.90765" lon="-3.90963">
        <ele>79.4</ele>
        <time>2023-04-05T15:36:23Z</time>
      </trkpt>
      <trkpt lat="47.9076" lon="-3.90966">
        <ele>79.3</ele>
        <time>2023-04-05T15:36:24Z</time>
      </trkpt>
      <trkpt lat="47.90756" lon="-3.9097">
        <ele>79.2</ele>
        <time>2023-04-05T15:36:25Z</time>
      </trkpt>
      <trkpt lat="47.90751" lon="-3.90974">
        <ele>79.1</ele>
        <time>2023-04-05T15:36:26Z</time>
      </trkpt>
      <trkpt lat="47.90747" lon="-3.90978">
        <ele>79</ele>
        <time>2023-04-05T15:36:27Z</time>
      </trkpt>
      <trkpt lat="47.90742" lon="-3.90981">
        <ele>79</ele>
        <time>2023-04-05T15:36:28Z</time>
      </trkpt>
      <trkpt lat="47.90737" lon="-3.90985">
        <ele>78.9</ele>
        <time>2023-04-05T15:36:29Z</time>
      </trkpt>
      <trkpt lat="47.90733" lon="-3.90989">
        <ele>78.8</ele>
        <time>2023-04-05T15:36:30Z</time>
      </trkpt>
      <trkpt lat="47.90728" lon="-3.90993">
        <ele>78.7</ele>
        <time>2023-04-05T15:36:31Z</time>
      </trkpt>
      <trkpt lat="47.90724" lon="-3.90998">
        <ele>78.6</ele>
        <time>2023-04-05T15:36:32Z</time>
      </trkpt>
      <trkpt lat="47.90719" lon="-3.91003">
        <ele>78.6</ele>
        <time>2023-04-05T15:36:33Z</time>
      </trkpt>
      <trkpt lat="47.90715" lon="-3.91008">
        <ele>78.5</ele>
        <time>2023-04-05T15:36:34Z</time>
      </trkpt>
      <trkpt lat="47.9071" lon="-3.91012">
        <ele>78.4</ele>
        <time>2023-04-05T15:36:35Z</time>
      </trkpt>
      <trkpt lat="47.90705" lon="-3.91017">
        <ele>78.3</ele>
        <time>2023-04-05T15:36:36Z</time>
      </trkpt>
      <trkpt lat="47.907" lon="-3.91021">
        <ele>78.2</ele>
        <time>2023-04-05T15:36:37Z</time>
      </trkpt>
      <trkpt lat="47.90695" lon="-3.91025">
        <ele>78.1</ele>
        <time>2023-04-05T15:36:38Z</time>
      </trkpt>
      <trkpt lat="47.9069" lon="-3.9103">
        <ele>78</ele>
        <time>2023-04-05T15:36:39Z</time>
      </trkpt>
      <trkpt lat="47.90685" lon="-3.91034">
        <ele>77.9</ele>
        <time>2023-04-05T15:36:40Z</time>
      </trkpt>
      <trkpt lat="47.9068" lon="-3.91039">
        <ele>77.8</ele>
        <time>2023-04-05T15:36:41Z</time>
      </trkpt>
      <trkpt lat="47.90675" lon="-3.91044">
        <ele>77.7</ele>
        <time>2023-04-05T15:36:42Z</time>
      </trkpt>
      <trkpt lat="47.90669" lon="-3.91049">
        <ele>77.6</ele>
        <time>2023-04-05T15:36:43Z</time>
      </trkpt>
      <trkpt lat="47.90664" lon="-3.91054">
        <ele>77.5</ele>
        <time>2023-04-05T15:36:44Z</time>
      </trkpt>
      <trkpt lat="47.90659" lon="-3.91058">
        <ele>77.4</ele>
        <time>2023-04-05T15:36:45Z</time>
      </trkpt>
      <trkpt lat="47.90654" lon="-3.91063">
        <ele>77.3</ele>
        <time>2023-04-05T15:36:46Z</time>
      </trkpt>
      <trkpt lat="47.90648" lon="-3.91068">
        <ele>77.2</ele>
        <time>2023-04-05T15:36:47Z</time>
      </trkpt>
      <trkpt lat="47.90643" lon="-3.91072">
        <ele>77.1</ele>
        <time>2023-04-05T15:36:48Z</time>
      </trkpt>
      <trkpt lat="47.90638" lon="-3.91077">
        <ele>77</ele>
        <time>2023-04-05T15:36:49Z</time>
      </trkpt>
      <trkpt lat="47.90632" lon="-3.91082">
        <ele>76.9</ele>
        <time>2023-04-05T15:36:50Z</time>
      </trkpt>
      <trkpt lat="47.90627" lon="-3.91086">
        <ele>76.8</ele>
        <time>2023-04-05T15:36:51Z</time>
      </trkpt>
      <trkpt lat="47.90621" lon="-3.91091">
        <ele>76.7</ele>
        <time>2023-04-05T15:36:52Z</time>
      </trkpt>
      <trkpt lat="47.90616" lon="-3.91095">
        <ele>76.6</ele>
        <time>2023-04-05T15:36:53Z</time>
      </trkpt>
      <trkpt lat="47.90611" lon="-3.91099">
        <ele>76.5</ele>
        <time>2023-04-05T15:36:54Z</time>
      </trkpt>
      <trkpt lat="47.90606" lon="-3.91104">
        <ele>76.5</ele>
        <time>2023-04-05T15:36:55Z</time>
      </trkpt>
      <trkpt lat="47.906" lon="-3.91108">
        <ele>76.4</ele>
        <time>2023-04-05T15:36:56Z</time>
      </trkpt>
      <trkpt lat="47.90595" lon="-3.91113">
        <ele>76.3</ele>
        <time>2023-04-05T15:36:57Z</time>
      </trkpt>
      <trkpt lat="47.90589" lon="-3.91117">
        <ele>76.2</ele>
        <time>2023-04-05T15:36:58Z</time>
      </trkpt>
      <trkpt lat="47.90584" lon="-3.91122">
        <ele>76.1</ele>
        <time>2023-04-05T15:36:59Z</time>
      </trkpt>
      <trkpt lat="47.90578" lon="-3.91126">
        <ele>76</ele>
        <time>2023-04-05T15:37:00Z</time>
      </trkpt>
      <trkpt lat="47.90573" lon="-3.91131">
        <ele>75.9</ele>
        <time>2023-04-05T15:37:01Z</time>
      </trkpt>
      <trkpt lat="47.90568" lon="-3.91136">
        <ele>75.8</ele>
        <time>2023-04-05T15:37:02Z</time>
      </trkpt>
      <trkpt lat="47.90562" lon="-3.91141">
        <ele>75.7</ele>
        <time>2023-04-05T15:37:03Z</time>
      </trkpt>
      <trkpt lat="47.90557" lon="-3.91146">
        <ele>75.6</ele>
        <time>2023-04-05T15:37:04Z</time>
      </trkpt>
      <trkpt lat="47.90552" lon="-3.91151">
        <ele>75.5</ele>
        <time>2023-04-05T15:37:05Z</time>
      </trkpt>
      <trkpt lat="47.90546" lon="-3.91156">
        <ele>75.4</ele>
        <time>2023-04-05T15:37:06Z</time>
      </trkpt>
      <trkpt lat="47.90541" lon="-3.91161">
        <ele>75.3</ele>
        <time>2023-04-05T15:37:07Z</time>
      </trkpt>
      <trkpt lat="47.90536" lon="-3.91166">
        <ele>75.2</ele>
        <time>2023-04-05T15:37:08Z</time>
      </trkpt>
      <trkpt lat="47.9053" lon="-3.91171">
        <ele>75</ele>
        <time>2023-04-05T15:37:09Z</time>
      </trkpt>
      <trkpt lat="47.90525" lon="-3.91175">
        <ele>74.9</ele>
        <time>2023-04-05T15:37:10Z</time>
      </trkpt>
      <trkpt lat="47.90519" lon="-3.9118">
        <ele>74.8</ele>
        <time>2023-04-05T15:37:11Z</time>
      </trkpt>
      <trkpt lat="47.90514" lon="-3.91185">
        <ele>74.7</ele>
        <time>2023-04-05T15:37:12Z</time>
      </trkpt>
      <trkpt lat="47.90508" lon="-3.9119">
        <ele>74.6</ele>
        <time>2023-04-05T15:37:13Z</time>
      </trkpt>
      <trkpt lat="47.90503" lon="-3.91195">
        <ele>74.5</ele>
        <time>2023-04-05T15:37:14Z</time>
      </trkpt>
      <trkpt lat="47.90497" lon="-3.91199">
        <ele>74.4</ele>
        <time>2023-04-05T15:37:15Z</time>
      </trkpt>
      <trkpt lat="47.90492" lon="-3.91204">
        <ele>74.3</ele>
        <time>2023-04-05T15:37:16Z</time>
      </trkpt>
      <trkpt lat="47.90487" lon="-3.91209">
        <ele>74.2</ele>
        <time>2023-04-05T15:37:17Z</time>
      </trkpt>
      <trkpt lat="47.90481" lon="-3.91214">
        <ele>74.2</ele>
        <time>2023-04-05T15:37:18Z</time>
      </trkpt>
      <trkpt lat="47.90476" lon="-3.91218">
        <ele>74.1</ele>
        <time>2023-04-05T15:37:19Z</time>
      </trkpt>
      <trkpt lat="47.9047" lon="-3.91222">
        <ele>74</ele>
        <time>2023-04-05T15:37:20Z</time>
      </trkpt>
      <trkpt lat="47.90465" lon="-3.91227">
        <ele>73.9</ele>
        <time>2023-04-05T15:37:21Z</time>
      </trkpt>
      <trkpt lat="47.90459" lon="-3.91232">
        <ele>73.8</ele>
        <time>2023-04-05T15:37:22Z</time>
      </trkpt>
      <trkpt lat="47.90454" lon="-3.91236">
        <ele>73.7</ele>
        <time>2023-04-05T15:37:23Z</time>
      </trkpt>
      <trkpt lat="47.90448" lon="-3.9124">
        <ele>73.7</ele>
        <time>2023-04-05T15:37:24Z</time>
      </trkpt>
      <trkpt lat="47.90443" lon="-3.91244">
        <ele>73.6</ele>
        <time>2023-04-05T15:37:25Z</time>
      </trkpt>
      <trkpt lat="47.90437" lon="-3.91248">
        <ele>73.6</ele>
        <time>2023-04-05T15:37:26Z</time>
      </trkpt>
      <trkpt lat="47.90432" lon="-3.91253">
        <ele>73.5</ele>
        <time>2023-04-05T15:37:27Z</time>
      </trkpt>
      <trkpt lat="47.90427" lon="-3.91257">
        <ele>73.5</ele>
        <time>2023-04-05T15:37:28Z</time>
      </trkpt>
      <trkpt lat="47.90423" lon="-3.91262">
        <ele>73.4</ele>
        <time>2023-04-05T15:37:29Z</time>
      </trkpt>
      <trkpt lat="47.90418" lon="-3.91266">
        <ele>73.4</ele>
        <time>2023-04-05T15:37:30Z</time>
      </trkpt>
      <trkpt lat="47.90414" lon="-3.91271">
        <ele>73.4</ele>
        <time>2023-04-05T15:37:31Z</time>
      </trkpt>
      <trkpt lat="47.90409" lon="-3.91275">
        <ele>73.3</ele>
        <time>2023-04-05T15:37:32Z</time>
      </trkpt>
      <trkpt lat="47.90405" lon="-3.91279">
        <ele>73.3</ele>
        <time>2023-04-05T15:37:33Z</time>
      </trkpt>
      <trkpt lat="47.90401" lon="-3.91282">
        <ele>73.3</ele>
        <time>2023-04-05T15:37:34Z</time>
      </trkpt>
      <trkpt lat="47.90397" lon="-3.91286">
        <ele>73.3</ele>
        <time>2023-04-05T15:37:35Z</time>
      </trkpt>
      <trkpt lat="47.90393" lon="-3.91289">
        <ele>73.3</ele>
        <time>2023-04-05T15:37:36Z</time>
      </trkpt>
      <trkpt lat="47.90389" lon="-3.91292">
        <ele>73.3</ele>
        <time>2023-04-05T15:37:37Z</time>
      </trkpt>
      <trkpt lat="47.90385" lon="-3.91295">
        <ele>73.3</ele>
        <time>2023-04-05T15:37:38Z</time>
      </trkpt>
      <trkpt lat="47.90382" lon="-3.91298">
        <ele>73.3</ele>
        <time>2023-04-05T15:37:39Z</time>
      </trkpt>
      <trkpt lat="47.90378" lon="-3.91301">
        <ele>73.3</ele>
        <time>2023-04-05T15:37:40Z</time>
      </trkpt>
      <trkpt lat="47.90374" lon="-3.91304">
        <ele>73.3</ele>
        <time>2023-04-05T15:37:41Z</time>
      </trkpt>
      <trkpt lat="47.90371" lon="-3.91306">
        <ele>73.3</ele>
        <time>2023-04-05T15:37:42Z</time>
      </trkpt>
      <trkpt lat="47.90368" lon="-3.9131">
        <ele>73.2</ele>
        <time>2023-04-05T15:37:43Z</time>
      </trkpt>
      <trkpt lat="47.90365" lon="-3.91313">
        <ele>73.2</ele>
        <time>2023-04-05T15:37:44Z</time>
      </trkpt>
      <trkpt lat="47.9036" lon="-3.91316">
        <ele>73.2</ele>
        <time>2023-04-05T15:37:45Z</time>
      </trkpt>
      <trkpt lat="47.90355" lon="-3.9132">
        <ele>73.2</ele>
        <time>2023-04-05T15:37:47Z</time>
      </trkpt>
      <trkpt lat="47.90352" lon="-3.91325">
        <ele>73.2</ele>
        <time>2023-04-05T15:37:48Z</time>
      </trkpt>
      <trkpt lat="47.90347" lon="-3.9133">
        <ele>73.2</ele>
        <time>2023-04-05T15:37:49Z</time>
      </trkpt>
      <trkpt lat="47.90343" lon="-3.91333">
        <ele>73.2</ele>
        <time>2023-04-05T15:37:50Z</time>
      </trkpt>
      <trkpt lat="47.90337" lon="-3.91336">
        <ele>73.2</ele>
        <time>2023-04-05T15:37:51Z</time>
      </trkpt>
      <trkpt lat="47.90333" lon="-3.9134">
        <ele>73.2</ele>
        <time>2023-04-05T15:37:52Z</time>
      </trkpt>
      <trkpt lat="47.90329" lon="-3.91343">
        <ele>73.2</ele>
        <time>2023-04-05T15:37:53Z</time>
      </trkpt>
      <trkpt lat="47.90325" lon="-3.91347">
        <ele>73.2</ele>
        <time>2023-04-05T15:37:54Z</time>
      </trkpt>
      <trkpt lat="47.90321" lon="-3.9135">
        <ele>73.2</ele>
        <time>2023-04-05T15:37:55Z</time>
      </trkpt>
      <trkpt lat="47.90316" lon="-3.91354">
        <ele>73.3</ele>
        <time>2023-04-05T15:37:56Z</time>
      </trkpt>
      <trkpt lat="47.90312" lon="-3.91358">
        <ele>73.3</ele>
        <time>2023-04-05T15:37:57Z</time>
      </trkpt>
      <trkpt lat="47.90308" lon="-3.91361">
        <ele>73.3</ele>
        <time>2023-04-05T15:37:58Z</time>
      </trkpt>
      <trkpt lat="47.90304" lon="-3.91365">
        <ele>73.3</ele>
        <time>2023-04-05T15:37:59Z</time>
      </trkpt>
      <trkpt lat="47.903" lon="-3.91369">
        <ele>73.3</ele>
        <time>2023-04-05T15:38:00Z</time>
      </trkpt>
      <trkpt lat="47.90297" lon="-3.91372">
        <ele>73.4</ele>
        <time>2023-04-05T15:38:01Z</time>
      </trkpt>
      <trkpt lat="47.90291" lon="-3.91373">
        <ele>73.4</ele>
        <time>2023-04-05T15:38:03Z</time>
      </trkpt>
      <trkpt lat="47.90287" lon="-3.91377">
        <ele>73.4</ele>
        <time>2023-04-05T15:38:04Z</time>
      </trkpt>
      <trkpt lat="47.90283" lon="-3.91381">
        <ele>73.5</ele>
        <time>2023-04-05T15:38:05Z</time>
      </trkpt>
      <trkpt lat="47.9028" lon="-3.91382">
        <ele>73.6</ele>
        <time>2023-04-05T15:38:06Z</time>
      </trkpt>
      <trkpt lat="47.90277" lon="-3.91384">
        <ele>73.6</ele>
        <time>2023-04-05T15:38:07Z</time>
      </trkpt>
      <trkpt lat="47.90276" lon="-3.91384">
        <ele>73.6</ele>
        <time>2023-04-05T15:38:08Z</time>
      </trkpt>
      <trkpt lat="47.90275" lon="-3.91386">
        <ele>73.7</ele>
        <time>2023-04-05T15:38:09Z</time>
      </trkpt>
      <trkpt lat="47.90273" lon="-3.91387">
        <ele>73.7</ele>
        <time>2023-04-05T15:38:10Z</time>
      </trkpt>
      <trkpt lat="47.90271" lon="-3.9139">
        <ele>73.8</ele>
        <time>2023-04-05T15:38:11Z</time>
      </trkpt>
      <trkpt lat="47.9027" lon="-3.91391">
        <ele>73.8</ele>
        <time>2023-04-05T15:38:12Z</time>
      </trkpt>
      <trkpt lat="47.90267" lon="-3.91392">
        <ele>73.8</ele>
        <time>2023-04-05T15:38:13Z</time>
      </trkpt>
      <trkpt lat="47.90265" lon="-3.91392">
        <ele>73.9</ele>
        <time>2023-04-05T15:38:14Z</time>
      </trkpt>
      <trkpt lat="47.90261" lon="-3.91391">
        <ele>73.9</ele>
        <time>2023-04-05T15:38:15Z</time>
      </trkpt>
      <trkpt lat="47.90257" lon="-3.91389">
        <ele>74</ele>
        <time>2023-04-05T15:38:16Z</time>
      </trkpt>
      <trkpt lat="47.90253" lon="-3.91384">
        <ele>74</ele>
        <time>2023-04-05T15:38:17Z</time>
      </trkpt>
      <trkpt lat="47.90249" lon="-3.9138">
        <ele>74.1</ele>
        <time>2023-04-05T15:38:18Z</time>
      </trkpt>
      <trkpt lat="47.90244" lon="-3.91376">
        <ele>74.1</ele>
        <time>2023-04-05T15:38:19Z</time>
      </trkpt>
      <trkpt lat="47.9024" lon="-3.91372">
        <ele>74.2</ele>
        <time>2023-04-05T15:38:20Z</time>
      </trkpt>
      <trkpt lat="47.90236" lon="-3.91368">
        <ele>74.3</ele>
        <time>2023-04-05T15:38:21Z</time>
      </trkpt>
      <trkpt lat="47.90232" lon="-3.91365">
        <ele>74.3</ele>
        <time>2023-04-05T15:38:22Z</time>
      </trkpt>
      <trkpt lat="47.90227" lon="-3.91361">
        <ele>74.4</ele>
        <time>2023-04-05T15:38:23Z</time>
      </trkpt>
      <trkpt lat="47.90223" lon="-3.91357">
        <ele>74.5</ele>
        <time>2023-04-05T15:38:24Z</time>
      </trkpt>
      <trkpt lat="47.90218" lon="-3.91354">
        <ele>74.6</ele>
        <time>2023-04-05T15:38:25Z</time>
      </trkpt>
      <trkpt lat="47.90214" lon="-3.9135">
        <ele>74.6</ele>
        <time>2023-04-05T15:38:26Z</time>
      </trkpt>
      <trkpt lat="47.90209" lon="-3.91345">
        <ele>74.7</ele>
        <time>2023-04-05T15:38:27Z</time>
      </trkpt>
      <trkpt lat="47.90205" lon="-3.91342">
        <ele>74.7</ele>
        <time>2023-04-05T15:38:28Z</time>
      </trkpt>
      <trkpt lat="47.902" lon="-3.91338">
        <ele>74.8</ele>
        <time>2023-04-05T15:38:29Z</time>
      </trkpt>
      <trkpt lat="47.90195" lon="-3.91335">
        <ele>74.8</ele>
        <time>2023-04-05T15:38:30Z</time>
      </trkpt>
      <trkpt lat="47.9019" lon="-3.91332">
        <ele>74.9</ele>
        <time>2023-04-05T15:38:31Z</time>
      </trkpt>
      <trkpt lat="47.90185" lon="-3.91328">
        <ele>74.9</ele>
        <time>2023-04-05T15:38:32Z</time>
      </trkpt>
      <trkpt lat="47.90181" lon="-3.91324">
        <ele>74.9</ele>
        <time>2023-04-05T15:38:33Z</time>
      </trkpt>
      <trkpt lat="47.90176" lon="-3.91321">
        <ele>75</ele>
        <time>2023-04-05T15:38:34Z</time>
      </trkpt>
      <trkpt lat="47.90172" lon="-3.91318">
        <ele>75</ele>
        <time>2023-04-05T15:38:35Z</time>
      </trkpt>
      <trkpt lat="47.90167" lon="-3.91314">
        <ele>75.1</ele>
        <time>2023-04-05T15:38:36Z</time>
      </trkpt>
      <trkpt lat="47.90163" lon="-3.9131">
        <ele>75.1</ele>
        <time>2023-04-05T15:38:37Z</time>
      </trkpt>
      <trkpt lat="47.90159" lon="-3.91306">
        <ele>75.1</ele>
        <time>2023-04-05T15:38:38Z</time>
      </trkpt>
      <trkpt lat="47.90154" lon="-3.91302">
        <ele>75.2</ele>
        <time>2023-04-05T15:38:39Z</time>
      </trkpt>
      <trkpt lat="47.9015" lon="-3.91298">
        <ele>75.2</ele>
        <time>2023-04-05T15:38:40Z</time>
      </trkpt>
      <trkpt lat="47.90145" lon="-3.91294">
        <ele>75.3</ele>
        <time>2023-04-05T15:38:41Z</time>
      </trkpt>
      <trkpt lat="47.90141" lon="-3.9129">
        <ele>75.3</ele>
        <time>2023-04-05T15:38:42Z</time>
      </trkpt>
      <trkpt lat="47.90136" lon="-3.91286">
        <ele>75.3</ele>
        <time>2023-04-05T15:38:43Z</time>
      </trkpt>
      <trkpt lat="47.90131" lon="-3.91282">
        <ele>75.4</ele>
        <time>2023-04-05T15:38:44Z</time>
      </trkpt>
      <trkpt lat="47.90126" lon="-3.91278">
        <ele>75.4</ele>
        <time>2023-04-05T15:38:45Z</time>
      </trkpt>
      <trkpt lat="47.90121" lon="-3.91274">
        <ele>75.4</ele>
        <time>2023-04-05T15:38:46Z</time>
      </trkpt>
      <trkpt lat="47.90117" lon="-3.91271">
        <ele>75.4</ele>
        <time>2023-04-05T15:38:47Z</time>
      </trkpt>
      <trkpt lat="47.90112" lon="-3.91267">
        <ele>75.5</ele>
        <time>2023-04-05T15:38:48Z</time>
      </trkpt>
      <trkpt lat="47.90107" lon="-3.91263">
        <ele>75.5</ele>
        <time>2023-04-05T15:38:49Z</time>
      </trkpt>
      <trkpt lat="47.90102" lon="-3.91259">
        <ele>75.5</ele>
        <time>2023-04-05T15:38:50Z</time>
      </trkpt>
      <trkpt lat="47.90097" lon="-3.91254">
        <ele>75.6</ele>
        <time>2023-04-05T15:38:51Z</time>
      </trkpt>
      <trkpt lat="47.90093" lon="-3.9125">
        <ele>75.6</ele>
        <time>2023-04-05T15:38:52Z</time>
      </trkpt>
      <trkpt lat="47.90088" lon="-3.91246">
        <ele>75.6</ele>
        <time>2023-04-05T15:38:53Z</time>
      </trkpt>
      <trkpt lat="47.90083" lon="-3.91242">
        <ele>75.7</ele>
        <time>2023-04-05T15:38:54Z</time>
      </trkpt>
      <trkpt lat="47.90079" lon="-3.91238">
        <ele>75.7</ele>
        <time>2023-04-05T15:38:55Z</time>
      </trkpt>
      <trkpt lat="47.90075" lon="-3.91233">
        <ele>75.7</ele>
        <time>2023-04-05T15:38:56Z</time>
      </trkpt>
      <trkpt lat="47.90071" lon="-3.91229">
        <ele>75.8</ele>
        <time>2023-04-05T15:38:57Z</time>
      </trkpt>
      <trkpt lat="47.90067" lon="-3.91224">
        <ele>75.7</ele>
        <time>2023-04-05T15:38:58Z</time>
      </trkpt>
      <trkpt lat="47.90063" lon="-3.9122">
        <ele>75.7</ele>
        <time>2023-04-05T15:38:59Z</time>
      </trkpt>
      <trkpt lat="47.90059" lon="-3.91214">
        <ele>75.7</ele>
        <time>2023-04-05T15:39:00Z</time>
      </trkpt>
      <trkpt lat="47.90055" lon="-3.91209">
        <ele>75.7</ele>
        <time>2023-04-05T15:39:01Z</time>
      </trkpt>
      <trkpt lat="47.90052" lon="-3.91204">
        <ele>75.7</ele>
        <time>2023-04-05T15:39:02Z</time>
      </trkpt>
      <trkpt lat="47.90049" lon="-3.91199">
        <ele>75.8</ele>
        <time>2023-04-05T15:39:03Z</time>
      </trkpt>
      <trkpt lat="47.90046" lon="-3.91194">
        <ele>75.8</ele>
        <time>2023-04-05T15:39:04Z</time>
      </trkpt>
      <trkpt lat="47.90043" lon="-3.91191">
        <ele>75.8</ele>
        <time>2023-04-05T15:39:05Z</time>
      </trkpt>
      <trkpt lat="47.90038" lon="-3.9119">
        <ele>75.8</ele>
        <time>2023-04-05T15:39:06Z</time>
      </trkpt>
      <trkpt lat="47.90034" lon="-3.91188">
        <ele>75.9</ele>
        <time>2023-04-05T15:39:07Z</time>
      </trkpt>
      <trkpt lat="47.90029" lon="-3.91186">
        <ele>75.9</ele>
        <time>2023-04-05T15:39:08Z</time>
      </trkpt>
      <trkpt lat="47.90024" lon="-3.91183">
        <ele>75.9</ele>
        <time>2023-04-05T15:39:09Z</time>
      </trkpt>
      <trkpt lat="47.9002" lon="-3.91179">
        <ele>75.9</ele>
        <time>2023-04-05T15:39:10Z</time>
      </trkpt>
      <trkpt lat="47.90015" lon="-3.91175">
        <ele>76</ele>
        <time>2023-04-05T15:39:11Z</time>
      </trkpt>
      <trkpt lat="47.90011" lon="-3.91171">
        <ele>76</ele>
        <time>2023-04-05T15:39:12Z</time>
      </trkpt>
      <trkpt lat="47.90007" lon="-3.91168">
        <ele>76</ele>
        <time>2023-04-05T15:39:13Z</time>
      </trkpt>
      <trkpt lat="47.90005" lon="-3.91165">
        <ele>76.1</ele>
        <time>2023-04-05T15:39:14Z</time>
      </trkpt>
      <trkpt lat="47.90004" lon="-3.91162">
        <ele>76.2</ele>
        <time>2023-04-05T15:39:15Z</time>
      </trkpt>
      <trkpt lat="47.90002" lon="-3.91157">
        <ele>76.3</ele>
        <time>2023-04-05T15:39:16Z</time>
      </trkpt>
      <trkpt lat="47.90001" lon="-3.91156">
        <ele>76.3</ele>
        <time>2023-04-05T15:39:17Z</time>
      </trkpt>
      <trkpt lat="47.89998" lon="-3.91153">
        <ele>76.4</ele>
        <time>2023-04-05T15:39:18Z</time>
      </trkpt>
      <trkpt lat="47.89997" lon="-3.91152">
        <ele>76.5</ele>
        <time>2023-04-05T15:39:19Z</time>
      </trkpt>
      <trkpt lat="47.89997" lon="-3.91146">
        <ele>76.4</ele>
        <time>2023-04-05T15:39:21Z</time>
      </trkpt>
      <trkpt lat="47.89999" lon="-3.91142">
        <ele>76.4</ele>
        <time>2023-04-05T15:39:22Z</time>
      </trkpt>
      <trkpt lat="47.90003" lon="-3.9113">
        <ele>76.4</ele>
        <time>2023-04-05T15:39:23Z</time>
      </trkpt>
      <trkpt lat="47.90002" lon="-3.91122">
        <ele>76.4</ele>
        <time>2023-04-05T15:39:25Z</time>
      </trkpt>
      <trkpt lat="47.89999" lon="-3.91114">
        <ele>76.4</ele>
        <time>2023-04-05T15:39:26Z</time>
      </trkpt>
      <trkpt lat="47.89996" lon="-3.91108">
        <ele>76.4</ele>
        <time>2023-04-05T15:39:27Z</time>
      </trkpt>
      <trkpt lat="47.89994" lon="-3.91102">
        <ele>76.4</ele>
        <time>2023-04-05T15:39:28Z</time>
      </trkpt>
      <trkpt lat="47.89991" lon="-3.91096">
        <ele>76.5</ele>
        <time>2023-04-05T15:39:29Z</time>
      </trkpt>
      <trkpt lat="47.89989" lon="-3.91089">
        <ele>76.5</ele>
        <time>2023-04-05T15:39:30Z</time>
      </trkpt>
      <trkpt lat="47.89986" lon="-3.91083">
        <ele>76.5</ele>
        <time>2023-04-05T15:39:31Z</time>
      </trkpt>
      <trkpt lat="47.89984" lon="-3.91077">
        <ele>76.5</ele>
        <time>2023-04-05T15:39:32Z</time>
      </trkpt>
      <trkpt lat="47.89982" lon="-3.9107">
        <ele>76.5</ele>
        <time>2023-04-05T15:39:33Z</time>
      </trkpt>
      <trkpt lat="47.8998" lon="-3.91063">
        <ele>76.5</ele>
        <time>2023-04-05T15:39:34Z</time>
      </trkpt>
      <trkpt lat="47.89978" lon="-3.91056">
        <ele>76.6</ele>
        <time>2023-04-05T15:39:35Z</time>
      </trkpt>
      <trkpt lat="47.89976" lon="-3.91049">
        <ele>76.6</ele>
        <time>2023-04-05T15:39:36Z</time>
      </trkpt>
      <trkpt lat="47.89974" lon="-3.91042">
        <ele>76.6</ele>
        <time>2023-04-05T15:39:37Z</time>
      </trkpt>
      <trkpt lat="47.89972" lon="-3.91034">
        <ele>76.6</ele>
        <time>2023-04-05T15:39:38Z</time>
      </trkpt>
      <trkpt lat="47.89971" lon="-3.91027">
        <ele>76.7</ele>
        <time>2023-04-05T15:39:39Z</time>
      </trkpt>
      <trkpt lat="47.89969" lon="-3.91018">
        <ele>76.7</ele>
        <time>2023-04-05T15:39:40Z</time>
      </trkpt>
      <trkpt lat="47.89967" lon="-3.91011">
        <ele>76.7</ele>
        <time>2023-04-05T15:39:41Z</time>
      </trkpt>
      <trkpt lat="47.89966" lon="-3.91003">
        <ele>76.7</ele>
        <time>2023-04-05T15:39:42Z</time>
      </trkpt>
      <trkpt lat="47.89964" lon="-3.90996">
        <ele>76.8</ele>
        <time>2023-04-05T15:39:43Z</time>
      </trkpt>
      <trkpt lat="47.89963" lon="-3.90988">
        <ele>76.8</ele>
        <time>2023-04-05T15:39:44Z</time>
      </trkpt>
      <trkpt lat="47.89961" lon="-3.90981">
        <ele>76.8</ele>
        <time>2023-04-05T15:39:45Z</time>
      </trkpt>
      <trkpt lat="47.8996" lon="-3.90973">
        <ele>76.9</ele>
        <time>2023-04-05T15:39:46Z</time>
      </trkpt>
      <trkpt lat="47.89959" lon="-3.90966">
        <ele>76.9</ele>
        <time>2023-04-05T15:39:47Z</time>
      </trkpt>
      <trkpt lat="47.89958" lon="-3.90958">
        <ele>76.9</ele>
        <time>2023-04-05T15:39:48Z</time>
      </trkpt>
      <trkpt lat="47.89957" lon="-3.90953">
        <ele>77</ele>
        <time>2023-04-05T15:39:49Z</time>
      </trkpt>
      <trkpt lat="47.89956" lon="-3.90948">
        <ele>77</ele>
        <time>2023-04-05T15:39:50Z</time>
      </trkpt>
      <trkpt lat="47.89955" lon="-3.90947">
        <ele>77</ele>
        <time>2023-04-05T15:39:51Z</time>
      </trkpt>
      <trkpt lat="47.89955" lon="-3.90945">
        <ele>77</ele>
        <time>2023-04-05T15:39:52Z</time>
      </trkpt>
      <trkpt lat="47.89954" lon="-3.90942">
        <ele>77</ele>
        <time>2023-04-05T15:39:53Z</time>
      </trkpt>
      <trkpt lat="47.89954" lon="-3.90941">
        <ele>77</ele>
        <time>2023-04-05T15:39:54Z</time>
      </trkpt>
      <trkpt lat="47.89954" lon="-3.9094">
        <ele>77</ele>
        <time>2023-04-05T15:39:55Z</time>
      </trkpt>
      <trkpt lat="47.89953" lon="-3.90939">
        <ele>77</ele>
        <time>2023-04-05T15:39:56Z</time>
      </trkpt>
      <trkpt lat="47.89953" lon="-3.90935">
        <ele>77</ele>
        <time>2023-04-05T15:39:57Z</time>
      </trkpt>
      <trkpt lat="47.89953" lon="-3.90933">
        <ele>77</ele>
        <time>2023-04-05T15:39:58Z</time>
      </trkpt>
      <trkpt lat="47.89953" lon="-3.90932">
        <ele>76.8</ele>
        <time>2023-04-05T15:39:59Z</time>
      </trkpt>
      <trkpt lat="47.89953" lon="-3.90927">
        <ele>76.8</ele>
        <time>2023-04-05T15:40:00Z</time>
      </trkpt>
      <trkpt lat="47.89954" lon="-3.90919">
        <ele>76.7</ele>
        <time>2023-04-05T15:40:01Z</time>
      </trkpt>
      <trkpt lat="47.89954" lon="-3.90912">
        <ele>76.6</ele>
        <time>2023-04-05T15:40:02Z</time>
      </trkpt>
      <trkpt lat="47.89954" lon="-3.90904">
        <ele>76.4</ele>
        <time>2023-04-05T15:40:03Z</time>
      </trkpt>
      <trkpt lat="47.89954" lon="-3.90896">
        <ele>76.3</ele>
        <time>2023-04-05T15:40:04Z</time>
      </trkpt>
      <trkpt lat="47.89955" lon="-3.90887">
        <ele>76.1</ele>
        <time>2023-04-05T15:40:05Z</time>
      </trkpt>
      <trkpt lat="47.89956" lon="-3.90878">
        <ele>76</ele>
        <time>2023-04-05T15:40:06Z</time>
      </trkpt>
      <trkpt lat="47.89957" lon="-3.90869">
        <ele>75.9</ele>
        <time>2023-04-05T15:40:07Z</time>
      </trkpt>
      <trkpt lat="47.89958" lon="-3.90861">
        <ele>75.8</ele>
        <time>2023-04-05T15:40:08Z</time>
      </trkpt>
      <trkpt lat="47.89959" lon="-3.90853">
        <ele>75.7</ele>
        <time>2023-04-05T15:40:09Z</time>
      </trkpt>
      <trkpt lat="47.89959" lon="-3.90845">
        <ele>75.7</ele>
        <time>2023-04-05T15:40:10Z</time>
      </trkpt>
      <trkpt lat="47.8996" lon="-3.90836">
        <ele>75.6</ele>
        <time>2023-04-05T15:40:11Z</time>
      </trkpt>
      <trkpt lat="47.89961" lon="-3.90827">
        <ele>75.5</ele>
        <time>2023-04-05T15:40:12Z</time>
      </trkpt>
      <trkpt lat="47.89962" lon="-3.90817">
        <ele>75.4</ele>
        <time>2023-04-05T15:40:13Z</time>
      </trkpt>
      <trkpt lat="47.89963" lon="-3.90808">
        <ele>75.3</ele>
        <time>2023-04-05T15:40:14Z</time>
      </trkpt>
      <trkpt lat="47.89964" lon="-3.90799">
        <ele>75.2</ele>
        <time>2023-04-05T15:40:15Z</time>
      </trkpt>
      <trkpt lat="47.89965" lon="-3.9079">
        <ele>75.1</ele>
        <time>2023-04-05T15:40:16Z</time>
      </trkpt>
      <trkpt lat="47.89966" lon="-3.90781">
        <ele>75</ele>
        <time>2023-04-05T15:40:17Z</time>
      </trkpt>
      <trkpt lat="47.89968" lon="-3.90772">
        <ele>75</ele>
        <time>2023-04-05T15:40:18Z</time>
      </trkpt>
      <trkpt lat="47.8997" lon="-3.90763">
        <ele>74.9</ele>
        <time>2023-04-05T15:40:19Z</time>
      </trkpt>
      <trkpt lat="47.89971" lon="-3.90754">
        <ele>74.7</ele>
        <time>2023-04-05T15:40:20Z</time>
      </trkpt>
      <trkpt lat="47.89973" lon="-3.90744">
        <ele>74.6</ele>
        <time>2023-04-05T15:40:21Z</time>
      </trkpt>
      <trkpt lat="47.89974" lon="-3.90735">
        <ele>74.5</ele>
        <time>2023-04-05T15:40:22Z</time>
      </trkpt>
      <trkpt lat="47.89975" lon="-3.90725">
        <ele>74.3</ele>
        <time>2023-04-05T15:40:23Z</time>
      </trkpt>
      <trkpt lat="47.89976" lon="-3.90715">
        <ele>74.2</ele>
        <time>2023-04-05T15:40:24Z</time>
      </trkpt>
      <trkpt lat="47.89977" lon="-3.90706">
        <ele>74</ele>
        <time>2023-04-05T15:40:25Z</time>
      </trkpt>
      <trkpt lat="47.89978" lon="-3.90696">
        <ele>73.9</ele>
        <time>2023-04-05T15:40:26Z</time>
      </trkpt>
      <trkpt lat="47.89979" lon="-3.90685">
        <ele>73.7</ele>
        <time>2023-04-05T15:40:27Z</time>
      </trkpt>
      <trkpt lat="47.8998" lon="-3.90675">
        <ele>73.5</ele>
        <time>2023-04-05T15:40:28Z</time>
      </trkpt>
      <trkpt lat="47.89981" lon="-3.90664">
        <ele>73.3</ele>
        <time>2023-04-05T15:40:29Z</time>
      </trkpt>
      <trkpt lat="47.89982" lon="-3.90653">
        <ele>73.1</ele>
        <time>2023-04-05T15:40:30Z</time>
      </trkpt>
      <trkpt lat="47.89983" lon="-3.90642">
        <ele>72.9</ele>
        <time>2023-04-05T15:40:31Z</time>
      </trkpt>
      <trkpt lat="47.89984" lon="-3.9063">
        <ele>72.6</ele>
        <time>2023-04-05T15:40:32Z</time>
      </trkpt>
      <trkpt lat="47.89986" lon="-3.90618">
        <ele>72.4</ele>
        <time>2023-04-05T15:40:33Z</time>
      </trkpt>
      <trkpt lat="47.89987" lon="-3.90606">
        <ele>72.1</ele>
        <time>2023-04-05T15:40:34Z</time>
      </trkpt>
      <trkpt lat="47.89988" lon="-3.90594">
        <ele>71.9</ele>
        <time>2023-04-05T15:40:35Z</time>
      </trkpt>
      <trkpt lat="47.8999" lon="-3.90581">
        <ele>71.8</ele>
        <time>2023-04-05T15:40:36Z</time>
      </trkpt>
      <trkpt lat="47.89991" lon="-3.90569">
        <ele>71.6</ele>
        <time>2023-04-05T15:40:37Z</time>
      </trkpt>
      <trkpt lat="47.89993" lon="-3.90557">
        <ele>71.5</ele>
        <time>2023-04-05T15:40:38Z</time>
      </trkpt>
      <trkpt lat="47.89994" lon="-3.90545">
        <ele>71.4</ele>
        <time>2023-04-05T15:40:39Z</time>
      </trkpt>
      <trkpt lat="47.89995" lon="-3.90533">
        <ele>71.2</ele>
        <time>2023-04-05T15:40:40Z</time>
      </trkpt>
      <trkpt lat="47.89997" lon="-3.90521">
        <ele>71.1</ele>
        <time>2023-04-05T15:40:41Z</time>
      </trkpt>
      <trkpt lat="47.89998" lon="-3.90509">
        <ele>71</ele>
        <time>2023-04-05T15:40:42Z</time>
      </trkpt>
      <trkpt lat="47.89999" lon="-3.90498">
        <ele>70.8</ele>
        <time>2023-04-05T15:40:43Z</time>
      </trkpt>
      <trkpt lat="47.89999" lon="-3.90486">
        <ele>70.7</ele>
        <time>2023-04-05T15:40:44Z</time>
      </trkpt>
      <trkpt lat="47.9" lon="-3.90476">
        <ele>70.6</ele>
        <time>2023-04-05T15:40:45Z</time>
      </trkpt>
      <trkpt lat="47.9" lon="-3.90464">
        <ele>70.5</ele>
        <time>2023-04-05T15:40:46Z</time>
      </trkpt>
      <trkpt lat="47.89999" lon="-3.90452">
        <ele>70.5</ele>
        <time>2023-04-05T15:40:47Z</time>
      </trkpt>
      <trkpt lat="47.89999" lon="-3.90441">
        <ele>70.4</ele>
        <time>2023-04-05T15:40:48Z</time>
      </trkpt>
      <trkpt lat="47.89999" lon="-3.90429">
        <ele>70.3</ele>
        <time>2023-04-05T15:40:49Z</time>
      </trkpt>
      <trkpt lat="47.89999" lon="-3.90417">
        <ele>70.2</ele>
        <time>2023-04-05T15:40:50Z</time>
      </trkpt>
      <trkpt lat="47.89999" lon="-3.90406">
        <ele>70.1</ele>
        <time>2023-04-05T15:40:51Z</time>
      </trkpt>
      <trkpt lat="47.89998" lon="-3.90394">
        <ele>70</ele>
        <time>2023-04-05T15:40:52Z</time>
      </trkpt>
      <trkpt lat="47.89998" lon="-3.90383">
        <ele>69.9</ele>
        <time>2023-04-05T15:40:53Z</time>
      </trkpt>
      <trkpt lat="47.89996" lon="-3.90371">
        <ele>69.8</ele>
        <time>2023-04-05T15:40:54Z</time>
      </trkpt>
      <trkpt lat="47.89995" lon="-3.9036">
        <ele>69.6</ele>
        <time>2023-04-05T15:40:55Z</time>
      </trkpt>
      <trkpt lat="47.89993" lon="-3.90349">
        <ele>69.5</ele>
        <time>2023-04-05T15:40:56Z</time>
      </trkpt>
      <trkpt lat="47.8999" lon="-3.90336">
        <ele>69.3</ele>
        <time>2023-04-05T15:40:57Z</time>
      </trkpt>
      <trkpt lat="47.89987" lon="-3.90325">
        <ele>69</ele>
        <time>2023-04-05T15:40:58Z</time>
      </trkpt>
      <trkpt lat="47.89984" lon="-3.90314">
        <ele>68.8</ele>
        <time>2023-04-05T15:40:59Z</time>
      </trkpt>
      <trkpt lat="47.89982" lon="-3.90304">
        <ele>68.5</ele>
        <time>2023-04-05T15:41:00Z</time>
      </trkpt>
      <trkpt lat="47.89978" lon="-3.90292">
        <ele>68.2</ele>
        <time>2023-04-05T15:41:01Z</time>
      </trkpt>
      <trkpt lat="47.89976" lon="-3.9028">
        <ele>67.9</ele>
        <time>2023-04-05T15:41:02Z</time>
      </trkpt>
      <trkpt lat="47.89973" lon="-3.90269">
        <ele>67.7</ele>
        <time>2023-04-05T15:41:03Z</time>
      </trkpt>
      <trkpt lat="47.8997" lon="-3.90257">
        <ele>67.6</ele>
        <time>2023-04-05T15:41:04Z</time>
      </trkpt>
      <trkpt lat="47.89968" lon="-3.90246">
        <ele>67.5</ele>
        <time>2023-04-05T15:41:05Z</time>
      </trkpt>
      <trkpt lat="47.89966" lon="-3.90235">
        <ele>67.5</ele>
        <time>2023-04-05T15:41:06Z</time>
      </trkpt>
      <trkpt lat="47.89964" lon="-3.90224">
        <ele>67.4</ele>
        <time>2023-04-05T15:41:07Z</time>
      </trkpt>
      <trkpt lat="47.89962" lon="-3.90213">
        <ele>67.4</ele>
        <time>2023-04-05T15:41:08Z</time>
      </trkpt>
      <trkpt lat="47.89962" lon="-3.90203">
        <ele>67.4</ele>
        <time>2023-04-05T15:41:09Z</time>
      </trkpt>
      <trkpt lat="47.89962" lon="-3.90192">
        <ele>67.5</ele>
        <time>2023-04-05T15:41:10Z</time>
      </trkpt>
      <trkpt lat="47.89962" lon="-3.90182">
        <ele>67.6</ele>
        <time>2023-04-05T15:41:11Z</time>
      </trkpt>
      <trkpt lat="47.89962" lon="-3.90172">
        <ele>67.7</ele>
        <time>2023-04-05T15:41:12Z</time>
      </trkpt>
      <trkpt lat="47.89962" lon="-3.90162">
        <ele>67.8</ele>
        <time>2023-04-05T15:41:13Z</time>
      </trkpt>
      <trkpt lat="47.89962" lon="-3.90153">
        <ele>68.1</ele>
        <time>2023-04-05T15:41:14Z</time>
      </trkpt>
      <trkpt lat="47.89962" lon="-3.90144">
        <ele>68.4</ele>
        <time>2023-04-05T15:41:15Z</time>
      </trkpt>
      <trkpt lat="47.89962" lon="-3.90135">
        <ele>68.8</ele>
        <time>2023-04-05T15:41:16Z</time>
      </trkpt>
      <trkpt lat="47.89962" lon="-3.90128">
        <ele>69.1</ele>
        <time>2023-04-05T15:41:17Z</time>
      </trkpt>
      <trkpt lat="47.89962" lon="-3.9012">
        <ele>69.4</ele>
        <time>2023-04-05T15:41:18Z</time>
      </trkpt>
      <trkpt lat="47.89962" lon="-3.90113">
        <ele>69.7</ele>
        <time>2023-04-05T15:41:19Z</time>
      </trkpt>
      <trkpt lat="47.89962" lon="-3.90106">
        <ele>70.1</ele>
        <time>2023-04-05T15:41:20Z</time>
      </trkpt>
      <trkpt lat="47.89961" lon="-3.90099">
        <ele>70.4</ele>
        <time>2023-04-05T15:41:21Z</time>
      </trkpt>
      <trkpt lat="47.89961" lon="-3.90092">
        <ele>70.7</ele>
        <time>2023-04-05T15:41:22Z</time>
      </trkpt>
      <trkpt lat="47.8996" lon="-3.90085">
        <ele>71.1</ele>
        <time>2023-04-05T15:41:23Z</time>
      </trkpt>
      <trkpt lat="47.8996" lon="-3.90078">
        <ele>71.4</ele>
        <time>2023-04-05T15:41:24Z</time>
      </trkpt>
      <trkpt lat="47.89959" lon="-3.90071">
        <ele>71.7</ele>
        <time>2023-04-05T15:41:25Z</time>
      </trkpt>
      <trkpt lat="47.89957" lon="-3.90063">
        <ele>72.1</ele>
        <time>2023-04-05T15:41:26Z</time>
      </trkpt>
      <trkpt lat="47.89956" lon="-3.90056">
        <ele>72.4</ele>
        <time>2023-04-05T15:41:27Z</time>
      </trkpt>
      <trkpt lat="47.89955" lon="-3.90049">
        <ele>72.7</ele>
        <time>2023-04-05T15:41:28Z</time>
      </trkpt>
      <trkpt lat="47.89953" lon="-3.90041">
        <ele>73</ele>
        <time>2023-04-05T15:41:29Z</time>
      </trkpt>
      <trkpt lat="47.89952" lon="-3.90034">
        <ele>73.3</ele>
        <time>2023-04-05T15:41:30Z</time>
      </trkpt>
      <trkpt lat="47.8995" lon="-3.90027">
        <ele>73.5</ele>
        <time>2023-04-05T15:41:31Z</time>
      </trkpt>
      <trkpt lat="47.89949" lon="-3.90021">
        <ele>73.7</ele>
        <time>2023-04-05T15:41:32Z</time>
      </trkpt>
      <trkpt lat="47.89947" lon="-3.90014">
        <ele>73.9</ele>
        <time>2023-04-05T15:41:33Z</time>
      </trkpt>
      <trkpt lat="47.89946" lon="-3.90008">
        <ele>74.1</ele>
        <time>2023-04-05T15:41:34Z</time>
      </trkpt>
      <trkpt lat="47.89945" lon="-3.90002">
        <ele>74.3</ele>
        <time>2023-04-05T15:41:35Z</time>
      </trkpt>
      <trkpt lat="47.89943" lon="-3.89995">
        <ele>74.4</ele>
        <time>2023-04-05T15:41:36Z</time>
      </trkpt>
      <trkpt lat="47.89942" lon="-3.8999">
        <ele>74.6</ele>
        <time>2023-04-05T15:41:37Z</time>
      </trkpt>
      <trkpt lat="47.89941" lon="-3.89985">
        <ele>74.7</ele>
        <time>2023-04-05T15:41:38Z</time>
      </trkpt>
      <trkpt lat="47.89939" lon="-3.89978">
        <ele>74.9</ele>
        <time>2023-04-05T15:41:39Z</time>
      </trkpt>
      <trkpt lat="47.89937" lon="-3.89971">
        <ele>75.1</ele>
        <time>2023-04-05T15:41:40Z</time>
      </trkpt>
      <trkpt lat="47.89936" lon="-3.89966">
        <ele>75.2</ele>
        <time>2023-04-05T15:41:41Z</time>
      </trkpt>
      <trkpt lat="47.89934" lon="-3.89957">
        <ele>75.4</ele>
        <time>2023-04-05T15:41:42Z</time>
      </trkpt>
      <trkpt lat="47.89932" lon="-3.89953">
        <ele>75.5</ele>
        <time>2023-04-05T15:41:43Z</time>
      </trkpt>
      <trkpt lat="47.8993" lon="-3.89946">
        <ele>75.6</ele>
        <time>2023-04-05T15:41:44Z</time>
      </trkpt>
      <trkpt lat="47.89929" lon="-3.89941">
        <ele>75.7</ele>
        <time>2023-04-05T15:41:45Z</time>
      </trkpt>
      <trkpt lat="47.89927" lon="-3.89934">
        <ele>75.8</ele>
        <time>2023-04-05T15:41:46Z</time>
      </trkpt>
      <trkpt lat="47.89926" lon="-3.89927">
        <ele>75.8</ele>
        <time>2023-04-05T15:41:47Z</time>
      </trkpt>
      <trkpt lat="47.89924" lon="-3.89921">
        <ele>75.9</ele>
        <time>2023-04-05T15:41:48Z</time>
      </trkpt>
      <trkpt lat="47.89922" lon="-3.89914">
        <ele>75.9</ele>
        <time>2023-04-05T15:41:49Z</time>
      </trkpt>
      <trkpt lat="47.89921" lon="-3.89907">
        <ele>75.9</ele>
        <time>2023-04-05T15:41:50Z</time>
      </trkpt>
      <trkpt lat="47.89919" lon="-3.899">
        <ele>75.9</ele>
        <time>2023-04-05T15:41:51Z</time>
      </trkpt>
      <trkpt lat="47.89917" lon="-3.89893">
        <ele>75.9</ele>
        <time>2023-04-05T15:41:52Z</time>
      </trkpt>
      <trkpt lat="47.89915" lon="-3.89886">
        <ele>75.8</ele>
        <time>2023-04-05T15:41:53Z</time>
      </trkpt>
      <trkpt lat="47.89914" lon="-3.89879">
        <ele>75.8</ele>
        <time>2023-04-05T15:41:54Z</time>
      </trkpt>
      <trkpt lat="47.89912" lon="-3.89871">
        <ele>75.7</ele>
        <time>2023-04-05T15:41:55Z</time>
      </trkpt>
      <trkpt lat="47.89911" lon="-3.89864">
        <ele>75.7</ele>
        <time>2023-04-05T15:41:56Z</time>
      </trkpt>
      <trkpt lat="47.89909" lon="-3.89857">
        <ele>75.6</ele>
        <time>2023-04-05T15:41:57Z</time>
      </trkpt>
      <trkpt lat="47.89908" lon="-3.89849">
        <ele>75.6</ele>
        <time>2023-04-05T15:41:58Z</time>
      </trkpt>
      <trkpt lat="47.89906" lon="-3.89841">
        <ele>75.5</ele>
        <time>2023-04-05T15:41:59Z</time>
      </trkpt>
      <trkpt lat="47.89904" lon="-3.89834">
        <ele>75.5</ele>
        <time>2023-04-05T15:42:00Z</time>
      </trkpt>
      <trkpt lat="47.89903" lon="-3.89826">
        <ele>75.4</ele>
        <time>2023-04-05T15:42:01Z</time>
      </trkpt>
      <trkpt lat="47.89901" lon="-3.89818">
        <ele>75.3</ele>
        <time>2023-04-05T15:42:02Z</time>
      </trkpt>
      <trkpt lat="47.899" lon="-3.89811">
        <ele>75.2</ele>
        <time>2023-04-05T15:42:03Z</time>
      </trkpt>
      <trkpt lat="47.89898" lon="-3.89803">
        <ele>75.1</ele>
        <time>2023-04-05T15:42:04Z</time>
      </trkpt>
      <trkpt lat="47.89897" lon="-3.89795">
        <ele>74.9</ele>
        <time>2023-04-05T15:42:05Z</time>
      </trkpt>
      <trkpt lat="47.89895" lon="-3.89787">
        <ele>74.8</ele>
        <time>2023-04-05T15:42:06Z</time>
      </trkpt>
      <trkpt lat="47.89894" lon="-3.89778">
        <ele>74.7</ele>
        <time>2023-04-05T15:42:07Z</time>
      </trkpt>
      <trkpt lat="47.89892" lon="-3.89769">
        <ele>74.5</ele>
        <time>2023-04-05T15:42:08Z</time>
      </trkpt>
      <trkpt lat="47.89891" lon="-3.8976">
        <ele>74.4</ele>
        <time>2023-04-05T15:42:09Z</time>
      </trkpt>
      <trkpt lat="47.89889" lon="-3.89751">
        <ele>74.2</ele>
        <time>2023-04-05T15:42:10Z</time>
      </trkpt>
      <trkpt lat="47.89887" lon="-3.89742">
        <ele>74</ele>
        <time>2023-04-05T15:42:11Z</time>
      </trkpt>
      <trkpt lat="47.89885" lon="-3.89732">
        <ele>73.8</ele>
        <time>2023-04-05T15:42:12Z</time>
      </trkpt>
      <trkpt lat="47.89884" lon="-3.89722">
        <ele>73.5</ele>
        <time>2023-04-05T15:42:13Z</time>
      </trkpt>
      <trkpt lat="47.89882" lon="-3.89713">
        <ele>73.3</ele>
        <time>2023-04-05T15:42:14Z</time>
      </trkpt>
      <trkpt lat="47.8988" lon="-3.89702">
        <ele>73.1</ele>
        <time>2023-04-05T15:42:15Z</time>
      </trkpt>
      <trkpt lat="47.89879" lon="-3.89692">
        <ele>72.9</ele>
        <time>2023-04-05T15:42:16Z</time>
      </trkpt>
      <trkpt lat="47.89877" lon="-3.89682">
        <ele>72.7</ele>
        <time>2023-04-05T15:42:17Z</time>
      </trkpt>
      <trkpt lat="47.89876" lon="-3.89672">
        <ele>72.5</ele>
        <time>2023-04-05T15:42:18Z</time>
      </trkpt>
      <trkpt lat="47.89876" lon="-3.89661">
        <ele>72.3</ele>
        <time>2023-04-05T15:42:19Z</time>
      </trkpt>
      <trkpt lat="47.89876" lon="-3.89651">
        <ele>72.2</ele>
        <time>2023-04-05T15:42:20Z</time>
      </trkpt>
      <trkpt lat="47.89875" lon="-3.8964">
        <ele>72.1</ele>
        <time>2023-04-05T15:42:21Z</time>
      </trkpt>
      <trkpt lat="47.89874" lon="-3.89629">
        <ele>72</ele>
        <time>2023-04-05T15:42:22Z</time>
      </trkpt>
      <trkpt lat="47.89873" lon="-3.89619">
        <ele>71.9</ele>
        <time>2023-04-05T15:42:23Z</time>
      </trkpt>
      <trkpt lat="47.89873" lon="-3.89608">
        <ele>71.9</ele>
        <time>2023-04-05T15:42:24Z</time>
      </trkpt>
      <trkpt lat="47.89872" lon="-3.89599">
        <ele>72</ele>
        <time>2023-04-05T15:42:25Z</time>
      </trkpt>
      <trkpt lat="47.89871" lon="-3.8959">
        <ele>72.1</ele>
        <time>2023-04-05T15:42:26Z</time>
      </trkpt>
      <trkpt lat="47.8987" lon="-3.8958">
        <ele>72.2</ele>
        <time>2023-04-05T15:42:27Z</time>
      </trkpt>
      <trkpt lat="47.8987" lon="-3.89571">
        <ele>72.4</ele>
        <time>2023-04-05T15:42:28Z</time>
      </trkpt>
      <trkpt lat="47.8987" lon="-3.89563">
        <ele>72.5</ele>
        <time>2023-04-05T15:42:29Z</time>
      </trkpt>
      <trkpt lat="47.8987" lon="-3.89555">
        <ele>72.7</ele>
        <time>2023-04-05T15:42:30Z</time>
      </trkpt>
      <trkpt lat="47.89871" lon="-3.89548">
        <ele>72.8</ele>
        <time>2023-04-05T15:42:31Z</time>
      </trkpt>
      <trkpt lat="47.89871" lon="-3.8954">
        <ele>73</ele>
        <time>2023-04-05T15:42:32Z</time>
      </trkpt>
      <trkpt lat="47.8987" lon="-3.89533">
        <ele>73.1</ele>
        <time>2023-04-05T15:42:33Z</time>
      </trkpt>
      <trkpt lat="47.8987" lon="-3.89526">
        <ele>73.3</ele>
        <time>2023-04-05T15:42:34Z</time>
      </trkpt>
      <trkpt lat="47.8987" lon="-3.89518">
        <ele>73.4</ele>
        <time>2023-04-05T15:42:35Z</time>
      </trkpt>
      <trkpt lat="47.8987" lon="-3.89511">
        <ele>73.6</ele>
        <time>2023-04-05T15:42:36Z</time>
      </trkpt>
      <trkpt lat="47.89869" lon="-3.89504">
        <ele>73.8</ele>
        <time>2023-04-05T15:42:37Z</time>
      </trkpt>
      <trkpt lat="47.89869" lon="-3.89496">
        <ele>73.9</ele>
        <time>2023-04-05T15:42:38Z</time>
      </trkpt>
      <trkpt lat="47.89868" lon="-3.89489">
        <ele>74</ele>
        <time>2023-04-05T15:42:39Z</time>
      </trkpt>
      <trkpt lat="47.89868" lon="-3.89482">
        <ele>74.2</ele>
        <time>2023-04-05T15:42:40Z</time>
      </trkpt>
      <trkpt lat="47.89868" lon="-3.89475">
        <ele>74.3</ele>
        <time>2023-04-05T15:42:41Z</time>
      </trkpt>
      <trkpt lat="47.89868" lon="-3.89467">
        <ele>74.5</ele>
        <time>2023-04-05T15:42:42Z</time>
      </trkpt>
      <trkpt lat="47.89867" lon="-3.89459">
        <ele>74.6</ele>
        <time>2023-04-05T15:42:43Z</time>
      </trkpt>
      <trkpt lat="47.89866" lon="-3.89452">
        <ele>74.8</ele>
        <time>2023-04-05T15:42:44Z</time>
      </trkpt>
      <trkpt lat="47.89865" lon="-3.89445">
        <ele>74.9</ele>
        <time>2023-04-05T15:42:45Z</time>
      </trkpt>
      <trkpt lat="47.89864" lon="-3.89438">
        <ele>75</ele>
        <time>2023-04-05T15:42:46Z</time>
      </trkpt>
      <trkpt lat="47.89863" lon="-3.89431">
        <ele>75.1</ele>
        <time>2023-04-05T15:42:47Z</time>
      </trkpt>
      <trkpt lat="47.89861" lon="-3.89424">
        <ele>75.2</ele>
        <time>2023-04-05T15:42:48Z</time>
      </trkpt>
      <trkpt lat="47.89859" lon="-3.89417">
        <ele>75.2</ele>
        <time>2023-04-05T15:42:49Z</time>
      </trkpt>
      <trkpt lat="47.89856" lon="-3.89411">
        <ele>75.3</ele>
        <time>2023-04-05T15:42:50Z</time>
      </trkpt>
      <trkpt lat="47.89853" lon="-3.89404">
        <ele>75.4</ele>
        <time>2023-04-05T15:42:51Z</time>
      </trkpt>
      <trkpt lat="47.8985" lon="-3.89398">
        <ele>75.4</ele>
        <time>2023-04-05T15:42:52Z</time>
      </trkpt>
      <trkpt lat="47.89847" lon="-3.89392">
        <ele>75.5</ele>
        <time>2023-04-05T15:42:53Z</time>
      </trkpt>
      <trkpt lat="47.89844" lon="-3.89387">
        <ele>75.5</ele>
        <time>2023-04-05T15:42:54Z</time>
      </trkpt>
      <trkpt lat="47.8984" lon="-3.89383">
        <ele>75.6</ele>
        <time>2023-04-05T15:42:55Z</time>
      </trkpt>
      <trkpt lat="47.89836" lon="-3.89378">
        <ele>75.6</ele>
        <time>2023-04-05T15:42:56Z</time>
      </trkpt>
      <trkpt lat="47.89832" lon="-3.89374">
        <ele>75.6</ele>
        <time>2023-04-05T15:42:57Z</time>
      </trkpt>
      <trkpt lat="47.89828" lon="-3.89371">
        <ele>75.7</ele>
        <time>2023-04-05T15:42:58Z</time>
      </trkpt>
      <trkpt lat="47.89824" lon="-3.89368">
        <ele>75.7</ele>
        <time>2023-04-05T15:42:59Z</time>
      </trkpt>
      <trkpt lat="47.89819" lon="-3.89364">
        <ele>75.8</ele>
        <time>2023-04-05T15:43:00Z</time>
      </trkpt>
      <trkpt lat="47.89815" lon="-3.89362">
        <ele>75.8</ele>
        <time>2023-04-05T15:43:01Z</time>
      </trkpt>
      <trkpt lat="47.89811" lon="-3.89359">
        <ele>75.9</ele>
        <time>2023-04-05T15:43:02Z</time>
      </trkpt>
      <trkpt lat="47.89807" lon="-3.89356">
        <ele>75.9</ele>
        <time>2023-04-05T15:43:03Z</time>
      </trkpt>
      <trkpt lat="47.89803" lon="-3.89354">
        <ele>76</ele>
        <time>2023-04-05T15:43:04Z</time>
      </trkpt>
      <trkpt lat="47.89798" lon="-3.89351">
        <ele>76</ele>
        <time>2023-04-05T15:43:05Z</time>
      </trkpt>
      <trkpt lat="47.89794" lon="-3.89348">
        <ele>76</ele>
        <time>2023-04-05T15:43:06Z</time>
      </trkpt>
      <trkpt lat="47.89789" lon="-3.89345">
        <ele>76.1</ele>
        <time>2023-04-05T15:43:07Z</time>
      </trkpt>
      <trkpt lat="47.89785" lon="-3.89342">
        <ele>76.1</ele>
        <time>2023-04-05T15:43:08Z</time>
      </trkpt>
      <trkpt lat="47.89781" lon="-3.89339">
        <ele>76.1</ele>
        <time>2023-04-05T15:43:09Z</time>
      </trkpt>
      <trkpt lat="47.89777" lon="-3.89336">
        <ele>76.1</ele>
        <time>2023-04-05T15:43:10Z</time>
      </trkpt>
      <trkpt lat="47.89772" lon="-3.89332">
        <ele>76.2</ele>
        <time>2023-04-05T15:43:11Z</time>
      </trkpt>
      <trkpt lat="47.89768" lon="-3.89329">
        <ele>76.2</ele>
        <time>2023-04-05T15:43:12Z</time>
      </trkpt>
      <trkpt lat="47.89764" lon="-3.89326">
        <ele>76.2</ele>
        <time>2023-04-05T15:43:13Z</time>
      </trkpt>
      <trkpt lat="47.89759" lon="-3.89322">
        <ele>76.2</ele>
        <time>2023-04-05T15:43:14Z</time>
      </trkpt>
      <trkpt lat="47.89755" lon="-3.89318">
        <ele>76.2</ele>
        <time>2023-04-05T15:43:15Z</time>
      </trkpt>
      <trkpt lat="47.8975" lon="-3.89315">
        <ele>76.2</ele>
        <time>2023-04-05T15:43:16Z</time>
      </trkpt>
      <trkpt lat="47.89745" lon="-3.89312">
        <ele>76.2</ele>
        <time>2023-04-05T15:43:17Z</time>
      </trkpt>
      <trkpt lat="47.8974" lon="-3.89309">
        <ele>76.2</ele>
        <time>2023-04-05T15:43:18Z</time>
      </trkpt>
      <trkpt lat="47.89736" lon="-3.89305">
        <ele>76.2</ele>
        <time>2023-04-05T15:43:19Z</time>
      </trkpt>
      <trkpt lat="47.89731" lon="-3.89301">
        <ele>76.2</ele>
        <time>2023-04-05T15:43:20Z</time>
      </trkpt>
      <trkpt lat="47.89727" lon="-3.89297">
        <ele>76.2</ele>
        <time>2023-04-05T15:43:21Z</time>
      </trkpt>
      <trkpt lat="47.89722" lon="-3.89294">
        <ele>76.2</ele>
        <time>2023-04-05T15:43:22Z</time>
      </trkpt>
      <trkpt lat="47.89717" lon="-3.8929">
        <ele>76.2</ele>
        <time>2023-04-05T15:43:23Z</time>
      </trkpt>
      <trkpt lat="47.89713" lon="-3.89286">
        <ele>76.2</ele>
        <time>2023-04-05T15:43:24Z</time>
      </trkpt>
      <trkpt lat="47.89708" lon="-3.89282">
        <ele>76.2</ele>
        <time>2023-04-05T15:43:25Z</time>
      </trkpt>
      <trkpt lat="47.89703" lon="-3.89279">
        <ele>76.2</ele>
        <time>2023-04-05T15:43:26Z</time>
      </trkpt>
      <trkpt lat="47.89699" lon="-3.89275">
        <ele>76.2</ele>
        <time>2023-04-05T15:43:27Z</time>
      </trkpt>
      <trkpt lat="47.89695" lon="-3.89271">
        <ele>76.2</ele>
        <time>2023-04-05T15:43:28Z</time>
      </trkpt>
      <trkpt lat="47.89691" lon="-3.89267">
        <ele>76.2</ele>
        <time>2023-04-05T15:43:29Z</time>
      </trkpt>
      <trkpt lat="47.89686" lon="-3.89264">
        <ele>76.2</ele>
        <time>2023-04-05T15:43:30Z</time>
      </trkpt>
      <trkpt lat="47.89682" lon="-3.89261">
        <ele>76.3</ele>
        <time>2023-04-05T15:43:31Z</time>
      </trkpt>
      <trkpt lat="47.89678" lon="-3.89257">
        <ele>76.3</ele>
        <time>2023-04-05T15:43:32Z</time>
      </trkpt>
      <trkpt lat="47.89673" lon="-3.89253">
        <ele>76.3</ele>
        <time>2023-04-05T15:43:33Z</time>
      </trkpt>
      <trkpt lat="47.89669" lon="-3.8925">
        <ele>76.3</ele>
        <time>2023-04-05T15:43:34Z</time>
      </trkpt>
      <trkpt lat="47.89664" lon="-3.89246">
        <ele>76.4</ele>
        <time>2023-04-05T15:43:35Z</time>
      </trkpt>
      <trkpt lat="47.8966" lon="-3.89242">
        <ele>76.4</ele>
        <time>2023-04-05T15:43:36Z</time>
      </trkpt>
      <trkpt lat="47.89655" lon="-3.89239">
        <ele>76.4</ele>
        <time>2023-04-05T15:43:37Z</time>
      </trkpt>
      <trkpt lat="47.89651" lon="-3.89235">
        <ele>76.4</ele>
        <time>2023-04-05T15:43:38Z</time>
      </trkpt>
      <trkpt lat="47.89647" lon="-3.89231">
        <ele>76.4</ele>
        <time>2023-04-05T15:43:39Z</time>
      </trkpt>
      <trkpt lat="47.89642" lon="-3.89228">
        <ele>76.4</ele>
        <time>2023-04-05T15:43:40Z</time>
      </trkpt>
      <trkpt lat="47.89638" lon="-3.89224">
        <ele>76.4</ele>
        <time>2023-04-05T15:43:41Z</time>
      </trkpt>
      <trkpt lat="47.89634" lon="-3.8922">
        <ele>76.5</ele>
        <time>2023-04-05T15:43:42Z</time>
      </trkpt>
      <trkpt lat="47.89629" lon="-3.89216">
        <ele>76.5</ele>
        <time>2023-04-05T15:43:43Z</time>
      </trkpt>
      <trkpt lat="47.89625" lon="-3.89212">
        <ele>76.6</ele>
        <time>2023-04-05T15:43:44Z</time>
      </trkpt>
      <trkpt lat="47.89622" lon="-3.8921">
        <ele>76.6</ele>
        <time>2023-04-05T15:43:45Z</time>
      </trkpt>
      <trkpt lat="47.89617" lon="-3.89206">
        <ele>76.7</ele>
        <time>2023-04-05T15:43:46Z</time>
      </trkpt>
      <trkpt lat="47.89613" lon="-3.89201">
        <ele>76.7</ele>
        <time>2023-04-05T15:43:47Z</time>
      </trkpt>
      <trkpt lat="47.8961" lon="-3.89197">
        <ele>76.8</ele>
        <time>2023-04-05T15:43:48Z</time>
      </trkpt>
      <trkpt lat="47.89605" lon="-3.89192">
        <ele>76.8</ele>
        <time>2023-04-05T15:43:49Z</time>
      </trkpt>
      <trkpt lat="47.89601" lon="-3.89187">
        <ele>76.9</ele>
        <time>2023-04-05T15:43:50Z</time>
      </trkpt>
      <trkpt lat="47.89597" lon="-3.89183">
        <ele>76.9</ele>
        <time>2023-04-05T15:43:51Z</time>
      </trkpt>
      <trkpt lat="47.89593" lon="-3.89179">
        <ele>76.9</ele>
        <time>2023-04-05T15:43:52Z</time>
      </trkpt>
      <trkpt lat="47.8959" lon="-3.89176">
        <ele>76.9</ele>
        <time>2023-04-05T15:43:53Z</time>
      </trkpt>
      <trkpt lat="47.89587" lon="-3.89173">
        <ele>76.9</ele>
        <time>2023-04-05T15:43:54Z</time>
      </trkpt>
      <trkpt lat="47.89583" lon="-3.8917">
        <ele>76.9</ele>
        <time>2023-04-05T15:43:55Z</time>
      </trkpt>
      <trkpt lat="47.89578" lon="-3.89165">
        <ele>77</ele>
        <time>2023-04-05T15:43:56Z</time>
      </trkpt>
      <trkpt lat="47.89573" lon="-3.89161">
        <ele>77</ele>
        <time>2023-04-05T15:43:57Z</time>
      </trkpt>
      <trkpt lat="47.89568" lon="-3.89156">
        <ele>77</ele>
        <time>2023-04-05T15:43:58Z</time>
      </trkpt>
      <trkpt lat="47.89564" lon="-3.89152">
        <ele>77.1</ele>
        <time>2023-04-05T15:43:59Z</time>
      </trkpt>
      <trkpt lat="47.8956" lon="-3.89148">
        <ele>77.1</ele>
        <time>2023-04-05T15:44:00Z</time>
      </trkpt>
      <trkpt lat="47.89556" lon="-3.89144">
        <ele>77.1</ele>
        <time>2023-04-05T15:44:01Z</time>
      </trkpt>
      <trkpt lat="47.89551" lon="-3.89138">
        <ele>77.2</ele>
        <time>2023-04-05T15:44:02Z</time>
      </trkpt>
      <trkpt lat="47.89547" lon="-3.89134">
        <ele>77.2</ele>
        <time>2023-04-05T15:44:03Z</time>
      </trkpt>
      <trkpt lat="47.89543" lon="-3.89129">
        <ele>77.2</ele>
        <time>2023-04-05T15:44:04Z</time>
      </trkpt>
      <trkpt lat="47.8954" lon="-3.89125">
        <ele>77.2</ele>
        <time>2023-04-05T15:44:05Z</time>
      </trkpt>
      <trkpt lat="47.89536" lon="-3.8912">
        <ele>77.2</ele>
        <time>2023-04-05T15:44:06Z</time>
      </trkpt>
      <trkpt lat="47.89531" lon="-3.89115">
        <ele>77.2</ele>
        <time>2023-04-05T15:44:07Z</time>
      </trkpt>
      <trkpt lat="47.89527" lon="-3.8911">
        <ele>77.2</ele>
        <time>2023-04-05T15:44:08Z</time>
      </trkpt>
      <trkpt lat="47.89523" lon="-3.89104">
        <ele>77.2</ele>
        <time>2023-04-05T15:44:09Z</time>
      </trkpt>
      <trkpt lat="47.89521" lon="-3.89098">
        <ele>77.2</ele>
        <time>2023-04-05T15:44:10Z</time>
      </trkpt>
      <trkpt lat="47.89517" lon="-3.89092">
        <ele>77.2</ele>
        <time>2023-04-05T15:44:11Z</time>
      </trkpt>
      <trkpt lat="47.89514" lon="-3.89086">
        <ele>77.2</ele>
        <time>2023-04-05T15:44:12Z</time>
      </trkpt>
      <trkpt lat="47.8951" lon="-3.8908">
        <ele>77.1</ele>
        <time>2023-04-05T15:44:13Z</time>
      </trkpt>
      <trkpt lat="47.89507" lon="-3.89073">
        <ele>77.1</ele>
        <time>2023-04-05T15:44:14Z</time>
      </trkpt>
      <trkpt lat="47.89504" lon="-3.89067">
        <ele>77</ele>
        <time>2023-04-05T15:44:15Z</time>
      </trkpt>
      <trkpt lat="47.89501" lon="-3.8906">
        <ele>76.9</ele>
        <time>2023-04-05T15:44:16Z</time>
      </trkpt>
      <trkpt lat="47.89497" lon="-3.89054">
        <ele>76.8</ele>
        <time>2023-04-05T15:44:17Z</time>
      </trkpt>
      <trkpt lat="47.89493" lon="-3.89048">
        <ele>76.8</ele>
        <time>2023-04-05T15:44:18Z</time>
      </trkpt>
      <trkpt lat="47.89489" lon="-3.89042">
        <ele>76.7</ele>
        <time>2023-04-05T15:44:19Z</time>
      </trkpt>
      <trkpt lat="47.89484" lon="-3.89036">
        <ele>76.6</ele>
        <time>2023-04-05T15:44:20Z</time>
      </trkpt>
      <trkpt lat="47.8948" lon="-3.89031">
        <ele>76.6</ele>
        <time>2023-04-05T15:44:21Z</time>
      </trkpt>
      <trkpt lat="47.89476" lon="-3.89026">
        <ele>76.6</ele>
        <time>2023-04-05T15:44:22Z</time>
      </trkpt>
      <trkpt lat="47.89471" lon="-3.89022">
        <ele>76.5</ele>
        <time>2023-04-05T15:44:23Z</time>
      </trkpt>
      <trkpt lat="47.89467" lon="-3.89019">
        <ele>76.5</ele>
        <time>2023-04-05T15:44:24Z</time>
      </trkpt>
      <trkpt lat="47.89462" lon="-3.89015">
        <ele>76.5</ele>
        <time>2023-04-05T15:44:25Z</time>
      </trkpt>
      <trkpt lat="47.89458" lon="-3.8901">
        <ele>76.6</ele>
        <time>2023-04-05T15:44:26Z</time>
      </trkpt>
      <trkpt lat="47.89453" lon="-3.89007">
        <ele>76.6</ele>
        <time>2023-04-05T15:44:27Z</time>
      </trkpt>
      <trkpt lat="47.89448" lon="-3.89003">
        <ele>76.6</ele>
        <time>2023-04-05T15:44:28Z</time>
      </trkpt>
      <trkpt lat="47.89445" lon="-3.89">
        <ele>76.6</ele>
        <time>2023-04-05T15:44:29Z</time>
      </trkpt>
      <trkpt lat="47.89442" lon="-3.88997">
        <ele>76.7</ele>
        <time>2023-04-05T15:44:30Z</time>
      </trkpt>
      <trkpt lat="47.89441" lon="-3.88996">
        <ele>76.7</ele>
        <time>2023-04-05T15:44:31Z</time>
      </trkpt>
      <trkpt lat="47.89438" lon="-3.88994">
        <ele>76.7</ele>
        <time>2023-04-05T15:44:32Z</time>
      </trkpt>
      <trkpt lat="47.89434" lon="-3.88989">
        <ele>76.5</ele>
        <time>2023-04-05T15:44:33Z</time>
      </trkpt>
      <trkpt lat="47.89432" lon="-3.88987">
        <ele>76.5</ele>
        <time>2023-04-05T15:44:34Z</time>
      </trkpt>
      <trkpt lat="47.89428" lon="-3.88984">
        <ele>76.4</ele>
        <time>2023-04-05T15:44:35Z</time>
      </trkpt>
      <trkpt lat="47.89422" lon="-3.88977">
        <ele>76.2</ele>
        <time>2023-04-05T15:44:36Z</time>
      </trkpt>
      <trkpt lat="47.89418" lon="-3.88972">
        <ele>76</ele>
        <time>2023-04-05T15:44:37Z</time>
      </trkpt>
      <trkpt lat="47.89415" lon="-3.88968">
        <ele>75.9</ele>
        <time>2023-04-05T15:44:38Z</time>
      </trkpt>
      <trkpt lat="47.89409" lon="-3.88964">
        <ele>75.8</ele>
        <time>2023-04-05T15:44:39Z</time>
      </trkpt>
      <trkpt lat="47.89404" lon="-3.8896">
        <ele>75.7</ele>
        <time>2023-04-05T15:44:40Z</time>
      </trkpt>
      <trkpt lat="47.89399" lon="-3.88955">
        <ele>75.6</ele>
        <time>2023-04-05T15:44:41Z</time>
      </trkpt>
      <trkpt lat="47.89394" lon="-3.8895">
        <ele>75.5</ele>
        <time>2023-04-05T15:44:42Z</time>
      </trkpt>
      <trkpt lat="47.89389" lon="-3.88945">
        <ele>75.4</ele>
        <time>2023-04-05T15:44:43Z</time>
      </trkpt>
      <trkpt lat="47.89385" lon="-3.8894">
        <ele>75.4</ele>
        <time>2023-04-05T15:44:44Z</time>
      </trkpt>
      <trkpt lat="47.8938" lon="-3.88935">
        <ele>75.3</ele>
        <time>2023-04-05T15:44:45Z</time>
      </trkpt>
      <trkpt lat="47.89376" lon="-3.8893">
        <ele>75.3</ele>
        <time>2023-04-05T15:44:46Z</time>
      </trkpt>
      <trkpt lat="47.89371" lon="-3.88925">
        <ele>75.4</ele>
        <time>2023-04-05T15:44:47Z</time>
      </trkpt>
      <trkpt lat="47.89366" lon="-3.88921">
        <ele>75.4</ele>
        <time>2023-04-05T15:44:48Z</time>
      </trkpt>
      <trkpt lat="47.89362" lon="-3.88917">
        <ele>75.4</ele>
        <time>2023-04-05T15:44:49Z</time>
      </trkpt>
      <trkpt lat="47.89358" lon="-3.88912">
        <ele>75.5</ele>
        <time>2023-04-05T15:44:50Z</time>
      </trkpt>
      <trkpt lat="47.89354" lon="-3.88908">
        <ele>75.5</ele>
        <time>2023-04-05T15:44:51Z</time>
      </trkpt>
      <trkpt lat="47.89349" lon="-3.88904">
        <ele>75.5</ele>
        <time>2023-04-05T15:44:52Z</time>
      </trkpt>
      <trkpt lat="47.89345" lon="-3.889">
        <ele>75.5</ele>
        <time>2023-04-05T15:44:53Z</time>
      </trkpt>
      <trkpt lat="47.89341" lon="-3.88895">
        <ele>75.6</ele>
        <time>2023-04-05T15:44:54Z</time>
      </trkpt>
      <trkpt lat="47.89337" lon="-3.88891">
        <ele>75.6</ele>
        <time>2023-04-05T15:44:55Z</time>
      </trkpt>
      <trkpt lat="47.89334" lon="-3.88887">
        <ele>75.6</ele>
        <time>2023-04-05T15:44:56Z</time>
      </trkpt>
      <trkpt lat="47.8933" lon="-3.88883">
        <ele>75.6</ele>
        <time>2023-04-05T15:44:57Z</time>
      </trkpt>
      <trkpt lat="47.89325" lon="-3.88878">
        <ele>75.6</ele>
        <time>2023-04-05T15:44:58Z</time>
      </trkpt>
      <trkpt lat="47.89321" lon="-3.88874">
        <ele>75.6</ele>
        <time>2023-04-05T15:44:59Z</time>
      </trkpt>
      <trkpt lat="47.89317" lon="-3.8887">
        <ele>75.6</ele>
        <time>2023-04-05T15:45:00Z</time>
      </trkpt>
      <trkpt lat="47.89313" lon="-3.88866">
        <ele>75.6</ele>
        <time>2023-04-05T15:45:01Z</time>
      </trkpt>
      <trkpt lat="47.89308" lon="-3.88861">
        <ele>75.6</ele>
        <time>2023-04-05T15:45:02Z</time>
      </trkpt>
      <trkpt lat="47.89304" lon="-3.88857">
        <ele>75.6</ele>
        <time>2023-04-05T15:45:03Z</time>
      </trkpt>
      <trkpt lat="47.89299" lon="-3.88853">
        <ele>75.5</ele>
        <time>2023-04-05T15:45:04Z</time>
      </trkpt>
      <trkpt lat="47.89295" lon="-3.88849">
        <ele>75.5</ele>
        <time>2023-04-05T15:45:05Z</time>
      </trkpt>
      <trkpt lat="47.8929" lon="-3.88845">
        <ele>75.5</ele>
        <time>2023-04-05T15:45:06Z</time>
      </trkpt>
      <trkpt lat="47.89285" lon="-3.88842">
        <ele>75.4</ele>
        <time>2023-04-05T15:45:07Z</time>
      </trkpt>
      <trkpt lat="47.8928" lon="-3.88838">
        <ele>75.3</ele>
        <time>2023-04-05T15:45:08Z</time>
      </trkpt>
      <trkpt lat="47.89275" lon="-3.88835">
        <ele>75.3</ele>
        <time>2023-04-05T15:45:09Z</time>
      </trkpt>
      <trkpt lat="47.89271" lon="-3.88831">
        <ele>75.2</ele>
        <time>2023-04-05T15:45:10Z</time>
      </trkpt>
      <trkpt lat="47.89267" lon="-3.88825">
        <ele>75.1</ele>
        <time>2023-04-05T15:45:11Z</time>
      </trkpt>
      <trkpt lat="47.89263" lon="-3.8882">
        <ele>75</ele>
        <time>2023-04-05T15:45:12Z</time>
      </trkpt>
      <trkpt lat="47.89259" lon="-3.88815">
        <ele>74.9</ele>
        <time>2023-04-05T15:45:13Z</time>
      </trkpt>
      <trkpt lat="47.89256" lon="-3.8881">
        <ele>74.9</ele>
        <time>2023-04-05T15:45:14Z</time>
      </trkpt>
      <trkpt lat="47.89253" lon="-3.88806">
        <ele>74.8</ele>
        <time>2023-04-05T15:45:15Z</time>
      </trkpt>
      <trkpt lat="47.8925" lon="-3.888">
        <ele>74.7</ele>
        <time>2023-04-05T15:45:16Z</time>
      </trkpt>
      <trkpt lat="47.89246" lon="-3.88794">
        <ele>74.6</ele>
        <time>2023-04-05T15:45:17Z</time>
      </trkpt>
      <trkpt lat="47.89243" lon="-3.88789">
        <ele>74.5</ele>
        <time>2023-04-05T15:45:18Z</time>
      </trkpt>
      <trkpt lat="47.8924" lon="-3.88783">
        <ele>74.4</ele>
        <time>2023-04-05T15:45:19Z</time>
      </trkpt>
      <trkpt lat="47.89236" lon="-3.88777">
        <ele>74.3</ele>
        <time>2023-04-05T15:45:20Z</time>
      </trkpt>
      <trkpt lat="47.89233" lon="-3.8877">
        <ele>74.1</ele>
        <time>2023-04-05T15:45:21Z</time>
      </trkpt>
      <trkpt lat="47.8923" lon="-3.88764">
        <ele>73.9</ele>
        <time>2023-04-05T15:45:22Z</time>
      </trkpt>
      <trkpt lat="47.89226" lon="-3.88758">
        <ele>73.8</ele>
        <time>2023-04-05T15:45:23Z</time>
      </trkpt>
      <trkpt lat="47.89222" lon="-3.88752">
        <ele>73.6</ele>
        <time>2023-04-05T15:45:24Z</time>
      </trkpt>
      <trkpt lat="47.89218" lon="-3.88746">
        <ele>73.5</ele>
        <time>2023-04-05T15:45:25Z</time>
      </trkpt>
      <trkpt lat="47.89214" lon="-3.8874">
        <ele>73.3</ele>
        <time>2023-04-05T15:45:26Z</time>
      </trkpt>
      <trkpt lat="47.89209" lon="-3.88734">
        <ele>73.1</ele>
        <time>2023-04-05T15:45:27Z</time>
      </trkpt>
      <trkpt lat="47.89205" lon="-3.88729">
        <ele>73</ele>
        <time>2023-04-05T15:45:28Z</time>
      </trkpt>
      <trkpt lat="47.89201" lon="-3.88723">
        <ele>73</ele>
        <time>2023-04-05T15:45:29Z</time>
      </trkpt>
      <trkpt lat="47.89197" lon="-3.88717">
        <ele>72.9</ele>
        <time>2023-04-05T15:45:30Z</time>
      </trkpt>
      <trkpt lat="47.89193" lon="-3.88712">
        <ele>72.9</ele>
        <time>2023-04-05T15:45:31Z</time>
      </trkpt>
      <trkpt lat="47.89189" lon="-3.88706">
        <ele>72.8</ele>
        <time>2023-04-05T15:45:32Z</time>
      </trkpt>
      <trkpt lat="47.89185" lon="-3.887">
        <ele>72.7</ele>
        <time>2023-04-05T15:45:33Z</time>
      </trkpt>
      <trkpt lat="47.89181" lon="-3.88694">
        <ele>72.7</ele>
        <time>2023-04-05T15:45:34Z</time>
      </trkpt>
      <trkpt lat="47.89177" lon="-3.88688">
        <ele>72.6</ele>
        <time>2023-04-05T15:45:35Z</time>
      </trkpt>
      <trkpt lat="47.89174" lon="-3.88682">
        <ele>72.5</ele>
        <time>2023-04-05T15:45:36Z</time>
      </trkpt>
      <trkpt lat="47.89171" lon="-3.88676">
        <ele>72.4</ele>
        <time>2023-04-05T15:45:37Z</time>
      </trkpt>
      <trkpt lat="47.89168" lon="-3.88671">
        <ele>72.3</ele>
        <time>2023-04-05T15:45:38Z</time>
      </trkpt>
      <trkpt lat="47.89165" lon="-3.88665">
        <ele>72.1</ele>
        <time>2023-04-05T15:45:39Z</time>
      </trkpt>
      <trkpt lat="47.89162" lon="-3.88659">
        <ele>72</ele>
        <time>2023-04-05T15:45:40Z</time>
      </trkpt>
      <trkpt lat="47.89158" lon="-3.88652">
        <ele>71.8</ele>
        <time>2023-04-05T15:45:41Z</time>
      </trkpt>
      <trkpt lat="47.89155" lon="-3.88645">
        <ele>71.7</ele>
        <time>2023-04-05T15:45:42Z</time>
      </trkpt>
      <trkpt lat="47.89151" lon="-3.88638">
        <ele>71.5</ele>
        <time>2023-04-05T15:45:43Z</time>
      </trkpt>
      <trkpt lat="47.89147" lon="-3.88631">
        <ele>71.4</ele>
        <time>2023-04-05T15:45:44Z</time>
      </trkpt>
      <trkpt lat="47.89143" lon="-3.88623">
        <ele>71.2</ele>
        <time>2023-04-05T15:45:45Z</time>
      </trkpt>
      <trkpt lat="47.89139" lon="-3.88616">
        <ele>71</ele>
        <time>2023-04-05T15:45:46Z</time>
      </trkpt>
      <trkpt lat="47.89134" lon="-3.88608">
        <ele>70.9</ele>
        <time>2023-04-05T15:45:47Z</time>
      </trkpt>
      <trkpt lat="47.8913" lon="-3.88601">
        <ele>70.8</ele>
        <time>2023-04-05T15:45:48Z</time>
      </trkpt>
      <trkpt lat="47.89125" lon="-3.88594">
        <ele>70.7</ele>
        <time>2023-04-05T15:45:49Z</time>
      </trkpt>
      <trkpt lat="47.89121" lon="-3.88587">
        <ele>70.6</ele>
        <time>2023-04-05T15:45:50Z</time>
      </trkpt>
      <trkpt lat="47.89117" lon="-3.88579">
        <ele>70.5</ele>
        <time>2023-04-05T15:45:51Z</time>
      </trkpt>
      <trkpt lat="47.89113" lon="-3.88572">
        <ele>70.5</ele>
        <time>2023-04-05T15:45:52Z</time>
      </trkpt>
      <trkpt lat="47.89109" lon="-3.88564">
        <ele>70.4</ele>
        <time>2023-04-05T15:45:53Z</time>
      </trkpt>
      <trkpt lat="47.89105" lon="-3.88557">
        <ele>70.3</ele>
        <time>2023-04-05T15:45:54Z</time>
      </trkpt>
      <trkpt lat="47.89101" lon="-3.8855">
        <ele>70.2</ele>
        <time>2023-04-05T15:45:55Z</time>
      </trkpt>
      <trkpt lat="47.89098" lon="-3.88543">
        <ele>70.1</ele>
        <time>2023-04-05T15:45:56Z</time>
      </trkpt>
      <trkpt lat="47.89094" lon="-3.88536">
        <ele>70.1</ele>
        <time>2023-04-05T15:45:57Z</time>
      </trkpt>
      <trkpt lat="47.8909" lon="-3.8853">
        <ele>70.1</ele>
        <time>2023-04-05T15:45:58Z</time>
      </trkpt>
      <trkpt lat="47.89086" lon="-3.88523">
        <ele>70</ele>
        <time>2023-04-05T15:45:59Z</time>
      </trkpt>
      <trkpt lat="47.89083" lon="-3.88515">
        <ele>70</ele>
        <time>2023-04-05T15:46:00Z</time>
      </trkpt>
      <trkpt lat="47.89079" lon="-3.88508">
        <ele>70</ele>
        <time>2023-04-05T15:46:01Z</time>
      </trkpt>
      <trkpt lat="47.89075" lon="-3.88502">
        <ele>69.9</ele>
        <time>2023-04-05T15:46:02Z</time>
      </trkpt>
      <trkpt lat="47.89071" lon="-3.88497">
        <ele>69.9</ele>
        <time>2023-04-05T15:46:03Z</time>
      </trkpt>
      <trkpt lat="47.89066" lon="-3.88492">
        <ele>69.8</ele>
        <time>2023-04-05T15:46:04Z</time>
      </trkpt>
      <trkpt lat="47.89061" lon="-3.88488">
        <ele>69.8</ele>
        <time>2023-04-05T15:46:05Z</time>
      </trkpt>
      <trkpt lat="47.89056" lon="-3.88483">
        <ele>69.7</ele>
        <time>2023-04-05T15:46:06Z</time>
      </trkpt>
      <trkpt lat="47.89051" lon="-3.88478">
        <ele>69.6</ele>
        <time>2023-04-05T15:46:07Z</time>
      </trkpt>
      <trkpt lat="47.89046" lon="-3.88474">
        <ele>69.6</ele>
        <time>2023-04-05T15:46:08Z</time>
      </trkpt>
      <trkpt lat="47.89041" lon="-3.88471">
        <ele>69.5</ele>
        <time>2023-04-05T15:46:09Z</time>
      </trkpt>
      <trkpt lat="47.89037" lon="-3.88467">
        <ele>69.5</ele>
        <time>2023-04-05T15:46:10Z</time>
      </trkpt>
      <trkpt lat="47.89032" lon="-3.88462">
        <ele>69.4</ele>
        <time>2023-04-05T15:46:11Z</time>
      </trkpt>
      <trkpt lat="47.89029" lon="-3.88455">
        <ele>69.4</ele>
        <time>2023-04-05T15:46:12Z</time>
      </trkpt>
      <trkpt lat="47.89028" lon="-3.88447">
        <ele>69.6</ele>
        <time>2023-04-05T15:46:13Z</time>
      </trkpt>
      <trkpt lat="47.8903" lon="-3.8844">
        <ele>69.7</ele>
        <time>2023-04-05T15:46:14Z</time>
      </trkpt>
      <trkpt lat="47.89032" lon="-3.88433">
        <ele>69.9</ele>
        <time>2023-04-05T15:46:15Z</time>
      </trkpt>
      <trkpt lat="47.89035" lon="-3.88427">
        <ele>70.1</ele>
        <time>2023-04-05T15:46:16Z</time>
      </trkpt>
      <trkpt lat="47.89038" lon="-3.8842">
        <ele>70.4</ele>
        <time>2023-04-05T15:46:17Z</time>
      </trkpt>
      <trkpt lat="47.8904" lon="-3.88414">
        <ele>70.6</ele>
        <time>2023-04-05T15:46:18Z</time>
      </trkpt>
      <trkpt lat="47.89042" lon="-3.88407">
        <ele>70.9</ele>
        <time>2023-04-05T15:46:19Z</time>
      </trkpt>
      <trkpt lat="47.89045" lon="-3.88401">
        <ele>71.2</ele>
        <time>2023-04-05T15:46:20Z</time>
      </trkpt>
      <trkpt lat="47.89048" lon="-3.88395">
        <ele>71.4</ele>
        <time>2023-04-05T15:46:21Z</time>
      </trkpt>
      <trkpt lat="47.8905" lon="-3.8839">
        <ele>71.7</ele>
        <time>2023-04-05T15:46:22Z</time>
      </trkpt>
      <trkpt lat="47.89052" lon="-3.88384">
        <ele>72</ele>
        <time>2023-04-05T15:46:23Z</time>
      </trkpt>
      <trkpt lat="47.89053" lon="-3.8838">
        <ele>72.2</ele>
        <time>2023-04-05T15:46:24Z</time>
      </trkpt>
      <trkpt lat="47.89055" lon="-3.88374">
        <ele>72.5</ele>
        <time>2023-04-05T15:46:25Z</time>
      </trkpt>
      <trkpt lat="47.89058" lon="-3.88367">
        <ele>72.8</ele>
        <time>2023-04-05T15:46:26Z</time>
      </trkpt>
      <trkpt lat="47.89059" lon="-3.88363">
        <ele>73.1</ele>
        <time>2023-04-05T15:46:27Z</time>
      </trkpt>
      <trkpt lat="47.89062" lon="-3.88356">
        <ele>73.3</ele>
        <time>2023-04-05T15:46:28Z</time>
      </trkpt>
      <trkpt lat="47.89065" lon="-3.8835">
        <ele>73.5</ele>
        <time>2023-04-05T15:46:29Z</time>
      </trkpt>
      <trkpt lat="47.89068" lon="-3.88344">
        <ele>73.7</ele>
        <time>2023-04-05T15:46:30Z</time>
      </trkpt>
      <trkpt lat="47.8907" lon="-3.8834">
        <ele>73.8</ele>
        <time>2023-04-05T15:46:31Z</time>
      </trkpt>
      <trkpt lat="47.89073" lon="-3.88333">
        <ele>73.9</ele>
        <time>2023-04-05T15:46:32Z</time>
      </trkpt>
      <trkpt lat="47.89076" lon="-3.88327">
        <ele>74.1</ele>
        <time>2023-04-05T15:46:33Z</time>
      </trkpt>
      <trkpt lat="47.89079" lon="-3.88316">
        <ele>74.3</ele>
        <time>2023-04-05T15:46:35Z</time>
      </trkpt>
      <trkpt lat="47.89081" lon="-3.88309">
        <ele>74.4</ele>
        <time>2023-04-05T15:46:36Z</time>
      </trkpt>
      <trkpt lat="47.89082" lon="-3.88301">
        <ele>74.5</ele>
        <time>2023-04-05T15:46:37Z</time>
      </trkpt>
      <trkpt lat="47.89083" lon="-3.88295">
        <ele>74.5</ele>
        <time>2023-04-05T15:46:38Z</time>
      </trkpt>
      <trkpt lat="47.89084" lon="-3.88288">
        <ele>74.6</ele>
        <time>2023-04-05T15:46:39Z</time>
      </trkpt>
      <trkpt lat="47.89085" lon="-3.88281">
        <ele>74.7</ele>
        <time>2023-04-05T15:46:40Z</time>
      </trkpt>
      <trkpt lat="47.89087" lon="-3.88277">
        <ele>74.7</ele>
        <time>2023-04-05T15:46:41Z</time>
      </trkpt>
      <trkpt lat="47.89089" lon="-3.88267">
        <ele>74.7</ele>
        <time>2023-04-05T15:46:43Z</time>
      </trkpt>
      <trkpt lat="47.8909" lon="-3.8826">
        <ele>74.8</ele>
        <time>2023-04-05T15:46:44Z</time>
      </trkpt>
      <trkpt lat="47.89091" lon="-3.88254">
        <ele>74.8</ele>
        <time>2023-04-05T15:46:45Z</time>
      </trkpt>
      <trkpt lat="47.89093" lon="-3.88245">
        <ele>74.8</ele>
        <time>2023-04-05T15:46:46Z</time>
      </trkpt>
      <trkpt lat="47.89094" lon="-3.88238">
        <ele>74.8</ele>
        <time>2023-04-05T15:46:47Z</time>
      </trkpt>
      <trkpt lat="47.89096" lon="-3.88232">
        <ele>74.7</ele>
        <time>2023-04-05T15:46:49Z</time>
      </trkpt>
      <trkpt lat="47.89097" lon="-3.88222">
        <ele>74.7</ele>
        <time>2023-04-05T15:46:50Z</time>
      </trkpt>
      <trkpt lat="47.89098" lon="-3.88215">
        <ele>74.7</ele>
        <time>2023-04-05T15:46:52Z</time>
      </trkpt>
      <trkpt lat="47.891" lon="-3.88208">
        <ele>74.6</ele>
        <time>2023-04-05T15:46:53Z</time>
      </trkpt>
      <trkpt lat="47.89101" lon="-3.88203">
        <ele>74.6</ele>
        <time>2023-04-05T15:46:54Z</time>
      </trkpt>
      <trkpt lat="47.89101" lon="-3.88197">
        <ele>74.5</ele>
        <time>2023-04-05T15:46:55Z</time>
      </trkpt>
      <trkpt lat="47.89102" lon="-3.88193">
        <ele>74.5</ele>
        <time>2023-04-05T15:46:56Z</time>
      </trkpt>
      <trkpt lat="47.89102" lon="-3.88187">
        <ele>74.4</ele>
        <time>2023-04-05T15:46:57Z</time>
      </trkpt>
      <trkpt lat="47.891" lon="-3.88182">
        <ele>74.3</ele>
        <time>2023-04-05T15:46:58Z</time>
      </trkpt>
      <trkpt lat="47.89099" lon="-3.8818">
        <ele>74.3</ele>
        <time>2023-04-05T15:46:59Z</time>
      </trkpt>
      <trkpt lat="47.89099" lon="-3.88181">
        <ele>74.3</ele>
        <time>2023-04-05T15:47:00Z</time>
      </trkpt>
      <trkpt lat="47.89099" lon="-3.88182">
        <ele>74.3</ele>
        <time>2023-04-05T15:47:01Z</time>
        <extensions>
          <visugpx:TrkExtension xmlns:visugpx="https://www.visugpx.com/editgpx/">
            <visugpx:node>1</visugpx:node>
            </visugpx:TrkExtension>
        </extensions>
      </trkpt>
    </trkseg>
  </trk>
</gpx>